<?xml version='1.0' encoding='UTF-8'?><gpx version="1.1" creator="JPX - https://github.com/jenetics/jpx" xmlns="http://www.topografix.com/GPX/1/1"><trk><trkseg><trkpt lat="45.0548471" lon="7.6533859"><ele>258.0</ele><time>2026-04-18T06:27:39.017Z</time></trkpt><trkpt lat="45.0548371" lon="7.6534979"><ele>258.0</ele><time>2026-04-18T06:32:49.619Z</time></trkpt><trkpt lat="45.0547999" lon="7.6535805"><ele>258.0</ele><time>2026-04-18T06:33:02.039Z</time></trkpt><trkpt lat="45.0547558" lon="7.6536677"><ele>258.0</ele><time>2026-04-18T06:33:05.18Z</time></trkpt><trkpt lat="45.0547076" lon="7.6537677"><ele>258.0</ele><time>2026-04-18T06:33:10.439Z</time></trkpt><trkpt lat="45.0546904" lon="7.653873"><ele>258.0</ele><time>2026-04-18T06:33:15.699Z</time></trkpt><trkpt lat="45.0548199" lon="7.6538174"><ele>257.99999999999994</ele><time>2026-04-18T06:34:02.281Z</time></trkpt><trkpt lat="45.0548634" lon="7.653726"><ele>258.0</ele><time>2026-04-18T06:34:28.811Z</time></trkpt><trkpt lat="45.0548425" lon="7.6536378"><ele>258.0</ele><time>2026-04-18T06:34:38.44Z</time></trkpt><trkpt lat="45.0548677" lon="7.6535393"><ele>258.0</ele><time>2026-04-18T06:34:42.5Z</time></trkpt><trkpt lat="45.0548946" lon="7.6534521"><ele>258.0</ele><time>2026-04-18T06:34:46.581Z</time></trkpt><trkpt lat="45.0549259" lon="7.6533661"><ele>257.99999999999994</ele><time>2026-04-18T06:34:51.82Z</time></trkpt><trkpt lat="45.054941" lon="7.6532697"><ele>258.0</ele><time>2026-04-18T06:34:57.538Z</time></trkpt><trkpt lat="45.0548495" lon="7.6533924"><ele>258.0</ele><time>2026-04-18T06:35:31.985Z</time></trkpt><trkpt lat="45.0548258" lon="7.6535539"><ele>258.0</ele><time>2026-04-18T06:36:33.019Z</time></trkpt><trkpt lat="45.0547821" lon="7.6536242"><ele>258.0</ele><time>2026-04-18T06:37:52.969Z</time></trkpt><trkpt lat="45.0547171" lon="7.6535868"><ele>258.0</ele><time>2026-04-18T06:38:00.018Z</time></trkpt><trkpt lat="45.0546587" lon="7.653542"><ele>258.0</ele><time>2026-04-18T06:38:09.032Z</time></trkpt><trkpt lat="45.0548312" lon="7.6537466"><ele>258.0</ele><time>2026-04-18T06:38:20.019Z</time></trkpt><trkpt lat="45.0548834" lon="7.6538267"><ele>258.0</ele><time>2026-04-18T06:38:21.018Z</time></trkpt><trkpt lat="45.0549387" lon="7.6539194"><ele>258.0</ele><time>2026-04-18T06:38:23.019Z</time></trkpt><trkpt lat="45.0550067" lon="7.6540168"><ele>258.0</ele><time>2026-04-18T06:38:25.018Z</time></trkpt><trkpt lat="45.0549636" lon="7.654084"><ele>258.0</ele><time>2026-04-18T06:38:32.019Z</time></trkpt><trkpt lat="45.0549007" lon="7.6540702"><ele>258.0</ele><time>2026-04-18T06:38:43.99Z</time></trkpt><trkpt lat="45.054894" lon="7.6539805"><ele>257.57142857142856</ele><time>2026-04-18T06:39:01.99Z</time></trkpt><trkpt lat="45.0549251" lon="7.6539023"><ele>257.1428571428571</ele><time>2026-04-18T06:39:08.018Z</time></trkpt><trkpt lat="45.054881" lon="7.6538362"><ele>256.7142857142857</ele><time>2026-04-18T06:39:14.019Z</time></trkpt><trkpt lat="45.0548204" lon="7.6538863"><ele>256.2857142857143</ele><time>2026-04-18T06:39:17.019Z</time></trkpt><trkpt lat="45.0547569" lon="7.6538885"><ele>255.8571428571429</ele><time>2026-04-18T06:39:21.019Z</time></trkpt><trkpt lat="45.0547056" lon="7.6539442"><ele>255.42857142857144</ele><time>2026-04-18T06:39:27.034Z</time></trkpt><trkpt lat="45.0547206" lon="7.6540346"><ele>255.0</ele><time>2026-04-18T06:39:32.018Z</time></trkpt><trkpt lat="45.054759" lon="7.6541106"><ele>255.0</ele><time>2026-04-18T06:39:36.018Z</time></trkpt><trkpt lat="45.0548218" lon="7.6541317"><ele>255.0</ele><time>2026-04-18T06:39:42.019Z</time></trkpt><trkpt lat="45.0548174" lon="7.6540131"><ele>255.0</ele><time>2026-04-18T06:39:49.019Z</time></trkpt><trkpt lat="45.0547761" lon="7.6539386"><ele>255.0</ele><time>2026-04-18T06:40:13.019Z</time></trkpt><trkpt lat="45.054804" lon="7.6538412"><ele>255.0</ele><time>2026-04-18T06:41:25.018Z</time></trkpt><trkpt lat="45.0548581" lon="7.6536776"><ele>255.0</ele><time>2026-04-18T06:41:29.033Z</time></trkpt><trkpt lat="45.0548788" lon="7.6535787"><ele>255.0</ele><time>2026-04-18T06:41:31.019Z</time></trkpt><trkpt lat="45.0548309" lon="7.6536542"><ele>255.0</ele><time>2026-04-18T06:43:11.018Z</time></trkpt><trkpt lat="45.0548212" lon="7.6537435"><ele>255.0</ele><time>2026-04-18T06:43:19.018Z</time></trkpt><trkpt lat="45.0547988" lon="7.6538295"><ele>255.0</ele><time>2026-04-18T06:43:30.019Z</time></trkpt><trkpt lat="45.0548575" lon="7.654135"><ele>255.0</ele><time>2026-04-18T06:43:48.019Z</time></trkpt><trkpt lat="45.0549686" lon="7.6541534"><ele>255.6</ele><time>2026-04-18T06:43:49.018Z</time></trkpt><trkpt lat="45.055151" lon="7.6541334"><ele>256.2</ele><time>2026-04-18T06:43:52.018Z</time></trkpt><trkpt lat="45.0552147" lon="7.654145"><ele>256.8</ele><time>2026-04-18T06:43:53.019Z</time></trkpt><trkpt lat="45.0553085" lon="7.6541506"><ele>257.4</ele><time>2026-04-18T06:43:55.019Z</time></trkpt><trkpt lat="45.0553956" lon="7.654162"><ele>258.0</ele><time>2026-04-18T06:43:57.018Z</time></trkpt><trkpt lat="45.0554573" lon="7.6541871"><ele>258.0</ele><time>2026-04-18T06:44:01.019Z</time></trkpt><trkpt lat="45.0555199" lon="7.6542187"><ele>258.0</ele><time>2026-04-18T06:44:10.018Z</time></trkpt><trkpt lat="45.0555298" lon="7.654317"><ele>258.0</ele><time>2026-04-18T06:44:12.019Z</time></trkpt><trkpt lat="45.0554488" lon="7.654435"><ele>258.0</ele><time>2026-04-18T06:44:14.018Z</time></trkpt><trkpt lat="45.0553787" lon="7.6544776"><ele>258.0</ele><time>2026-04-18T06:44:15.018Z</time></trkpt><trkpt lat="45.0552931" lon="7.6545055"><ele>258.0</ele><time>2026-04-18T06:44:16.019Z</time></trkpt><trkpt lat="45.0551913" lon="7.6545178"><ele>258.25</ele><time>2026-04-18T06:44:17.019Z</time></trkpt><trkpt lat="45.055076" lon="7.6545229"><ele>258.5</ele><time>2026-04-18T06:44:18.019Z</time></trkpt><trkpt lat="45.0549635" lon="7.6545262"><ele>258.75</ele><time>2026-04-18T06:44:19.019Z</time></trkpt><trkpt lat="45.0548514" lon="7.6545356"><ele>259.0</ele><time>2026-04-18T06:44:20.019Z</time></trkpt><trkpt lat="45.0547419" lon="7.6545462"><ele>258.59999999999997</ele><time>2026-04-18T06:44:21.018Z</time></trkpt><trkpt lat="45.0546386" lon="7.6545639"><ele>258.2</ele><time>2026-04-18T06:44:22.019Z</time></trkpt><trkpt lat="45.0545438" lon="7.6545851"><ele>257.79999999999995</ele><time>2026-04-18T06:44:23.018Z</time></trkpt><trkpt lat="45.0544535" lon="7.6546049"><ele>257.4</ele><time>2026-04-18T06:44:24.018Z</time></trkpt><trkpt lat="45.0543635" lon="7.6546199"><ele>257.0</ele><time>2026-04-18T06:44:25.018Z</time></trkpt><trkpt lat="45.05428" lon="7.6546378"><ele>257.0</ele><time>2026-04-18T06:44:26.019Z</time></trkpt><trkpt lat="45.0542006" lon="7.6546556"><ele>257.0</ele><time>2026-04-18T06:44:27.018Z</time></trkpt><trkpt lat="45.054134" lon="7.6546748"><ele>257.0</ele><time>2026-04-18T06:44:28.019Z</time></trkpt><trkpt lat="45.0540283" lon="7.654704"><ele>257.0</ele><time>2026-04-18T06:44:30.018Z</time></trkpt><trkpt lat="45.053955" lon="7.6547328"><ele>257.0</ele><time>2026-04-18T06:44:32.018Z</time></trkpt><trkpt lat="45.0538653" lon="7.6547587"><ele>257.0</ele><time>2026-04-18T06:44:58.018Z</time></trkpt><trkpt lat="45.0537155" lon="7.6548265"><ele>256.57142857142856</ele><time>2026-04-18T06:45:01.018Z</time></trkpt><trkpt lat="45.0536504" lon="7.6548642"><ele>256.14285714285717</ele><time>2026-04-18T06:45:02.018Z</time></trkpt><trkpt lat="45.0535822" lon="7.6548971"><ele>255.71428571428572</ele><time>2026-04-18T06:45:03.019Z</time></trkpt><trkpt lat="45.0535073" lon="7.6549333"><ele>255.28571428571428</ele><time>2026-04-18T06:45:04.019Z</time></trkpt><trkpt lat="45.0534312" lon="7.6549708"><ele>254.85714285714283</ele><time>2026-04-18T06:45:05.019Z</time></trkpt><trkpt lat="45.0533621" lon="7.6550094"><ele>254.42857142857144</ele><time>2026-04-18T06:45:06.019Z</time></trkpt><trkpt lat="45.0533047" lon="7.6550542"><ele>254.0</ele><time>2026-04-18T06:45:07.019Z</time></trkpt><trkpt lat="45.053254" lon="7.6551132"><ele>254.0</ele><time>2026-04-18T06:45:08.018Z</time></trkpt><trkpt lat="45.053201" lon="7.655171"><ele>253.99999999999997</ele><time>2026-04-18T06:45:09.019Z</time></trkpt><trkpt lat="45.0531112" lon="7.6552554"><ele>253.99999999999997</ele><time>2026-04-18T06:45:11.019Z</time></trkpt><trkpt lat="45.053039" lon="7.6553312"><ele>254.0</ele><time>2026-04-18T06:45:13.019Z</time></trkpt><trkpt lat="45.0529613" lon="7.6554123"><ele>254.0</ele><time>2026-04-18T06:45:15.018Z</time></trkpt><trkpt lat="45.0528511" lon="7.6555109"><ele>253.0</ele><time>2026-04-18T06:45:17.019Z</time></trkpt><trkpt lat="45.052772" lon="7.6555602"><ele>251.99999999999997</ele><time>2026-04-18T06:45:18.018Z</time></trkpt><trkpt lat="45.0526727" lon="7.6556001"><ele>250.99999999999997</ele><time>2026-04-18T06:45:19.018Z</time></trkpt><trkpt lat="45.0525581" lon="7.6556163"><ele>250.0</ele><time>2026-04-18T06:45:20.019Z</time></trkpt><trkpt lat="45.052441" lon="7.6556018"><ele>249.0</ele><time>2026-04-18T06:45:21.019Z</time></trkpt><trkpt lat="45.0523172" lon="7.6555577"><ele>249.0</ele><time>2026-04-18T06:45:22.019Z</time></trkpt><trkpt lat="45.052204" lon="7.655489"><ele>248.99999999999997</ele><time>2026-04-18T06:45:23.019Z</time></trkpt><trkpt lat="45.0521048" lon="7.6554131"><ele>248.99999999999997</ele><time>2026-04-18T06:45:24.019Z</time></trkpt><trkpt lat="45.0520191" lon="7.6553456"><ele>249.0</ele><time>2026-04-18T06:45:25.018Z</time></trkpt><trkpt lat="45.0519525" lon="7.6552842"><ele>249.0</ele><time>2026-04-18T06:45:26.019Z</time></trkpt><trkpt lat="45.0518757" lon="7.6552068"><ele>249.5</ele><time>2026-04-18T06:45:28.018Z</time></trkpt><trkpt lat="45.051821" lon="7.6551592"><ele>250.0</ele><time>2026-04-18T06:46:37.018Z</time></trkpt><trkpt lat="45.0517691" lon="7.6550721"><ele>250.5</ele><time>2026-04-18T06:46:38.019Z</time></trkpt><trkpt lat="45.0517063" lon="7.6549761"><ele>251.0</ele><time>2026-04-18T06:46:39.018Z</time></trkpt><trkpt lat="45.0516243" lon="7.654907"><ele>251.5</ele><time>2026-04-18T06:46:40.019Z</time></trkpt><trkpt lat="45.0515251" lon="7.6548528"><ele>252.0</ele><time>2026-04-18T06:46:41.018Z</time></trkpt><trkpt lat="45.0514123" lon="7.6548012"><ele>252.0</ele><time>2026-04-18T06:46:42.019Z</time></trkpt><trkpt lat="45.0512996" lon="7.6547425"><ele>252.0</ele><time>2026-04-18T06:46:43.018Z</time></trkpt><trkpt lat="45.0511807" lon="7.6546701"><ele>252.0</ele><time>2026-04-18T06:46:44.018Z</time></trkpt><trkpt lat="45.0510608" lon="7.6545877"><ele>252.0</ele><time>2026-04-18T06:46:45.019Z</time></trkpt><trkpt lat="45.0509373" lon="7.6545002"><ele>252.5</ele><time>2026-04-18T06:46:46.019Z</time></trkpt><trkpt lat="45.0508159" lon="7.6544184"><ele>253.0</ele><time>2026-04-18T06:46:47.018Z</time></trkpt><trkpt lat="45.0507009" lon="7.6543432"><ele>253.5</ele><time>2026-04-18T06:46:48.018Z</time></trkpt><trkpt lat="45.0505959" lon="7.6542748"><ele>254.0</ele><time>2026-04-18T06:46:49.018Z</time></trkpt><trkpt lat="45.0504967" lon="7.6542096"><ele>253.33333333333334</ele><time>2026-04-18T06:46:50.019Z</time></trkpt><trkpt lat="45.0504054" lon="7.6541492"><ele>252.66666666666669</ele><time>2026-04-18T06:46:51.018Z</time></trkpt><trkpt lat="45.0503227" lon="7.6540981"><ele>252.0</ele><time>2026-04-18T06:46:52.019Z</time></trkpt><trkpt lat="45.0502517" lon="7.6540555"><ele>251.33333333333331</ele><time>2026-04-18T06:46:53.019Z</time></trkpt><trkpt lat="45.0501572" lon="7.6539935"><ele>250.66666666666666</ele><time>2026-04-18T06:46:55.019Z</time></trkpt><trkpt lat="45.0500946" lon="7.6539588"><ele>250.0</ele><time>2026-04-18T06:47:19.019Z</time></trkpt><trkpt lat="45.0499623" lon="7.6538571"><ele>250.0</ele><time>2026-04-18T06:47:21.018Z</time></trkpt><trkpt lat="45.0498672" lon="7.6537773"><ele>250.0</ele><time>2026-04-18T06:47:22.019Z</time></trkpt><trkpt lat="45.0497606" lon="7.6536889"><ele>250.0</ele><time>2026-04-18T06:47:23.018Z</time></trkpt><trkpt lat="45.0496365" lon="7.6535946"><ele>250.0</ele><time>2026-04-18T06:47:24.019Z</time></trkpt><trkpt lat="45.0495054" lon="7.6534988"><ele>250.33333333333331</ele><time>2026-04-18T06:47:25.019Z</time></trkpt><trkpt lat="45.0493703" lon="7.6534026"><ele>250.66666666666669</ele><time>2026-04-18T06:47:26.018Z</time></trkpt><trkpt lat="45.0492294" lon="7.653304"><ele>251.0</ele><time>2026-04-18T06:47:27.018Z</time></trkpt><trkpt lat="45.0490811" lon="7.6532"><ele>251.33333333333334</ele><time>2026-04-18T06:47:28.008Z</time></trkpt><trkpt lat="45.0489307" lon="7.6530929"><ele>251.66666666666669</ele><time>2026-04-18T06:47:29.011Z</time></trkpt><trkpt lat="45.0487806" lon="7.6529859"><ele>252.0</ele><time>2026-04-18T06:47:30.008Z</time></trkpt><trkpt lat="45.0486292" lon="7.652879"><ele>252.33333333333331</ele><time>2026-04-18T06:47:31.012Z</time></trkpt><trkpt lat="45.0484752" lon="7.6527714"><ele>252.66666666666666</ele><time>2026-04-18T06:47:32.013Z</time></trkpt><trkpt lat="45.0483207" lon="7.6526634"><ele>253.0</ele><time>2026-04-18T06:47:33.01Z</time></trkpt><trkpt lat="45.0481664" lon="7.6525575"><ele>252.33333333333331</ele><time>2026-04-18T06:47:34.01Z</time></trkpt><trkpt lat="45.0480048" lon="7.6524472"><ele>251.66666666666669</ele><time>2026-04-18T06:47:35.01Z</time></trkpt><trkpt lat="45.0478635" lon="7.6523529"><ele>251.0</ele><time>2026-04-18T06:47:36.01Z</time></trkpt><trkpt lat="45.0477153" lon="7.6522526"><ele>251.0</ele><time>2026-04-18T06:47:37.01Z</time></trkpt><trkpt lat="45.0475597" lon="7.6521457"><ele>251.0</ele><time>2026-04-18T06:47:38.009Z</time></trkpt><trkpt lat="45.0474229" lon="7.6520513"><ele>251.0</ele><time>2026-04-18T06:47:39.009Z</time></trkpt><trkpt lat="45.047274" lon="7.6519487"><ele>250.66666666666669</ele><time>2026-04-18T06:47:40.01Z</time></trkpt><trkpt lat="45.0471214" lon="7.6518431"><ele>250.33333333333331</ele><time>2026-04-18T06:47:41.01Z</time></trkpt><trkpt lat="45.0469619" lon="7.6517292"><ele>250.0</ele><time>2026-04-18T06:47:42.01Z</time></trkpt><trkpt lat="45.0467873" lon="7.6515988"><ele>250.33333333333331</ele><time>2026-04-18T06:47:43.01Z</time></trkpt><trkpt lat="45.0466261" lon="7.6514825"><ele>250.66666666666669</ele><time>2026-04-18T06:47:44.01Z</time></trkpt><trkpt lat="45.0464487" lon="7.6513557"><ele>251.0</ele><time>2026-04-18T06:47:45.01Z</time></trkpt><trkpt lat="45.0462667" lon="7.6512286"><ele>251.0</ele><time>2026-04-18T06:47:46.009Z</time></trkpt><trkpt lat="45.0460818" lon="7.6511015"><ele>251.0</ele><time>2026-04-18T06:47:47.009Z</time></trkpt><trkpt lat="45.0458864" lon="7.6509654"><ele>251.0</ele><time>2026-04-18T06:47:48.01Z</time></trkpt><trkpt lat="45.0457143" lon="7.6508433"><ele>251.0</ele><time>2026-04-18T06:47:49.01Z</time></trkpt><trkpt lat="45.0455359" lon="7.6507132"><ele>251.0</ele><time>2026-04-18T06:47:50.01Z</time></trkpt><trkpt lat="45.0453517" lon="7.6505766"><ele>251.0</ele><time>2026-04-18T06:47:51.01Z</time></trkpt><trkpt lat="45.0451956" lon="7.6504593"><ele>251.0</ele><time>2026-04-18T06:47:52.01Z</time></trkpt><trkpt lat="45.0450336" lon="7.6503383"><ele>251.0</ele><time>2026-04-18T06:47:53.01Z</time></trkpt><trkpt lat="45.0448725" lon="7.650217"><ele>251.0</ele><time>2026-04-18T06:47:54.009Z</time></trkpt><trkpt lat="45.0447384" lon="7.650117"><ele>250.75</ele><time>2026-04-18T06:47:55.01Z</time></trkpt><trkpt lat="45.0445956" lon="7.6500105"><ele>250.5</ele><time>2026-04-18T06:47:56.01Z</time></trkpt><trkpt lat="45.0444817" lon="7.6499261"><ele>250.25</ele><time>2026-04-18T06:47:57.009Z</time></trkpt><trkpt lat="45.0443735" lon="7.6498485"><ele>250.0</ele><time>2026-04-18T06:47:58.01Z</time></trkpt><trkpt lat="45.0442754" lon="7.6497799"><ele>250.0</ele><time>2026-04-18T06:47:59.01Z</time></trkpt><trkpt lat="45.0442068" lon="7.6497295"><ele>250.0</ele><time>2026-04-18T06:48:00.01Z</time></trkpt><trkpt lat="45.0441493" lon="7.6496814"><ele>250.0</ele><time>2026-04-18T06:48:01.01Z</time></trkpt><trkpt lat="45.044061" lon="7.6496004"><ele>250.0</ele><time>2026-04-18T06:48:03.01Z</time></trkpt><trkpt lat="45.0439393" lon="7.6495103"><ele>250.0</ele><time>2026-04-18T06:48:05.009Z</time></trkpt><trkpt lat="45.0438515" lon="7.6494565"><ele>250.25</ele><time>2026-04-18T06:48:06.009Z</time></trkpt><trkpt lat="45.0437397" lon="7.6493821"><ele>250.5</ele><time>2026-04-18T06:48:07.009Z</time></trkpt><trkpt lat="45.0436237" lon="7.6493026"><ele>250.75</ele><time>2026-04-18T06:48:08.009Z</time></trkpt><trkpt lat="45.0434853" lon="7.6492074"><ele>251.0</ele><time>2026-04-18T06:48:09.009Z</time></trkpt><trkpt lat="45.0433329" lon="7.6491034"><ele>250.66666666666669</ele><time>2026-04-18T06:48:10.009Z</time></trkpt><trkpt lat="45.0431979" lon="7.6490098"><ele>250.33333333333331</ele><time>2026-04-18T06:48:11.009Z</time></trkpt><trkpt lat="45.0430537" lon="7.6489075"><ele>250.0</ele><time>2026-04-18T06:48:12.018Z</time></trkpt><trkpt lat="45.0429109" lon="7.6488034"><ele>250.0</ele><time>2026-04-18T06:48:13.019Z</time></trkpt><trkpt lat="45.0427687" lon="7.6486983"><ele>250.0</ele><time>2026-04-18T06:48:14.019Z</time></trkpt><trkpt lat="45.0426253" lon="7.6485971"><ele>250.0</ele><time>2026-04-18T06:48:15.018Z</time></trkpt><trkpt lat="45.0424874" lon="7.6484975"><ele>250.5</ele><time>2026-04-18T06:48:16.018Z</time></trkpt><trkpt lat="45.0423558" lon="7.6484002"><ele>251.0</ele><time>2026-04-18T06:48:17.018Z</time></trkpt><trkpt lat="45.0422326" lon="7.6483066"><ele>251.5</ele><time>2026-04-18T06:48:18.018Z</time></trkpt><trkpt lat="45.0421125" lon="7.6482216"><ele>252.0</ele><time>2026-04-18T06:48:19.019Z</time></trkpt><trkpt lat="45.0419954" lon="7.6481431"><ele>252.0</ele><time>2026-04-18T06:48:20.012Z</time></trkpt><trkpt lat="45.041898" lon="7.648074"><ele>252.0</ele><time>2026-04-18T06:48:21.009Z</time></trkpt><trkpt lat="45.0418" lon="7.6480019"><ele>252.0</ele><time>2026-04-18T06:48:22.009Z</time></trkpt><trkpt lat="45.0417019" lon="7.6479304"><ele>252.0</ele><time>2026-04-18T06:48:23.01Z</time></trkpt><trkpt lat="45.0416206" lon="7.6478729"><ele>252.0</ele><time>2026-04-18T06:48:24.009Z</time></trkpt><trkpt lat="45.0415415" lon="7.6478162"><ele>251.8</ele><time>2026-04-18T06:48:25.012Z</time></trkpt><trkpt lat="45.0414664" lon="7.6477626"><ele>251.6</ele><time>2026-04-18T06:48:26.012Z</time></trkpt><trkpt lat="45.0413666" lon="7.6476904"><ele>251.40000000000003</ele><time>2026-04-18T06:48:28.011Z</time></trkpt><trkpt lat="45.0412742" lon="7.64763"><ele>251.20000000000002</ele><time>2026-04-18T06:48:55.012Z</time></trkpt><trkpt lat="45.0412087" lon="7.6475855"><ele>251.0</ele><time>2026-04-18T06:48:56.012Z</time></trkpt><trkpt lat="45.0411145" lon="7.6475173"><ele>251.0</ele><time>2026-04-18T06:48:57.012Z</time></trkpt><trkpt lat="45.0409985" lon="7.6474351"><ele>251.0</ele><time>2026-04-18T06:48:58.011Z</time></trkpt><trkpt lat="45.0408658" lon="7.6473415"><ele>251.0</ele><time>2026-04-18T06:48:59.011Z</time></trkpt><trkpt lat="45.0407216" lon="7.6472398"><ele>251.0</ele><time>2026-04-18T06:49:00.011Z</time></trkpt><trkpt lat="45.0405762" lon="7.6471333"><ele>250.66666666666669</ele><time>2026-04-18T06:49:01.011Z</time></trkpt><trkpt lat="45.0404059" lon="7.6470125"><ele>250.33333333333331</ele><time>2026-04-18T06:49:02.012Z</time></trkpt><trkpt lat="45.040247" lon="7.6469012"><ele>250.0</ele><time>2026-04-18T06:49:03.018Z</time></trkpt><trkpt lat="45.0400751" lon="7.6467847"><ele>250.0</ele><time>2026-04-18T06:49:04.018Z</time></trkpt><trkpt lat="45.0399016" lon="7.6466615"><ele>250.0</ele><time>2026-04-18T06:49:05.019Z</time></trkpt><trkpt lat="45.0397245" lon="7.6465373"><ele>250.0</ele><time>2026-04-18T06:49:06.018Z</time></trkpt><trkpt lat="45.0395467" lon="7.6464134"><ele>250.0</ele><time>2026-04-18T06:49:07.018Z</time></trkpt><trkpt lat="45.0393709" lon="7.6462841"><ele>250.0</ele><time>2026-04-18T06:49:08.018Z</time></trkpt><trkpt lat="45.0391951" lon="7.6461551"><ele>250.0</ele><time>2026-04-18T06:49:09.018Z</time></trkpt><trkpt lat="45.039017" lon="7.6460291"><ele>250.33333333333331</ele><time>2026-04-18T06:49:10.019Z</time></trkpt><trkpt lat="45.0388372" lon="7.6459019"><ele>250.66666666666669</ele><time>2026-04-18T06:49:11.008Z</time></trkpt><trkpt lat="45.0386718" lon="7.6457833"><ele>251.0</ele><time>2026-04-18T06:49:12.009Z</time></trkpt><trkpt lat="45.0384865" lon="7.6456512"><ele>251.0</ele><time>2026-04-18T06:49:13.022Z</time></trkpt><trkpt lat="45.0383178" lon="7.6455292"><ele>251.0</ele><time>2026-04-18T06:49:14.009Z</time></trkpt><trkpt lat="45.0381639" lon="7.6454186"><ele>251.0</ele><time>2026-04-18T06:49:15.008Z</time></trkpt><trkpt lat="45.0379956" lon="7.6452983"><ele>252.0</ele><time>2026-04-18T06:49:16.009Z</time></trkpt><trkpt lat="45.0378445" lon="7.6451924"><ele>253.0</ele><time>2026-04-18T06:49:17.01Z</time></trkpt><trkpt lat="45.0376739" lon="7.6450721"><ele>254.0</ele><time>2026-04-18T06:49:18.009Z</time></trkpt><trkpt lat="45.0375107" lon="7.6449652"><ele>254.33333333333334</ele><time>2026-04-18T06:49:19.01Z</time></trkpt><trkpt lat="45.0373588" lon="7.6448651"><ele>254.66666666666669</ele><time>2026-04-18T06:49:20.01Z</time></trkpt><trkpt lat="45.0371865" lon="7.6447419"><ele>255.0</ele><time>2026-04-18T06:49:21.01Z</time></trkpt><trkpt lat="45.0370342" lon="7.644629"><ele>255.0</ele><time>2026-04-18T06:49:22.009Z</time></trkpt><trkpt lat="45.0368608" lon="7.6444996"><ele>255.0</ele><time>2026-04-18T06:49:23.009Z</time></trkpt><trkpt lat="45.0366931" lon="7.6443789"><ele>255.0</ele><time>2026-04-18T06:49:24.009Z</time></trkpt><trkpt lat="45.0365379" lon="7.6442687"><ele>255.0</ele><time>2026-04-18T06:49:25.01Z</time></trkpt><trkpt lat="45.0363688" lon="7.644149"><ele>255.0</ele><time>2026-04-18T06:49:26.009Z</time></trkpt><trkpt lat="45.0362189" lon="7.6440435"><ele>255.0</ele><time>2026-04-18T06:49:27.01Z</time></trkpt><trkpt lat="45.0360894" lon="7.6439499"><ele>255.0</ele><time>2026-04-18T06:49:28.01Z</time></trkpt><trkpt lat="45.0359509" lon="7.6438521"><ele>255.0</ele><time>2026-04-18T06:49:29.01Z</time></trkpt><trkpt lat="45.0358284" lon="7.6437628"><ele>255.0</ele><time>2026-04-18T06:49:30.01Z</time></trkpt><trkpt lat="45.035714" lon="7.6436796"><ele>255.0</ele><time>2026-04-18T06:49:31.01Z</time></trkpt><trkpt lat="45.0356116" lon="7.6436051"><ele>254.8</ele><time>2026-04-18T06:49:32.01Z</time></trkpt><trkpt lat="45.0355306" lon="7.6435459"><ele>254.6</ele><time>2026-04-18T06:49:33.009Z</time></trkpt><trkpt lat="45.0354581" lon="7.6434939"><ele>254.39999999999998</ele><time>2026-04-18T06:49:34.01Z</time></trkpt><trkpt lat="45.0353628" lon="7.6434183"><ele>254.2</ele><time>2026-04-18T06:49:36.01Z</time></trkpt><trkpt lat="45.0352741" lon="7.6433351"><ele>254.0</ele><time>2026-04-18T06:49:38.01Z</time></trkpt><trkpt lat="45.0351759" lon="7.6432615"><ele>254.00000000000003</ele><time>2026-04-18T06:49:40.009Z</time></trkpt><trkpt lat="45.0351101" lon="7.6432081"><ele>254.0</ele><time>2026-04-18T06:49:42.009Z</time></trkpt><trkpt lat="45.0350425" lon="7.6431767"><ele>254.0</ele><time>2026-04-18T06:49:49.01Z</time></trkpt><trkpt lat="45.0349468" lon="7.6431193"><ele>254.0</ele><time>2026-04-18T06:50:48.009Z</time></trkpt><trkpt lat="45.0348837" lon="7.6430527"><ele>254.00000000000003</ele><time>2026-04-18T06:50:49.01Z</time></trkpt><trkpt lat="45.0348137" lon="7.6429946"><ele>254.0</ele><time>2026-04-18T06:50:50.01Z</time></trkpt><trkpt lat="45.0347226" lon="7.6429181"><ele>254.25</ele><time>2026-04-18T06:50:51.009Z</time></trkpt><trkpt lat="45.0346205" lon="7.6428255"><ele>254.5</ele><time>2026-04-18T06:50:52.009Z</time></trkpt><trkpt lat="45.0345059" lon="7.6427361"><ele>254.75</ele><time>2026-04-18T06:50:53.01Z</time></trkpt><trkpt lat="45.0343631" lon="7.6426358"><ele>255.0</ele><time>2026-04-18T06:50:54.019Z</time></trkpt><trkpt lat="45.0342192" lon="7.6425278"><ele>253.33333333333331</ele><time>2026-04-18T06:50:55.019Z</time></trkpt><trkpt lat="45.0340706" lon="7.6424211"><ele>251.66666666666666</ele><time>2026-04-18T06:50:56.019Z</time></trkpt><trkpt lat="45.0339159" lon="7.6423088"><ele>250.0</ele><time>2026-04-18T06:50:57.019Z</time></trkpt><trkpt lat="45.0337527" lon="7.6421897"><ele>250.0</ele><time>2026-04-18T06:50:58.019Z</time></trkpt><trkpt lat="45.0335901" lon="7.6420716"><ele>250.0</ele><time>2026-04-18T06:50:59.019Z</time></trkpt><trkpt lat="45.0334209" lon="7.6419468"><ele>250.0</ele><time>2026-04-18T06:51:00.018Z</time></trkpt><trkpt lat="45.0332485" lon="7.6418217"><ele>250.33333333333331</ele><time>2026-04-18T06:51:01.019Z</time></trkpt><trkpt lat="45.0330774" lon="7.6416972"><ele>250.66666666666669</ele><time>2026-04-18T06:51:02.018Z</time></trkpt><trkpt lat="45.0329072" lon="7.6415828"><ele>251.0</ele><time>2026-04-18T06:51:03.018Z</time></trkpt><trkpt lat="45.0327534" lon="7.6414656"><ele>251.0</ele><time>2026-04-18T06:51:04.019Z</time></trkpt><trkpt lat="45.0326081" lon="7.6413641"><ele>251.0</ele><time>2026-04-18T06:51:05.019Z</time></trkpt><trkpt lat="45.0324812" lon="7.6412719"><ele>251.0</ele><time>2026-04-18T06:51:06.019Z</time></trkpt><trkpt lat="45.0323404" lon="7.6411794"><ele>251.0</ele><time>2026-04-18T06:51:07.019Z</time></trkpt><trkpt lat="45.0322189" lon="7.6410964"><ele>251.0</ele><time>2026-04-18T06:51:08.019Z</time></trkpt><trkpt lat="45.0321035" lon="7.6410199"><ele>251.0</ele><time>2026-04-18T06:51:09.019Z</time></trkpt><trkpt lat="45.0319902" lon="7.6409419"><ele>251.0</ele><time>2026-04-18T06:51:10.019Z</time></trkpt><trkpt lat="45.0318757" lon="7.6408597"><ele>251.0</ele><time>2026-04-18T06:51:11.019Z</time></trkpt><trkpt lat="45.0317626" lon="7.6407859"><ele>251.0</ele><time>2026-04-18T06:51:12.019Z</time></trkpt><trkpt lat="45.0316595" lon="7.6407055"><ele>251.0</ele><time>2026-04-18T06:51:13.019Z</time></trkpt><trkpt lat="45.0315591" lon="7.6406236"><ele>251.0</ele><time>2026-04-18T06:51:14.019Z</time></trkpt><trkpt lat="45.0314534" lon="7.6405482"><ele>250.25</ele><time>2026-04-18T06:51:15.019Z</time></trkpt><trkpt lat="45.0313587" lon="7.640478"><ele>249.5</ele><time>2026-04-18T06:51:16.019Z</time></trkpt><trkpt lat="45.0312522" lon="7.6404036"><ele>248.75</ele><time>2026-04-18T06:51:17.019Z</time></trkpt><trkpt lat="45.0311442" lon="7.6403234"><ele>248.0</ele><time>2026-04-18T06:51:18.019Z</time></trkpt><trkpt lat="45.0310433" lon="7.6402504"><ele>248.0</ele><time>2026-04-18T06:51:19.019Z</time></trkpt><trkpt lat="45.030942" lon="7.640175"><ele>248.0</ele><time>2026-04-18T06:51:20.019Z</time></trkpt><trkpt lat="45.0308416" lon="7.6400906"><ele>248.0</ele><time>2026-04-18T06:51:21.018Z</time></trkpt><trkpt lat="45.0307349" lon="7.6399986"><ele>248.0</ele><time>2026-04-18T06:51:22.018Z</time></trkpt><trkpt lat="45.0306194" lon="7.6399108"><ele>248.25</ele><time>2026-04-18T06:51:23.018Z</time></trkpt><trkpt lat="45.0305021" lon="7.6398255"><ele>248.5</ele><time>2026-04-18T06:51:24.019Z</time></trkpt><trkpt lat="45.0303811" lon="7.6397374"><ele>248.75</ele><time>2026-04-18T06:51:25.018Z</time></trkpt><trkpt lat="45.0302468" lon="7.6396444"><ele>249.0</ele><time>2026-04-18T06:51:26.019Z</time></trkpt><trkpt lat="45.0301009" lon="7.6395453"><ele>248.66666666666669</ele><time>2026-04-18T06:51:27.019Z</time></trkpt><trkpt lat="45.0299416" lon="7.6394372"><ele>248.33333333333334</ele><time>2026-04-18T06:51:28.018Z</time></trkpt><trkpt lat="45.0297747" lon="7.63932"><ele>248.0</ele><time>2026-04-18T06:51:29.019Z</time></trkpt><trkpt lat="45.0296032" lon="7.6391972"><ele>248.0</ele><time>2026-04-18T06:51:30.019Z</time></trkpt><trkpt lat="45.0294301" lon="7.6390754"><ele>248.0</ele><time>2026-04-18T06:51:31.018Z</time></trkpt><trkpt lat="45.0292582" lon="7.6389519"><ele>248.0</ele><time>2026-04-18T06:51:32.019Z</time></trkpt><trkpt lat="45.0290862" lon="7.6388285"><ele>248.0</ele><time>2026-04-18T06:51:33.018Z</time></trkpt><trkpt lat="45.0289185" lon="7.638708"><ele>248.0</ele><time>2026-04-18T06:51:34.019Z</time></trkpt><trkpt lat="45.0287487" lon="7.638587"><ele>248.0</ele><time>2026-04-18T06:51:35.01Z</time></trkpt><trkpt lat="45.0285912" lon="7.6384758"><ele>247.66666666666669</ele><time>2026-04-18T06:51:36.008Z</time></trkpt><trkpt lat="45.0284158" lon="7.6383525"><ele>247.33333333333331</ele><time>2026-04-18T06:51:37.008Z</time></trkpt><trkpt lat="45.0282584" lon="7.6382384"><ele>247.0</ele><time>2026-04-18T06:51:38.007Z</time></trkpt><trkpt lat="45.028124" lon="7.6381351"><ele>247.0</ele><time>2026-04-18T06:51:39.009Z</time></trkpt><trkpt lat="45.0279808" lon="7.6380209"><ele>247.0</ele><time>2026-04-18T06:51:40.01Z</time></trkpt><trkpt lat="45.0277752" lon="7.6378901"><ele>247.0</ele><time>2026-04-18T06:51:41.019Z</time></trkpt><trkpt lat="45.0276096" lon="7.6377725"><ele>247.33333333333331</ele><time>2026-04-18T06:51:42.018Z</time></trkpt><trkpt lat="45.0274432" lon="7.6376515"><ele>247.66666666666669</ele><time>2026-04-18T06:51:43.019Z</time></trkpt><trkpt lat="45.0272772" lon="7.6375288"><ele>248.0</ele><time>2026-04-18T06:51:44.018Z</time></trkpt><trkpt lat="45.0271142" lon="7.6374083"><ele>248.0</ele><time>2026-04-18T06:51:45.018Z</time></trkpt><trkpt lat="45.0269521" lon="7.6372941"><ele>248.0</ele><time>2026-04-18T06:51:46.019Z</time></trkpt><trkpt lat="45.0267931" lon="7.6371798"><ele>248.0</ele><time>2026-04-18T06:51:47.018Z</time></trkpt><trkpt lat="45.0266358" lon="7.6370709"><ele>248.0</ele><time>2026-04-18T06:51:48.018Z</time></trkpt><trkpt lat="45.0264799" lon="7.636964"><ele>248.0</ele><time>2026-04-18T06:51:49.019Z</time></trkpt><trkpt lat="45.0263243" lon="7.636858"><ele>248.0</ele><time>2026-04-18T06:51:50.008Z</time></trkpt><trkpt lat="45.0261746" lon="7.6367545"><ele>248.0</ele><time>2026-04-18T06:51:51.007Z</time></trkpt><trkpt lat="45.0260322" lon="7.6366579"><ele>248.0</ele><time>2026-04-18T06:51:52.006Z</time></trkpt><trkpt lat="45.0258668" lon="7.6365493"><ele>248.0</ele><time>2026-04-18T06:51:53.009Z</time></trkpt><trkpt lat="45.0257071" lon="7.6364506"><ele>247.33333333333334</ele><time>2026-04-18T06:51:54.006Z</time></trkpt><trkpt lat="45.0255589" lon="7.6363557"><ele>246.66666666666669</ele><time>2026-04-18T06:51:55.007Z</time></trkpt><trkpt lat="45.0253922" lon="7.6362415"><ele>246.0</ele><time>2026-04-18T06:51:56.006Z</time></trkpt><trkpt lat="45.0252465" lon="7.6361403"><ele>246.33333333333331</ele><time>2026-04-18T06:51:57.006Z</time></trkpt><trkpt lat="45.0250881" lon="7.6360273"><ele>246.66666666666666</ele><time>2026-04-18T06:51:58.006Z</time></trkpt><trkpt lat="45.0249443" lon="7.6359221"><ele>247.0</ele><time>2026-04-18T06:51:59.006Z</time></trkpt><trkpt lat="45.0248191" lon="7.6358331"><ele>247.0</ele><time>2026-04-18T06:52:00.007Z</time></trkpt><trkpt lat="45.0246821" lon="7.6357342"><ele>247.0</ele><time>2026-04-18T06:52:01.006Z</time></trkpt><trkpt lat="45.0245674" lon="7.6356521"><ele>247.0</ele><time>2026-04-18T06:52:02.007Z</time></trkpt><trkpt lat="45.0244552" lon="7.6355708"><ele>247.0</ele><time>2026-04-18T06:52:03.007Z</time></trkpt><trkpt lat="45.0243419" lon="7.6354868"><ele>247.0</ele><time>2026-04-18T06:52:04.007Z</time></trkpt><trkpt lat="45.024244" lon="7.6354154"><ele>247.0</ele><time>2026-04-18T06:52:05.007Z</time></trkpt><trkpt lat="45.0241377" lon="7.63534"><ele>247.0</ele><time>2026-04-18T06:52:06.006Z</time></trkpt><trkpt lat="45.0240453" lon="7.6352741"><ele>247.0</ele><time>2026-04-18T06:52:07.006Z</time></trkpt><trkpt lat="45.0239678" lon="7.6352209"><ele>247.0</ele><time>2026-04-18T06:52:08.006Z</time></trkpt><trkpt lat="45.0238888" lon="7.6351711"><ele>247.0</ele><time>2026-04-18T06:52:09.006Z</time></trkpt><trkpt lat="45.0238226" lon="7.6351306"><ele>247.0</ele><time>2026-04-18T06:52:10.007Z</time></trkpt><trkpt lat="45.0237099" lon="7.6350585"><ele>247.0</ele><time>2026-04-18T06:52:12.006Z</time></trkpt><trkpt lat="45.0236285" lon="7.6350005"><ele>247.0</ele><time>2026-04-18T06:52:14.006Z</time></trkpt><trkpt lat="45.0235698" lon="7.6349603"><ele>247.0</ele><time>2026-04-18T06:53:42.006Z</time></trkpt><trkpt lat="45.0234761" lon="7.6348926"><ele>247.0</ele><time>2026-04-18T06:53:45.007Z</time></trkpt><trkpt lat="45.0233801" lon="7.634821"><ele>247.0</ele><time>2026-04-18T06:53:47.006Z</time></trkpt><trkpt lat="45.0233145" lon="7.634776"><ele>247.0</ele><time>2026-04-18T06:53:48.007Z</time></trkpt><trkpt lat="45.0232469" lon="7.6347276"><ele>247.0</ele><time>2026-04-18T06:53:49.006Z</time></trkpt><trkpt lat="45.0231616" lon="7.6346689"><ele>247.0</ele><time>2026-04-18T06:53:50.007Z</time></trkpt><trkpt lat="45.0230669" lon="7.6346018"><ele>247.0</ele><time>2026-04-18T06:53:51.007Z</time></trkpt><trkpt lat="45.0229826" lon="7.6345417"><ele>247.0</ele><time>2026-04-18T06:53:52.007Z</time></trkpt><trkpt lat="45.0228894" lon="7.6344707"><ele>247.0</ele><time>2026-04-18T06:53:53.007Z</time></trkpt><trkpt lat="45.0227838" lon="7.6343971"><ele>247.0</ele><time>2026-04-18T06:53:54.019Z</time></trkpt><trkpt lat="45.0226762" lon="7.6343143"><ele>247.0</ele><time>2026-04-18T06:53:55.019Z</time></trkpt><trkpt lat="45.0225575" lon="7.6342243"><ele>246.66666666666666</ele><time>2026-04-18T06:53:56.019Z</time></trkpt><trkpt lat="45.0224247" lon="7.6341283"><ele>246.33333333333331</ele><time>2026-04-18T06:53:57.019Z</time></trkpt><trkpt lat="45.02228" lon="7.6340277"><ele>246.0</ele><time>2026-04-18T06:53:58.018Z</time></trkpt><trkpt lat="45.0221331" lon="7.6339246"><ele>246.0</ele><time>2026-04-18T06:53:59.019Z</time></trkpt><trkpt lat="45.021988" lon="7.6338256"><ele>246.0</ele><time>2026-04-18T06:54:00.019Z</time></trkpt><trkpt lat="45.0218411" lon="7.63373"><ele>246.0</ele><time>2026-04-18T06:54:01.019Z</time></trkpt><trkpt lat="45.0216977" lon="7.6336401"><ele>246.5</ele><time>2026-04-18T06:54:02.019Z</time></trkpt><trkpt lat="45.0215591" lon="7.6335549"><ele>247.0</ele><time>2026-04-18T06:54:03.018Z</time></trkpt><trkpt lat="45.021425" lon="7.6334719"><ele>247.5</ele><time>2026-04-18T06:54:04.018Z</time></trkpt><trkpt lat="45.0212983" lon="7.6333962"><ele>248.0</ele><time>2026-04-18T06:54:05.019Z</time></trkpt><trkpt lat="45.02118" lon="7.6333114"><ele>248.0</ele><time>2026-04-18T06:54:06.018Z</time></trkpt><trkpt lat="45.0210699" lon="7.6332096"><ele>248.0</ele><time>2026-04-18T06:54:07.018Z</time></trkpt><trkpt lat="45.0209703" lon="7.6330866"><ele>248.0</ele><time>2026-04-18T06:54:08.019Z</time></trkpt><trkpt lat="45.0208712" lon="7.6329777"><ele>248.0</ele><time>2026-04-18T06:54:09.018Z</time></trkpt><trkpt lat="45.0207747" lon="7.6328709"><ele>248.00000000000003</ele><time>2026-04-18T06:54:10.019Z</time></trkpt><trkpt lat="45.0206879" lon="7.632779"><ele>248.0</ele><time>2026-04-18T06:54:11.008Z</time></trkpt><trkpt lat="45.020606" lon="7.6326866"><ele>248.0</ele><time>2026-04-18T06:54:12.016Z</time></trkpt><trkpt lat="45.0205362" lon="7.6326126"><ele>248.0</ele><time>2026-04-18T06:54:13.007Z</time></trkpt><trkpt lat="45.0204839" lon="7.632557"><ele>248.00000000000003</ele><time>2026-04-18T06:54:14.007Z</time></trkpt><trkpt lat="45.0204231" lon="7.6324863"><ele>248.0</ele><time>2026-04-18T06:54:16.009Z</time></trkpt><trkpt lat="45.0203444" lon="7.6324063"><ele>248.0</ele><time>2026-04-18T06:54:43.008Z</time></trkpt><trkpt lat="45.0202782" lon="7.6323359"><ele>248.0</ele><time>2026-04-18T06:54:44.008Z</time></trkpt><trkpt lat="45.0201979" lon="7.6322429"><ele>248.0</ele><time>2026-04-18T06:54:45.009Z</time></trkpt><trkpt lat="45.0201062" lon="7.6321339"><ele>248.0</ele><time>2026-04-18T06:54:46.008Z</time></trkpt><trkpt lat="45.0199992" lon="7.6320083"><ele>248.0</ele><time>2026-04-18T06:54:47.008Z</time></trkpt><trkpt lat="45.0198842" lon="7.6318772"><ele>248.25</ele><time>2026-04-18T06:54:48.008Z</time></trkpt><trkpt lat="45.019767" lon="7.6317434"><ele>248.5</ele><time>2026-04-18T06:54:49.008Z</time></trkpt><trkpt lat="45.0196741" lon="7.6316182"><ele>248.75</ele><time>2026-04-18T06:54:50.019Z</time></trkpt><trkpt lat="45.0195446" lon="7.6314803"><ele>249.0</ele><time>2026-04-18T06:54:51.019Z</time></trkpt><trkpt lat="45.0194124" lon="7.6313284"><ele>249.0</ele><time>2026-04-18T06:54:52.018Z</time></trkpt><trkpt lat="45.0192717" lon="7.6311729"><ele>249.0</ele><time>2026-04-18T06:54:53.018Z</time></trkpt><trkpt lat="45.0191344" lon="7.6310126"><ele>249.0</ele><time>2026-04-18T06:54:54.019Z</time></trkpt><trkpt lat="45.0189993" lon="7.6308622"><ele>250.0</ele><time>2026-04-18T06:54:55.019Z</time></trkpt><trkpt lat="45.0188658" lon="7.6307167"><ele>251.0</ele><time>2026-04-18T06:54:56.018Z</time></trkpt><trkpt lat="45.0187428" lon="7.6305827"><ele>252.0</ele><time>2026-04-18T06:54:57.018Z</time></trkpt><trkpt lat="45.018628" lon="7.6304637"><ele>252.0</ele><time>2026-04-18T06:54:58.008Z</time></trkpt><trkpt lat="45.0185031" lon="7.6303373"><ele>252.0</ele><time>2026-04-18T06:54:59.006Z</time></trkpt><trkpt lat="45.0183633" lon="7.630204"><ele>252.0</ele><time>2026-04-18T06:55:00.007Z</time></trkpt><trkpt lat="45.0182304" lon="7.6300674"><ele>252.0</ele><time>2026-04-18T06:55:01.009Z</time></trkpt><trkpt lat="45.0181852" lon="7.6299362"><ele>252.0</ele><time>2026-04-18T06:55:02.006Z</time></trkpt><trkpt lat="45.0180551" lon="7.6297911"><ele>252.0</ele><time>2026-04-18T06:55:03.01Z</time></trkpt><trkpt lat="45.0179262" lon="7.6296402"><ele>252.0</ele><time>2026-04-18T06:55:04.01Z</time></trkpt><trkpt lat="45.0177986" lon="7.6294864"><ele>251.33333333333331</ele><time>2026-04-18T06:55:05.01Z</time></trkpt><trkpt lat="45.0176774" lon="7.6293359"><ele>250.66666666666666</ele><time>2026-04-18T06:55:06.01Z</time></trkpt><trkpt lat="45.0175602" lon="7.6291866"><ele>250.0</ele><time>2026-04-18T06:55:07.01Z</time></trkpt><trkpt lat="45.0174309" lon="7.6290294"><ele>250.0</ele><time>2026-04-18T06:55:08.01Z</time></trkpt><trkpt lat="45.0173123" lon="7.6288905"><ele>250.0</ele><time>2026-04-18T06:55:09.01Z</time></trkpt><trkpt lat="45.0171752" lon="7.6287282"><ele>250.0</ele><time>2026-04-18T06:55:10.01Z</time></trkpt><trkpt lat="45.0170267" lon="7.6285714"><ele>250.0</ele><time>2026-04-18T06:55:11.011Z</time></trkpt><trkpt lat="45.016825" lon="7.6284227"><ele>250.0</ele><time>2026-04-18T06:55:12.011Z</time></trkpt><trkpt lat="45.0166949" lon="7.6282779"><ele>250.0</ele><time>2026-04-18T06:55:13.011Z</time></trkpt><trkpt lat="45.0165772" lon="7.6281426"><ele>250.0</ele><time>2026-04-18T06:55:14.01Z</time></trkpt><trkpt lat="45.0164403" lon="7.6279847"><ele>250.0</ele><time>2026-04-18T06:55:15.01Z</time></trkpt><trkpt lat="45.0162976" lon="7.6278261"><ele>250.0</ele><time>2026-04-18T06:55:16.01Z</time></trkpt><trkpt lat="45.0161614" lon="7.6276707"><ele>249.0</ele><time>2026-04-18T06:55:17.011Z</time></trkpt><trkpt lat="45.0160119" lon="7.6274951"><ele>248.0</ele><time>2026-04-18T06:55:18.011Z</time></trkpt><trkpt lat="45.015872" lon="7.6273269"><ele>247.0</ele><time>2026-04-18T06:55:19.011Z</time></trkpt><trkpt lat="45.0157363" lon="7.6271671"><ele>247.0</ele><time>2026-04-18T06:55:20.011Z</time></trkpt><trkpt lat="45.0155674" lon="7.6269831"><ele>247.0</ele><time>2026-04-18T06:55:21.019Z</time></trkpt><trkpt lat="45.0154257" lon="7.6268223"><ele>247.0</ele><time>2026-04-18T06:55:22.018Z</time></trkpt><trkpt lat="45.0152849" lon="7.6266667"><ele>247.0</ele><time>2026-04-18T06:55:23.019Z</time></trkpt><trkpt lat="45.0151429" lon="7.6265069"><ele>247.0</ele><time>2026-04-18T06:55:24.018Z</time></trkpt><trkpt lat="45.0150012" lon="7.6263478"><ele>247.0</ele><time>2026-04-18T06:55:25.019Z</time></trkpt><trkpt lat="45.0148604" lon="7.6261876"><ele>247.0</ele><time>2026-04-18T06:55:26.019Z</time></trkpt><trkpt lat="45.0147193" lon="7.6260297"><ele>247.0</ele><time>2026-04-18T06:55:27.018Z</time></trkpt><trkpt lat="45.0145812" lon="7.6258738"><ele>247.0</ele><time>2026-04-18T06:55:28.018Z</time></trkpt><trkpt lat="45.0144459" lon="7.6257214"><ele>247.0</ele><time>2026-04-18T06:55:29.019Z</time></trkpt><trkpt lat="45.0143171" lon="7.6255756"><ele>247.0</ele><time>2026-04-18T06:55:30.019Z</time></trkpt><trkpt lat="45.0141944" lon="7.6254333"><ele>247.0</ele><time>2026-04-18T06:55:31.018Z</time></trkpt><trkpt lat="45.0140742" lon="7.6252973"><ele>247.5</ele><time>2026-04-18T06:55:32.018Z</time></trkpt><trkpt lat="45.0139641" lon="7.6251653"><ele>248.0</ele><time>2026-04-18T06:55:33.019Z</time></trkpt><trkpt lat="45.0138564" lon="7.6250495"><ele>248.5</ele><time>2026-04-18T06:55:34.018Z</time></trkpt><trkpt lat="45.0137631" lon="7.6249413"><ele>249.0</ele><time>2026-04-18T06:55:35.019Z</time></trkpt><trkpt lat="45.0136839" lon="7.6248545"><ele>249.0</ele><time>2026-04-18T06:55:36.019Z</time></trkpt><trkpt lat="45.013623" lon="7.6247929"><ele>249.0</ele><time>2026-04-18T06:55:37.018Z</time></trkpt><trkpt lat="45.0135523" lon="7.6247244"><ele>249.0</ele><time>2026-04-18T06:55:39.019Z</time></trkpt><trkpt lat="45.0134949" lon="7.6246684"><ele>249.0</ele><time>2026-04-18T06:56:04.018Z</time></trkpt><trkpt lat="45.013453" lon="7.6245736"><ele>249.0</ele><time>2026-04-18T06:56:06.019Z</time></trkpt><trkpt lat="45.0134053" lon="7.6244266"><ele>249.0</ele><time>2026-04-18T06:56:08.018Z</time></trkpt><trkpt lat="45.0133638" lon="7.6243476"><ele>248.79999999999998</ele><time>2026-04-18T06:56:09.019Z</time></trkpt><trkpt lat="45.0132701" lon="7.6242546"><ele>248.59999999999997</ele><time>2026-04-18T06:56:11.019Z</time></trkpt><trkpt lat="45.0131946" lon="7.6242322"><ele>248.4</ele><time>2026-04-18T06:56:13.018Z</time></trkpt><trkpt lat="45.0131165" lon="7.6242124"><ele>248.2</ele><time>2026-04-18T06:56:16.019Z</time></trkpt><trkpt lat="45.0130456" lon="7.6241448"><ele>248.0</ele><time>2026-04-18T06:56:18.018Z</time></trkpt><trkpt lat="45.0129513" lon="7.6240586"><ele>248.00000000000003</ele><time>2026-04-18T06:56:20.019Z</time></trkpt><trkpt lat="45.0129004" lon="7.624006"><ele>248.0</ele><time>2026-04-18T06:56:21.019Z</time></trkpt><trkpt lat="45.0128409" lon="7.6239465"><ele>248.0</ele><time>2026-04-18T06:56:22.019Z</time></trkpt><trkpt lat="45.0127665" lon="7.6238786"><ele>248.0</ele><time>2026-04-18T06:56:23.019Z</time></trkpt><trkpt lat="45.0126818" lon="7.6237934"><ele>248.00000000000003</ele><time>2026-04-18T06:56:24.019Z</time></trkpt><trkpt lat="45.0126027" lon="7.6236968"><ele>248.0</ele><time>2026-04-18T06:56:25.018Z</time></trkpt><trkpt lat="45.0125178" lon="7.6235967"><ele>246.5</ele><time>2026-04-18T06:56:26.018Z</time></trkpt><trkpt lat="45.0124332" lon="7.6235028"><ele>245.0</ele><time>2026-04-18T06:56:27.019Z</time></trkpt><trkpt lat="45.0123441" lon="7.6234005"><ele>243.5</ele><time>2026-04-18T06:56:28.019Z</time></trkpt><trkpt lat="45.0122505" lon="7.6232901"><ele>242.0</ele><time>2026-04-18T06:56:29.018Z</time></trkpt><trkpt lat="45.0121505" lon="7.6231736"><ele>242.0</ele><time>2026-04-18T06:56:30.019Z</time></trkpt><trkpt lat="45.0120475" lon="7.6230572"><ele>242.0</ele><time>2026-04-18T06:56:31.018Z</time></trkpt><trkpt lat="45.0119359" lon="7.6229364"><ele>242.0</ele><time>2026-04-18T06:56:32.018Z</time></trkpt><trkpt lat="45.0118182" lon="7.6228146"><ele>242.0</ele><time>2026-04-18T06:56:33.018Z</time></trkpt><trkpt lat="45.0116924" lon="7.6226802"><ele>243.0</ele><time>2026-04-18T06:56:34.019Z</time></trkpt><trkpt lat="45.0115449" lon="7.6225263"><ele>244.0</ele><time>2026-04-18T06:56:35.018Z</time></trkpt><trkpt lat="45.0113806" lon="7.6223518"><ele>245.0</ele><time>2026-04-18T06:56:36.018Z</time></trkpt><trkpt lat="45.0112197" lon="7.6221639"><ele>244.0</ele><time>2026-04-18T06:56:37.019Z</time></trkpt><trkpt lat="45.0110569" lon="7.6219652"><ele>243.0</ele><time>2026-04-18T06:56:38.019Z</time></trkpt><trkpt lat="45.0108906" lon="7.6217647"><ele>242.0</ele><time>2026-04-18T06:56:39.019Z</time></trkpt><trkpt lat="45.0107229" lon="7.6215683"><ele>241.33333333333334</ele><time>2026-04-18T06:56:40.019Z</time></trkpt><trkpt lat="45.0105556" lon="7.6213695"><ele>240.66666666666669</ele><time>2026-04-18T06:56:41.019Z</time></trkpt><trkpt lat="45.0103918" lon="7.6211845"><ele>240.0</ele><time>2026-04-18T06:56:42.018Z</time></trkpt><trkpt lat="45.0102315" lon="7.6210045"><ele>240.0</ele><time>2026-04-18T06:56:43.018Z</time></trkpt><trkpt lat="45.0100745" lon="7.6208316"><ele>240.0</ele><time>2026-04-18T06:56:44.018Z</time></trkpt><trkpt lat="45.0099193" lon="7.6206637"><ele>240.0</ele><time>2026-04-18T06:56:45.019Z</time></trkpt><trkpt lat="45.0097634" lon="7.620494"><ele>238.66666666666669</ele><time>2026-04-18T06:56:46.018Z</time></trkpt><trkpt lat="45.0096057" lon="7.6203241"><ele>237.33333333333334</ele><time>2026-04-18T06:56:47.018Z</time></trkpt><trkpt lat="45.009445" lon="7.6201509"><ele>236.0</ele><time>2026-04-18T06:56:48.019Z</time></trkpt><trkpt lat="45.0092835" lon="7.6199757"><ele>235.66666666666669</ele><time>2026-04-18T06:56:49.019Z</time></trkpt><trkpt lat="45.0091198" lon="7.6197984"><ele>235.33333333333331</ele><time>2026-04-18T06:56:50.018Z</time></trkpt><trkpt lat="45.0089592" lon="7.6196223"><ele>235.0</ele><time>2026-04-18T06:56:51.018Z</time></trkpt><trkpt lat="45.0088025" lon="7.6194495"><ele>235.66666666666666</ele><time>2026-04-18T06:56:52.019Z</time></trkpt><trkpt lat="45.0086493" lon="7.6192782"><ele>236.33333333333331</ele><time>2026-04-18T06:56:53.018Z</time></trkpt><trkpt lat="45.0085008" lon="7.619111"><ele>237.0</ele><time>2026-04-18T06:56:54.019Z</time></trkpt><trkpt lat="45.008356" lon="7.6189496"><ele>237.33333333333331</ele><time>2026-04-18T06:56:55.018Z</time></trkpt><trkpt lat="45.0082123" lon="7.6187918"><ele>237.66666666666666</ele><time>2026-04-18T06:56:56.019Z</time></trkpt><trkpt lat="45.0080722" lon="7.618636"><ele>238.0</ele><time>2026-04-18T06:56:57.019Z</time></trkpt><trkpt lat="45.007934" lon="7.6184841"><ele>238.0</ele><time>2026-04-18T06:56:58.018Z</time></trkpt><trkpt lat="45.0078005" lon="7.6183365"><ele>238.0</ele><time>2026-04-18T06:56:59.018Z</time></trkpt><trkpt lat="45.0076725" lon="7.6181959"><ele>238.0</ele><time>2026-04-18T06:57:00.018Z</time></trkpt><trkpt lat="45.0075495" lon="7.6180604"><ele>238.0</ele><time>2026-04-18T06:57:01.018Z</time></trkpt><trkpt lat="45.0074389" lon="7.6179368"><ele>238.0</ele><time>2026-04-18T06:57:02.019Z</time></trkpt><trkpt lat="45.0073511" lon="7.6178345"><ele>238.0</ele><time>2026-04-18T06:57:03.019Z</time></trkpt><trkpt lat="45.0072887" lon="7.6177479"><ele>238.0</ele><time>2026-04-18T06:57:04.018Z</time></trkpt><trkpt lat="45.0072452" lon="7.6176649"><ele>238.0</ele><time>2026-04-18T06:57:05.019Z</time></trkpt><trkpt lat="45.0072189" lon="7.6175751"><ele>238.0</ele><time>2026-04-18T06:57:06.019Z</time></trkpt><trkpt lat="45.0072039" lon="7.6174619"><ele>238.0</ele><time>2026-04-18T06:57:07.018Z</time></trkpt><trkpt lat="45.0071881" lon="7.6173286"><ele>238.0</ele><time>2026-04-18T06:57:08.018Z</time></trkpt><trkpt lat="45.0071556" lon="7.6171989"><ele>238.0</ele><time>2026-04-18T06:57:09.019Z</time></trkpt><trkpt lat="45.0071066" lon="7.6170913"><ele>238.0</ele><time>2026-04-18T06:57:10.019Z</time></trkpt><trkpt lat="45.0070392" lon="7.6169988"><ele>238.4</ele><time>2026-04-18T06:57:11.019Z</time></trkpt><trkpt lat="45.0069557" lon="7.6169258"><ele>238.8</ele><time>2026-04-18T06:57:12.019Z</time></trkpt><trkpt lat="45.0068612" lon="7.6168818"><ele>239.2</ele><time>2026-04-18T06:57:13.018Z</time></trkpt><trkpt lat="45.0067517" lon="7.6168637"><ele>239.6</ele><time>2026-04-18T06:57:14.019Z</time></trkpt><trkpt lat="45.0066314" lon="7.6168652"><ele>240.0</ele><time>2026-04-18T06:57:15.019Z</time></trkpt><trkpt lat="45.0065066" lon="7.616861"><ele>240.25</ele><time>2026-04-18T06:57:16.019Z</time></trkpt><trkpt lat="45.0063835" lon="7.6168201"><ele>240.5</ele><time>2026-04-18T06:57:17.019Z</time></trkpt><trkpt lat="45.0062624" lon="7.6167513"><ele>240.75</ele><time>2026-04-18T06:57:18.018Z</time></trkpt><trkpt lat="45.0061298" lon="7.6166378"><ele>241.0</ele><time>2026-04-18T06:57:19.019Z</time></trkpt><trkpt lat="45.0059882" lon="7.616505"><ele>241.0</ele><time>2026-04-18T06:57:20.019Z</time></trkpt><trkpt lat="45.0058385" lon="7.6163367"><ele>241.0</ele><time>2026-04-18T06:57:21.019Z</time></trkpt><trkpt lat="45.0056706" lon="7.6161405"><ele>241.0</ele><time>2026-04-18T06:57:22.018Z</time></trkpt><trkpt lat="45.0055009" lon="7.6159491"><ele>241.0</ele><time>2026-04-18T06:57:23.018Z</time></trkpt><trkpt lat="45.0053246" lon="7.6157523"><ele>241.0</ele><time>2026-04-18T06:57:24.018Z</time></trkpt><trkpt lat="45.0051455" lon="7.6155535"><ele>240.5</ele><time>2026-04-18T06:57:25.019Z</time></trkpt><trkpt lat="45.0049643" lon="7.6153498"><ele>240.0</ele><time>2026-04-18T06:57:26.019Z</time></trkpt><trkpt lat="45.0047812" lon="7.6151455"><ele>240.0</ele><time>2026-04-18T06:57:27.018Z</time></trkpt><trkpt lat="45.0046056" lon="7.6149492"><ele>240.0</ele><time>2026-04-18T06:57:28.018Z</time></trkpt><trkpt lat="45.0044322" lon="7.6147575"><ele>240.0</ele><time>2026-04-18T06:57:29.019Z</time></trkpt><trkpt lat="45.004263" lon="7.6145743"><ele>240.66666666666669</ele><time>2026-04-18T06:57:30.019Z</time></trkpt><trkpt lat="45.0041033" lon="7.6143963"><ele>241.33333333333334</ele><time>2026-04-18T06:57:31.018Z</time></trkpt><trkpt lat="45.0039476" lon="7.6142203"><ele>242.0</ele><time>2026-04-18T06:57:32.019Z</time></trkpt><trkpt lat="45.0037911" lon="7.6140462"><ele>242.0</ele><time>2026-04-18T06:57:33.018Z</time></trkpt><trkpt lat="45.0036319" lon="7.6138725"><ele>242.0</ele><time>2026-04-18T06:57:34.019Z</time></trkpt><trkpt lat="45.003468" lon="7.6136876"><ele>242.0</ele><time>2026-04-18T06:57:35.018Z</time></trkpt><trkpt lat="45.0033024" lon="7.6135051"><ele>242.33333333333334</ele><time>2026-04-18T06:57:36.019Z</time></trkpt><trkpt lat="45.003133" lon="7.6133159"><ele>242.66666666666669</ele><time>2026-04-18T06:57:37.018Z</time></trkpt><trkpt lat="45.002964" lon="7.6131234"><ele>243.0</ele><time>2026-04-18T06:57:38.018Z</time></trkpt><trkpt lat="45.0027885" lon="7.6129248"><ele>243.0</ele><time>2026-04-18T06:57:39.018Z</time></trkpt><trkpt lat="45.0026059" lon="7.6127152"><ele>243.0</ele><time>2026-04-18T06:57:40.019Z</time></trkpt><trkpt lat="45.0024217" lon="7.6125026"><ele>243.0</ele><time>2026-04-18T06:57:41.018Z</time></trkpt><trkpt lat="45.0022328" lon="7.6122896"><ele>243.0</ele><time>2026-04-18T06:57:42.019Z</time></trkpt><trkpt lat="45.0020442" lon="7.6120729"><ele>243.5</ele><time>2026-04-18T06:57:43.019Z</time></trkpt><trkpt lat="45.0018614" lon="7.6118632"><ele>244.0</ele><time>2026-04-18T06:57:44.018Z</time></trkpt><trkpt lat="45.0016866" lon="7.6116598"><ele>244.33333333333331</ele><time>2026-04-18T06:57:45.019Z</time></trkpt><trkpt lat="45.001523" lon="7.6114669"><ele>244.66666666666669</ele><time>2026-04-18T06:57:46.019Z</time></trkpt><trkpt lat="45.0013703" lon="7.6112804"><ele>245.0</ele><time>2026-04-18T06:57:47.018Z</time></trkpt><trkpt lat="45.0012236" lon="7.6111098"><ele>245.0</ele><time>2026-04-18T06:57:48.018Z</time></trkpt><trkpt lat="45.001074" lon="7.6109411"><ele>245.0</ele><time>2026-04-18T06:57:49.018Z</time></trkpt><trkpt lat="45.0009181" lon="7.6107676"><ele>245.0</ele><time>2026-04-18T06:57:50.019Z</time></trkpt><trkpt lat="45.0007592" lon="7.6105856"><ele>244.33333333333334</ele><time>2026-04-18T06:57:51.019Z</time></trkpt><trkpt lat="45.000598" lon="7.6104055"><ele>243.66666666666669</ele><time>2026-04-18T06:57:52.019Z</time></trkpt><trkpt lat="45.0004251" lon="7.6102169"><ele>243.0</ele><time>2026-04-18T06:57:53.019Z</time></trkpt><trkpt lat="45.0002685" lon="7.6100408"><ele>243.0</ele><time>2026-04-18T06:57:54.018Z</time></trkpt><trkpt lat="45.0001167" lon="7.6098695"><ele>243.0</ele><time>2026-04-18T06:57:55.018Z</time></trkpt><trkpt lat="44.9999734" lon="7.6097065"><ele>243.0</ele><time>2026-04-18T06:57:56.019Z</time></trkpt><trkpt lat="44.9998333" lon="7.6095505"><ele>243.0</ele><time>2026-04-18T06:57:57.019Z</time></trkpt><trkpt lat="44.9997025" lon="7.6093963"><ele>243.0</ele><time>2026-04-18T06:57:58.018Z</time></trkpt><trkpt lat="44.9995752" lon="7.6092536"><ele>243.0</ele><time>2026-04-18T06:57:59.019Z</time></trkpt><trkpt lat="44.9994551" lon="7.6091151"><ele>243.0</ele><time>2026-04-18T06:58:00.018Z</time></trkpt><trkpt lat="44.9993376" lon="7.608986"><ele>243.0</ele><time>2026-04-18T06:58:01.018Z</time></trkpt><trkpt lat="44.9992255" lon="7.6088596"><ele>243.0</ele><time>2026-04-18T06:58:02.018Z</time></trkpt><trkpt lat="44.9991099" lon="7.6087358"><ele>243.0</ele><time>2026-04-18T06:58:03.019Z</time></trkpt><trkpt lat="44.9989871" lon="7.6086018"><ele>243.33333333333331</ele><time>2026-04-18T06:58:04.018Z</time></trkpt><trkpt lat="44.9988617" lon="7.6084634"><ele>243.66666666666666</ele><time>2026-04-18T06:58:05.019Z</time></trkpt><trkpt lat="44.998735" lon="7.6083178"><ele>244.0</ele><time>2026-04-18T06:58:06.019Z</time></trkpt><trkpt lat="44.9986057" lon="7.6081735"><ele>244.0</ele><time>2026-04-18T06:58:07.019Z</time></trkpt><trkpt lat="44.9984817" lon="7.6080334"><ele>244.0</ele><time>2026-04-18T06:58:08.019Z</time></trkpt><trkpt lat="44.9983613" lon="7.6078951"><ele>244.0</ele><time>2026-04-18T06:58:09.018Z</time></trkpt><trkpt lat="44.9982456" lon="7.6077659"><ele>244.0</ele><time>2026-04-18T06:58:10.018Z</time></trkpt><trkpt lat="44.9981327" lon="7.6076424"><ele>244.0</ele><time>2026-04-18T06:58:11.019Z</time></trkpt><trkpt lat="44.9980253" lon="7.6075191"><ele>244.0</ele><time>2026-04-18T06:58:12.019Z</time></trkpt><trkpt lat="44.997925" lon="7.6074051"><ele>244.0</ele><time>2026-04-18T06:58:13.019Z</time></trkpt><trkpt lat="44.9978279" lon="7.607299"><ele>243.99999999999997</ele><time>2026-04-18T06:58:14.018Z</time></trkpt><trkpt lat="44.99774" lon="7.6071982"><ele>244.0</ele><time>2026-04-18T06:58:15.019Z</time></trkpt><trkpt lat="44.9976691" lon="7.6071166"><ele>244.0</ele><time>2026-04-18T06:58:16.018Z</time></trkpt><trkpt lat="44.9976178" lon="7.607057"><ele>244.0</ele><time>2026-04-18T06:58:17.019Z</time></trkpt><trkpt lat="44.9976137" lon="7.606962"><ele>243.99999999999997</ele><time>2026-04-18T06:58:19.018Z</time></trkpt><trkpt lat="44.9976566" lon="7.6068856"><ele>244.0</ele><time>2026-04-18T06:58:21.019Z</time></trkpt><trkpt lat="44.9976903" lon="7.6067947"><ele>243.83333333333331</ele><time>2026-04-18T06:58:23.018Z</time></trkpt><trkpt lat="44.9976767" lon="7.6067067"><ele>243.66666666666666</ele><time>2026-04-18T06:58:25.018Z</time></trkpt><trkpt lat="44.9976019" lon="7.6067982"><ele>243.5</ele><time>2026-04-18T07:11:52.019Z</time></trkpt><trkpt lat="44.9976375" lon="7.6066886"><ele>243.33333333333331</ele><time>2026-04-18T07:11:54.019Z</time></trkpt><trkpt lat="44.9975827" lon="7.6066315"><ele>243.16666666666666</ele><time>2026-04-18T07:12:08.018Z</time></trkpt><trkpt lat="44.9975168" lon="7.6065877"><ele>243.0</ele><time>2026-04-18T07:12:11.018Z</time></trkpt><trkpt lat="44.9974827" lon="7.606506"><ele>243.0</ele><time>2026-04-18T07:12:13.018Z</time></trkpt><trkpt lat="44.9975107" lon="7.606378"><ele>243.0</ele><time>2026-04-18T07:12:15.019Z</time></trkpt><trkpt lat="44.9975329" lon="7.6062936"><ele>243.0</ele><time>2026-04-18T07:12:16.018Z</time></trkpt><trkpt lat="44.9975505" lon="7.6062012"><ele>243.0</ele><time>2026-04-18T07:12:17.018Z</time></trkpt><trkpt lat="44.9975589" lon="7.6061096"><ele>243.0</ele><time>2026-04-18T07:12:18.018Z</time></trkpt><trkpt lat="44.997558" lon="7.6060082"><ele>243.0</ele><time>2026-04-18T07:12:19.019Z</time></trkpt><trkpt lat="44.9975512" lon="7.6059012"><ele>243.0</ele><time>2026-04-18T07:12:20.019Z</time></trkpt><trkpt lat="44.9975403" lon="7.6057897"><ele>242.8</ele><time>2026-04-18T07:12:21.019Z</time></trkpt><trkpt lat="44.9975172" lon="7.6056723"><ele>242.60000000000002</ele><time>2026-04-18T07:12:22.018Z</time></trkpt><trkpt lat="44.997487" lon="7.605557"><ele>242.39999999999998</ele><time>2026-04-18T07:12:23.018Z</time></trkpt><trkpt lat="44.9974481" lon="7.6054379"><ele>242.2</ele><time>2026-04-18T07:12:24.019Z</time></trkpt><trkpt lat="44.9973931" lon="7.6053177"><ele>242.0</ele><time>2026-04-18T07:12:25.019Z</time></trkpt><trkpt lat="44.9973215" lon="7.6051951"><ele>243.0</ele><time>2026-04-18T07:12:26.019Z</time></trkpt><trkpt lat="44.9972407" lon="7.6050819"><ele>244.0</ele><time>2026-04-18T07:12:27.019Z</time></trkpt><trkpt lat="44.997154" lon="7.6049786"><ele>245.0</ele><time>2026-04-18T07:12:28.019Z</time></trkpt><trkpt lat="44.9970648" lon="7.6048764"><ele>246.0</ele><time>2026-04-18T07:12:29.019Z</time></trkpt><trkpt lat="44.9969839" lon="7.6047661"><ele>246.0</ele><time>2026-04-18T07:12:30.019Z</time></trkpt><trkpt lat="44.9969186" lon="7.6046487"><ele>246.00000000000003</ele><time>2026-04-18T07:12:31.018Z</time></trkpt><trkpt lat="44.9968581" lon="7.6045269"><ele>246.00000000000003</ele><time>2026-04-18T07:12:32.018Z</time></trkpt><trkpt lat="44.9967986" lon="7.6043988"><ele>246.0</ele><time>2026-04-18T07:12:33.019Z</time></trkpt><trkpt lat="44.9967359" lon="7.6042676"><ele>246.0</ele><time>2026-04-18T07:12:34.019Z</time></trkpt><trkpt lat="44.9966759" lon="7.604137"><ele>246.0</ele><time>2026-04-18T07:12:35.019Z</time></trkpt><trkpt lat="44.996613" lon="7.6040127"><ele>246.00000000000003</ele><time>2026-04-18T07:12:36.018Z</time></trkpt><trkpt lat="44.996546" lon="7.6038968"><ele>246.00000000000003</ele><time>2026-04-18T07:12:37.019Z</time></trkpt><trkpt lat="44.9964685" lon="7.6037869"><ele>246.0</ele><time>2026-04-18T07:12:38.018Z</time></trkpt><trkpt lat="44.9963815" lon="7.6036799"><ele>246.0</ele><time>2026-04-18T07:12:39.019Z</time></trkpt><trkpt lat="44.9962901" lon="7.6035773"><ele>245.0</ele><time>2026-04-18T07:12:40.018Z</time></trkpt><trkpt lat="44.9961998" lon="7.6034804"><ele>244.0</ele><time>2026-04-18T07:12:41.019Z</time></trkpt><trkpt lat="44.9961088" lon="7.6033822"><ele>243.0</ele><time>2026-04-18T07:12:42.019Z</time></trkpt><trkpt lat="44.9960138" lon="7.6032775"><ele>242.0</ele><time>2026-04-18T07:12:43.019Z</time></trkpt><trkpt lat="44.9959205" lon="7.6031725"><ele>241.75</ele><time>2026-04-18T07:12:44.019Z</time></trkpt><trkpt lat="44.9958303" lon="7.6030711"><ele>241.5</ele><time>2026-04-18T07:12:45.018Z</time></trkpt><trkpt lat="44.9957402" lon="7.602973"><ele>241.25</ele><time>2026-04-18T07:12:46.019Z</time></trkpt><trkpt lat="44.9956491" lon="7.6028728"><ele>241.0</ele><time>2026-04-18T07:12:47.019Z</time></trkpt><trkpt lat="44.9955538" lon="7.6027697"><ele>241.0</ele><time>2026-04-18T07:12:48.019Z</time></trkpt><trkpt lat="44.9954581" lon="7.6026636"><ele>241.0</ele><time>2026-04-18T07:12:49.019Z</time></trkpt><trkpt lat="44.9953597" lon="7.6025556"><ele>241.0</ele><time>2026-04-18T07:12:50.018Z</time></trkpt><trkpt lat="44.9952589" lon="7.6024456"><ele>241.0</ele><time>2026-04-18T07:12:51.018Z</time></trkpt><trkpt lat="44.995157" lon="7.6023298"><ele>241.0</ele><time>2026-04-18T07:12:52.018Z</time></trkpt><trkpt lat="44.9950604" lon="7.6022036"><ele>241.0</ele><time>2026-04-18T07:12:53.018Z</time></trkpt><trkpt lat="44.9949765" lon="7.6020642"><ele>241.0</ele><time>2026-04-18T07:12:54.019Z</time></trkpt><trkpt lat="44.9949152" lon="7.6019064"><ele>241.0</ele><time>2026-04-18T07:12:55.018Z</time></trkpt><trkpt lat="44.994877" lon="7.6017405"><ele>242.0</ele><time>2026-04-18T07:12:56.019Z</time></trkpt><trkpt lat="44.9948563" lon="7.6015664"><ele>243.0</ele><time>2026-04-18T07:12:57.019Z</time></trkpt><trkpt lat="44.994844" lon="7.6013918"><ele>244.0</ele><time>2026-04-18T07:12:58.019Z</time></trkpt><trkpt lat="44.9948285" lon="7.6012114"><ele>245.0</ele><time>2026-04-18T07:12:59.019Z</time></trkpt><trkpt lat="44.9948039" lon="7.601025"><ele>245.0</ele><time>2026-04-18T07:13:00.019Z</time></trkpt><trkpt lat="44.9947649" lon="7.6008352"><ele>245.0</ele><time>2026-04-18T07:13:01.019Z</time></trkpt><trkpt lat="44.9947113" lon="7.600645"><ele>245.0</ele><time>2026-04-18T07:13:02.019Z</time></trkpt><trkpt lat="44.9946446" lon="7.6004572"><ele>245.0</ele><time>2026-04-18T07:13:03.019Z</time></trkpt><trkpt lat="44.9945661" lon="7.6002724"><ele>243.66666666666669</ele><time>2026-04-18T07:13:04.018Z</time></trkpt><trkpt lat="44.9944769" lon="7.6000965"><ele>242.33333333333331</ele><time>2026-04-18T07:13:05.019Z</time></trkpt><trkpt lat="44.9943784" lon="7.5999264"><ele>241.0</ele><time>2026-04-18T07:13:06.019Z</time></trkpt><trkpt lat="44.9942736" lon="7.5997626"><ele>241.0</ele><time>2026-04-18T07:13:07.018Z</time></trkpt><trkpt lat="44.994164" lon="7.5996067"><ele>241.0</ele><time>2026-04-18T07:13:08.018Z</time></trkpt><trkpt lat="44.9940573" lon="7.5994627"><ele>241.0</ele><time>2026-04-18T07:13:09.019Z</time></trkpt><trkpt lat="44.9939489" lon="7.5993327"><ele>241.0</ele><time>2026-04-18T07:13:10.019Z</time></trkpt><trkpt lat="44.9938361" lon="7.5992193"><ele>241.0</ele><time>2026-04-18T07:13:11.019Z</time></trkpt><trkpt lat="44.9937184" lon="7.5991231"><ele>241.0</ele><time>2026-04-18T07:13:12.018Z</time></trkpt><trkpt lat="44.9935924" lon="7.5990447"><ele>241.0</ele><time>2026-04-18T07:13:13.018Z</time></trkpt><trkpt lat="44.9934609" lon="7.5989837"><ele>241.0</ele><time>2026-04-18T07:13:14.019Z</time></trkpt><trkpt lat="44.993324" lon="7.5989361"><ele>242.75</ele><time>2026-04-18T07:13:15.019Z</time></trkpt><trkpt lat="44.9931835" lon="7.598899"><ele>244.5</ele><time>2026-04-18T07:13:16.018Z</time></trkpt><trkpt lat="44.9930434" lon="7.5988698"><ele>246.25</ele><time>2026-04-18T07:13:17.018Z</time></trkpt><trkpt lat="44.9929041" lon="7.5988535"><ele>248.0</ele><time>2026-04-18T07:13:18.019Z</time></trkpt><trkpt lat="44.9927635" lon="7.598849"><ele>248.0</ele><time>2026-04-18T07:13:19.019Z</time></trkpt><trkpt lat="44.9926219" lon="7.5988605"><ele>248.0</ele><time>2026-04-18T07:13:20.019Z</time></trkpt><trkpt lat="44.992482" lon="7.5988877"><ele>248.0</ele><time>2026-04-18T07:13:21.019Z</time></trkpt><trkpt lat="44.9923486" lon="7.5989275"><ele>248.0</ele><time>2026-04-18T07:13:22.019Z</time></trkpt><trkpt lat="44.9922198" lon="7.5989805"><ele>248.75</ele><time>2026-04-18T07:13:23.018Z</time></trkpt><trkpt lat="44.9920919" lon="7.5990481"><ele>249.5</ele><time>2026-04-18T07:13:24.018Z</time></trkpt><trkpt lat="44.9919625" lon="7.5991235"><ele>250.25</ele><time>2026-04-18T07:13:25.019Z</time></trkpt><trkpt lat="44.9918333" lon="7.5992127"><ele>251.0</ele><time>2026-04-18T07:13:26.018Z</time></trkpt><trkpt lat="44.9917065" lon="7.5993166"><ele>250.5</ele><time>2026-04-18T07:13:27.019Z</time></trkpt><trkpt lat="44.9915866" lon="7.5994393"><ele>250.0</ele><time>2026-04-18T07:13:28.018Z</time></trkpt><trkpt lat="44.9914717" lon="7.5995732"><ele>249.5</ele><time>2026-04-18T07:13:29.019Z</time></trkpt><trkpt lat="44.9913621" lon="7.5997143"><ele>249.0</ele><time>2026-04-18T07:13:30.019Z</time></trkpt><trkpt lat="44.9912599" lon="7.5998656"><ele>249.0</ele><time>2026-04-18T07:13:31.018Z</time></trkpt><trkpt lat="44.9911639" lon="7.6000247"><ele>249.0</ele><time>2026-04-18T07:13:32.018Z</time></trkpt><trkpt lat="44.9910758" lon="7.6001972"><ele>249.0</ele><time>2026-04-18T07:13:33.019Z</time></trkpt><trkpt lat="44.9909991" lon="7.6003814"><ele>249.66666666666669</ele><time>2026-04-18T07:13:34.018Z</time></trkpt><trkpt lat="44.9909309" lon="7.6005743"><ele>250.33333333333334</ele><time>2026-04-18T07:13:35.019Z</time></trkpt><trkpt lat="44.9908743" lon="7.6007775"><ele>251.0</ele><time>2026-04-18T07:13:36.019Z</time></trkpt><trkpt lat="44.990829" lon="7.6009839"><ele>252.0</ele><time>2026-04-18T07:13:37.019Z</time></trkpt><trkpt lat="44.9907943" lon="7.6011947"><ele>253.0</ele><time>2026-04-18T07:13:38.019Z</time></trkpt><trkpt lat="44.9907741" lon="7.6014092"><ele>254.0</ele><time>2026-04-18T07:13:39.019Z</time></trkpt><trkpt lat="44.9907641" lon="7.601623"><ele>254.0</ele><time>2026-04-18T07:13:40.019Z</time></trkpt><trkpt lat="44.990765" lon="7.6018364"><ele>254.0</ele><time>2026-04-18T07:13:41.018Z</time></trkpt><trkpt lat="44.9907733" lon="7.602051"><ele>254.0</ele><time>2026-04-18T07:13:42.019Z</time></trkpt><trkpt lat="44.9907925" lon="7.602263"><ele>254.0</ele><time>2026-04-18T07:13:43.019Z</time></trkpt><trkpt lat="44.9908225" lon="7.6024679"><ele>254.0</ele><time>2026-04-18T07:13:44.018Z</time></trkpt><trkpt lat="44.9908617" lon="7.6026668"><ele>254.0</ele><time>2026-04-18T07:13:45.018Z</time></trkpt><trkpt lat="44.990909" lon="7.6028562"><ele>254.0</ele><time>2026-04-18T07:13:46.018Z</time></trkpt><trkpt lat="44.9909652" lon="7.6030391"><ele>253.5</ele><time>2026-04-18T07:13:47.018Z</time></trkpt><trkpt lat="44.9910291" lon="7.603211"><ele>253.0</ele><time>2026-04-18T07:13:48.019Z</time></trkpt><trkpt lat="44.9910961" lon="7.6033734"><ele>252.5</ele><time>2026-04-18T07:13:49.019Z</time></trkpt><trkpt lat="44.9911584" lon="7.6035364"><ele>252.0</ele><time>2026-04-18T07:13:50.019Z</time></trkpt><trkpt lat="44.9912101" lon="7.6037135"><ele>250.5</ele><time>2026-04-18T07:13:51.018Z</time></trkpt><trkpt lat="44.9912412" lon="7.603904"><ele>249.0</ele><time>2026-04-18T07:13:52.018Z</time></trkpt><trkpt lat="44.9912441" lon="7.6041085"><ele>247.5</ele><time>2026-04-18T07:13:53.019Z</time></trkpt><trkpt lat="44.991221" lon="7.6043264"><ele>246.0</ele><time>2026-04-18T07:13:54.018Z</time></trkpt><trkpt lat="44.9911901" lon="7.6045554"><ele>245.0</ele><time>2026-04-18T07:13:55.019Z</time></trkpt><trkpt lat="44.9911544" lon="7.6047951"><ele>244.0</ele><time>2026-04-18T07:13:56.018Z</time></trkpt><trkpt lat="44.9911168" lon="7.6050408"><ele>243.0</ele><time>2026-04-18T07:13:57.018Z</time></trkpt><trkpt lat="44.9910791" lon="7.6052898"><ele>243.0</ele><time>2026-04-18T07:13:58.018Z</time></trkpt><trkpt lat="44.9910406" lon="7.6055375"><ele>243.0</ele><time>2026-04-18T07:13:59.018Z</time></trkpt><trkpt lat="44.9910012" lon="7.6057829"><ele>243.0</ele><time>2026-04-18T07:14:00.018Z</time></trkpt><trkpt lat="44.9909601" lon="7.6060247"><ele>242.66666666666669</ele><time>2026-04-18T07:14:01.018Z</time></trkpt><trkpt lat="44.990907" lon="7.6062583"><ele>242.33333333333334</ele><time>2026-04-18T07:14:02.019Z</time></trkpt><trkpt lat="44.9908379" lon="7.6064797"><ele>242.0</ele><time>2026-04-18T07:14:03.019Z</time></trkpt><trkpt lat="44.9907514" lon="7.6066862"><ele>241.33333333333334</ele><time>2026-04-18T07:14:04.019Z</time></trkpt><trkpt lat="44.9906487" lon="7.6068729"><ele>240.66666666666669</ele><time>2026-04-18T07:14:05.018Z</time></trkpt><trkpt lat="44.9905315" lon="7.6070351"><ele>240.0</ele><time>2026-04-18T07:14:06.019Z</time></trkpt><trkpt lat="44.9903981" lon="7.6071762"><ele>240.0</ele><time>2026-04-18T07:14:07.019Z</time></trkpt><trkpt lat="44.9902442" lon="7.6072891"><ele>240.0</ele><time>2026-04-18T07:14:08.018Z</time></trkpt><trkpt lat="44.9900763" lon="7.6073911"><ele>240.0</ele><time>2026-04-18T07:14:09.018Z</time></trkpt><trkpt lat="44.9899053" lon="7.6074901"><ele>241.0</ele><time>2026-04-18T07:14:10.019Z</time></trkpt><trkpt lat="44.9897296" lon="7.6075907"><ele>242.0</ele><time>2026-04-18T07:14:11.018Z</time></trkpt><trkpt lat="44.9895499" lon="7.6076914"><ele>243.0</ele><time>2026-04-18T07:14:12.018Z</time></trkpt><trkpt lat="44.9893663" lon="7.6077907"><ele>242.33333333333331</ele><time>2026-04-18T07:14:13.019Z</time></trkpt><trkpt lat="44.989183" lon="7.6078885"><ele>241.66666666666666</ele><time>2026-04-18T07:14:14.018Z</time></trkpt><trkpt lat="44.988999" lon="7.6079889"><ele>241.0</ele><time>2026-04-18T07:14:15.019Z</time></trkpt><trkpt lat="44.9888135" lon="7.6080905"><ele>241.0</ele><time>2026-04-18T07:14:16.019Z</time></trkpt><trkpt lat="44.9886283" lon="7.6081931"><ele>241.0</ele><time>2026-04-18T07:14:17.018Z</time></trkpt><trkpt lat="44.9884466" lon="7.6082931"><ele>241.0</ele><time>2026-04-18T07:14:18.019Z</time></trkpt><trkpt lat="44.9882663" lon="7.6083935"><ele>240.66666666666666</ele><time>2026-04-18T07:14:19.019Z</time></trkpt><trkpt lat="44.9880853" lon="7.6084938"><ele>240.33333333333331</ele><time>2026-04-18T07:14:20.019Z</time></trkpt><trkpt lat="44.9879044" lon="7.6085961"><ele>240.0</ele><time>2026-04-18T07:14:21.018Z</time></trkpt><trkpt lat="44.987721" lon="7.608697"><ele>240.0</ele><time>2026-04-18T07:14:22.018Z</time></trkpt><trkpt lat="44.9875373" lon="7.6087979"><ele>240.0</ele><time>2026-04-18T07:14:23.018Z</time></trkpt><trkpt lat="44.9873512" lon="7.6088995"><ele>240.0</ele><time>2026-04-18T07:14:24.018Z</time></trkpt><trkpt lat="44.9871664" lon="7.6090008"><ele>239.66666666666669</ele><time>2026-04-18T07:14:25.018Z</time></trkpt><trkpt lat="44.9869843" lon="7.6090979"><ele>239.33333333333334</ele><time>2026-04-18T07:14:26.019Z</time></trkpt><trkpt lat="44.9868066" lon="7.6091947"><ele>239.0</ele><time>2026-04-18T07:14:27.019Z</time></trkpt><trkpt lat="44.9866326" lon="7.6092912"><ele>239.0</ele><time>2026-04-18T07:14:28.019Z</time></trkpt><trkpt lat="44.9864645" lon="7.6093849"><ele>239.0</ele><time>2026-04-18T07:14:29.019Z</time></trkpt><trkpt lat="44.9863022" lon="7.6094731"><ele>239.0</ele><time>2026-04-18T07:14:30.019Z</time></trkpt><trkpt lat="44.9861439" lon="7.6095601"><ele>238.66666666666669</ele><time>2026-04-18T07:14:31.019Z</time></trkpt><trkpt lat="44.985986" lon="7.6096459"><ele>238.33333333333331</ele><time>2026-04-18T07:14:32.018Z</time></trkpt><trkpt lat="44.9858287" lon="7.6097344"><ele>238.0</ele><time>2026-04-18T07:14:33.019Z</time></trkpt><trkpt lat="44.9856699" lon="7.6098239"><ele>237.66666666666666</ele><time>2026-04-18T07:14:34.018Z</time></trkpt><trkpt lat="44.9855116" lon="7.6099142"><ele>237.33333333333331</ele><time>2026-04-18T07:14:35.018Z</time></trkpt><trkpt lat="44.9853514" lon="7.610004"><ele>237.0</ele><time>2026-04-18T07:14:36.019Z</time></trkpt><trkpt lat="44.9851876" lon="7.6100923"><ele>237.0</ele><time>2026-04-18T07:14:37.019Z</time></trkpt><trkpt lat="44.9850219" lon="7.6101815"><ele>237.0</ele><time>2026-04-18T07:14:38.019Z</time></trkpt><trkpt lat="44.9848551" lon="7.610271"><ele>237.0</ele><time>2026-04-18T07:14:39.018Z</time></trkpt><trkpt lat="44.9846874" lon="7.6103619"><ele>238.0</ele><time>2026-04-18T07:14:40.018Z</time></trkpt><trkpt lat="44.9845184" lon="7.6104567"><ele>239.0</ele><time>2026-04-18T07:14:41.019Z</time></trkpt><trkpt lat="44.9843486" lon="7.6105547"><ele>240.0</ele><time>2026-04-18T07:14:42.019Z</time></trkpt><trkpt lat="44.9841806" lon="7.6106473"><ele>239.0</ele><time>2026-04-18T07:14:43.019Z</time></trkpt><trkpt lat="44.9840125" lon="7.6107402"><ele>238.0</ele><time>2026-04-18T07:14:44.018Z</time></trkpt><trkpt lat="44.9838428" lon="7.6108335"><ele>237.0</ele><time>2026-04-18T07:14:45.019Z</time></trkpt><trkpt lat="44.9836718" lon="7.6109263"><ele>237.0</ele><time>2026-04-18T07:14:46.018Z</time></trkpt><trkpt lat="44.9834964" lon="7.6110211"><ele>237.0</ele><time>2026-04-18T07:14:47.018Z</time></trkpt><trkpt lat="44.9833183" lon="7.6111191"><ele>237.0</ele><time>2026-04-18T07:14:48.018Z</time></trkpt><trkpt lat="44.9831393" lon="7.6112175"><ele>237.0</ele><time>2026-04-18T07:14:49.018Z</time></trkpt><trkpt lat="44.982961" lon="7.6113177"><ele>237.0</ele><time>2026-04-18T07:14:50.019Z</time></trkpt><trkpt lat="44.9827851" lon="7.6114158"><ele>237.0</ele><time>2026-04-18T07:14:51.019Z</time></trkpt><trkpt lat="44.9826112" lon="7.6115133"><ele>237.66666666666669</ele><time>2026-04-18T07:14:52.019Z</time></trkpt><trkpt lat="44.9824393" lon="7.6116067"><ele>238.33333333333334</ele><time>2026-04-18T07:14:53.019Z</time></trkpt><trkpt lat="44.9822695" lon="7.611699"><ele>239.0</ele><time>2026-04-18T07:14:54.018Z</time></trkpt><trkpt lat="44.9821016" lon="7.6117909"><ele>239.0</ele><time>2026-04-18T07:14:55.019Z</time></trkpt><trkpt lat="44.9819367" lon="7.6118812"><ele>239.0</ele><time>2026-04-18T07:14:56.019Z</time></trkpt><trkpt lat="44.9817721" lon="7.61197"><ele>239.0</ele><time>2026-04-18T07:14:57.018Z</time></trkpt><trkpt lat="44.9816085" lon="7.6120587"><ele>237.66666666666669</ele><time>2026-04-18T07:14:58.019Z</time></trkpt><trkpt lat="44.9814464" lon="7.6121485"><ele>236.33333333333331</ele><time>2026-04-18T07:14:59.019Z</time></trkpt><trkpt lat="44.9812835" lon="7.6122382"><ele>235.0</ele><time>2026-04-18T07:15:00.019Z</time></trkpt><trkpt lat="44.9811228" lon="7.6123249"><ele>235.0</ele><time>2026-04-18T07:15:01.019Z</time></trkpt><trkpt lat="44.9809684" lon="7.6124125"><ele>235.0</ele><time>2026-04-18T07:15:02.018Z</time></trkpt><trkpt lat="44.9808202" lon="7.6124967"><ele>235.0</ele><time>2026-04-18T07:15:03.019Z</time></trkpt><trkpt lat="44.9806844" lon="7.6125715"><ele>235.2</ele><time>2026-04-18T07:15:04.019Z</time></trkpt><trkpt lat="44.9805623" lon="7.6126389"><ele>235.4</ele><time>2026-04-18T07:15:05.018Z</time></trkpt><trkpt lat="44.9804534" lon="7.6127"><ele>235.60000000000002</ele><time>2026-04-18T07:15:06.018Z</time></trkpt><trkpt lat="44.9803584" lon="7.6127495"><ele>235.8</ele><time>2026-04-18T07:15:07.019Z</time></trkpt><trkpt lat="44.9802766" lon="7.6127864"><ele>236.0</ele><time>2026-04-18T07:15:08.018Z</time></trkpt><trkpt lat="44.9801998" lon="7.6128004"><ele>236.0</ele><time>2026-04-18T07:15:09.018Z</time></trkpt><trkpt lat="44.9801194" lon="7.6127825"><ele>236.00000000000003</ele><time>2026-04-18T07:15:10.019Z</time></trkpt><trkpt lat="44.9800397" lon="7.6127402"><ele>236.00000000000003</ele><time>2026-04-18T07:15:11.019Z</time></trkpt><trkpt lat="44.979955" lon="7.6126808"><ele>236.0</ele><time>2026-04-18T07:15:12.019Z</time></trkpt><trkpt lat="44.979863" lon="7.6126253"><ele>236.0</ele><time>2026-04-18T07:15:13.019Z</time></trkpt><trkpt lat="44.9797612" lon="7.6125918"><ele>235.8</ele><time>2026-04-18T07:15:14.018Z</time></trkpt><trkpt lat="44.9796617" lon="7.6125992"><ele>235.60000000000002</ele><time>2026-04-18T07:15:15.018Z</time></trkpt><trkpt lat="44.9795703" lon="7.612649"><ele>235.4</ele><time>2026-04-18T07:15:16.019Z</time></trkpt><trkpt lat="44.9794918" lon="7.6127312"><ele>235.2</ele><time>2026-04-18T07:15:17.018Z</time></trkpt><trkpt lat="44.9794293" lon="7.6128349"><ele>235.0</ele><time>2026-04-18T07:15:18.018Z</time></trkpt><trkpt lat="44.9793898" lon="7.6129572"><ele>235.4</ele><time>2026-04-18T07:15:19.018Z</time></trkpt><trkpt lat="44.9793732" lon="7.6130908"><ele>235.8</ele><time>2026-04-18T07:15:20.018Z</time></trkpt><trkpt lat="44.979382" lon="7.6132244"><ele>236.2</ele><time>2026-04-18T07:15:21.018Z</time></trkpt><trkpt lat="44.9794167" lon="7.6133485"><ele>236.6</ele><time>2026-04-18T07:15:22.019Z</time></trkpt><trkpt lat="44.9794766" lon="7.6134609"><ele>237.0</ele><time>2026-04-18T07:15:23.019Z</time></trkpt><trkpt lat="44.9795576" lon="7.613555"><ele>237.0</ele><time>2026-04-18T07:15:24.018Z</time></trkpt><trkpt lat="44.9796547" lon="7.6136206"><ele>237.0</ele><time>2026-04-18T07:15:25.019Z</time></trkpt><trkpt lat="44.9797611" lon="7.6136464"><ele>237.0</ele><time>2026-04-18T07:15:26.018Z</time></trkpt><trkpt lat="44.9798734" lon="7.6136393"><ele>237.0</ele><time>2026-04-18T07:15:27.018Z</time></trkpt><trkpt lat="44.9799906" lon="7.6136242"><ele>237.0</ele><time>2026-04-18T07:15:28.018Z</time></trkpt><trkpt lat="44.980108" lon="7.6136385"><ele>237.25</ele><time>2026-04-18T07:15:29.019Z</time></trkpt><trkpt lat="44.9802192" lon="7.6136904"><ele>237.5</ele><time>2026-04-18T07:15:30.018Z</time></trkpt><trkpt lat="44.9803229" lon="7.6137718"><ele>237.75</ele><time>2026-04-18T07:15:31.018Z</time></trkpt><trkpt lat="44.9804256" lon="7.6138669"><ele>238.0</ele><time>2026-04-18T07:15:32.018Z</time></trkpt><trkpt lat="44.9805285" lon="7.6139686"><ele>238.0</ele><time>2026-04-18T07:15:33.019Z</time></trkpt><trkpt lat="44.9806366" lon="7.61407"><ele>238.0</ele><time>2026-04-18T07:15:34.019Z</time></trkpt><trkpt lat="44.9807477" lon="7.6141761"><ele>238.0</ele><time>2026-04-18T07:15:35.019Z</time></trkpt><trkpt lat="44.9808594" lon="7.6142844"><ele>238.0</ele><time>2026-04-18T07:15:36.019Z</time></trkpt><trkpt lat="44.980973" lon="7.6143927"><ele>237.75</ele><time>2026-04-18T07:15:37.019Z</time></trkpt><trkpt lat="44.9810846" lon="7.6145034"><ele>237.5</ele><time>2026-04-18T07:15:38.018Z</time></trkpt><trkpt lat="44.9811991" lon="7.6146135"><ele>237.25</ele><time>2026-04-18T07:15:39.019Z</time></trkpt><trkpt lat="44.9813149" lon="7.614728"><ele>237.0</ele><time>2026-04-18T07:15:40.019Z</time></trkpt><trkpt lat="44.9814347" lon="7.614844"><ele>237.0</ele><time>2026-04-18T07:15:41.019Z</time></trkpt><trkpt lat="44.9815553" lon="7.6149653"><ele>237.0</ele><time>2026-04-18T07:15:42.018Z</time></trkpt><trkpt lat="44.9816773" lon="7.6150867"><ele>237.0</ele><time>2026-04-18T07:15:43.019Z</time></trkpt><trkpt lat="44.9817985" lon="7.6152101"><ele>237.0</ele><time>2026-04-18T07:15:44.019Z</time></trkpt><trkpt lat="44.9819199" lon="7.6153344"><ele>236.66666666666669</ele><time>2026-04-18T07:15:45.019Z</time></trkpt><trkpt lat="44.9820396" lon="7.6154582"><ele>236.33333333333334</ele><time>2026-04-18T07:15:46.019Z</time></trkpt><trkpt lat="44.9821628" lon="7.6155809"><ele>236.0</ele><time>2026-04-18T07:15:47.019Z</time></trkpt><trkpt lat="44.982286" lon="7.6157066"><ele>236.0</ele><time>2026-04-18T07:15:48.018Z</time></trkpt><trkpt lat="44.9824101" lon="7.6158358"><ele>236.0</ele><time>2026-04-18T07:15:49.019Z</time></trkpt><trkpt lat="44.9825365" lon="7.615966"><ele>236.0</ele><time>2026-04-18T07:15:50.019Z</time></trkpt><trkpt lat="44.9826652" lon="7.6160966"><ele>234.33333333333334</ele><time>2026-04-18T07:15:51.019Z</time></trkpt><trkpt lat="44.9827952" lon="7.616229"><ele>232.66666666666669</ele><time>2026-04-18T07:15:52.019Z</time></trkpt><trkpt lat="44.9829266" lon="7.6163608"><ele>231.0</ele><time>2026-04-18T07:15:53.019Z</time></trkpt><trkpt lat="44.9830562" lon="7.6164983"><ele>231.0</ele><time>2026-04-18T07:15:54.018Z</time></trkpt><trkpt lat="44.9831881" lon="7.6166382"><ele>231.0</ele><time>2026-04-18T07:15:55.018Z</time></trkpt><trkpt lat="44.9833249" lon="7.6167805"><ele>231.0</ele><time>2026-04-18T07:15:56.019Z</time></trkpt><trkpt lat="44.9834624" lon="7.6169308"><ele>230.33333333333331</ele><time>2026-04-18T07:15:57.018Z</time></trkpt><trkpt lat="44.9836033" lon="7.6170838"><ele>229.66666666666666</ele><time>2026-04-18T07:15:58.019Z</time></trkpt><trkpt lat="44.9837472" lon="7.6172346"><ele>229.0</ele><time>2026-04-18T07:15:59.019Z</time></trkpt><trkpt lat="44.9838861" lon="7.6173834"><ele>229.0</ele><time>2026-04-18T07:16:00.018Z</time></trkpt><trkpt lat="44.9840236" lon="7.617526"><ele>229.0</ele><time>2026-04-18T07:16:01.018Z</time></trkpt><trkpt lat="44.9841554" lon="7.6176651"><ele>229.0</ele><time>2026-04-18T07:16:02.019Z</time></trkpt><trkpt lat="44.9842856" lon="7.6177972"><ele>231.0</ele><time>2026-04-18T07:16:03.019Z</time></trkpt><trkpt lat="44.9844187" lon="7.6179345"><ele>233.0</ele><time>2026-04-18T07:16:04.018Z</time></trkpt><trkpt lat="44.9845536" lon="7.6180795"><ele>235.0</ele><time>2026-04-18T07:16:05.019Z</time></trkpt><trkpt lat="44.9846918" lon="7.6182305"><ele>235.0</ele><time>2026-04-18T07:16:06.018Z</time></trkpt><trkpt lat="44.984836" lon="7.6183863"><ele>235.0</ele><time>2026-04-18T07:16:07.018Z</time></trkpt><trkpt lat="44.9849845" lon="7.6185428"><ele>235.0</ele><time>2026-04-18T07:16:08.018Z</time></trkpt><trkpt lat="44.985137" lon="7.6187046"><ele>235.66666666666666</ele><time>2026-04-18T07:16:09.019Z</time></trkpt><trkpt lat="44.9852941" lon="7.6188737"><ele>236.33333333333331</ele><time>2026-04-18T07:16:10.019Z</time></trkpt><trkpt lat="44.985453" lon="7.6190443"><ele>237.0</ele><time>2026-04-18T07:16:11.019Z</time></trkpt><trkpt lat="44.9856103" lon="7.6192155"><ele>237.0</ele><time>2026-04-18T07:16:12.018Z</time></trkpt><trkpt lat="44.9857709" lon="7.6193897"><ele>237.0</ele><time>2026-04-18T07:16:13.019Z</time></trkpt><trkpt lat="44.985929" lon="7.6195637"><ele>237.0</ele><time>2026-04-18T07:16:14.018Z</time></trkpt><trkpt lat="44.9860902" lon="7.6197393"><ele>235.33333333333331</ele><time>2026-04-18T07:16:15.019Z</time></trkpt><trkpt lat="44.9862543" lon="7.6199179"><ele>233.66666666666666</ele><time>2026-04-18T07:16:16.019Z</time></trkpt><trkpt lat="44.9864177" lon="7.6200947"><ele>232.0</ele><time>2026-04-18T07:16:17.018Z</time></trkpt><trkpt lat="44.9865806" lon="7.6202794"><ele>232.0</ele><time>2026-04-18T07:16:18.018Z</time></trkpt><trkpt lat="44.9867426" lon="7.6204606"><ele>232.0</ele><time>2026-04-18T07:16:19.018Z</time></trkpt><trkpt lat="44.9869031" lon="7.6206419"><ele>232.0</ele><time>2026-04-18T07:16:20.018Z</time></trkpt><trkpt lat="44.9870575" lon="7.6208208"><ele>232.0</ele><time>2026-04-18T07:16:21.019Z</time></trkpt><trkpt lat="44.987205" lon="7.6209917"><ele>232.0</ele><time>2026-04-18T07:16:22.019Z</time></trkpt><trkpt lat="44.9873506" lon="7.6211581"><ele>232.0</ele><time>2026-04-18T07:16:23.019Z</time></trkpt><trkpt lat="44.9874905" lon="7.6213215"><ele>232.0</ele><time>2026-04-18T07:16:24.018Z</time></trkpt><trkpt lat="44.987631" lon="7.621485"><ele>232.0</ele><time>2026-04-18T07:16:25.018Z</time></trkpt><trkpt lat="44.9877726" lon="7.6216497"><ele>232.0</ele><time>2026-04-18T07:16:26.018Z</time></trkpt><trkpt lat="44.9879128" lon="7.6218144"><ele>232.0</ele><time>2026-04-18T07:16:27.019Z</time></trkpt><trkpt lat="44.988052" lon="7.6219834"><ele>232.0</ele><time>2026-04-18T07:16:28.019Z</time></trkpt><trkpt lat="44.9881917" lon="7.6221545"><ele>232.0</ele><time>2026-04-18T07:16:29.018Z</time></trkpt><trkpt lat="44.9883363" lon="7.6223265"><ele>231.66666666666666</ele><time>2026-04-18T07:16:30.019Z</time></trkpt><trkpt lat="44.9884808" lon="7.622502"><ele>231.33333333333331</ele><time>2026-04-18T07:16:31.019Z</time></trkpt><trkpt lat="44.9886292" lon="7.6226818"><ele>231.0</ele><time>2026-04-18T07:16:32.018Z</time></trkpt><trkpt lat="44.9887813" lon="7.6228617"><ele>231.0</ele><time>2026-04-18T07:16:33.019Z</time></trkpt><trkpt lat="44.9889358" lon="7.6230455"><ele>231.0</ele><time>2026-04-18T07:16:34.019Z</time></trkpt><trkpt lat="44.989089" lon="7.6232286"><ele>231.0</ele><time>2026-04-18T07:16:35.019Z</time></trkpt><trkpt lat="44.9892415" lon="7.6234131"><ele>231.0</ele><time>2026-04-18T07:16:36.019Z</time></trkpt><trkpt lat="44.9893942" lon="7.6235979"><ele>231.0</ele><time>2026-04-18T07:16:37.019Z</time></trkpt><trkpt lat="44.9895445" lon="7.6237793"><ele>231.0</ele><time>2026-04-18T07:16:38.019Z</time></trkpt><trkpt lat="44.9896946" lon="7.623958"><ele>231.33333333333331</ele><time>2026-04-18T07:16:39.019Z</time></trkpt><trkpt lat="44.9898426" lon="7.6241374"><ele>231.66666666666666</ele><time>2026-04-18T07:16:40.018Z</time></trkpt><trkpt lat="44.9899892" lon="7.6243141"><ele>232.0</ele><time>2026-04-18T07:16:41.018Z</time></trkpt><trkpt lat="44.9901345" lon="7.6244879"><ele>232.0</ele><time>2026-04-18T07:16:42.019Z</time></trkpt><trkpt lat="44.9902814" lon="7.6246645"><ele>232.0</ele><time>2026-04-18T07:16:43.018Z</time></trkpt><trkpt lat="44.9904309" lon="7.6248385"><ele>232.0</ele><time>2026-04-18T07:16:44.019Z</time></trkpt><trkpt lat="44.9905813" lon="7.6250113"><ele>232.0</ele><time>2026-04-18T07:16:45.018Z</time></trkpt><trkpt lat="44.9907293" lon="7.625183"><ele>232.0</ele><time>2026-04-18T07:16:46.019Z</time></trkpt><trkpt lat="44.9908715" lon="7.625344"><ele>232.0</ele><time>2026-04-18T07:16:47.019Z</time></trkpt><trkpt lat="44.9910112" lon="7.6254999"><ele>233.66666666666666</ele><time>2026-04-18T07:16:48.019Z</time></trkpt><trkpt lat="44.991151" lon="7.6256559"><ele>235.33333333333331</ele><time>2026-04-18T07:16:49.019Z</time></trkpt><trkpt lat="44.9912915" lon="7.6258108"><ele>237.0</ele><time>2026-04-18T07:16:50.019Z</time></trkpt><trkpt lat="44.9914258" lon="7.6259644"><ele>237.0</ele><time>2026-04-18T07:16:51.018Z</time></trkpt><trkpt lat="44.9915454" lon="7.6261314"><ele>237.0</ele><time>2026-04-18T07:16:52.018Z</time></trkpt><trkpt lat="44.9916446" lon="7.6263166"><ele>237.0</ele><time>2026-04-18T07:16:53.019Z</time></trkpt><trkpt lat="44.9917224" lon="7.6265238"><ele>236.33333333333331</ele><time>2026-04-18T07:16:54.018Z</time></trkpt><trkpt lat="44.9917779" lon="7.6267481"><ele>235.66666666666666</ele><time>2026-04-18T07:16:55.019Z</time></trkpt><trkpt lat="44.99181" lon="7.6269727"><ele>235.0</ele><time>2026-04-18T07:16:56.019Z</time></trkpt><trkpt lat="44.9918136" lon="7.6272021"><ele>235.0</ele><time>2026-04-18T07:16:57.019Z</time></trkpt><trkpt lat="44.9917928" lon="7.6274402"><ele>235.0</ele><time>2026-04-18T07:16:58.019Z</time></trkpt><trkpt lat="44.9917594" lon="7.6276934"><ele>235.0</ele><time>2026-04-18T07:16:59.019Z</time></trkpt><trkpt lat="44.9917477" lon="7.6279606"><ele>234.0</ele><time>2026-04-18T07:17:00.019Z</time></trkpt><trkpt lat="44.9917548" lon="7.6282371"><ele>233.0</ele><time>2026-04-18T07:17:01.019Z</time></trkpt><trkpt lat="44.9917761" lon="7.6285119"><ele>232.0</ele><time>2026-04-18T07:17:02.019Z</time></trkpt><trkpt lat="44.9917988" lon="7.628781"><ele>232.0</ele><time>2026-04-18T07:17:03.019Z</time></trkpt><trkpt lat="44.9918174" lon="7.6290486"><ele>232.0</ele><time>2026-04-18T07:17:04.018Z</time></trkpt><trkpt lat="44.9918204" lon="7.6293092"><ele>232.0</ele><time>2026-04-18T07:17:05.019Z</time></trkpt><trkpt lat="44.9917954" lon="7.6295531"><ele>232.33333333333331</ele><time>2026-04-18T07:17:06.018Z</time></trkpt><trkpt lat="44.9917419" lon="7.6297593"><ele>232.66666666666669</ele><time>2026-04-18T07:17:07.019Z</time></trkpt><trkpt lat="44.9916657" lon="7.6299423"><ele>233.0</ele><time>2026-04-18T07:17:08.019Z</time></trkpt><trkpt lat="44.9915636" lon="7.6301067"><ele>233.0</ele><time>2026-04-18T07:17:09.019Z</time></trkpt><trkpt lat="44.9914543" lon="7.6302673"><ele>233.0</ele><time>2026-04-18T07:17:10.019Z</time></trkpt><trkpt lat="44.9913478" lon="7.6304248"><ele>233.0</ele><time>2026-04-18T07:17:11.019Z</time></trkpt><trkpt lat="44.9912396" lon="7.6305874"><ele>233.0</ele><time>2026-04-18T07:17:12.018Z</time></trkpt><trkpt lat="44.9911284" lon="7.6307571"><ele>233.0</ele><time>2026-04-18T07:17:13.019Z</time></trkpt><trkpt lat="44.9910147" lon="7.6309342"><ele>233.0</ele><time>2026-04-18T07:17:14.019Z</time></trkpt><trkpt lat="44.9908953" lon="7.6311205"><ele>233.66666666666669</ele><time>2026-04-18T07:17:15.019Z</time></trkpt><trkpt lat="44.990771" lon="7.6313122"><ele>234.33333333333331</ele><time>2026-04-18T07:17:16.018Z</time></trkpt><trkpt lat="44.9906425" lon="7.6315116"><ele>235.0</ele><time>2026-04-18T07:17:17.019Z</time></trkpt><trkpt lat="44.9905085" lon="7.6317142"><ele>235.0</ele><time>2026-04-18T07:17:18.019Z</time></trkpt><trkpt lat="44.9903749" lon="7.6319165"><ele>235.0</ele><time>2026-04-18T07:17:19.019Z</time></trkpt><trkpt lat="44.990242" lon="7.6321195"><ele>235.0</ele><time>2026-04-18T07:17:20.018Z</time></trkpt><trkpt lat="44.9901082" lon="7.6323295"><ele>235.0</ele><time>2026-04-18T07:17:21.019Z</time></trkpt><trkpt lat="44.9899679" lon="7.6325505"><ele>235.0</ele><time>2026-04-18T07:17:22.018Z</time></trkpt><trkpt lat="44.9898232" lon="7.6327801"><ele>235.0</ele><time>2026-04-18T07:17:23.018Z</time></trkpt><trkpt lat="44.9896734" lon="7.6330209"><ele>235.0</ele><time>2026-04-18T07:17:24.019Z</time></trkpt><trkpt lat="44.9895177" lon="7.6332738"><ele>235.0</ele><time>2026-04-18T07:17:25.019Z</time></trkpt><trkpt lat="44.9893442" lon="7.6335299"><ele>236.0</ele><time>2026-04-18T07:17:26.018Z</time></trkpt><trkpt lat="44.9891599" lon="7.6337889"><ele>237.0</ele><time>2026-04-18T07:17:27.018Z</time></trkpt><trkpt lat="44.9889701" lon="7.6340543"><ele>237.0</ele><time>2026-04-18T07:17:28.019Z</time></trkpt><trkpt lat="44.988779" lon="7.6343317"><ele>237.0</ele><time>2026-04-18T07:17:29.019Z</time></trkpt><trkpt lat="44.9885899" lon="7.6346142"><ele>238.0</ele><time>2026-04-18T07:17:30.018Z</time></trkpt><trkpt lat="44.9884028" lon="7.6348907"><ele>239.0</ele><time>2026-04-18T07:17:31.018Z</time></trkpt><trkpt lat="44.9882176" lon="7.6351681"><ele>236.5</ele><time>2026-04-18T07:17:32.019Z</time></trkpt><trkpt lat="44.9880325" lon="7.6354448"><ele>234.0</ele><time>2026-04-18T07:17:33.019Z</time></trkpt><trkpt lat="44.9878482" lon="7.6357191"><ele>234.0</ele><time>2026-04-18T07:17:34.019Z</time></trkpt><trkpt lat="44.9876645" lon="7.6359922"><ele>234.0</ele><time>2026-04-18T07:17:35.018Z</time></trkpt><trkpt lat="44.9874861" lon="7.6362632"><ele>234.5</ele><time>2026-04-18T07:17:36.019Z</time></trkpt><trkpt lat="44.9873102" lon="7.6365325"><ele>235.0</ele><time>2026-04-18T07:17:37.019Z</time></trkpt><trkpt lat="44.9871308" lon="7.6368025"><ele>234.0</ele><time>2026-04-18T07:17:38.019Z</time></trkpt><trkpt lat="44.9869493" lon="7.6370719"><ele>233.0</ele><time>2026-04-18T07:17:39.019Z</time></trkpt><trkpt lat="44.9867664" lon="7.6373437"><ele>233.5</ele><time>2026-04-18T07:17:40.019Z</time></trkpt><trkpt lat="44.9865834" lon="7.6376193"><ele>234.0</ele><time>2026-04-18T07:17:41.019Z</time></trkpt><trkpt lat="44.986399" lon="7.6378988"><ele>234.0</ele><time>2026-04-18T07:17:42.019Z</time></trkpt><trkpt lat="44.986213" lon="7.6381803"><ele>234.0</ele><time>2026-04-18T07:17:43.018Z</time></trkpt><trkpt lat="44.9860249" lon="7.6384627"><ele>233.0</ele><time>2026-04-18T07:17:44.018Z</time></trkpt><trkpt lat="44.9858358" lon="7.6387464"><ele>232.0</ele><time>2026-04-18T07:17:45.019Z</time></trkpt><trkpt lat="44.98565" lon="7.6390304"><ele>232.0</ele><time>2026-04-18T07:17:46.018Z</time></trkpt><trkpt lat="44.9854661" lon="7.6393094"><ele>232.0</ele><time>2026-04-18T07:17:47.018Z</time></trkpt><trkpt lat="44.985288" lon="7.6395785"><ele>231.5</ele><time>2026-04-18T07:17:48.018Z</time></trkpt><trkpt lat="44.9851157" lon="7.6398423"><ele>231.0</ele><time>2026-04-18T07:17:49.019Z</time></trkpt><trkpt lat="44.9849479" lon="7.6401034"><ele>231.5</ele><time>2026-04-18T07:17:50.019Z</time></trkpt><trkpt lat="44.9847798" lon="7.6403656"><ele>232.0</ele><time>2026-04-18T07:17:51.019Z</time></trkpt><trkpt lat="44.9846116" lon="7.6406276"><ele>232.0</ele><time>2026-04-18T07:17:52.018Z</time></trkpt><trkpt lat="44.9844451" lon="7.6408878"><ele>232.0</ele><time>2026-04-18T07:17:53.019Z</time></trkpt><trkpt lat="44.9842801" lon="7.6411433"><ele>230.5</ele><time>2026-04-18T07:17:54.019Z</time></trkpt><trkpt lat="44.984115" lon="7.6413978"><ele>229.0</ele><time>2026-04-18T07:17:55.019Z</time></trkpt><trkpt lat="44.983953" lon="7.6416496"><ele>229.0</ele><time>2026-04-18T07:17:56.019Z</time></trkpt><trkpt lat="44.9837905" lon="7.6419076"><ele>229.0</ele><time>2026-04-18T07:17:57.018Z</time></trkpt><trkpt lat="44.9836233" lon="7.6421662"><ele>229.5</ele><time>2026-04-18T07:17:58.019Z</time></trkpt><trkpt lat="44.9834593" lon="7.6424241"><ele>230.0</ele><time>2026-04-18T07:17:59.018Z</time></trkpt><trkpt lat="44.9832972" lon="7.6426796"><ele>230.0</ele><time>2026-04-18T07:18:00.019Z</time></trkpt><trkpt lat="44.9831376" lon="7.6429347"><ele>230.0</ele><time>2026-04-18T07:18:01.019Z</time></trkpt><trkpt lat="44.9829794" lon="7.6431885"><ele>230.0</ele><time>2026-04-18T07:18:02.019Z</time></trkpt><trkpt lat="44.9828207" lon="7.6434451"><ele>230.0</ele><time>2026-04-18T07:18:03.019Z</time></trkpt><trkpt lat="44.9826616" lon="7.6437035"><ele>230.0</ele><time>2026-04-18T07:18:04.018Z</time></trkpt><trkpt lat="44.9825027" lon="7.6439618"><ele>230.0</ele><time>2026-04-18T07:18:05.019Z</time></trkpt><trkpt lat="44.9823468" lon="7.6442151"><ele>228.5</ele><time>2026-04-18T07:18:06.019Z</time></trkpt><trkpt lat="44.982194" lon="7.6444661"><ele>227.0</ele><time>2026-04-18T07:18:07.018Z</time></trkpt><trkpt lat="44.9820404" lon="7.6447162"><ele>227.0</ele><time>2026-04-18T07:18:08.019Z</time></trkpt><trkpt lat="44.9818899" lon="7.6449627"><ele>227.0</ele><time>2026-04-18T07:18:09.019Z</time></trkpt><trkpt lat="44.9817371" lon="7.6452139"><ele>227.5</ele><time>2026-04-18T07:18:10.019Z</time></trkpt><trkpt lat="44.9815861" lon="7.6454626"><ele>228.0</ele><time>2026-04-18T07:18:11.019Z</time></trkpt><trkpt lat="44.9814355" lon="7.6457118"><ele>228.0</ele><time>2026-04-18T07:18:12.019Z</time></trkpt><trkpt lat="44.9812832" lon="7.6459603"><ele>228.0</ele><time>2026-04-18T07:18:13.019Z</time></trkpt><trkpt lat="44.981131" lon="7.6462084"><ele>228.0</ele><time>2026-04-18T07:18:14.018Z</time></trkpt><trkpt lat="44.9809802" lon="7.6464573"><ele>228.0</ele><time>2026-04-18T07:18:15.018Z</time></trkpt><trkpt lat="44.9808308" lon="7.6466979"><ele>228.0</ele><time>2026-04-18T07:18:16.018Z</time></trkpt><trkpt lat="44.9806809" lon="7.64694"><ele>228.0</ele><time>2026-04-18T07:18:17.018Z</time></trkpt><trkpt lat="44.9805312" lon="7.6471825"><ele>228.0</ele><time>2026-04-18T07:18:18.018Z</time></trkpt><trkpt lat="44.9803819" lon="7.6474239"><ele>228.0</ele><time>2026-04-18T07:18:19.018Z</time></trkpt><trkpt lat="44.9802343" lon="7.6476627"><ele>228.0</ele><time>2026-04-18T07:18:20.019Z</time></trkpt><trkpt lat="44.9800875" lon="7.6479015"><ele>228.0</ele><time>2026-04-18T07:18:21.019Z</time></trkpt><trkpt lat="44.9799404" lon="7.6481397"><ele>228.0</ele><time>2026-04-18T07:18:22.019Z</time></trkpt><trkpt lat="44.9797952" lon="7.6483789"><ele>227.66666666666669</ele><time>2026-04-18T07:18:23.019Z</time></trkpt><trkpt lat="44.9796514" lon="7.6486169"><ele>227.33333333333334</ele><time>2026-04-18T07:18:24.018Z</time></trkpt><trkpt lat="44.9795106" lon="7.6488486"><ele>227.0</ele><time>2026-04-18T07:18:25.019Z</time></trkpt><trkpt lat="44.9793671" lon="7.6490837"><ele>227.0</ele><time>2026-04-18T07:18:26.019Z</time></trkpt><trkpt lat="44.9792223" lon="7.6493201"><ele>227.0</ele><time>2026-04-18T07:18:27.019Z</time></trkpt><trkpt lat="44.9790786" lon="7.6495566"><ele>227.0</ele><time>2026-04-18T07:18:28.019Z</time></trkpt><trkpt lat="44.9789352" lon="7.6497963"><ele>226.66666666666669</ele><time>2026-04-18T07:18:29.019Z</time></trkpt><trkpt lat="44.9787922" lon="7.6500354"><ele>226.33333333333331</ele><time>2026-04-18T07:18:30.018Z</time></trkpt><trkpt lat="44.9786485" lon="7.6502785"><ele>226.0</ele><time>2026-04-18T07:18:31.018Z</time></trkpt><trkpt lat="44.9785056" lon="7.6505257"><ele>225.5</ele><time>2026-04-18T07:18:32.019Z</time></trkpt><trkpt lat="44.978364" lon="7.6507793"><ele>225.0</ele><time>2026-04-18T07:18:33.019Z</time></trkpt><trkpt lat="44.9782256" lon="7.6510284"><ele>225.5</ele><time>2026-04-18T07:18:34.019Z</time></trkpt><trkpt lat="44.9780891" lon="7.65128"><ele>226.0</ele><time>2026-04-18T07:18:35.019Z</time></trkpt><trkpt lat="44.9779523" lon="7.6515333"><ele>226.0</ele><time>2026-04-18T07:18:36.019Z</time></trkpt><trkpt lat="44.9778146" lon="7.6517854"><ele>226.0</ele><time>2026-04-18T07:18:37.018Z</time></trkpt><trkpt lat="44.9776798" lon="7.6520331"><ele>226.0</ele><time>2026-04-18T07:18:38.019Z</time></trkpt><trkpt lat="44.9775498" lon="7.6522791"><ele>225.66666666666666</ele><time>2026-04-18T07:18:39.019Z</time></trkpt><trkpt lat="44.9774212" lon="7.6525244"><ele>225.33333333333331</ele><time>2026-04-18T07:18:40.019Z</time></trkpt><trkpt lat="44.9772964" lon="7.6527749"><ele>225.0</ele><time>2026-04-18T07:18:41.019Z</time></trkpt><trkpt lat="44.9771686" lon="7.6530332"><ele>226.0</ele><time>2026-04-18T07:18:42.019Z</time></trkpt><trkpt lat="44.9770437" lon="7.6532952"><ele>227.0</ele><time>2026-04-18T07:18:43.018Z</time></trkpt><trkpt lat="44.9769154" lon="7.6535614"><ele>226.5</ele><time>2026-04-18T07:18:44.018Z</time></trkpt><trkpt lat="44.9767887" lon="7.6538311"><ele>226.0</ele><time>2026-04-18T07:18:45.019Z</time></trkpt><trkpt lat="44.9766617" lon="7.6541061"><ele>226.0</ele><time>2026-04-18T07:18:46.018Z</time></trkpt><trkpt lat="44.9765356" lon="7.65438"><ele>226.0</ele><time>2026-04-18T07:18:47.018Z</time></trkpt><trkpt lat="44.9764112" lon="7.654656"><ele>225.5</ele><time>2026-04-18T07:18:48.019Z</time></trkpt><trkpt lat="44.976288" lon="7.6549354"><ele>225.0</ele><time>2026-04-18T07:18:49.018Z</time></trkpt><trkpt lat="44.9761657" lon="7.6552121"><ele>225.0</ele><time>2026-04-18T07:18:50.019Z</time></trkpt><trkpt lat="44.9760451" lon="7.6554917"><ele>225.0</ele><time>2026-04-18T07:18:51.018Z</time></trkpt><trkpt lat="44.975928" lon="7.6557677"><ele>226.0</ele><time>2026-04-18T07:18:52.019Z</time></trkpt><trkpt lat="44.9758122" lon="7.6560433"><ele>227.0</ele><time>2026-04-18T07:18:53.019Z</time></trkpt><trkpt lat="44.9756999" lon="7.6563185"><ele>227.0</ele><time>2026-04-18T07:18:54.018Z</time></trkpt><trkpt lat="44.9755888" lon="7.6565923"><ele>227.0</ele><time>2026-04-18T07:18:55.019Z</time></trkpt><trkpt lat="44.9754808" lon="7.6568658"><ele>227.0</ele><time>2026-04-18T07:18:56.019Z</time></trkpt><trkpt lat="44.9753715" lon="7.657143"><ele>228.0</ele><time>2026-04-18T07:18:57.018Z</time></trkpt><trkpt lat="44.9752633" lon="7.6574206"><ele>229.0</ele><time>2026-04-18T07:18:58.019Z</time></trkpt><trkpt lat="44.9751562" lon="7.6577023"><ele>227.5</ele><time>2026-04-18T07:18:59.018Z</time></trkpt><trkpt lat="44.9750522" lon="7.6579836"><ele>226.0</ele><time>2026-04-18T07:19:00.018Z</time></trkpt><trkpt lat="44.9749504" lon="7.6582679"><ele>226.0</ele><time>2026-04-18T07:19:01.018Z</time></trkpt><trkpt lat="44.9748471" lon="7.6585563"><ele>226.0</ele><time>2026-04-18T07:19:02.019Z</time></trkpt><trkpt lat="44.9747448" lon="7.658845"><ele>226.0</ele><time>2026-04-18T07:19:03.019Z</time></trkpt><trkpt lat="44.9746488" lon="7.6591326"><ele>226.0</ele><time>2026-04-18T07:19:04.018Z</time></trkpt><trkpt lat="44.9745525" lon="7.6594224"><ele>227.5</ele><time>2026-04-18T07:19:05.019Z</time></trkpt><trkpt lat="44.9744582" lon="7.6597147"><ele>229.0</ele><time>2026-04-18T07:19:06.019Z</time></trkpt><trkpt lat="44.9743668" lon="7.6600029"><ele>227.33333333333331</ele><time>2026-04-18T07:19:07.019Z</time></trkpt><trkpt lat="44.9742767" lon="7.66029"><ele>225.66666666666669</ele><time>2026-04-18T07:19:08.018Z</time></trkpt><trkpt lat="44.9741888" lon="7.6605767"><ele>224.0</ele><time>2026-04-18T07:19:09.019Z</time></trkpt><trkpt lat="44.9740997" lon="7.6608622"><ele>223.5</ele><time>2026-04-18T07:19:10.019Z</time></trkpt><trkpt lat="44.9740106" lon="7.6611559"><ele>223.0</ele><time>2026-04-18T07:19:11.019Z</time></trkpt><trkpt lat="44.973922" lon="7.6614545"><ele>223.0</ele><time>2026-04-18T07:19:12.018Z</time></trkpt><trkpt lat="44.9738314" lon="7.6617633"><ele>223.0</ele><time>2026-04-18T07:19:13.019Z</time></trkpt><trkpt lat="44.9737412" lon="7.6620778"><ele>222.0</ele><time>2026-04-18T07:19:14.019Z</time></trkpt><trkpt lat="44.973651" lon="7.6624004"><ele>221.0</ele><time>2026-04-18T07:19:15.019Z</time></trkpt><trkpt lat="44.9735635" lon="7.6627251"><ele>222.0</ele><time>2026-04-18T07:19:16.019Z</time></trkpt><trkpt lat="44.9734776" lon="7.6630546"><ele>223.0</ele><time>2026-04-18T07:19:17.019Z</time></trkpt><trkpt lat="44.9733947" lon="7.6633835"><ele>223.5</ele><time>2026-04-18T07:19:18.019Z</time></trkpt><trkpt lat="44.9733139" lon="7.6637093"><ele>224.0</ele><time>2026-04-18T07:19:19.019Z</time></trkpt><trkpt lat="44.9732335" lon="7.6640397"><ele>224.0</ele><time>2026-04-18T07:19:20.018Z</time></trkpt><trkpt lat="44.9731549" lon="7.6643644"><ele>224.0</ele><time>2026-04-18T07:19:21.018Z</time></trkpt><trkpt lat="44.9730794" lon="7.6646902"><ele>223.5</ele><time>2026-04-18T07:19:22.019Z</time></trkpt><trkpt lat="44.9730038" lon="7.6650114"><ele>223.0</ele><time>2026-04-18T07:19:23.019Z</time></trkpt><trkpt lat="44.9729296" lon="7.6653337"><ele>222.5</ele><time>2026-04-18T07:19:24.018Z</time></trkpt><trkpt lat="44.9728551" lon="7.6656536"><ele>222.0</ele><time>2026-04-18T07:19:25.018Z</time></trkpt><trkpt lat="44.9727805" lon="7.6659697"><ele>222.0</ele><time>2026-04-18T07:19:26.019Z</time></trkpt><trkpt lat="44.9727047" lon="7.6662824"><ele>222.0</ele><time>2026-04-18T07:19:27.019Z</time></trkpt><trkpt lat="44.9726308" lon="7.6665929"><ele>222.0</ele><time>2026-04-18T07:19:28.018Z</time></trkpt><trkpt lat="44.9725573" lon="7.666898"><ele>222.0</ele><time>2026-04-18T07:19:29.019Z</time></trkpt><trkpt lat="44.9724889" lon="7.667192"><ele>222.0</ele><time>2026-04-18T07:19:30.018Z</time></trkpt><trkpt lat="44.9724211" lon="7.6674768"><ele>222.66666666666669</ele><time>2026-04-18T07:19:31.019Z</time></trkpt><trkpt lat="44.9723564" lon="7.6677505"><ele>223.33333333333334</ele><time>2026-04-18T07:19:32.019Z</time></trkpt><trkpt lat="44.9722954" lon="7.6680144"><ele>224.0</ele><time>2026-04-18T07:19:33.019Z</time></trkpt><trkpt lat="44.972241" lon="7.6682581"><ele>224.0</ele><time>2026-04-18T07:19:34.018Z</time></trkpt><trkpt lat="44.9721857" lon="7.6685016"><ele>224.0</ele><time>2026-04-18T07:19:35.019Z</time></trkpt><trkpt lat="44.9721271" lon="7.6687712"><ele>224.0</ele><time>2026-04-18T07:19:36.019Z</time></trkpt><trkpt lat="44.9720572" lon="7.6690655"><ele>224.0</ele><time>2026-04-18T07:19:37.018Z</time></trkpt><trkpt lat="44.9719805" lon="7.6693735"><ele>224.0</ele><time>2026-04-18T07:19:38.018Z</time></trkpt><trkpt lat="44.9719028" lon="7.6696883"><ele>224.0</ele><time>2026-04-18T07:19:39.019Z</time></trkpt><trkpt lat="44.9718317" lon="7.669999"><ele>224.0</ele><time>2026-04-18T07:19:40.019Z</time></trkpt><trkpt lat="44.9717595" lon="7.6703034"><ele>224.0</ele><time>2026-04-18T07:19:41.018Z</time></trkpt><trkpt lat="44.9716919" lon="7.6705994"><ele>224.0</ele><time>2026-04-18T07:19:42.018Z</time></trkpt><trkpt lat="44.9716258" lon="7.670897"><ele>224.0</ele><time>2026-04-18T07:19:43.018Z</time></trkpt><trkpt lat="44.9715604" lon="7.6711978"><ele>223.0</ele><time>2026-04-18T07:19:44.019Z</time></trkpt><trkpt lat="44.9714916" lon="7.6714996"><ele>222.0</ele><time>2026-04-18T07:19:45.018Z</time></trkpt><trkpt lat="44.9714172" lon="7.6718092"><ele>222.0</ele><time>2026-04-18T07:19:46.018Z</time></trkpt><trkpt lat="44.9713359" lon="7.672136"><ele>222.0</ele><time>2026-04-18T07:19:47.019Z</time></trkpt><trkpt lat="44.9712526" lon="7.6724756"><ele>222.0</ele><time>2026-04-18T07:19:48.019Z</time></trkpt><trkpt lat="44.9711651" lon="7.6728287"><ele>222.0</ele><time>2026-04-18T07:19:49.018Z</time></trkpt><trkpt lat="44.9710786" lon="7.6731886"><ele>222.0</ele><time>2026-04-18T07:19:50.019Z</time></trkpt><trkpt lat="44.970993" lon="7.6735501"><ele>222.0</ele><time>2026-04-18T07:19:51.018Z</time></trkpt><trkpt lat="44.9709072" lon="7.6739128"><ele>221.5</ele><time>2026-04-18T07:19:52.019Z</time></trkpt><trkpt lat="44.9708214" lon="7.6742737"><ele>221.0</ele><time>2026-04-18T07:19:53.019Z</time></trkpt><trkpt lat="44.970737" lon="7.6746329"><ele>221.5</ele><time>2026-04-18T07:19:54.018Z</time></trkpt><trkpt lat="44.9706521" lon="7.6749909"><ele>222.0</ele><time>2026-04-18T07:19:55.019Z</time></trkpt><trkpt lat="44.9705687" lon="7.6753439"><ele>222.0</ele><time>2026-04-18T07:19:56.019Z</time></trkpt><trkpt lat="44.9704862" lon="7.6756944"><ele>222.0</ele><time>2026-04-18T07:19:57.018Z</time></trkpt><trkpt lat="44.970405" lon="7.6760459"><ele>222.0</ele><time>2026-04-18T07:19:58.018Z</time></trkpt><trkpt lat="44.9703249" lon="7.676397"><ele>222.0</ele><time>2026-04-18T07:19:59.018Z</time></trkpt><trkpt lat="44.9702499" lon="7.676745"><ele>222.5</ele><time>2026-04-18T07:20:00.018Z</time></trkpt><trkpt lat="44.9701828" lon="7.6770892"><ele>223.0</ele><time>2026-04-18T07:20:01.019Z</time></trkpt><trkpt lat="44.9701232" lon="7.6774302"><ele>223.0</ele><time>2026-04-18T07:20:02.018Z</time></trkpt><trkpt lat="44.9700701" lon="7.677768"><ele>223.0</ele><time>2026-04-18T07:20:03.018Z</time></trkpt><trkpt lat="44.9700231" lon="7.6780973"><ele>222.5</ele><time>2026-04-18T07:20:04.019Z</time></trkpt><trkpt lat="44.9699786" lon="7.6784214"><ele>222.0</ele><time>2026-04-18T07:20:05.018Z</time></trkpt><trkpt lat="44.9699392" lon="7.6787385"><ele>222.0</ele><time>2026-04-18T07:20:06.019Z</time></trkpt><trkpt lat="44.9699037" lon="7.6790494"><ele>222.0</ele><time>2026-04-18T07:20:07.018Z</time></trkpt><trkpt lat="44.9698746" lon="7.679357"><ele>222.0</ele><time>2026-04-18T07:20:08.019Z</time></trkpt><trkpt lat="44.9698504" lon="7.6796656"><ele>222.0</ele><time>2026-04-18T07:20:09.019Z</time></trkpt><trkpt lat="44.9698286" lon="7.6799747"><ele>222.0</ele><time>2026-04-18T07:20:10.019Z</time></trkpt><trkpt lat="44.9698122" lon="7.6802886"><ele>222.0</ele><time>2026-04-18T07:20:11.018Z</time></trkpt><trkpt lat="44.9697993" lon="7.6806092"><ele>221.5</ele><time>2026-04-18T07:20:12.018Z</time></trkpt><trkpt lat="44.9697908" lon="7.6809373"><ele>221.0</ele><time>2026-04-18T07:20:13.019Z</time></trkpt><trkpt lat="44.9697889" lon="7.6812729"><ele>220.5</ele><time>2026-04-18T07:20:14.019Z</time></trkpt><trkpt lat="44.9697923" lon="7.6816134"><ele>220.0</ele><time>2026-04-18T07:20:15.018Z</time></trkpt><trkpt lat="44.9697982" lon="7.6819614"><ele>221.0</ele><time>2026-04-18T07:20:16.018Z</time></trkpt><trkpt lat="44.9698087" lon="7.6823167"><ele>222.0</ele><time>2026-04-18T07:20:17.019Z</time></trkpt><trkpt lat="44.9698252" lon="7.6826755"><ele>224.0</ele><time>2026-04-18T07:20:18.018Z</time></trkpt><trkpt lat="44.9698446" lon="7.6830335"><ele>226.0</ele><time>2026-04-18T07:20:19.019Z</time></trkpt><trkpt lat="44.9698694" lon="7.6833877"><ele>225.0</ele><time>2026-04-18T07:20:20.019Z</time></trkpt><trkpt lat="44.9698965" lon="7.6837422"><ele>224.0</ele><time>2026-04-18T07:20:21.019Z</time></trkpt><trkpt lat="44.969928" lon="7.6840904"><ele>223.5</ele><time>2026-04-18T07:20:22.018Z</time></trkpt><trkpt lat="44.9699592" lon="7.6844432"><ele>223.0</ele><time>2026-04-18T07:20:23.018Z</time></trkpt><trkpt lat="44.9699905" lon="7.6847928"><ele>223.0</ele><time>2026-04-18T07:20:24.018Z</time></trkpt><trkpt lat="44.9700206" lon="7.6851416"><ele>223.0</ele><time>2026-04-18T07:20:25.019Z</time></trkpt><trkpt lat="44.970051" lon="7.6854836"><ele>223.0</ele><time>2026-04-18T07:20:26.018Z</time></trkpt><trkpt lat="44.9700827" lon="7.685821"><ele>223.0</ele><time>2026-04-18T07:20:27.019Z</time></trkpt><trkpt lat="44.9701127" lon="7.6861582"><ele>222.5</ele><time>2026-04-18T07:20:28.019Z</time></trkpt><trkpt lat="44.9701441" lon="7.686494"><ele>222.0</ele><time>2026-04-18T07:20:29.018Z</time></trkpt><trkpt lat="44.9701724" lon="7.6868269"><ele>222.5</ele><time>2026-04-18T07:20:30.019Z</time></trkpt><trkpt lat="44.9701999" lon="7.6871581"><ele>223.0</ele><time>2026-04-18T07:20:31.019Z</time></trkpt><trkpt lat="44.9702299" lon="7.6874849"><ele>222.5</ele><time>2026-04-18T07:20:32.019Z</time></trkpt><trkpt lat="44.9702598" lon="7.6878163"><ele>222.0</ele><time>2026-04-18T07:20:33.019Z</time></trkpt><trkpt lat="44.9702901" lon="7.6881496"><ele>222.0</ele><time>2026-04-18T07:20:34.018Z</time></trkpt><trkpt lat="44.9703208" lon="7.6884878"><ele>222.0</ele><time>2026-04-18T07:20:35.019Z</time></trkpt><trkpt lat="44.9703507" lon="7.688826"><ele>222.5</ele><time>2026-04-18T07:20:36.018Z</time></trkpt><trkpt lat="44.970382" lon="7.6891636"><ele>223.0</ele><time>2026-04-18T07:20:37.019Z</time></trkpt><trkpt lat="44.9704129" lon="7.6895053"><ele>223.0</ele><time>2026-04-18T07:20:38.019Z</time></trkpt><trkpt lat="44.970443" lon="7.6898454"><ele>223.0</ele><time>2026-04-18T07:20:39.019Z</time></trkpt><trkpt lat="44.9704728" lon="7.6901836"><ele>223.5</ele><time>2026-04-18T07:20:40.018Z</time></trkpt><trkpt lat="44.9705034" lon="7.6905233"><ele>224.0</ele><time>2026-04-18T07:20:41.018Z</time></trkpt><trkpt lat="44.9705352" lon="7.6908639"><ele>224.5</ele><time>2026-04-18T07:20:42.019Z</time></trkpt><trkpt lat="44.970566" lon="7.6912081"><ele>225.0</ele><time>2026-04-18T07:20:43.019Z</time></trkpt><trkpt lat="44.9705964" lon="7.6915502"><ele>225.0</ele><time>2026-04-18T07:20:44.019Z</time></trkpt><trkpt lat="44.9706278" lon="7.6918944"><ele>225.0</ele><time>2026-04-18T07:20:45.019Z</time></trkpt><trkpt lat="44.9706581" lon="7.6922395"><ele>222.0</ele><time>2026-04-18T07:20:46.018Z</time></trkpt><trkpt lat="44.9706876" lon="7.692585"><ele>219.0</ele><time>2026-04-18T07:20:47.018Z</time></trkpt><trkpt lat="44.9707191" lon="7.6929213"><ele>218.0</ele><time>2026-04-18T07:20:48.018Z</time></trkpt><trkpt lat="44.9707488" lon="7.6932558"><ele>217.0</ele><time>2026-04-18T07:20:49.018Z</time></trkpt><trkpt lat="44.9707786" lon="7.693588"><ele>217.5</ele><time>2026-04-18T07:20:50.018Z</time></trkpt><trkpt lat="44.9708089" lon="7.693923"><ele>218.0</ele><time>2026-04-18T07:20:51.018Z</time></trkpt><trkpt lat="44.9708378" lon="7.6942572"><ele>219.5</ele><time>2026-04-18T07:20:52.019Z</time></trkpt><trkpt lat="44.9708673" lon="7.6945912"><ele>221.0</ele><time>2026-04-18T07:20:53.018Z</time></trkpt><trkpt lat="44.9708975" lon="7.6949249"><ele>220.0</ele><time>2026-04-18T07:20:54.019Z</time></trkpt><trkpt lat="44.9709277" lon="7.6952612"><ele>219.0</ele><time>2026-04-18T07:20:55.019Z</time></trkpt><trkpt lat="44.970957" lon="7.6956034"><ele>219.0</ele><time>2026-04-18T07:20:56.018Z</time></trkpt><trkpt lat="44.9709851" lon="7.6959494"><ele>219.0</ele><time>2026-04-18T07:20:57.019Z</time></trkpt><trkpt lat="44.971011" lon="7.6962985"><ele>221.5</ele><time>2026-04-18T07:20:58.019Z</time></trkpt><trkpt lat="44.9710359" lon="7.696649"><ele>224.0</ele><time>2026-04-18T07:20:59.018Z</time></trkpt><trkpt lat="44.9710555" lon="7.6970014"><ele>224.0</ele><time>2026-04-18T07:21:00.018Z</time></trkpt><trkpt lat="44.9710714" lon="7.6973541"><ele>224.0</ele><time>2026-04-18T07:21:01.018Z</time></trkpt><trkpt lat="44.9710822" lon="7.6977088"><ele>223.5</ele><time>2026-04-18T07:21:02.019Z</time></trkpt><trkpt lat="44.9710878" lon="7.6980586"><ele>223.0</ele><time>2026-04-18T07:21:03.019Z</time></trkpt><trkpt lat="44.9710871" lon="7.6984017"><ele>223.5</ele><time>2026-04-18T07:21:04.019Z</time></trkpt><trkpt lat="44.9710833" lon="7.6987363"><ele>224.0</ele><time>2026-04-18T07:21:05.019Z</time></trkpt><trkpt lat="44.9710791" lon="7.6990643"><ele>224.0</ele><time>2026-04-18T07:21:06.019Z</time></trkpt><trkpt lat="44.971073" lon="7.6993899"><ele>224.0</ele><time>2026-04-18T07:21:07.018Z</time></trkpt><trkpt lat="44.9710655" lon="7.6997162"><ele>222.5</ele><time>2026-04-18T07:21:08.019Z</time></trkpt><trkpt lat="44.9710549" lon="7.7000413"><ele>221.0</ele><time>2026-04-18T07:21:09.018Z</time></trkpt><trkpt lat="44.9710415" lon="7.7003702"><ele>221.0</ele><time>2026-04-18T07:21:10.019Z</time></trkpt><trkpt lat="44.971027" lon="7.7006901"><ele>221.0</ele><time>2026-04-18T07:21:11.019Z</time></trkpt><trkpt lat="44.9710107" lon="7.7009986"><ele>221.0</ele><time>2026-04-18T07:21:12.018Z</time></trkpt><trkpt lat="44.9709936" lon="7.7012992"><ele>222.0</ele><time>2026-04-18T07:21:13.019Z</time></trkpt><trkpt lat="44.9709744" lon="7.7015885"><ele>223.0</ele><time>2026-04-18T07:21:14.018Z</time></trkpt><trkpt lat="44.9709545" lon="7.7018727"><ele>224.0</ele><time>2026-04-18T07:21:15.019Z</time></trkpt><trkpt lat="44.9709282" lon="7.7021599"><ele>224.66666666666669</ele><time>2026-04-18T07:21:16.018Z</time></trkpt><trkpt lat="44.9709051" lon="7.702449"><ele>225.33333333333331</ele><time>2026-04-18T07:21:17.019Z</time></trkpt><trkpt lat="44.9708755" lon="7.7027331"><ele>226.0</ele><time>2026-04-18T07:21:18.019Z</time></trkpt><trkpt lat="44.9708459" lon="7.703009"><ele>226.0</ele><time>2026-04-18T07:21:19.019Z</time></trkpt><trkpt lat="44.9708185" lon="7.7032739"><ele>226.0</ele><time>2026-04-18T07:21:20.018Z</time></trkpt><trkpt lat="44.9707906" lon="7.7035303"><ele>226.0</ele><time>2026-04-18T07:21:21.018Z</time></trkpt><trkpt lat="44.9707611" lon="7.7037767"><ele>225.0</ele><time>2026-04-18T07:21:22.019Z</time></trkpt><trkpt lat="44.9707283" lon="7.7040068"><ele>224.0</ele><time>2026-04-18T07:21:23.019Z</time></trkpt><trkpt lat="44.970686" lon="7.7042143"><ele>223.0</ele><time>2026-04-18T07:21:24.019Z</time></trkpt><trkpt lat="44.9706254" lon="7.7043912"><ele>222.75</ele><time>2026-04-18T07:21:25.019Z</time></trkpt><trkpt lat="44.9705429" lon="7.7045392"><ele>222.5</ele><time>2026-04-18T07:21:26.019Z</time></trkpt><trkpt lat="44.9704418" lon="7.7046555"><ele>222.25</ele><time>2026-04-18T07:21:27.018Z</time></trkpt><trkpt lat="44.9703277" lon="7.7047295"><ele>222.0</ele><time>2026-04-18T07:21:28.019Z</time></trkpt><trkpt lat="44.9702034" lon="7.7047637"><ele>222.0</ele><time>2026-04-18T07:21:29.019Z</time></trkpt><trkpt lat="44.9700752" lon="7.7047593"><ele>222.0</ele><time>2026-04-18T07:21:30.019Z</time></trkpt><trkpt lat="44.9699493" lon="7.7047136"><ele>222.0</ele><time>2026-04-18T07:21:31.018Z</time></trkpt><trkpt lat="44.9698281" lon="7.7046294"><ele>222.0</ele><time>2026-04-18T07:21:32.019Z</time></trkpt><trkpt lat="44.9697143" lon="7.7045223"><ele>222.25</ele><time>2026-04-18T07:21:33.019Z</time></trkpt><trkpt lat="44.9696152" lon="7.7043943"><ele>222.5</ele><time>2026-04-18T07:21:34.018Z</time></trkpt><trkpt lat="44.9695389" lon="7.7042346"><ele>222.75</ele><time>2026-04-18T07:21:35.019Z</time></trkpt><trkpt lat="44.9694836" lon="7.7040663"><ele>223.0</ele><time>2026-04-18T07:21:36.019Z</time></trkpt><trkpt lat="44.9694514" lon="7.7038894"><ele>223.0</ele><time>2026-04-18T07:21:37.019Z</time></trkpt><trkpt lat="44.9694479" lon="7.7037156"><ele>223.0</ele><time>2026-04-18T07:21:38.019Z</time></trkpt><trkpt lat="44.9694684" lon="7.7035498"><ele>223.0</ele><time>2026-04-18T07:21:39.018Z</time></trkpt><trkpt lat="44.9695165" lon="7.7034027"><ele>223.0</ele><time>2026-04-18T07:21:40.018Z</time></trkpt><trkpt lat="44.9695891" lon="7.703275"><ele>223.25</ele><time>2026-04-18T07:21:41.019Z</time></trkpt><trkpt lat="44.9696882" lon="7.7031649"><ele>223.5</ele><time>2026-04-18T07:21:42.018Z</time></trkpt><trkpt lat="44.9698097" lon="7.7030739"><ele>223.75</ele><time>2026-04-18T07:21:43.018Z</time></trkpt><trkpt lat="44.9699533" lon="7.7030027"><ele>224.0</ele><time>2026-04-18T07:21:44.019Z</time></trkpt><trkpt lat="44.970118" lon="7.7029487"><ele>224.66666666666669</ele><time>2026-04-18T07:21:45.019Z</time></trkpt><trkpt lat="44.9702939" lon="7.7028963"><ele>225.33333333333331</ele><time>2026-04-18T07:21:46.019Z</time></trkpt><trkpt lat="44.9704772" lon="7.7028411"><ele>226.0</ele><time>2026-04-18T07:21:47.019Z</time></trkpt><trkpt lat="44.9706665" lon="7.7027819"><ele>226.66666666666666</ele><time>2026-04-18T07:21:48.019Z</time></trkpt><trkpt lat="44.970861" lon="7.7027165"><ele>227.33333333333331</ele><time>2026-04-18T07:21:49.019Z</time></trkpt><trkpt lat="44.9710666" lon="7.7026487"><ele>228.0</ele><time>2026-04-18T07:21:50.019Z</time></trkpt><trkpt lat="44.9712792" lon="7.7025794"><ele>228.0</ele><time>2026-04-18T07:21:51.019Z</time></trkpt><trkpt lat="44.9714996" lon="7.7025114"><ele>228.0</ele><time>2026-04-18T07:21:52.018Z</time></trkpt><trkpt lat="44.971732" lon="7.7024428"><ele>225.5</ele><time>2026-04-18T07:21:53.018Z</time></trkpt><trkpt lat="44.971971" lon="7.7023741"><ele>223.0</ele><time>2026-04-18T07:21:54.019Z</time></trkpt><trkpt lat="44.9722104" lon="7.7023053"><ele>223.0</ele><time>2026-04-18T07:21:55.019Z</time></trkpt><trkpt lat="44.9724549" lon="7.7022353"><ele>223.0</ele><time>2026-04-18T07:21:56.019Z</time></trkpt><trkpt lat="44.9727053" lon="7.7021657"><ele>223.5</ele><time>2026-04-18T07:21:57.018Z</time></trkpt><trkpt lat="44.9729576" lon="7.7020974"><ele>224.0</ele><time>2026-04-18T07:21:58.018Z</time></trkpt><trkpt lat="44.9732112" lon="7.7020294"><ele>223.5</ele><time>2026-04-18T07:21:59.019Z</time></trkpt><trkpt lat="44.9734647" lon="7.7019609"><ele>223.0</ele><time>2026-04-18T07:22:00.019Z</time></trkpt><trkpt lat="44.9737197" lon="7.701892"><ele>222.5</ele><time>2026-04-18T07:22:01.018Z</time></trkpt><trkpt lat="44.973973" lon="7.7018221"><ele>222.0</ele><time>2026-04-18T07:22:02.019Z</time></trkpt><trkpt lat="44.9742261" lon="7.7017499"><ele>222.0</ele><time>2026-04-18T07:22:03.019Z</time></trkpt><trkpt lat="44.9744841" lon="7.7016762"><ele>222.0</ele><time>2026-04-18T07:22:04.019Z</time></trkpt><trkpt lat="44.9747452" lon="7.7016066"><ele>222.0</ele><time>2026-04-18T07:22:05.019Z</time></trkpt><trkpt lat="44.9750013" lon="7.7015386"><ele>222.0</ele><time>2026-04-18T07:22:06.019Z</time></trkpt><trkpt lat="44.9752489" lon="7.7014728"><ele>221.5</ele><time>2026-04-18T07:22:07.018Z</time></trkpt><trkpt lat="44.9754915" lon="7.7014088"><ele>221.0</ele><time>2026-04-18T07:22:08.018Z</time></trkpt><trkpt lat="44.9757284" lon="7.701348"><ele>220.0</ele><time>2026-04-18T07:22:09.019Z</time></trkpt><trkpt lat="44.9759576" lon="7.7012905"><ele>219.0</ele><time>2026-04-18T07:22:10.019Z</time></trkpt><trkpt lat="44.9761791" lon="7.7012329"><ele>219.0</ele><time>2026-04-18T07:22:11.018Z</time></trkpt><trkpt lat="44.9763949" lon="7.7011774"><ele>219.0</ele><time>2026-04-18T07:22:12.019Z</time></trkpt><trkpt lat="44.9766086" lon="7.7011212"><ele>219.0</ele><time>2026-04-18T07:22:13.019Z</time></trkpt><trkpt lat="44.9768202" lon="7.7010639"><ele>220.33333333333331</ele><time>2026-04-18T07:22:14.019Z</time></trkpt><trkpt lat="44.9770327" lon="7.7010091"><ele>221.66666666666666</ele><time>2026-04-18T07:22:15.019Z</time></trkpt><trkpt lat="44.9772457" lon="7.7009522"><ele>223.0</ele><time>2026-04-18T07:22:16.019Z</time></trkpt><trkpt lat="44.9774575" lon="7.7008994"><ele>223.0</ele><time>2026-04-18T07:22:17.018Z</time></trkpt><trkpt lat="44.9776707" lon="7.7008413"><ele>223.0</ele><time>2026-04-18T07:22:18.019Z</time></trkpt><trkpt lat="44.9778826" lon="7.7007867"><ele>223.0</ele><time>2026-04-18T07:22:19.019Z</time></trkpt><trkpt lat="44.9780929" lon="7.7007329"><ele>223.0</ele><time>2026-04-18T07:22:20.018Z</time></trkpt><trkpt lat="44.9783035" lon="7.700676"><ele>223.0</ele><time>2026-04-18T07:22:21.019Z</time></trkpt><trkpt lat="44.9785113" lon="7.7006175"><ele>223.0</ele><time>2026-04-18T07:22:22.018Z</time></trkpt><trkpt lat="44.9787104" lon="7.7005666"><ele>222.0</ele><time>2026-04-18T07:22:23.019Z</time></trkpt><trkpt lat="44.9789057" lon="7.7005169"><ele>221.0</ele><time>2026-04-18T07:22:24.019Z</time></trkpt><trkpt lat="44.9790948" lon="7.7004711"><ele>220.0</ele><time>2026-04-18T07:22:25.018Z</time></trkpt><trkpt lat="44.9792783" lon="7.7004219"><ele>220.0</ele><time>2026-04-18T07:22:26.018Z</time></trkpt><trkpt lat="44.9794525" lon="7.7003746"><ele>220.0</ele><time>2026-04-18T07:22:27.019Z</time></trkpt><trkpt lat="44.979617" lon="7.7003319"><ele>220.0</ele><time>2026-04-18T07:22:28.018Z</time></trkpt><trkpt lat="44.9797807" lon="7.7002891"><ele>220.0</ele><time>2026-04-18T07:22:29.019Z</time></trkpt><trkpt lat="44.979943" lon="7.70025"><ele>220.0</ele><time>2026-04-18T07:22:30.018Z</time></trkpt><trkpt lat="44.9801105" lon="7.7002086"><ele>220.0</ele><time>2026-04-18T07:22:31.018Z</time></trkpt><trkpt lat="44.9802798" lon="7.7001653"><ele>220.66666666666666</ele><time>2026-04-18T07:22:32.019Z</time></trkpt><trkpt lat="44.9804459" lon="7.7001222"><ele>221.33333333333331</ele><time>2026-04-18T07:22:33.018Z</time></trkpt><trkpt lat="44.98061" lon="7.7000845"><ele>222.0</ele><time>2026-04-18T07:22:34.018Z</time></trkpt><trkpt lat="44.9807695" lon="7.7000512"><ele>222.33333333333331</ele><time>2026-04-18T07:22:35.019Z</time></trkpt><trkpt lat="44.9809244" lon="7.7000157"><ele>222.66666666666666</ele><time>2026-04-18T07:22:36.019Z</time></trkpt><trkpt lat="44.9810743" lon="7.6999841"><ele>223.0</ele><time>2026-04-18T07:22:37.018Z</time></trkpt><trkpt lat="44.9812238" lon="7.6999466"><ele>223.0</ele><time>2026-04-18T07:22:38.019Z</time></trkpt><trkpt lat="44.9813756" lon="7.6999127"><ele>223.0</ele><time>2026-04-18T07:22:39.018Z</time></trkpt><trkpt lat="44.9815324" lon="7.6998773"><ele>223.0</ele><time>2026-04-18T07:22:40.019Z</time></trkpt><trkpt lat="44.9816938" lon="7.6998422"><ele>222.66666666666666</ele><time>2026-04-18T07:22:41.018Z</time></trkpt><trkpt lat="44.9818609" lon="7.6998099"><ele>222.33333333333331</ele><time>2026-04-18T07:22:42.018Z</time></trkpt><trkpt lat="44.9820285" lon="7.6997782"><ele>222.0</ele><time>2026-04-18T07:22:43.018Z</time></trkpt><trkpt lat="44.9821939" lon="7.699746"><ele>222.0</ele><time>2026-04-18T07:22:44.019Z</time></trkpt><trkpt lat="44.9823558" lon="7.699713"><ele>222.0</ele><time>2026-04-18T07:22:45.019Z</time></trkpt><trkpt lat="44.9825166" lon="7.6996822"><ele>222.0</ele><time>2026-04-18T07:22:46.019Z</time></trkpt><trkpt lat="44.9826939" lon="7.6996475"><ele>222.33333333333331</ele><time>2026-04-18T07:22:47.019Z</time></trkpt><trkpt lat="44.982878" lon="7.6996041"><ele>222.66666666666666</ele><time>2026-04-18T07:22:48.019Z</time></trkpt><trkpt lat="44.9830789" lon="7.6995513"><ele>223.0</ele><time>2026-04-18T07:22:49.019Z</time></trkpt><trkpt lat="44.9832836" lon="7.6994995"><ele>223.5</ele><time>2026-04-18T07:22:50.019Z</time></trkpt><trkpt lat="44.9835073" lon="7.6994561"><ele>224.0</ele><time>2026-04-18T07:22:51.019Z</time></trkpt><trkpt lat="44.9837365" lon="7.6994148"><ele>223.33333333333334</ele><time>2026-04-18T07:22:52.018Z</time></trkpt><trkpt lat="44.9839547" lon="7.6993762"><ele>222.66666666666669</ele><time>2026-04-18T07:22:53.019Z</time></trkpt><trkpt lat="44.9841646" lon="7.6993417"><ele>222.0</ele><time>2026-04-18T07:22:54.019Z</time></trkpt><trkpt lat="44.9843607" lon="7.6993083"><ele>222.0</ele><time>2026-04-18T07:22:55.018Z</time></trkpt><trkpt lat="44.984545" lon="7.6992781"><ele>222.0</ele><time>2026-04-18T07:22:56.019Z</time></trkpt><trkpt lat="44.9847111" lon="7.6992648"><ele>222.0</ele><time>2026-04-18T07:22:57.018Z</time></trkpt><trkpt lat="44.9848599" lon="7.6992775"><ele>222.0</ele><time>2026-04-18T07:22:58.018Z</time></trkpt><trkpt lat="44.9849871" lon="7.6993205"><ele>222.0</ele><time>2026-04-18T07:22:59.018Z</time></trkpt><trkpt lat="44.9850985" lon="7.6993999"><ele>222.0</ele><time>2026-04-18T07:23:00.019Z</time></trkpt><trkpt lat="44.9851914" lon="7.6995141"><ele>222.0</ele><time>2026-04-18T07:23:01.019Z</time></trkpt><trkpt lat="44.9852658" lon="7.6996498"><ele>222.0</ele><time>2026-04-18T07:23:02.018Z</time></trkpt><trkpt lat="44.98532" lon="7.6997941"><ele>222.0</ele><time>2026-04-18T07:23:03.019Z</time></trkpt><trkpt lat="44.9853613" lon="7.6999446"><ele>222.0</ele><time>2026-04-18T07:23:04.019Z</time></trkpt><trkpt lat="44.9853966" lon="7.7000819"><ele>222.0</ele><time>2026-04-18T07:23:05.019Z</time></trkpt><trkpt lat="44.9854305" lon="7.7002043"><ele>222.0</ele><time>2026-04-18T07:23:06.019Z</time></trkpt><trkpt lat="44.9854684" lon="7.7003235"><ele>221.6</ele><time>2026-04-18T07:23:07.018Z</time></trkpt><trkpt lat="44.9855074" lon="7.7004384"><ele>221.2</ele><time>2026-04-18T07:23:08.019Z</time></trkpt><trkpt lat="44.9855455" lon="7.7005554"><ele>220.8</ele><time>2026-04-18T07:23:09.018Z</time></trkpt><trkpt lat="44.985576" lon="7.7006729"><ele>220.4</ele><time>2026-04-18T07:23:10.018Z</time></trkpt><trkpt lat="44.9855973" lon="7.7008018"><ele>220.0</ele><time>2026-04-18T07:23:11.018Z</time></trkpt><trkpt lat="44.9856001" lon="7.700935"><ele>220.0</ele><time>2026-04-18T07:23:12.019Z</time></trkpt><trkpt lat="44.9855834" lon="7.7010673"><ele>220.0</ele><time>2026-04-18T07:23:13.019Z</time></trkpt><trkpt lat="44.9855442" lon="7.7012039"><ele>220.0</ele><time>2026-04-18T07:23:14.019Z</time></trkpt><trkpt lat="44.985483" lon="7.7013303"><ele>220.0</ele><time>2026-04-18T07:23:15.019Z</time></trkpt><trkpt lat="44.9853999" lon="7.7014505"><ele>220.0</ele><time>2026-04-18T07:23:16.019Z</time></trkpt><trkpt lat="44.9852869" lon="7.7015603"><ele>220.0</ele><time>2026-04-18T07:23:17.019Z</time></trkpt><trkpt lat="44.9851469" lon="7.7016544"><ele>220.0</ele><time>2026-04-18T07:23:18.019Z</time></trkpt><trkpt lat="44.9849787" lon="7.7017458"><ele>220.0</ele><time>2026-04-18T07:23:19.019Z</time></trkpt><trkpt lat="44.9848004" lon="7.7018417"><ele>220.0</ele><time>2026-04-18T07:23:20.019Z</time></trkpt><trkpt lat="44.9846165" lon="7.7019391"><ele>220.0</ele><time>2026-04-18T07:23:21.018Z</time></trkpt><trkpt lat="44.9844344" lon="7.7020358"><ele>220.0</ele><time>2026-04-18T07:23:22.019Z</time></trkpt><trkpt lat="44.9842589" lon="7.7021298"><ele>220.33333333333331</ele><time>2026-04-18T07:23:23.018Z</time></trkpt><trkpt lat="44.9840981" lon="7.7022122"><ele>220.66666666666669</ele><time>2026-04-18T07:23:24.018Z</time></trkpt><trkpt lat="44.9839469" lon="7.7022826"><ele>221.0</ele><time>2026-04-18T07:23:25.018Z</time></trkpt><trkpt lat="44.9837993" lon="7.7023387"><ele>221.0</ele><time>2026-04-18T07:23:26.019Z</time></trkpt><trkpt lat="44.9836567" lon="7.7023822"><ele>221.0</ele><time>2026-04-18T07:23:27.019Z</time></trkpt><trkpt lat="44.9835189" lon="7.7024249"><ele>221.0</ele><time>2026-04-18T07:23:28.018Z</time></trkpt><trkpt lat="44.9833915" lon="7.7024644"><ele>221.0</ele><time>2026-04-18T07:23:29.019Z</time></trkpt><trkpt lat="44.983281" lon="7.7024927"><ele>221.4</ele><time>2026-04-18T07:23:30.018Z</time></trkpt><trkpt lat="44.9831944" lon="7.7025067"><ele>221.8</ele><time>2026-04-18T07:23:31.019Z</time></trkpt><trkpt lat="44.9831034" lon="7.7024936"><ele>222.20000000000002</ele><time>2026-04-18T07:23:33.019Z</time></trkpt><trkpt lat="44.9830206" lon="7.7024074"><ele>222.60000000000002</ele><time>2026-04-18T07:23:35.018Z</time></trkpt><trkpt lat="44.9829643" lon="7.7023149"><ele>223.0</ele><time>2026-04-18T07:23:36.019Z</time></trkpt><trkpt lat="44.9828942" lon="7.7022248"><ele>223.0</ele><time>2026-04-18T07:23:37.018Z</time></trkpt><trkpt lat="44.9828124" lon="7.7021533"><ele>223.0</ele><time>2026-04-18T07:23:38.019Z</time></trkpt><trkpt lat="44.9827171" lon="7.7021096"><ele>223.0</ele><time>2026-04-18T07:23:39.019Z</time></trkpt><trkpt lat="44.9826147" lon="7.7021084"><ele>223.0</ele><time>2026-04-18T07:23:40.019Z</time></trkpt><trkpt lat="44.9825181" lon="7.7021522"><ele>223.0</ele><time>2026-04-18T07:23:41.019Z</time></trkpt><trkpt lat="44.9824255" lon="7.7022299"><ele>222.5</ele><time>2026-04-18T07:23:42.018Z</time></trkpt><trkpt lat="44.9823256" lon="7.7023252"><ele>222.0</ele><time>2026-04-18T07:23:43.018Z</time></trkpt><trkpt lat="44.9822171" lon="7.7024175"><ele>221.5</ele><time>2026-04-18T07:23:44.019Z</time></trkpt><trkpt lat="44.9821072" lon="7.7025084"><ele>221.0</ele><time>2026-04-18T07:23:45.019Z</time></trkpt><trkpt lat="44.9819924" lon="7.7025974"><ele>221.0</ele><time>2026-04-18T07:23:46.018Z</time></trkpt><trkpt lat="44.9818732" lon="7.702688"><ele>221.0</ele><time>2026-04-18T07:23:47.018Z</time></trkpt><trkpt lat="44.9817433" lon="7.7027669"><ele>221.0</ele><time>2026-04-18T07:23:48.019Z</time></trkpt><trkpt lat="44.981608" lon="7.7028413"><ele>221.0</ele><time>2026-04-18T07:23:49.019Z</time></trkpt><trkpt lat="44.9814738" lon="7.7029185"><ele>220.66666666666669</ele><time>2026-04-18T07:23:50.018Z</time></trkpt><trkpt lat="44.9813399" lon="7.7029947"><ele>220.33333333333331</ele><time>2026-04-18T07:23:51.019Z</time></trkpt><trkpt lat="44.9811972" lon="7.703068"><ele>220.0</ele><time>2026-04-18T07:23:52.019Z</time></trkpt><trkpt lat="44.981045" lon="7.7031448"><ele>220.0</ele><time>2026-04-18T07:23:53.018Z</time></trkpt><trkpt lat="44.9808728" lon="7.7032218"><ele>220.0</ele><time>2026-04-18T07:23:54.019Z</time></trkpt><trkpt lat="44.9806766" lon="7.7032779"><ele>220.0</ele><time>2026-04-18T07:23:55.019Z</time></trkpt><trkpt lat="44.9804531" lon="7.7033259"><ele>220.0</ele><time>2026-04-18T07:23:56.019Z</time></trkpt><trkpt lat="44.9802163" lon="7.7033959"><ele>220.0</ele><time>2026-04-18T07:23:57.019Z</time></trkpt><trkpt lat="44.9799895" lon="7.7034702"><ele>220.0</ele><time>2026-04-18T07:23:58.018Z</time></trkpt><trkpt lat="44.9797609" lon="7.7035418"><ele>220.0</ele><time>2026-04-18T07:23:59.019Z</time></trkpt><trkpt lat="44.97954" lon="7.7036106"><ele>220.0</ele><time>2026-04-18T07:24:00.018Z</time></trkpt><trkpt lat="44.9793225" lon="7.7036787"><ele>220.0</ele><time>2026-04-18T07:24:01.018Z</time></trkpt><trkpt lat="44.9791099" lon="7.7037456"><ele>220.0</ele><time>2026-04-18T07:24:02.019Z</time></trkpt><trkpt lat="44.9789011" lon="7.7038096"><ele>220.66666666666666</ele><time>2026-04-18T07:24:03.018Z</time></trkpt><trkpt lat="44.978693" lon="7.703871"><ele>221.33333333333331</ele><time>2026-04-18T07:24:04.019Z</time></trkpt><trkpt lat="44.9784864" lon="7.7039325"><ele>222.0</ele><time>2026-04-18T07:24:05.019Z</time></trkpt><trkpt lat="44.9782801" lon="7.7039971"><ele>222.0</ele><time>2026-04-18T07:24:06.019Z</time></trkpt><trkpt lat="44.9780714" lon="7.7040691"><ele>222.0</ele><time>2026-04-18T07:24:07.019Z</time></trkpt><trkpt lat="44.977864" lon="7.7041511"><ele>222.0</ele><time>2026-04-18T07:24:08.019Z</time></trkpt><trkpt lat="44.9776574" lon="7.7042447"><ele>221.66666666666669</ele><time>2026-04-18T07:24:09.019Z</time></trkpt><trkpt lat="44.9774515" lon="7.7043426"><ele>221.33333333333334</ele><time>2026-04-18T07:24:10.019Z</time></trkpt><trkpt lat="44.9772481" lon="7.704438"><ele>221.0</ele><time>2026-04-18T07:24:11.019Z</time></trkpt><trkpt lat="44.977053" lon="7.7045322"><ele>221.66666666666669</ele><time>2026-04-18T07:24:12.018Z</time></trkpt><trkpt lat="44.9768661" lon="7.7046248"><ele>222.33333333333331</ele><time>2026-04-18T07:24:13.019Z</time></trkpt><trkpt lat="44.9766866" lon="7.7047187"><ele>223.0</ele><time>2026-04-18T07:24:14.019Z</time></trkpt><trkpt lat="44.9765215" lon="7.7048182"><ele>223.0</ele><time>2026-04-18T07:24:15.019Z</time></trkpt><trkpt lat="44.9763737" lon="7.704922"><ele>223.0</ele><time>2026-04-18T07:24:16.018Z</time></trkpt><trkpt lat="44.9762435" lon="7.705033"><ele>223.0</ele><time>2026-04-18T07:24:17.019Z</time></trkpt><trkpt lat="44.9761334" lon="7.70514"><ele>223.0</ele><time>2026-04-18T07:24:18.019Z</time></trkpt><trkpt lat="44.9760404" lon="7.7052412"><ele>223.0</ele><time>2026-04-18T07:24:19.018Z</time></trkpt><trkpt lat="44.9759571" lon="7.7053257"><ele>223.0</ele><time>2026-04-18T07:24:20.018Z</time></trkpt><trkpt lat="44.9758653" lon="7.7053787"><ele>223.0</ele><time>2026-04-18T07:24:21.019Z</time></trkpt><trkpt lat="44.9757661" lon="7.7054116"><ele>223.0</ele><time>2026-04-18T07:24:22.019Z</time></trkpt><trkpt lat="44.9756711" lon="7.7054549"><ele>223.0</ele><time>2026-04-18T07:24:23.019Z</time></trkpt><trkpt lat="44.9755885" lon="7.7055188"><ele>223.0</ele><time>2026-04-18T07:24:24.018Z</time></trkpt><trkpt lat="44.9755258" lon="7.705607"><ele>223.0</ele><time>2026-04-18T07:24:25.019Z</time></trkpt><trkpt lat="44.9754913" lon="7.7057128"><ele>223.0</ele><time>2026-04-18T07:24:26.018Z</time></trkpt><trkpt lat="44.975482" lon="7.7058344"><ele>223.0</ele><time>2026-04-18T07:24:27.019Z</time></trkpt><trkpt lat="44.9754838" lon="7.7059854"><ele>222.5</ele><time>2026-04-18T07:24:28.019Z</time></trkpt><trkpt lat="44.9754848" lon="7.7061684"><ele>222.0</ele><time>2026-04-18T07:24:29.018Z</time></trkpt><trkpt lat="44.9754858" lon="7.7063768"><ele>221.5</ele><time>2026-04-18T07:24:30.019Z</time></trkpt><trkpt lat="44.9754873" lon="7.706596"><ele>221.0</ele><time>2026-04-18T07:24:31.019Z</time></trkpt><trkpt lat="44.9754869" lon="7.7068152"><ele>221.5</ele><time>2026-04-18T07:24:32.019Z</time></trkpt><trkpt lat="44.9754858" lon="7.7070221"><ele>222.0</ele><time>2026-04-18T07:24:33.019Z</time></trkpt><trkpt lat="44.9754843" lon="7.7072214"><ele>222.5</ele><time>2026-04-18T07:24:34.018Z</time></trkpt><trkpt lat="44.9754823" lon="7.7074137"><ele>223.0</ele><time>2026-04-18T07:24:35.018Z</time></trkpt><trkpt lat="44.9754818" lon="7.7076046"><ele>222.75</ele><time>2026-04-18T07:24:36.018Z</time></trkpt><trkpt lat="44.9754807" lon="7.7077964"><ele>222.5</ele><time>2026-04-18T07:24:37.019Z</time></trkpt><trkpt lat="44.9754799" lon="7.7079784"><ele>222.25</ele><time>2026-04-18T07:24:38.018Z</time></trkpt><trkpt lat="44.9754798" lon="7.7081511"><ele>222.0</ele><time>2026-04-18T07:24:39.019Z</time></trkpt><trkpt lat="44.9754797" lon="7.7083136"><ele>222.0</ele><time>2026-04-18T07:24:40.019Z</time></trkpt><trkpt lat="44.9754793" lon="7.7084692"><ele>222.0</ele><time>2026-04-18T07:24:41.019Z</time></trkpt><trkpt lat="44.9754789" lon="7.7086127"><ele>222.0</ele><time>2026-04-18T07:24:42.019Z</time></trkpt><trkpt lat="44.9754764" lon="7.7087374"><ele>222.0</ele><time>2026-04-18T07:24:43.019Z</time></trkpt><trkpt lat="44.9754655" lon="7.7088441"><ele>222.0</ele><time>2026-04-18T07:24:44.018Z</time></trkpt><trkpt lat="44.9754397" lon="7.7089341"><ele>222.0</ele><time>2026-04-18T07:24:45.019Z</time></trkpt><trkpt lat="44.9754033" lon="7.7090156"><ele>222.16666666666666</ele><time>2026-04-18T07:24:46.019Z</time></trkpt><trkpt lat="44.9753689" lon="7.7090911"><ele>222.33333333333331</ele><time>2026-04-18T07:24:47.018Z</time></trkpt><trkpt lat="44.9753476" lon="7.7091784"><ele>222.5</ele><time>2026-04-18T07:24:48.019Z</time></trkpt><trkpt lat="44.9753511" lon="7.7092751"><ele>222.66666666666666</ele><time>2026-04-18T07:24:49.019Z</time></trkpt><trkpt lat="44.9753841" lon="7.7093735"><ele>222.83333333333331</ele><time>2026-04-18T07:24:50.019Z</time></trkpt><trkpt lat="44.9754256" lon="7.7094974"><ele>223.0</ele><time>2026-04-18T07:24:51.018Z</time></trkpt><trkpt lat="44.9754523" lon="7.7096696"><ele>223.0</ele><time>2026-04-18T07:24:52.018Z</time></trkpt><trkpt lat="44.9754619" lon="7.7098742"><ele>223.0</ele><time>2026-04-18T07:24:53.019Z</time></trkpt><trkpt lat="44.9754625" lon="7.7101098"><ele>223.0</ele><time>2026-04-18T07:24:54.018Z</time></trkpt><trkpt lat="44.9754578" lon="7.7103476"><ele>222.33333333333331</ele><time>2026-04-18T07:24:55.018Z</time></trkpt><trkpt lat="44.9754509" lon="7.7105868"><ele>221.66666666666669</ele><time>2026-04-18T07:24:56.019Z</time></trkpt><trkpt lat="44.9754402" lon="7.7108334"><ele>221.0</ele><time>2026-04-18T07:24:57.018Z</time></trkpt><trkpt lat="44.9754286" lon="7.7110818"><ele>220.66666666666669</ele><time>2026-04-18T07:24:58.018Z</time></trkpt><trkpt lat="44.9754201" lon="7.7113264"><ele>220.33333333333331</ele><time>2026-04-18T07:24:59.019Z</time></trkpt><trkpt lat="44.9754138" lon="7.7115589"><ele>220.0</ele><time>2026-04-18T07:25:00.019Z</time></trkpt><trkpt lat="44.9754091" lon="7.7117805"><ele>220.5</ele><time>2026-04-18T07:25:01.018Z</time></trkpt><trkpt lat="44.9754039" lon="7.7119904"><ele>221.0</ele><time>2026-04-18T07:25:02.019Z</time></trkpt><trkpt lat="44.9753985" lon="7.7121941"><ele>221.5</ele><time>2026-04-18T07:25:03.019Z</time></trkpt><trkpt lat="44.9753938" lon="7.712396"><ele>222.0</ele><time>2026-04-18T07:25:04.018Z</time></trkpt><trkpt lat="44.9753914" lon="7.7125901"><ele>222.75</ele><time>2026-04-18T07:25:05.018Z</time></trkpt><trkpt lat="44.97539" lon="7.7127786"><ele>223.5</ele><time>2026-04-18T07:25:06.019Z</time></trkpt><trkpt lat="44.9753882" lon="7.7129649"><ele>224.25</ele><time>2026-04-18T07:25:07.018Z</time></trkpt><trkpt lat="44.9753872" lon="7.7131475"><ele>225.0</ele><time>2026-04-18T07:25:08.019Z</time></trkpt><trkpt lat="44.9753875" lon="7.7133201"><ele>225.0</ele><time>2026-04-18T07:25:09.019Z</time></trkpt><trkpt lat="44.9753863" lon="7.7134884"><ele>225.0</ele><time>2026-04-18T07:25:10.019Z</time></trkpt><trkpt lat="44.9753855" lon="7.7136504"><ele>225.0</ele><time>2026-04-18T07:25:11.018Z</time></trkpt><trkpt lat="44.9753839" lon="7.7138038"><ele>225.0</ele><time>2026-04-18T07:25:12.019Z</time></trkpt><trkpt lat="44.9753812" lon="7.7139554"><ele>225.0</ele><time>2026-04-18T07:25:13.019Z</time></trkpt><trkpt lat="44.9753787" lon="7.7141077"><ele>225.25</ele><time>2026-04-18T07:25:14.019Z</time></trkpt><trkpt lat="44.9753774" lon="7.7142638"><ele>225.5</ele><time>2026-04-18T07:25:15.019Z</time></trkpt><trkpt lat="44.9753757" lon="7.714425"><ele>225.75</ele><time>2026-04-18T07:25:16.019Z</time></trkpt><trkpt lat="44.9753752" lon="7.7145954"><ele>226.0</ele><time>2026-04-18T07:25:17.019Z</time></trkpt><trkpt lat="44.9753792" lon="7.7147705"><ele>226.0</ele><time>2026-04-18T07:25:18.019Z</time></trkpt><trkpt lat="44.9753868" lon="7.7149531"><ele>226.0</ele><time>2026-04-18T07:25:19.018Z</time></trkpt><trkpt lat="44.9753912" lon="7.7151406"><ele>226.0</ele><time>2026-04-18T07:25:20.019Z</time></trkpt><trkpt lat="44.9753904" lon="7.7153201"><ele>226.0</ele><time>2026-04-18T07:25:21.019Z</time></trkpt><trkpt lat="44.9753903" lon="7.7154883"><ele>225.8</ele><time>2026-04-18T07:25:22.019Z</time></trkpt><trkpt lat="44.9753883" lon="7.7156522"><ele>225.60000000000002</ele><time>2026-04-18T07:25:23.019Z</time></trkpt><trkpt lat="44.9753847" lon="7.7158057"><ele>225.4</ele><time>2026-04-18T07:25:24.018Z</time></trkpt><trkpt lat="44.9753813" lon="7.7159575"><ele>225.2</ele><time>2026-04-18T07:25:25.018Z</time></trkpt><trkpt lat="44.9753797" lon="7.7161077"><ele>225.0</ele><time>2026-04-18T07:25:26.019Z</time></trkpt><trkpt lat="44.9753768" lon="7.7162551"><ele>225.0</ele><time>2026-04-18T07:25:27.019Z</time></trkpt><trkpt lat="44.9753739" lon="7.716394"><ele>225.0</ele><time>2026-04-18T07:25:28.018Z</time></trkpt><trkpt lat="44.9753707" lon="7.7165273"><ele>225.0</ele><time>2026-04-18T07:25:29.018Z</time></trkpt><trkpt lat="44.9753689" lon="7.7166527"><ele>225.0</ele><time>2026-04-18T07:25:30.018Z</time></trkpt><trkpt lat="44.9753685" lon="7.7167648"><ele>225.0</ele><time>2026-04-18T07:25:31.018Z</time></trkpt><trkpt lat="44.9753656" lon="7.7169177"><ele>225.0</ele><time>2026-04-18T07:25:33.019Z</time></trkpt><trkpt lat="44.9753607" lon="7.7170433"><ele>225.0</ele><time>2026-04-18T07:25:35.019Z</time></trkpt><trkpt lat="44.9753624" lon="7.7172256"><ele>225.0</ele><time>2026-04-18T07:25:37.019Z</time></trkpt><trkpt lat="44.975361" lon="7.7173336"><ele>225.0</ele><time>2026-04-18T07:25:38.019Z</time></trkpt><trkpt lat="44.975358" lon="7.7174524"><ele>225.0</ele><time>2026-04-18T07:25:39.019Z</time></trkpt><trkpt lat="44.9753533" lon="7.7175957"><ele>225.5</ele><time>2026-04-18T07:25:40.018Z</time></trkpt><trkpt lat="44.975349" lon="7.7177568"><ele>226.0</ele><time>2026-04-18T07:25:41.019Z</time></trkpt><trkpt lat="44.9753452" lon="7.7179194"><ele>226.5</ele><time>2026-04-18T07:25:42.019Z</time></trkpt><trkpt lat="44.9753408" lon="7.718094"><ele>227.0</ele><time>2026-04-18T07:25:43.019Z</time></trkpt><trkpt lat="44.9753369" lon="7.7182795"><ele>227.0</ele><time>2026-04-18T07:25:44.019Z</time></trkpt><trkpt lat="44.9753322" lon="7.7184756"><ele>227.0</ele><time>2026-04-18T07:25:45.019Z</time></trkpt><trkpt lat="44.9753293" lon="7.7186796"><ele>227.0</ele><time>2026-04-18T07:25:46.018Z</time></trkpt><trkpt lat="44.975327" lon="7.7188956"><ele>227.0</ele><time>2026-04-18T07:25:47.019Z</time></trkpt><trkpt lat="44.9753251" lon="7.7191201"><ele>227.0</ele><time>2026-04-18T07:25:48.019Z</time></trkpt><trkpt lat="44.9753198" lon="7.7193514"><ele>227.0</ele><time>2026-04-18T07:25:49.019Z</time></trkpt><trkpt lat="44.9753168" lon="7.719588"><ele>227.0</ele><time>2026-04-18T07:25:50.019Z</time></trkpt><trkpt lat="44.9753118" lon="7.7198305"><ele>227.0</ele><time>2026-04-18T07:25:51.019Z</time></trkpt><trkpt lat="44.9753087" lon="7.7200685"><ele>227.0</ele><time>2026-04-18T07:25:52.019Z</time></trkpt><trkpt lat="44.9753061" lon="7.7202983"><ele>227.0</ele><time>2026-04-18T07:25:53.018Z</time></trkpt><trkpt lat="44.9753045" lon="7.7205218"><ele>227.33333333333334</ele><time>2026-04-18T07:25:54.019Z</time></trkpt><trkpt lat="44.9753009" lon="7.7207369"><ele>227.66666666666669</ele><time>2026-04-18T07:25:55.019Z</time></trkpt><trkpt lat="44.9752983" lon="7.7209488"><ele>228.0</ele><time>2026-04-18T07:25:56.018Z</time></trkpt><trkpt lat="44.9752954" lon="7.7211623"><ele>227.0</ele><time>2026-04-18T07:25:57.019Z</time></trkpt><trkpt lat="44.975294" lon="7.7213764"><ele>226.0</ele><time>2026-04-18T07:25:58.018Z</time></trkpt><trkpt lat="44.9752927" lon="7.7215937"><ele>225.0</ele><time>2026-04-18T07:25:59.018Z</time></trkpt><trkpt lat="44.9752886" lon="7.7218208"><ele>224.66666666666669</ele><time>2026-04-18T07:26:00.019Z</time></trkpt><trkpt lat="44.9752842" lon="7.7220541"><ele>224.33333333333334</ele><time>2026-04-18T07:26:01.019Z</time></trkpt><trkpt lat="44.9752797" lon="7.7222967"><ele>224.0</ele><time>2026-04-18T07:26:02.019Z</time></trkpt><trkpt lat="44.9752771" lon="7.7225399"><ele>224.66666666666669</ele><time>2026-04-18T07:26:03.018Z</time></trkpt><trkpt lat="44.9752751" lon="7.7227834"><ele>225.33333333333331</ele><time>2026-04-18T07:26:04.019Z</time></trkpt><trkpt lat="44.9752719" lon="7.7230307"><ele>226.0</ele><time>2026-04-18T07:26:05.019Z</time></trkpt><trkpt lat="44.9752696" lon="7.7232798"><ele>226.0</ele><time>2026-04-18T07:26:06.019Z</time></trkpt><trkpt lat="44.9752661" lon="7.7235258"><ele>226.0</ele><time>2026-04-18T07:26:07.018Z</time></trkpt><trkpt lat="44.9752625" lon="7.7237741"><ele>226.0</ele><time>2026-04-18T07:26:08.019Z</time></trkpt><trkpt lat="44.9752589" lon="7.7240184"><ele>225.33333333333331</ele><time>2026-04-18T07:26:09.018Z</time></trkpt><trkpt lat="44.9752556" lon="7.7242583"><ele>224.66666666666669</ele><time>2026-04-18T07:26:10.019Z</time></trkpt><trkpt lat="44.9752534" lon="7.7244989"><ele>224.0</ele><time>2026-04-18T07:26:11.018Z</time></trkpt><trkpt lat="44.9752519" lon="7.7247368"><ele>224.0</ele><time>2026-04-18T07:26:12.019Z</time></trkpt><trkpt lat="44.9752521" lon="7.7249722"><ele>224.0</ele><time>2026-04-18T07:26:13.019Z</time></trkpt><trkpt lat="44.9752507" lon="7.7252052"><ele>224.0</ele><time>2026-04-18T07:26:14.018Z</time></trkpt><trkpt lat="44.9752492" lon="7.7254337"><ele>223.66666666666669</ele><time>2026-04-18T07:26:15.019Z</time></trkpt><trkpt lat="44.9752484" lon="7.7256568"><ele>223.33333333333331</ele><time>2026-04-18T07:26:16.019Z</time></trkpt><trkpt lat="44.9752462" lon="7.725873"><ele>223.0</ele><time>2026-04-18T07:26:17.019Z</time></trkpt><trkpt lat="44.9752449" lon="7.726085"><ele>222.75</ele><time>2026-04-18T07:26:18.019Z</time></trkpt><trkpt lat="44.9752426" lon="7.7262937"><ele>222.5</ele><time>2026-04-18T07:26:19.019Z</time></trkpt><trkpt lat="44.9752401" lon="7.7265026"><ele>222.25</ele><time>2026-04-18T07:26:20.018Z</time></trkpt><trkpt lat="44.9752367" lon="7.7267096"><ele>222.0</ele><time>2026-04-18T07:26:21.019Z</time></trkpt><trkpt lat="44.9752328" lon="7.7269151"><ele>222.5</ele><time>2026-04-18T07:26:22.019Z</time></trkpt><trkpt lat="44.9752307" lon="7.727118"><ele>223.0</ele><time>2026-04-18T07:26:23.019Z</time></trkpt><trkpt lat="44.9752293" lon="7.7273195"><ele>223.5</ele><time>2026-04-18T07:26:24.019Z</time></trkpt><trkpt lat="44.9752279" lon="7.7275212"><ele>224.0</ele><time>2026-04-18T07:26:25.019Z</time></trkpt><trkpt lat="44.9752256" lon="7.727722"><ele>224.25</ele><time>2026-04-18T07:26:26.018Z</time></trkpt><trkpt lat="44.9752183" lon="7.7279246"><ele>224.5</ele><time>2026-04-18T07:26:27.019Z</time></trkpt><trkpt lat="44.9752051" lon="7.7281289"><ele>224.75</ele><time>2026-04-18T07:26:28.019Z</time></trkpt><trkpt lat="44.975185" lon="7.7283403"><ele>225.0</ele><time>2026-04-18T07:26:29.019Z</time></trkpt><trkpt lat="44.97516" lon="7.7285506"><ele>225.25</ele><time>2026-04-18T07:26:30.018Z</time></trkpt><trkpt lat="44.9751319" lon="7.7287576"><ele>225.5</ele><time>2026-04-18T07:26:31.018Z</time></trkpt><trkpt lat="44.975102" lon="7.7289668"><ele>225.75</ele><time>2026-04-18T07:26:32.019Z</time></trkpt><trkpt lat="44.9750729" lon="7.7291688"><ele>226.0</ele><time>2026-04-18T07:26:33.018Z</time></trkpt><trkpt lat="44.9750463" lon="7.7293591"><ele>226.20000000000002</ele><time>2026-04-18T07:26:34.018Z</time></trkpt><trkpt lat="44.9750227" lon="7.7295242"><ele>226.40000000000003</ele><time>2026-04-18T07:26:35.018Z</time></trkpt><trkpt lat="44.9749962" lon="7.7296571"><ele>226.6</ele><time>2026-04-18T07:26:36.018Z</time></trkpt><trkpt lat="44.9749528" lon="7.7297584"><ele>226.8</ele><time>2026-04-18T07:26:37.019Z</time></trkpt><trkpt lat="44.9748934" lon="7.7298261"><ele>227.0</ele><time>2026-04-18T07:26:38.018Z</time></trkpt><trkpt lat="44.974819" lon="7.7298531"><ele>226.39999999999998</ele><time>2026-04-18T07:26:39.019Z</time></trkpt><trkpt lat="44.9747438" lon="7.7298345"><ele>225.79999999999998</ele><time>2026-04-18T07:26:40.018Z</time></trkpt><trkpt lat="44.9746666" lon="7.7297816"><ele>225.2</ele><time>2026-04-18T07:26:41.019Z</time></trkpt><trkpt lat="44.9745885" lon="7.7296954"><ele>224.6</ele><time>2026-04-18T07:26:42.019Z</time></trkpt><trkpt lat="44.9745076" lon="7.7295753"><ele>224.0</ele><time>2026-04-18T07:26:43.019Z</time></trkpt><trkpt lat="44.9744196" lon="7.7294343"><ele>224.0</ele><time>2026-04-18T07:26:44.019Z</time></trkpt><trkpt lat="44.9743229" lon="7.7292856"><ele>224.0</ele><time>2026-04-18T07:26:45.019Z</time></trkpt><trkpt lat="44.9742236" lon="7.7291333"><ele>224.0</ele><time>2026-04-18T07:26:46.019Z</time></trkpt><trkpt lat="44.9741181" lon="7.7289786"><ele>224.0</ele><time>2026-04-18T07:26:47.018Z</time></trkpt><trkpt lat="44.9740098" lon="7.7288221"><ele>223.66666666666669</ele><time>2026-04-18T07:26:48.019Z</time></trkpt><trkpt lat="44.9739009" lon="7.7286713"><ele>223.33333333333331</ele><time>2026-04-18T07:26:49.018Z</time></trkpt><trkpt lat="44.9737878" lon="7.7285294"><ele>223.0</ele><time>2026-04-18T07:26:50.018Z</time></trkpt><trkpt lat="44.9736709" lon="7.7283918"><ele>223.0</ele><time>2026-04-18T07:26:51.019Z</time></trkpt><trkpt lat="44.9735499" lon="7.7282626"><ele>223.0</ele><time>2026-04-18T07:26:52.019Z</time></trkpt><trkpt lat="44.9734227" lon="7.7281388"><ele>223.0</ele><time>2026-04-18T07:26:53.018Z</time></trkpt><trkpt lat="44.9732893" lon="7.7280223"><ele>223.66666666666666</ele><time>2026-04-18T07:26:54.019Z</time></trkpt><trkpt lat="44.9731479" lon="7.7279105"><ele>224.33333333333331</ele><time>2026-04-18T07:26:55.018Z</time></trkpt><trkpt lat="44.9729989" lon="7.727808"><ele>225.0</ele><time>2026-04-18T07:26:56.018Z</time></trkpt><trkpt lat="44.972847" lon="7.7277133"><ele>225.0</ele><time>2026-04-18T07:26:57.018Z</time></trkpt><trkpt lat="44.9726993" lon="7.7276322"><ele>225.0</ele><time>2026-04-18T07:26:58.019Z</time></trkpt><trkpt lat="44.9725513" lon="7.7275641"><ele>225.0</ele><time>2026-04-18T07:26:59.019Z</time></trkpt><trkpt lat="44.9724" lon="7.7275031"><ele>225.0</ele><time>2026-04-18T07:27:00.019Z</time></trkpt><trkpt lat="44.972243" lon="7.7274517"><ele>225.0</ele><time>2026-04-18T07:27:01.018Z</time></trkpt><trkpt lat="44.9720834" lon="7.7274107"><ele>225.0</ele><time>2026-04-18T07:27:02.018Z</time></trkpt><trkpt lat="44.9719246" lon="7.7273802"><ele>225.0</ele><time>2026-04-18T07:27:03.019Z</time></trkpt><trkpt lat="44.9717685" lon="7.7273626"><ele>225.0</ele><time>2026-04-18T07:27:04.019Z</time></trkpt><trkpt lat="44.9716131" lon="7.7273518"><ele>225.0</ele><time>2026-04-18T07:27:05.019Z</time></trkpt><trkpt lat="44.971458" lon="7.7273452"><ele>224.5</ele><time>2026-04-18T07:27:06.018Z</time></trkpt><trkpt lat="44.9713099" lon="7.7273424"><ele>224.0</ele><time>2026-04-18T07:27:07.018Z</time></trkpt><trkpt lat="44.9711685" lon="7.7273395"><ele>223.5</ele><time>2026-04-18T07:27:08.018Z</time></trkpt><trkpt lat="44.9710362" lon="7.727336"><ele>223.0</ele><time>2026-04-18T07:27:09.019Z</time></trkpt><trkpt lat="44.9709115" lon="7.7273321"><ele>223.0</ele><time>2026-04-18T07:27:10.018Z</time></trkpt><trkpt lat="44.9707916" lon="7.7273282"><ele>223.0</ele><time>2026-04-18T07:27:11.019Z</time></trkpt><trkpt lat="44.970684" lon="7.7273166"><ele>223.0</ele><time>2026-04-18T07:27:12.018Z</time></trkpt><trkpt lat="44.9705836" lon="7.7272704"><ele>223.0</ele><time>2026-04-18T07:27:13.019Z</time></trkpt><trkpt lat="44.9704898" lon="7.7271851"><ele>223.0</ele><time>2026-04-18T07:27:14.018Z</time></trkpt><trkpt lat="44.9703959" lon="7.7271146"><ele>222.99999999999997</ele><time>2026-04-18T07:27:15.019Z</time></trkpt><trkpt lat="44.9702999" lon="7.7270878"><ele>223.0</ele><time>2026-04-18T07:27:16.018Z</time></trkpt><trkpt lat="44.9702163" lon="7.7271004"><ele>223.0</ele><time>2026-04-18T07:27:17.019Z</time></trkpt><trkpt lat="44.970144" lon="7.7271516"><ele>223.0</ele><time>2026-04-18T07:27:18.019Z</time></trkpt><trkpt lat="44.9700901" lon="7.7272419"><ele>222.99999999999997</ele><time>2026-04-18T07:27:19.019Z</time></trkpt><trkpt lat="44.9700648" lon="7.7273468"><ele>223.0</ele><time>2026-04-18T07:27:20.019Z</time></trkpt><trkpt lat="44.9700696" lon="7.7274575"><ele>223.0</ele><time>2026-04-18T07:27:21.019Z</time></trkpt><trkpt lat="44.9701018" lon="7.7275688"><ele>223.0</ele><time>2026-04-18T07:27:22.019Z</time></trkpt><trkpt lat="44.9701626" lon="7.7276706"><ele>223.0</ele><time>2026-04-18T07:27:23.018Z</time></trkpt><trkpt lat="44.9702482" lon="7.7277559"><ele>223.0</ele><time>2026-04-18T07:27:24.019Z</time></trkpt><trkpt lat="44.9703507" lon="7.7278321"><ele>223.0</ele><time>2026-04-18T07:27:25.019Z</time></trkpt><trkpt lat="44.9704507" lon="7.7279347"><ele>223.25</ele><time>2026-04-18T07:27:26.018Z</time></trkpt><trkpt lat="44.9705356" lon="7.7280756"><ele>223.5</ele><time>2026-04-18T07:27:27.019Z</time></trkpt><trkpt lat="44.970609" lon="7.7282422"><ele>223.75</ele><time>2026-04-18T07:27:28.018Z</time></trkpt><trkpt lat="44.970679" lon="7.7284168"><ele>224.0</ele><time>2026-04-18T07:27:29.019Z</time></trkpt><trkpt lat="44.9707344" lon="7.7285893"><ele>223.5</ele><time>2026-04-18T07:27:30.019Z</time></trkpt><trkpt lat="44.9707702" lon="7.7287642"><ele>223.0</ele><time>2026-04-18T07:27:31.018Z</time></trkpt><trkpt lat="44.9707922" lon="7.7289357"><ele>222.5</ele><time>2026-04-18T07:27:32.019Z</time></trkpt><trkpt lat="44.9707991" lon="7.7291072"><ele>222.0</ele><time>2026-04-18T07:27:33.018Z</time></trkpt><trkpt lat="44.9707895" lon="7.7292841"><ele>222.5</ele><time>2026-04-18T07:27:34.019Z</time></trkpt><trkpt lat="44.9707644" lon="7.7294677"><ele>223.0</ele><time>2026-04-18T07:27:35.019Z</time></trkpt><trkpt lat="44.9707211" lon="7.7296559"><ele>223.5</ele><time>2026-04-18T07:27:36.019Z</time></trkpt><trkpt lat="44.9706588" lon="7.7298399"><ele>224.0</ele><time>2026-04-18T07:27:37.019Z</time></trkpt><trkpt lat="44.9705785" lon="7.7300122"><ele>224.0</ele><time>2026-04-18T07:27:38.019Z</time></trkpt><trkpt lat="44.9704814" lon="7.7301641"><ele>224.0</ele><time>2026-04-18T07:27:39.019Z</time></trkpt><trkpt lat="44.9703698" lon="7.7302941"><ele>224.0</ele><time>2026-04-18T07:27:40.018Z</time></trkpt><trkpt lat="44.9702489" lon="7.7304093"><ele>224.0</ele><time>2026-04-18T07:27:41.019Z</time></trkpt><trkpt lat="44.9701161" lon="7.7305139"><ele>224.66666666666669</ele><time>2026-04-18T07:27:42.018Z</time></trkpt><trkpt lat="44.9699719" lon="7.7306129"><ele>225.33333333333331</ele><time>2026-04-18T07:27:43.019Z</time></trkpt><trkpt lat="44.9698247" lon="7.7307147"><ele>226.0</ele><time>2026-04-18T07:27:44.018Z</time></trkpt><trkpt lat="44.9696737" lon="7.7308206"><ele>226.0</ele><time>2026-04-18T07:27:45.019Z</time></trkpt><trkpt lat="44.9695247" lon="7.7309272"><ele>226.0</ele><time>2026-04-18T07:27:46.018Z</time></trkpt><trkpt lat="44.9693761" lon="7.7310342"><ele>226.0</ele><time>2026-04-18T07:27:47.019Z</time></trkpt><trkpt lat="44.9692256" lon="7.7311428"><ele>226.33333333333331</ele><time>2026-04-18T07:27:48.019Z</time></trkpt><trkpt lat="44.9690766" lon="7.7312543"><ele>226.66666666666669</ele><time>2026-04-18T07:27:49.019Z</time></trkpt><trkpt lat="44.9689294" lon="7.731363"><ele>227.0</ele><time>2026-04-18T07:27:50.019Z</time></trkpt><trkpt lat="44.9687808" lon="7.7314682"><ele>227.0</ele><time>2026-04-18T07:27:51.019Z</time></trkpt><trkpt lat="44.9686339" lon="7.7315773"><ele>227.0</ele><time>2026-04-18T07:27:52.019Z</time></trkpt><trkpt lat="44.9684849" lon="7.7316903"><ele>227.0</ele><time>2026-04-18T07:27:53.018Z</time></trkpt><trkpt lat="44.9683353" lon="7.7318147"><ele>226.66666666666669</ele><time>2026-04-18T07:27:54.018Z</time></trkpt><trkpt lat="44.9681919" lon="7.7319509"><ele>226.33333333333331</ele><time>2026-04-18T07:27:55.018Z</time></trkpt><trkpt lat="44.96805" lon="7.7321051"><ele>226.0</ele><time>2026-04-18T07:27:56.019Z</time></trkpt><trkpt lat="44.9679136" lon="7.7322723"><ele>226.0</ele><time>2026-04-18T07:27:57.019Z</time></trkpt><trkpt lat="44.9677814" lon="7.7324599"><ele>226.0</ele><time>2026-04-18T07:27:58.019Z</time></trkpt><trkpt lat="44.9676599" lon="7.7326637"><ele>226.0</ele><time>2026-04-18T07:27:59.019Z</time></trkpt><trkpt lat="44.9675519" lon="7.7328836"><ele>226.33333333333331</ele><time>2026-04-18T07:28:00.019Z</time></trkpt><trkpt lat="44.9674547" lon="7.7331157"><ele>226.66666666666669</ele><time>2026-04-18T07:28:01.019Z</time></trkpt><trkpt lat="44.9673728" lon="7.7333561"><ele>227.0</ele><time>2026-04-18T07:28:02.019Z</time></trkpt><trkpt lat="44.9673015" lon="7.7336076"><ele>227.0</ele><time>2026-04-18T07:28:03.018Z</time></trkpt><trkpt lat="44.9672388" lon="7.7338745"><ele>227.0</ele><time>2026-04-18T07:28:04.018Z</time></trkpt><trkpt lat="44.9671824" lon="7.7341494"><ele>227.0</ele><time>2026-04-18T07:28:05.018Z</time></trkpt><trkpt lat="44.9671295" lon="7.7344284"><ele>226.66666666666669</ele><time>2026-04-18T07:28:06.019Z</time></trkpt><trkpt lat="44.9670757" lon="7.7347092"><ele>226.33333333333331</ele><time>2026-04-18T07:28:07.018Z</time></trkpt><trkpt lat="44.9670223" lon="7.7349907"><ele>226.0</ele><time>2026-04-18T07:28:08.019Z</time></trkpt><trkpt lat="44.9669715" lon="7.7352691"><ele>226.66666666666666</ele><time>2026-04-18T07:28:09.018Z</time></trkpt><trkpt lat="44.9669205" lon="7.7355521"><ele>227.33333333333331</ele><time>2026-04-18T07:28:10.018Z</time></trkpt><trkpt lat="44.966869" lon="7.7358358"><ele>228.0</ele><time>2026-04-18T07:28:11.019Z</time></trkpt><trkpt lat="44.9668166" lon="7.7361235"><ele>228.33333333333331</ele><time>2026-04-18T07:28:12.018Z</time></trkpt><trkpt lat="44.9667641" lon="7.7364121"><ele>228.66666666666666</ele><time>2026-04-18T07:28:13.018Z</time></trkpt><trkpt lat="44.9667102" lon="7.7367074"><ele>229.0</ele><time>2026-04-18T07:28:14.018Z</time></trkpt><trkpt lat="44.9666553" lon="7.7370067"><ele>229.33333333333331</ele><time>2026-04-18T07:28:15.018Z</time></trkpt><trkpt lat="44.9665977" lon="7.7373077"><ele>229.66666666666669</ele><time>2026-04-18T07:28:16.018Z</time></trkpt><trkpt lat="44.9665405" lon="7.7376177"><ele>230.0</ele><time>2026-04-18T07:28:17.019Z</time></trkpt><trkpt lat="44.9664822" lon="7.7379323"><ele>228.5</ele><time>2026-04-18T07:28:18.019Z</time></trkpt><trkpt lat="44.9664215" lon="7.7382538"><ele>227.0</ele><time>2026-04-18T07:28:19.019Z</time></trkpt><trkpt lat="44.9663599" lon="7.7385837"><ele>226.5</ele><time>2026-04-18T07:28:20.019Z</time></trkpt><trkpt lat="44.9662978" lon="7.7389191"><ele>226.0</ele><time>2026-04-18T07:28:21.019Z</time></trkpt><trkpt lat="44.9662352" lon="7.7392636"><ele>228.0</ele><time>2026-04-18T07:28:22.019Z</time></trkpt><trkpt lat="44.966172" lon="7.739615"><ele>230.0</ele><time>2026-04-18T07:28:23.019Z</time></trkpt><trkpt lat="44.9661064" lon="7.7399703"><ele>229.5</ele><time>2026-04-18T07:28:24.018Z</time></trkpt><trkpt lat="44.9660414" lon="7.7403313"><ele>229.0</ele><time>2026-04-18T07:28:25.018Z</time></trkpt><trkpt lat="44.9659772" lon="7.7406943"><ele>228.0</ele><time>2026-04-18T07:28:26.019Z</time></trkpt><trkpt lat="44.9659108" lon="7.7410565"><ele>227.0</ele><time>2026-04-18T07:28:27.019Z</time></trkpt><trkpt lat="44.965844" lon="7.7414136"><ele>227.0</ele><time>2026-04-18T07:28:28.019Z</time></trkpt><trkpt lat="44.965778" lon="7.7417675"><ele>227.0</ele><time>2026-04-18T07:28:29.018Z</time></trkpt><trkpt lat="44.9657128" lon="7.742117"><ele>227.0</ele><time>2026-04-18T07:28:30.018Z</time></trkpt><trkpt lat="44.9656486" lon="7.7424625"><ele>227.0</ele><time>2026-04-18T07:28:31.019Z</time></trkpt><trkpt lat="44.9655869" lon="7.7428059"><ele>228.0</ele><time>2026-04-18T07:28:32.018Z</time></trkpt><trkpt lat="44.9655248" lon="7.7431443"><ele>229.0</ele><time>2026-04-18T07:28:33.019Z</time></trkpt><trkpt lat="44.965463" lon="7.7434814"><ele>228.5</ele><time>2026-04-18T07:28:34.019Z</time></trkpt><trkpt lat="44.9654014" lon="7.7438155"><ele>228.0</ele><time>2026-04-18T07:28:35.019Z</time></trkpt><trkpt lat="44.96534" lon="7.7441446"><ele>228.0</ele><time>2026-04-18T07:28:36.018Z</time></trkpt><trkpt lat="44.9652801" lon="7.7444686"><ele>228.0</ele><time>2026-04-18T07:28:37.019Z</time></trkpt><trkpt lat="44.9652194" lon="7.7447889"><ele>228.0</ele><time>2026-04-18T07:28:38.019Z</time></trkpt><trkpt lat="44.9651596" lon="7.7451078"><ele>228.0</ele><time>2026-04-18T07:28:39.019Z</time></trkpt><trkpt lat="44.9650996" lon="7.7454266"><ele>228.0</ele><time>2026-04-18T07:28:40.019Z</time></trkpt><trkpt lat="44.9650401" lon="7.7457455"><ele>228.0</ele><time>2026-04-18T07:28:41.018Z</time></trkpt><trkpt lat="44.9649808" lon="7.7460674"><ele>229.0</ele><time>2026-04-18T07:28:42.018Z</time></trkpt><trkpt lat="44.9649224" lon="7.7463923"><ele>230.0</ele><time>2026-04-18T07:28:43.019Z</time></trkpt><trkpt lat="44.9648639" lon="7.7467202"><ele>229.0</ele><time>2026-04-18T07:28:44.018Z</time></trkpt><trkpt lat="44.9648034" lon="7.7470497"><ele>228.0</ele><time>2026-04-18T07:28:45.019Z</time></trkpt><trkpt lat="44.9647417" lon="7.7473849"><ele>227.5</ele><time>2026-04-18T07:28:46.019Z</time></trkpt><trkpt lat="44.9646789" lon="7.7477256"><ele>227.0</ele><time>2026-04-18T07:28:47.018Z</time></trkpt><trkpt lat="44.9646141" lon="7.7480714"><ele>227.0</ele><time>2026-04-18T07:28:48.019Z</time></trkpt><trkpt lat="44.9645482" lon="7.7484217"><ele>227.0</ele><time>2026-04-18T07:28:49.018Z</time></trkpt><trkpt lat="44.9644834" lon="7.7487724"><ele>227.0</ele><time>2026-04-18T07:28:50.019Z</time></trkpt><trkpt lat="44.9644169" lon="7.7491262"><ele>227.0</ele><time>2026-04-18T07:28:51.019Z</time></trkpt><trkpt lat="44.9643499" lon="7.7494842"><ele>227.0</ele><time>2026-04-18T07:28:52.019Z</time></trkpt><trkpt lat="44.9642871" lon="7.7498335"><ele>227.0</ele><time>2026-04-18T07:28:53.019Z</time></trkpt><trkpt lat="44.9642305" lon="7.7501718"><ele>228.0</ele><time>2026-04-18T07:28:54.018Z</time></trkpt><trkpt lat="44.964184" lon="7.7505035"><ele>229.0</ele><time>2026-04-18T07:28:55.019Z</time></trkpt><trkpt lat="44.9641465" lon="7.7508365"><ele>228.5</ele><time>2026-04-18T07:28:56.018Z</time></trkpt><trkpt lat="44.96412" lon="7.7511713"><ele>228.0</ele><time>2026-04-18T07:28:57.019Z</time></trkpt><trkpt lat="44.9641059" lon="7.7515068"><ele>228.0</ele><time>2026-04-18T07:28:58.019Z</time></trkpt><trkpt lat="44.9641011" lon="7.7518434"><ele>228.0</ele><time>2026-04-18T07:28:59.018Z</time></trkpt><trkpt lat="44.9641101" lon="7.7521742"><ele>226.5</ele><time>2026-04-18T07:29:00.019Z</time></trkpt><trkpt lat="44.9641321" lon="7.752501"><ele>225.0</ele><time>2026-04-18T07:29:01.019Z</time></trkpt><trkpt lat="44.9641676" lon="7.7528201"><ele>226.0</ele><time>2026-04-18T07:29:02.019Z</time></trkpt><trkpt lat="44.9642119" lon="7.7531261"><ele>227.0</ele><time>2026-04-18T07:29:03.019Z</time></trkpt><trkpt lat="44.9642672" lon="7.7534217"><ele>228.0</ele><time>2026-04-18T07:29:04.018Z</time></trkpt><trkpt lat="44.9643301" lon="7.7537105"><ele>228.0</ele><time>2026-04-18T07:29:05.018Z</time></trkpt><trkpt lat="44.9643983" lon="7.7539985"><ele>228.0</ele><time>2026-04-18T07:29:06.019Z</time></trkpt><trkpt lat="44.9644683" lon="7.7542801"><ele>228.0</ele><time>2026-04-18T07:29:07.019Z</time></trkpt><trkpt lat="44.9645406" lon="7.7545521"><ele>228.0</ele><time>2026-04-18T07:29:08.019Z</time></trkpt><trkpt lat="44.9646102" lon="7.7548181"><ele>228.0</ele><time>2026-04-18T07:29:09.019Z</time></trkpt><trkpt lat="44.9646765" lon="7.7550757"><ele>228.0</ele><time>2026-04-18T07:29:10.018Z</time></trkpt><trkpt lat="44.9647409" lon="7.7553244"><ele>227.33333333333331</ele><time>2026-04-18T07:29:11.018Z</time></trkpt><trkpt lat="44.9648038" lon="7.7555634"><ele>226.66666666666666</ele><time>2026-04-18T07:29:12.019Z</time></trkpt><trkpt lat="44.9648641" lon="7.7557955"><ele>226.0</ele><time>2026-04-18T07:29:13.019Z</time></trkpt><trkpt lat="44.9649261" lon="7.7560182"><ele>226.25</ele><time>2026-04-18T07:29:14.019Z</time></trkpt><trkpt lat="44.9649812" lon="7.75623"><ele>226.5</ele><time>2026-04-18T07:29:15.019Z</time></trkpt><trkpt lat="44.9650329" lon="7.7564221"><ele>226.75</ele><time>2026-04-18T07:29:16.019Z</time></trkpt><trkpt lat="44.9650797" lon="7.7565941"><ele>227.0</ele><time>2026-04-18T07:29:17.019Z</time></trkpt><trkpt lat="44.9651202" lon="7.7567463"><ele>227.6</ele><time>2026-04-18T07:29:18.019Z</time></trkpt><trkpt lat="44.9651467" lon="7.756892"><ele>228.2</ele><time>2026-04-18T07:29:19.019Z</time></trkpt><trkpt lat="44.9651487" lon="7.7570385"><ele>228.8</ele><time>2026-04-18T07:29:20.018Z</time></trkpt><trkpt lat="44.9651247" lon="7.7571774"><ele>229.4</ele><time>2026-04-18T07:29:21.018Z</time></trkpt><trkpt lat="44.9650849" lon="7.7573141"><ele>230.0</ele><time>2026-04-18T07:29:22.019Z</time></trkpt><trkpt lat="44.9650643" lon="7.7574545"><ele>230.0</ele><time>2026-04-18T07:29:23.019Z</time></trkpt><trkpt lat="44.9650866" lon="7.7575867"><ele>230.0</ele><time>2026-04-18T07:29:24.018Z</time></trkpt><trkpt lat="44.9651351" lon="7.7577011"><ele>230.0</ele><time>2026-04-18T07:29:25.019Z</time></trkpt><trkpt lat="44.9652072" lon="7.7577836"><ele>230.0</ele><time>2026-04-18T07:29:26.019Z</time></trkpt><trkpt lat="44.9652928" lon="7.7578278"><ele>230.0</ele><time>2026-04-18T07:29:27.018Z</time></trkpt><trkpt lat="44.965383" lon="7.757822"><ele>230.0</ele><time>2026-04-18T07:29:28.018Z</time></trkpt><trkpt lat="44.9654649" lon="7.7577697"><ele>230.0</ele><time>2026-04-18T07:29:29.019Z</time></trkpt><trkpt lat="44.9655319" lon="7.7576781"><ele>230.0</ele><time>2026-04-18T07:29:30.019Z</time></trkpt><trkpt lat="44.9655855" lon="7.7575516"><ele>230.0</ele><time>2026-04-18T07:29:31.019Z</time></trkpt><trkpt lat="44.9656485" lon="7.7574161"><ele>230.0</ele><time>2026-04-18T07:29:32.019Z</time></trkpt><trkpt lat="44.9657385" lon="7.7573085"><ele>230.0</ele><time>2026-04-18T07:29:33.019Z</time></trkpt><trkpt lat="44.9658544" lon="7.7572224"><ele>230.0</ele><time>2026-04-18T07:29:34.018Z</time></trkpt><trkpt lat="44.9659927" lon="7.7571488"><ele>230.0</ele><time>2026-04-18T07:29:35.018Z</time></trkpt><trkpt lat="44.9661461" lon="7.7570889"><ele>230.0</ele><time>2026-04-18T07:29:36.019Z</time></trkpt><trkpt lat="44.9663094" lon="7.7570557"><ele>230.0</ele><time>2026-04-18T07:29:37.018Z</time></trkpt><trkpt lat="44.9664818" lon="7.7570601"><ele>230.0</ele><time>2026-04-18T07:29:38.018Z</time></trkpt><trkpt lat="44.966651" lon="7.7570959"><ele>230.0</ele><time>2026-04-18T07:29:39.019Z</time></trkpt><trkpt lat="44.9668158" lon="7.7571483"><ele>230.66666666666669</ele><time>2026-04-18T07:29:40.019Z</time></trkpt><trkpt lat="44.9669744" lon="7.757206"><ele>231.33333333333331</ele><time>2026-04-18T07:29:41.019Z</time></trkpt><trkpt lat="44.9671287" lon="7.7572626"><ele>232.0</ele><time>2026-04-18T07:29:42.019Z</time></trkpt><trkpt lat="44.9672806" lon="7.7573204"><ele>232.0</ele><time>2026-04-18T07:29:43.019Z</time></trkpt><trkpt lat="44.9674281" lon="7.7573787"><ele>232.0</ele><time>2026-04-18T07:29:44.019Z</time></trkpt><trkpt lat="44.9675727" lon="7.757438"><ele>232.0</ele><time>2026-04-18T07:29:45.019Z</time></trkpt><trkpt lat="44.9677177" lon="7.7574947"><ele>233.0</ele><time>2026-04-18T07:29:46.018Z</time></trkpt><trkpt lat="44.9678662" lon="7.7575539"><ele>234.0</ele><time>2026-04-18T07:29:47.019Z</time></trkpt><trkpt lat="44.9680168" lon="7.7576111"><ele>235.0</ele><time>2026-04-18T07:29:48.019Z</time></trkpt><trkpt lat="44.9681689" lon="7.7576721"><ele>235.33333333333331</ele><time>2026-04-18T07:29:49.019Z</time></trkpt><trkpt lat="44.9683207" lon="7.7577305"><ele>235.66666666666669</ele><time>2026-04-18T07:29:50.018Z</time></trkpt><trkpt lat="44.9684734" lon="7.7577903"><ele>236.0</ele><time>2026-04-18T07:29:51.019Z</time></trkpt><trkpt lat="44.9686262" lon="7.7578517"><ele>237.66666666666669</ele><time>2026-04-18T07:29:52.019Z</time></trkpt><trkpt lat="44.9687785" lon="7.7579124"><ele>239.33333333333331</ele><time>2026-04-18T07:29:53.019Z</time></trkpt><trkpt lat="44.9689299" lon="7.7579719"><ele>241.0</ele><time>2026-04-18T07:29:54.019Z</time></trkpt><trkpt lat="44.9690745" lon="7.758029"><ele>241.66666666666666</ele><time>2026-04-18T07:29:55.018Z</time></trkpt><trkpt lat="44.9692196" lon="7.7580846"><ele>242.33333333333331</ele><time>2026-04-18T07:29:56.018Z</time></trkpt><trkpt lat="44.9693642" lon="7.75814"><ele>243.0</ele><time>2026-04-18T07:29:57.019Z</time></trkpt><trkpt lat="44.9695155" lon="7.7581971"><ele>243.0</ele><time>2026-04-18T07:29:58.019Z</time></trkpt><trkpt lat="44.9696762" lon="7.7582606"><ele>243.0</ele><time>2026-04-18T07:29:59.018Z</time></trkpt><trkpt lat="44.969847" lon="7.7583289"><ele>243.0</ele><time>2026-04-18T07:30:00.019Z</time></trkpt><trkpt lat="44.9700242" lon="7.758402"><ele>243.66666666666669</ele><time>2026-04-18T07:30:01.019Z</time></trkpt><trkpt lat="44.9702054" lon="7.7584733"><ele>244.33333333333334</ele><time>2026-04-18T07:30:02.018Z</time></trkpt><trkpt lat="44.9703907" lon="7.7585437"><ele>245.0</ele><time>2026-04-18T07:30:03.019Z</time></trkpt><trkpt lat="44.9705692" lon="7.7586156"><ele>245.0</ele><time>2026-04-18T07:30:04.019Z</time></trkpt><trkpt lat="44.9707449" lon="7.7586871"><ele>245.0</ele><time>2026-04-18T07:30:05.018Z</time></trkpt><trkpt lat="44.9709092" lon="7.7587565"><ele>245.0</ele><time>2026-04-18T07:30:06.018Z</time></trkpt><trkpt lat="44.9710673" lon="7.7588249"><ele>245.0</ele><time>2026-04-18T07:30:07.018Z</time></trkpt><trkpt lat="44.97122" lon="7.758889"><ele>245.0</ele><time>2026-04-18T07:30:08.019Z</time></trkpt><trkpt lat="44.9713799" lon="7.7589556"><ele>245.0</ele><time>2026-04-18T07:30:09.018Z</time></trkpt><trkpt lat="44.971552" lon="7.7590207"><ele>245.33333333333334</ele><time>2026-04-18T07:30:10.019Z</time></trkpt><trkpt lat="44.971734" lon="7.7590891"><ele>245.66666666666669</ele><time>2026-04-18T07:30:11.019Z</time></trkpt><trkpt lat="44.9719222" lon="7.7591631"><ele>246.0</ele><time>2026-04-18T07:30:12.019Z</time></trkpt><trkpt lat="44.9721129" lon="7.759238"><ele>246.0</ele><time>2026-04-18T07:30:13.018Z</time></trkpt><trkpt lat="44.9722999" lon="7.7593115"><ele>246.0</ele><time>2026-04-18T07:30:14.018Z</time></trkpt><trkpt lat="44.9724823" lon="7.7593849"><ele>246.0</ele><time>2026-04-18T07:30:15.018Z</time></trkpt><trkpt lat="44.9726598" lon="7.7594556"><ele>246.0</ele><time>2026-04-18T07:30:16.019Z</time></trkpt><trkpt lat="44.972832" lon="7.759521"><ele>246.0</ele><time>2026-04-18T07:30:17.019Z</time></trkpt><trkpt lat="44.9729973" lon="7.7595855"><ele>246.0</ele><time>2026-04-18T07:30:18.019Z</time></trkpt><trkpt lat="44.9731563" lon="7.7596489"><ele>246.0</ele><time>2026-04-18T07:30:19.018Z</time></trkpt><trkpt lat="44.973307" lon="7.7597079"><ele>246.0</ele><time>2026-04-18T07:30:20.019Z</time></trkpt><trkpt lat="44.9734497" lon="7.7597638"><ele>246.0</ele><time>2026-04-18T07:30:21.018Z</time></trkpt><trkpt lat="44.9735865" lon="7.7598148"><ele>246.0</ele><time>2026-04-18T07:30:22.018Z</time></trkpt><trkpt lat="44.9737147" lon="7.7598624"><ele>246.33333333333334</ele><time>2026-04-18T07:30:23.018Z</time></trkpt><trkpt lat="44.9738336" lon="7.7599035"><ele>246.66666666666669</ele><time>2026-04-18T07:30:24.018Z</time></trkpt><trkpt lat="44.9739332" lon="7.7599366"><ele>247.0</ele><time>2026-04-18T07:30:25.019Z</time></trkpt><trkpt lat="44.9740031" lon="7.7599749"><ele>247.33333333333334</ele><time>2026-04-18T07:30:26.019Z</time></trkpt><trkpt lat="44.9740584" lon="7.7600376"><ele>247.66666666666669</ele><time>2026-04-18T07:30:27.019Z</time></trkpt><trkpt lat="44.9740909" lon="7.7601208"><ele>248.0</ele><time>2026-04-18T07:30:28.018Z</time></trkpt><trkpt lat="44.9741002" lon="7.7602178"><ele>248.0</ele><time>2026-04-18T07:30:29.019Z</time></trkpt><trkpt lat="44.9740807" lon="7.760321"><ele>248.0</ele><time>2026-04-18T07:30:30.018Z</time></trkpt><trkpt lat="44.9740299" lon="7.7604381"><ele>248.0</ele><time>2026-04-18T07:30:31.019Z</time></trkpt><trkpt lat="44.9739532" lon="7.7605669"><ele>248.0</ele><time>2026-04-18T07:30:32.019Z</time></trkpt><trkpt lat="44.973868" lon="7.7607056"><ele>248.0</ele><time>2026-04-18T07:30:33.019Z</time></trkpt><trkpt lat="44.9737753" lon="7.7608476"><ele>248.0</ele><time>2026-04-18T07:30:34.019Z</time></trkpt><trkpt lat="44.9736877" lon="7.7609878"><ele>248.0</ele><time>2026-04-18T07:30:35.019Z</time></trkpt><trkpt lat="44.9736055" lon="7.7611196"><ele>248.0</ele><time>2026-04-18T07:30:36.019Z</time></trkpt><trkpt lat="44.9735304" lon="7.7612403"><ele>248.0</ele><time>2026-04-18T07:30:37.019Z</time></trkpt><trkpt lat="44.9734564" lon="7.7613597"><ele>249.0</ele><time>2026-04-18T07:30:38.018Z</time></trkpt><trkpt lat="44.9733761" lon="7.7614904"><ele>250.0</ele><time>2026-04-18T07:30:39.019Z</time></trkpt><trkpt lat="44.9732847" lon="7.7616306"><ele>251.0</ele><time>2026-04-18T07:30:40.018Z</time></trkpt><trkpt lat="44.9731868" lon="7.7617813"><ele>252.0</ele><time>2026-04-18T07:30:41.019Z</time></trkpt><trkpt lat="44.973081" lon="7.7619432"><ele>253.0</ele><time>2026-04-18T07:30:42.019Z</time></trkpt><trkpt lat="44.9729683" lon="7.762115"><ele>254.0</ele><time>2026-04-18T07:30:43.018Z</time></trkpt><trkpt lat="44.972856" lon="7.7622861"><ele>255.0</ele><time>2026-04-18T07:30:44.019Z</time></trkpt><trkpt lat="44.9727431" lon="7.7624582"><ele>255.0</ele><time>2026-04-18T07:30:45.018Z</time></trkpt><trkpt lat="44.9726339" lon="7.7626279"><ele>255.0</ele><time>2026-04-18T07:30:46.018Z</time></trkpt><trkpt lat="44.9725282" lon="7.7627908"><ele>255.0</ele><time>2026-04-18T07:30:47.019Z</time></trkpt><trkpt lat="44.9724238" lon="7.7629522"><ele>254.33333333333331</ele><time>2026-04-18T07:30:48.019Z</time></trkpt><trkpt lat="44.9723204" lon="7.7631133"><ele>253.66666666666666</ele><time>2026-04-18T07:30:49.018Z</time></trkpt><trkpt lat="44.9722112" lon="7.7632781"><ele>253.0</ele><time>2026-04-18T07:30:50.019Z</time></trkpt><trkpt lat="44.9721094" lon="7.7634392"><ele>253.0</ele><time>2026-04-18T07:30:51.018Z</time></trkpt><trkpt lat="44.9720067" lon="7.7636003"><ele>253.0</ele><time>2026-04-18T07:30:52.018Z</time></trkpt><trkpt lat="44.9719053" lon="7.763759"><ele>253.0</ele><time>2026-04-18T07:30:53.019Z</time></trkpt><trkpt lat="44.971805" lon="7.7639135"><ele>253.0</ele><time>2026-04-18T07:30:54.019Z</time></trkpt><trkpt lat="44.9717077" lon="7.7640648"><ele>253.0</ele><time>2026-04-18T07:30:55.019Z</time></trkpt><trkpt lat="44.971615" lon="7.7642082"><ele>253.0</ele><time>2026-04-18T07:30:56.019Z</time></trkpt><trkpt lat="44.9715204" lon="7.7643522"><ele>253.0</ele><time>2026-04-18T07:30:57.018Z</time></trkpt><trkpt lat="44.9714252" lon="7.7644934"><ele>253.0</ele><time>2026-04-18T07:30:58.018Z</time></trkpt><trkpt lat="44.971331" lon="7.7646412"><ele>253.0</ele><time>2026-04-18T07:30:59.018Z</time></trkpt><trkpt lat="44.9712327" lon="7.764795"><ele>253.0</ele><time>2026-04-18T07:31:00.018Z</time></trkpt><trkpt lat="44.9711314" lon="7.7649566"><ele>253.0</ele><time>2026-04-18T07:31:01.019Z</time></trkpt><trkpt lat="44.971026" lon="7.765125"><ele>253.0</ele><time>2026-04-18T07:31:02.018Z</time></trkpt><trkpt lat="44.9709192" lon="7.7652934"><ele>253.0</ele><time>2026-04-18T07:31:03.018Z</time></trkpt><trkpt lat="44.9708116" lon="7.7654627"><ele>253.0</ele><time>2026-04-18T07:31:04.019Z</time></trkpt><trkpt lat="44.9707058" lon="7.7656318"><ele>253.0</ele><time>2026-04-18T07:31:05.019Z</time></trkpt><trkpt lat="44.9705984" lon="7.7657952"><ele>253.0</ele><time>2026-04-18T07:31:06.018Z</time></trkpt><trkpt lat="44.9704937" lon="7.7659555"><ele>253.0</ele><time>2026-04-18T07:31:07.018Z</time></trkpt><trkpt lat="44.9703892" lon="7.7661191"><ele>252.66666666666666</ele><time>2026-04-18T07:31:08.019Z</time></trkpt><trkpt lat="44.9702818" lon="7.7662856"><ele>252.33333333333331</ele><time>2026-04-18T07:31:09.019Z</time></trkpt><trkpt lat="44.9701734" lon="7.7664506"><ele>252.0</ele><time>2026-04-18T07:31:10.019Z</time></trkpt><trkpt lat="44.9700665" lon="7.7666157"><ele>251.0</ele><time>2026-04-18T07:31:11.018Z</time></trkpt><trkpt lat="44.9699618" lon="7.7667801"><ele>250.0</ele><time>2026-04-18T07:31:12.019Z</time></trkpt><trkpt lat="44.9698555" lon="7.7669455"><ele>249.0</ele><time>2026-04-18T07:31:13.019Z</time></trkpt><trkpt lat="44.9697482" lon="7.7671128"><ele>249.0</ele><time>2026-04-18T07:31:14.019Z</time></trkpt><trkpt lat="44.9696407" lon="7.7672766"><ele>249.0</ele><time>2026-04-18T07:31:15.018Z</time></trkpt><trkpt lat="44.9695356" lon="7.7674348"><ele>249.0</ele><time>2026-04-18T07:31:16.019Z</time></trkpt><trkpt lat="44.9694367" lon="7.7675888"><ele>249.0</ele><time>2026-04-18T07:31:17.018Z</time></trkpt><trkpt lat="44.9693394" lon="7.7677413"><ele>249.0</ele><time>2026-04-18T07:31:18.019Z</time></trkpt><trkpt lat="44.9692366" lon="7.7678921"><ele>249.0</ele><time>2026-04-18T07:31:19.019Z</time></trkpt><trkpt lat="44.9691319" lon="7.7680542"><ele>249.0</ele><time>2026-04-18T07:31:20.019Z</time></trkpt><trkpt lat="44.969027" lon="7.7682159"><ele>249.0</ele><time>2026-04-18T07:31:21.019Z</time></trkpt><trkpt lat="44.9689236" lon="7.7683779"><ele>249.0</ele><time>2026-04-18T07:31:22.018Z</time></trkpt><trkpt lat="44.9688234" lon="7.7685342"><ele>249.0</ele><time>2026-04-18T07:31:23.019Z</time></trkpt><trkpt lat="44.9687282" lon="7.768686"><ele>249.0</ele><time>2026-04-18T07:31:24.019Z</time></trkpt><trkpt lat="44.9686351" lon="7.7688296"><ele>248.75</ele><time>2026-04-18T07:31:25.018Z</time></trkpt><trkpt lat="44.9685474" lon="7.768966"><ele>248.5</ele><time>2026-04-18T07:31:26.019Z</time></trkpt><trkpt lat="44.9684597" lon="7.7691033"><ele>248.25</ele><time>2026-04-18T07:31:27.019Z</time></trkpt><trkpt lat="44.9683736" lon="7.7692354"><ele>248.0</ele><time>2026-04-18T07:31:28.019Z</time></trkpt><trkpt lat="44.9682855" lon="7.769369"><ele>247.5</ele><time>2026-04-18T07:31:29.019Z</time></trkpt><trkpt lat="44.968199" lon="7.7695038"><ele>247.0</ele><time>2026-04-18T07:31:30.018Z</time></trkpt><trkpt lat="44.968113" lon="7.7696384"><ele>246.5</ele><time>2026-04-18T07:31:31.018Z</time></trkpt><trkpt lat="44.9680249" lon="7.7697703"><ele>246.0</ele><time>2026-04-18T07:31:32.019Z</time></trkpt><trkpt lat="44.9679362" lon="7.7699032"><ele>246.0</ele><time>2026-04-18T07:31:33.018Z</time></trkpt><trkpt lat="44.9678478" lon="7.7700385"><ele>246.0</ele><time>2026-04-18T07:31:34.019Z</time></trkpt><trkpt lat="44.9677591" lon="7.7701754"><ele>246.0</ele><time>2026-04-18T07:31:35.018Z</time></trkpt><trkpt lat="44.9676723" lon="7.7703094"><ele>246.0</ele><time>2026-04-18T07:31:36.018Z</time></trkpt><trkpt lat="44.9675862" lon="7.7704432"><ele>245.75</ele><time>2026-04-18T07:31:37.019Z</time></trkpt><trkpt lat="44.9674998" lon="7.7705797"><ele>245.5</ele><time>2026-04-18T07:31:38.019Z</time></trkpt><trkpt lat="44.9674113" lon="7.7707171"><ele>245.25</ele><time>2026-04-18T07:31:39.019Z</time></trkpt><trkpt lat="44.9673229" lon="7.7708574"><ele>245.0</ele><time>2026-04-18T07:31:40.018Z</time></trkpt><trkpt lat="44.9672347" lon="7.7709956"><ele>245.75</ele><time>2026-04-18T07:31:41.018Z</time></trkpt><trkpt lat="44.9671508" lon="7.7711342"><ele>246.5</ele><time>2026-04-18T07:31:42.018Z</time></trkpt><trkpt lat="44.9670671" lon="7.7712745"><ele>247.25</ele><time>2026-04-18T07:31:43.018Z</time></trkpt><trkpt lat="44.9669825" lon="7.7714193"><ele>248.0</ele><time>2026-04-18T07:31:44.019Z</time></trkpt><trkpt lat="44.9669006" lon="7.7715613"><ele>248.0</ele><time>2026-04-18T07:31:45.018Z</time></trkpt><trkpt lat="44.9668134" lon="7.7716987"><ele>248.0</ele><time>2026-04-18T07:31:46.019Z</time></trkpt><trkpt lat="44.9667291" lon="7.7718238"><ele>248.0</ele><time>2026-04-18T07:31:47.019Z</time></trkpt><trkpt lat="44.9666399" lon="7.7719292"><ele>248.0</ele><time>2026-04-18T07:31:48.018Z</time></trkpt><trkpt lat="44.9665523" lon="7.7720248"><ele>247.5</ele><time>2026-04-18T07:31:49.019Z</time></trkpt><trkpt lat="44.966472" lon="7.7721248"><ele>247.0</ele><time>2026-04-18T07:31:50.018Z</time></trkpt><trkpt lat="44.9663944" lon="7.7722346"><ele>246.5</ele><time>2026-04-18T07:31:51.019Z</time></trkpt><trkpt lat="44.9663162" lon="7.77236"><ele>246.0</ele><time>2026-04-18T07:31:52.019Z</time></trkpt><trkpt lat="44.9662374" lon="7.7724915"><ele>246.0</ele><time>2026-04-18T07:31:53.018Z</time></trkpt><trkpt lat="44.9661578" lon="7.7726289"><ele>246.0</ele><time>2026-04-18T07:31:54.018Z</time></trkpt><trkpt lat="44.9660734" lon="7.7727694"><ele>246.0</ele><time>2026-04-18T07:31:55.018Z</time></trkpt><trkpt lat="44.9659876" lon="7.7729118"><ele>246.0</ele><time>2026-04-18T07:31:56.018Z</time></trkpt><trkpt lat="44.9659027" lon="7.7730512"><ele>246.0</ele><time>2026-04-18T07:31:57.019Z</time></trkpt><trkpt lat="44.9658148" lon="7.773188"><ele>246.0</ele><time>2026-04-18T07:31:58.018Z</time></trkpt><trkpt lat="44.9657238" lon="7.7733269"><ele>246.0</ele><time>2026-04-18T07:31:59.019Z</time></trkpt><trkpt lat="44.9656324" lon="7.7734693"><ele>246.0</ele><time>2026-04-18T07:32:00.019Z</time></trkpt><trkpt lat="44.9655416" lon="7.7736092"><ele>246.0</ele><time>2026-04-18T07:32:01.019Z</time></trkpt><trkpt lat="44.9654515" lon="7.7737462"><ele>246.0</ele><time>2026-04-18T07:32:02.019Z</time></trkpt><trkpt lat="44.9653659" lon="7.7738778"><ele>246.0</ele><time>2026-04-18T07:32:03.018Z</time></trkpt><trkpt lat="44.9652864" lon="7.7739989"><ele>246.0</ele><time>2026-04-18T07:32:04.018Z</time></trkpt><trkpt lat="44.9652095" lon="7.7741161"><ele>246.0</ele><time>2026-04-18T07:32:05.019Z</time></trkpt><trkpt lat="44.9651362" lon="7.7742285"><ele>246.00000000000003</ele><time>2026-04-18T07:32:06.019Z</time></trkpt><trkpt lat="44.9650654" lon="7.7743364"><ele>246.00000000000003</ele><time>2026-04-18T07:32:07.018Z</time></trkpt><trkpt lat="44.9649976" lon="7.7744433"><ele>246.0</ele><time>2026-04-18T07:32:08.019Z</time></trkpt><trkpt lat="44.964927" lon="7.7745523"><ele>246.0</ele><time>2026-04-18T07:32:09.019Z</time></trkpt><trkpt lat="44.9648548" lon="7.7746611"><ele>245.5</ele><time>2026-04-18T07:32:10.019Z</time></trkpt><trkpt lat="44.9647799" lon="7.7747765"><ele>245.0</ele><time>2026-04-18T07:32:11.018Z</time></trkpt><trkpt lat="44.9646995" lon="7.7748996"><ele>244.5</ele><time>2026-04-18T07:32:12.019Z</time></trkpt><trkpt lat="44.9646151" lon="7.7750276"><ele>244.0</ele><time>2026-04-18T07:32:13.019Z</time></trkpt><trkpt lat="44.9645242" lon="7.7751669"><ele>243.5</ele><time>2026-04-18T07:32:14.019Z</time></trkpt><trkpt lat="44.9644296" lon="7.7753122"><ele>243.0</ele><time>2026-04-18T07:32:15.018Z</time></trkpt><trkpt lat="44.9643369" lon="7.7754601"><ele>242.5</ele><time>2026-04-18T07:32:16.018Z</time></trkpt><trkpt lat="44.9642463" lon="7.7756018"><ele>242.0</ele><time>2026-04-18T07:32:17.019Z</time></trkpt><trkpt lat="44.9641595" lon="7.7757349"><ele>242.0</ele><time>2026-04-18T07:32:18.018Z</time></trkpt><trkpt lat="44.96408" lon="7.7758557"><ele>242.0</ele><time>2026-04-18T07:32:19.019Z</time></trkpt><trkpt lat="44.9640053" lon="7.7759673"><ele>242.0</ele><time>2026-04-18T07:32:20.019Z</time></trkpt><trkpt lat="44.963935" lon="7.7760729"><ele>242.0</ele><time>2026-04-18T07:32:21.019Z</time></trkpt><trkpt lat="44.9638679" lon="7.7761746"><ele>242.0</ele><time>2026-04-18T07:32:22.018Z</time></trkpt><trkpt lat="44.9638002" lon="7.7762743"><ele>241.66666666666669</ele><time>2026-04-18T07:32:23.019Z</time></trkpt><trkpt lat="44.9637346" lon="7.7763759"><ele>241.33333333333334</ele><time>2026-04-18T07:32:24.019Z</time></trkpt><trkpt lat="44.9636694" lon="7.7764746"><ele>241.0</ele><time>2026-04-18T07:32:25.018Z</time></trkpt><trkpt lat="44.9636058" lon="7.7765676"><ele>240.66666666666669</ele><time>2026-04-18T07:32:26.018Z</time></trkpt><trkpt lat="44.963548" lon="7.7766547"><ele>240.33333333333334</ele><time>2026-04-18T07:32:27.018Z</time></trkpt><trkpt lat="44.9634971" lon="7.7767311"><ele>240.0</ele><time>2026-04-18T07:32:28.019Z</time></trkpt><trkpt lat="44.9634329" lon="7.7768167"><ele>239.85714285714286</ele><time>2026-04-18T07:32:30.018Z</time></trkpt><trkpt lat="44.9633845" lon="7.7768781"><ele>239.71428571428572</ele><time>2026-04-18T07:32:32.018Z</time></trkpt><trkpt lat="44.963312" lon="7.7769626"><ele>239.57142857142858</ele><time>2026-04-18T07:32:35.019Z</time></trkpt><trkpt lat="44.9632617" lon="7.7770287"><ele>239.42857142857144</ele><time>2026-04-18T07:32:38.019Z</time></trkpt><trkpt lat="44.9632062" lon="7.7771035"><ele>239.28571428571428</ele><time>2026-04-18T07:32:46.018Z</time></trkpt><trkpt lat="44.9631543" lon="7.7771789"><ele>239.14285714285717</ele><time>2026-04-18T07:32:49.019Z</time></trkpt><trkpt lat="44.9631052" lon="7.777235"><ele>239.00000000000003</ele><time>2026-04-18T07:32:52.019Z</time></trkpt><trkpt lat="44.9630534" lon="7.7772931"><ele>239.0</ele><time>2026-04-18T07:32:54.018Z</time></trkpt><trkpt lat="44.9629497" lon="7.7773559"><ele>238.99999999999997</ele><time>2026-04-18T07:32:56.019Z</time></trkpt><trkpt lat="44.962861" lon="7.7774523"><ele>238.99999999999997</ele><time>2026-04-18T07:32:58.018Z</time></trkpt><trkpt lat="44.9628232" lon="7.7775887"><ele>239.0</ele><time>2026-04-18T07:33:00.019Z</time></trkpt><trkpt lat="44.9627919" lon="7.7777248"><ele>239.0</ele><time>2026-04-18T07:33:02.019Z</time></trkpt><trkpt lat="44.9627253" lon="7.7778833"><ele>239.2</ele><time>2026-04-18T07:33:04.018Z</time></trkpt><trkpt lat="44.9626739" lon="7.7779782"><ele>239.39999999999998</ele><time>2026-04-18T07:33:05.019Z</time></trkpt><trkpt lat="44.9626122" lon="7.7780809"><ele>239.6</ele><time>2026-04-18T07:33:06.019Z</time></trkpt><trkpt lat="44.9625474" lon="7.7781822"><ele>239.8</ele><time>2026-04-18T07:33:07.019Z</time></trkpt><trkpt lat="44.9624772" lon="7.7782921"><ele>240.0</ele><time>2026-04-18T07:33:08.019Z</time></trkpt><trkpt lat="44.9624018" lon="7.7784084"><ele>240.0</ele><time>2026-04-18T07:33:09.018Z</time></trkpt><trkpt lat="44.9623203" lon="7.7785317"><ele>240.0</ele><time>2026-04-18T07:33:10.019Z</time></trkpt><trkpt lat="44.962234" lon="7.7786583"><ele>240.0</ele><time>2026-04-18T07:33:11.019Z</time></trkpt><trkpt lat="44.9621428" lon="7.7787936"><ele>240.0</ele><time>2026-04-18T07:33:12.019Z</time></trkpt><trkpt lat="44.9620508" lon="7.7789302"><ele>240.0</ele><time>2026-04-18T07:33:13.019Z</time></trkpt><trkpt lat="44.961957" lon="7.779072"><ele>240.0</ele><time>2026-04-18T07:33:14.019Z</time></trkpt><trkpt lat="44.9618646" lon="7.7792174"><ele>240.0</ele><time>2026-04-18T07:33:15.019Z</time></trkpt><trkpt lat="44.9617686" lon="7.7793601"><ele>240.0</ele><time>2026-04-18T07:33:16.018Z</time></trkpt><trkpt lat="44.9616703" lon="7.7795082"><ele>240.33333333333331</ele><time>2026-04-18T07:33:17.018Z</time></trkpt><trkpt lat="44.9615687" lon="7.7796614"><ele>240.66666666666666</ele><time>2026-04-18T07:33:18.019Z</time></trkpt><trkpt lat="44.9614648" lon="7.7798161"><ele>241.0</ele><time>2026-04-18T07:33:19.019Z</time></trkpt><trkpt lat="44.9613609" lon="7.7799697"><ele>241.0</ele><time>2026-04-18T07:33:20.018Z</time></trkpt><trkpt lat="44.961258" lon="7.7801305"><ele>241.0</ele><time>2026-04-18T07:33:21.018Z</time></trkpt><trkpt lat="44.9611515" lon="7.7802927"><ele>241.0</ele><time>2026-04-18T07:33:22.019Z</time></trkpt><trkpt lat="44.9610467" lon="7.7804574"><ele>241.0</ele><time>2026-04-18T07:33:23.018Z</time></trkpt><trkpt lat="44.9609361" lon="7.7806248"><ele>241.0</ele><time>2026-04-18T07:33:24.019Z</time></trkpt><trkpt lat="44.9608281" lon="7.7807914"><ele>241.0</ele><time>2026-04-18T07:33:25.019Z</time></trkpt><trkpt lat="44.9607228" lon="7.7809552"><ele>241.33333333333331</ele><time>2026-04-18T07:33:26.019Z</time></trkpt><trkpt lat="44.960618" lon="7.7811184"><ele>241.66666666666669</ele><time>2026-04-18T07:33:27.019Z</time></trkpt><trkpt lat="44.9605115" lon="7.7812804"><ele>242.0</ele><time>2026-04-18T07:33:28.019Z</time></trkpt><trkpt lat="44.9604056" lon="7.7814421"><ele>242.0</ele><time>2026-04-18T07:33:29.018Z</time></trkpt><trkpt lat="44.9602986" lon="7.7816028"><ele>242.0</ele><time>2026-04-18T07:33:30.018Z</time></trkpt><trkpt lat="44.9601905" lon="7.7817681"><ele>242.0</ele><time>2026-04-18T07:33:31.018Z</time></trkpt><trkpt lat="44.9600829" lon="7.7819367"><ele>242.33333333333334</ele><time>2026-04-18T07:33:32.019Z</time></trkpt><trkpt lat="44.9599746" lon="7.7821015"><ele>242.66666666666669</ele><time>2026-04-18T07:33:33.019Z</time></trkpt><trkpt lat="44.9598729" lon="7.78226"><ele>243.0</ele><time>2026-04-18T07:33:34.019Z</time></trkpt><trkpt lat="44.9597713" lon="7.7824151"><ele>243.0</ele><time>2026-04-18T07:33:35.019Z</time></trkpt><trkpt lat="44.9596708" lon="7.7825665"><ele>243.0</ele><time>2026-04-18T07:33:36.019Z</time></trkpt><trkpt lat="44.9595692" lon="7.7827181"><ele>243.0</ele><time>2026-04-18T07:33:37.018Z</time></trkpt><trkpt lat="44.9594643" lon="7.7828783"><ele>243.0</ele><time>2026-04-18T07:33:38.018Z</time></trkpt><trkpt lat="44.9593634" lon="7.7830397"><ele>242.66666666666669</ele><time>2026-04-18T07:33:39.019Z</time></trkpt><trkpt lat="44.9592618" lon="7.7832041"><ele>242.33333333333334</ele><time>2026-04-18T07:33:40.019Z</time></trkpt><trkpt lat="44.9591589" lon="7.7833675"><ele>242.0</ele><time>2026-04-18T07:33:41.019Z</time></trkpt><trkpt lat="44.9590559" lon="7.7835277"><ele>242.66666666666669</ele><time>2026-04-18T07:33:42.019Z</time></trkpt><trkpt lat="44.9589536" lon="7.7836872"><ele>243.33333333333331</ele><time>2026-04-18T07:33:43.019Z</time></trkpt><trkpt lat="44.9588504" lon="7.7838456"><ele>244.0</ele><time>2026-04-18T07:33:44.019Z</time></trkpt><trkpt lat="44.9587488" lon="7.7840022"><ele>244.0</ele><time>2026-04-18T07:33:45.018Z</time></trkpt><trkpt lat="44.9586495" lon="7.7841571"><ele>244.0</ele><time>2026-04-18T07:33:46.018Z</time></trkpt><trkpt lat="44.9585491" lon="7.7843138"><ele>244.0</ele><time>2026-04-18T07:33:47.019Z</time></trkpt><trkpt lat="44.9584478" lon="7.7844707"><ele>244.0</ele><time>2026-04-18T07:33:48.019Z</time></trkpt><trkpt lat="44.9583459" lon="7.7846291"><ele>244.75</ele><time>2026-04-18T07:33:49.019Z</time></trkpt><trkpt lat="44.958247" lon="7.7847821"><ele>245.5</ele><time>2026-04-18T07:33:50.018Z</time></trkpt><trkpt lat="44.95815" lon="7.7849399"><ele>246.25</ele><time>2026-04-18T07:33:51.019Z</time></trkpt><trkpt lat="44.9580523" lon="7.7851015"><ele>247.0</ele><time>2026-04-18T07:33:52.019Z</time></trkpt><trkpt lat="44.9579553" lon="7.7852744"><ele>248.0</ele><time>2026-04-18T07:33:53.018Z</time></trkpt><trkpt lat="44.9578613" lon="7.7854512"><ele>249.0</ele><time>2026-04-18T07:33:54.019Z</time></trkpt><trkpt lat="44.9577695" lon="7.7856252"><ele>250.0</ele><time>2026-04-18T07:33:55.018Z</time></trkpt><trkpt lat="44.9576811" lon="7.7857983"><ele>250.0</ele><time>2026-04-18T07:33:56.018Z</time></trkpt><trkpt lat="44.9575939" lon="7.7859697"><ele>250.0</ele><time>2026-04-18T07:33:57.018Z</time></trkpt><trkpt lat="44.9575114" lon="7.7861338"><ele>250.0</ele><time>2026-04-18T07:33:58.018Z</time></trkpt><trkpt lat="44.9574323" lon="7.7862924"><ele>250.0</ele><time>2026-04-18T07:33:59.019Z</time></trkpt><trkpt lat="44.9573584" lon="7.7864441"><ele>250.0</ele><time>2026-04-18T07:34:00.019Z</time></trkpt><trkpt lat="44.9572892" lon="7.7865877"><ele>250.0</ele><time>2026-04-18T07:34:01.018Z</time></trkpt><trkpt lat="44.957227" lon="7.7867187"><ele>250.0</ele><time>2026-04-18T07:34:02.018Z</time></trkpt><trkpt lat="44.95717" lon="7.7868392"><ele>250.0</ele><time>2026-04-18T07:34:03.018Z</time></trkpt><trkpt lat="44.9571219" lon="7.7869423"><ele>250.0</ele><time>2026-04-18T07:34:04.018Z</time></trkpt><trkpt lat="44.9570836" lon="7.7870287"><ele>250.0</ele><time>2026-04-18T07:34:05.019Z</time></trkpt><trkpt lat="44.9570516" lon="7.7871079"><ele>250.0</ele><time>2026-04-18T07:34:06.019Z</time></trkpt><trkpt lat="44.9569805" lon="7.7872354"><ele>250.0</ele><time>2026-04-18T07:34:08.019Z</time></trkpt><trkpt lat="44.9568722" lon="7.7872688"><ele>250.0</ele><time>2026-04-18T07:34:10.019Z</time></trkpt><trkpt lat="44.9568103" lon="7.787286"><ele>250.0</ele><time>2026-04-18T07:34:11.019Z</time></trkpt><trkpt lat="44.9567148" lon="7.7873879"><ele>249.75</ele><time>2026-04-18T07:34:13.019Z</time></trkpt><trkpt lat="44.9566635" lon="7.7875667"><ele>249.5</ele><time>2026-04-18T07:34:15.018Z</time></trkpt><trkpt lat="44.9566387" lon="7.7876946"><ele>249.25</ele><time>2026-04-18T07:34:16.018Z</time></trkpt><trkpt lat="44.9565966" lon="7.7878447"><ele>249.0</ele><time>2026-04-18T07:34:17.018Z</time></trkpt><trkpt lat="44.9565409" lon="7.7880116"><ele>249.0</ele><time>2026-04-18T07:34:18.018Z</time></trkpt><trkpt lat="44.9564782" lon="7.7881886"><ele>249.0</ele><time>2026-04-18T07:34:19.019Z</time></trkpt><trkpt lat="44.9564068" lon="7.7883662"><ele>249.0</ele><time>2026-04-18T07:34:20.019Z</time></trkpt><trkpt lat="44.9563348" lon="7.7885304"><ele>249.0</ele><time>2026-04-18T07:34:21.019Z</time></trkpt><trkpt lat="44.9562629" lon="7.788688"><ele>249.5</ele><time>2026-04-18T07:34:22.019Z</time></trkpt><trkpt lat="44.9561893" lon="7.7888374"><ele>250.0</ele><time>2026-04-18T07:34:23.019Z</time></trkpt><trkpt lat="44.9561126" lon="7.7889851"><ele>250.5</ele><time>2026-04-18T07:34:24.018Z</time></trkpt><trkpt lat="44.9560337" lon="7.7891428"><ele>251.0</ele><time>2026-04-18T07:34:25.018Z</time></trkpt><trkpt lat="44.9559552" lon="7.7893007"><ele>251.25</ele><time>2026-04-18T07:34:26.018Z</time></trkpt><trkpt lat="44.9558772" lon="7.7894605"><ele>251.5</ele><time>2026-04-18T07:34:27.019Z</time></trkpt><trkpt lat="44.955799" lon="7.7896198"><ele>251.75</ele><time>2026-04-18T07:34:28.019Z</time></trkpt><trkpt lat="44.9557201" lon="7.7897792"><ele>252.0</ele><time>2026-04-18T07:34:29.018Z</time></trkpt><trkpt lat="44.9556389" lon="7.7899368"><ele>251.5</ele><time>2026-04-18T07:34:30.019Z</time></trkpt><trkpt lat="44.9555599" lon="7.7900915"><ele>251.0</ele><time>2026-04-18T07:34:31.018Z</time></trkpt><trkpt lat="44.9554849" lon="7.7902416"><ele>250.5</ele><time>2026-04-18T07:34:32.019Z</time></trkpt><trkpt lat="44.9554111" lon="7.7903902"><ele>250.0</ele><time>2026-04-18T07:34:33.018Z</time></trkpt><trkpt lat="44.9553394" lon="7.7905367"><ele>249.8</ele><time>2026-04-18T07:34:34.019Z</time></trkpt><trkpt lat="44.9552672" lon="7.7906798"><ele>249.6</ele><time>2026-04-18T07:34:35.019Z</time></trkpt><trkpt lat="44.9551993" lon="7.7908129"><ele>249.39999999999998</ele><time>2026-04-18T07:34:36.019Z</time></trkpt><trkpt lat="44.9551393" lon="7.7909331"><ele>249.2</ele><time>2026-04-18T07:34:37.019Z</time></trkpt><trkpt lat="44.9550844" lon="7.7910388"><ele>249.0</ele><time>2026-04-18T07:34:38.018Z</time></trkpt><trkpt lat="44.9550312" lon="7.7911328"><ele>249.5</ele><time>2026-04-18T07:34:39.018Z</time></trkpt><trkpt lat="44.9549728" lon="7.7912093"><ele>250.0</ele><time>2026-04-18T07:34:40.019Z</time></trkpt><trkpt lat="44.9549044" lon="7.7912551"><ele>250.5</ele><time>2026-04-18T07:34:41.019Z</time></trkpt><trkpt lat="44.9548376" lon="7.7912984"><ele>251.0</ele><time>2026-04-18T07:34:42.019Z</time></trkpt><trkpt lat="44.9547859" lon="7.7913729"><ele>251.5</ele><time>2026-04-18T07:34:43.019Z</time></trkpt><trkpt lat="44.9547524" lon="7.7914637"><ele>252.0</ele><time>2026-04-18T07:34:44.018Z</time></trkpt><trkpt lat="44.9547376" lon="7.7915687"><ele>252.0</ele><time>2026-04-18T07:34:45.019Z</time></trkpt><trkpt lat="44.9547255" lon="7.7916847"><ele>252.0</ele><time>2026-04-18T07:34:46.019Z</time></trkpt><trkpt lat="44.9546902" lon="7.7918073"><ele>252.0</ele><time>2026-04-18T07:34:47.019Z</time></trkpt><trkpt lat="44.9546305" lon="7.7919337"><ele>252.0</ele><time>2026-04-18T07:34:48.018Z</time></trkpt><trkpt lat="44.9545631" lon="7.7920653"><ele>252.0</ele><time>2026-04-18T07:34:49.018Z</time></trkpt><trkpt lat="44.9544917" lon="7.792205"><ele>252.0</ele><time>2026-04-18T07:34:50.019Z</time></trkpt><trkpt lat="44.9544205" lon="7.7923434"><ele>252.0</ele><time>2026-04-18T07:34:51.018Z</time></trkpt><trkpt lat="44.9543514" lon="7.7924816"><ele>252.0</ele><time>2026-04-18T07:34:52.019Z</time></trkpt><trkpt lat="44.9542823" lon="7.7926206"><ele>252.0</ele><time>2026-04-18T07:34:53.018Z</time></trkpt><trkpt lat="44.9542108" lon="7.7927637"><ele>252.25</ele><time>2026-04-18T07:34:54.018Z</time></trkpt><trkpt lat="44.9541367" lon="7.7929096"><ele>252.5</ele><time>2026-04-18T07:34:55.018Z</time></trkpt><trkpt lat="44.9540622" lon="7.7930587"><ele>252.75</ele><time>2026-04-18T07:34:56.018Z</time></trkpt><trkpt lat="44.9539865" lon="7.7932086"><ele>253.0</ele><time>2026-04-18T07:34:57.018Z</time></trkpt><trkpt lat="44.9539086" lon="7.793362"><ele>253.25</ele><time>2026-04-18T07:34:58.019Z</time></trkpt><trkpt lat="44.95383" lon="7.7935196"><ele>253.5</ele><time>2026-04-18T07:34:59.019Z</time></trkpt><trkpt lat="44.9537498" lon="7.7936807"><ele>253.75</ele><time>2026-04-18T07:35:00.018Z</time></trkpt><trkpt lat="44.9536674" lon="7.7938438"><ele>254.0</ele><time>2026-04-18T07:35:01.019Z</time></trkpt><trkpt lat="44.9535821" lon="7.7940095"><ele>254.0</ele><time>2026-04-18T07:35:02.019Z</time></trkpt><trkpt lat="44.9534963" lon="7.7941764"><ele>254.0</ele><time>2026-04-18T07:35:03.019Z</time></trkpt><trkpt lat="44.9534146" lon="7.7943383"><ele>254.0</ele><time>2026-04-18T07:35:04.019Z</time></trkpt><trkpt lat="44.9533315" lon="7.7945055"><ele>254.0</ele><time>2026-04-18T07:35:05.018Z</time></trkpt><trkpt lat="44.953246" lon="7.794675"><ele>253.66666666666669</ele><time>2026-04-18T07:35:06.019Z</time></trkpt><trkpt lat="44.9531594" lon="7.7948459"><ele>253.33333333333331</ele><time>2026-04-18T07:35:07.019Z</time></trkpt><trkpt lat="44.9530713" lon="7.7950203"><ele>253.0</ele><time>2026-04-18T07:35:08.019Z</time></trkpt><trkpt lat="44.9529824" lon="7.7951971"><ele>252.66666666666666</ele><time>2026-04-18T07:35:09.019Z</time></trkpt><trkpt lat="44.9528933" lon="7.7953746"><ele>252.33333333333331</ele><time>2026-04-18T07:35:10.019Z</time></trkpt><trkpt lat="44.9528052" lon="7.7955487"><ele>252.0</ele><time>2026-04-18T07:35:11.019Z</time></trkpt><trkpt lat="44.9527172" lon="7.7957228"><ele>252.0</ele><time>2026-04-18T07:35:12.019Z</time></trkpt><trkpt lat="44.9526281" lon="7.7958987"><ele>252.0</ele><time>2026-04-18T07:35:13.019Z</time></trkpt><trkpt lat="44.95254" lon="7.7960737"><ele>252.0</ele><time>2026-04-18T07:35:14.019Z</time></trkpt><trkpt lat="44.9524522" lon="7.7962483"><ele>252.33333333333331</ele><time>2026-04-18T07:35:15.018Z</time></trkpt><trkpt lat="44.9523634" lon="7.7964232"><ele>252.66666666666666</ele><time>2026-04-18T07:35:16.019Z</time></trkpt><trkpt lat="44.952273" lon="7.796599"><ele>253.0</ele><time>2026-04-18T07:35:17.019Z</time></trkpt><trkpt lat="44.9521821" lon="7.7967789"><ele>253.0</ele><time>2026-04-18T07:35:18.019Z</time></trkpt><trkpt lat="44.9520908" lon="7.7969607"><ele>253.0</ele><time>2026-04-18T07:35:19.018Z</time></trkpt><trkpt lat="44.952" lon="7.7971435"><ele>253.0</ele><time>2026-04-18T07:35:20.019Z</time></trkpt><trkpt lat="44.9519066" lon="7.797326"><ele>253.0</ele><time>2026-04-18T07:35:21.019Z</time></trkpt><trkpt lat="44.9518122" lon="7.7975107"><ele>253.0</ele><time>2026-04-18T07:35:22.018Z</time></trkpt><trkpt lat="44.951717" lon="7.7976987"><ele>253.0</ele><time>2026-04-18T07:35:23.019Z</time></trkpt><trkpt lat="44.9516199" lon="7.7978884"><ele>253.0</ele><time>2026-04-18T07:35:24.019Z</time></trkpt><trkpt lat="44.9515219" lon="7.7980805"><ele>253.0</ele><time>2026-04-18T07:35:25.018Z</time></trkpt><trkpt lat="44.9514242" lon="7.7982731"><ele>253.0</ele><time>2026-04-18T07:35:26.018Z</time></trkpt><trkpt lat="44.9513265" lon="7.7984663"><ele>253.33333333333331</ele><time>2026-04-18T07:35:27.018Z</time></trkpt><trkpt lat="44.9512291" lon="7.7986566"><ele>253.66666666666669</ele><time>2026-04-18T07:35:28.019Z</time></trkpt><trkpt lat="44.9511323" lon="7.798849"><ele>254.0</ele><time>2026-04-18T07:35:29.019Z</time></trkpt><trkpt lat="44.9510343" lon="7.7990425"><ele>254.0</ele><time>2026-04-18T07:35:30.019Z</time></trkpt><trkpt lat="44.950936" lon="7.7992353"><ele>254.0</ele><time>2026-04-18T07:35:31.018Z</time></trkpt><trkpt lat="44.9508361" lon="7.799431"><ele>254.0</ele><time>2026-04-18T07:35:32.018Z</time></trkpt><trkpt lat="44.9507379" lon="7.799625"><ele>254.0</ele><time>2026-04-18T07:35:33.019Z</time></trkpt><trkpt lat="44.950642" lon="7.7998205"><ele>254.0</ele><time>2026-04-18T07:35:34.019Z</time></trkpt><trkpt lat="44.9505455" lon="7.8000127"><ele>254.0</ele><time>2026-04-18T07:35:35.018Z</time></trkpt><trkpt lat="44.950448" lon="7.800203"><ele>253.66666666666669</ele><time>2026-04-18T07:35:36.018Z</time></trkpt><trkpt lat="44.9503533" lon="7.800395"><ele>253.33333333333331</ele><time>2026-04-18T07:35:37.019Z</time></trkpt><trkpt lat="44.9502549" lon="7.8005875"><ele>253.0</ele><time>2026-04-18T07:35:38.019Z</time></trkpt><trkpt lat="44.9501562" lon="7.8007815"><ele>253.0</ele><time>2026-04-18T07:35:39.019Z</time></trkpt><trkpt lat="44.9500556" lon="7.800977"><ele>253.0</ele><time>2026-04-18T07:35:40.018Z</time></trkpt><trkpt lat="44.9499529" lon="7.8011749"><ele>253.0</ele><time>2026-04-18T07:35:41.018Z</time></trkpt><trkpt lat="44.9498518" lon="7.8013761"><ele>251.66666666666666</ele><time>2026-04-18T07:35:42.019Z</time></trkpt><trkpt lat="44.9497497" lon="7.8015751"><ele>250.33333333333331</ele><time>2026-04-18T07:35:43.019Z</time></trkpt><trkpt lat="44.9496471" lon="7.8017753"><ele>249.0</ele><time>2026-04-18T07:35:44.019Z</time></trkpt><trkpt lat="44.9495443" lon="7.8019758"><ele>249.0</ele><time>2026-04-18T07:35:45.019Z</time></trkpt><trkpt lat="44.949443" lon="7.8021779"><ele>249.0</ele><time>2026-04-18T07:35:46.019Z</time></trkpt><trkpt lat="44.9493436" lon="7.802376"><ele>249.0</ele><time>2026-04-18T07:35:47.019Z</time></trkpt><trkpt lat="44.9492448" lon="7.8025715"><ele>249.66666666666669</ele><time>2026-04-18T07:35:48.018Z</time></trkpt><trkpt lat="44.949146" lon="7.8027682"><ele>250.33333333333334</ele><time>2026-04-18T07:35:49.018Z</time></trkpt><trkpt lat="44.9490468" lon="7.8029661"><ele>251.0</ele><time>2026-04-18T07:35:50.019Z</time></trkpt><trkpt lat="44.9489474" lon="7.8031625"><ele>251.0</ele><time>2026-04-18T07:35:51.019Z</time></trkpt><trkpt lat="44.9488488" lon="7.8033602"><ele>251.0</ele><time>2026-04-18T07:35:52.018Z</time></trkpt><trkpt lat="44.9487483" lon="7.8035559"><ele>251.0</ele><time>2026-04-18T07:35:53.019Z</time></trkpt><trkpt lat="44.9486489" lon="7.8037554"><ele>251.0</ele><time>2026-04-18T07:35:54.018Z</time></trkpt><trkpt lat="44.9485488" lon="7.8039506"><ele>251.0</ele><time>2026-04-18T07:35:55.019Z</time></trkpt><trkpt lat="44.9484486" lon="7.8041472"><ele>251.0</ele><time>2026-04-18T07:35:56.019Z</time></trkpt><trkpt lat="44.9483501" lon="7.8043423"><ele>251.0</ele><time>2026-04-18T07:35:57.019Z</time></trkpt><trkpt lat="44.9482502" lon="7.8045383"><ele>251.0</ele><time>2026-04-18T07:35:58.019Z</time></trkpt><trkpt lat="44.9481509" lon="7.8047322"><ele>251.0</ele><time>2026-04-18T07:35:59.018Z</time></trkpt><trkpt lat="44.9480525" lon="7.8049259"><ele>251.0</ele><time>2026-04-18T07:36:00.018Z</time></trkpt><trkpt lat="44.9479548" lon="7.8051211"><ele>251.0</ele><time>2026-04-18T07:36:01.019Z</time></trkpt><trkpt lat="44.9478569" lon="7.8053141"><ele>251.0</ele><time>2026-04-18T07:36:02.019Z</time></trkpt><trkpt lat="44.9477562" lon="7.8055105"><ele>251.33333333333334</ele><time>2026-04-18T07:36:03.018Z</time></trkpt><trkpt lat="44.9476567" lon="7.805706"><ele>251.66666666666669</ele><time>2026-04-18T07:36:04.018Z</time></trkpt><trkpt lat="44.9475573" lon="7.8059007"><ele>252.0</ele><time>2026-04-18T07:36:05.019Z</time></trkpt><trkpt lat="44.9474574" lon="7.8060973"><ele>251.0</ele><time>2026-04-18T07:36:06.019Z</time></trkpt><trkpt lat="44.9473532" lon="7.8063022"><ele>250.0</ele><time>2026-04-18T07:36:07.019Z</time></trkpt><trkpt lat="44.9472458" lon="7.8065113"><ele>249.0</ele><time>2026-04-18T07:36:08.018Z</time></trkpt><trkpt lat="44.9471399" lon="7.8067195"><ele>249.0</ele><time>2026-04-18T07:36:09.019Z</time></trkpt><trkpt lat="44.947036" lon="7.8069243"><ele>249.0</ele><time>2026-04-18T07:36:10.019Z</time></trkpt><trkpt lat="44.946934" lon="7.8071307"><ele>249.0</ele><time>2026-04-18T07:36:11.018Z</time></trkpt><trkpt lat="44.9468324" lon="7.8073383"><ele>249.0</ele><time>2026-04-18T07:36:12.019Z</time></trkpt><trkpt lat="44.9467298" lon="7.8075446"><ele>249.0</ele><time>2026-04-18T07:36:13.019Z</time></trkpt><trkpt lat="44.9466278" lon="7.8077489"><ele>249.0</ele><time>2026-04-18T07:36:14.018Z</time></trkpt><trkpt lat="44.9465278" lon="7.8079489"><ele>249.0</ele><time>2026-04-18T07:36:15.019Z</time></trkpt><trkpt lat="44.9464278" lon="7.8081485"><ele>249.0</ele><time>2026-04-18T07:36:16.019Z</time></trkpt><trkpt lat="44.9463278" lon="7.808347"><ele>249.0</ele><time>2026-04-18T07:36:17.019Z</time></trkpt><trkpt lat="44.9462292" lon="7.8085446"><ele>249.0</ele><time>2026-04-18T07:36:18.019Z</time></trkpt><trkpt lat="44.9461313" lon="7.8087401"><ele>249.0</ele><time>2026-04-18T07:36:19.018Z</time></trkpt><trkpt lat="44.9460306" lon="7.8089376"><ele>249.0</ele><time>2026-04-18T07:36:20.018Z</time></trkpt><trkpt lat="44.94593" lon="7.809132"><ele>248.66666666666669</ele><time>2026-04-18T07:36:21.018Z</time></trkpt><trkpt lat="44.9458347" lon="7.8093185"><ele>248.33333333333334</ele><time>2026-04-18T07:36:22.019Z</time></trkpt><trkpt lat="44.9457443" lon="7.8094955"><ele>248.0</ele><time>2026-04-18T07:36:23.018Z</time></trkpt><trkpt lat="44.9456597" lon="7.8096636"><ele>248.0</ele><time>2026-04-18T07:36:24.019Z</time></trkpt><trkpt lat="44.9455797" lon="7.8098192"><ele>248.0</ele><time>2026-04-18T07:36:25.019Z</time></trkpt><trkpt lat="44.9455012" lon="7.8099638"><ele>248.0</ele><time>2026-04-18T07:36:26.019Z</time></trkpt><trkpt lat="44.9454292" lon="7.8101027"><ele>248.0</ele><time>2026-04-18T07:36:27.018Z</time></trkpt><trkpt lat="44.9453562" lon="7.8102423"><ele>248.25</ele><time>2026-04-18T07:36:28.019Z</time></trkpt><trkpt lat="44.9452838" lon="7.8103871"><ele>248.5</ele><time>2026-04-18T07:36:29.019Z</time></trkpt><trkpt lat="44.9452086" lon="7.8105369"><ele>248.75</ele><time>2026-04-18T07:36:30.018Z</time></trkpt><trkpt lat="44.9451336" lon="7.8106886"><ele>249.0</ele><time>2026-04-18T07:36:31.018Z</time></trkpt><trkpt lat="44.9450591" lon="7.8108394"><ele>249.0</ele><time>2026-04-18T07:36:32.018Z</time></trkpt><trkpt lat="44.9449851" lon="7.8109903"><ele>249.0</ele><time>2026-04-18T07:36:33.019Z</time></trkpt><trkpt lat="44.9449127" lon="7.8111329"><ele>249.0</ele><time>2026-04-18T07:36:34.019Z</time></trkpt><trkpt lat="44.9448473" lon="7.8112622"><ele>249.0</ele><time>2026-04-18T07:36:35.019Z</time></trkpt><trkpt lat="44.9447875" lon="7.8113836"><ele>249.0</ele><time>2026-04-18T07:36:36.019Z</time></trkpt><trkpt lat="44.9447297" lon="7.8114994"><ele>248.99999999999997</ele><time>2026-04-18T07:36:37.019Z</time></trkpt><trkpt lat="44.9446715" lon="7.8116156"><ele>248.99999999999997</ele><time>2026-04-18T07:36:38.019Z</time></trkpt><trkpt lat="44.9446122" lon="7.8117356"><ele>249.0</ele><time>2026-04-18T07:36:39.018Z</time></trkpt><trkpt lat="44.9445519" lon="7.811858"><ele>249.0</ele><time>2026-04-18T07:36:40.018Z</time></trkpt><trkpt lat="44.9444887" lon="7.811984"><ele>248.75</ele><time>2026-04-18T07:36:41.019Z</time></trkpt><trkpt lat="44.9444236" lon="7.8121138"><ele>248.5</ele><time>2026-04-18T07:36:42.018Z</time></trkpt><trkpt lat="44.9443559" lon="7.8122481"><ele>248.25</ele><time>2026-04-18T07:36:43.019Z</time></trkpt><trkpt lat="44.9442879" lon="7.8123839"><ele>248.0</ele><time>2026-04-18T07:36:44.019Z</time></trkpt><trkpt lat="44.9442176" lon="7.8125202"><ele>248.25</ele><time>2026-04-18T07:36:45.019Z</time></trkpt><trkpt lat="44.9441444" lon="7.8126613"><ele>248.5</ele><time>2026-04-18T07:36:46.018Z</time></trkpt><trkpt lat="44.9440693" lon="7.8128071"><ele>248.75</ele><time>2026-04-18T07:36:47.019Z</time></trkpt><trkpt lat="44.9439974" lon="7.8129528"><ele>249.0</ele><time>2026-04-18T07:36:48.019Z</time></trkpt><trkpt lat="44.9439247" lon="7.8130939"><ele>249.0</ele><time>2026-04-18T07:36:49.018Z</time></trkpt><trkpt lat="44.9438562" lon="7.8132321"><ele>248.99999999999997</ele><time>2026-04-18T07:36:50.019Z</time></trkpt><trkpt lat="44.943791" lon="7.8133572"><ele>248.99999999999997</ele><time>2026-04-18T07:36:51.018Z</time></trkpt><trkpt lat="44.9437292" lon="7.8134808"><ele>249.0</ele><time>2026-04-18T07:36:52.019Z</time></trkpt><trkpt lat="44.9436701" lon="7.813596"><ele>249.0</ele><time>2026-04-18T07:36:53.019Z</time></trkpt><trkpt lat="44.9436159" lon="7.8137051"><ele>248.79999999999998</ele><time>2026-04-18T07:36:54.018Z</time></trkpt><trkpt lat="44.9435589" lon="7.8138113"><ele>248.59999999999997</ele><time>2026-04-18T07:36:55.019Z</time></trkpt><trkpt lat="44.9435023" lon="7.8139197"><ele>248.4</ele><time>2026-04-18T07:36:56.018Z</time></trkpt><trkpt lat="44.9434451" lon="7.8140355"><ele>248.2</ele><time>2026-04-18T07:36:57.019Z</time></trkpt><trkpt lat="44.9433866" lon="7.8141544"><ele>248.0</ele><time>2026-04-18T07:36:58.018Z</time></trkpt><trkpt lat="44.943326" lon="7.8142731"><ele>247.83333333333334</ele><time>2026-04-18T07:36:59.019Z</time></trkpt><trkpt lat="44.9432717" lon="7.8143796"><ele>247.66666666666669</ele><time>2026-04-18T07:37:00.019Z</time></trkpt><trkpt lat="44.9432266" lon="7.8144672"><ele>247.5</ele><time>2026-04-18T07:37:01.019Z</time></trkpt><trkpt lat="44.9431744" lon="7.814561"><ele>247.33333333333331</ele><time>2026-04-18T07:37:03.018Z</time></trkpt><trkpt lat="44.943132" lon="7.8146441"><ele>247.16666666666666</ele><time>2026-04-18T07:38:06.019Z</time></trkpt><trkpt lat="44.9430703" lon="7.8147717"><ele>247.0</ele><time>2026-04-18T07:38:09.019Z</time></trkpt><trkpt lat="44.9430043" lon="7.8149003"><ele>246.99999999999997</ele><time>2026-04-18T07:38:11.018Z</time></trkpt><trkpt lat="44.9429676" lon="7.8149727"><ele>247.0</ele><time>2026-04-18T07:38:12.019Z</time></trkpt><trkpt lat="44.942924" lon="7.8150605"><ele>247.0</ele><time>2026-04-18T07:38:13.019Z</time></trkpt><trkpt lat="44.9428716" lon="7.8151643"><ele>247.0</ele><time>2026-04-18T07:38:14.018Z</time></trkpt><trkpt lat="44.9428208" lon="7.8152675"><ele>246.99999999999997</ele><time>2026-04-18T07:38:15.019Z</time></trkpt><trkpt lat="44.942765" lon="7.815376"><ele>247.0</ele><time>2026-04-18T07:38:16.019Z</time></trkpt><trkpt lat="44.9427055" lon="7.8154932"><ele>246.75</ele><time>2026-04-18T07:38:17.018Z</time></trkpt><trkpt lat="44.9426422" lon="7.8156183"><ele>246.5</ele><time>2026-04-18T07:38:18.019Z</time></trkpt><trkpt lat="44.9425742" lon="7.8157517"><ele>246.25</ele><time>2026-04-18T07:38:19.019Z</time></trkpt><trkpt lat="44.942505" lon="7.8158815"><ele>246.0</ele><time>2026-04-18T07:38:20.018Z</time></trkpt><trkpt lat="44.9424365" lon="7.8160192"><ele>245.5</ele><time>2026-04-18T07:38:21.019Z</time></trkpt><trkpt lat="44.9423644" lon="7.816166"><ele>245.0</ele><time>2026-04-18T07:38:22.018Z</time></trkpt><trkpt lat="44.9422873" lon="7.8163204"><ele>244.5</ele><time>2026-04-18T07:38:23.018Z</time></trkpt><trkpt lat="44.9422057" lon="7.8164835"><ele>244.0</ele><time>2026-04-18T07:38:24.018Z</time></trkpt><trkpt lat="44.9421253" lon="7.8166443"><ele>244.0</ele><time>2026-04-18T07:38:25.018Z</time></trkpt><trkpt lat="44.9420441" lon="7.816805"><ele>244.0</ele><time>2026-04-18T07:38:26.019Z</time></trkpt><trkpt lat="44.9419632" lon="7.8169658"><ele>244.0</ele><time>2026-04-18T07:38:27.018Z</time></trkpt><trkpt lat="44.9418828" lon="7.8171257"><ele>244.0</ele><time>2026-04-18T07:38:28.019Z</time></trkpt><trkpt lat="44.9418025" lon="7.8172853"><ele>244.0</ele><time>2026-04-18T07:38:29.019Z</time></trkpt><trkpt lat="44.941723" lon="7.8174432"><ele>244.0</ele><time>2026-04-18T07:38:30.019Z</time></trkpt><trkpt lat="44.9416461" lon="7.8175985"><ele>244.0</ele><time>2026-04-18T07:38:31.019Z</time></trkpt><trkpt lat="44.941571" lon="7.8177487"><ele>244.0</ele><time>2026-04-18T07:38:32.019Z</time></trkpt><trkpt lat="44.941499" lon="7.8178906"><ele>244.0</ele><time>2026-04-18T07:38:33.019Z</time></trkpt><trkpt lat="44.9414257" lon="7.8180391"><ele>244.0</ele><time>2026-04-18T07:38:34.019Z</time></trkpt><trkpt lat="44.9413523" lon="7.8181861"><ele>244.0</ele><time>2026-04-18T07:38:35.019Z</time></trkpt><trkpt lat="44.9412781" lon="7.8183324"><ele>244.0</ele><time>2026-04-18T07:38:36.019Z</time></trkpt><trkpt lat="44.941203" lon="7.8184805"><ele>244.25</ele><time>2026-04-18T07:38:37.018Z</time></trkpt><trkpt lat="44.9411308" lon="7.8186235"><ele>244.5</ele><time>2026-04-18T07:38:38.018Z</time></trkpt><trkpt lat="44.9410606" lon="7.8187666"><ele>244.75</ele><time>2026-04-18T07:38:39.018Z</time></trkpt><trkpt lat="44.9409886" lon="7.8189039"><ele>245.0</ele><time>2026-04-18T07:38:40.019Z</time></trkpt><trkpt lat="44.9409175" lon="7.8190408"><ele>245.0</ele><time>2026-04-18T07:38:41.019Z</time></trkpt><trkpt lat="44.9408464" lon="7.8191767"><ele>245.0</ele><time>2026-04-18T07:38:42.018Z</time></trkpt><trkpt lat="44.9407763" lon="7.8193107"><ele>245.0</ele><time>2026-04-18T07:38:43.019Z</time></trkpt><trkpt lat="44.9407072" lon="7.8194496"><ele>245.0</ele><time>2026-04-18T07:38:44.018Z</time></trkpt><trkpt lat="44.940637" lon="7.8195914"><ele>245.0</ele><time>2026-04-18T07:38:45.018Z</time></trkpt><trkpt lat="44.9405651" lon="7.8197321"><ele>245.0</ele><time>2026-04-18T07:38:46.019Z</time></trkpt><trkpt lat="44.9404927" lon="7.8198727"><ele>245.0</ele><time>2026-04-18T07:38:47.019Z</time></trkpt><trkpt lat="44.9404215" lon="7.8200164"><ele>245.0</ele><time>2026-04-18T07:38:48.018Z</time></trkpt><trkpt lat="44.9403506" lon="7.8201547"><ele>245.0</ele><time>2026-04-18T07:38:49.018Z</time></trkpt><trkpt lat="44.9402783" lon="7.8202942"><ele>245.0</ele><time>2026-04-18T07:38:50.018Z</time></trkpt><trkpt lat="44.9402039" lon="7.8204352"><ele>245.0</ele><time>2026-04-18T07:38:51.019Z</time></trkpt><trkpt lat="44.9401276" lon="7.8205841"><ele>245.0</ele><time>2026-04-18T07:38:52.019Z</time></trkpt><trkpt lat="44.9400486" lon="7.8207399"><ele>245.0</ele><time>2026-04-18T07:38:53.019Z</time></trkpt><trkpt lat="44.9399703" lon="7.8208957"><ele>245.0</ele><time>2026-04-18T07:38:54.018Z</time></trkpt><trkpt lat="44.9398919" lon="7.8210571"><ele>245.0</ele><time>2026-04-18T07:38:55.019Z</time></trkpt><trkpt lat="44.9398109" lon="7.8212149"><ele>245.0</ele><time>2026-04-18T07:38:56.018Z</time></trkpt><trkpt lat="44.9397327" lon="7.82137"><ele>245.0</ele><time>2026-04-18T07:38:57.019Z</time></trkpt><trkpt lat="44.9396541" lon="7.8215257"><ele>245.0</ele><time>2026-04-18T07:38:58.018Z</time></trkpt><trkpt lat="44.9395766" lon="7.8216792"><ele>245.0</ele><time>2026-04-18T07:38:59.019Z</time></trkpt><trkpt lat="44.9394986" lon="7.8218327"><ele>245.0</ele><time>2026-04-18T07:39:00.018Z</time></trkpt><trkpt lat="44.9394215" lon="7.8219857"><ele>245.25</ele><time>2026-04-18T07:39:01.019Z</time></trkpt><trkpt lat="44.9393426" lon="7.8221378"><ele>245.5</ele><time>2026-04-18T07:39:02.019Z</time></trkpt><trkpt lat="44.939265" lon="7.8222936"><ele>245.75</ele><time>2026-04-18T07:39:03.019Z</time></trkpt><trkpt lat="44.9391871" lon="7.8224524"><ele>246.0</ele><time>2026-04-18T07:39:04.019Z</time></trkpt><trkpt lat="44.93911" lon="7.8226071"><ele>246.0</ele><time>2026-04-18T07:39:05.018Z</time></trkpt><trkpt lat="44.9390313" lon="7.8227623"><ele>246.0</ele><time>2026-04-18T07:39:06.019Z</time></trkpt><trkpt lat="44.9389518" lon="7.8229174"><ele>246.0</ele><time>2026-04-18T07:39:07.019Z</time></trkpt><trkpt lat="44.9388715" lon="7.8230738"><ele>246.0</ele><time>2026-04-18T07:39:08.018Z</time></trkpt><trkpt lat="44.9387939" lon="7.823228"><ele>246.0</ele><time>2026-04-18T07:39:09.019Z</time></trkpt><trkpt lat="44.9387166" lon="7.8233796"><ele>246.0</ele><time>2026-04-18T07:39:10.019Z</time></trkpt><trkpt lat="44.9386401" lon="7.8235284"><ele>246.0</ele><time>2026-04-18T07:39:11.019Z</time></trkpt><trkpt lat="44.9385646" lon="7.8236808"><ele>246.0</ele><time>2026-04-18T07:39:12.019Z</time></trkpt><trkpt lat="44.9384883" lon="7.8238329"><ele>246.25</ele><time>2026-04-18T07:39:13.018Z</time></trkpt><trkpt lat="44.938411" lon="7.8239866"><ele>246.5</ele><time>2026-04-18T07:39:14.018Z</time></trkpt><trkpt lat="44.9383328" lon="7.8241411"><ele>246.75</ele><time>2026-04-18T07:39:15.019Z</time></trkpt><trkpt lat="44.9382543" lon="7.8242975"><ele>247.0</ele><time>2026-04-18T07:39:16.019Z</time></trkpt><trkpt lat="44.9381741" lon="7.8244538"><ele>246.5</ele><time>2026-04-18T07:39:17.019Z</time></trkpt><trkpt lat="44.9380956" lon="7.8246114"><ele>246.0</ele><time>2026-04-18T07:39:18.018Z</time></trkpt><trkpt lat="44.9380176" lon="7.8247706"><ele>245.5</ele><time>2026-04-18T07:39:19.019Z</time></trkpt><trkpt lat="44.9379381" lon="7.8249274"><ele>245.0</ele><time>2026-04-18T07:39:20.018Z</time></trkpt><trkpt lat="44.9378572" lon="7.8250862"><ele>245.0</ele><time>2026-04-18T07:39:21.018Z</time></trkpt><trkpt lat="44.9377752" lon="7.8252447"><ele>245.0</ele><time>2026-04-18T07:39:22.019Z</time></trkpt><trkpt lat="44.9376941" lon="7.8254004"><ele>245.0</ele><time>2026-04-18T07:39:23.019Z</time></trkpt><trkpt lat="44.9376128" lon="7.8255592"><ele>245.0</ele><time>2026-04-18T07:39:24.018Z</time></trkpt><trkpt lat="44.9375297" lon="7.8257266"><ele>244.0</ele><time>2026-04-18T07:39:25.018Z</time></trkpt><trkpt lat="44.9374417" lon="7.8259011"><ele>243.0</ele><time>2026-04-18T07:39:26.019Z</time></trkpt><trkpt lat="44.9373512" lon="7.8260801"><ele>242.0</ele><time>2026-04-18T07:39:27.019Z</time></trkpt><trkpt lat="44.9372592" lon="7.8262568"><ele>241.33333333333334</ele><time>2026-04-18T07:39:28.019Z</time></trkpt><trkpt lat="44.937163" lon="7.8264306"><ele>240.66666666666669</ele><time>2026-04-18T07:39:29.019Z</time></trkpt><trkpt lat="44.9370591" lon="7.826609"><ele>240.0</ele><time>2026-04-18T07:39:30.018Z</time></trkpt><trkpt lat="44.9369534" lon="7.8267777"><ele>239.66666666666669</ele><time>2026-04-18T07:39:31.019Z</time></trkpt><trkpt lat="44.936846" lon="7.8269375"><ele>239.33333333333334</ele><time>2026-04-18T07:39:32.019Z</time></trkpt><trkpt lat="44.9367356" lon="7.8270907"><ele>239.0</ele><time>2026-04-18T07:39:33.018Z</time></trkpt><trkpt lat="44.9366202" lon="7.8272417"><ele>239.0</ele><time>2026-04-18T07:39:34.019Z</time></trkpt><trkpt lat="44.9364992" lon="7.8273939"><ele>239.0</ele><time>2026-04-18T07:39:35.018Z</time></trkpt><trkpt lat="44.9363731" lon="7.8275469"><ele>239.0</ele><time>2026-04-18T07:39:36.019Z</time></trkpt><trkpt lat="44.9362434" lon="7.8276988"><ele>239.0</ele><time>2026-04-18T07:39:37.018Z</time></trkpt><trkpt lat="44.9361135" lon="7.82785"><ele>239.0</ele><time>2026-04-18T07:39:38.019Z</time></trkpt><trkpt lat="44.9359804" lon="7.8280057"><ele>239.0</ele><time>2026-04-18T07:39:39.018Z</time></trkpt><trkpt lat="44.9358469" lon="7.8281594"><ele>238.66666666666669</ele><time>2026-04-18T07:39:40.018Z</time></trkpt><trkpt lat="44.9357134" lon="7.8283124"><ele>238.33333333333331</ele><time>2026-04-18T07:39:41.018Z</time></trkpt><trkpt lat="44.9355794" lon="7.8284615"><ele>238.0</ele><time>2026-04-18T07:39:42.019Z</time></trkpt><trkpt lat="44.9354439" lon="7.8286154"><ele>238.0</ele><time>2026-04-18T07:39:43.018Z</time></trkpt><trkpt lat="44.9353086" lon="7.8287646"><ele>238.0</ele><time>2026-04-18T07:39:44.018Z</time></trkpt><trkpt lat="44.9351715" lon="7.8289123"><ele>238.0</ele><time>2026-04-18T07:39:45.018Z</time></trkpt><trkpt lat="44.9350318" lon="7.829059"><ele>237.66666666666666</ele><time>2026-04-18T07:39:46.019Z</time></trkpt><trkpt lat="44.934892" lon="7.8292041"><ele>237.33333333333331</ele><time>2026-04-18T07:39:47.018Z</time></trkpt><trkpt lat="44.9347534" lon="7.8293472"><ele>237.0</ele><time>2026-04-18T07:39:48.018Z</time></trkpt><trkpt lat="44.9346138" lon="7.8294898"><ele>237.0</ele><time>2026-04-18T07:39:49.018Z</time></trkpt><trkpt lat="44.9344736" lon="7.8296287"><ele>237.0</ele><time>2026-04-18T07:39:50.018Z</time></trkpt><trkpt lat="44.934335" lon="7.8297608"><ele>237.0</ele><time>2026-04-18T07:39:51.018Z</time></trkpt><trkpt lat="44.9341947" lon="7.8298844"><ele>237.0</ele><time>2026-04-18T07:39:52.018Z</time></trkpt><trkpt lat="44.934058" lon="7.8300025"><ele>237.0</ele><time>2026-04-18T07:39:53.019Z</time></trkpt><trkpt lat="44.933923" lon="7.8301217"><ele>237.0</ele><time>2026-04-18T07:39:54.019Z</time></trkpt><trkpt lat="44.9337886" lon="7.8302343"><ele>237.33333333333331</ele><time>2026-04-18T07:39:55.018Z</time></trkpt><trkpt lat="44.9336531" lon="7.8303465"><ele>237.66666666666666</ele><time>2026-04-18T07:39:56.018Z</time></trkpt><trkpt lat="44.9335226" lon="7.8304591"><ele>238.0</ele><time>2026-04-18T07:39:57.019Z</time></trkpt><trkpt lat="44.9333901" lon="7.8305716"><ele>238.0</ele><time>2026-04-18T07:39:58.019Z</time></trkpt><trkpt lat="44.9332607" lon="7.8306834"><ele>238.0</ele><time>2026-04-18T07:39:59.018Z</time></trkpt><trkpt lat="44.9331343" lon="7.8307909"><ele>238.0</ele><time>2026-04-18T07:40:00.019Z</time></trkpt><trkpt lat="44.9330115" lon="7.8308976"><ele>238.0</ele><time>2026-04-18T07:40:01.019Z</time></trkpt><trkpt lat="44.9328863" lon="7.8310078"><ele>238.0</ele><time>2026-04-18T07:40:02.018Z</time></trkpt><trkpt lat="44.9327612" lon="7.8311185"><ele>238.0</ele><time>2026-04-18T07:40:03.019Z</time></trkpt><trkpt lat="44.9326376" lon="7.8312239"><ele>238.0</ele><time>2026-04-18T07:40:04.019Z</time></trkpt><trkpt lat="44.932515" lon="7.8313276"><ele>238.0</ele><time>2026-04-18T07:40:05.018Z</time></trkpt><trkpt lat="44.9323946" lon="7.8314276"><ele>238.0</ele><time>2026-04-18T07:40:06.019Z</time></trkpt><trkpt lat="44.9322738" lon="7.8315263"><ele>238.0</ele><time>2026-04-18T07:40:07.018Z</time></trkpt><trkpt lat="44.9321572" lon="7.8316282"><ele>238.0</ele><time>2026-04-18T07:40:08.018Z</time></trkpt><trkpt lat="44.9320433" lon="7.8317281"><ele>238.0</ele><time>2026-04-18T07:40:09.019Z</time></trkpt><trkpt lat="44.9319302" lon="7.8318274"><ele>237.75</ele><time>2026-04-18T07:40:10.018Z</time></trkpt><trkpt lat="44.9318176" lon="7.8319287"><ele>237.5</ele><time>2026-04-18T07:40:11.019Z</time></trkpt><trkpt lat="44.9317054" lon="7.8320235"><ele>237.25</ele><time>2026-04-18T07:40:12.019Z</time></trkpt><trkpt lat="44.9315976" lon="7.8321164"><ele>237.0</ele><time>2026-04-18T07:40:13.018Z</time></trkpt><trkpt lat="44.9314951" lon="7.8322068"><ele>237.0</ele><time>2026-04-18T07:40:14.019Z</time></trkpt><trkpt lat="44.9313953" lon="7.8322919"><ele>237.0</ele><time>2026-04-18T07:40:15.018Z</time></trkpt><trkpt lat="44.9312936" lon="7.8323814"><ele>237.0</ele><time>2026-04-18T07:40:16.019Z</time></trkpt><trkpt lat="44.9311891" lon="7.8324687"><ele>237.0</ele><time>2026-04-18T07:40:17.018Z</time></trkpt><trkpt lat="44.9310818" lon="7.8325607"><ele>236.75</ele><time>2026-04-18T07:40:18.019Z</time></trkpt><trkpt lat="44.9309719" lon="7.8326538"><ele>236.5</ele><time>2026-04-18T07:40:19.019Z</time></trkpt><trkpt lat="44.9308602" lon="7.8327478"><ele>236.25</ele><time>2026-04-18T07:40:20.018Z</time></trkpt><trkpt lat="44.930749" lon="7.8328416"><ele>236.0</ele><time>2026-04-18T07:40:21.018Z</time></trkpt><trkpt lat="44.9306447" lon="7.8329308"><ele>236.33333333333334</ele><time>2026-04-18T07:40:22.019Z</time></trkpt><trkpt lat="44.9305492" lon="7.8330096"><ele>236.66666666666669</ele><time>2026-04-18T07:40:23.019Z</time></trkpt><trkpt lat="44.9304637" lon="7.8330803"><ele>237.0</ele><time>2026-04-18T07:40:24.019Z</time></trkpt><trkpt lat="44.9303892" lon="7.8331442"><ele>237.33333333333331</ele><time>2026-04-18T07:40:25.019Z</time></trkpt><trkpt lat="44.9303218" lon="7.8332029"><ele>237.66666666666666</ele><time>2026-04-18T07:40:26.019Z</time></trkpt><trkpt lat="44.930264" lon="7.8332489"><ele>238.0</ele><time>2026-04-18T07:40:27.019Z</time></trkpt><trkpt lat="44.9301775" lon="7.8332624"><ele>237.99999999999997</ele><time>2026-04-18T07:40:29.019Z</time></trkpt><trkpt lat="44.9301238" lon="7.833197"><ele>238.0</ele><time>2026-04-18T07:40:31.018Z</time></trkpt><trkpt lat="44.9300672" lon="7.8331343"><ele>238.0</ele><time>2026-04-18T07:40:33.018Z</time></trkpt><trkpt lat="44.9299916" lon="7.8331495"><ele>238.0</ele><time>2026-04-18T07:40:35.019Z</time></trkpt><trkpt lat="44.929914" lon="7.8332093"><ele>237.99999999999997</ele><time>2026-04-18T07:40:37.019Z</time></trkpt><trkpt lat="44.9298454" lon="7.8332665"><ele>238.0</ele><time>2026-04-18T07:40:39.009Z</time></trkpt><trkpt lat="44.9298001" lon="7.8333364"><ele>237.99999999999997</ele><time>2026-04-18T07:40:43.007Z</time></trkpt><trkpt lat="44.929749" lon="7.8334091"><ele>238.0</ele><time>2026-04-18T07:41:02.003Z</time></trkpt><trkpt lat="44.9297506" lon="7.8334987"><ele>238.0</ele><time>2026-04-18T07:43:32.003Z</time></trkpt><trkpt lat="44.9297725" lon="7.83362"><ele>238.0</ele><time>2026-04-18T07:43:37.002Z</time></trkpt><trkpt lat="44.9297143" lon="7.8337254"><ele>237.99999999999997</ele><time>2026-04-18T07:43:39.003Z</time></trkpt><trkpt lat="44.9296573" lon="7.8337746"><ele>238.0</ele><time>2026-04-18T07:43:40.002Z</time></trkpt><trkpt lat="44.9295848" lon="7.8338344"><ele>238.0</ele><time>2026-04-18T07:43:41.003Z</time></trkpt><trkpt lat="44.9294993" lon="7.8339051"><ele>238.0</ele><time>2026-04-18T07:43:42.003Z</time></trkpt><trkpt lat="44.9294119" lon="7.8339796"><ele>238.0</ele><time>2026-04-18T07:43:43.003Z</time></trkpt><trkpt lat="44.9293209" lon="7.8340573"><ele>238.0</ele><time>2026-04-18T07:43:44.002Z</time></trkpt><trkpt lat="44.9292292" lon="7.834136"><ele>238.0</ele><time>2026-04-18T07:43:45.003Z</time></trkpt><trkpt lat="44.9291421" lon="7.8342108"><ele>238.2</ele><time>2026-04-18T07:43:46.002Z</time></trkpt><trkpt lat="44.9290466" lon="7.8342925"><ele>238.4</ele><time>2026-04-18T07:43:47.003Z</time></trkpt><trkpt lat="44.9289613" lon="7.8343656"><ele>238.59999999999997</ele><time>2026-04-18T07:43:48.003Z</time></trkpt><trkpt lat="44.9288831" lon="7.8344312"><ele>238.79999999999998</ele><time>2026-04-18T07:43:49.003Z</time></trkpt><trkpt lat="44.9287933" lon="7.8345056"><ele>239.0</ele><time>2026-04-18T07:43:50.002Z</time></trkpt><trkpt lat="44.9287065" lon="7.8345767"><ele>239.0</ele><time>2026-04-18T07:43:51.002Z</time></trkpt><trkpt lat="44.9286166" lon="7.8346493"><ele>238.99999999999997</ele><time>2026-04-18T07:43:52.002Z</time></trkpt><trkpt lat="44.9285214" lon="7.8347266"><ele>238.99999999999997</ele><time>2026-04-18T07:43:53.002Z</time></trkpt><trkpt lat="44.9284256" lon="7.8348056"><ele>239.0</ele><time>2026-04-18T07:43:54.002Z</time></trkpt><trkpt lat="44.9283353" lon="7.8348843"><ele>239.0</ele><time>2026-04-18T07:43:55.002Z</time></trkpt><trkpt lat="44.9282557" lon="7.8349661"><ele>239.00000000000003</ele><time>2026-04-18T07:43:56.002Z</time></trkpt><trkpt lat="44.9281969" lon="7.8350427"><ele>239.0</ele><time>2026-04-18T07:43:57.003Z</time></trkpt><trkpt lat="44.9281514" lon="7.8351132"><ele>239.0</ele><time>2026-04-18T07:43:58.003Z</time></trkpt><trkpt lat="44.9280912" lon="7.8352038"><ele>239.0</ele><time>2026-04-18T07:44:00.002Z</time></trkpt><trkpt lat="44.9280394" lon="7.8352578"><ele>239.00000000000003</ele><time>2026-04-18T07:44:01.002Z</time></trkpt><trkpt lat="44.9279785" lon="7.8353168"><ele>239.0</ele><time>2026-04-18T07:44:02.003Z</time></trkpt><trkpt lat="44.9279014" lon="7.8353849"><ele>239.0</ele><time>2026-04-18T07:44:03.002Z</time></trkpt><trkpt lat="44.9278217" lon="7.8354379"><ele>238.99999999999997</ele><time>2026-04-18T07:44:04.003Z</time></trkpt><trkpt lat="44.9277406" lon="7.8354784"><ele>238.99999999999997</ele><time>2026-04-18T07:44:05.002Z</time></trkpt><trkpt lat="44.9276407" lon="7.8355299"><ele>239.0</ele><time>2026-04-18T07:44:06.003Z</time></trkpt><trkpt lat="44.9275408" lon="7.8355968"><ele>239.0</ele><time>2026-04-18T07:44:07.003Z</time></trkpt><trkpt lat="44.9274334" lon="7.8356817"><ele>239.0</ele><time>2026-04-18T07:44:08.002Z</time></trkpt><trkpt lat="44.9273203" lon="7.8357775"><ele>239.0</ele><time>2026-04-18T07:44:09.003Z</time></trkpt><trkpt lat="44.9272016" lon="7.8358779"><ele>239.0</ele><time>2026-04-18T07:44:10.002Z</time></trkpt><trkpt lat="44.9270779" lon="7.8359811"><ele>239.0</ele><time>2026-04-18T07:44:11.002Z</time></trkpt><trkpt lat="44.9269503" lon="7.8360872"><ele>239.25</ele><time>2026-04-18T07:44:12.002Z</time></trkpt><trkpt lat="44.9268301" lon="7.8361874"><ele>239.5</ele><time>2026-04-18T07:44:13.002Z</time></trkpt><trkpt lat="44.9266948" lon="7.8363007"><ele>239.75</ele><time>2026-04-18T07:44:14.003Z</time></trkpt><trkpt lat="44.9265685" lon="7.8364101"><ele>240.0</ele><time>2026-04-18T07:44:15.002Z</time></trkpt><trkpt lat="44.926439" lon="7.8365272"><ele>240.0</ele><time>2026-04-18T07:44:16.002Z</time></trkpt><trkpt lat="44.9263102" lon="7.8366417"><ele>240.0</ele><time>2026-04-18T07:44:17.002Z</time></trkpt><trkpt lat="44.926194" lon="7.8367416"><ele>240.0</ele><time>2026-04-18T07:44:18.002Z</time></trkpt><trkpt lat="44.9260702" lon="7.8368477"><ele>240.0</ele><time>2026-04-18T07:44:19.003Z</time></trkpt><trkpt lat="44.9259564" lon="7.8369465"><ele>239.33333333333331</ele><time>2026-04-18T07:44:20.002Z</time></trkpt><trkpt lat="44.9258456" lon="7.8370462"><ele>238.66666666666666</ele><time>2026-04-18T07:44:21.002Z</time></trkpt><trkpt lat="44.9257073" lon="7.8371697"><ele>238.0</ele><time>2026-04-18T07:44:22.002Z</time></trkpt><trkpt lat="44.9255596" lon="7.8372929"><ele>238.0</ele><time>2026-04-18T07:44:23.003Z</time></trkpt><trkpt lat="44.9254026" lon="7.8374186"><ele>238.0</ele><time>2026-04-18T07:44:24.003Z</time></trkpt><trkpt lat="44.9252506" lon="7.8375431"><ele>238.0</ele><time>2026-04-18T07:44:25.003Z</time></trkpt><trkpt lat="44.9251092" lon="7.8376608"><ele>238.0</ele><time>2026-04-18T07:44:26.002Z</time></trkpt><trkpt lat="44.9249838" lon="7.8377652"><ele>238.0</ele><time>2026-04-18T07:44:27.003Z</time></trkpt><trkpt lat="44.9248801" lon="7.8378489"><ele>238.0</ele><time>2026-04-18T07:44:28.003Z</time></trkpt><trkpt lat="44.9247935" lon="7.8379039"><ele>238.0</ele><time>2026-04-18T07:44:29.002Z</time></trkpt><trkpt lat="44.9247254" lon="7.8379276"><ele>238.0</ele><time>2026-04-18T07:44:30.002Z</time></trkpt><trkpt lat="44.9246498" lon="7.8379232"><ele>237.99999999999997</ele><time>2026-04-18T07:44:32.002Z</time></trkpt><trkpt lat="44.9245726" lon="7.8378908"><ele>238.0</ele><time>2026-04-18T07:44:34.002Z</time></trkpt><trkpt lat="44.9244491" lon="7.8378743"><ele>238.0</ele><time>2026-04-18T07:44:36.002Z</time></trkpt><trkpt lat="44.9243882" lon="7.837906"><ele>238.0</ele><time>2026-04-18T07:44:37.002Z</time></trkpt><trkpt lat="44.9243377" lon="7.8379704"><ele>237.99999999999997</ele><time>2026-04-18T07:44:38.002Z</time></trkpt><trkpt lat="44.9243089" lon="7.8380565"><ele>238.0</ele><time>2026-04-18T07:44:39.002Z</time></trkpt><trkpt lat="44.9243102" lon="7.8381555"><ele>238.0</ele><time>2026-04-18T07:44:40.003Z</time></trkpt><trkpt lat="44.9243416" lon="7.838255"><ele>238.0</ele><time>2026-04-18T07:44:41.002Z</time></trkpt><trkpt lat="44.9244056" lon="7.8383423"><ele>238.0</ele><time>2026-04-18T07:44:42.003Z</time></trkpt><trkpt lat="44.9244791" lon="7.8384138"><ele>238.0</ele><time>2026-04-18T07:44:43.003Z</time></trkpt><trkpt lat="44.9245691" lon="7.8385129"><ele>238.0</ele><time>2026-04-18T07:44:44.002Z</time></trkpt><trkpt lat="44.9246548" lon="7.8386375"><ele>238.0</ele><time>2026-04-18T07:44:45.002Z</time></trkpt><trkpt lat="44.9247336" lon="7.8387892"><ele>238.0</ele><time>2026-04-18T07:44:46.003Z</time></trkpt><trkpt lat="44.9248061" lon="7.8389645"><ele>238.0</ele><time>2026-04-18T07:44:47.003Z</time></trkpt><trkpt lat="44.9248707" lon="7.8391632"><ele>238.0</ele><time>2026-04-18T07:44:48.003Z</time></trkpt><trkpt lat="44.9249253" lon="7.8393812"><ele>238.0</ele><time>2026-04-18T07:44:49.002Z</time></trkpt><trkpt lat="44.9249671" lon="7.8396014"><ele>238.0</ele><time>2026-04-18T07:44:50.003Z</time></trkpt><trkpt lat="44.9250074" lon="7.839869"><ele>238.0</ele><time>2026-04-18T07:44:51.019Z</time></trkpt><trkpt lat="44.9250227" lon="7.8401312"><ele>237.66666666666666</ele><time>2026-04-18T07:44:52.019Z</time></trkpt><trkpt lat="44.9250258" lon="7.8403953"><ele>237.33333333333331</ele><time>2026-04-18T07:44:53.018Z</time></trkpt><trkpt lat="44.9250209" lon="7.8406641"><ele>237.0</ele><time>2026-04-18T07:44:54.019Z</time></trkpt><trkpt lat="44.9250143" lon="7.8409351"><ele>236.5</ele><time>2026-04-18T07:44:55.019Z</time></trkpt><trkpt lat="44.9250071" lon="7.841238"><ele>236.0</ele><time>2026-04-18T07:44:56.018Z</time></trkpt><trkpt lat="44.9249977" lon="7.8415703"><ele>236.66666666666669</ele><time>2026-04-18T07:44:57.019Z</time></trkpt><trkpt lat="44.9249841" lon="7.8418974"><ele>237.33333333333331</ele><time>2026-04-18T07:44:58.018Z</time></trkpt><trkpt lat="44.9249744" lon="7.8422024"><ele>238.0</ele><time>2026-04-18T07:44:59.019Z</time></trkpt><trkpt lat="44.924973" lon="7.8424829"><ele>237.66666666666666</ele><time>2026-04-18T07:45:00.018Z</time></trkpt><trkpt lat="44.9249817" lon="7.842737"><ele>237.33333333333331</ele><time>2026-04-18T07:45:01.018Z</time></trkpt><trkpt lat="44.9250021" lon="7.8429796"><ele>237.0</ele><time>2026-04-18T07:45:02.018Z</time></trkpt><trkpt lat="44.9250367" lon="7.8432064"><ele>237.0</ele><time>2026-04-18T07:45:03.018Z</time></trkpt><trkpt lat="44.9250841" lon="7.8434199"><ele>237.0</ele><time>2026-04-18T07:45:04.018Z</time></trkpt><trkpt lat="44.9251368" lon="7.843622"><ele>237.0</ele><time>2026-04-18T07:45:05.019Z</time></trkpt><trkpt lat="44.925195" lon="7.8438137"><ele>237.0</ele><time>2026-04-18T07:45:06.019Z</time></trkpt><trkpt lat="44.9252599" lon="7.8439983"><ele>237.0</ele><time>2026-04-18T07:45:07.019Z</time></trkpt><trkpt lat="44.9253308" lon="7.8441806"><ele>237.0</ele><time>2026-04-18T07:45:08.018Z</time></trkpt><trkpt lat="44.9254065" lon="7.8443617"><ele>237.0</ele><time>2026-04-18T07:45:09.019Z</time></trkpt><trkpt lat="44.9254841" lon="7.8445421"><ele>237.0</ele><time>2026-04-18T07:45:10.018Z</time></trkpt><trkpt lat="44.9255663" lon="7.8447196"><ele>237.0</ele><time>2026-04-18T07:45:11.018Z</time></trkpt><trkpt lat="44.9256471" lon="7.8448901"><ele>237.0</ele><time>2026-04-18T07:45:12.019Z</time></trkpt><trkpt lat="44.92573" lon="7.8450613"><ele>237.0</ele><time>2026-04-18T07:45:13.018Z</time></trkpt><trkpt lat="44.9258117" lon="7.8452343"><ele>237.33333333333331</ele><time>2026-04-18T07:45:14.018Z</time></trkpt><trkpt lat="44.925893" lon="7.845412"><ele>237.66666666666666</ele><time>2026-04-18T07:45:15.019Z</time></trkpt><trkpt lat="44.9259767" lon="7.8455927"><ele>238.0</ele><time>2026-04-18T07:45:16.018Z</time></trkpt><trkpt lat="44.9260603" lon="7.8457706"><ele>238.25</ele><time>2026-04-18T07:45:17.018Z</time></trkpt><trkpt lat="44.9261431" lon="7.8459476"><ele>238.5</ele><time>2026-04-18T07:45:18.019Z</time></trkpt><trkpt lat="44.9262272" lon="7.8461221"><ele>238.75</ele><time>2026-04-18T07:45:19.018Z</time></trkpt><trkpt lat="44.9263108" lon="7.8462958"><ele>239.0</ele><time>2026-04-18T07:45:20.018Z</time></trkpt><trkpt lat="44.9263967" lon="7.8464629"><ele>239.0</ele><time>2026-04-18T07:45:21.018Z</time></trkpt><trkpt lat="44.9264909" lon="7.8466249"><ele>239.0</ele><time>2026-04-18T07:45:22.018Z</time></trkpt><trkpt lat="44.926598" lon="7.8467806"><ele>239.0</ele><time>2026-04-18T07:45:23.019Z</time></trkpt><trkpt lat="44.9267144" lon="7.8469277"><ele>238.66666666666669</ele><time>2026-04-18T07:45:24.019Z</time></trkpt><trkpt lat="44.9268394" lon="7.8470629"><ele>238.33333333333331</ele><time>2026-04-18T07:45:25.019Z</time></trkpt><trkpt lat="44.9269721" lon="7.8471826"><ele>238.0</ele><time>2026-04-18T07:45:26.019Z</time></trkpt><trkpt lat="44.9271091" lon="7.847287"><ele>238.0</ele><time>2026-04-18T07:45:27.019Z</time></trkpt><trkpt lat="44.9272512" lon="7.8473729"><ele>238.0</ele><time>2026-04-18T07:45:28.019Z</time></trkpt><trkpt lat="44.9274013" lon="7.8474431"><ele>238.0</ele><time>2026-04-18T07:45:29.018Z</time></trkpt><trkpt lat="44.9275589" lon="7.8474966"><ele>238.0</ele><time>2026-04-18T07:45:30.019Z</time></trkpt><trkpt lat="44.9277199" lon="7.8475448"><ele>238.0</ele><time>2026-04-18T07:45:31.019Z</time></trkpt><trkpt lat="44.9278834" lon="7.8476001"><ele>238.0</ele><time>2026-04-18T07:45:32.019Z</time></trkpt><trkpt lat="44.9280426" lon="7.8476701"><ele>238.0</ele><time>2026-04-18T07:45:33.019Z</time></trkpt><trkpt lat="44.9281941" lon="7.847767"><ele>238.0</ele><time>2026-04-18T07:45:34.019Z</time></trkpt><trkpt lat="44.928338" lon="7.8478846"><ele>238.0</ele><time>2026-04-18T07:45:35.018Z</time></trkpt><trkpt lat="44.9284759" lon="7.848031"><ele>238.25</ele><time>2026-04-18T07:45:36.019Z</time></trkpt><trkpt lat="44.9285845" lon="7.8481882"><ele>238.5</ele><time>2026-04-18T07:45:37.018Z</time></trkpt><trkpt lat="44.9286515" lon="7.848328"><ele>238.75</ele><time>2026-04-18T07:45:38.019Z</time></trkpt><trkpt lat="44.9286787" lon="7.848452"><ele>239.0</ele><time>2026-04-18T07:45:39.018Z</time></trkpt><trkpt lat="44.9286699" lon="7.8485725"><ele>239.0</ele><time>2026-04-18T07:45:40.019Z</time></trkpt><trkpt lat="44.9286309" lon="7.8486926"><ele>238.99999999999997</ele><time>2026-04-18T07:45:41.019Z</time></trkpt><trkpt lat="44.9285824" lon="7.8488152"><ele>238.99999999999997</ele><time>2026-04-18T07:45:42.018Z</time></trkpt><trkpt lat="44.9285513" lon="7.8489553"><ele>239.0</ele><time>2026-04-18T07:45:43.019Z</time></trkpt><trkpt lat="44.9285536" lon="7.849112"><ele>239.0</ele><time>2026-04-18T07:45:44.019Z</time></trkpt><trkpt lat="44.9285841" lon="7.849271"><ele>238.75</ele><time>2026-04-18T07:45:45.019Z</time></trkpt><trkpt lat="44.9286414" lon="7.8494284"><ele>238.5</ele><time>2026-04-18T07:45:46.018Z</time></trkpt><trkpt lat="44.9287023" lon="7.8495945"><ele>238.25</ele><time>2026-04-18T07:45:47.019Z</time></trkpt><trkpt lat="44.9287365" lon="7.8497864"><ele>238.0</ele><time>2026-04-18T07:45:48.018Z</time></trkpt><trkpt lat="44.9287407" lon="7.8499978"><ele>238.0</ele><time>2026-04-18T07:45:49.018Z</time></trkpt><trkpt lat="44.9287272" lon="7.850229"><ele>238.0</ele><time>2026-04-18T07:45:50.019Z</time></trkpt><trkpt lat="44.9286967" lon="7.850473"><ele>238.0</ele><time>2026-04-18T07:45:51.018Z</time></trkpt><trkpt lat="44.9286491" lon="7.8507119"><ele>238.0</ele><time>2026-04-18T07:45:52.019Z</time></trkpt><trkpt lat="44.9285909" lon="7.8509494"><ele>238.0</ele><time>2026-04-18T07:45:53.018Z</time></trkpt><trkpt lat="44.9285219" lon="7.8511806"><ele>238.0</ele><time>2026-04-18T07:45:54.019Z</time></trkpt><trkpt lat="44.9284585" lon="7.8513992"><ele>238.0</ele><time>2026-04-18T07:45:55.019Z</time></trkpt><trkpt lat="44.9283961" lon="7.8516308"><ele>238.0</ele><time>2026-04-18T07:45:56.019Z</time></trkpt><trkpt lat="44.9283253" lon="7.8518736"><ele>238.0</ele><time>2026-04-18T07:45:57.019Z</time></trkpt><trkpt lat="44.9282472" lon="7.8521238"><ele>238.0</ele><time>2026-04-18T07:45:58.018Z</time></trkpt><trkpt lat="44.9281706" lon="7.8523791"><ele>238.0</ele><time>2026-04-18T07:45:59.018Z</time></trkpt><trkpt lat="44.9280941" lon="7.8526378"><ele>238.0</ele><time>2026-04-18T07:46:00.019Z</time></trkpt><trkpt lat="44.928016" lon="7.8528973"><ele>238.0</ele><time>2026-04-18T07:46:01.019Z</time></trkpt><trkpt lat="44.9279357" lon="7.8531594"><ele>238.0</ele><time>2026-04-18T07:46:02.018Z</time></trkpt><trkpt lat="44.9278525" lon="7.8534235"><ele>238.0</ele><time>2026-04-18T07:46:03.019Z</time></trkpt><trkpt lat="44.927763" lon="7.8536857"><ele>238.0</ele><time>2026-04-18T07:46:04.018Z</time></trkpt><trkpt lat="44.9276645" lon="7.8539454"><ele>238.0</ele><time>2026-04-18T07:46:05.019Z</time></trkpt><trkpt lat="44.9275608" lon="7.8541938"><ele>238.0</ele><time>2026-04-18T07:46:06.018Z</time></trkpt><trkpt lat="44.9274545" lon="7.85443"><ele>238.0</ele><time>2026-04-18T07:46:07.019Z</time></trkpt><trkpt lat="44.9273429" lon="7.8546627"><ele>238.0</ele><time>2026-04-18T07:46:08.019Z</time></trkpt><trkpt lat="44.9272238" lon="7.8548875"><ele>238.0</ele><time>2026-04-18T07:46:09.019Z</time></trkpt><trkpt lat="44.9271016" lon="7.8551057"><ele>238.0</ele><time>2026-04-18T07:46:10.018Z</time></trkpt><trkpt lat="44.926974" lon="7.8553117"><ele>238.0</ele><time>2026-04-18T07:46:11.019Z</time></trkpt><trkpt lat="44.9268405" lon="7.8555057"><ele>238.0</ele><time>2026-04-18T07:46:12.019Z</time></trkpt><trkpt lat="44.9267007" lon="7.8556953"><ele>239.33333333333331</ele><time>2026-04-18T07:46:13.019Z</time></trkpt><trkpt lat="44.9265562" lon="7.8558776"><ele>240.66666666666669</ele><time>2026-04-18T07:46:14.019Z</time></trkpt><trkpt lat="44.9264064" lon="7.8560501"><ele>242.0</ele><time>2026-04-18T07:46:15.018Z</time></trkpt><trkpt lat="44.9262547" lon="7.8562191"><ele>243.0</ele><time>2026-04-18T07:46:16.019Z</time></trkpt><trkpt lat="44.9261021" lon="7.856386"><ele>244.0</ele><time>2026-04-18T07:46:17.019Z</time></trkpt><trkpt lat="44.9259447" lon="7.8565531"><ele>245.0</ele><time>2026-04-18T07:46:18.019Z</time></trkpt><trkpt lat="44.9257862" lon="7.8567202"><ele>247.66666666666669</ele><time>2026-04-18T07:46:19.018Z</time></trkpt><trkpt lat="44.9256282" lon="7.8568883"><ele>250.33333333333331</ele><time>2026-04-18T07:46:20.019Z</time></trkpt><trkpt lat="44.9254705" lon="7.8570582"><ele>253.0</ele><time>2026-04-18T07:46:21.019Z</time></trkpt><trkpt lat="44.9253142" lon="7.8572263"><ele>253.0</ele><time>2026-04-18T07:46:22.019Z</time></trkpt><trkpt lat="44.9251575" lon="7.8573941"><ele>253.0</ele><time>2026-04-18T07:46:23.019Z</time></trkpt><trkpt lat="44.9250016" lon="7.8575607"><ele>253.0</ele><time>2026-04-18T07:46:24.019Z</time></trkpt><trkpt lat="44.9248458" lon="7.857727"><ele>252.0</ele><time>2026-04-18T07:46:25.019Z</time></trkpt><trkpt lat="44.9246887" lon="7.8578954"><ele>251.0</ele><time>2026-04-18T07:46:26.019Z</time></trkpt><trkpt lat="44.9245317" lon="7.8580615"><ele>250.0</ele><time>2026-04-18T07:46:27.019Z</time></trkpt><trkpt lat="44.924376" lon="7.8582289"><ele>250.33333333333331</ele><time>2026-04-18T07:46:28.018Z</time></trkpt><trkpt lat="44.9242174" lon="7.8583997"><ele>250.66666666666669</ele><time>2026-04-18T07:46:29.019Z</time></trkpt><trkpt lat="44.9240576" lon="7.85857"><ele>251.0</ele><time>2026-04-18T07:46:30.018Z</time></trkpt><trkpt lat="44.9238993" lon="7.8587408"><ele>251.0</ele><time>2026-04-18T07:46:31.019Z</time></trkpt><trkpt lat="44.9237385" lon="7.8589132"><ele>251.0</ele><time>2026-04-18T07:46:32.018Z</time></trkpt><trkpt lat="44.9235793" lon="7.8590864"><ele>251.0</ele><time>2026-04-18T07:46:33.019Z</time></trkpt><trkpt lat="44.9234202" lon="7.859257"><ele>251.33333333333334</ele><time>2026-04-18T07:46:34.019Z</time></trkpt><trkpt lat="44.9232645" lon="7.8594242"><ele>251.66666666666669</ele><time>2026-04-18T07:46:35.019Z</time></trkpt><trkpt lat="44.9231124" lon="7.8595876"><ele>252.0</ele><time>2026-04-18T07:46:36.018Z</time></trkpt><trkpt lat="44.9229608" lon="7.8597516"><ele>252.0</ele><time>2026-04-18T07:46:37.018Z</time></trkpt><trkpt lat="44.9228083" lon="7.8599153"><ele>252.0</ele><time>2026-04-18T07:46:38.019Z</time></trkpt><trkpt lat="44.9226581" lon="7.8600766"><ele>252.0</ele><time>2026-04-18T07:46:39.018Z</time></trkpt><trkpt lat="44.922513" lon="7.8602327"><ele>251.33333333333331</ele><time>2026-04-18T07:46:40.018Z</time></trkpt><trkpt lat="44.9223755" lon="7.8603843"><ele>250.66666666666666</ele><time>2026-04-18T07:46:41.018Z</time></trkpt><trkpt lat="44.9222488" lon="7.8605365"><ele>250.0</ele><time>2026-04-18T07:46:42.019Z</time></trkpt><trkpt lat="44.9221316" lon="7.8606924"><ele>250.0</ele><time>2026-04-18T07:46:43.019Z</time></trkpt><trkpt lat="44.922028" lon="7.8608487"><ele>250.0</ele><time>2026-04-18T07:46:44.018Z</time></trkpt><trkpt lat="44.9219329" lon="7.8610044"><ele>250.0</ele><time>2026-04-18T07:46:45.019Z</time></trkpt><trkpt lat="44.9218514" lon="7.8611493"><ele>250.0</ele><time>2026-04-18T07:46:46.018Z</time></trkpt><trkpt lat="44.9217864" lon="7.8612679"><ele>250.0</ele><time>2026-04-18T07:46:47.018Z</time></trkpt><trkpt lat="44.9217393" lon="7.8613553"><ele>250.0</ele><time>2026-04-18T07:46:48.018Z</time></trkpt><trkpt lat="44.9216963" lon="7.8614258"><ele>250.0</ele><time>2026-04-18T07:46:49.018Z</time></trkpt><trkpt lat="44.9216428" lon="7.8614809"><ele>250.0</ele><time>2026-04-18T07:46:50.019Z</time></trkpt><trkpt lat="44.9215789" lon="7.8615179"><ele>250.0</ele><time>2026-04-18T07:46:51.019Z</time></trkpt><trkpt lat="44.9215042" lon="7.8615467"><ele>250.0</ele><time>2026-04-18T07:46:52.018Z</time></trkpt><trkpt lat="44.921438" lon="7.8615944"><ele>250.0</ele><time>2026-04-18T07:46:53.019Z</time></trkpt><trkpt lat="44.9213863" lon="7.8616617"><ele>250.33333333333331</ele><time>2026-04-18T07:46:54.018Z</time></trkpt><trkpt lat="44.9213505" lon="7.8617441"><ele>250.66666666666666</ele><time>2026-04-18T07:46:55.019Z</time></trkpt><trkpt lat="44.9213522" lon="7.8619228"><ele>251.0</ele><time>2026-04-18T07:46:57.019Z</time></trkpt><trkpt lat="44.921392" lon="7.8620042"><ele>251.33333333333331</ele><time>2026-04-18T07:46:58.019Z</time></trkpt><trkpt lat="44.9214556" lon="7.8620662"><ele>251.66666666666666</ele><time>2026-04-18T07:46:59.018Z</time></trkpt><trkpt lat="44.9215331" lon="7.8621237"><ele>252.0</ele><time>2026-04-18T07:47:00.018Z</time></trkpt><trkpt lat="44.9216094" lon="7.8622185"><ele>252.0</ele><time>2026-04-18T07:47:01.019Z</time></trkpt><trkpt lat="44.9216769" lon="7.8623628"><ele>252.0</ele><time>2026-04-18T07:47:02.019Z</time></trkpt><trkpt lat="44.9217399" lon="7.8625385"><ele>252.0</ele><time>2026-04-18T07:47:03.018Z</time></trkpt><trkpt lat="44.9218118" lon="7.862738"><ele>252.0</ele><time>2026-04-18T07:47:04.018Z</time></trkpt><trkpt lat="44.9218845" lon="7.8629405"><ele>252.0</ele><time>2026-04-18T07:47:05.019Z</time></trkpt><trkpt lat="44.9219553" lon="7.863139"><ele>252.0</ele><time>2026-04-18T07:47:06.018Z</time></trkpt><trkpt lat="44.922024" lon="7.863332"><ele>252.0</ele><time>2026-04-18T07:47:07.019Z</time></trkpt><trkpt lat="44.9220946" lon="7.8635307"><ele>252.0</ele><time>2026-04-18T07:47:08.019Z</time></trkpt><trkpt lat="44.922168" lon="7.8637348"><ele>252.0</ele><time>2026-04-18T07:47:09.019Z</time></trkpt><trkpt lat="44.9222429" lon="7.8639458"><ele>252.0</ele><time>2026-04-18T07:47:10.019Z</time></trkpt><trkpt lat="44.922318" lon="7.8641642"><ele>251.66666666666669</ele><time>2026-04-18T07:47:11.018Z</time></trkpt><trkpt lat="44.922395" lon="7.8643886"><ele>251.33333333333334</ele><time>2026-04-18T07:47:12.018Z</time></trkpt><trkpt lat="44.9224741" lon="7.8646113"><ele>251.0</ele><time>2026-04-18T07:47:13.018Z</time></trkpt><trkpt lat="44.9225545" lon="7.8648324"><ele>250.0</ele><time>2026-04-18T07:47:14.019Z</time></trkpt><trkpt lat="44.9226364" lon="7.8650594"><ele>249.0</ele><time>2026-04-18T07:47:15.019Z</time></trkpt><trkpt lat="44.922719" lon="7.8652943"><ele>248.0</ele><time>2026-04-18T07:47:16.018Z</time></trkpt><trkpt lat="44.9228026" lon="7.8655279"><ele>248.0</ele><time>2026-04-18T07:47:17.019Z</time></trkpt><trkpt lat="44.9228875" lon="7.8657627"><ele>248.0</ele><time>2026-04-18T07:47:18.019Z</time></trkpt><trkpt lat="44.9229724" lon="7.8660006"><ele>248.0</ele><time>2026-04-18T07:47:19.018Z</time></trkpt><trkpt lat="44.923058" lon="7.8662445"><ele>248.33333333333334</ele><time>2026-04-18T07:47:20.018Z</time></trkpt><trkpt lat="44.9231478" lon="7.8664959"><ele>248.66666666666669</ele><time>2026-04-18T07:47:21.019Z</time></trkpt><trkpt lat="44.9232368" lon="7.866745"><ele>249.0</ele><time>2026-04-18T07:47:22.018Z</time></trkpt><trkpt lat="44.9233268" lon="7.8669981"><ele>248.33333333333331</ele><time>2026-04-18T07:47:23.019Z</time></trkpt><trkpt lat="44.923418" lon="7.8672492"><ele>247.66666666666666</ele><time>2026-04-18T07:47:24.018Z</time></trkpt><trkpt lat="44.92351" lon="7.8675061"><ele>247.0</ele><time>2026-04-18T07:47:25.019Z</time></trkpt><trkpt lat="44.923602" lon="7.8677691"><ele>246.66666666666666</ele><time>2026-04-18T07:47:26.019Z</time></trkpt><trkpt lat="44.9236968" lon="7.8680395"><ele>246.33333333333331</ele><time>2026-04-18T07:47:27.019Z</time></trkpt><trkpt lat="44.9237922" lon="7.8683141"><ele>246.0</ele><time>2026-04-18T07:47:28.019Z</time></trkpt><trkpt lat="44.9238905" lon="7.8685926"><ele>246.0</ele><time>2026-04-18T07:47:29.019Z</time></trkpt><trkpt lat="44.92399" lon="7.8688753"><ele>246.0</ele><time>2026-04-18T07:47:30.019Z</time></trkpt><trkpt lat="44.9240908" lon="7.8691623"><ele>245.0</ele><time>2026-04-18T07:47:31.019Z</time></trkpt><trkpt lat="44.9241929" lon="7.8694492"><ele>244.0</ele><time>2026-04-18T07:47:32.019Z</time></trkpt><trkpt lat="44.9242938" lon="7.8697322"><ele>244.0</ele><time>2026-04-18T07:47:33.018Z</time></trkpt><trkpt lat="44.9243949" lon="7.870012"><ele>244.0</ele><time>2026-04-18T07:47:34.018Z</time></trkpt><trkpt lat="44.9244934" lon="7.8702903"><ele>244.0</ele><time>2026-04-18T07:47:35.019Z</time></trkpt><trkpt lat="44.9245904" lon="7.8705619"><ele>244.0</ele><time>2026-04-18T07:47:36.019Z</time></trkpt><trkpt lat="44.9246851" lon="7.8708318"><ele>244.0</ele><time>2026-04-18T07:47:37.019Z</time></trkpt><trkpt lat="44.9247773" lon="7.8710959"><ele>244.0</ele><time>2026-04-18T07:47:38.018Z</time></trkpt><trkpt lat="44.9248697" lon="7.8713542"><ele>244.33333333333331</ele><time>2026-04-18T07:47:39.018Z</time></trkpt><trkpt lat="44.9249581" lon="7.8716087"><ele>244.66666666666669</ele><time>2026-04-18T07:47:40.018Z</time></trkpt><trkpt lat="44.9250446" lon="7.871853"><ele>245.0</ele><time>2026-04-18T07:47:41.019Z</time></trkpt><trkpt lat="44.9251283" lon="7.8720939"><ele>245.0</ele><time>2026-04-18T07:47:42.018Z</time></trkpt><trkpt lat="44.9252151" lon="7.8723336"><ele>245.0</ele><time>2026-04-18T07:47:43.019Z</time></trkpt><trkpt lat="44.9253011" lon="7.8725743"><ele>245.0</ele><time>2026-04-18T07:47:44.018Z</time></trkpt><trkpt lat="44.9253856" lon="7.8728134"><ele>245.33333333333334</ele><time>2026-04-18T07:47:45.019Z</time></trkpt><trkpt lat="44.9254715" lon="7.8730557"><ele>245.66666666666669</ele><time>2026-04-18T07:47:46.018Z</time></trkpt><trkpt lat="44.925559" lon="7.8733005"><ele>246.0</ele><time>2026-04-18T07:47:47.019Z</time></trkpt><trkpt lat="44.9256483" lon="7.8735489"><ele>246.0</ele><time>2026-04-18T07:47:48.019Z</time></trkpt><trkpt lat="44.9257371" lon="7.8738037"><ele>246.0</ele><time>2026-04-18T07:47:49.019Z</time></trkpt><trkpt lat="44.9258244" lon="7.8740581"><ele>246.0</ele><time>2026-04-18T07:47:50.019Z</time></trkpt><trkpt lat="44.9259104" lon="7.8743096"><ele>246.0</ele><time>2026-04-18T07:47:51.019Z</time></trkpt><trkpt lat="44.9259985" lon="7.8745584"><ele>246.0</ele><time>2026-04-18T07:47:52.018Z</time></trkpt><trkpt lat="44.9260868" lon="7.8748054"><ele>246.0</ele><time>2026-04-18T07:47:53.019Z</time></trkpt><trkpt lat="44.9261725" lon="7.8750513"><ele>245.66666666666669</ele><time>2026-04-18T07:47:54.019Z</time></trkpt><trkpt lat="44.9262601" lon="7.8752978"><ele>245.33333333333334</ele><time>2026-04-18T07:47:55.019Z</time></trkpt><trkpt lat="44.9263474" lon="7.8755425"><ele>245.0</ele><time>2026-04-18T07:47:56.018Z</time></trkpt><trkpt lat="44.9264364" lon="7.8757909"><ele>245.0</ele><time>2026-04-18T07:47:57.019Z</time></trkpt><trkpt lat="44.926527" lon="7.876044"><ele>245.0</ele><time>2026-04-18T07:47:58.018Z</time></trkpt><trkpt lat="44.9266205" lon="7.8763074"><ele>245.0</ele><time>2026-04-18T07:47:59.018Z</time></trkpt><trkpt lat="44.9267169" lon="7.8765786"><ele>244.33333333333334</ele><time>2026-04-18T07:48:00.019Z</time></trkpt><trkpt lat="44.9268154" lon="7.8768586"><ele>243.66666666666669</ele><time>2026-04-18T07:48:01.019Z</time></trkpt><trkpt lat="44.9269166" lon="7.877144"><ele>243.0</ele><time>2026-04-18T07:48:02.018Z</time></trkpt><trkpt lat="44.9270195" lon="7.8774347"><ele>242.0</ele><time>2026-04-18T07:48:03.019Z</time></trkpt><trkpt lat="44.927122" lon="7.8777273"><ele>241.0</ele><time>2026-04-18T07:48:04.019Z</time></trkpt><trkpt lat="44.9272204" lon="7.8780132"><ele>241.0</ele><time>2026-04-18T07:48:05.019Z</time></trkpt><trkpt lat="44.9273171" lon="7.8782911"><ele>241.0</ele><time>2026-04-18T07:48:06.018Z</time></trkpt><trkpt lat="44.9274127" lon="7.8785689"><ele>241.0</ele><time>2026-04-18T07:48:07.019Z</time></trkpt><trkpt lat="44.9275114" lon="7.8788461"><ele>241.0</ele><time>2026-04-18T07:48:08.019Z</time></trkpt><trkpt lat="44.9276075" lon="7.8791234"><ele>241.0</ele><time>2026-04-18T07:48:09.019Z</time></trkpt><trkpt lat="44.927702" lon="7.8793909"><ele>241.0</ele><time>2026-04-18T07:48:10.018Z</time></trkpt><trkpt lat="44.9277939" lon="7.8796531"><ele>241.66666666666666</ele><time>2026-04-18T07:48:11.019Z</time></trkpt><trkpt lat="44.9278841" lon="7.8799107"><ele>242.33333333333331</ele><time>2026-04-18T07:48:12.019Z</time></trkpt><trkpt lat="44.9279725" lon="7.8801662"><ele>243.0</ele><time>2026-04-18T07:48:13.018Z</time></trkpt><trkpt lat="44.9280605" lon="7.8804199"><ele>243.0</ele><time>2026-04-18T07:48:14.019Z</time></trkpt><trkpt lat="44.9281518" lon="7.8806742"><ele>243.0</ele><time>2026-04-18T07:48:15.018Z</time></trkpt><trkpt lat="44.9282392" lon="7.8809263"><ele>243.0</ele><time>2026-04-18T07:48:16.019Z</time></trkpt><trkpt lat="44.9283302" lon="7.881179"><ele>242.66666666666669</ele><time>2026-04-18T07:48:17.018Z</time></trkpt><trkpt lat="44.9284204" lon="7.881432"><ele>242.33333333333334</ele><time>2026-04-18T07:48:18.019Z</time></trkpt><trkpt lat="44.9285109" lon="7.881684"><ele>242.0</ele><time>2026-04-18T07:48:19.018Z</time></trkpt><trkpt lat="44.9285996" lon="7.8819351"><ele>242.0</ele><time>2026-04-18T07:48:20.019Z</time></trkpt><trkpt lat="44.9286866" lon="7.8821859"><ele>242.0</ele><time>2026-04-18T07:48:21.018Z</time></trkpt><trkpt lat="44.9287732" lon="7.8824374"><ele>242.0</ele><time>2026-04-18T07:48:22.019Z</time></trkpt><trkpt lat="44.9288621" lon="7.8826882"><ele>242.0</ele><time>2026-04-18T07:48:23.018Z</time></trkpt><trkpt lat="44.9289504" lon="7.8829445"><ele>242.0</ele><time>2026-04-18T07:48:24.018Z</time></trkpt><trkpt lat="44.9290415" lon="7.8831998"><ele>242.0</ele><time>2026-04-18T07:48:25.018Z</time></trkpt><trkpt lat="44.9291286" lon="7.8834513"><ele>242.33333333333334</ele><time>2026-04-18T07:48:26.019Z</time></trkpt><trkpt lat="44.9292154" lon="7.8836975"><ele>242.66666666666669</ele><time>2026-04-18T07:48:27.018Z</time></trkpt><trkpt lat="44.9293029" lon="7.8839492"><ele>243.0</ele><time>2026-04-18T07:48:28.019Z</time></trkpt><trkpt lat="44.9293941" lon="7.8842056"><ele>243.33333333333331</ele><time>2026-04-18T07:48:29.019Z</time></trkpt><trkpt lat="44.9294858" lon="7.8844632"><ele>243.66666666666666</ele><time>2026-04-18T07:48:30.019Z</time></trkpt><trkpt lat="44.9295764" lon="7.8847225"><ele>244.0</ele><time>2026-04-18T07:48:31.019Z</time></trkpt><trkpt lat="44.9296701" lon="7.8849843"><ele>244.33333333333331</ele><time>2026-04-18T07:48:32.018Z</time></trkpt><trkpt lat="44.9297654" lon="7.8852521"><ele>244.66666666666669</ele><time>2026-04-18T07:48:33.019Z</time></trkpt><trkpt lat="44.9298585" lon="7.8855221"><ele>245.0</ele><time>2026-04-18T07:48:34.019Z</time></trkpt><trkpt lat="44.9299548" lon="7.8857971"><ele>244.33333333333334</ele><time>2026-04-18T07:48:35.019Z</time></trkpt><trkpt lat="44.9300515" lon="7.8860691"><ele>243.66666666666669</ele><time>2026-04-18T07:48:36.018Z</time></trkpt><trkpt lat="44.9301471" lon="7.88634"><ele>243.0</ele><time>2026-04-18T07:48:37.019Z</time></trkpt><trkpt lat="44.9302405" lon="7.8866075"><ele>242.66666666666669</ele><time>2026-04-18T07:48:38.019Z</time></trkpt><trkpt lat="44.9303333" lon="7.8868706"><ele>242.33333333333334</ele><time>2026-04-18T07:48:39.019Z</time></trkpt><trkpt lat="44.9304227" lon="7.8871273"><ele>242.0</ele><time>2026-04-18T07:48:40.018Z</time></trkpt><trkpt lat="44.9305124" lon="7.8873803"><ele>241.66666666666669</ele><time>2026-04-18T07:48:41.018Z</time></trkpt><trkpt lat="44.9306012" lon="7.8876297"><ele>241.33333333333331</ele><time>2026-04-18T07:48:42.018Z</time></trkpt><trkpt lat="44.9306875" lon="7.8878761"><ele>241.0</ele><time>2026-04-18T07:48:43.019Z</time></trkpt><trkpt lat="44.9307745" lon="7.8881215"><ele>241.0</ele><time>2026-04-18T07:48:44.019Z</time></trkpt><trkpt lat="44.9308607" lon="7.8883671"><ele>241.0</ele><time>2026-04-18T07:48:45.019Z</time></trkpt><trkpt lat="44.9309469" lon="7.8886173"><ele>241.0</ele><time>2026-04-18T07:48:46.018Z</time></trkpt><trkpt lat="44.9310357" lon="7.8888693"><ele>241.33333333333331</ele><time>2026-04-18T07:48:47.019Z</time></trkpt><trkpt lat="44.931128" lon="7.8891279"><ele>241.66666666666669</ele><time>2026-04-18T07:48:48.019Z</time></trkpt><trkpt lat="44.9312207" lon="7.8893904"><ele>242.0</ele><time>2026-04-18T07:48:49.019Z</time></trkpt><trkpt lat="44.9313145" lon="7.8896549"><ele>242.0</ele><time>2026-04-18T07:48:50.019Z</time></trkpt><trkpt lat="44.9314089" lon="7.8899231"><ele>242.0</ele><time>2026-04-18T07:48:51.019Z</time></trkpt><trkpt lat="44.9315016" lon="7.8901829"><ele>242.0</ele><time>2026-04-18T07:48:52.019Z</time></trkpt><trkpt lat="44.93159" lon="7.8904313"><ele>242.66666666666669</ele><time>2026-04-18T07:48:53.019Z</time></trkpt><trkpt lat="44.9316757" lon="7.8906724"><ele>243.33333333333331</ele><time>2026-04-18T07:48:54.019Z</time></trkpt><trkpt lat="44.9317597" lon="7.8909118"><ele>244.0</ele><time>2026-04-18T07:48:55.019Z</time></trkpt><trkpt lat="44.9318445" lon="7.8911484"><ele>244.33333333333331</ele><time>2026-04-18T07:48:56.019Z</time></trkpt><trkpt lat="44.9319259" lon="7.8913825"><ele>244.66666666666669</ele><time>2026-04-18T07:48:57.019Z</time></trkpt><trkpt lat="44.9320045" lon="7.8916088"><ele>245.0</ele><time>2026-04-18T07:48:58.018Z</time></trkpt><trkpt lat="44.9320786" lon="7.8918263"><ele>244.0</ele><time>2026-04-18T07:48:59.018Z</time></trkpt><trkpt lat="44.9321537" lon="7.8920414"><ele>243.0</ele><time>2026-04-18T07:49:00.018Z</time></trkpt><trkpt lat="44.932228" lon="7.8922503"><ele>242.0</ele><time>2026-04-18T07:49:01.019Z</time></trkpt><trkpt lat="44.9322974" lon="7.8924443"><ele>242.25</ele><time>2026-04-18T07:49:02.018Z</time></trkpt><trkpt lat="44.932361" lon="7.8926272"><ele>242.5</ele><time>2026-04-18T07:49:03.018Z</time></trkpt><trkpt lat="44.932424" lon="7.8928041"><ele>242.75</ele><time>2026-04-18T07:49:04.019Z</time></trkpt><trkpt lat="44.9324848" lon="7.8929777"><ele>243.0</ele><time>2026-04-18T07:49:05.019Z</time></trkpt><trkpt lat="44.9325463" lon="7.8931487"><ele>243.0</ele><time>2026-04-18T07:49:06.019Z</time></trkpt><trkpt lat="44.9326056" lon="7.8933193"><ele>243.0</ele><time>2026-04-18T07:49:07.018Z</time></trkpt><trkpt lat="44.9326651" lon="7.8934856"><ele>243.0</ele><time>2026-04-18T07:49:08.018Z</time></trkpt><trkpt lat="44.9327235" lon="7.8936473"><ele>243.0</ele><time>2026-04-18T07:49:09.018Z</time></trkpt><trkpt lat="44.9327795" lon="7.8938052"><ele>243.0</ele><time>2026-04-18T07:49:10.019Z</time></trkpt><trkpt lat="44.932836" lon="7.8939619"><ele>243.0</ele><time>2026-04-18T07:49:11.019Z</time></trkpt><trkpt lat="44.9328865" lon="7.8941147"><ele>243.0</ele><time>2026-04-18T07:49:12.018Z</time></trkpt><trkpt lat="44.932937" lon="7.8942601"><ele>243.0</ele><time>2026-04-18T07:49:13.019Z</time></trkpt><trkpt lat="44.9329876" lon="7.8943996"><ele>243.2</ele><time>2026-04-18T07:49:14.019Z</time></trkpt><trkpt lat="44.9330347" lon="7.8945339"><ele>243.4</ele><time>2026-04-18T07:49:15.019Z</time></trkpt><trkpt lat="44.9330811" lon="7.8946593"><ele>243.59999999999997</ele><time>2026-04-18T07:49:16.018Z</time></trkpt><trkpt lat="44.933126" lon="7.8947807"><ele>243.79999999999998</ele><time>2026-04-18T07:49:17.018Z</time></trkpt><trkpt lat="44.9331703" lon="7.8949064"><ele>244.0</ele><time>2026-04-18T07:49:18.019Z</time></trkpt><trkpt lat="44.9332174" lon="7.8950369"><ele>244.0</ele><time>2026-04-18T07:49:19.019Z</time></trkpt><trkpt lat="44.9332655" lon="7.8951726"><ele>244.0</ele><time>2026-04-18T07:49:20.019Z</time></trkpt><trkpt lat="44.9333167" lon="7.8953134"><ele>244.0</ele><time>2026-04-18T07:49:21.019Z</time></trkpt><trkpt lat="44.9333702" lon="7.8954564"><ele>244.0</ele><time>2026-04-18T07:49:22.019Z</time></trkpt><trkpt lat="44.9334226" lon="7.8956068"><ele>243.75</ele><time>2026-04-18T07:49:23.018Z</time></trkpt><trkpt lat="44.9334776" lon="7.8957647"><ele>243.5</ele><time>2026-04-18T07:49:24.019Z</time></trkpt><trkpt lat="44.9335328" lon="7.8959271"><ele>243.25</ele><time>2026-04-18T07:49:25.018Z</time></trkpt><trkpt lat="44.9335902" lon="7.8960926"><ele>243.0</ele><time>2026-04-18T07:49:26.019Z</time></trkpt><trkpt lat="44.9336492" lon="7.8962632"><ele>243.0</ele><time>2026-04-18T07:49:27.019Z</time></trkpt><trkpt lat="44.9337118" lon="7.8964392"><ele>243.0</ele><time>2026-04-18T07:49:28.019Z</time></trkpt><trkpt lat="44.9337731" lon="7.8966158"><ele>243.0</ele><time>2026-04-18T07:49:29.018Z</time></trkpt><trkpt lat="44.9338391" lon="7.8968046"><ele>243.0</ele><time>2026-04-18T07:49:30.019Z</time></trkpt><trkpt lat="44.9339084" lon="7.8970036"><ele>243.0</ele><time>2026-04-18T07:49:31.018Z</time></trkpt><trkpt lat="44.9339824" lon="7.8972148"><ele>243.0</ele><time>2026-04-18T07:49:32.019Z</time></trkpt><trkpt lat="44.9340579" lon="7.8974342"><ele>243.0</ele><time>2026-04-18T07:49:33.019Z</time></trkpt><trkpt lat="44.9341384" lon="7.8976649"><ele>242.66666666666669</ele><time>2026-04-18T07:49:34.019Z</time></trkpt><trkpt lat="44.9342215" lon="7.8979043"><ele>242.33333333333334</ele><time>2026-04-18T07:49:35.019Z</time></trkpt><trkpt lat="44.9343082" lon="7.8981497"><ele>242.0</ele><time>2026-04-18T07:49:36.019Z</time></trkpt><trkpt lat="44.9343933" lon="7.8983949"><ele>242.33333333333334</ele><time>2026-04-18T07:49:37.018Z</time></trkpt><trkpt lat="44.9344806" lon="7.8986381"><ele>242.66666666666669</ele><time>2026-04-18T07:49:38.019Z</time></trkpt><trkpt lat="44.9345657" lon="7.8988783"><ele>243.0</ele><time>2026-04-18T07:49:39.019Z</time></trkpt><trkpt lat="44.9346494" lon="7.899121"><ele>244.0</ele><time>2026-04-18T07:49:40.019Z</time></trkpt><trkpt lat="44.9347344" lon="7.8993634"><ele>245.0</ele><time>2026-04-18T07:49:41.018Z</time></trkpt><trkpt lat="44.9348195" lon="7.8996064"><ele>246.0</ele><time>2026-04-18T07:49:42.018Z</time></trkpt><trkpt lat="44.9349053" lon="7.8998525"><ele>246.0</ele><time>2026-04-18T07:49:43.018Z</time></trkpt><trkpt lat="44.9349882" lon="7.9000932"><ele>246.0</ele><time>2026-04-18T07:49:44.018Z</time></trkpt><trkpt lat="44.9350713" lon="7.9003328"><ele>246.0</ele><time>2026-04-18T07:49:45.018Z</time></trkpt><trkpt lat="44.9351518" lon="7.9005718"><ele>246.0</ele><time>2026-04-18T07:49:46.018Z</time></trkpt><trkpt lat="44.9352338" lon="7.9008136"><ele>246.0</ele><time>2026-04-18T07:49:47.019Z</time></trkpt><trkpt lat="44.9353117" lon="7.9010516"><ele>246.0</ele><time>2026-04-18T07:49:48.019Z</time></trkpt><trkpt lat="44.9353844" lon="7.9012842"><ele>246.0</ele><time>2026-04-18T07:49:49.019Z</time></trkpt><trkpt lat="44.9354528" lon="7.901505"><ele>246.0</ele><time>2026-04-18T07:49:50.018Z</time></trkpt><trkpt lat="44.9355202" lon="7.9017183"><ele>246.0</ele><time>2026-04-18T07:49:51.019Z</time></trkpt><trkpt lat="44.9355838" lon="7.9019301"><ele>246.33333333333331</ele><time>2026-04-18T07:49:52.019Z</time></trkpt><trkpt lat="44.9356501" lon="7.9021437"><ele>246.66666666666666</ele><time>2026-04-18T07:49:53.018Z</time></trkpt><trkpt lat="44.935717" lon="7.9023617"><ele>247.0</ele><time>2026-04-18T07:49:54.019Z</time></trkpt><trkpt lat="44.9357823" lon="7.9025821"><ele>248.66666666666666</ele><time>2026-04-18T07:49:55.019Z</time></trkpt><trkpt lat="44.9358479" lon="7.9028009"><ele>250.33333333333331</ele><time>2026-04-18T07:49:56.019Z</time></trkpt><trkpt lat="44.935913" lon="7.9030166"><ele>252.0</ele><time>2026-04-18T07:49:57.018Z</time></trkpt><trkpt lat="44.9359786" lon="7.9032308"><ele>252.0</ele><time>2026-04-18T07:49:58.019Z</time></trkpt><trkpt lat="44.936048" lon="7.9034491"><ele>252.0</ele><time>2026-04-18T07:49:59.019Z</time></trkpt><trkpt lat="44.9361158" lon="7.9036648"><ele>252.0</ele><time>2026-04-18T07:50:00.019Z</time></trkpt><trkpt lat="44.9361811" lon="7.9038788"><ele>252.0</ele><time>2026-04-18T07:50:01.019Z</time></trkpt><trkpt lat="44.9362453" lon="7.9040914"><ele>252.0</ele><time>2026-04-18T07:50:02.019Z</time></trkpt><trkpt lat="44.9363103" lon="7.9043028"><ele>252.0</ele><time>2026-04-18T07:50:03.019Z</time></trkpt><trkpt lat="44.9363756" lon="7.9045137"><ele>251.75</ele><time>2026-04-18T07:50:04.019Z</time></trkpt><trkpt lat="44.936441" lon="7.9047223"><ele>251.5</ele><time>2026-04-18T07:50:05.018Z</time></trkpt><trkpt lat="44.9365014" lon="7.9049132"><ele>251.25</ele><time>2026-04-18T07:50:06.018Z</time></trkpt><trkpt lat="44.9365539" lon="7.9050837"><ele>251.0</ele><time>2026-04-18T07:50:07.019Z</time></trkpt><trkpt lat="44.9366049" lon="7.9052472"><ele>251.0</ele><time>2026-04-18T07:50:08.019Z</time></trkpt><trkpt lat="44.9366532" lon="7.9054052"><ele>251.0</ele><time>2026-04-18T07:50:09.019Z</time></trkpt><trkpt lat="44.9367023" lon="7.9055662"><ele>251.0</ele><time>2026-04-18T07:50:10.018Z</time></trkpt><trkpt lat="44.9367509" lon="7.9057386"><ele>251.0</ele><time>2026-04-18T07:50:11.018Z</time></trkpt><trkpt lat="44.9368032" lon="7.9059164"><ele>250.75</ele><time>2026-04-18T07:50:12.019Z</time></trkpt><trkpt lat="44.936859" lon="7.9060994"><ele>250.5</ele><time>2026-04-18T07:50:13.019Z</time></trkpt><trkpt lat="44.9369163" lon="7.9062882"><ele>250.25</ele><time>2026-04-18T07:50:14.019Z</time></trkpt><trkpt lat="44.9369754" lon="7.9064826"><ele>250.0</ele><time>2026-04-18T07:50:15.019Z</time></trkpt><trkpt lat="44.9370363" lon="7.9066823"><ele>250.0</ele><time>2026-04-18T07:50:16.019Z</time></trkpt><trkpt lat="44.9370982" lon="7.9068894"><ele>250.0</ele><time>2026-04-18T07:50:17.019Z</time></trkpt><trkpt lat="44.9371638" lon="7.9071029"><ele>250.0</ele><time>2026-04-18T07:50:18.018Z</time></trkpt><trkpt lat="44.93723" lon="7.907326"><ele>250.0</ele><time>2026-04-18T07:50:19.018Z</time></trkpt><trkpt lat="44.9372972" lon="7.9075558"><ele>250.0</ele><time>2026-04-18T07:50:20.018Z</time></trkpt><trkpt lat="44.9373679" lon="7.9077905"><ele>250.0</ele><time>2026-04-18T07:50:21.019Z</time></trkpt><trkpt lat="44.9374416" lon="7.9080301"><ele>251.0</ele><time>2026-04-18T07:50:22.019Z</time></trkpt><trkpt lat="44.9375174" lon="7.9082775"><ele>252.0</ele><time>2026-04-18T07:50:23.018Z</time></trkpt><trkpt lat="44.9375939" lon="7.9085319"><ele>253.0</ele><time>2026-04-18T07:50:24.019Z</time></trkpt><trkpt lat="44.9376717" lon="7.9087909"><ele>253.0</ele><time>2026-04-18T07:50:25.018Z</time></trkpt><trkpt lat="44.9377497" lon="7.9090522"><ele>253.0</ele><time>2026-04-18T07:50:26.018Z</time></trkpt><trkpt lat="44.9378295" lon="7.9093176"><ele>253.0</ele><time>2026-04-18T07:50:27.019Z</time></trkpt><trkpt lat="44.9379101" lon="7.9095805"><ele>253.0</ele><time>2026-04-18T07:50:28.019Z</time></trkpt><trkpt lat="44.9379923" lon="7.9098451"><ele>253.0</ele><time>2026-04-18T07:50:29.019Z</time></trkpt><trkpt lat="44.9380721" lon="7.9101121"><ele>253.0</ele><time>2026-04-18T07:50:30.019Z</time></trkpt><trkpt lat="44.9381521" lon="7.9103759"><ele>253.0</ele><time>2026-04-18T07:50:31.019Z</time></trkpt><trkpt lat="44.9382324" lon="7.9106423"><ele>253.0</ele><time>2026-04-18T07:50:32.018Z</time></trkpt><trkpt lat="44.9383151" lon="7.9109074"><ele>253.0</ele><time>2026-04-18T07:50:33.018Z</time></trkpt><trkpt lat="44.9383969" lon="7.9111741"><ele>252.33333333333331</ele><time>2026-04-18T07:50:34.019Z</time></trkpt><trkpt lat="44.9384812" lon="7.9114506"><ele>251.66666666666669</ele><time>2026-04-18T07:50:35.019Z</time></trkpt><trkpt lat="44.93857" lon="7.9117369"><ele>251.0</ele><time>2026-04-18T07:50:36.019Z</time></trkpt><trkpt lat="44.9386586" lon="7.9120344"><ele>252.5</ele><time>2026-04-18T07:50:37.019Z</time></trkpt><trkpt lat="44.9387518" lon="7.9123422"><ele>254.0</ele><time>2026-04-18T07:50:38.019Z</time></trkpt><trkpt lat="44.9388473" lon="7.9126605"><ele>254.0</ele><time>2026-04-18T07:50:39.019Z</time></trkpt><trkpt lat="44.9389444" lon="7.912982"><ele>254.0</ele><time>2026-04-18T07:50:40.018Z</time></trkpt><trkpt lat="44.9390419" lon="7.9133029"><ele>253.5</ele><time>2026-04-18T07:50:41.018Z</time></trkpt><trkpt lat="44.9391356" lon="7.9136169"><ele>253.0</ele><time>2026-04-18T07:50:42.019Z</time></trkpt><trkpt lat="44.9392304" lon="7.9139292"><ele>254.5</ele><time>2026-04-18T07:50:43.018Z</time></trkpt><trkpt lat="44.939325" lon="7.9142407"><ele>256.0</ele><time>2026-04-18T07:50:44.018Z</time></trkpt><trkpt lat="44.9394188" lon="7.9145497"><ele>256.0</ele><time>2026-04-18T07:50:45.019Z</time></trkpt><trkpt lat="44.9395126" lon="7.9148614"><ele>256.0</ele><time>2026-04-18T07:50:46.019Z</time></trkpt><trkpt lat="44.9396085" lon="7.9151739"><ele>256.5</ele><time>2026-04-18T07:50:47.019Z</time></trkpt><trkpt lat="44.939704" lon="7.9154886"><ele>257.0</ele><time>2026-04-18T07:50:48.018Z</time></trkpt><trkpt lat="44.9397962" lon="7.9158061"><ele>256.5</ele><time>2026-04-18T07:50:49.019Z</time></trkpt><trkpt lat="44.9398868" lon="7.916126"><ele>256.0</ele><time>2026-04-18T07:50:50.019Z</time></trkpt><trkpt lat="44.939977" lon="7.916454"><ele>254.5</ele><time>2026-04-18T07:50:51.018Z</time></trkpt><trkpt lat="44.9400615" lon="7.9167933"><ele>253.0</ele><time>2026-04-18T07:50:52.018Z</time></trkpt><trkpt lat="44.940142" lon="7.9171431"><ele>253.0</ele><time>2026-04-18T07:50:53.019Z</time></trkpt><trkpt lat="44.9402181" lon="7.917501"><ele>253.0</ele><time>2026-04-18T07:50:54.019Z</time></trkpt><trkpt lat="44.9402951" lon="7.917863"><ele>253.0</ele><time>2026-04-18T07:50:55.019Z</time></trkpt><trkpt lat="44.9403705" lon="7.9182255"><ele>253.0</ele><time>2026-04-18T07:50:56.019Z</time></trkpt><trkpt lat="44.9404434" lon="7.9185818"><ele>253.0</ele><time>2026-04-18T07:50:57.018Z</time></trkpt><trkpt lat="44.9405136" lon="7.9189231"><ele>253.0</ele><time>2026-04-18T07:50:58.018Z</time></trkpt><trkpt lat="44.9405834" lon="7.9192504"><ele>253.5</ele><time>2026-04-18T07:50:59.018Z</time></trkpt><trkpt lat="44.9406487" lon="7.9195667"><ele>254.0</ele><time>2026-04-18T07:51:00.019Z</time></trkpt><trkpt lat="44.9407095" lon="7.9198724"><ele>254.0</ele><time>2026-04-18T07:51:01.018Z</time></trkpt><trkpt lat="44.9407708" lon="7.9201659"><ele>254.0</ele><time>2026-04-18T07:51:02.019Z</time></trkpt><trkpt lat="44.9408298" lon="7.920449"><ele>254.0</ele><time>2026-04-18T07:51:03.018Z</time></trkpt><trkpt lat="44.940886" lon="7.9207314"><ele>254.33333333333334</ele><time>2026-04-18T07:51:04.018Z</time></trkpt><trkpt lat="44.9409458" lon="7.9210158"><ele>254.66666666666669</ele><time>2026-04-18T07:51:05.018Z</time></trkpt><trkpt lat="44.9410019" lon="7.9212988"><ele>255.0</ele><time>2026-04-18T07:51:06.019Z</time></trkpt><trkpt lat="44.9410609" lon="7.9215853"><ele>255.66666666666669</ele><time>2026-04-18T07:51:07.019Z</time></trkpt><trkpt lat="44.9411218" lon="7.9218711"><ele>256.33333333333337</ele><time>2026-04-18T07:51:08.018Z</time></trkpt><trkpt lat="44.9411806" lon="7.9221581"><ele>257.0</ele><time>2026-04-18T07:51:09.019Z</time></trkpt><trkpt lat="44.9412415" lon="7.9224441"><ele>257.6666666666667</ele><time>2026-04-18T07:51:10.018Z</time></trkpt><trkpt lat="44.9413051" lon="7.9227266"><ele>258.3333333333333</ele><time>2026-04-18T07:51:11.018Z</time></trkpt><trkpt lat="44.9413664" lon="7.9230075"><ele>259.0</ele><time>2026-04-18T07:51:12.018Z</time></trkpt><trkpt lat="44.9414273" lon="7.9232919"><ele>259.0</ele><time>2026-04-18T07:51:13.019Z</time></trkpt><trkpt lat="44.9414878" lon="7.9235783"><ele>259.0</ele><time>2026-04-18T07:51:14.018Z</time></trkpt><trkpt lat="44.9415459" lon="7.9238607"><ele>259.0</ele><time>2026-04-18T07:51:15.019Z</time></trkpt><trkpt lat="44.9416028" lon="7.9241429"><ele>258.3333333333333</ele><time>2026-04-18T07:51:16.019Z</time></trkpt><trkpt lat="44.9416603" lon="7.9244217"><ele>257.6666666666667</ele><time>2026-04-18T07:51:17.019Z</time></trkpt><trkpt lat="44.9417203" lon="7.9246982"><ele>257.0</ele><time>2026-04-18T07:51:18.019Z</time></trkpt><trkpt lat="44.9417808" lon="7.924979"><ele>257.33333333333337</ele><time>2026-04-18T07:51:19.019Z</time></trkpt><trkpt lat="44.9418442" lon="7.9252765"><ele>257.6666666666667</ele><time>2026-04-18T07:51:20.019Z</time></trkpt><trkpt lat="44.94191" lon="7.9255867"><ele>258.0</ele><time>2026-04-18T07:51:21.018Z</time></trkpt><trkpt lat="44.9419773" lon="7.9259079"><ele>259.0</ele><time>2026-04-18T07:51:22.019Z</time></trkpt><trkpt lat="44.9420474" lon="7.9262378"><ele>260.0</ele><time>2026-04-18T07:51:23.018Z</time></trkpt><trkpt lat="44.942119" lon="7.9265776"><ele>264.0</ele><time>2026-04-18T07:51:24.018Z</time></trkpt><trkpt lat="44.9421905" lon="7.926923"><ele>268.0</ele><time>2026-04-18T07:51:25.019Z</time></trkpt><trkpt lat="44.9422605" lon="7.9272643"><ele>264.5</ele><time>2026-04-18T07:51:26.019Z</time></trkpt><trkpt lat="44.9423291" lon="7.927601"><ele>261.0</ele><time>2026-04-18T07:51:27.018Z</time></trkpt><trkpt lat="44.9423945" lon="7.927933"><ele>261.0</ele><time>2026-04-18T07:51:28.019Z</time></trkpt><trkpt lat="44.9424507" lon="7.9282563"><ele>261.0</ele><time>2026-04-18T07:51:29.019Z</time></trkpt><trkpt lat="44.9424915" lon="7.9285715"><ele>260.0</ele><time>2026-04-18T07:51:30.019Z</time></trkpt><trkpt lat="44.9425132" lon="7.9288798"><ele>259.0</ele><time>2026-04-18T07:51:31.018Z</time></trkpt><trkpt lat="44.9425169" lon="7.929179"><ele>258.0</ele><time>2026-04-18T07:51:32.018Z</time></trkpt><trkpt lat="44.9425109" lon="7.9294615"><ele>258.0</ele><time>2026-04-18T07:51:33.019Z</time></trkpt><trkpt lat="44.9425029" lon="7.9297354"><ele>258.0</ele><time>2026-04-18T07:51:34.019Z</time></trkpt><trkpt lat="44.942497" lon="7.9300069"><ele>258.0</ele><time>2026-04-18T07:51:35.019Z</time></trkpt><trkpt lat="44.942491" lon="7.9302764"><ele>258.0</ele><time>2026-04-18T07:51:36.018Z</time></trkpt><trkpt lat="44.9424836" lon="7.9305362"><ele>258.0</ele><time>2026-04-18T07:51:37.018Z</time></trkpt><trkpt lat="44.9424777" lon="7.9307776"><ele>258.0</ele><time>2026-04-18T07:51:38.018Z</time></trkpt><trkpt lat="44.9424703" lon="7.9309959"><ele>258.25</ele><time>2026-04-18T07:51:39.018Z</time></trkpt><trkpt lat="44.9424623" lon="7.9311839"><ele>258.5</ele><time>2026-04-18T07:51:40.018Z</time></trkpt><trkpt lat="44.9424552" lon="7.931358"><ele>258.75</ele><time>2026-04-18T07:51:41.019Z</time></trkpt><trkpt lat="44.9424496" lon="7.9315209"><ele>259.0</ele><time>2026-04-18T07:51:42.019Z</time></trkpt><trkpt lat="44.9424441" lon="7.9316706"><ele>258.8</ele><time>2026-04-18T07:51:43.019Z</time></trkpt><trkpt lat="44.9424391" lon="7.9318089"><ele>258.59999999999997</ele><time>2026-04-18T07:51:44.018Z</time></trkpt><trkpt lat="44.9424279" lon="7.9319532"><ele>258.4</ele><time>2026-04-18T07:51:45.019Z</time></trkpt><trkpt lat="44.9424066" lon="7.9321065"><ele>258.2</ele><time>2026-04-18T07:51:46.018Z</time></trkpt><trkpt lat="44.9423786" lon="7.9322661"><ele>258.0</ele><time>2026-04-18T07:51:47.019Z</time></trkpt><trkpt lat="44.9423426" lon="7.9324187"><ele>258.0</ele><time>2026-04-18T07:51:48.019Z</time></trkpt><trkpt lat="44.9422986" lon="7.932555"><ele>258.0</ele><time>2026-04-18T07:51:49.019Z</time></trkpt><trkpt lat="44.9422525" lon="7.9326625"><ele>258.0</ele><time>2026-04-18T07:51:50.019Z</time></trkpt><trkpt lat="44.9422042" lon="7.9327487"><ele>258.0</ele><time>2026-04-18T07:51:51.019Z</time></trkpt><trkpt lat="44.9421519" lon="7.9328284"><ele>258.0</ele><time>2026-04-18T07:51:52.019Z</time></trkpt><trkpt lat="44.9421025" lon="7.932909"><ele>258.0</ele><time>2026-04-18T07:51:53.018Z</time></trkpt><trkpt lat="44.9420524" lon="7.932984"><ele>258.0</ele><time>2026-04-18T07:51:54.018Z</time></trkpt><trkpt lat="44.9419993" lon="7.9330588"><ele>258.0</ele><time>2026-04-18T07:51:55.018Z</time></trkpt><trkpt lat="44.9419409" lon="7.9331355"><ele>258.0</ele><time>2026-04-18T07:51:56.019Z</time></trkpt><trkpt lat="44.9418765" lon="7.9332191"><ele>258.0</ele><time>2026-04-18T07:51:57.019Z</time></trkpt><trkpt lat="44.9418051" lon="7.9333105"><ele>258.0</ele><time>2026-04-18T07:51:58.019Z</time></trkpt><trkpt lat="44.9417223" lon="7.9334232"><ele>258.0</ele><time>2026-04-18T07:51:59.019Z</time></trkpt><trkpt lat="44.9416304" lon="7.9335501"><ele>258.0</ele><time>2026-04-18T07:52:00.019Z</time></trkpt><trkpt lat="44.9415247" lon="7.9336941"><ele>258.0</ele><time>2026-04-18T07:52:01.019Z</time></trkpt><trkpt lat="44.9413997" lon="7.9338624"><ele>258.0</ele><time>2026-04-18T07:52:02.019Z</time></trkpt><trkpt lat="44.9412625" lon="7.9340261"><ele>258.0</ele><time>2026-04-18T07:52:03.018Z</time></trkpt><trkpt lat="44.9411257" lon="7.934182"><ele>258.0</ele><time>2026-04-18T07:52:04.018Z</time></trkpt><trkpt lat="44.9409968" lon="7.9343588"><ele>258.0</ele><time>2026-04-18T07:52:05.018Z</time></trkpt><trkpt lat="44.9408577" lon="7.9345596"><ele>257.6666666666667</ele><time>2026-04-18T07:52:06.019Z</time></trkpt><trkpt lat="44.9407106" lon="7.934746"><ele>257.33333333333337</ele><time>2026-04-18T07:52:07.018Z</time></trkpt><trkpt lat="44.9405774" lon="7.934933"><ele>257.0</ele><time>2026-04-18T07:52:08.018Z</time></trkpt><trkpt lat="44.9404606" lon="7.9351273"><ele>257.0</ele><time>2026-04-18T07:52:09.018Z</time></trkpt><trkpt lat="44.9403562" lon="7.9353222"><ele>257.0</ele><time>2026-04-18T07:52:10.019Z</time></trkpt><trkpt lat="44.9402615" lon="7.9355192"><ele>257.0</ele><time>2026-04-18T07:52:11.019Z</time></trkpt><trkpt lat="44.9401719" lon="7.9357228"><ele>257.33333333333337</ele><time>2026-04-18T07:52:12.019Z</time></trkpt><trkpt lat="44.9400899" lon="7.9359315"><ele>257.6666666666667</ele><time>2026-04-18T07:52:13.019Z</time></trkpt><trkpt lat="44.9400139" lon="7.9361417"><ele>258.0</ele><time>2026-04-18T07:52:14.019Z</time></trkpt><trkpt lat="44.9399447" lon="7.9363518"><ele>258.0</ele><time>2026-04-18T07:52:15.018Z</time></trkpt><trkpt lat="44.9398837" lon="7.9365608"><ele>258.0</ele><time>2026-04-18T07:52:16.018Z</time></trkpt><trkpt lat="44.9398281" lon="7.9367682"><ele>258.0</ele><time>2026-04-18T07:52:17.018Z</time></trkpt><trkpt lat="44.9397782" lon="7.9369792"><ele>258.3333333333333</ele><time>2026-04-18T07:52:18.019Z</time></trkpt><trkpt lat="44.93973" lon="7.937196"><ele>258.66666666666663</ele><time>2026-04-18T07:52:19.018Z</time></trkpt><trkpt lat="44.9396854" lon="7.9374223"><ele>259.0</ele><time>2026-04-18T07:52:20.019Z</time></trkpt><trkpt lat="44.9396435" lon="7.9376525"><ele>259.3333333333333</ele><time>2026-04-18T07:52:21.019Z</time></trkpt><trkpt lat="44.9396103" lon="7.9378848"><ele>259.6666666666667</ele><time>2026-04-18T07:52:22.018Z</time></trkpt><trkpt lat="44.9395839" lon="7.9381101"><ele>260.0</ele><time>2026-04-18T07:52:23.019Z</time></trkpt><trkpt lat="44.9395669" lon="7.9383266"><ele>259.75</ele><time>2026-04-18T07:52:24.019Z</time></trkpt><trkpt lat="44.9395584" lon="7.9385337"><ele>259.5</ele><time>2026-04-18T07:52:25.019Z</time></trkpt><trkpt lat="44.9395527" lon="7.938738"><ele>259.25</ele><time>2026-04-18T07:52:26.019Z</time></trkpt><trkpt lat="44.9395498" lon="7.9389419"><ele>259.0</ele><time>2026-04-18T07:52:27.018Z</time></trkpt><trkpt lat="44.939548" lon="7.9391487"><ele>258.75</ele><time>2026-04-18T07:52:28.018Z</time></trkpt><trkpt lat="44.9395496" lon="7.9393576"><ele>258.5</ele><time>2026-04-18T07:52:29.019Z</time></trkpt><trkpt lat="44.9395507" lon="7.9395688"><ele>258.25</ele><time>2026-04-18T07:52:30.018Z</time></trkpt><trkpt lat="44.9395495" lon="7.9397831"><ele>258.0</ele><time>2026-04-18T07:52:31.019Z</time></trkpt><trkpt lat="44.9395461" lon="7.9399994"><ele>258.6666666666667</ele><time>2026-04-18T07:52:32.019Z</time></trkpt><trkpt lat="44.9395443" lon="7.9402184"><ele>259.33333333333337</ele><time>2026-04-18T07:52:33.019Z</time></trkpt><trkpt lat="44.939543" lon="7.9404372"><ele>260.0</ele><time>2026-04-18T07:52:34.018Z</time></trkpt><trkpt lat="44.9395415" lon="7.9406545"><ele>260.0</ele><time>2026-04-18T07:52:35.019Z</time></trkpt><trkpt lat="44.9395414" lon="7.9408645"><ele>260.0</ele><time>2026-04-18T07:52:36.019Z</time></trkpt><trkpt lat="44.9395415" lon="7.9410677"><ele>260.0</ele><time>2026-04-18T07:52:37.019Z</time></trkpt><trkpt lat="44.9395397" lon="7.9412727"><ele>260.0</ele><time>2026-04-18T07:52:38.018Z</time></trkpt><trkpt lat="44.939539" lon="7.9414791"><ele>260.25</ele><time>2026-04-18T07:52:39.019Z</time></trkpt><trkpt lat="44.9395358" lon="7.9416865"><ele>260.5</ele><time>2026-04-18T07:52:40.019Z</time></trkpt><trkpt lat="44.9395337" lon="7.9418936"><ele>260.75</ele><time>2026-04-18T07:52:41.019Z</time></trkpt><trkpt lat="44.9395284" lon="7.9420982"><ele>261.0</ele><time>2026-04-18T07:52:42.019Z</time></trkpt><trkpt lat="44.9395187" lon="7.9423018"><ele>261.0</ele><time>2026-04-18T07:52:43.018Z</time></trkpt><trkpt lat="44.9395041" lon="7.9425056"><ele>261.0</ele><time>2026-04-18T07:52:44.019Z</time></trkpt><trkpt lat="44.9394834" lon="7.9427128"><ele>261.0</ele><time>2026-04-18T07:52:45.019Z</time></trkpt><trkpt lat="44.9394572" lon="7.9429176"><ele>261.0</ele><time>2026-04-18T07:52:46.019Z</time></trkpt><trkpt lat="44.9394252" lon="7.9431232"><ele>260.6666666666667</ele><time>2026-04-18T07:52:47.018Z</time></trkpt><trkpt lat="44.9393848" lon="7.9433331"><ele>260.33333333333337</ele><time>2026-04-18T07:52:48.019Z</time></trkpt><trkpt lat="44.9393358" lon="7.9435458"><ele>260.0</ele><time>2026-04-18T07:52:49.019Z</time></trkpt><trkpt lat="44.9392811" lon="7.9437636"><ele>260.0</ele><time>2026-04-18T07:52:50.018Z</time></trkpt><trkpt lat="44.9392228" lon="7.9439813"><ele>260.0</ele><time>2026-04-18T07:52:51.018Z</time></trkpt><trkpt lat="44.9391617" lon="7.9441963"><ele>260.0</ele><time>2026-04-18T07:52:52.018Z</time></trkpt><trkpt lat="44.9390989" lon="7.9444011"><ele>259.5</ele><time>2026-04-18T07:52:53.019Z</time></trkpt><trkpt lat="44.9390319" lon="7.944592"><ele>259.0</ele><time>2026-04-18T07:52:54.019Z</time></trkpt><trkpt lat="44.9389646" lon="7.9447756"><ele>258.5</ele><time>2026-04-18T07:52:55.019Z</time></trkpt><trkpt lat="44.9388943" lon="7.9449493"><ele>258.0</ele><time>2026-04-18T07:52:56.018Z</time></trkpt><trkpt lat="44.9388187" lon="7.9451194"><ele>257.75</ele><time>2026-04-18T07:52:57.019Z</time></trkpt><trkpt lat="44.9387366" lon="7.9452883"><ele>257.5</ele><time>2026-04-18T07:52:58.019Z</time></trkpt><trkpt lat="44.9386494" lon="7.945455"><ele>257.25</ele><time>2026-04-18T07:52:59.019Z</time></trkpt><trkpt lat="44.9385588" lon="7.945626"><ele>257.0</ele><time>2026-04-18T07:53:00.019Z</time></trkpt><trkpt lat="44.938467" lon="7.9457964"><ele>258.0</ele><time>2026-04-18T07:53:01.019Z</time></trkpt><trkpt lat="44.9383747" lon="7.9459641"><ele>259.0</ele><time>2026-04-18T07:53:02.019Z</time></trkpt><trkpt lat="44.9382825" lon="7.946133"><ele>260.0</ele><time>2026-04-18T07:53:03.019Z</time></trkpt><trkpt lat="44.9381927" lon="7.9463019"><ele>260.0</ele><time>2026-04-18T07:53:04.018Z</time></trkpt><trkpt lat="44.9381027" lon="7.9464725"><ele>260.0</ele><time>2026-04-18T07:53:05.018Z</time></trkpt><trkpt lat="44.938012" lon="7.9466446"><ele>260.0</ele><time>2026-04-18T07:53:06.019Z</time></trkpt><trkpt lat="44.9379184" lon="7.9468207"><ele>260.0</ele><time>2026-04-18T07:53:07.019Z</time></trkpt><trkpt lat="44.9378209" lon="7.9470005"><ele>260.0</ele><time>2026-04-18T07:53:08.018Z</time></trkpt><trkpt lat="44.9377194" lon="7.9471846"><ele>260.0</ele><time>2026-04-18T07:53:09.019Z</time></trkpt><trkpt lat="44.9376215" lon="7.9473663"><ele>259.33333333333337</ele><time>2026-04-18T07:53:10.018Z</time></trkpt><trkpt lat="44.9375216" lon="7.9475503"><ele>258.6666666666667</ele><time>2026-04-18T07:53:11.019Z</time></trkpt><trkpt lat="44.9374191" lon="7.9477391"><ele>258.0</ele><time>2026-04-18T07:53:12.018Z</time></trkpt><trkpt lat="44.9373197" lon="7.9479219"><ele>258.0</ele><time>2026-04-18T07:53:13.019Z</time></trkpt><trkpt lat="44.937224" lon="7.948098"><ele>258.0</ele><time>2026-04-18T07:53:14.018Z</time></trkpt><trkpt lat="44.9371302" lon="7.9482716"><ele>258.0</ele><time>2026-04-18T07:53:15.018Z</time></trkpt><trkpt lat="44.9370368" lon="7.9484444"><ele>257.6666666666667</ele><time>2026-04-18T07:53:16.018Z</time></trkpt><trkpt lat="44.9369435" lon="7.9486146"><ele>257.33333333333337</ele><time>2026-04-18T07:53:17.019Z</time></trkpt><trkpt lat="44.9368501" lon="7.9487829"><ele>257.0</ele><time>2026-04-18T07:53:18.019Z</time></trkpt><trkpt lat="44.9367557" lon="7.9489495"><ele>257.33333333333337</ele><time>2026-04-18T07:53:19.019Z</time></trkpt><trkpt lat="44.9366597" lon="7.9491144"><ele>257.6666666666667</ele><time>2026-04-18T07:53:20.018Z</time></trkpt><trkpt lat="44.9365601" lon="7.9492807"><ele>258.0</ele><time>2026-04-18T07:53:21.019Z</time></trkpt><trkpt lat="44.9364594" lon="7.9494492"><ele>258.3333333333333</ele><time>2026-04-18T07:53:22.019Z</time></trkpt><trkpt lat="44.9363576" lon="7.9496244"><ele>258.66666666666663</ele><time>2026-04-18T07:53:23.018Z</time></trkpt><trkpt lat="44.9362583" lon="7.9498043"><ele>259.0</ele><time>2026-04-18T07:53:24.018Z</time></trkpt><trkpt lat="44.9361604" lon="7.9499873"><ele>258.66666666666663</ele><time>2026-04-18T07:53:25.018Z</time></trkpt><trkpt lat="44.9360602" lon="7.9501765"><ele>258.3333333333333</ele><time>2026-04-18T07:53:26.019Z</time></trkpt><trkpt lat="44.9359608" lon="7.9503702"><ele>258.0</ele><time>2026-04-18T07:53:27.018Z</time></trkpt><trkpt lat="44.9358637" lon="7.9505681"><ele>258.0</ele><time>2026-04-18T07:53:28.019Z</time></trkpt><trkpt lat="44.9357655" lon="7.9507645"><ele>258.0</ele><time>2026-04-18T07:53:29.019Z</time></trkpt><trkpt lat="44.9356652" lon="7.9509603"><ele>258.0</ele><time>2026-04-18T07:53:30.019Z</time></trkpt><trkpt lat="44.9355627" lon="7.9511542"><ele>258.0</ele><time>2026-04-18T07:53:31.019Z</time></trkpt><trkpt lat="44.9354577" lon="7.951348"><ele>258.0</ele><time>2026-04-18T07:53:32.019Z</time></trkpt><trkpt lat="44.9353507" lon="7.9515434"><ele>258.0</ele><time>2026-04-18T07:53:33.019Z</time></trkpt><trkpt lat="44.9352429" lon="7.9517362"><ele>258.0</ele><time>2026-04-18T07:53:34.018Z</time></trkpt><trkpt lat="44.9351354" lon="7.9519168"><ele>258.0</ele><time>2026-04-18T07:53:35.018Z</time></trkpt><trkpt lat="44.9350343" lon="7.9521"><ele>258.0</ele><time>2026-04-18T07:53:36.018Z</time></trkpt><trkpt lat="44.9349381" lon="7.9522748"><ele>258.0</ele><time>2026-04-18T07:53:37.019Z</time></trkpt><trkpt lat="44.9348397" lon="7.9524512"><ele>258.0</ele><time>2026-04-18T07:53:38.019Z</time></trkpt><trkpt lat="44.9347393" lon="7.9526331"><ele>258.0</ele><time>2026-04-18T07:53:39.019Z</time></trkpt><trkpt lat="44.9346391" lon="7.9528191"><ele>257.0</ele><time>2026-04-18T07:53:40.019Z</time></trkpt><trkpt lat="44.9345432" lon="7.9529997"><ele>256.0</ele><time>2026-04-18T07:53:41.019Z</time></trkpt><trkpt lat="44.9344502" lon="7.9531724"><ele>255.0</ele><time>2026-04-18T07:53:42.019Z</time></trkpt><trkpt lat="44.9343616" lon="7.9533388"><ele>254.5</ele><time>2026-04-18T07:53:43.019Z</time></trkpt><trkpt lat="44.9342769" lon="7.9534963"><ele>254.0</ele><time>2026-04-18T07:53:44.019Z</time></trkpt><trkpt lat="44.9341945" lon="7.9536479"><ele>253.5</ele><time>2026-04-18T07:53:45.019Z</time></trkpt><trkpt lat="44.9341145" lon="7.9537934"><ele>253.0</ele><time>2026-04-18T07:53:46.019Z</time></trkpt><trkpt lat="44.934038" lon="7.9539361"><ele>253.75</ele><time>2026-04-18T07:53:47.018Z</time></trkpt><trkpt lat="44.9339631" lon="7.9540761"><ele>254.5</ele><time>2026-04-18T07:53:48.018Z</time></trkpt><trkpt lat="44.9338869" lon="7.9542124"><ele>255.25</ele><time>2026-04-18T07:53:49.018Z</time></trkpt><trkpt lat="44.9338101" lon="7.9543519"><ele>256.0</ele><time>2026-04-18T07:53:50.019Z</time></trkpt><trkpt lat="44.9337293" lon="7.9544974"><ele>256.0</ele><time>2026-04-18T07:53:51.019Z</time></trkpt><trkpt lat="44.9336473" lon="7.9546467"><ele>256.0</ele><time>2026-04-18T07:53:52.019Z</time></trkpt><trkpt lat="44.9335629" lon="7.9548002"><ele>256.0</ele><time>2026-04-18T07:53:53.019Z</time></trkpt><trkpt lat="44.9334769" lon="7.9549606"><ele>256.0</ele><time>2026-04-18T07:53:54.018Z</time></trkpt><trkpt lat="44.9333895" lon="7.9551251"><ele>256.66666666666663</ele><time>2026-04-18T07:53:55.018Z</time></trkpt><trkpt lat="44.933297" lon="7.9552939"><ele>257.3333333333333</ele><time>2026-04-18T07:53:56.018Z</time></trkpt><trkpt lat="44.9331995" lon="7.9554682"><ele>258.0</ele><time>2026-04-18T07:53:57.018Z</time></trkpt><trkpt lat="44.9331016" lon="7.9556481"><ele>258.0</ele><time>2026-04-18T07:53:58.018Z</time></trkpt><trkpt lat="44.9330009" lon="7.9558325"><ele>258.0</ele><time>2026-04-18T07:53:59.019Z</time></trkpt><trkpt lat="44.9329031" lon="7.9560117"><ele>258.0</ele><time>2026-04-18T07:54:00.019Z</time></trkpt><trkpt lat="44.9328053" lon="7.9561906"><ele>258.3333333333333</ele><time>2026-04-18T07:54:01.018Z</time></trkpt><trkpt lat="44.9327064" lon="7.9563716"><ele>258.66666666666663</ele><time>2026-04-18T07:54:02.019Z</time></trkpt><trkpt lat="44.932608" lon="7.9565505"><ele>259.0</ele><time>2026-04-18T07:54:03.018Z</time></trkpt><trkpt lat="44.9325115" lon="7.956728"><ele>258.0</ele><time>2026-04-18T07:54:04.019Z</time></trkpt><trkpt lat="44.9324144" lon="7.9569055"><ele>257.0</ele><time>2026-04-18T07:54:05.019Z</time></trkpt><trkpt lat="44.9323184" lon="7.9570813"><ele>256.0</ele><time>2026-04-18T07:54:06.019Z</time></trkpt><trkpt lat="44.9322227" lon="7.9572595"><ele>256.0</ele><time>2026-04-18T07:54:07.019Z</time></trkpt><trkpt lat="44.9321236" lon="7.9574414"><ele>256.0</ele><time>2026-04-18T07:54:08.019Z</time></trkpt><trkpt lat="44.9320221" lon="7.9576259"><ele>256.0</ele><time>2026-04-18T07:54:09.018Z</time></trkpt><trkpt lat="44.9319205" lon="7.9578143"><ele>256.66666666666663</ele><time>2026-04-18T07:54:10.019Z</time></trkpt><trkpt lat="44.931817" lon="7.9580053"><ele>257.3333333333333</ele><time>2026-04-18T07:54:11.018Z</time></trkpt><trkpt lat="44.9317142" lon="7.9581909"><ele>258.0</ele><time>2026-04-18T07:54:12.018Z</time></trkpt><trkpt lat="44.9316125" lon="7.9583756"><ele>259.0</ele><time>2026-04-18T07:54:13.019Z</time></trkpt><trkpt lat="44.9315103" lon="7.9585585"><ele>260.0</ele><time>2026-04-18T07:54:14.018Z</time></trkpt><trkpt lat="44.9314089" lon="7.9587413"><ele>261.0</ele><time>2026-04-18T07:54:15.019Z</time></trkpt><trkpt lat="44.9313107" lon="7.9589236"><ele>261.0</ele><time>2026-04-18T07:54:16.019Z</time></trkpt><trkpt lat="44.9312134" lon="7.9591041"><ele>261.0</ele><time>2026-04-18T07:54:17.019Z</time></trkpt><trkpt lat="44.9311187" lon="7.9592779"><ele>261.0</ele><time>2026-04-18T07:54:18.018Z</time></trkpt><trkpt lat="44.9310279" lon="7.9594463"><ele>260.5</ele><time>2026-04-18T07:54:19.019Z</time></trkpt><trkpt lat="44.9309374" lon="7.9596137"><ele>260.0</ele><time>2026-04-18T07:54:20.018Z</time></trkpt><trkpt lat="44.9308479" lon="7.9597788"><ele>259.5</ele><time>2026-04-18T07:54:21.019Z</time></trkpt><trkpt lat="44.9307586" lon="7.9599407"><ele>259.0</ele><time>2026-04-18T07:54:22.018Z</time></trkpt><trkpt lat="44.9306695" lon="7.9601021"><ele>259.0</ele><time>2026-04-18T07:54:23.018Z</time></trkpt><trkpt lat="44.9305822" lon="7.9602656"><ele>259.0</ele><time>2026-04-18T07:54:24.019Z</time></trkpt><trkpt lat="44.9304947" lon="7.9604291"><ele>259.0</ele><time>2026-04-18T07:54:25.018Z</time></trkpt><trkpt lat="44.9304075" lon="7.9605858"><ele>259.0</ele><time>2026-04-18T07:54:26.018Z</time></trkpt><trkpt lat="44.9303206" lon="7.9607435"><ele>258.75</ele><time>2026-04-18T07:54:27.019Z</time></trkpt><trkpt lat="44.9302326" lon="7.9609043"><ele>258.5</ele><time>2026-04-18T07:54:28.018Z</time></trkpt><trkpt lat="44.9301409" lon="7.9610708"><ele>258.25</ele><time>2026-04-18T07:54:29.018Z</time></trkpt><trkpt lat="44.9300436" lon="7.9612433"><ele>258.0</ele><time>2026-04-18T07:54:30.019Z</time></trkpt><trkpt lat="44.9299463" lon="7.9614194"><ele>258.3333333333333</ele><time>2026-04-18T07:54:31.018Z</time></trkpt><trkpt lat="44.929849" lon="7.9615998"><ele>258.66666666666663</ele><time>2026-04-18T07:54:32.019Z</time></trkpt><trkpt lat="44.9297486" lon="7.9617843"><ele>259.0</ele><time>2026-04-18T07:54:33.018Z</time></trkpt><trkpt lat="44.92965" lon="7.9619659"><ele>259.0</ele><time>2026-04-18T07:54:34.018Z</time></trkpt><trkpt lat="44.929555" lon="7.9621409"><ele>259.0</ele><time>2026-04-18T07:54:35.019Z</time></trkpt><trkpt lat="44.9294605" lon="7.9623124"><ele>259.0</ele><time>2026-04-18T07:54:36.018Z</time></trkpt><trkpt lat="44.929368" lon="7.9624824"><ele>258.75</ele><time>2026-04-18T07:54:37.019Z</time></trkpt><trkpt lat="44.9292758" lon="7.9626497"><ele>258.5</ele><time>2026-04-18T07:54:38.019Z</time></trkpt><trkpt lat="44.9291891" lon="7.9628107"><ele>258.25</ele><time>2026-04-18T07:54:39.019Z</time></trkpt><trkpt lat="44.9291061" lon="7.962964"><ele>258.0</ele><time>2026-04-18T07:54:40.018Z</time></trkpt><trkpt lat="44.929025" lon="7.9631137"><ele>258.0</ele><time>2026-04-18T07:54:41.019Z</time></trkpt><trkpt lat="44.9289473" lon="7.9632587"><ele>258.0</ele><time>2026-04-18T07:54:42.018Z</time></trkpt><trkpt lat="44.9288713" lon="7.9633958"><ele>258.0</ele><time>2026-04-18T07:54:43.018Z</time></trkpt><trkpt lat="44.9287977" lon="7.9635337"><ele>258.0</ele><time>2026-04-18T07:54:44.019Z</time></trkpt><trkpt lat="44.9287195" lon="7.9636785"><ele>257.5</ele><time>2026-04-18T07:54:45.019Z</time></trkpt><trkpt lat="44.9286361" lon="7.9638257"><ele>257.0</ele><time>2026-04-18T07:54:46.019Z</time></trkpt><trkpt lat="44.9285528" lon="7.9639753"><ele>256.5</ele><time>2026-04-18T07:54:47.018Z</time></trkpt><trkpt lat="44.9284713" lon="7.9641229"><ele>256.0</ele><time>2026-04-18T07:54:48.018Z</time></trkpt><trkpt lat="44.9283887" lon="7.9642685"><ele>257.0</ele><time>2026-04-18T07:54:49.018Z</time></trkpt><trkpt lat="44.9283087" lon="7.9644157"><ele>258.0</ele><time>2026-04-18T07:54:50.019Z</time></trkpt><trkpt lat="44.9282265" lon="7.9645661"><ele>259.0</ele><time>2026-04-18T07:54:51.019Z</time></trkpt><trkpt lat="44.9281436" lon="7.9647178"><ele>260.0</ele><time>2026-04-18T07:54:52.019Z</time></trkpt><trkpt lat="44.9280615" lon="7.9648708"><ele>260.0</ele><time>2026-04-18T07:54:53.018Z</time></trkpt><trkpt lat="44.927977" lon="7.9650234"><ele>260.0</ele><time>2026-04-18T07:54:54.018Z</time></trkpt><trkpt lat="44.9278935" lon="7.9651767"><ele>260.0</ele><time>2026-04-18T07:54:55.018Z</time></trkpt><trkpt lat="44.9278133" lon="7.9653322"><ele>260.0</ele><time>2026-04-18T07:54:56.018Z</time></trkpt><trkpt lat="44.9277318" lon="7.9654852"><ele>259.75</ele><time>2026-04-18T07:54:57.019Z</time></trkpt><trkpt lat="44.9276486" lon="7.9656379"><ele>259.5</ele><time>2026-04-18T07:54:58.019Z</time></trkpt><trkpt lat="44.9275618" lon="7.965794"><ele>259.25</ele><time>2026-04-18T07:54:59.019Z</time></trkpt><trkpt lat="44.9274748" lon="7.9659499"><ele>259.0</ele><time>2026-04-18T07:55:00.019Z</time></trkpt><trkpt lat="44.9273863" lon="7.9661063"><ele>259.75</ele><time>2026-04-18T07:55:01.019Z</time></trkpt><trkpt lat="44.9272953" lon="7.9662661"><ele>260.5</ele><time>2026-04-18T07:55:02.018Z</time></trkpt><trkpt lat="44.9272055" lon="7.966422"><ele>261.25</ele><time>2026-04-18T07:55:03.018Z</time></trkpt><trkpt lat="44.9271154" lon="7.9665748"><ele>262.0</ele><time>2026-04-18T07:55:04.018Z</time></trkpt><trkpt lat="44.9270232" lon="7.9667328"><ele>262.25</ele><time>2026-04-18T07:55:05.019Z</time></trkpt><trkpt lat="44.926928" lon="7.9668914"><ele>262.5</ele><time>2026-04-18T07:55:06.019Z</time></trkpt><trkpt lat="44.9268349" lon="7.9670481"><ele>262.75</ele><time>2026-04-18T07:55:07.018Z</time></trkpt><trkpt lat="44.9267427" lon="7.9672071"><ele>263.0</ele><time>2026-04-18T07:55:08.019Z</time></trkpt><trkpt lat="44.9266504" lon="7.9673616"><ele>263.25</ele><time>2026-04-18T07:55:09.019Z</time></trkpt><trkpt lat="44.9265559" lon="7.9675216"><ele>263.5</ele><time>2026-04-18T07:55:10.019Z</time></trkpt><trkpt lat="44.9264608" lon="7.9676784"><ele>263.75</ele><time>2026-04-18T07:55:11.019Z</time></trkpt><trkpt lat="44.926364" lon="7.9678372"><ele>264.0</ele><time>2026-04-18T07:55:12.019Z</time></trkpt><trkpt lat="44.9262653" lon="7.9679995"><ele>264.0</ele><time>2026-04-18T07:55:13.018Z</time></trkpt><trkpt lat="44.9261688" lon="7.9681654"><ele>264.0</ele><time>2026-04-18T07:55:14.018Z</time></trkpt><trkpt lat="44.9260728" lon="7.9683298"><ele>264.0</ele><time>2026-04-18T07:55:15.019Z</time></trkpt><trkpt lat="44.9259749" lon="7.9684913"><ele>264.25</ele><time>2026-04-18T07:55:16.018Z</time></trkpt><trkpt lat="44.925877" lon="7.9686538"><ele>264.5</ele><time>2026-04-18T07:55:17.019Z</time></trkpt><trkpt lat="44.9257784" lon="7.9688164"><ele>264.75</ele><time>2026-04-18T07:55:18.018Z</time></trkpt><trkpt lat="44.9256835" lon="7.9689728"><ele>265.0</ele><time>2026-04-18T07:55:19.019Z</time></trkpt><trkpt lat="44.9255905" lon="7.969129"><ele>265.0</ele><time>2026-04-18T07:55:20.018Z</time></trkpt><trkpt lat="44.9254985" lon="7.9692876"><ele>265.0</ele><time>2026-04-18T07:55:21.019Z</time></trkpt><trkpt lat="44.9254044" lon="7.969445"><ele>265.0</ele><time>2026-04-18T07:55:22.019Z</time></trkpt><trkpt lat="44.925305" lon="7.9696083"><ele>265.0</ele><time>2026-04-18T07:55:23.018Z</time></trkpt><trkpt lat="44.9252054" lon="7.969776"><ele>265.0</ele><time>2026-04-18T07:55:24.018Z</time></trkpt><trkpt lat="44.9251033" lon="7.9699458"><ele>265.0</ele><time>2026-04-18T07:55:25.019Z</time></trkpt><trkpt lat="44.9250031" lon="7.9701138"><ele>265.0</ele><time>2026-04-18T07:55:26.018Z</time></trkpt><trkpt lat="44.924904" lon="7.9702792"><ele>265.25</ele><time>2026-04-18T07:55:27.019Z</time></trkpt><trkpt lat="44.9248076" lon="7.9704416"><ele>265.5</ele><time>2026-04-18T07:55:28.019Z</time></trkpt><trkpt lat="44.9247103" lon="7.9706007"><ele>265.75</ele><time>2026-04-18T07:55:29.018Z</time></trkpt><trkpt lat="44.9246146" lon="7.9707629"><ele>266.0</ele><time>2026-04-18T07:55:30.018Z</time></trkpt><trkpt lat="44.9245189" lon="7.9709218"><ele>266.0</ele><time>2026-04-18T07:55:31.019Z</time></trkpt><trkpt lat="44.9244254" lon="7.9710782"><ele>266.0</ele><time>2026-04-18T07:55:32.018Z</time></trkpt><trkpt lat="44.9243338" lon="7.9712363"><ele>266.0</ele><time>2026-04-18T07:55:33.019Z</time></trkpt><trkpt lat="44.924242" lon="7.9713941"><ele>266.0</ele><time>2026-04-18T07:55:34.018Z</time></trkpt><trkpt lat="44.924149" lon="7.9715518"><ele>266.0</ele><time>2026-04-18T07:55:35.019Z</time></trkpt><trkpt lat="44.9240548" lon="7.9717076"><ele>266.0</ele><time>2026-04-18T07:55:36.019Z</time></trkpt><trkpt lat="44.9239563" lon="7.9718687"><ele>266.0</ele><time>2026-04-18T07:55:37.019Z</time></trkpt><trkpt lat="44.9238612" lon="7.9720274"><ele>266.0</ele><time>2026-04-18T07:55:38.019Z</time></trkpt><trkpt lat="44.9237672" lon="7.9721859"><ele>266.0</ele><time>2026-04-18T07:55:39.019Z</time></trkpt><trkpt lat="44.923675" lon="7.972341"><ele>266.0</ele><time>2026-04-18T07:55:40.018Z</time></trkpt><trkpt lat="44.9235851" lon="7.9724899"><ele>266.0</ele><time>2026-04-18T07:55:41.018Z</time></trkpt><trkpt lat="44.9235012" lon="7.9726264"><ele>266.0</ele><time>2026-04-18T07:55:42.018Z</time></trkpt><trkpt lat="44.9234248" lon="7.9727487"><ele>265.83333333333337</ele><time>2026-04-18T07:55:43.019Z</time></trkpt><trkpt lat="44.9233553" lon="7.9728604"><ele>265.6666666666667</ele><time>2026-04-18T07:55:44.019Z</time></trkpt><trkpt lat="44.9232947" lon="7.9729578"><ele>265.5</ele><time>2026-04-18T07:55:45.019Z</time></trkpt><trkpt lat="44.9232438" lon="7.9730411"><ele>265.3333333333333</ele><time>2026-04-18T07:55:46.018Z</time></trkpt><trkpt lat="44.9231989" lon="7.9731173"><ele>265.16666666666663</ele><time>2026-04-18T07:55:47.019Z</time></trkpt><trkpt lat="44.9231565" lon="7.9731859"><ele>265.0</ele><time>2026-04-18T07:55:48.019Z</time></trkpt><trkpt lat="44.9230794" lon="7.9733123"><ele>265.16666666666663</ele><time>2026-04-18T07:55:50.018Z</time></trkpt><trkpt lat="44.9230267" lon="7.9734035"><ele>265.3333333333333</ele><time>2026-04-18T07:55:52.018Z</time></trkpt><trkpt lat="44.9229773" lon="7.9734885"><ele>265.5</ele><time>2026-04-18T07:56:21.018Z</time></trkpt><trkpt lat="44.9229008" lon="7.9736169"><ele>265.6666666666667</ele><time>2026-04-18T07:56:23.018Z</time></trkpt><trkpt lat="44.9228517" lon="7.9737042"><ele>265.83333333333337</ele><time>2026-04-18T07:56:24.019Z</time></trkpt><trkpt lat="44.9227982" lon="7.9738008"><ele>266.0</ele><time>2026-04-18T07:56:25.019Z</time></trkpt><trkpt lat="44.9227454" lon="7.9738958"><ele>266.0</ele><time>2026-04-18T07:56:26.019Z</time></trkpt><trkpt lat="44.9226917" lon="7.9740004"><ele>266.0</ele><time>2026-04-18T07:56:27.018Z</time></trkpt><trkpt lat="44.9226329" lon="7.9741158"><ele>266.0</ele><time>2026-04-18T07:56:28.019Z</time></trkpt><trkpt lat="44.9225715" lon="7.9742451"><ele>266.0</ele><time>2026-04-18T07:56:29.019Z</time></trkpt><trkpt lat="44.9225111" lon="7.9743815"><ele>266.0</ele><time>2026-04-18T07:56:30.018Z</time></trkpt><trkpt lat="44.9224553" lon="7.9745201"><ele>266.0</ele><time>2026-04-18T07:56:31.018Z</time></trkpt><trkpt lat="44.922404" lon="7.9746594"><ele>266.0</ele><time>2026-04-18T07:56:32.019Z</time></trkpt><trkpt lat="44.9223593" lon="7.9748014"><ele>266.0</ele><time>2026-04-18T07:56:33.018Z</time></trkpt><trkpt lat="44.9223176" lon="7.9749513"><ele>266.0</ele><time>2026-04-18T07:56:34.018Z</time></trkpt><trkpt lat="44.9222805" lon="7.9751075"><ele>265.75</ele><time>2026-04-18T07:56:35.018Z</time></trkpt><trkpt lat="44.9222492" lon="7.9752786"><ele>265.5</ele><time>2026-04-18T07:56:36.018Z</time></trkpt><trkpt lat="44.9222196" lon="7.9754543"><ele>265.25</ele><time>2026-04-18T07:56:37.018Z</time></trkpt><trkpt lat="44.9221921" lon="7.975633"><ele>265.0</ele><time>2026-04-18T07:56:38.018Z</time></trkpt><trkpt lat="44.9221638" lon="7.9758171"><ele>265.25</ele><time>2026-04-18T07:56:39.019Z</time></trkpt><trkpt lat="44.9221375" lon="7.9760092"><ele>265.5</ele><time>2026-04-18T07:56:40.019Z</time></trkpt><trkpt lat="44.922111" lon="7.9762052"><ele>265.75</ele><time>2026-04-18T07:56:41.019Z</time></trkpt><trkpt lat="44.9220848" lon="7.9763981"><ele>266.0</ele><time>2026-04-18T07:56:42.019Z</time></trkpt><trkpt lat="44.9220576" lon="7.9765876"><ele>265.0</ele><time>2026-04-18T07:56:43.018Z</time></trkpt><trkpt lat="44.9220306" lon="7.9767757"><ele>264.0</ele><time>2026-04-18T07:56:44.018Z</time></trkpt><trkpt lat="44.9220031" lon="7.9769662"><ele>263.0</ele><time>2026-04-18T07:56:45.018Z</time></trkpt><trkpt lat="44.9219746" lon="7.9771575"><ele>262.0</ele><time>2026-04-18T07:56:46.018Z</time></trkpt><trkpt lat="44.921948" lon="7.977349"><ele>261.25</ele><time>2026-04-18T07:56:47.018Z</time></trkpt><trkpt lat="44.9219205" lon="7.9775413"><ele>260.5</ele><time>2026-04-18T07:56:48.019Z</time></trkpt><trkpt lat="44.9218941" lon="7.9777325"><ele>259.75</ele><time>2026-04-18T07:56:49.019Z</time></trkpt><trkpt lat="44.9218685" lon="7.9779238"><ele>259.0</ele><time>2026-04-18T07:56:50.018Z</time></trkpt><trkpt lat="44.9218431" lon="7.9781031"><ele>259.0</ele><time>2026-04-18T07:56:51.019Z</time></trkpt><trkpt lat="44.9218158" lon="7.9782732"><ele>259.0</ele><time>2026-04-18T07:56:52.019Z</time></trkpt><trkpt lat="44.9217915" lon="7.978445"><ele>259.0</ele><time>2026-04-18T07:56:53.018Z</time></trkpt><trkpt lat="44.9217666" lon="7.9786242"><ele>259.0</ele><time>2026-04-18T07:56:54.019Z</time></trkpt><trkpt lat="44.9217472" lon="7.9788118"><ele>258.75</ele><time>2026-04-18T07:56:55.019Z</time></trkpt><trkpt lat="44.9217323" lon="7.9790063"><ele>258.5</ele><time>2026-04-18T07:56:56.018Z</time></trkpt><trkpt lat="44.9217269" lon="7.9791997"><ele>258.25</ele><time>2026-04-18T07:56:57.019Z</time></trkpt><trkpt lat="44.9217283" lon="7.9793873"><ele>258.0</ele><time>2026-04-18T07:56:58.018Z</time></trkpt><trkpt lat="44.9217409" lon="7.9795718"><ele>257.5</ele><time>2026-04-18T07:56:59.019Z</time></trkpt><trkpt lat="44.9217619" lon="7.9797564"><ele>257.0</ele><time>2026-04-18T07:57:00.019Z</time></trkpt><trkpt lat="44.9217892" lon="7.9799493"><ele>256.5</ele><time>2026-04-18T07:57:01.018Z</time></trkpt><trkpt lat="44.9218213" lon="7.9801469"><ele>256.0</ele><time>2026-04-18T07:57:02.018Z</time></trkpt><trkpt lat="44.9218568" lon="7.9803525"><ele>256.0</ele><time>2026-04-18T07:57:03.019Z</time></trkpt><trkpt lat="44.921894" lon="7.9805629"><ele>256.0</ele><time>2026-04-18T07:57:04.019Z</time></trkpt><trkpt lat="44.9219317" lon="7.9807703"><ele>256.0</ele><time>2026-04-18T07:57:05.018Z</time></trkpt><trkpt lat="44.92197" lon="7.9809726"><ele>256.66666666666663</ele><time>2026-04-18T07:57:06.018Z</time></trkpt><trkpt lat="44.9220088" lon="7.9811754"><ele>257.3333333333333</ele><time>2026-04-18T07:57:07.018Z</time></trkpt><trkpt lat="44.9220506" lon="7.9813791"><ele>258.0</ele><time>2026-04-18T07:57:08.018Z</time></trkpt><trkpt lat="44.9220907" lon="7.9815894"><ele>257.6666666666667</ele><time>2026-04-18T07:57:09.019Z</time></trkpt><trkpt lat="44.9221329" lon="7.9818009"><ele>257.33333333333337</ele><time>2026-04-18T07:57:10.019Z</time></trkpt><trkpt lat="44.9221749" lon="7.9820177"><ele>257.0</ele><time>2026-04-18T07:57:11.018Z</time></trkpt><trkpt lat="44.9222174" lon="7.9822349"><ele>257.0</ele><time>2026-04-18T07:57:12.019Z</time></trkpt><trkpt lat="44.9222616" lon="7.9824541"><ele>257.0</ele><time>2026-04-18T07:57:13.018Z</time></trkpt><trkpt lat="44.9223038" lon="7.9826723"><ele>257.0</ele><time>2026-04-18T07:57:14.018Z</time></trkpt><trkpt lat="44.922345" lon="7.9828874"><ele>257.33333333333337</ele><time>2026-04-18T07:57:15.019Z</time></trkpt><trkpt lat="44.9223861" lon="7.9831016"><ele>257.6666666666667</ele><time>2026-04-18T07:57:16.018Z</time></trkpt><trkpt lat="44.9224264" lon="7.9833119"><ele>258.0</ele><time>2026-04-18T07:57:17.019Z</time></trkpt><trkpt lat="44.9224659" lon="7.9835193"><ele>257.3333333333333</ele><time>2026-04-18T07:57:18.019Z</time></trkpt><trkpt lat="44.9225071" lon="7.9837251"><ele>256.66666666666663</ele><time>2026-04-18T07:57:19.019Z</time></trkpt><trkpt lat="44.9225488" lon="7.9839353"><ele>256.0</ele><time>2026-04-18T07:57:20.018Z</time></trkpt><trkpt lat="44.9225934" lon="7.9841502"><ele>253.66666666666666</ele><time>2026-04-18T07:57:21.018Z</time></trkpt><trkpt lat="44.9226395" lon="7.9843737"><ele>251.33333333333331</ele><time>2026-04-18T07:57:22.018Z</time></trkpt><trkpt lat="44.9226863" lon="7.9845993"><ele>249.0</ele><time>2026-04-18T07:57:23.019Z</time></trkpt><trkpt lat="44.9227382" lon="7.9848263"><ele>250.33333333333331</ele><time>2026-04-18T07:57:24.018Z</time></trkpt><trkpt lat="44.9227976" lon="7.9850544"><ele>251.66666666666666</ele><time>2026-04-18T07:57:25.019Z</time></trkpt><trkpt lat="44.9228642" lon="7.9852758"><ele>253.0</ele><time>2026-04-18T07:57:26.019Z</time></trkpt><trkpt lat="44.9229355" lon="7.9854935"><ele>253.0</ele><time>2026-04-18T07:57:27.019Z</time></trkpt><trkpt lat="44.9230118" lon="7.9857074"><ele>253.0</ele><time>2026-04-18T07:57:28.019Z</time></trkpt><trkpt lat="44.9230979" lon="7.9859171"><ele>253.0</ele><time>2026-04-18T07:57:29.018Z</time></trkpt><trkpt lat="44.9231959" lon="7.9861219"><ele>254.33333333333331</ele><time>2026-04-18T07:57:30.018Z</time></trkpt><trkpt lat="44.9233023" lon="7.9863269"><ele>255.66666666666669</ele><time>2026-04-18T07:57:31.019Z</time></trkpt><trkpt lat="44.9234196" lon="7.9865312"><ele>257.0</ele><time>2026-04-18T07:57:32.019Z</time></trkpt><trkpt lat="44.9235443" lon="7.9867361"><ele>254.0</ele><time>2026-04-18T07:57:33.018Z</time></trkpt><trkpt lat="44.9236746" lon="7.9869484"><ele>251.0</ele><time>2026-04-18T07:57:34.019Z</time></trkpt><trkpt lat="44.9238083" lon="7.9871702"><ele>248.0</ele><time>2026-04-18T07:57:35.019Z</time></trkpt><trkpt lat="44.9239511" lon="7.9873963"><ele>246.5</ele><time>2026-04-18T07:57:36.019Z</time></trkpt><trkpt lat="44.9240984" lon="7.9876304"><ele>245.0</ele><time>2026-04-18T07:57:37.018Z</time></trkpt><trkpt lat="44.9242492" lon="7.9878724"><ele>245.0</ele><time>2026-04-18T07:57:38.018Z</time></trkpt><trkpt lat="44.924404" lon="7.98812"><ele>245.0</ele><time>2026-04-18T07:57:39.018Z</time></trkpt><trkpt lat="44.9245615" lon="7.9883692"><ele>243.0</ele><time>2026-04-18T07:57:40.019Z</time></trkpt><trkpt lat="44.9247186" lon="7.9886179"><ele>241.0</ele><time>2026-04-18T07:57:41.019Z</time></trkpt><trkpt lat="44.9248739" lon="7.9888622"><ele>241.0</ele><time>2026-04-18T07:57:42.018Z</time></trkpt><trkpt lat="44.9250273" lon="7.9891062"><ele>241.0</ele><time>2026-04-18T07:57:43.018Z</time></trkpt><trkpt lat="44.9251799" lon="7.9893469"><ele>242.5</ele><time>2026-04-18T07:57:44.019Z</time></trkpt><trkpt lat="44.9253314" lon="7.9895852"><ele>244.0</ele><time>2026-04-18T07:57:45.019Z</time></trkpt><trkpt lat="44.9254797" lon="7.9898228"><ele>242.33333333333331</ele><time>2026-04-18T07:57:46.018Z</time></trkpt><trkpt lat="44.9256256" lon="7.9900534"><ele>240.66666666666669</ele><time>2026-04-18T07:57:47.019Z</time></trkpt><trkpt lat="44.9257662" lon="7.9902754"><ele>239.0</ele><time>2026-04-18T07:57:48.018Z</time></trkpt><trkpt lat="44.925902" lon="7.9904928"><ele>239.0</ele><time>2026-04-18T07:57:49.018Z</time></trkpt><trkpt lat="44.9260357" lon="7.990706"><ele>239.0</ele><time>2026-04-18T07:57:50.018Z</time></trkpt><trkpt lat="44.9261722" lon="7.9909235"><ele>239.0</ele><time>2026-04-18T07:57:51.019Z</time></trkpt><trkpt lat="44.9263109" lon="7.9911438"><ele>237.66666666666669</ele><time>2026-04-18T07:57:52.019Z</time></trkpt><trkpt lat="44.9264529" lon="7.9913682"><ele>236.33333333333331</ele><time>2026-04-18T07:57:53.019Z</time></trkpt><trkpt lat="44.926592" lon="7.9915888"><ele>235.0</ele><time>2026-04-18T07:57:54.019Z</time></trkpt><trkpt lat="44.9267295" lon="7.9918049"><ele>233.0</ele><time>2026-04-18T07:57:55.019Z</time></trkpt><trkpt lat="44.9268616" lon="7.9920138"><ele>231.0</ele><time>2026-04-18T07:57:56.019Z</time></trkpt><trkpt lat="44.9269921" lon="7.9922203"><ele>229.0</ele><time>2026-04-18T07:57:57.019Z</time></trkpt><trkpt lat="44.927121" lon="7.9924204"><ele>227.66666666666666</ele><time>2026-04-18T07:57:58.019Z</time></trkpt><trkpt lat="44.9272474" lon="7.9926197"><ele>226.33333333333331</ele><time>2026-04-18T07:57:59.019Z</time></trkpt><trkpt lat="44.9273696" lon="7.9928161"><ele>225.0</ele><time>2026-04-18T07:58:00.018Z</time></trkpt><trkpt lat="44.9274855" lon="7.9930157"><ele>225.66666666666669</ele><time>2026-04-18T07:58:01.019Z</time></trkpt><trkpt lat="44.9275819" lon="7.9932264"><ele>226.33333333333334</ele><time>2026-04-18T07:58:02.019Z</time></trkpt><trkpt lat="44.9276429" lon="7.9934496"><ele>227.0</ele><time>2026-04-18T07:58:03.018Z</time></trkpt><trkpt lat="44.9276767" lon="7.9936725"><ele>225.33333333333334</ele><time>2026-04-18T07:58:04.018Z</time></trkpt><trkpt lat="44.9276724" lon="7.9938941"><ele>223.66666666666669</ele><time>2026-04-18T07:58:05.018Z</time></trkpt><trkpt lat="44.9276343" lon="7.9941034"><ele>222.0</ele><time>2026-04-18T07:58:06.019Z</time></trkpt><trkpt lat="44.9275705" lon="7.9943003"><ele>220.66666666666669</ele><time>2026-04-18T07:58:07.018Z</time></trkpt><trkpt lat="44.9274718" lon="7.9945006"><ele>219.33333333333334</ele><time>2026-04-18T07:58:08.018Z</time></trkpt><trkpt lat="44.9273499" lon="7.9947093"><ele>218.0</ele><time>2026-04-18T07:58:09.019Z</time></trkpt><trkpt lat="44.9272119" lon="7.9949268"><ele>217.66666666666669</ele><time>2026-04-18T07:58:10.019Z</time></trkpt><trkpt lat="44.9270589" lon="7.9951445"><ele>217.33333333333331</ele><time>2026-04-18T07:58:11.018Z</time></trkpt><trkpt lat="44.926895" lon="7.9953623"><ele>217.0</ele><time>2026-04-18T07:58:12.018Z</time></trkpt><trkpt lat="44.9267289" lon="7.995581"><ele>216.66666666666666</ele><time>2026-04-18T07:58:13.018Z</time></trkpt><trkpt lat="44.9265648" lon="7.995798"><ele>216.33333333333331</ele><time>2026-04-18T07:58:14.019Z</time></trkpt><trkpt lat="44.9264056" lon="7.9960143"><ele>216.0</ele><time>2026-04-18T07:58:15.018Z</time></trkpt><trkpt lat="44.9262485" lon="7.9962244"><ele>216.0</ele><time>2026-04-18T07:58:16.018Z</time></trkpt><trkpt lat="44.9260916" lon="7.99643"><ele>216.0</ele><time>2026-04-18T07:58:17.019Z</time></trkpt><trkpt lat="44.9259357" lon="7.9966351"><ele>216.0</ele><time>2026-04-18T07:58:18.019Z</time></trkpt><trkpt lat="44.9257798" lon="7.9968402"><ele>213.33333333333331</ele><time>2026-04-18T07:58:19.019Z</time></trkpt><trkpt lat="44.9256261" lon="7.9970457"><ele>210.66666666666666</ele><time>2026-04-18T07:58:20.018Z</time></trkpt><trkpt lat="44.925475" lon="7.9972507"><ele>208.0</ele><time>2026-04-18T07:58:21.019Z</time></trkpt><trkpt lat="44.9253239" lon="7.9974542"><ele>209.33333333333331</ele><time>2026-04-18T07:58:22.018Z</time></trkpt><trkpt lat="44.9251721" lon="7.9976537"><ele>210.66666666666669</ele><time>2026-04-18T07:58:23.018Z</time></trkpt><trkpt lat="44.9250236" lon="7.9978554"><ele>212.0</ele><time>2026-04-18T07:58:24.019Z</time></trkpt><trkpt lat="44.9248772" lon="7.9980541"><ele>210.0</ele><time>2026-04-18T07:58:25.018Z</time></trkpt><trkpt lat="44.924734" lon="7.9982461"><ele>208.0</ele><time>2026-04-18T07:58:26.018Z</time></trkpt><trkpt lat="44.9245912" lon="7.998433"><ele>206.0</ele><time>2026-04-18T07:58:27.019Z</time></trkpt><trkpt lat="44.9244522" lon="7.9986149"><ele>206.0</ele><time>2026-04-18T07:58:28.018Z</time></trkpt><trkpt lat="44.9243162" lon="7.9987937"><ele>206.0</ele><time>2026-04-18T07:58:29.018Z</time></trkpt><trkpt lat="44.9241846" lon="7.9989702"><ele>206.0</ele><time>2026-04-18T07:58:30.018Z</time></trkpt><trkpt lat="44.9240589" lon="7.999145"><ele>202.66666666666669</ele><time>2026-04-18T07:58:31.018Z</time></trkpt><trkpt lat="44.92394" lon="7.9993351"><ele>199.33333333333331</ele><time>2026-04-18T07:58:32.018Z</time></trkpt><trkpt lat="44.9238327" lon="7.9995511"><ele>196.0</ele><time>2026-04-18T07:58:33.019Z</time></trkpt><trkpt lat="44.9237353" lon="7.9997905"><ele>196.0</ele><time>2026-04-18T07:58:34.019Z</time></trkpt><trkpt lat="44.9236426" lon="8.0000436"><ele>196.0</ele><time>2026-04-18T07:58:35.018Z</time></trkpt><trkpt lat="44.9235494" lon="8.0003027"><ele>196.0</ele><time>2026-04-18T07:58:36.018Z</time></trkpt><trkpt lat="44.9234548" lon="8.0005687"><ele>195.33333333333331</ele><time>2026-04-18T07:58:37.019Z</time></trkpt><trkpt lat="44.923359" lon="8.0008448"><ele>194.66666666666669</ele><time>2026-04-18T07:58:38.019Z</time></trkpt><trkpt lat="44.9232627" lon="8.0011251"><ele>194.0</ele><time>2026-04-18T07:58:39.019Z</time></trkpt><trkpt lat="44.9231653" lon="8.0014059"><ele>194.33333333333334</ele><time>2026-04-18T07:58:40.019Z</time></trkpt><trkpt lat="44.9230689" lon="8.0016825"><ele>194.66666666666669</ele><time>2026-04-18T07:58:41.018Z</time></trkpt><trkpt lat="44.9229744" lon="8.0019517"><ele>195.0</ele><time>2026-04-18T07:58:42.019Z</time></trkpt><trkpt lat="44.9228831" lon="8.0022091"><ele>195.0</ele><time>2026-04-18T07:58:43.019Z</time></trkpt><trkpt lat="44.9227989" lon="8.0024535"><ele>195.0</ele><time>2026-04-18T07:58:44.018Z</time></trkpt><trkpt lat="44.9227191" lon="8.0026777"><ele>195.0</ele><time>2026-04-18T07:58:45.019Z</time></trkpt><trkpt lat="44.9226457" lon="8.002883"><ele>195.0</ele><time>2026-04-18T07:58:46.018Z</time></trkpt><trkpt lat="44.922577" lon="8.0030783"><ele>195.0</ele><time>2026-04-18T07:58:47.019Z</time></trkpt><trkpt lat="44.9225108" lon="8.0032697"><ele>195.0</ele><time>2026-04-18T07:58:48.019Z</time></trkpt><trkpt lat="44.9224465" lon="8.0034555"><ele>191.33333333333334</ele><time>2026-04-18T07:58:49.019Z</time></trkpt><trkpt lat="44.9223792" lon="8.0036496"><ele>187.66666666666669</ele><time>2026-04-18T07:58:50.018Z</time></trkpt><trkpt lat="44.9223087" lon="8.0038528"><ele>184.0</ele><time>2026-04-18T07:58:51.019Z</time></trkpt><trkpt lat="44.9222441" lon="8.0040646"><ele>185.0</ele><time>2026-04-18T07:58:52.018Z</time></trkpt><trkpt lat="44.9221924" lon="8.0042762"><ele>186.0</ele><time>2026-04-18T07:58:53.018Z</time></trkpt><trkpt lat="44.9221549" lon="8.0044946"><ele>187.0</ele><time>2026-04-18T07:58:54.018Z</time></trkpt><trkpt lat="44.9221285" lon="8.0047225"><ele>187.0</ele><time>2026-04-18T07:58:55.019Z</time></trkpt><trkpt lat="44.922109" lon="8.0049546"><ele>187.0</ele><time>2026-04-18T07:58:56.019Z</time></trkpt><trkpt lat="44.9220891" lon="8.0051938"><ele>187.0</ele><time>2026-04-18T07:58:57.019Z</time></trkpt><trkpt lat="44.9220675" lon="8.005436"><ele>186.33333333333334</ele><time>2026-04-18T07:58:58.019Z</time></trkpt><trkpt lat="44.9220473" lon="8.0056863"><ele>185.66666666666666</ele><time>2026-04-18T07:58:59.018Z</time></trkpt><trkpt lat="44.922031" lon="8.0059414"><ele>185.0</ele><time>2026-04-18T07:59:00.018Z</time></trkpt><trkpt lat="44.9220115" lon="8.0062013"><ele>184.0</ele><time>2026-04-18T07:59:01.018Z</time></trkpt><trkpt lat="44.9219921" lon="8.0064676"><ele>183.0</ele><time>2026-04-18T07:59:02.018Z</time></trkpt><trkpt lat="44.9219699" lon="8.0067403"><ele>182.0</ele><time>2026-04-18T07:59:03.018Z</time></trkpt><trkpt lat="44.9219495" lon="8.0070152"><ele>181.33333333333331</ele><time>2026-04-18T07:59:04.018Z</time></trkpt><trkpt lat="44.9219299" lon="8.0072876"><ele>180.66666666666666</ele><time>2026-04-18T07:59:05.018Z</time></trkpt><trkpt lat="44.9219103" lon="8.0075537"><ele>180.0</ele><time>2026-04-18T07:59:06.018Z</time></trkpt><trkpt lat="44.9218872" lon="8.0078139"><ele>178.33333333333334</ele><time>2026-04-18T07:59:07.018Z</time></trkpt><trkpt lat="44.9218688" lon="8.0080663"><ele>176.66666666666669</ele><time>2026-04-18T07:59:08.018Z</time></trkpt><trkpt lat="44.9218493" lon="8.0083139"><ele>175.0</ele><time>2026-04-18T07:59:09.018Z</time></trkpt><trkpt lat="44.9218338" lon="8.0085511"><ele>174.0</ele><time>2026-04-18T07:59:10.018Z</time></trkpt><trkpt lat="44.9218176" lon="8.0087799"><ele>173.0</ele><time>2026-04-18T07:59:11.019Z</time></trkpt><trkpt lat="44.9218006" lon="8.009"><ele>172.0</ele><time>2026-04-18T07:59:12.019Z</time></trkpt><trkpt lat="44.9217842" lon="8.0092184"><ele>171.25</ele><time>2026-04-18T07:59:13.018Z</time></trkpt><trkpt lat="44.9217666" lon="8.0094333"><ele>170.5</ele><time>2026-04-18T07:59:14.019Z</time></trkpt><trkpt lat="44.9217514" lon="8.0096379"><ele>169.75</ele><time>2026-04-18T07:59:15.019Z</time></trkpt><trkpt lat="44.921735" lon="8.0098313"><ele>169.0</ele><time>2026-04-18T07:59:16.018Z</time></trkpt><trkpt lat="44.921725" lon="8.0100209"><ele>168.79999999999998</ele><time>2026-04-18T07:59:17.019Z</time></trkpt><trkpt lat="44.9217221" lon="8.0101853"><ele>168.6</ele><time>2026-04-18T07:59:18.019Z</time></trkpt><trkpt lat="44.9217399" lon="8.0103134"><ele>168.4</ele><time>2026-04-18T07:59:19.019Z</time></trkpt><trkpt lat="44.9217892" lon="8.0104199"><ele>168.2</ele><time>2026-04-18T07:59:20.019Z</time></trkpt><trkpt lat="44.921864" lon="8.0104951"><ele>168.0</ele><time>2026-04-18T07:59:21.019Z</time></trkpt><trkpt lat="44.9219601" lon="8.0105534"><ele>169.0</ele><time>2026-04-18T07:59:22.019Z</time></trkpt><trkpt lat="44.9220723" lon="8.0106076"><ele>170.0</ele><time>2026-04-18T07:59:23.018Z</time></trkpt><trkpt lat="44.922197" lon="8.0106728"><ele>171.0</ele><time>2026-04-18T07:59:24.019Z</time></trkpt><trkpt lat="44.9223162" lon="8.0107729"><ele>172.0</ele><time>2026-04-18T07:59:25.018Z</time></trkpt><trkpt lat="44.9224236" lon="8.0109"><ele>171.75</ele><time>2026-04-18T07:59:26.019Z</time></trkpt><trkpt lat="44.9225078" lon="8.0110373"><ele>171.5</ele><time>2026-04-18T07:59:27.019Z</time></trkpt><trkpt lat="44.922564" lon="8.0111992"><ele>171.25</ele><time>2026-04-18T07:59:28.018Z</time></trkpt><trkpt lat="44.922568" lon="8.0113594"><ele>171.0</ele><time>2026-04-18T07:59:29.018Z</time></trkpt><trkpt lat="44.9225385" lon="8.0115069"><ele>172.0</ele><time>2026-04-18T07:59:30.019Z</time></trkpt><trkpt lat="44.9224793" lon="8.0116394"><ele>173.0</ele><time>2026-04-18T07:59:31.019Z</time></trkpt><trkpt lat="44.9223934" lon="8.0117737"><ele>174.0</ele><time>2026-04-18T07:59:32.019Z</time></trkpt><trkpt lat="44.9222959" lon="8.0119117"><ele>175.0</ele><time>2026-04-18T07:59:33.019Z</time></trkpt><trkpt lat="44.9221894" lon="8.0120665"><ele>175.0</ele><time>2026-04-18T07:59:34.019Z</time></trkpt><trkpt lat="44.9220762" lon="8.0122307"><ele>175.0</ele><time>2026-04-18T07:59:35.018Z</time></trkpt><trkpt lat="44.9219565" lon="8.0123992"><ele>175.0</ele><time>2026-04-18T07:59:36.018Z</time></trkpt><trkpt lat="44.9218376" lon="8.0125776"><ele>175.0</ele><time>2026-04-18T07:59:37.019Z</time></trkpt><trkpt lat="44.9217215" lon="8.0127607"><ele>175.0</ele><time>2026-04-18T07:59:38.019Z</time></trkpt><trkpt lat="44.9216223" lon="8.0129434"><ele>175.0</ele><time>2026-04-18T07:59:39.019Z</time></trkpt><trkpt lat="44.9215426" lon="8.0131318"><ele>173.0</ele><time>2026-04-18T07:59:40.018Z</time></trkpt><trkpt lat="44.9214858" lon="8.0133257"><ele>171.0</ele><time>2026-04-18T07:59:41.018Z</time></trkpt><trkpt lat="44.9214506" lon="8.013532"><ele>169.0</ele><time>2026-04-18T07:59:42.018Z</time></trkpt><trkpt lat="44.9214298" lon="8.0137472"><ele>169.0</ele><time>2026-04-18T07:59:43.018Z</time></trkpt><trkpt lat="44.9214143" lon="8.0139602"><ele>169.0</ele><time>2026-04-18T07:59:44.019Z</time></trkpt><trkpt lat="44.9213988" lon="8.0141678"><ele>169.0</ele><time>2026-04-18T07:59:45.018Z</time></trkpt><trkpt lat="44.9213836" lon="8.0143689"><ele>169.0</ele><time>2026-04-18T07:59:46.019Z</time></trkpt><trkpt lat="44.921369" lon="8.0145661"><ele>168.75</ele><time>2026-04-18T07:59:47.019Z</time></trkpt><trkpt lat="44.9213545" lon="8.0147579"><ele>168.5</ele><time>2026-04-18T07:59:48.018Z</time></trkpt><trkpt lat="44.9213406" lon="8.014937"><ele>168.25</ele><time>2026-04-18T07:59:49.019Z</time></trkpt><trkpt lat="44.9213292" lon="8.0151014"><ele>168.0</ele><time>2026-04-18T07:59:50.018Z</time></trkpt><trkpt lat="44.9213172" lon="8.0152552"><ele>168.0</ele><time>2026-04-18T07:59:51.019Z</time></trkpt><trkpt lat="44.9213082" lon="8.0154003"><ele>168.0</ele><time>2026-04-18T07:59:52.019Z</time></trkpt><trkpt lat="44.9212958" lon="8.0155425"><ele>168.0</ele><time>2026-04-18T07:59:53.018Z</time></trkpt><trkpt lat="44.9212844" lon="8.0156828"><ele>168.0</ele><time>2026-04-18T07:59:54.019Z</time></trkpt><trkpt lat="44.9212746" lon="8.0158259"><ele>168.0</ele><time>2026-04-18T07:59:55.018Z</time></trkpt><trkpt lat="44.9212644" lon="8.0159748"><ele>168.25</ele><time>2026-04-18T07:59:56.018Z</time></trkpt><trkpt lat="44.9212549" lon="8.0161311"><ele>168.5</ele><time>2026-04-18T07:59:57.018Z</time></trkpt><trkpt lat="44.9212427" lon="8.0162959"><ele>168.75</ele><time>2026-04-18T07:59:58.019Z</time></trkpt><trkpt lat="44.9212299" lon="8.0164688"><ele>169.0</ele><time>2026-04-18T07:59:59.019Z</time></trkpt><trkpt lat="44.9212149" lon="8.0166431"><ele>169.0</ele><time>2026-04-18T08:00:00.018Z</time></trkpt><trkpt lat="44.9212013" lon="8.0168208"><ele>169.0</ele><time>2026-04-18T08:00:01.019Z</time></trkpt><trkpt lat="44.9211831" lon="8.0170026"><ele>169.0</ele><time>2026-04-18T08:00:02.018Z</time></trkpt><trkpt lat="44.9211626" lon="8.0171916"><ele>169.0</ele><time>2026-04-18T08:00:03.019Z</time></trkpt><trkpt lat="44.9211371" lon="8.0173903"><ele>169.0</ele><time>2026-04-18T08:00:04.018Z</time></trkpt><trkpt lat="44.9211067" lon="8.017596"><ele>169.0</ele><time>2026-04-18T08:00:05.019Z</time></trkpt><trkpt lat="44.9210747" lon="8.0178051"><ele>169.0</ele><time>2026-04-18T08:00:06.018Z</time></trkpt><trkpt lat="44.9210372" lon="8.0180111"><ele>169.0</ele><time>2026-04-18T08:00:07.019Z</time></trkpt><trkpt lat="44.9209958" lon="8.0182162"><ele>169.0</ele><time>2026-04-18T08:00:08.019Z</time></trkpt><trkpt lat="44.9209527" lon="8.0184209"><ele>169.0</ele><time>2026-04-18T08:00:09.019Z</time></trkpt><trkpt lat="44.9209046" lon="8.0186255"><ele>169.25</ele><time>2026-04-18T08:00:10.019Z</time></trkpt><trkpt lat="44.9208556" lon="8.018825"><ele>169.5</ele><time>2026-04-18T08:00:11.018Z</time></trkpt><trkpt lat="44.9208054" lon="8.0190215"><ele>169.75</ele><time>2026-04-18T08:00:12.019Z</time></trkpt><trkpt lat="44.9207574" lon="8.0192121"><ele>170.0</ele><time>2026-04-18T08:00:13.018Z</time></trkpt><trkpt lat="44.9207078" lon="8.0194"><ele>170.0</ele><time>2026-04-18T08:00:14.018Z</time></trkpt><trkpt lat="44.9206595" lon="8.0195909"><ele>170.0</ele><time>2026-04-18T08:00:15.018Z</time></trkpt><trkpt lat="44.9206106" lon="8.0197819"><ele>170.0</ele><time>2026-04-18T08:00:16.019Z</time></trkpt><trkpt lat="44.9205613" lon="8.0199786"><ele>170.0</ele><time>2026-04-18T08:00:17.019Z</time></trkpt><trkpt lat="44.9205144" lon="8.0201773"><ele>169.75</ele><time>2026-04-18T08:00:18.019Z</time></trkpt><trkpt lat="44.9204689" lon="8.0203771"><ele>169.5</ele><time>2026-04-18T08:00:19.019Z</time></trkpt><trkpt lat="44.920427" lon="8.0205787"><ele>169.25</ele><time>2026-04-18T08:00:20.018Z</time></trkpt><trkpt lat="44.9203894" lon="8.0207864"><ele>169.0</ele><time>2026-04-18T08:00:21.018Z</time></trkpt><trkpt lat="44.920348" lon="8.0210007"><ele>169.0</ele><time>2026-04-18T08:00:22.019Z</time></trkpt><trkpt lat="44.9203022" lon="8.0212159"><ele>169.0</ele><time>2026-04-18T08:00:23.018Z</time></trkpt><trkpt lat="44.920251" lon="8.0214231"><ele>169.0</ele><time>2026-04-18T08:00:24.019Z</time></trkpt><trkpt lat="44.9201987" lon="8.0216193"><ele>168.75</ele><time>2026-04-18T08:00:25.019Z</time></trkpt><trkpt lat="44.9201477" lon="8.0218058"><ele>168.5</ele><time>2026-04-18T08:00:26.019Z</time></trkpt><trkpt lat="44.9201007" lon="8.0219855"><ele>168.25</ele><time>2026-04-18T08:00:27.019Z</time></trkpt><trkpt lat="44.9200543" lon="8.0221481"><ele>168.0</ele><time>2026-04-18T08:00:28.019Z</time></trkpt><trkpt lat="44.9200191" lon="8.0222949"><ele>168.0</ele><time>2026-04-18T08:00:29.019Z</time></trkpt><trkpt lat="44.919985" lon="8.0224195"><ele>168.0</ele><time>2026-04-18T08:00:30.019Z</time></trkpt><trkpt lat="44.9199555" lon="8.0225179"><ele>168.0</ele><time>2026-04-18T08:00:31.019Z</time></trkpt><trkpt lat="44.9199167" lon="8.0225995"><ele>168.0</ele><time>2026-04-18T08:00:32.018Z</time></trkpt><trkpt lat="44.9198665" lon="8.0226715"><ele>168.0</ele><time>2026-04-18T08:00:33.019Z</time></trkpt><trkpt lat="44.9198179" lon="8.0227503"><ele>168.0</ele><time>2026-04-18T08:00:34.019Z</time></trkpt><trkpt lat="44.9197853" lon="8.0228488"><ele>167.8</ele><time>2026-04-18T08:00:35.019Z</time></trkpt><trkpt lat="44.9197731" lon="8.0229573"><ele>167.60000000000002</ele><time>2026-04-18T08:00:36.019Z</time></trkpt><trkpt lat="44.919774" lon="8.0230773"><ele>167.39999999999998</ele><time>2026-04-18T08:00:37.018Z</time></trkpt><trkpt lat="44.9197574" lon="8.0232157"><ele>167.2</ele><time>2026-04-18T08:00:38.019Z</time></trkpt><trkpt lat="44.9197212" lon="8.0233648"><ele>167.0</ele><time>2026-04-18T08:00:39.019Z</time></trkpt><trkpt lat="44.9196751" lon="8.0235267"><ele>166.5</ele><time>2026-04-18T08:00:40.019Z</time></trkpt><trkpt lat="44.9196261" lon="8.0237035"><ele>166.0</ele><time>2026-04-18T08:00:41.019Z</time></trkpt><trkpt lat="44.919576" lon="8.023891"><ele>165.5</ele><time>2026-04-18T08:00:42.018Z</time></trkpt><trkpt lat="44.9195266" lon="8.0240727"><ele>165.0</ele><time>2026-04-18T08:00:43.018Z</time></trkpt><trkpt lat="44.9194771" lon="8.0242541"><ele>165.0</ele><time>2026-04-18T08:00:44.019Z</time></trkpt><trkpt lat="44.919429" lon="8.0244322"><ele>165.0</ele><time>2026-04-18T08:00:45.019Z</time></trkpt><trkpt lat="44.9193803" lon="8.0246095"><ele>165.0</ele><time>2026-04-18T08:00:46.019Z</time></trkpt><trkpt lat="44.9193306" lon="8.0247876"><ele>165.0</ele><time>2026-04-18T08:00:47.019Z</time></trkpt><trkpt lat="44.9192816" lon="8.0249725"><ele>166.25</ele><time>2026-04-18T08:00:48.019Z</time></trkpt><trkpt lat="44.9192312" lon="8.0251649"><ele>167.5</ele><time>2026-04-18T08:00:49.019Z</time></trkpt><trkpt lat="44.9191787" lon="8.0253593"><ele>168.75</ele><time>2026-04-18T08:00:50.019Z</time></trkpt><trkpt lat="44.9191177" lon="8.0255468"><ele>170.0</ele><time>2026-04-18T08:00:51.019Z</time></trkpt><trkpt lat="44.9190477" lon="8.0257308"><ele>169.66666666666666</ele><time>2026-04-18T08:00:52.018Z</time></trkpt><trkpt lat="44.9189748" lon="8.0259186"><ele>169.33333333333334</ele><time>2026-04-18T08:00:53.019Z</time></trkpt><trkpt lat="44.9188953" lon="8.0261179"><ele>169.0</ele><time>2026-04-18T08:00:54.018Z</time></trkpt><trkpt lat="44.9188099" lon="8.0263245"><ele>169.0</ele><time>2026-04-18T08:00:55.019Z</time></trkpt><trkpt lat="44.9187156" lon="8.0265436"><ele>169.0</ele><time>2026-04-18T08:00:56.018Z</time></trkpt><trkpt lat="44.9186207" lon="8.026764"><ele>169.0</ele><time>2026-04-18T08:00:57.018Z</time></trkpt><trkpt lat="44.9185253" lon="8.026986"><ele>168.33333333333334</ele><time>2026-04-18T08:00:58.019Z</time></trkpt><trkpt lat="44.9184313" lon="8.0272099"><ele>167.66666666666666</ele><time>2026-04-18T08:00:59.018Z</time></trkpt><trkpt lat="44.9183382" lon="8.0274317"><ele>167.0</ele><time>2026-04-18T08:01:00.018Z</time></trkpt><trkpt lat="44.9182454" lon="8.0276565"><ele>167.0</ele><time>2026-04-18T08:01:01.019Z</time></trkpt><trkpt lat="44.9181518" lon="8.0278826"><ele>167.0</ele><time>2026-04-18T08:01:02.018Z</time></trkpt><trkpt lat="44.9180597" lon="8.0281064"><ele>167.0</ele><time>2026-04-18T08:01:03.019Z</time></trkpt><trkpt lat="44.9179674" lon="8.0283355"><ele>167.0</ele><time>2026-04-18T08:01:04.018Z</time></trkpt><trkpt lat="44.917875" lon="8.0285619"><ele>167.0</ele><time>2026-04-18T08:01:05.018Z</time></trkpt><trkpt lat="44.9177828" lon="8.0287756"><ele>167.0</ele><time>2026-04-18T08:01:06.019Z</time></trkpt><trkpt lat="44.9176933" lon="8.0289814"><ele>166.66666666666666</ele><time>2026-04-18T08:01:07.018Z</time></trkpt><trkpt lat="44.9176079" lon="8.0291856"><ele>166.33333333333334</ele><time>2026-04-18T08:01:08.019Z</time></trkpt><trkpt lat="44.9175208" lon="8.0293879"><ele>166.0</ele><time>2026-04-18T08:01:09.018Z</time></trkpt><trkpt lat="44.9174331" lon="8.0295912"><ele>166.0</ele><time>2026-04-18T08:01:10.018Z</time></trkpt><trkpt lat="44.917349" lon="8.0297938"><ele>166.0</ele><time>2026-04-18T08:01:11.018Z</time></trkpt><trkpt lat="44.9172643" lon="8.0299977"><ele>166.0</ele><time>2026-04-18T08:01:12.018Z</time></trkpt><trkpt lat="44.9171831" lon="8.0301908"><ele>166.0</ele><time>2026-04-18T08:01:13.019Z</time></trkpt><trkpt lat="44.9171002" lon="8.0303806"><ele>166.0</ele><time>2026-04-18T08:01:14.019Z</time></trkpt><trkpt lat="44.9170141" lon="8.0305719"><ele>166.0</ele><time>2026-04-18T08:01:15.019Z</time></trkpt><trkpt lat="44.9169251" lon="8.0307563"><ele>165.75</ele><time>2026-04-18T08:01:16.018Z</time></trkpt><trkpt lat="44.9168385" lon="8.0309275"><ele>165.5</ele><time>2026-04-18T08:01:17.019Z</time></trkpt><trkpt lat="44.9167574" lon="8.0310916"><ele>165.25</ele><time>2026-04-18T08:01:18.018Z</time></trkpt><trkpt lat="44.916682" lon="8.0312427"><ele>165.0</ele><time>2026-04-18T08:01:19.019Z</time></trkpt><trkpt lat="44.9166129" lon="8.0313822"><ele>165.0</ele><time>2026-04-18T08:01:20.019Z</time></trkpt><trkpt lat="44.9165502" lon="8.0315117"><ele>165.0</ele><time>2026-04-18T08:01:21.019Z</time></trkpt><trkpt lat="44.9164931" lon="8.0316359"><ele>165.0</ele><time>2026-04-18T08:01:22.019Z</time></trkpt><trkpt lat="44.9164426" lon="8.0317534"><ele>165.0</ele><time>2026-04-18T08:01:23.019Z</time></trkpt><trkpt lat="44.916397" lon="8.0318505"><ele>165.0</ele><time>2026-04-18T08:01:24.018Z</time></trkpt><trkpt lat="44.9163396" lon="8.0319316"><ele>165.0</ele><time>2026-04-18T08:01:25.019Z</time></trkpt><trkpt lat="44.9162699" lon="8.0319843"><ele>165.0</ele><time>2026-04-18T08:01:26.018Z</time></trkpt><trkpt lat="44.9161895" lon="8.032021"><ele>165.0</ele><time>2026-04-18T08:01:27.019Z</time></trkpt><trkpt lat="44.9161135" lon="8.0320686"><ele>165.0</ele><time>2026-04-18T08:01:28.018Z</time></trkpt><trkpt lat="44.9160475" lon="8.0321399"><ele>165.0</ele><time>2026-04-18T08:01:29.018Z</time></trkpt><trkpt lat="44.9160006" lon="8.0322434"><ele>165.0</ele><time>2026-04-18T08:01:30.019Z</time></trkpt><trkpt lat="44.9159789" lon="8.0323669"><ele>164.75</ele><time>2026-04-18T08:01:31.019Z</time></trkpt><trkpt lat="44.915974" lon="8.0325102"><ele>164.5</ele><time>2026-04-18T08:01:32.018Z</time></trkpt><trkpt lat="44.9159467" lon="8.0326641"><ele>164.25</ele><time>2026-04-18T08:01:33.019Z</time></trkpt><trkpt lat="44.9158845" lon="8.0328209"><ele>164.0</ele><time>2026-04-18T08:01:34.019Z</time></trkpt><trkpt lat="44.9158043" lon="8.0329863"><ele>164.0</ele><time>2026-04-18T08:01:35.018Z</time></trkpt><trkpt lat="44.9157204" lon="8.0331493"><ele>164.0</ele><time>2026-04-18T08:01:36.018Z</time></trkpt><trkpt lat="44.9156438" lon="8.0333032"><ele>164.0</ele><time>2026-04-18T08:01:37.018Z</time></trkpt><trkpt lat="44.9155715" lon="8.0334528"><ele>164.0</ele><time>2026-04-18T08:01:38.019Z</time></trkpt><trkpt lat="44.9155029" lon="8.0335961"><ele>163.75</ele><time>2026-04-18T08:01:39.018Z</time></trkpt><trkpt lat="44.9154292" lon="8.0337456"><ele>163.5</ele><time>2026-04-18T08:01:40.019Z</time></trkpt><trkpt lat="44.9153527" lon="8.033902"><ele>163.25</ele><time>2026-04-18T08:01:41.018Z</time></trkpt><trkpt lat="44.9152764" lon="8.0340598"><ele>163.0</ele><time>2026-04-18T08:01:42.019Z</time></trkpt><trkpt lat="44.9151995" lon="8.0342176"><ele>163.0</ele><time>2026-04-18T08:01:43.018Z</time></trkpt><trkpt lat="44.9151197" lon="8.0343806"><ele>163.0</ele><time>2026-04-18T08:01:44.019Z</time></trkpt><trkpt lat="44.9150344" lon="8.0345534"><ele>163.0</ele><time>2026-04-18T08:01:45.019Z</time></trkpt><trkpt lat="44.914946" lon="8.0347315"><ele>163.0</ele><time>2026-04-18T08:01:46.019Z</time></trkpt><trkpt lat="44.9148582" lon="8.0349066"><ele>162.66666666666669</ele><time>2026-04-18T08:01:47.019Z</time></trkpt><trkpt lat="44.9147667" lon="8.0350806"><ele>162.33333333333334</ele><time>2026-04-18T08:01:48.019Z</time></trkpt><trkpt lat="44.9146715" lon="8.0352571"><ele>162.0</ele><time>2026-04-18T08:01:49.019Z</time></trkpt><trkpt lat="44.9145756" lon="8.0354329"><ele>162.0</ele><time>2026-04-18T08:01:50.018Z</time></trkpt><trkpt lat="44.9144763" lon="8.0356052"><ele>162.0</ele><time>2026-04-18T08:01:51.019Z</time></trkpt><trkpt lat="44.9143781" lon="8.0357732"><ele>162.0</ele><time>2026-04-18T08:01:52.019Z</time></trkpt><trkpt lat="44.9142791" lon="8.0359384"><ele>162.25</ele><time>2026-04-18T08:01:53.019Z</time></trkpt><trkpt lat="44.9141794" lon="8.0361031"><ele>162.5</ele><time>2026-04-18T08:01:54.019Z</time></trkpt><trkpt lat="44.9140807" lon="8.0362607"><ele>162.75</ele><time>2026-04-18T08:01:55.018Z</time></trkpt><trkpt lat="44.9139839" lon="8.0364117"><ele>163.0</ele><time>2026-04-18T08:01:56.019Z</time></trkpt><trkpt lat="44.9138889" lon="8.0365552"><ele>162.75</ele><time>2026-04-18T08:01:57.019Z</time></trkpt><trkpt lat="44.9137934" lon="8.0366972"><ele>162.5</ele><time>2026-04-18T08:01:58.018Z</time></trkpt><trkpt lat="44.9136953" lon="8.0368402"><ele>162.25</ele><time>2026-04-18T08:01:59.019Z</time></trkpt><trkpt lat="44.9135939" lon="8.0369861"><ele>162.0</ele><time>2026-04-18T08:02:00.019Z</time></trkpt><trkpt lat="44.9134928" lon="8.0371391"><ele>162.25</ele><time>2026-04-18T08:02:01.018Z</time></trkpt><trkpt lat="44.913392" lon="8.0372906"><ele>162.5</ele><time>2026-04-18T08:02:02.018Z</time></trkpt><trkpt lat="44.9132926" lon="8.0374415"><ele>162.75</ele><time>2026-04-18T08:02:03.018Z</time></trkpt><trkpt lat="44.9131975" lon="8.0375821"><ele>163.0</ele><time>2026-04-18T08:02:04.018Z</time></trkpt><trkpt lat="44.9131045" lon="8.0377202"><ele>162.0</ele><time>2026-04-18T08:02:05.019Z</time></trkpt><trkpt lat="44.9130139" lon="8.0378534"><ele>161.0</ele><time>2026-04-18T08:02:06.019Z</time></trkpt><trkpt lat="44.9129196" lon="8.0379922"><ele>160.0</ele><time>2026-04-18T08:02:07.019Z</time></trkpt><trkpt lat="44.9128221" lon="8.0381367"><ele>159.0</ele><time>2026-04-18T08:02:08.018Z</time></trkpt><trkpt lat="44.912723" lon="8.0382841"><ele>158.75</ele><time>2026-04-18T08:02:09.019Z</time></trkpt><trkpt lat="44.9126234" lon="8.0384339"><ele>158.5</ele><time>2026-04-18T08:02:10.019Z</time></trkpt><trkpt lat="44.9125216" lon="8.0385849"><ele>158.25</ele><time>2026-04-18T08:02:11.018Z</time></trkpt><trkpt lat="44.9124207" lon="8.0387356"><ele>158.0</ele><time>2026-04-18T08:02:12.019Z</time></trkpt><trkpt lat="44.9123175" lon="8.0388853"><ele>158.0</ele><time>2026-04-18T08:02:13.018Z</time></trkpt><trkpt lat="44.9122163" lon="8.0390333"><ele>158.0</ele><time>2026-04-18T08:02:14.018Z</time></trkpt><trkpt lat="44.9121161" lon="8.0391824"><ele>158.0</ele><time>2026-04-18T08:02:15.019Z</time></trkpt><trkpt lat="44.9120143" lon="8.0393286"><ele>158.0</ele><time>2026-04-18T08:02:16.019Z</time></trkpt><trkpt lat="44.9119141" lon="8.0394741"><ele>157.75</ele><time>2026-04-18T08:02:17.018Z</time></trkpt><trkpt lat="44.9118168" lon="8.0396169"><ele>157.5</ele><time>2026-04-18T08:02:18.019Z</time></trkpt><trkpt lat="44.9117125" lon="8.039765"><ele>157.25</ele><time>2026-04-18T08:02:19.019Z</time></trkpt><trkpt lat="44.9116052" lon="8.0399196"><ele>157.0</ele><time>2026-04-18T08:02:20.018Z</time></trkpt><trkpt lat="44.9114982" lon="8.0400812"><ele>157.0</ele><time>2026-04-18T08:02:21.019Z</time></trkpt><trkpt lat="44.9113898" lon="8.0402418"><ele>157.0</ele><time>2026-04-18T08:02:22.018Z</time></trkpt><trkpt lat="44.9112739" lon="8.0404078"><ele>157.0</ele><time>2026-04-18T08:02:23.018Z</time></trkpt><trkpt lat="44.9111558" lon="8.040584"><ele>157.0</ele><time>2026-04-18T08:02:24.019Z</time></trkpt><trkpt lat="44.9110367" lon="8.040766"><ele>157.0</ele><time>2026-04-18T08:02:25.019Z</time></trkpt><trkpt lat="44.910911" lon="8.0409553"><ele>157.0</ele><time>2026-04-18T08:02:26.018Z</time></trkpt><trkpt lat="44.910782" lon="8.0411468"><ele>157.0</ele><time>2026-04-18T08:02:27.018Z</time></trkpt><trkpt lat="44.9106533" lon="8.0413395"><ele>157.0</ele><time>2026-04-18T08:02:28.018Z</time></trkpt><trkpt lat="44.9105302" lon="8.0415322"><ele>157.0</ele><time>2026-04-18T08:02:29.019Z</time></trkpt><trkpt lat="44.9104228" lon="8.0417236"><ele>156.66666666666669</ele><time>2026-04-18T08:02:30.018Z</time></trkpt><trkpt lat="44.9103257" lon="8.0419152"><ele>156.33333333333334</ele><time>2026-04-18T08:02:31.018Z</time></trkpt><trkpt lat="44.9102407" lon="8.0421013"><ele>156.0</ele><time>2026-04-18T08:02:32.019Z</time></trkpt><trkpt lat="44.910163" lon="8.0422892"><ele>156.0</ele><time>2026-04-18T08:02:33.019Z</time></trkpt><trkpt lat="44.9100923" lon="8.0424818"><ele>156.0</ele><time>2026-04-18T08:02:34.019Z</time></trkpt><trkpt lat="44.9100279" lon="8.0426801"><ele>156.0</ele><time>2026-04-18T08:02:35.018Z</time></trkpt><trkpt lat="44.9099657" lon="8.0428859"><ele>156.0</ele><time>2026-04-18T08:02:36.018Z</time></trkpt><trkpt lat="44.9098999" lon="8.0431016"><ele>156.0</ele><time>2026-04-18T08:02:37.018Z</time></trkpt><trkpt lat="44.909834" lon="8.0433224"><ele>156.0</ele><time>2026-04-18T08:02:38.018Z</time></trkpt><trkpt lat="44.909764" lon="8.0435497"><ele>156.0</ele><time>2026-04-18T08:02:39.019Z</time></trkpt><trkpt lat="44.9096923" lon="8.0437789"><ele>156.0</ele><time>2026-04-18T08:02:40.019Z</time></trkpt><trkpt lat="44.9096232" lon="8.0440016"><ele>156.0</ele><time>2026-04-18T08:02:41.019Z</time></trkpt><trkpt lat="44.9095573" lon="8.0442161"><ele>155.33333333333334</ele><time>2026-04-18T08:02:42.019Z</time></trkpt><trkpt lat="44.9094939" lon="8.0444282"><ele>154.66666666666669</ele><time>2026-04-18T08:02:43.019Z</time></trkpt><trkpt lat="44.9094349" lon="8.0446402"><ele>154.0</ele><time>2026-04-18T08:02:44.019Z</time></trkpt><trkpt lat="44.9093695" lon="8.0448453"><ele>154.0</ele><time>2026-04-18T08:02:45.018Z</time></trkpt><trkpt lat="44.9093041" lon="8.0450556"><ele>154.0</ele><time>2026-04-18T08:02:46.019Z</time></trkpt><trkpt lat="44.9092397" lon="8.0452609"><ele>154.0</ele><time>2026-04-18T08:02:47.019Z</time></trkpt><trkpt lat="44.9091753" lon="8.0454602"><ele>154.25</ele><time>2026-04-18T08:02:48.019Z</time></trkpt><trkpt lat="44.9091131" lon="8.0456529"><ele>154.5</ele><time>2026-04-18T08:02:49.019Z</time></trkpt><trkpt lat="44.9090541" lon="8.0458341"><ele>154.75</ele><time>2026-04-18T08:02:50.018Z</time></trkpt><trkpt lat="44.9089979" lon="8.0460122"><ele>155.0</ele><time>2026-04-18T08:02:51.018Z</time></trkpt><trkpt lat="44.9089422" lon="8.0461912"><ele>155.0</ele><time>2026-04-18T08:02:52.019Z</time></trkpt><trkpt lat="44.9088871" lon="8.0463687"><ele>155.0</ele><time>2026-04-18T08:02:53.019Z</time></trkpt><trkpt lat="44.9088349" lon="8.0465453"><ele>155.0</ele><time>2026-04-18T08:02:54.018Z</time></trkpt><trkpt lat="44.9087822" lon="8.0467238"><ele>155.0</ele><time>2026-04-18T08:02:55.019Z</time></trkpt><trkpt lat="44.9087278" lon="8.0469039"><ele>154.5</ele><time>2026-04-18T08:02:56.018Z</time></trkpt><trkpt lat="44.9086719" lon="8.0470875"><ele>154.0</ele><time>2026-04-18T08:02:57.019Z</time></trkpt><trkpt lat="44.908614" lon="8.0472725"><ele>153.5</ele><time>2026-04-18T08:02:58.018Z</time></trkpt><trkpt lat="44.9085554" lon="8.0474628"><ele>153.0</ele><time>2026-04-18T08:02:59.019Z</time></trkpt><trkpt lat="44.9084979" lon="8.0476491"><ele>153.0</ele><time>2026-04-18T08:03:00.018Z</time></trkpt><trkpt lat="44.9084385" lon="8.0478295"><ele>153.0</ele><time>2026-04-18T08:03:01.018Z</time></trkpt><trkpt lat="44.9083806" lon="8.0480156"><ele>153.0</ele><time>2026-04-18T08:03:02.019Z</time></trkpt><trkpt lat="44.908319" lon="8.0482074"><ele>153.0</ele><time>2026-04-18T08:03:03.019Z</time></trkpt><trkpt lat="44.9082492" lon="8.0483987"><ele>152.75</ele><time>2026-04-18T08:03:04.019Z</time></trkpt><trkpt lat="44.9081686" lon="8.0485813"><ele>152.5</ele><time>2026-04-18T08:03:05.019Z</time></trkpt><trkpt lat="44.9080809" lon="8.0487507"><ele>152.25</ele><time>2026-04-18T08:03:06.019Z</time></trkpt><trkpt lat="44.9079938" lon="8.0489097"><ele>152.0</ele><time>2026-04-18T08:03:07.018Z</time></trkpt><trkpt lat="44.9079079" lon="8.0490633"><ele>152.75</ele><time>2026-04-18T08:03:08.019Z</time></trkpt><trkpt lat="44.9078265" lon="8.0492101"><ele>153.5</ele><time>2026-04-18T08:03:09.018Z</time></trkpt><trkpt lat="44.9077495" lon="8.0493494"><ele>154.25</ele><time>2026-04-18T08:03:10.019Z</time></trkpt><trkpt lat="44.9076751" lon="8.0494812"><ele>155.0</ele><time>2026-04-18T08:03:11.018Z</time></trkpt><trkpt lat="44.9076" lon="8.0496098"><ele>155.0</ele><time>2026-04-18T08:03:12.019Z</time></trkpt><trkpt lat="44.9075219" lon="8.0497431"><ele>155.0</ele><time>2026-04-18T08:03:13.019Z</time></trkpt><trkpt lat="44.9074445" lon="8.049884"><ele>155.0</ele><time>2026-04-18T08:03:14.019Z</time></trkpt><trkpt lat="44.9073666" lon="8.0500273"><ele>155.0</ele><time>2026-04-18T08:03:15.018Z</time></trkpt><trkpt lat="44.9072868" lon="8.0501749"><ele>155.0</ele><time>2026-04-18T08:03:16.019Z</time></trkpt><trkpt lat="44.9072053" lon="8.0503262"><ele>155.0</ele><time>2026-04-18T08:03:17.018Z</time></trkpt><trkpt lat="44.9071221" lon="8.0504788"><ele>155.0</ele><time>2026-04-18T08:03:18.019Z</time></trkpt><trkpt lat="44.9070368" lon="8.0506319"><ele>155.0</ele><time>2026-04-18T08:03:19.019Z</time></trkpt><trkpt lat="44.9069508" lon="8.0507867"><ele>154.75</ele><time>2026-04-18T08:03:20.019Z</time></trkpt><trkpt lat="44.9068632" lon="8.0509439"><ele>154.5</ele><time>2026-04-18T08:03:21.018Z</time></trkpt><trkpt lat="44.9067747" lon="8.0510995"><ele>154.25</ele><time>2026-04-18T08:03:22.018Z</time></trkpt><trkpt lat="44.9066871" lon="8.051254"><ele>154.0</ele><time>2026-04-18T08:03:23.019Z</time></trkpt><trkpt lat="44.9065966" lon="8.0514152"><ele>154.0</ele><time>2026-04-18T08:03:24.019Z</time></trkpt><trkpt lat="44.9065036" lon="8.0515809"><ele>154.0</ele><time>2026-04-18T08:03:25.018Z</time></trkpt><trkpt lat="44.9064061" lon="8.0517543"><ele>154.0</ele><time>2026-04-18T08:03:26.018Z</time></trkpt><trkpt lat="44.9063073" lon="8.0519332"><ele>154.33333333333334</ele><time>2026-04-18T08:03:27.019Z</time></trkpt><trkpt lat="44.9062086" lon="8.0521099"><ele>154.66666666666666</ele><time>2026-04-18T08:03:28.018Z</time></trkpt><trkpt lat="44.9061144" lon="8.0522808"><ele>155.0</ele><time>2026-04-18T08:03:29.019Z</time></trkpt><trkpt lat="44.9060187" lon="8.0524499"><ele>155.33333333333331</ele><time>2026-04-18T08:03:30.019Z</time></trkpt><trkpt lat="44.905924" lon="8.0526211"><ele>155.66666666666666</ele><time>2026-04-18T08:03:31.019Z</time></trkpt><trkpt lat="44.905828" lon="8.0527937"><ele>156.0</ele><time>2026-04-18T08:03:32.019Z</time></trkpt><trkpt lat="44.9057379" lon="8.0529595"><ele>156.0</ele><time>2026-04-18T08:03:33.018Z</time></trkpt><trkpt lat="44.9056607" lon="8.0530992"><ele>156.0</ele><time>2026-04-18T08:03:34.019Z</time></trkpt><trkpt lat="44.905595" lon="8.0532143"><ele>156.0</ele><time>2026-04-18T08:03:35.018Z</time></trkpt><trkpt lat="44.9055385" lon="8.0533172"><ele>156.0</ele><time>2026-04-18T08:03:36.018Z</time></trkpt><trkpt lat="44.9054851" lon="8.0534167"><ele>156.0</ele><time>2026-04-18T08:03:37.019Z</time></trkpt><trkpt lat="44.9054346" lon="8.0535086"><ele>156.0</ele><time>2026-04-18T08:03:38.019Z</time></trkpt><trkpt lat="44.9053837" lon="8.0536034"><ele>156.0</ele><time>2026-04-18T08:03:39.019Z</time></trkpt><trkpt lat="44.9053297" lon="8.0536952"><ele>156.0</ele><time>2026-04-18T08:03:40.019Z</time></trkpt><trkpt lat="44.9052738" lon="8.0537925"><ele>156.0</ele><time>2026-04-18T08:03:41.019Z</time></trkpt><trkpt lat="44.9052159" lon="8.053897"><ele>156.0</ele><time>2026-04-18T08:03:42.019Z</time></trkpt><trkpt lat="44.9051568" lon="8.0540033"><ele>156.0</ele><time>2026-04-18T08:03:43.019Z</time></trkpt><trkpt lat="44.9050973" lon="8.0541063"><ele>156.0</ele><time>2026-04-18T08:03:44.018Z</time></trkpt><trkpt lat="44.9050367" lon="8.0542112"><ele>156.0</ele><time>2026-04-18T08:03:45.019Z</time></trkpt><trkpt lat="44.9049811" lon="8.0543101"><ele>156.0</ele><time>2026-04-18T08:03:46.018Z</time></trkpt><trkpt lat="44.904925" lon="8.0544131"><ele>156.0</ele><time>2026-04-18T08:03:47.019Z</time></trkpt><trkpt lat="44.9048667" lon="8.0545188"><ele>156.0</ele><time>2026-04-18T08:03:48.018Z</time></trkpt><trkpt lat="44.9048013" lon="8.0546314"><ele>156.0</ele><time>2026-04-18T08:03:49.019Z</time></trkpt><trkpt lat="44.9047378" lon="8.0547447"><ele>156.0</ele><time>2026-04-18T08:03:50.019Z</time></trkpt><trkpt lat="44.9046728" lon="8.0548634"><ele>156.0</ele><time>2026-04-18T08:03:51.018Z</time></trkpt><trkpt lat="44.9046061" lon="8.0549895"><ele>156.0</ele><time>2026-04-18T08:03:52.018Z</time></trkpt><trkpt lat="44.9045335" lon="8.0551201"><ele>156.0</ele><time>2026-04-18T08:03:53.019Z</time></trkpt><trkpt lat="44.904461" lon="8.0552512"><ele>155.75</ele><time>2026-04-18T08:03:54.018Z</time></trkpt><trkpt lat="44.9043857" lon="8.0553842"><ele>155.5</ele><time>2026-04-18T08:03:55.018Z</time></trkpt><trkpt lat="44.9043112" lon="8.0555172"><ele>155.25</ele><time>2026-04-18T08:03:56.018Z</time></trkpt><trkpt lat="44.9042391" lon="8.0556488"><ele>155.0</ele><time>2026-04-18T08:03:57.018Z</time></trkpt><trkpt lat="44.9041655" lon="8.0557798"><ele>155.25</ele><time>2026-04-18T08:03:58.018Z</time></trkpt><trkpt lat="44.9040933" lon="8.0559109"><ele>155.5</ele><time>2026-04-18T08:03:59.019Z</time></trkpt><trkpt lat="44.9040185" lon="8.0560421"><ele>155.75</ele><time>2026-04-18T08:04:00.019Z</time></trkpt><trkpt lat="44.903942" lon="8.0561768"><ele>156.0</ele><time>2026-04-18T08:04:01.019Z</time></trkpt><trkpt lat="44.9038609" lon="8.0563178"><ele>156.0</ele><time>2026-04-18T08:04:02.019Z</time></trkpt><trkpt lat="44.9037769" lon="8.0564683"><ele>156.0</ele><time>2026-04-18T08:04:03.018Z</time></trkpt><trkpt lat="44.9036905" lon="8.0566229"><ele>156.0</ele><time>2026-04-18T08:04:04.018Z</time></trkpt><trkpt lat="44.9036" lon="8.056784"><ele>156.0</ele><time>2026-04-18T08:04:05.018Z</time></trkpt><trkpt lat="44.903509" lon="8.0569488"><ele>155.66666666666666</ele><time>2026-04-18T08:04:06.019Z</time></trkpt><trkpt lat="44.9034143" lon="8.0571202"><ele>155.33333333333331</ele><time>2026-04-18T08:04:07.019Z</time></trkpt><trkpt lat="44.9033182" lon="8.0572939"><ele>155.0</ele><time>2026-04-18T08:04:08.019Z</time></trkpt><trkpt lat="44.9032183" lon="8.0574705"><ele>156.33333333333331</ele><time>2026-04-18T08:04:09.019Z</time></trkpt><trkpt lat="44.9031206" lon="8.0576472"><ele>157.66666666666666</ele><time>2026-04-18T08:04:10.019Z</time></trkpt><trkpt lat="44.903023" lon="8.0578203"><ele>159.0</ele><time>2026-04-18T08:04:11.019Z</time></trkpt><trkpt lat="44.902926" lon="8.0579942"><ele>159.0</ele><time>2026-04-18T08:04:12.019Z</time></trkpt><trkpt lat="44.9028308" lon="8.0581704"><ele>159.0</ele><time>2026-04-18T08:04:13.018Z</time></trkpt><trkpt lat="44.902735" lon="8.058348"><ele>159.0</ele><time>2026-04-18T08:04:14.019Z</time></trkpt><trkpt lat="44.9026374" lon="8.0585267"><ele>158.33333333333334</ele><time>2026-04-18T08:04:15.018Z</time></trkpt><trkpt lat="44.9025375" lon="8.0587039"><ele>157.66666666666669</ele><time>2026-04-18T08:04:16.018Z</time></trkpt><trkpt lat="44.9024376" lon="8.058882"><ele>157.0</ele><time>2026-04-18T08:04:17.019Z</time></trkpt><trkpt lat="44.9023432" lon="8.0590507"><ele>158.0</ele><time>2026-04-18T08:04:18.019Z</time></trkpt><trkpt lat="44.9022516" lon="8.0592164"><ele>159.0</ele><time>2026-04-18T08:04:19.019Z</time></trkpt><trkpt lat="44.9021587" lon="8.0593827"><ele>160.0</ele><time>2026-04-18T08:04:20.018Z</time></trkpt><trkpt lat="44.9020638" lon="8.0595515"><ele>160.0</ele><time>2026-04-18T08:04:21.018Z</time></trkpt><trkpt lat="44.9019663" lon="8.0597255"><ele>160.0</ele><time>2026-04-18T08:04:22.019Z</time></trkpt><trkpt lat="44.9018623" lon="8.0599071"><ele>160.0</ele><time>2026-04-18T08:04:23.018Z</time></trkpt><trkpt lat="44.9017533" lon="8.0600966"><ele>159.0</ele><time>2026-04-18T08:04:24.019Z</time></trkpt><trkpt lat="44.9016447" lon="8.0602888"><ele>158.0</ele><time>2026-04-18T08:04:25.019Z</time></trkpt><trkpt lat="44.9015437" lon="8.0604782"><ele>157.0</ele><time>2026-04-18T08:04:26.018Z</time></trkpt><trkpt lat="44.9014574" lon="8.0606689"><ele>158.0</ele><time>2026-04-18T08:04:27.018Z</time></trkpt><trkpt lat="44.9013863" lon="8.0608651"><ele>159.0</ele><time>2026-04-18T08:04:28.019Z</time></trkpt><trkpt lat="44.9013327" lon="8.0610686"><ele>160.0</ele><time>2026-04-18T08:04:29.019Z</time></trkpt><trkpt lat="44.9012939" lon="8.0612876"><ele>160.0</ele><time>2026-04-18T08:04:30.019Z</time></trkpt><trkpt lat="44.9012617" lon="8.0615176"><ele>160.0</ele><time>2026-04-18T08:04:31.018Z</time></trkpt><trkpt lat="44.9012295" lon="8.0617538"><ele>160.0</ele><time>2026-04-18T08:04:32.019Z</time></trkpt><trkpt lat="44.9011946" lon="8.0620036"><ele>161.0</ele><time>2026-04-18T08:04:33.019Z</time></trkpt><trkpt lat="44.9011593" lon="8.0622611"><ele>162.0</ele><time>2026-04-18T08:04:34.018Z</time></trkpt><trkpt lat="44.9011232" lon="8.0625303"><ele>163.0</ele><time>2026-04-18T08:04:35.019Z</time></trkpt><trkpt lat="44.9010863" lon="8.0628046"><ele>163.0</ele><time>2026-04-18T08:04:36.019Z</time></trkpt><trkpt lat="44.9010502" lon="8.0630777"><ele>163.0</ele><time>2026-04-18T08:04:37.019Z</time></trkpt><trkpt lat="44.901015" lon="8.0633451"><ele>163.0</ele><time>2026-04-18T08:04:38.019Z</time></trkpt><trkpt lat="44.9009812" lon="8.0636067"><ele>163.0</ele><time>2026-04-18T08:04:39.019Z</time></trkpt><trkpt lat="44.9009476" lon="8.0638638"><ele>163.0</ele><time>2026-04-18T08:04:40.018Z</time></trkpt><trkpt lat="44.9009142" lon="8.0641118"><ele>163.0</ele><time>2026-04-18T08:04:41.018Z</time></trkpt><trkpt lat="44.9008838" lon="8.0643499"><ele>161.66666666666669</ele><time>2026-04-18T08:04:42.019Z</time></trkpt><trkpt lat="44.900853" lon="8.0645882"><ele>160.33333333333334</ele><time>2026-04-18T08:04:43.018Z</time></trkpt><trkpt lat="44.9008193" lon="8.0648294"><ele>159.0</ele><time>2026-04-18T08:04:44.019Z</time></trkpt><trkpt lat="44.9007839" lon="8.0650755"><ele>159.0</ele><time>2026-04-18T08:04:45.019Z</time></trkpt><trkpt lat="44.9007475" lon="8.0653232"><ele>159.0</ele><time>2026-04-18T08:04:46.019Z</time></trkpt><trkpt lat="44.9007183" lon="8.0655628"><ele>159.0</ele><time>2026-04-18T08:04:47.018Z</time></trkpt><trkpt lat="44.9006954" lon="8.0658006"><ele>159.0</ele><time>2026-04-18T08:04:48.018Z</time></trkpt><trkpt lat="44.9006836" lon="8.0660374"><ele>159.0</ele><time>2026-04-18T08:04:49.018Z</time></trkpt><trkpt lat="44.9006816" lon="8.0662747"><ele>159.0</ele><time>2026-04-18T08:04:50.019Z</time></trkpt><trkpt lat="44.9006861" lon="8.0665142"><ele>158.66666666666666</ele><time>2026-04-18T08:04:51.019Z</time></trkpt><trkpt lat="44.9007014" lon="8.0667625"><ele>158.33333333333331</ele><time>2026-04-18T08:04:52.019Z</time></trkpt><trkpt lat="44.900728" lon="8.0670228"><ele>158.0</ele><time>2026-04-18T08:04:53.019Z</time></trkpt><trkpt lat="44.9007625" lon="8.0672928"><ele>157.0</ele><time>2026-04-18T08:04:54.019Z</time></trkpt><trkpt lat="44.9008038" lon="8.0675679"><ele>156.0</ele><time>2026-04-18T08:04:55.019Z</time></trkpt><trkpt lat="44.900847" lon="8.0678409"><ele>155.0</ele><time>2026-04-18T08:04:56.019Z</time></trkpt><trkpt lat="44.9008926" lon="8.068118"><ele>157.33333333333331</ele><time>2026-04-18T08:04:57.018Z</time></trkpt><trkpt lat="44.9009401" lon="8.0684022"><ele>159.66666666666666</ele><time>2026-04-18T08:04:58.019Z</time></trkpt><trkpt lat="44.9009881" lon="8.0686917"><ele>162.0</ele><time>2026-04-18T08:04:59.018Z</time></trkpt><trkpt lat="44.9010367" lon="8.0689806"><ele>162.0</ele><time>2026-04-18T08:05:00.019Z</time></trkpt><trkpt lat="44.9010845" lon="8.0692594"><ele>162.0</ele><time>2026-04-18T08:05:01.019Z</time></trkpt><trkpt lat="44.9011304" lon="8.0695275"><ele>162.0</ele><time>2026-04-18T08:05:02.018Z</time></trkpt><trkpt lat="44.9011742" lon="8.0697874"><ele>160.66666666666666</ele><time>2026-04-18T08:05:03.018Z</time></trkpt><trkpt lat="44.9012157" lon="8.0700364"><ele>159.33333333333331</ele><time>2026-04-18T08:05:04.018Z</time></trkpt><trkpt lat="44.9012568" lon="8.0702789"><ele>158.0</ele><time>2026-04-18T08:05:05.018Z</time></trkpt><trkpt lat="44.9012945" lon="8.0705078"><ele>158.0</ele><time>2026-04-18T08:05:06.019Z</time></trkpt><trkpt lat="44.9013292" lon="8.0707336"><ele>158.0</ele><time>2026-04-18T08:05:07.018Z</time></trkpt><trkpt lat="44.9013623" lon="8.0709585"><ele>158.0</ele><time>2026-04-18T08:05:08.019Z</time></trkpt><trkpt lat="44.9013948" lon="8.0711876"><ele>157.33333333333331</ele><time>2026-04-18T08:05:09.019Z</time></trkpt><trkpt lat="44.9014158" lon="8.0714235"><ele>156.66666666666666</ele><time>2026-04-18T08:05:10.019Z</time></trkpt><trkpt lat="44.9014235" lon="8.0716645"><ele>156.0</ele><time>2026-04-18T08:05:11.018Z</time></trkpt><trkpt lat="44.901416" lon="8.0719149"><ele>155.66666666666666</ele><time>2026-04-18T08:05:12.018Z</time></trkpt><trkpt lat="44.9013917" lon="8.0721751"><ele>155.33333333333331</ele><time>2026-04-18T08:05:13.019Z</time></trkpt><trkpt lat="44.9013533" lon="8.0724405"><ele>155.0</ele><time>2026-04-18T08:05:14.019Z</time></trkpt><trkpt lat="44.901306" lon="8.0727079"><ele>155.0</ele><time>2026-04-18T08:05:15.018Z</time></trkpt><trkpt lat="44.9012554" lon="8.0729788"><ele>155.0</ele><time>2026-04-18T08:05:16.018Z</time></trkpt><trkpt lat="44.9012053" lon="8.07325"><ele>155.0</ele><time>2026-04-18T08:05:17.018Z</time></trkpt><trkpt lat="44.9011545" lon="8.0735263"><ele>155.0</ele><time>2026-04-18T08:05:18.019Z</time></trkpt><trkpt lat="44.9011021" lon="8.0738083"><ele>155.0</ele><time>2026-04-18T08:05:19.018Z</time></trkpt><trkpt lat="44.9010509" lon="8.0740988"><ele>155.0</ele><time>2026-04-18T08:05:20.018Z</time></trkpt><trkpt lat="44.9009987" lon="8.0743921"><ele>154.33333333333331</ele><time>2026-04-18T08:05:21.018Z</time></trkpt><trkpt lat="44.9009431" lon="8.074682"><ele>153.66666666666666</ele><time>2026-04-18T08:05:22.019Z</time></trkpt><trkpt lat="44.9008885" lon="8.0749572"><ele>153.0</ele><time>2026-04-18T08:05:23.019Z</time></trkpt><trkpt lat="44.9008425" lon="8.0752204"><ele>151.33333333333334</ele><time>2026-04-18T08:05:24.018Z</time></trkpt><trkpt lat="44.9008219" lon="8.0754762"><ele>149.66666666666669</ele><time>2026-04-18T08:05:25.018Z</time></trkpt><trkpt lat="44.9008248" lon="8.0757398"><ele>148.0</ele><time>2026-04-18T08:05:26.018Z</time></trkpt><trkpt lat="44.9008508" lon="8.0760179"><ele>147.66666666666669</ele><time>2026-04-18T08:05:27.018Z</time></trkpt><trkpt lat="44.9008923" lon="8.0763042"><ele>147.33333333333334</ele><time>2026-04-18T08:05:28.018Z</time></trkpt><trkpt lat="44.9009398" lon="8.0766033"><ele>147.0</ele><time>2026-04-18T08:05:29.019Z</time></trkpt><trkpt lat="44.9009864" lon="8.0769136"><ele>148.5</ele><time>2026-04-18T08:05:30.019Z</time></trkpt><trkpt lat="44.9010371" lon="8.0772282"><ele>150.0</ele><time>2026-04-18T08:05:31.018Z</time></trkpt><trkpt lat="44.9010896" lon="8.0775455"><ele>150.0</ele><time>2026-04-18T08:05:32.019Z</time></trkpt><trkpt lat="44.9011413" lon="8.0778625"><ele>150.0</ele><time>2026-04-18T08:05:33.019Z</time></trkpt><trkpt lat="44.9011909" lon="8.0781733"><ele>150.0</ele><time>2026-04-18T08:05:34.019Z</time></trkpt><trkpt lat="44.9012407" lon="8.078488"><ele>150.0</ele><time>2026-04-18T08:05:35.019Z</time></trkpt><trkpt lat="44.9012913" lon="8.0788039"><ele>150.0</ele><time>2026-04-18T08:05:36.019Z</time></trkpt><trkpt lat="44.9013423" lon="8.0791246"><ele>150.0</ele><time>2026-04-18T08:05:37.018Z</time></trkpt><trkpt lat="44.9013948" lon="8.0794522"><ele>150.0</ele><time>2026-04-18T08:05:38.019Z</time></trkpt><trkpt lat="44.9014475" lon="8.0797818"><ele>150.0</ele><time>2026-04-18T08:05:39.019Z</time></trkpt><trkpt lat="44.9014982" lon="8.0801072"><ele>149.5</ele><time>2026-04-18T08:05:40.019Z</time></trkpt><trkpt lat="44.9015491" lon="8.0804245"><ele>149.0</ele><time>2026-04-18T08:05:41.019Z</time></trkpt><trkpt lat="44.9016014" lon="8.0807381"><ele>148.66666666666666</ele><time>2026-04-18T08:05:42.019Z</time></trkpt><trkpt lat="44.9016531" lon="8.0810415"><ele>148.33333333333334</ele><time>2026-04-18T08:05:43.019Z</time></trkpt><trkpt lat="44.9017024" lon="8.0813328"><ele>148.0</ele><time>2026-04-18T08:05:44.019Z</time></trkpt><trkpt lat="44.9017486" lon="8.0816142"><ele>147.33333333333334</ele><time>2026-04-18T08:05:45.018Z</time></trkpt><trkpt lat="44.9017914" lon="8.0818881"><ele>146.66666666666666</ele><time>2026-04-18T08:05:46.019Z</time></trkpt><trkpt lat="44.9018315" lon="8.082151"><ele>146.0</ele><time>2026-04-18T08:05:47.018Z</time></trkpt><trkpt lat="44.9018699" lon="8.0824024"><ele>145.33333333333331</ele><time>2026-04-18T08:05:48.018Z</time></trkpt><trkpt lat="44.9019069" lon="8.0826401"><ele>144.66666666666666</ele><time>2026-04-18T08:05:49.018Z</time></trkpt><trkpt lat="44.9019419" lon="8.0828662"><ele>144.0</ele><time>2026-04-18T08:05:50.019Z</time></trkpt><trkpt lat="44.9019767" lon="8.0830923"><ele>145.0</ele><time>2026-04-18T08:05:51.018Z</time></trkpt><trkpt lat="44.9020123" lon="8.0833206"><ele>146.0</ele><time>2026-04-18T08:05:52.018Z</time></trkpt><trkpt lat="44.9020483" lon="8.0835443"><ele>147.0</ele><time>2026-04-18T08:05:53.018Z</time></trkpt><trkpt lat="44.9020865" lon="8.0837633"><ele>147.0</ele><time>2026-04-18T08:05:54.018Z</time></trkpt><trkpt lat="44.902122" lon="8.083975"><ele>147.0</ele><time>2026-04-18T08:05:55.019Z</time></trkpt><trkpt lat="44.9021516" lon="8.0841721"><ele>147.0</ele><time>2026-04-18T08:05:56.019Z</time></trkpt><trkpt lat="44.9021776" lon="8.0843435"><ele>147.0</ele><time>2026-04-18T08:05:57.018Z</time></trkpt><trkpt lat="44.9022011" lon="8.0844929"><ele>147.2</ele><time>2026-04-18T08:05:58.019Z</time></trkpt><trkpt lat="44.9022225" lon="8.0846362"><ele>147.39999999999998</ele><time>2026-04-18T08:05:59.018Z</time></trkpt><trkpt lat="44.9022449" lon="8.0847715"><ele>147.60000000000002</ele><time>2026-04-18T08:06:00.018Z</time></trkpt><trkpt lat="44.9022674" lon="8.084902"><ele>147.8</ele><time>2026-04-18T08:06:01.018Z</time></trkpt><trkpt lat="44.9022871" lon="8.085027"><ele>148.0</ele><time>2026-04-18T08:06:02.019Z</time></trkpt><trkpt lat="44.9023071" lon="8.0851531"><ele>148.4</ele><time>2026-04-18T08:06:03.019Z</time></trkpt><trkpt lat="44.9023299" lon="8.085286"><ele>148.8</ele><time>2026-04-18T08:06:04.018Z</time></trkpt><trkpt lat="44.902352" lon="8.085425"><ele>149.2</ele><time>2026-04-18T08:06:05.019Z</time></trkpt><trkpt lat="44.902373" lon="8.0855723"><ele>149.6</ele><time>2026-04-18T08:06:06.019Z</time></trkpt><trkpt lat="44.9023981" lon="8.0857266"><ele>150.0</ele><time>2026-04-18T08:06:07.019Z</time></trkpt><trkpt lat="44.9024233" lon="8.0858818"><ele>150.25</ele><time>2026-04-18T08:06:08.018Z</time></trkpt><trkpt lat="44.902446" lon="8.0860371"><ele>150.5</ele><time>2026-04-18T08:06:09.019Z</time></trkpt><trkpt lat="44.9024724" lon="8.0861933"><ele>150.75</ele><time>2026-04-18T08:06:10.019Z</time></trkpt><trkpt lat="44.9024996" lon="8.086357"><ele>151.0</ele><time>2026-04-18T08:06:11.019Z</time></trkpt><trkpt lat="44.9025266" lon="8.0865314"><ele>150.5</ele><time>2026-04-18T08:06:12.019Z</time></trkpt><trkpt lat="44.9025538" lon="8.0867126"><ele>150.0</ele><time>2026-04-18T08:06:13.019Z</time></trkpt><trkpt lat="44.9025825" lon="8.0868945"><ele>149.5</ele><time>2026-04-18T08:06:14.019Z</time></trkpt><trkpt lat="44.9026099" lon="8.0870734"><ele>149.0</ele><time>2026-04-18T08:06:15.018Z</time></trkpt><trkpt lat="44.9026377" lon="8.0872444"><ele>148.75</ele><time>2026-04-18T08:06:16.019Z</time></trkpt><trkpt lat="44.9026669" lon="8.0874108"><ele>148.5</ele><time>2026-04-18T08:06:17.019Z</time></trkpt><trkpt lat="44.9026939" lon="8.0875706"><ele>148.25</ele><time>2026-04-18T08:06:18.019Z</time></trkpt><trkpt lat="44.9027196" lon="8.0877273"><ele>148.0</ele><time>2026-04-18T08:06:19.019Z</time></trkpt><trkpt lat="44.9027435" lon="8.0878913"><ele>148.0</ele><time>2026-04-18T08:06:20.019Z</time></trkpt><trkpt lat="44.9027726" lon="8.0880581"><ele>148.0</ele><time>2026-04-18T08:06:21.018Z</time></trkpt><trkpt lat="44.9027997" lon="8.0882402"><ele>148.0</ele><time>2026-04-18T08:06:22.018Z</time></trkpt><trkpt lat="44.9028284" lon="8.0884264"><ele>148.0</ele><time>2026-04-18T08:06:23.019Z</time></trkpt><trkpt lat="44.9028592" lon="8.0886136"><ele>147.5</ele><time>2026-04-18T08:06:24.019Z</time></trkpt><trkpt lat="44.9028915" lon="8.088804"><ele>147.0</ele><time>2026-04-18T08:06:25.018Z</time></trkpt><trkpt lat="44.9029247" lon="8.0889977"><ele>146.5</ele><time>2026-04-18T08:06:26.019Z</time></trkpt><trkpt lat="44.9029568" lon="8.0891991"><ele>146.0</ele><time>2026-04-18T08:06:27.018Z</time></trkpt><trkpt lat="44.9029885" lon="8.0894008"><ele>146.0</ele><time>2026-04-18T08:06:28.018Z</time></trkpt><trkpt lat="44.9030196" lon="8.0895964"><ele>146.0</ele><time>2026-04-18T08:06:29.019Z</time></trkpt><trkpt lat="44.9030498" lon="8.089788"><ele>146.0</ele><time>2026-04-18T08:06:30.019Z</time></trkpt><trkpt lat="44.9030789" lon="8.0899809"><ele>146.0</ele><time>2026-04-18T08:06:31.019Z</time></trkpt><trkpt lat="44.90311" lon="8.0901738"><ele>145.66666666666666</ele><time>2026-04-18T08:06:32.018Z</time></trkpt><trkpt lat="44.9031428" lon="8.0903752"><ele>145.33333333333334</ele><time>2026-04-18T08:06:33.019Z</time></trkpt><trkpt lat="44.9031766" lon="8.0905901"><ele>145.0</ele><time>2026-04-18T08:06:34.018Z</time></trkpt><trkpt lat="44.9032139" lon="8.0908146"><ele>145.0</ele><time>2026-04-18T08:06:35.019Z</time></trkpt><trkpt lat="44.9032513" lon="8.0910466"><ele>145.0</ele><time>2026-04-18T08:06:36.018Z</time></trkpt><trkpt lat="44.9032876" lon="8.0912761"><ele>145.0</ele><time>2026-04-18T08:06:37.019Z</time></trkpt><trkpt lat="44.9033244" lon="8.0915036"><ele>145.33333333333334</ele><time>2026-04-18T08:06:38.019Z</time></trkpt><trkpt lat="44.903358" lon="8.0917235"><ele>145.66666666666666</ele><time>2026-04-18T08:06:39.018Z</time></trkpt><trkpt lat="44.9033925" lon="8.0919424"><ele>146.0</ele><time>2026-04-18T08:06:40.018Z</time></trkpt><trkpt lat="44.9034242" lon="8.0921493"><ele>146.0</ele><time>2026-04-18T08:06:41.018Z</time></trkpt><trkpt lat="44.9034537" lon="8.0923486"><ele>146.0</ele><time>2026-04-18T08:06:42.019Z</time></trkpt><trkpt lat="44.9034836" lon="8.0925412"><ele>146.0</ele><time>2026-04-18T08:06:43.019Z</time></trkpt><trkpt lat="44.9035115" lon="8.092729"><ele>146.0</ele><time>2026-04-18T08:06:44.018Z</time></trkpt><trkpt lat="44.9035388" lon="8.0929201"><ele>146.0</ele><time>2026-04-18T08:06:45.019Z</time></trkpt><trkpt lat="44.9035656" lon="8.0931158"><ele>146.0</ele><time>2026-04-18T08:06:46.018Z</time></trkpt><trkpt lat="44.903597" lon="8.0933109"><ele>146.0</ele><time>2026-04-18T08:06:47.018Z</time></trkpt><trkpt lat="44.9036303" lon="8.093507"><ele>146.0</ele><time>2026-04-18T08:06:48.018Z</time></trkpt><trkpt lat="44.9036637" lon="8.0937035"><ele>146.0</ele><time>2026-04-18T08:06:49.018Z</time></trkpt><trkpt lat="44.9036969" lon="8.0938993"><ele>146.0</ele><time>2026-04-18T08:06:50.019Z</time></trkpt><trkpt lat="44.9037271" lon="8.0940937"><ele>146.0</ele><time>2026-04-18T08:06:51.019Z</time></trkpt><trkpt lat="44.9037566" lon="8.0942915"><ele>146.0</ele><time>2026-04-18T08:06:52.019Z</time></trkpt><trkpt lat="44.9037892" lon="8.0944871"><ele>145.75</ele><time>2026-04-18T08:06:53.019Z</time></trkpt><trkpt lat="44.9038218" lon="8.0946872"><ele>145.5</ele><time>2026-04-18T08:06:54.019Z</time></trkpt><trkpt lat="44.9038551" lon="8.0948863"><ele>145.25</ele><time>2026-04-18T08:06:55.019Z</time></trkpt><trkpt lat="44.9038891" lon="8.0950907"><ele>145.0</ele><time>2026-04-18T08:06:56.019Z</time></trkpt><trkpt lat="44.9039249" lon="8.095293"><ele>145.0</ele><time>2026-04-18T08:06:57.019Z</time></trkpt><trkpt lat="44.9039576" lon="8.095498"><ele>145.0</ele><time>2026-04-18T08:06:58.019Z</time></trkpt><trkpt lat="44.9039931" lon="8.0957038"><ele>145.0</ele><time>2026-04-18T08:06:59.019Z</time></trkpt><trkpt lat="44.9040272" lon="8.0959096"><ele>145.0</ele><time>2026-04-18T08:07:00.018Z</time></trkpt><trkpt lat="44.9040608" lon="8.0961146"><ele>145.0</ele><time>2026-04-18T08:07:01.018Z</time></trkpt><trkpt lat="44.9040932" lon="8.0963183"><ele>145.0</ele><time>2026-04-18T08:07:02.018Z</time></trkpt><trkpt lat="44.9041236" lon="8.0965122"><ele>145.0</ele><time>2026-04-18T08:07:03.018Z</time></trkpt><trkpt lat="44.9041524" lon="8.0967002"><ele>145.0</ele><time>2026-04-18T08:07:04.019Z</time></trkpt><trkpt lat="44.9041777" lon="8.0968811"><ele>145.0</ele><time>2026-04-18T08:07:05.018Z</time></trkpt><trkpt lat="44.9042052" lon="8.0970594"><ele>145.0</ele><time>2026-04-18T08:07:06.018Z</time></trkpt><trkpt lat="44.9042339" lon="8.0972457"><ele>145.0</ele><time>2026-04-18T08:07:07.019Z</time></trkpt><trkpt lat="44.9042574" lon="8.0974421"><ele>145.0</ele><time>2026-04-18T08:07:08.019Z</time></trkpt><trkpt lat="44.9042797" lon="8.0976502"><ele>144.66666666666669</ele><time>2026-04-18T08:07:09.018Z</time></trkpt><trkpt lat="44.9043001" lon="8.0978665"><ele>144.33333333333334</ele><time>2026-04-18T08:07:10.019Z</time></trkpt><trkpt lat="44.9043167" lon="8.0980856"><ele>144.0</ele><time>2026-04-18T08:07:11.018Z</time></trkpt><trkpt lat="44.9043233" lon="8.098303"><ele>144.0</ele><time>2026-04-18T08:07:12.019Z</time></trkpt><trkpt lat="44.9043199" lon="8.0985229"><ele>144.0</ele><time>2026-04-18T08:07:13.019Z</time></trkpt><trkpt lat="44.9043045" lon="8.0987468"><ele>144.0</ele><time>2026-04-18T08:07:14.018Z</time></trkpt><trkpt lat="44.9042772" lon="8.0989708"><ele>144.0</ele><time>2026-04-18T08:07:15.019Z</time></trkpt><trkpt lat="44.9042384" lon="8.0991912"><ele>144.0</ele><time>2026-04-18T08:07:16.019Z</time></trkpt><trkpt lat="44.9041904" lon="8.0994109"><ele>144.0</ele><time>2026-04-18T08:07:17.019Z</time></trkpt><trkpt lat="44.9041331" lon="8.0996309"><ele>144.0</ele><time>2026-04-18T08:07:18.019Z</time></trkpt><trkpt lat="44.9040677" lon="8.0998466"><ele>144.0</ele><time>2026-04-18T08:07:19.018Z</time></trkpt><trkpt lat="44.9040012" lon="8.1000518"><ele>144.0</ele><time>2026-04-18T08:07:20.018Z</time></trkpt><trkpt lat="44.9039389" lon="8.1002458"><ele>144.0</ele><time>2026-04-18T08:07:21.018Z</time></trkpt><trkpt lat="44.9038792" lon="8.1004322"><ele>144.0</ele><time>2026-04-18T08:07:22.018Z</time></trkpt><trkpt lat="44.9038241" lon="8.1006094"><ele>144.0</ele><time>2026-04-18T08:07:23.018Z</time></trkpt><trkpt lat="44.9037688" lon="8.1007817"><ele>144.0</ele><time>2026-04-18T08:07:24.018Z</time></trkpt><trkpt lat="44.9037186" lon="8.1009483"><ele>144.0</ele><time>2026-04-18T08:07:25.018Z</time></trkpt><trkpt lat="44.9036707" lon="8.1011081"><ele>144.0</ele><time>2026-04-18T08:07:26.019Z</time></trkpt><trkpt lat="44.9036206" lon="8.1012654"><ele>144.0</ele><time>2026-04-18T08:07:27.018Z</time></trkpt><trkpt lat="44.9035724" lon="8.1014212"><ele>144.0</ele><time>2026-04-18T08:07:28.019Z</time></trkpt><trkpt lat="44.9035249" lon="8.101572"><ele>144.0</ele><time>2026-04-18T08:07:29.018Z</time></trkpt><trkpt lat="44.9034813" lon="8.1017169"><ele>144.0</ele><time>2026-04-18T08:07:30.019Z</time></trkpt><trkpt lat="44.903435" lon="8.101863"><ele>144.0</ele><time>2026-04-18T08:07:31.019Z</time></trkpt><trkpt lat="44.9033909" lon="8.1020014"><ele>144.0</ele><time>2026-04-18T08:07:32.019Z</time></trkpt><trkpt lat="44.9033483" lon="8.102133"><ele>144.0</ele><time>2026-04-18T08:07:33.018Z</time></trkpt><trkpt lat="44.9033103" lon="8.1022549"><ele>143.83333333333334</ele><time>2026-04-18T08:07:34.019Z</time></trkpt><trkpt lat="44.9032718" lon="8.1023624"><ele>143.66666666666666</ele><time>2026-04-18T08:07:35.018Z</time></trkpt><trkpt lat="44.9032236" lon="8.102446"><ele>143.5</ele><time>2026-04-18T08:07:36.019Z</time></trkpt><trkpt lat="44.9031589" lon="8.1025113"><ele>143.33333333333331</ele><time>2026-04-18T08:07:37.019Z</time></trkpt><trkpt lat="44.9030875" lon="8.1025585"><ele>143.16666666666666</ele><time>2026-04-18T08:07:38.018Z</time></trkpt><trkpt lat="44.9030206" lon="8.1026056"><ele>143.0</ele><time>2026-04-18T08:07:39.018Z</time></trkpt><trkpt lat="44.9029671" lon="8.1026785"><ele>143.33333333333331</ele><time>2026-04-18T08:07:40.018Z</time></trkpt><trkpt lat="44.9029334" lon="8.1027765"><ele>143.66666666666666</ele><time>2026-04-18T08:07:41.019Z</time></trkpt><trkpt lat="44.9029254" lon="8.102889"><ele>144.0</ele><time>2026-04-18T08:07:42.019Z</time></trkpt><trkpt lat="44.9029412" lon="8.1030131"><ele>144.33333333333334</ele><time>2026-04-18T08:07:43.018Z</time></trkpt><trkpt lat="44.9029659" lon="8.1031484"><ele>144.66666666666669</ele><time>2026-04-18T08:07:44.018Z</time></trkpt><trkpt lat="44.9029676" lon="8.1032909"><ele>145.0</ele><time>2026-04-18T08:07:45.019Z</time></trkpt><trkpt lat="44.9029384" lon="8.1034231"><ele>145.75</ele><time>2026-04-18T08:07:46.018Z</time></trkpt><trkpt lat="44.9028882" lon="8.1035578"><ele>146.5</ele><time>2026-04-18T08:07:47.018Z</time></trkpt><trkpt lat="44.9028358" lon="8.1037161"><ele>147.25</ele><time>2026-04-18T08:07:48.019Z</time></trkpt><trkpt lat="44.9027789" lon="8.1038884"><ele>148.0</ele><time>2026-04-18T08:07:49.019Z</time></trkpt><trkpt lat="44.9027218" lon="8.1040649"><ele>148.25</ele><time>2026-04-18T08:07:50.019Z</time></trkpt><trkpt lat="44.9026659" lon="8.1042382"><ele>148.5</ele><time>2026-04-18T08:07:51.019Z</time></trkpt><trkpt lat="44.902612" lon="8.1044102"><ele>148.75</ele><time>2026-04-18T08:07:52.019Z</time></trkpt><trkpt lat="44.9025598" lon="8.1045781"><ele>149.0</ele><time>2026-04-18T08:07:53.019Z</time></trkpt><trkpt lat="44.9025107" lon="8.1047463"><ele>149.75</ele><time>2026-04-18T08:07:54.019Z</time></trkpt><trkpt lat="44.902459" lon="8.1049129"><ele>150.5</ele><time>2026-04-18T08:07:55.018Z</time></trkpt><trkpt lat="44.9024073" lon="8.1050744"><ele>151.25</ele><time>2026-04-18T08:07:56.019Z</time></trkpt><trkpt lat="44.9023561" lon="8.1052382"><ele>152.0</ele><time>2026-04-18T08:07:57.019Z</time></trkpt><trkpt lat="44.9023051" lon="8.1054023"><ele>152.0</ele><time>2026-04-18T08:07:58.019Z</time></trkpt><trkpt lat="44.9022542" lon="8.1055661"><ele>152.0</ele><time>2026-04-18T08:07:59.018Z</time></trkpt><trkpt lat="44.9022033" lon="8.1057302"><ele>152.0</ele><time>2026-04-18T08:08:00.018Z</time></trkpt><trkpt lat="44.9021496" lon="8.1058924"><ele>152.0</ele><time>2026-04-18T08:08:01.018Z</time></trkpt><trkpt lat="44.9020985" lon="8.1060546"><ele>152.75</ele><time>2026-04-18T08:08:02.019Z</time></trkpt><trkpt lat="44.9020488" lon="8.1062146"><ele>153.5</ele><time>2026-04-18T08:08:03.018Z</time></trkpt><trkpt lat="44.9019989" lon="8.1063721"><ele>154.25</ele><time>2026-04-18T08:08:04.019Z</time></trkpt><trkpt lat="44.9019489" lon="8.1065326"><ele>155.0</ele><time>2026-04-18T08:08:05.019Z</time></trkpt><trkpt lat="44.9018997" lon="8.1066918"><ele>155.0</ele><time>2026-04-18T08:08:06.019Z</time></trkpt><trkpt lat="44.9018495" lon="8.1068526"><ele>155.0</ele><time>2026-04-18T08:08:07.019Z</time></trkpt><trkpt lat="44.9017974" lon="8.1070213"><ele>155.0</ele><time>2026-04-18T08:08:08.018Z</time></trkpt><trkpt lat="44.9017417" lon="8.1071933"><ele>155.0</ele><time>2026-04-18T08:08:09.018Z</time></trkpt><trkpt lat="44.9016836" lon="8.1073738"><ele>155.25</ele><time>2026-04-18T08:08:10.019Z</time></trkpt><trkpt lat="44.9016249" lon="8.1075578"><ele>155.5</ele><time>2026-04-18T08:08:11.018Z</time></trkpt><trkpt lat="44.901567" lon="8.1077443"><ele>155.75</ele><time>2026-04-18T08:08:12.018Z</time></trkpt><trkpt lat="44.9015081" lon="8.1079347"><ele>156.0</ele><time>2026-04-18T08:08:13.018Z</time></trkpt><trkpt lat="44.9014475" lon="8.108125"><ele>156.5</ele><time>2026-04-18T08:08:14.019Z</time></trkpt><trkpt lat="44.9013868" lon="8.1083165"><ele>157.0</ele><time>2026-04-18T08:08:15.018Z</time></trkpt><trkpt lat="44.9013267" lon="8.1085038"><ele>157.5</ele><time>2026-04-18T08:08:16.018Z</time></trkpt><trkpt lat="44.9012658" lon="8.1086899"><ele>158.0</ele><time>2026-04-18T08:08:17.018Z</time></trkpt><trkpt lat="44.9012073" lon="8.108872"><ele>158.0</ele><time>2026-04-18T08:08:18.019Z</time></trkpt><trkpt lat="44.9011474" lon="8.1090536"><ele>158.0</ele><time>2026-04-18T08:08:19.018Z</time></trkpt><trkpt lat="44.9010893" lon="8.1092384"><ele>158.0</ele><time>2026-04-18T08:08:20.019Z</time></trkpt><trkpt lat="44.9010319" lon="8.1094259"><ele>158.0</ele><time>2026-04-18T08:08:21.019Z</time></trkpt><trkpt lat="44.9009741" lon="8.1096118"><ele>159.5</ele><time>2026-04-18T08:08:22.018Z</time></trkpt><trkpt lat="44.9009147" lon="8.1097946"><ele>161.0</ele><time>2026-04-18T08:08:23.019Z</time></trkpt><trkpt lat="44.9008577" lon="8.1099772"><ele>162.5</ele><time>2026-04-18T08:08:24.018Z</time></trkpt><trkpt lat="44.9007993" lon="8.1101597"><ele>164.0</ele><time>2026-04-18T08:08:25.019Z</time></trkpt><trkpt lat="44.9007423" lon="8.1103442"><ele>164.0</ele><time>2026-04-18T08:08:26.019Z</time></trkpt><trkpt lat="44.9006859" lon="8.1105259"><ele>164.0</ele><time>2026-04-18T08:08:27.019Z</time></trkpt><trkpt lat="44.9006288" lon="8.1107031"><ele>164.0</ele><time>2026-04-18T08:08:28.019Z</time></trkpt><trkpt lat="44.9005721" lon="8.1108811"><ele>164.0</ele><time>2026-04-18T08:08:29.018Z</time></trkpt><trkpt lat="44.9005185" lon="8.1110553"><ele>164.5</ele><time>2026-04-18T08:08:30.019Z</time></trkpt><trkpt lat="44.9004709" lon="8.111225"><ele>165.0</ele><time>2026-04-18T08:08:31.018Z</time></trkpt><trkpt lat="44.9004425" lon="8.1114015"><ele>165.5</ele><time>2026-04-18T08:08:32.019Z</time></trkpt><trkpt lat="44.9004343" lon="8.1115934"><ele>166.0</ele><time>2026-04-18T08:08:33.018Z</time></trkpt><trkpt lat="44.900443" lon="8.1117941"><ele>166.0</ele><time>2026-04-18T08:08:34.019Z</time></trkpt><trkpt lat="44.9004634" lon="8.1120084"><ele>166.0</ele><time>2026-04-18T08:08:35.018Z</time></trkpt><trkpt lat="44.9004931" lon="8.1122342"><ele>166.0</ele><time>2026-04-18T08:08:36.018Z</time></trkpt><trkpt lat="44.9005262" lon="8.1124735"><ele>167.66666666666669</ele><time>2026-04-18T08:08:37.019Z</time></trkpt><trkpt lat="44.9005595" lon="8.112724"><ele>169.33333333333334</ele><time>2026-04-18T08:08:38.018Z</time></trkpt><trkpt lat="44.9005963" lon="8.1129849"><ele>171.0</ele><time>2026-04-18T08:08:39.019Z</time></trkpt><trkpt lat="44.9006281" lon="8.1132445"><ele>171.0</ele><time>2026-04-18T08:08:40.019Z</time></trkpt><trkpt lat="44.9006647" lon="8.1135077"><ele>171.0</ele><time>2026-04-18T08:08:41.018Z</time></trkpt><trkpt lat="44.9007024" lon="8.1137763"><ele>171.0</ele><time>2026-04-18T08:08:42.019Z</time></trkpt><trkpt lat="44.9007386" lon="8.1140454"><ele>171.33333333333334</ele><time>2026-04-18T08:08:43.019Z</time></trkpt><trkpt lat="44.9007729" lon="8.1143094"><ele>171.66666666666669</ele><time>2026-04-18T08:08:44.018Z</time></trkpt><trkpt lat="44.9008082" lon="8.114566"><ele>172.0</ele><time>2026-04-18T08:08:45.018Z</time></trkpt><trkpt lat="44.9008436" lon="8.1148204"><ele>171.66666666666669</ele><time>2026-04-18T08:08:46.019Z</time></trkpt><trkpt lat="44.900879" lon="8.1150677"><ele>171.33333333333334</ele><time>2026-04-18T08:08:47.018Z</time></trkpt><trkpt lat="44.900914" lon="8.1153257"><ele>171.0</ele><time>2026-04-18T08:08:48.018Z</time></trkpt><trkpt lat="44.9009513" lon="8.1155981"><ele>169.66666666666666</ele><time>2026-04-18T08:08:49.019Z</time></trkpt><trkpt lat="44.9009914" lon="8.1158869"><ele>168.33333333333331</ele><time>2026-04-18T08:08:50.019Z</time></trkpt><trkpt lat="44.9010308" lon="8.1161866"><ele>167.0</ele><time>2026-04-18T08:08:51.019Z</time></trkpt><trkpt lat="44.901072" lon="8.1164956"><ele>163.0</ele><time>2026-04-18T08:08:52.018Z</time></trkpt><trkpt lat="44.9011181" lon="8.1168068"><ele>159.0</ele><time>2026-04-18T08:08:53.019Z</time></trkpt><trkpt lat="44.9011629" lon="8.1171207"><ele>157.0</ele><time>2026-04-18T08:08:54.019Z</time></trkpt><trkpt lat="44.9012094" lon="8.1174387"><ele>155.0</ele><time>2026-04-18T08:08:55.019Z</time></trkpt><trkpt lat="44.9012584" lon="8.1177564"><ele>155.0</ele><time>2026-04-18T08:08:56.018Z</time></trkpt><trkpt lat="44.9013031" lon="8.1180684"><ele>155.0</ele><time>2026-04-18T08:08:57.019Z</time></trkpt><trkpt lat="44.9013463" lon="8.1183719"><ele>155.0</ele><time>2026-04-18T08:08:58.019Z</time></trkpt><trkpt lat="44.9013886" lon="8.1186594"><ele>155.66666666666666</ele><time>2026-04-18T08:08:59.018Z</time></trkpt><trkpt lat="44.9014276" lon="8.1189355"><ele>156.33333333333334</ele><time>2026-04-18T08:09:00.019Z</time></trkpt><trkpt lat="44.9014633" lon="8.1191967"><ele>157.0</ele><time>2026-04-18T08:09:01.019Z</time></trkpt><trkpt lat="44.9014995" lon="8.1194515"><ele>157.33333333333334</ele><time>2026-04-18T08:09:02.019Z</time></trkpt><trkpt lat="44.9015349" lon="8.1196964"><ele>157.66666666666666</ele><time>2026-04-18T08:09:03.018Z</time></trkpt><trkpt lat="44.9015649" lon="8.1199331"><ele>158.0</ele><time>2026-04-18T08:09:04.019Z</time></trkpt><trkpt lat="44.9015732" lon="8.120164"><ele>159.33333333333331</ele><time>2026-04-18T08:09:05.019Z</time></trkpt><trkpt lat="44.9015543" lon="8.1203934"><ele>160.66666666666666</ele><time>2026-04-18T08:09:06.019Z</time></trkpt><trkpt lat="44.9015005" lon="8.1206149"><ele>162.0</ele><time>2026-04-18T08:09:07.019Z</time></trkpt><trkpt lat="44.9014147" lon="8.1208314"><ele>163.66666666666666</ele><time>2026-04-18T08:09:08.019Z</time></trkpt><trkpt lat="44.9013208" lon="8.1210582"><ele>165.33333333333331</ele><time>2026-04-18T08:09:09.019Z</time></trkpt><trkpt lat="44.9012219" lon="8.121296"><ele>167.0</ele><time>2026-04-18T08:09:10.019Z</time></trkpt><trkpt lat="44.9011175" lon="8.1215468"><ele>168.66666666666666</ele><time>2026-04-18T08:09:11.019Z</time></trkpt><trkpt lat="44.9010085" lon="8.1218052"><ele>170.33333333333334</ele><time>2026-04-18T08:09:12.018Z</time></trkpt><trkpt lat="44.9009001" lon="8.1220635"><ele>172.0</ele><time>2026-04-18T08:09:13.018Z</time></trkpt><trkpt lat="44.900798" lon="8.1223079"><ele>171.66666666666669</ele><time>2026-04-18T08:09:14.018Z</time></trkpt><trkpt lat="44.9007022" lon="8.1225373"><ele>171.33333333333334</ele><time>2026-04-18T08:09:15.018Z</time></trkpt><trkpt lat="44.90061" lon="8.1227534"><ele>171.0</ele><time>2026-04-18T08:09:16.018Z</time></trkpt><trkpt lat="44.9005242" lon="8.1229565"><ele>171.0</ele><time>2026-04-18T08:09:17.019Z</time></trkpt><trkpt lat="44.9004403" lon="8.1231515"><ele>171.0</ele><time>2026-04-18T08:09:18.018Z</time></trkpt><trkpt lat="44.9003576" lon="8.1233444"><ele>171.0</ele><time>2026-04-18T08:09:19.018Z</time></trkpt><trkpt lat="44.9002774" lon="8.1235367"><ele>171.0</ele><time>2026-04-18T08:09:20.018Z</time></trkpt><trkpt lat="44.900194" lon="8.1237371"><ele>171.0</ele><time>2026-04-18T08:09:21.019Z</time></trkpt><trkpt lat="44.9001078" lon="8.1239425"><ele>171.0</ele><time>2026-04-18T08:09:22.019Z</time></trkpt><trkpt lat="44.9000186" lon="8.1241559"><ele>171.33333333333334</ele><time>2026-04-18T08:09:23.019Z</time></trkpt><trkpt lat="44.8999266" lon="8.1243761"><ele>171.66666666666669</ele><time>2026-04-18T08:09:24.019Z</time></trkpt><trkpt lat="44.899834" lon="8.1246041"><ele>172.0</ele><time>2026-04-18T08:09:25.018Z</time></trkpt><trkpt lat="44.8997389" lon="8.1248367"><ele>172.33333333333334</ele><time>2026-04-18T08:09:26.019Z</time></trkpt><trkpt lat="44.8996392" lon="8.1250722"><ele>172.66666666666666</ele><time>2026-04-18T08:09:27.018Z</time></trkpt><trkpt lat="44.8995382" lon="8.1253087"><ele>173.0</ele><time>2026-04-18T08:09:28.018Z</time></trkpt><trkpt lat="44.8994336" lon="8.1255471"><ele>172.66666666666666</ele><time>2026-04-18T08:09:29.019Z</time></trkpt><trkpt lat="44.8993328" lon="8.1257803"><ele>172.33333333333334</ele><time>2026-04-18T08:09:30.019Z</time></trkpt><trkpt lat="44.8992346" lon="8.126008"><ele>172.0</ele><time>2026-04-18T08:09:31.019Z</time></trkpt><trkpt lat="44.8991412" lon="8.1262342"><ele>171.33333333333334</ele><time>2026-04-18T08:09:32.018Z</time></trkpt><trkpt lat="44.8990495" lon="8.1264608"><ele>170.66666666666666</ele><time>2026-04-18T08:09:33.019Z</time></trkpt><trkpt lat="44.8989587" lon="8.1266819"><ele>170.0</ele><time>2026-04-18T08:09:34.018Z</time></trkpt><trkpt lat="44.8988704" lon="8.1268936"><ele>170.0</ele><time>2026-04-18T08:09:35.019Z</time></trkpt><trkpt lat="44.8987862" lon="8.1270951"><ele>170.0</ele><time>2026-04-18T08:09:36.019Z</time></trkpt><trkpt lat="44.8987056" lon="8.1272897"><ele>170.0</ele><time>2026-04-18T08:09:37.019Z</time></trkpt><trkpt lat="44.8986232" lon="8.1274838"><ele>170.0</ele><time>2026-04-18T08:09:38.018Z</time></trkpt><trkpt lat="44.8985354" lon="8.1276872"><ele>170.0</ele><time>2026-04-18T08:09:39.019Z</time></trkpt><trkpt lat="44.8984451" lon="8.1279003"><ele>170.0</ele><time>2026-04-18T08:09:40.019Z</time></trkpt><trkpt lat="44.8983508" lon="8.1281224"><ele>170.33333333333331</ele><time>2026-04-18T08:09:41.019Z</time></trkpt><trkpt lat="44.8982499" lon="8.1283594"><ele>170.66666666666666</ele><time>2026-04-18T08:09:42.018Z</time></trkpt><trkpt lat="44.8981478" lon="8.1286049"><ele>171.0</ele><time>2026-04-18T08:09:43.019Z</time></trkpt><trkpt lat="44.8980395" lon="8.1288591"><ele>171.66666666666666</ele><time>2026-04-18T08:09:44.019Z</time></trkpt><trkpt lat="44.8979328" lon="8.1291168"><ele>172.33333333333331</ele><time>2026-04-18T08:09:45.018Z</time></trkpt><trkpt lat="44.8978282" lon="8.1293738"><ele>173.0</ele><time>2026-04-18T08:09:46.019Z</time></trkpt><trkpt lat="44.8977206" lon="8.1296276"><ele>173.0</ele><time>2026-04-18T08:09:47.018Z</time></trkpt><trkpt lat="44.8976157" lon="8.1298702"><ele>173.0</ele><time>2026-04-18T08:09:48.019Z</time></trkpt><trkpt lat="44.8975142" lon="8.1301069"><ele>173.0</ele><time>2026-04-18T08:09:49.018Z</time></trkpt><trkpt lat="44.8974171" lon="8.1303334"><ele>173.33333333333331</ele><time>2026-04-18T08:09:50.018Z</time></trkpt><trkpt lat="44.8973227" lon="8.1305499"><ele>173.66666666666666</ele><time>2026-04-18T08:09:51.018Z</time></trkpt><trkpt lat="44.8972379" lon="8.1307603"><ele>174.0</ele><time>2026-04-18T08:09:52.019Z</time></trkpt><trkpt lat="44.8971637" lon="8.1309666"><ele>174.0</ele><time>2026-04-18T08:09:53.019Z</time></trkpt><trkpt lat="44.8971068" lon="8.1311805"><ele>174.0</ele><time>2026-04-18T08:09:54.018Z</time></trkpt><trkpt lat="44.8970746" lon="8.131412"><ele>174.0</ele><time>2026-04-18T08:09:55.019Z</time></trkpt><trkpt lat="44.8970737" lon="8.1316544"><ele>175.66666666666666</ele><time>2026-04-18T08:09:56.018Z</time></trkpt><trkpt lat="44.8970985" lon="8.1319065"><ele>177.33333333333331</ele><time>2026-04-18T08:09:57.018Z</time></trkpt><trkpt lat="44.8971396" lon="8.1321664"><ele>179.0</ele><time>2026-04-18T08:09:58.019Z</time></trkpt><trkpt lat="44.8971798" lon="8.1324332"><ele>179.0</ele><time>2026-04-18T08:09:59.019Z</time></trkpt><trkpt lat="44.8972191" lon="8.1327007"><ele>179.0</ele><time>2026-04-18T08:10:00.018Z</time></trkpt><trkpt lat="44.8972622" lon="8.1329659"><ele>179.0</ele><time>2026-04-18T08:10:01.019Z</time></trkpt><trkpt lat="44.8973052" lon="8.1332246"><ele>179.0</ele><time>2026-04-18T08:10:02.019Z</time></trkpt><trkpt lat="44.8973462" lon="8.1334779"><ele>179.0</ele><time>2026-04-18T08:10:03.018Z</time></trkpt><trkpt lat="44.8973886" lon="8.1337297"><ele>179.0</ele><time>2026-04-18T08:10:04.019Z</time></trkpt><trkpt lat="44.8974311" lon="8.1339839"><ele>178.66666666666666</ele><time>2026-04-18T08:10:05.019Z</time></trkpt><trkpt lat="44.8974734" lon="8.1342378"><ele>178.33333333333334</ele><time>2026-04-18T08:10:06.019Z</time></trkpt><trkpt lat="44.8975137" lon="8.1344879"><ele>178.0</ele><time>2026-04-18T08:10:07.018Z</time></trkpt><trkpt lat="44.8975529" lon="8.1347327"><ele>177.0</ele><time>2026-04-18T08:10:08.018Z</time></trkpt><trkpt lat="44.8975897" lon="8.1349688"><ele>176.0</ele><time>2026-04-18T08:10:09.019Z</time></trkpt><trkpt lat="44.8976248" lon="8.1351943"><ele>175.0</ele><time>2026-04-18T08:10:10.019Z</time></trkpt><trkpt lat="44.8976612" lon="8.1354186"><ele>175.0</ele><time>2026-04-18T08:10:11.019Z</time></trkpt><trkpt lat="44.8976961" lon="8.1356509"><ele>175.0</ele><time>2026-04-18T08:10:12.018Z</time></trkpt><trkpt lat="44.8977308" lon="8.1358943"><ele>175.0</ele><time>2026-04-18T08:10:13.019Z</time></trkpt><trkpt lat="44.8977674" lon="8.136146"><ele>173.66666666666669</ele><time>2026-04-18T08:10:14.018Z</time></trkpt><trkpt lat="44.8978072" lon="8.1364017"><ele>172.33333333333334</ele><time>2026-04-18T08:10:15.019Z</time></trkpt><trkpt lat="44.8978453" lon="8.1366534"><ele>171.0</ele><time>2026-04-18T08:10:16.019Z</time></trkpt><trkpt lat="44.8978828" lon="8.1369006"><ele>171.0</ele><time>2026-04-18T08:10:17.019Z</time></trkpt><trkpt lat="44.8979212" lon="8.1371463"><ele>171.0</ele><time>2026-04-18T08:10:18.019Z</time></trkpt><trkpt lat="44.8979599" lon="8.1373961"><ele>171.0</ele><time>2026-04-18T08:10:19.019Z</time></trkpt><trkpt lat="44.8979982" lon="8.1376509"><ele>170.0</ele><time>2026-04-18T08:10:20.019Z</time></trkpt><trkpt lat="44.8980388" lon="8.1379094"><ele>169.0</ele><time>2026-04-18T08:10:21.018Z</time></trkpt><trkpt lat="44.89808" lon="8.1381765"><ele>168.0</ele><time>2026-04-18T08:10:22.018Z</time></trkpt><trkpt lat="44.8981199" lon="8.1384496"><ele>167.66666666666666</ele><time>2026-04-18T08:10:23.018Z</time></trkpt><trkpt lat="44.8981606" lon="8.1387235"><ele>167.33333333333331</ele><time>2026-04-18T08:10:24.019Z</time></trkpt><trkpt lat="44.8982015" lon="8.1389895"><ele>167.0</ele><time>2026-04-18T08:10:25.018Z</time></trkpt><trkpt lat="44.8982426" lon="8.1392451"><ele>167.0</ele><time>2026-04-18T08:10:26.018Z</time></trkpt><trkpt lat="44.898281" lon="8.1394948"><ele>167.0</ele><time>2026-04-18T08:10:27.019Z</time></trkpt><trkpt lat="44.898321" lon="8.1397507"><ele>167.0</ele><time>2026-04-18T08:10:28.018Z</time></trkpt><trkpt lat="44.898359" lon="8.1400118"><ele>166.66666666666666</ele><time>2026-04-18T08:10:29.019Z</time></trkpt><trkpt lat="44.8983945" lon="8.1402785"><ele>166.33333333333334</ele><time>2026-04-18T08:10:30.018Z</time></trkpt><trkpt lat="44.8984337" lon="8.1405401"><ele>166.0</ele><time>2026-04-18T08:10:31.019Z</time></trkpt><trkpt lat="44.8984734" lon="8.1407962"><ele>166.66666666666669</ele><time>2026-04-18T08:10:32.018Z</time></trkpt><trkpt lat="44.8985124" lon="8.1410513"><ele>167.33333333333334</ele><time>2026-04-18T08:10:33.019Z</time></trkpt><trkpt lat="44.8985506" lon="8.1412985"><ele>168.0</ele><time>2026-04-18T08:10:34.018Z</time></trkpt><trkpt lat="44.8985872" lon="8.1415429"><ele>167.33333333333334</ele><time>2026-04-18T08:10:35.018Z</time></trkpt><trkpt lat="44.8986254" lon="8.1417847"><ele>166.66666666666669</ele><time>2026-04-18T08:10:36.019Z</time></trkpt><trkpt lat="44.8986626" lon="8.1420262"><ele>166.0</ele><time>2026-04-18T08:10:37.019Z</time></trkpt><trkpt lat="44.898702" lon="8.1422699"><ele>164.66666666666669</ele><time>2026-04-18T08:10:38.019Z</time></trkpt><trkpt lat="44.8987396" lon="8.1425098"><ele>163.33333333333334</ele><time>2026-04-18T08:10:39.019Z</time></trkpt><trkpt lat="44.8987761" lon="8.1427455"><ele>162.0</ele><time>2026-04-18T08:10:40.018Z</time></trkpt><trkpt lat="44.8988113" lon="8.1429748"><ele>162.0</ele><time>2026-04-18T08:10:41.019Z</time></trkpt><trkpt lat="44.898846" lon="8.143193"><ele>162.0</ele><time>2026-04-18T08:10:42.018Z</time></trkpt><trkpt lat="44.8988786" lon="8.1434045"><ele>162.0</ele><time>2026-04-18T08:10:43.019Z</time></trkpt><trkpt lat="44.8989098" lon="8.143602"><ele>161.0</ele><time>2026-04-18T08:10:44.019Z</time></trkpt><trkpt lat="44.8989386" lon="8.1437905"><ele>160.0</ele><time>2026-04-18T08:10:45.019Z</time></trkpt><trkpt lat="44.8989657" lon="8.1439685"><ele>159.0</ele><time>2026-04-18T08:10:46.018Z</time></trkpt><trkpt lat="44.8989916" lon="8.144142"><ele>158.0</ele><time>2026-04-18T08:10:47.018Z</time></trkpt><trkpt lat="44.8990194" lon="8.144313"><ele>156.8</ele><time>2026-04-18T08:10:48.019Z</time></trkpt><trkpt lat="44.8990444" lon="8.1444777"><ele>155.60000000000002</ele><time>2026-04-18T08:10:49.019Z</time></trkpt><trkpt lat="44.8990671" lon="8.1446273"><ele>154.39999999999998</ele><time>2026-04-18T08:10:50.018Z</time></trkpt><trkpt lat="44.8990833" lon="8.1447643"><ele>153.2</ele><time>2026-04-18T08:10:51.018Z</time></trkpt><trkpt lat="44.8990852" lon="8.1448913"><ele>152.0</ele><time>2026-04-18T08:10:52.018Z</time></trkpt><trkpt lat="44.8990593" lon="8.1450142"><ele>150.79999999999998</ele><time>2026-04-18T08:10:53.018Z</time></trkpt><trkpt lat="44.8990203" lon="8.1451376"><ele>149.6</ele><time>2026-04-18T08:10:54.018Z</time></trkpt><trkpt lat="44.898994" lon="8.1452738"><ele>148.39999999999998</ele><time>2026-04-18T08:10:55.018Z</time></trkpt><trkpt lat="44.8990009" lon="8.1454108"><ele>147.2</ele><time>2026-04-18T08:10:56.018Z</time></trkpt><trkpt lat="44.8990403" lon="8.1455385"><ele>146.0</ele><time>2026-04-18T08:10:57.018Z</time></trkpt><trkpt lat="44.8991076" lon="8.1456497"><ele>144.75</ele><time>2026-04-18T08:10:58.019Z</time></trkpt><trkpt lat="44.899188" lon="8.1457673"><ele>143.5</ele><time>2026-04-18T08:10:59.019Z</time></trkpt><trkpt lat="44.8992535" lon="8.145919"><ele>142.25</ele><time>2026-04-18T08:11:00.018Z</time></trkpt><trkpt lat="44.8992963" lon="8.1461056"><ele>141.0</ele><time>2026-04-18T08:11:01.018Z</time></trkpt><trkpt lat="44.8993263" lon="8.1463155"><ele>139.66666666666666</ele><time>2026-04-18T08:11:02.019Z</time></trkpt><trkpt lat="44.8993595" lon="8.1465389"><ele>138.33333333333331</ele><time>2026-04-18T08:11:03.019Z</time></trkpt><trkpt lat="44.8993948" lon="8.1467692"><ele>137.0</ele><time>2026-04-18T08:11:04.019Z</time></trkpt><trkpt lat="44.8994267" lon="8.1470001"><ele>139.66666666666666</ele><time>2026-04-18T08:11:05.019Z</time></trkpt><trkpt lat="44.8994615" lon="8.1472264"><ele>142.33333333333334</ele><time>2026-04-18T08:11:06.019Z</time></trkpt><trkpt lat="44.8994972" lon="8.1474585"><ele>145.0</ele><time>2026-04-18T08:11:07.019Z</time></trkpt><trkpt lat="44.8995315" lon="8.1476906"><ele>147.33333333333334</ele><time>2026-04-18T08:11:08.018Z</time></trkpt><trkpt lat="44.8995658" lon="8.1479215"><ele>149.66666666666666</ele><time>2026-04-18T08:11:09.019Z</time></trkpt><trkpt lat="44.8995988" lon="8.1481479"><ele>152.0</ele><time>2026-04-18T08:11:10.019Z</time></trkpt><trkpt lat="44.8996295" lon="8.1483711"><ele>152.33333333333331</ele><time>2026-04-18T08:11:11.019Z</time></trkpt><trkpt lat="44.8996636" lon="8.1485963"><ele>152.66666666666666</ele><time>2026-04-18T08:11:12.019Z</time></trkpt><trkpt lat="44.8996973" lon="8.1488175"><ele>153.0</ele><time>2026-04-18T08:11:13.018Z</time></trkpt><trkpt lat="44.8997326" lon="8.1490361"><ele>152.66666666666666</ele><time>2026-04-18T08:11:14.018Z</time></trkpt><trkpt lat="44.8997673" lon="8.1492536"><ele>152.33333333333331</ele><time>2026-04-18T08:11:15.019Z</time></trkpt><trkpt lat="44.8998014" lon="8.1494701"><ele>152.0</ele><time>2026-04-18T08:11:16.019Z</time></trkpt><trkpt lat="44.8998381" lon="8.1496888"><ele>151.33333333333331</ele><time>2026-04-18T08:11:17.019Z</time></trkpt><trkpt lat="44.8998729" lon="8.1499067"><ele>150.66666666666666</ele><time>2026-04-18T08:11:18.018Z</time></trkpt><trkpt lat="44.8999055" lon="8.150121"><ele>150.0</ele><time>2026-04-18T08:11:19.019Z</time></trkpt><trkpt lat="44.8999376" lon="8.1503312"><ele>150.0</ele><time>2026-04-18T08:11:20.018Z</time></trkpt><trkpt lat="44.8999687" lon="8.1505361"><ele>150.0</ele><time>2026-04-18T08:11:21.019Z</time></trkpt><trkpt lat="44.8999994" lon="8.1507397"><ele>150.0</ele><time>2026-04-18T08:11:22.019Z</time></trkpt><trkpt lat="44.9000324" lon="8.1509517"><ele>150.0</ele><time>2026-04-18T08:11:23.018Z</time></trkpt><trkpt lat="44.9000653" lon="8.1511753"><ele>150.0</ele><time>2026-04-18T08:11:24.019Z</time></trkpt><trkpt lat="44.9000962" lon="8.1514067"><ele>150.0</ele><time>2026-04-18T08:11:25.019Z</time></trkpt><trkpt lat="44.9001218" lon="8.151644"><ele>150.0</ele><time>2026-04-18T08:11:26.018Z</time></trkpt><trkpt lat="44.9001398" lon="8.1518817"><ele>150.0</ele><time>2026-04-18T08:11:27.019Z</time></trkpt><trkpt lat="44.9001493" lon="8.1521168"><ele>150.0</ele><time>2026-04-18T08:11:28.018Z</time></trkpt><trkpt lat="44.9001522" lon="8.1523397"><ele>150.75</ele><time>2026-04-18T08:11:29.019Z</time></trkpt><trkpt lat="44.9001507" lon="8.1525501"><ele>151.5</ele><time>2026-04-18T08:11:30.019Z</time></trkpt><trkpt lat="44.9001496" lon="8.1527492"><ele>152.25</ele><time>2026-04-18T08:11:31.018Z</time></trkpt><trkpt lat="44.9001467" lon="8.1529474"><ele>153.0</ele><time>2026-04-18T08:11:32.018Z</time></trkpt><trkpt lat="44.9001436" lon="8.1531438"><ele>154.0</ele><time>2026-04-18T08:11:33.019Z</time></trkpt><trkpt lat="44.9001432" lon="8.15334"><ele>155.0</ele><time>2026-04-18T08:11:34.019Z</time></trkpt><trkpt lat="44.900143" lon="8.1535403"><ele>156.0</ele><time>2026-04-18T08:11:35.019Z</time></trkpt><trkpt lat="44.9001441" lon="8.1537476"><ele>157.0</ele><time>2026-04-18T08:11:36.018Z</time></trkpt><trkpt lat="44.900145" lon="8.1539619"><ele>159.33333333333334</ele><time>2026-04-18T08:11:37.019Z</time></trkpt><trkpt lat="44.9001435" lon="8.1541836"><ele>161.66666666666666</ele><time>2026-04-18T08:11:38.019Z</time></trkpt><trkpt lat="44.9001426" lon="8.1544157"><ele>164.0</ele><time>2026-04-18T08:11:39.019Z</time></trkpt><trkpt lat="44.9001407" lon="8.1546534"><ele>163.0</ele><time>2026-04-18T08:11:40.019Z</time></trkpt><trkpt lat="44.9001402" lon="8.1548903"><ele>162.0</ele><time>2026-04-18T08:11:41.018Z</time></trkpt><trkpt lat="44.9001397" lon="8.1551258"><ele>161.0</ele><time>2026-04-18T08:11:42.019Z</time></trkpt><trkpt lat="44.9001398" lon="8.1553665"><ele>161.0</ele><time>2026-04-18T08:11:43.019Z</time></trkpt><trkpt lat="44.900137" lon="8.1556147"><ele>161.0</ele><time>2026-04-18T08:11:44.019Z</time></trkpt><trkpt lat="44.9001356" lon="8.1558678"><ele>161.0</ele><time>2026-04-18T08:11:45.019Z</time></trkpt><trkpt lat="44.9001359" lon="8.1561253"><ele>158.33333333333331</ele><time>2026-04-18T08:11:46.019Z</time></trkpt><trkpt lat="44.9001331" lon="8.1563897"><ele>155.66666666666666</ele><time>2026-04-18T08:11:47.019Z</time></trkpt><trkpt lat="44.9001316" lon="8.1566616"><ele>153.0</ele><time>2026-04-18T08:11:48.018Z</time></trkpt><trkpt lat="44.9001279" lon="8.1569375"><ele>151.33333333333334</ele><time>2026-04-18T08:11:49.018Z</time></trkpt><trkpt lat="44.9001244" lon="8.157218"><ele>149.66666666666669</ele><time>2026-04-18T08:11:50.018Z</time></trkpt><trkpt lat="44.9001225" lon="8.1574984"><ele>148.0</ele><time>2026-04-18T08:11:51.019Z</time></trkpt><trkpt lat="44.9001233" lon="8.1577818"><ele>148.0</ele><time>2026-04-18T08:11:52.019Z</time></trkpt><trkpt lat="44.9001326" lon="8.158054"><ele>148.0</ele><time>2026-04-18T08:11:53.018Z</time></trkpt><trkpt lat="44.9001542" lon="8.1583191"><ele>148.0</ele><time>2026-04-18T08:11:54.019Z</time></trkpt><trkpt lat="44.9001877" lon="8.158578"><ele>148.0</ele><time>2026-04-18T08:11:55.019Z</time></trkpt><trkpt lat="44.9002358" lon="8.1588374"><ele>148.0</ele><time>2026-04-18T08:11:56.018Z</time></trkpt><trkpt lat="44.9002921" lon="8.1590973"><ele>148.0</ele><time>2026-04-18T08:11:57.019Z</time></trkpt><trkpt lat="44.9003497" lon="8.1593582"><ele>147.66666666666669</ele><time>2026-04-18T08:11:58.018Z</time></trkpt><trkpt lat="44.9004061" lon="8.1596174"><ele>147.33333333333334</ele><time>2026-04-18T08:11:59.019Z</time></trkpt><trkpt lat="44.9004636" lon="8.1598748"><ele>147.0</ele><time>2026-04-18T08:12:00.019Z</time></trkpt><trkpt lat="44.9005201" lon="8.1601274"><ele>147.0</ele><time>2026-04-18T08:12:01.018Z</time></trkpt><trkpt lat="44.9005761" lon="8.160371"><ele>147.0</ele><time>2026-04-18T08:12:02.018Z</time></trkpt><trkpt lat="44.9006283" lon="8.1606043"><ele>147.0</ele><time>2026-04-18T08:12:03.018Z</time></trkpt><trkpt lat="44.90068" lon="8.160836"><ele>146.66666666666666</ele><time>2026-04-18T08:12:04.019Z</time></trkpt><trkpt lat="44.9007313" lon="8.1610682"><ele>146.33333333333331</ele><time>2026-04-18T08:12:05.019Z</time></trkpt><trkpt lat="44.9007818" lon="8.1612989"><ele>146.0</ele><time>2026-04-18T08:12:06.019Z</time></trkpt><trkpt lat="44.9008314" lon="8.1615207"><ele>146.0</ele><time>2026-04-18T08:12:07.019Z</time></trkpt><trkpt lat="44.9008808" lon="8.1617389"><ele>146.0</ele><time>2026-04-18T08:12:08.018Z</time></trkpt><trkpt lat="44.9009285" lon="8.1619483"><ele>146.0</ele><time>2026-04-18T08:12:09.019Z</time></trkpt><trkpt lat="44.9009744" lon="8.1621498"><ele>145.75</ele><time>2026-04-18T08:12:10.018Z</time></trkpt><trkpt lat="44.9010198" lon="8.1623482"><ele>145.5</ele><time>2026-04-18T08:12:11.018Z</time></trkpt><trkpt lat="44.9010634" lon="8.1625427"><ele>145.25</ele><time>2026-04-18T08:12:12.018Z</time></trkpt><trkpt lat="44.9011065" lon="8.1627422"><ele>145.0</ele><time>2026-04-18T08:12:13.018Z</time></trkpt><trkpt lat="44.9011509" lon="8.1629494"><ele>146.0</ele><time>2026-04-18T08:12:14.018Z</time></trkpt><trkpt lat="44.9011939" lon="8.1631541"><ele>147.0</ele><time>2026-04-18T08:12:15.019Z</time></trkpt><trkpt lat="44.9012377" lon="8.1633613"><ele>148.0</ele><time>2026-04-18T08:12:16.019Z</time></trkpt><trkpt lat="44.9012828" lon="8.1635693"><ele>148.0</ele><time>2026-04-18T08:12:17.019Z</time></trkpt><trkpt lat="44.9013274" lon="8.1637766"><ele>148.0</ele><time>2026-04-18T08:12:18.018Z</time></trkpt><trkpt lat="44.9013756" lon="8.1639869"><ele>148.0</ele><time>2026-04-18T08:12:19.019Z</time></trkpt><trkpt lat="44.9014233" lon="8.1642021"><ele>147.33333333333334</ele><time>2026-04-18T08:12:20.019Z</time></trkpt><trkpt lat="44.9014691" lon="8.164413"><ele>146.66666666666666</ele><time>2026-04-18T08:12:21.019Z</time></trkpt><trkpt lat="44.9015135" lon="8.1646239"><ele>146.0</ele><time>2026-04-18T08:12:22.019Z</time></trkpt><trkpt lat="44.9015589" lon="8.1648316"><ele>145.5</ele><time>2026-04-18T08:12:23.018Z</time></trkpt><trkpt lat="44.9016046" lon="8.1650382"><ele>145.0</ele><time>2026-04-18T08:12:24.019Z</time></trkpt><trkpt lat="44.9016494" lon="8.165241"><ele>144.5</ele><time>2026-04-18T08:12:25.019Z</time></trkpt><trkpt lat="44.901692" lon="8.165434"><ele>144.0</ele><time>2026-04-18T08:12:26.019Z</time></trkpt><trkpt lat="44.901733" lon="8.1656234"><ele>145.25</ele><time>2026-04-18T08:12:27.019Z</time></trkpt><trkpt lat="44.9017757" lon="8.165817"><ele>146.5</ele><time>2026-04-18T08:12:28.018Z</time></trkpt><trkpt lat="44.9018185" lon="8.1660114"><ele>147.75</ele><time>2026-04-18T08:12:29.019Z</time></trkpt><trkpt lat="44.9018634" lon="8.1662132"><ele>149.0</ele><time>2026-04-18T08:12:30.019Z</time></trkpt><trkpt lat="44.901909" lon="8.1664187"><ele>147.66666666666666</ele><time>2026-04-18T08:12:31.018Z</time></trkpt><trkpt lat="44.9019527" lon="8.1666238"><ele>146.33333333333334</ele><time>2026-04-18T08:12:32.018Z</time></trkpt><trkpt lat="44.9019967" lon="8.1668268"><ele>145.0</ele><time>2026-04-18T08:12:33.019Z</time></trkpt><trkpt lat="44.9020397" lon="8.1670279"><ele>145.0</ele><time>2026-04-18T08:12:34.019Z</time></trkpt><trkpt lat="44.9020819" lon="8.1672227"><ele>145.0</ele><time>2026-04-18T08:12:35.019Z</time></trkpt><trkpt lat="44.9021247" lon="8.1674169"><ele>145.0</ele><time>2026-04-18T08:12:36.019Z</time></trkpt><trkpt lat="44.9021684" lon="8.1676121"><ele>145.0</ele><time>2026-04-18T08:12:37.018Z</time></trkpt><trkpt lat="44.9022118" lon="8.1678073"><ele>144.0</ele><time>2026-04-18T08:12:38.018Z</time></trkpt><trkpt lat="44.9022547" lon="8.1679995"><ele>143.0</ele><time>2026-04-18T08:12:39.019Z</time></trkpt><trkpt lat="44.9022977" lon="8.1681924"><ele>142.0</ele><time>2026-04-18T08:12:40.018Z</time></trkpt><trkpt lat="44.9023394" lon="8.1683888"><ele>141.0</ele><time>2026-04-18T08:12:41.019Z</time></trkpt><trkpt lat="44.902382" lon="8.1685828"><ele>140.5</ele><time>2026-04-18T08:12:42.018Z</time></trkpt><trkpt lat="44.902422" lon="8.1687629"><ele>140.0</ele><time>2026-04-18T08:12:43.019Z</time></trkpt><trkpt lat="44.9024603" lon="8.1689293"><ele>139.5</ele><time>2026-04-18T08:12:44.019Z</time></trkpt><trkpt lat="44.9024956" lon="8.1690864"><ele>139.0</ele><time>2026-04-18T08:12:45.019Z</time></trkpt><trkpt lat="44.9025306" lon="8.1692418"><ele>138.4</ele><time>2026-04-18T08:12:46.018Z</time></trkpt><trkpt lat="44.9025648" lon="8.1693941"><ele>137.8</ele><time>2026-04-18T08:12:47.018Z</time></trkpt><trkpt lat="44.9025977" lon="8.1695473"><ele>137.2</ele><time>2026-04-18T08:12:48.018Z</time></trkpt><trkpt lat="44.9026286" lon="8.1696942"><ele>136.6</ele><time>2026-04-18T08:12:49.019Z</time></trkpt><trkpt lat="44.9026593" lon="8.1698367"><ele>136.0</ele><time>2026-04-18T08:12:50.018Z</time></trkpt><trkpt lat="44.9026872" lon="8.1699689"><ele>136.66666666666669</ele><time>2026-04-18T08:12:51.018Z</time></trkpt><trkpt lat="44.9027143" lon="8.1700922"><ele>137.33333333333334</ele><time>2026-04-18T08:12:52.019Z</time></trkpt><trkpt lat="44.9027409" lon="8.170211"><ele>138.0</ele><time>2026-04-18T08:12:53.019Z</time></trkpt><trkpt lat="44.9027661" lon="8.1703261"><ele>138.66666666666666</ele><time>2026-04-18T08:12:54.019Z</time></trkpt><trkpt lat="44.9027919" lon="8.1704414"><ele>139.33333333333331</ele><time>2026-04-18T08:12:55.018Z</time></trkpt><trkpt lat="44.9028164" lon="8.1705617"><ele>140.0</ele><time>2026-04-18T08:12:56.019Z</time></trkpt><trkpt lat="44.9028431" lon="8.1706925"><ele>140.0</ele><time>2026-04-18T08:12:57.018Z</time></trkpt><trkpt lat="44.902874" lon="8.1708285"><ele>140.0</ele><time>2026-04-18T08:12:58.019Z</time></trkpt><trkpt lat="44.9029047" lon="8.1709724"><ele>140.0</ele><time>2026-04-18T08:12:59.018Z</time></trkpt><trkpt lat="44.902934" lon="8.1711184"><ele>140.0</ele><time>2026-04-18T08:13:00.019Z</time></trkpt><trkpt lat="44.9029651" lon="8.1712607"><ele>140.0</ele><time>2026-04-18T08:13:01.018Z</time></trkpt><trkpt lat="44.9029961" lon="8.1714069"><ele>139.2</ele><time>2026-04-18T08:13:02.019Z</time></trkpt><trkpt lat="44.9030285" lon="8.171554"><ele>138.4</ele><time>2026-04-18T08:13:03.019Z</time></trkpt><trkpt lat="44.9030625" lon="8.1717033"><ele>137.6</ele><time>2026-04-18T08:13:04.018Z</time></trkpt><trkpt lat="44.9030966" lon="8.1718547"><ele>136.8</ele><time>2026-04-18T08:13:05.018Z</time></trkpt><trkpt lat="44.9031302" lon="8.1720103"><ele>136.0</ele><time>2026-04-18T08:13:06.018Z</time></trkpt><trkpt lat="44.9031626" lon="8.172164"><ele>136.0</ele><time>2026-04-18T08:13:07.018Z</time></trkpt><trkpt lat="44.9031963" lon="8.1723201"><ele>136.0</ele><time>2026-04-18T08:13:08.019Z</time></trkpt><trkpt lat="44.9032301" lon="8.1724731"><ele>136.0</ele><time>2026-04-18T08:13:09.019Z</time></trkpt><trkpt lat="44.903263" lon="8.1726221"><ele>136.0</ele><time>2026-04-18T08:13:10.019Z</time></trkpt><trkpt lat="44.9032978" lon="8.1727636"><ele>136.0</ele><time>2026-04-18T08:13:11.018Z</time></trkpt><trkpt lat="44.9033322" lon="8.172904"><ele>135.0</ele><time>2026-04-18T08:13:12.019Z</time></trkpt><trkpt lat="44.9033658" lon="8.1730423"><ele>134.0</ele><time>2026-04-18T08:13:13.018Z</time></trkpt><trkpt lat="44.9033982" lon="8.1731808"><ele>133.0</ele><time>2026-04-18T08:13:14.018Z</time></trkpt><trkpt lat="44.9034305" lon="8.1733251"><ele>132.0</ele><time>2026-04-18T08:13:15.018Z</time></trkpt><trkpt lat="44.9034587" lon="8.1734673"><ele>131.0</ele><time>2026-04-18T08:13:16.019Z</time></trkpt><trkpt lat="44.9034855" lon="8.1736045"><ele>130.6</ele><time>2026-04-18T08:13:17.019Z</time></trkpt><trkpt lat="44.9035133" lon="8.1737398"><ele>130.2</ele><time>2026-04-18T08:13:18.019Z</time></trkpt><trkpt lat="44.9035418" lon="8.1738698"><ele>129.8</ele><time>2026-04-18T08:13:19.019Z</time></trkpt><trkpt lat="44.9035697" lon="8.1739954"><ele>129.4</ele><time>2026-04-18T08:13:20.018Z</time></trkpt><trkpt lat="44.9035964" lon="8.1741178"><ele>129.0</ele><time>2026-04-18T08:13:21.019Z</time></trkpt><trkpt lat="44.9036215" lon="8.174237"><ele>129.0</ele><time>2026-04-18T08:13:22.019Z</time></trkpt><trkpt lat="44.9036476" lon="8.1743519"><ele>129.0</ele><time>2026-04-18T08:13:23.019Z</time></trkpt><trkpt lat="44.9036743" lon="8.1744682"><ele>129.0</ele><time>2026-04-18T08:13:24.019Z</time></trkpt><trkpt lat="44.903699" lon="8.1745887"><ele>129.0</ele><time>2026-04-18T08:13:25.019Z</time></trkpt><trkpt lat="44.9037252" lon="8.174712"><ele>129.0</ele><time>2026-04-18T08:13:26.019Z</time></trkpt><trkpt lat="44.9037495" lon="8.1748355"><ele>129.0</ele><time>2026-04-18T08:13:27.018Z</time></trkpt><trkpt lat="44.9037779" lon="8.1749564"><ele>128.83333333333334</ele><time>2026-04-18T08:13:28.019Z</time></trkpt><trkpt lat="44.9038047" lon="8.1750712"><ele>128.66666666666666</ele><time>2026-04-18T08:13:29.019Z</time></trkpt><trkpt lat="44.9038313" lon="8.1751842"><ele>128.5</ele><time>2026-04-18T08:13:30.019Z</time></trkpt><trkpt lat="44.9038562" lon="8.1752911"><ele>128.33333333333331</ele><time>2026-04-18T08:13:31.018Z</time></trkpt><trkpt lat="44.9038802" lon="8.1753957"><ele>128.16666666666666</ele><time>2026-04-18T08:13:32.019Z</time></trkpt><trkpt lat="44.9039029" lon="8.1754985"><ele>128.0</ele><time>2026-04-18T08:13:33.019Z</time></trkpt><trkpt lat="44.9039266" lon="8.1756033"><ele>127.33333333333333</ele><time>2026-04-18T08:13:34.018Z</time></trkpt><trkpt lat="44.9039528" lon="8.1757146"><ele>126.66666666666666</ele><time>2026-04-18T08:13:35.019Z</time></trkpt><trkpt lat="44.9039835" lon="8.1758358"><ele>126.0</ele><time>2026-04-18T08:13:36.019Z</time></trkpt><trkpt lat="44.9040172" lon="8.1759601"><ele>125.33333333333334</ele><time>2026-04-18T08:13:37.019Z</time></trkpt><trkpt lat="44.9040597" lon="8.1760762"><ele>124.66666666666667</ele><time>2026-04-18T08:13:38.019Z</time></trkpt><trkpt lat="44.9041052" lon="8.1761819"><ele>124.0</ele><time>2026-04-18T08:13:39.019Z</time></trkpt><trkpt lat="44.9041422" lon="8.1762876"><ele>124.00000000000001</ele><time>2026-04-18T08:13:40.018Z</time></trkpt><trkpt lat="44.9041598" lon="8.1763974"><ele>124.0</ele><time>2026-04-18T08:13:41.019Z</time></trkpt><trkpt lat="44.9041713" lon="8.1765134"><ele>124.0</ele><time>2026-04-18T08:13:42.018Z</time></trkpt><trkpt lat="44.9041892" lon="8.1766304"><ele>124.0</ele><time>2026-04-18T08:13:43.018Z</time></trkpt><trkpt lat="44.904213" lon="8.1767454"><ele>124.00000000000001</ele><time>2026-04-18T08:13:44.019Z</time></trkpt><trkpt lat="44.9042351" lon="8.176862"><ele>124.0</ele><time>2026-04-18T08:13:45.018Z</time></trkpt><trkpt lat="44.9042541" lon="8.1769861"><ele>124.4</ele><time>2026-04-18T08:13:46.019Z</time></trkpt><trkpt lat="44.904274" lon="8.1771146"><ele>124.80000000000001</ele><time>2026-04-18T08:13:47.019Z</time></trkpt><trkpt lat="44.9043003" lon="8.1772474"><ele>125.19999999999999</ele><time>2026-04-18T08:13:48.019Z</time></trkpt><trkpt lat="44.9043289" lon="8.1773853"><ele>125.6</ele><time>2026-04-18T08:13:49.018Z</time></trkpt><trkpt lat="44.9043581" lon="8.1775241"><ele>126.0</ele><time>2026-04-18T08:13:50.019Z</time></trkpt><trkpt lat="44.9043871" lon="8.1776658"><ele>125.33333333333333</ele><time>2026-04-18T08:13:51.019Z</time></trkpt><trkpt lat="44.9044135" lon="8.1778012"><ele>124.66666666666666</ele><time>2026-04-18T08:13:52.018Z</time></trkpt><trkpt lat="44.9044388" lon="8.1779261"><ele>124.0</ele><time>2026-04-18T08:13:53.018Z</time></trkpt><trkpt lat="44.9044601" lon="8.1780386"><ele>123.33333333333333</ele><time>2026-04-18T08:13:54.018Z</time></trkpt><trkpt lat="44.904481" lon="8.1781437"><ele>122.66666666666666</ele><time>2026-04-18T08:13:55.018Z</time></trkpt><trkpt lat="44.9045009" lon="8.1782466"><ele>122.0</ele><time>2026-04-18T08:13:56.019Z</time></trkpt><trkpt lat="44.9045216" lon="8.1783455"><ele>121.99999999999999</ele><time>2026-04-18T08:13:57.019Z</time></trkpt><trkpt lat="44.9045431" lon="8.1784476"><ele>122.0</ele><time>2026-04-18T08:13:58.018Z</time></trkpt><trkpt lat="44.9045676" lon="8.1785619"><ele>122.0</ele><time>2026-04-18T08:13:59.019Z</time></trkpt><trkpt lat="44.9045902" lon="8.1786816"><ele>122.0</ele><time>2026-04-18T08:14:00.018Z</time></trkpt><trkpt lat="44.9046143" lon="8.1788067"><ele>121.99999999999999</ele><time>2026-04-18T08:14:01.019Z</time></trkpt><trkpt lat="44.9046432" lon="8.1789388"><ele>122.0</ele><time>2026-04-18T08:14:02.018Z</time></trkpt><trkpt lat="44.9046736" lon="8.1790737"><ele>122.0</ele><time>2026-04-18T08:14:03.019Z</time></trkpt><trkpt lat="44.9047021" lon="8.1792093"><ele>121.99999999999999</ele><time>2026-04-18T08:14:04.018Z</time></trkpt><trkpt lat="44.9047289" lon="8.1793376"><ele>121.99999999999999</ele><time>2026-04-18T08:14:05.018Z</time></trkpt><trkpt lat="44.9047542" lon="8.1794571"><ele>122.0</ele><time>2026-04-18T08:14:06.019Z</time></trkpt><trkpt lat="44.9047815" lon="8.1795787"><ele>122.0</ele><time>2026-04-18T08:14:07.019Z</time></trkpt><trkpt lat="44.9048093" lon="8.1797022"><ele>122.0</ele><time>2026-04-18T08:14:08.018Z</time></trkpt><trkpt lat="44.9048363" lon="8.1798249"><ele>121.99999999999999</ele><time>2026-04-18T08:14:09.019Z</time></trkpt><trkpt lat="44.9048619" lon="8.1799486"><ele>121.99999999999999</ele><time>2026-04-18T08:14:10.019Z</time></trkpt><trkpt lat="44.9048841" lon="8.1800615"><ele>122.0</ele><time>2026-04-18T08:14:11.018Z</time></trkpt><trkpt lat="44.9049055" lon="8.1801673"><ele>122.0</ele><time>2026-04-18T08:14:12.019Z</time></trkpt><trkpt lat="44.9049325" lon="8.1803125"><ele>121.83333333333333</ele><time>2026-04-18T08:14:14.019Z</time></trkpt><trkpt lat="44.9049582" lon="8.1804297"><ele>121.66666666666666</ele><time>2026-04-18T08:14:20.019Z</time></trkpt><trkpt lat="44.9049557" lon="8.1806011"><ele>121.5</ele><time>2026-04-18T08:14:22.018Z</time></trkpt><trkpt lat="44.9049343" lon="8.180691"><ele>121.33333333333334</ele><time>2026-04-18T08:14:23.018Z</time></trkpt><trkpt lat="44.9049218" lon="8.1807817"><ele>121.16666666666667</ele><time>2026-04-18T08:14:24.018Z</time></trkpt><trkpt lat="44.9049393" lon="8.1808714"><ele>121.0</ele><time>2026-04-18T08:14:25.018Z</time></trkpt><trkpt lat="44.9049837" lon="8.1809426"><ele>121.00000000000001</ele><time>2026-04-18T08:14:26.019Z</time></trkpt><trkpt lat="44.9050423" lon="8.1810031"><ele>121.0</ele><time>2026-04-18T08:14:27.018Z</time></trkpt><trkpt lat="44.9050905" lon="8.181088"><ele>121.0</ele><time>2026-04-18T08:14:28.019Z</time></trkpt><trkpt lat="44.9051227" lon="8.1812039"><ele>121.0</ele><time>2026-04-18T08:14:29.018Z</time></trkpt><trkpt lat="44.9051511" lon="8.1813376"><ele>121.00000000000001</ele><time>2026-04-18T08:14:30.019Z</time></trkpt><trkpt lat="44.9051812" lon="8.1814813"><ele>121.0</ele><time>2026-04-18T08:14:31.019Z</time></trkpt><trkpt lat="44.905214" lon="8.1816337"><ele>121.0</ele><time>2026-04-18T08:14:32.018Z</time></trkpt><trkpt lat="44.9052481" lon="8.1817845"><ele>121.0</ele><time>2026-04-18T08:14:33.019Z</time></trkpt><trkpt lat="44.9052818" lon="8.1819412"><ele>121.0</ele><time>2026-04-18T08:14:34.019Z</time></trkpt><trkpt lat="44.9053167" lon="8.1821047"><ele>121.0</ele><time>2026-04-18T08:14:35.019Z</time></trkpt><trkpt lat="44.9053531" lon="8.182272"><ele>121.5</ele><time>2026-04-18T08:14:36.018Z</time></trkpt><trkpt lat="44.9053909" lon="8.1824371"><ele>122.0</ele><time>2026-04-18T08:14:37.019Z</time></trkpt><trkpt lat="44.9054277" lon="8.1825979"><ele>122.5</ele><time>2026-04-18T08:14:38.019Z</time></trkpt><trkpt lat="44.9054631" lon="8.1827561"><ele>123.0</ele><time>2026-04-18T08:14:39.019Z</time></trkpt><trkpt lat="44.9054985" lon="8.1829088"><ele>123.0</ele><time>2026-04-18T08:14:40.019Z</time></trkpt><trkpt lat="44.9055333" lon="8.1830609"><ele>123.00000000000001</ele><time>2026-04-18T08:14:41.019Z</time></trkpt><trkpt lat="44.9055643" lon="8.1832031"><ele>123.00000000000001</ele><time>2026-04-18T08:14:42.019Z</time></trkpt><trkpt lat="44.9055894" lon="8.1833242"><ele>123.0</ele><time>2026-04-18T08:14:43.018Z</time></trkpt><trkpt lat="44.9056122" lon="8.1834292"><ele>123.0</ele><time>2026-04-18T08:14:44.019Z</time></trkpt><trkpt lat="44.9056351" lon="8.1835307"><ele>123.2857142857143</ele><time>2026-04-18T08:14:45.019Z</time></trkpt><trkpt lat="44.905656" lon="8.1836253"><ele>123.57142857142858</ele><time>2026-04-18T08:14:46.018Z</time></trkpt><trkpt lat="44.9056753" lon="8.183718"><ele>123.85714285714286</ele><time>2026-04-18T08:14:47.019Z</time></trkpt><trkpt lat="44.9056958" lon="8.1838127"><ele>124.14285714285715</ele><time>2026-04-18T08:14:48.019Z</time></trkpt><trkpt lat="44.9057151" lon="8.1839128"><ele>124.42857142857144</ele><time>2026-04-18T08:14:49.018Z</time></trkpt><trkpt lat="44.9057362" lon="8.184005"><ele>124.71428571428571</ele><time>2026-04-18T08:14:50.019Z</time></trkpt><trkpt lat="44.9057551" lon="8.1841095"><ele>125.0</ele><time>2026-04-18T08:14:51.019Z</time></trkpt><trkpt lat="44.9057788" lon="8.1842227"><ele>125.4</ele><time>2026-04-18T08:14:52.018Z</time></trkpt><trkpt lat="44.9058015" lon="8.1843301"><ele>125.8</ele><time>2026-04-18T08:14:53.018Z</time></trkpt><trkpt lat="44.90582" lon="8.1844254"><ele>126.19999999999999</ele><time>2026-04-18T08:14:54.018Z</time></trkpt><trkpt lat="44.9058367" lon="8.1845111"><ele>126.6</ele><time>2026-04-18T08:14:55.019Z</time></trkpt><trkpt lat="44.9058595" lon="8.1846705"><ele>127.0</ele><time>2026-04-18T08:14:57.019Z</time></trkpt><trkpt lat="44.9058828" lon="8.1848519"><ele>127.14285714285714</ele><time>2026-04-18T08:14:59.018Z</time></trkpt><trkpt lat="44.9058954" lon="8.184953"><ele>127.28571428571428</ele><time>2026-04-18T08:15:00.019Z</time></trkpt><trkpt lat="44.9058983" lon="8.1850493"><ele>127.42857142857142</ele><time>2026-04-18T08:15:01.018Z</time></trkpt><trkpt lat="44.9058948" lon="8.185139"><ele>127.57142857142857</ele><time>2026-04-18T08:15:02.019Z</time></trkpt><trkpt lat="44.90589" lon="8.1852297"><ele>127.7142857142857</ele><time>2026-04-18T08:15:03.019Z</time></trkpt><trkpt lat="44.9058783" lon="8.1853768"><ele>127.85714285714285</ele><time>2026-04-18T08:15:05.018Z</time></trkpt><trkpt lat="44.9058656" lon="8.1854663"><ele>128.0</ele><time>2026-04-18T08:15:07.018Z</time></trkpt><trkpt lat="44.9058483" lon="8.1855535"><ele>128.0</ele><time>2026-04-18T08:15:12.018Z</time></trkpt><trkpt lat="44.9058112" lon="8.1856735"><ele>128.0</ele><time>2026-04-18T08:15:14.019Z</time></trkpt><trkpt lat="44.9057568" lon="8.1858268"><ele>128.0</ele><time>2026-04-18T08:15:16.019Z</time></trkpt><trkpt lat="44.9057145" lon="8.1859159"><ele>128.0</ele><time>2026-04-18T08:15:17.019Z</time></trkpt><trkpt lat="44.9056577" lon="8.1860081"><ele>128.0</ele><time>2026-04-18T08:15:18.019Z</time></trkpt><trkpt lat="44.9055814" lon="8.1861205"><ele>128.25</ele><time>2026-04-18T08:15:19.019Z</time></trkpt><trkpt lat="44.9054889" lon="8.1862561"><ele>128.5</ele><time>2026-04-18T08:15:20.018Z</time></trkpt><trkpt lat="44.9053937" lon="8.1863951"><ele>128.75</ele><time>2026-04-18T08:15:21.018Z</time></trkpt><trkpt lat="44.9052962" lon="8.1865372"><ele>129.0</ele><time>2026-04-18T08:15:22.019Z</time></trkpt><trkpt lat="44.9052002" lon="8.186678"><ele>129.25</ele><time>2026-04-18T08:15:23.018Z</time></trkpt><trkpt lat="44.905106" lon="8.186815"><ele>129.5</ele><time>2026-04-18T08:15:24.018Z</time></trkpt><trkpt lat="44.9050163" lon="8.186946"><ele>129.75</ele><time>2026-04-18T08:15:25.019Z</time></trkpt><trkpt lat="44.9049236" lon="8.187077"><ele>130.0</ele><time>2026-04-18T08:15:26.019Z</time></trkpt><trkpt lat="44.9048284" lon="8.1872114"><ele>129.5</ele><time>2026-04-18T08:15:27.018Z</time></trkpt><trkpt lat="44.9047335" lon="8.1873462"><ele>129.0</ele><time>2026-04-18T08:15:28.019Z</time></trkpt><trkpt lat="44.904642" lon="8.1874782"><ele>128.5</ele><time>2026-04-18T08:15:29.019Z</time></trkpt><trkpt lat="44.9045523" lon="8.1876058"><ele>128.0</ele><time>2026-04-18T08:15:30.019Z</time></trkpt><trkpt lat="44.9044617" lon="8.187739"><ele>128.0</ele><time>2026-04-18T08:15:31.018Z</time></trkpt><trkpt lat="44.9043708" lon="8.187872"><ele>128.0</ele><time>2026-04-18T08:15:32.019Z</time></trkpt><trkpt lat="44.9042834" lon="8.1879984"><ele>128.0</ele><time>2026-04-18T08:15:33.019Z</time></trkpt><trkpt lat="44.9042001" lon="8.1881144"><ele>128.0</ele><time>2026-04-18T08:15:34.019Z</time></trkpt><trkpt lat="44.9041216" lon="8.1882339"><ele>128.0</ele><time>2026-04-18T08:15:35.019Z</time></trkpt><trkpt lat="44.9040455" lon="8.1883541"><ele>128.0</ele><time>2026-04-18T08:15:36.019Z</time></trkpt><trkpt lat="44.9039724" lon="8.1884715"><ele>128.0</ele><time>2026-04-18T08:15:37.019Z</time></trkpt><trkpt lat="44.903899" lon="8.188581"><ele>128.0</ele><time>2026-04-18T08:15:38.018Z</time></trkpt><trkpt lat="44.9038324" lon="8.1886891"><ele>128.0</ele><time>2026-04-18T08:15:39.019Z</time></trkpt><trkpt lat="44.9037648" lon="8.1887907"><ele>127.99999999999999</ele><time>2026-04-18T08:15:40.019Z</time></trkpt><trkpt lat="44.9036969" lon="8.1888902"><ele>128.0</ele><time>2026-04-18T08:15:41.018Z</time></trkpt><trkpt lat="44.9036355" lon="8.1889832"><ele>128.0</ele><time>2026-04-18T08:15:42.018Z</time></trkpt><trkpt lat="44.9035759" lon="8.1890684"><ele>128.0</ele><time>2026-04-18T08:15:43.018Z</time></trkpt><trkpt lat="44.9035204" lon="8.1891471"><ele>127.99999999999999</ele><time>2026-04-18T08:15:44.019Z</time></trkpt><trkpt lat="44.9034668" lon="8.1892218"><ele>128.0</ele><time>2026-04-18T08:15:45.019Z</time></trkpt><trkpt lat="44.9034204" lon="8.1892922"><ele>127.49999999999999</ele><time>2026-04-18T08:15:46.019Z</time></trkpt><trkpt lat="44.9033752" lon="8.1893562"><ele>127.0</ele><time>2026-04-18T08:15:47.019Z</time></trkpt><trkpt lat="44.9032863" lon="8.1894798"><ele>126.5</ele><time>2026-04-18T08:15:49.019Z</time></trkpt><trkpt lat="44.9032288" lon="8.1895382"><ele>126.0</ele><time>2026-04-18T08:15:50.018Z</time></trkpt><trkpt lat="44.9031735" lon="8.1896052"><ele>125.49999999999999</ele><time>2026-04-18T08:15:51.019Z</time></trkpt><trkpt lat="44.9031201" lon="8.1896868"><ele>125.0</ele><time>2026-04-18T08:15:52.019Z</time></trkpt><trkpt lat="44.9030676" lon="8.1897795"><ele>125.49999999999999</ele><time>2026-04-18T08:15:53.019Z</time></trkpt><trkpt lat="44.9030122" lon="8.1898718"><ele>126.0</ele><time>2026-04-18T08:15:54.019Z</time></trkpt><trkpt lat="44.9029519" lon="8.1899648"><ele>126.5</ele><time>2026-04-18T08:15:55.019Z</time></trkpt><trkpt lat="44.9028898" lon="8.1900525"><ele>127.0</ele><time>2026-04-18T08:15:56.019Z</time></trkpt><trkpt lat="44.9028256" lon="8.1901432"><ele>127.49999999999999</ele><time>2026-04-18T08:15:57.018Z</time></trkpt><trkpt lat="44.9027623" lon="8.1902349"><ele>128.0</ele><time>2026-04-18T08:15:58.018Z</time></trkpt><trkpt lat="44.9026997" lon="8.1903271"><ele>127.99999999999999</ele><time>2026-04-18T08:15:59.019Z</time></trkpt><trkpt lat="44.90264" lon="8.1904136"><ele>128.0</ele><time>2026-04-18T08:16:00.019Z</time></trkpt><trkpt lat="44.902586" lon="8.1904905"><ele>128.0</ele><time>2026-04-18T08:16:01.018Z</time></trkpt><trkpt lat="44.9025375" lon="8.1905544"><ele>128.0</ele><time>2026-04-18T08:16:02.018Z</time></trkpt><trkpt lat="44.9024534" lon="8.1906594"><ele>127.99999999999999</ele><time>2026-04-18T08:16:04.019Z</time></trkpt><trkpt lat="44.9023901" lon="8.1907355"><ele>128.0</ele><time>2026-04-18T08:16:06.019Z</time></trkpt><trkpt lat="44.9023244" lon="8.1908048"><ele>127.80000000000001</ele><time>2026-04-18T08:16:08.019Z</time></trkpt><trkpt lat="44.9022555" lon="8.190895"><ele>127.60000000000001</ele><time>2026-04-18T08:16:10.019Z</time></trkpt><trkpt lat="44.9021795" lon="8.1910348"><ele>127.39999999999999</ele><time>2026-04-18T08:16:12.019Z</time></trkpt><trkpt lat="44.9021375" lon="8.1911059"><ele>127.19999999999999</ele><time>2026-04-18T08:16:13.019Z</time></trkpt><trkpt lat="44.9020952" lon="8.191173"><ele>127.0</ele><time>2026-04-18T08:16:14.019Z</time></trkpt><trkpt lat="44.9020153" lon="8.1912908"><ele>127.00000000000001</ele><time>2026-04-18T08:16:16.019Z</time></trkpt><trkpt lat="44.9019179" lon="8.1913988"><ele>127.0</ele><time>2026-04-18T08:16:18.019Z</time></trkpt><trkpt lat="44.9018646" lon="8.1914595"><ele>127.0</ele><time>2026-04-18T08:16:19.019Z</time></trkpt><trkpt lat="44.9018157" lon="8.1915335"><ele>127.0</ele><time>2026-04-18T08:16:20.019Z</time></trkpt><trkpt lat="44.9017662" lon="8.1916193"><ele>127.00000000000001</ele><time>2026-04-18T08:16:21.019Z</time></trkpt><trkpt lat="44.9017152" lon="8.1917005"><ele>127.0</ele><time>2026-04-18T08:16:22.018Z</time></trkpt><trkpt lat="44.9016622" lon="8.1917801"><ele>127.00000000000001</ele><time>2026-04-18T08:16:23.019Z</time></trkpt><trkpt lat="44.901609" lon="8.1918601"><ele>127.0</ele><time>2026-04-18T08:16:24.019Z</time></trkpt><trkpt lat="44.9015542" lon="8.1919381"><ele>127.0</ele><time>2026-04-18T08:16:25.018Z</time></trkpt><trkpt lat="44.9014967" lon="8.1920195"><ele>127.0</ele><time>2026-04-18T08:16:26.019Z</time></trkpt><trkpt lat="44.9014366" lon="8.1921009"><ele>127.00000000000001</ele><time>2026-04-18T08:16:27.018Z</time></trkpt><trkpt lat="44.9013673" lon="8.1921875"><ele>127.0</ele><time>2026-04-18T08:16:28.019Z</time></trkpt><trkpt lat="44.901297" lon="8.192278"><ele>127.0</ele><time>2026-04-18T08:16:29.018Z</time></trkpt><trkpt lat="44.9012318" lon="8.1923673"><ele>126.99999999999999</ele><time>2026-04-18T08:16:30.019Z</time></trkpt><trkpt lat="44.9011658" lon="8.1924555"><ele>126.99999999999999</ele><time>2026-04-18T08:16:31.019Z</time></trkpt><trkpt lat="44.9010998" lon="8.1925515"><ele>127.0</ele><time>2026-04-18T08:16:32.019Z</time></trkpt><trkpt lat="44.9010385" lon="8.1926511"><ele>127.0</ele><time>2026-04-18T08:16:33.019Z</time></trkpt><trkpt lat="44.900979" lon="8.1927488"><ele>127.00000000000001</ele><time>2026-04-18T08:16:34.019Z</time></trkpt><trkpt lat="44.9009225" lon="8.1928407"><ele>127.0</ele><time>2026-04-18T08:16:35.018Z</time></trkpt><trkpt lat="44.9008712" lon="8.1929233"><ele>127.0</ele><time>2026-04-18T08:16:36.018Z</time></trkpt><trkpt lat="44.9008021" lon="8.1930282"><ele>127.0</ele><time>2026-04-18T08:16:38.018Z</time></trkpt><trkpt lat="44.9007447" lon="8.1931122"><ele>127.00000000000001</ele><time>2026-04-18T08:16:41.019Z</time></trkpt><trkpt lat="44.9006832" lon="8.1932103"><ele>127.0</ele><time>2026-04-18T08:16:44.019Z</time></trkpt><trkpt lat="44.9006314" lon="8.1932781"><ele>127.14285714285714</ele><time>2026-04-18T08:16:46.018Z</time></trkpt><trkpt lat="44.90057" lon="8.1933607"><ele>127.28571428571428</ele><time>2026-04-18T08:16:49.018Z</time></trkpt><trkpt lat="44.9005207" lon="8.1934233"><ele>127.42857142857142</ele><time>2026-04-18T08:16:53.018Z</time></trkpt><trkpt lat="44.9004638" lon="8.1934805"><ele>127.57142857142857</ele><time>2026-04-18T08:16:56.019Z</time></trkpt><trkpt lat="44.9003972" lon="8.1935067"><ele>127.7142857142857</ele><time>2026-04-18T08:16:59.018Z</time></trkpt><trkpt lat="44.9003274" lon="8.1935164"><ele>127.85714285714285</ele><time>2026-04-18T08:17:01.018Z</time></trkpt><trkpt lat="44.900244" lon="8.1935035"><ele>128.0</ele><time>2026-04-18T08:17:03.018Z</time></trkpt><trkpt lat="44.9001601" lon="8.1934784"><ele>127.66666666666666</ele><time>2026-04-18T08:17:05.018Z</time></trkpt><trkpt lat="44.9000781" lon="8.1934586"><ele>127.33333333333333</ele><time>2026-04-18T08:17:07.019Z</time></trkpt><trkpt lat="44.9000003" lon="8.1934688"><ele>127.0</ele><time>2026-04-18T08:17:09.019Z</time></trkpt><trkpt lat="44.8999284" lon="8.1935383"><ele>126.66666666666666</ele><time>2026-04-18T08:17:11.018Z</time></trkpt><trkpt lat="44.899889" lon="8.1936431"><ele>126.33333333333333</ele><time>2026-04-18T08:17:13.018Z</time></trkpt><trkpt lat="44.8998943" lon="8.193765"><ele>126.0</ele><time>2026-04-18T08:17:15.019Z</time></trkpt><trkpt lat="44.8999423" lon="8.1938768"><ele>126.0</ele><time>2026-04-18T08:17:17.019Z</time></trkpt><trkpt lat="44.9000145" lon="8.1939733"><ele>126.0</ele><time>2026-04-18T08:17:19.018Z</time></trkpt><trkpt lat="44.9000944" lon="8.1941065"><ele>126.0</ele><time>2026-04-18T08:17:21.019Z</time></trkpt><trkpt lat="44.9001314" lon="8.1941932"><ele>126.0</ele><time>2026-04-18T08:17:22.019Z</time></trkpt><trkpt lat="44.9001693" lon="8.1942743"><ele>126.0</ele><time>2026-04-18T08:17:23.019Z</time></trkpt><trkpt lat="44.9002424" lon="8.1944031"><ele>126.8</ele><time>2026-04-18T08:17:25.019Z</time></trkpt><trkpt lat="44.9003206" lon="8.1945107"><ele>127.6</ele><time>2026-04-18T08:17:27.019Z</time></trkpt><trkpt lat="44.9004022" lon="8.1946163"><ele>128.4</ele><time>2026-04-18T08:17:29.019Z</time></trkpt><trkpt lat="44.9004775" lon="8.1947127"><ele>129.2</ele><time>2026-04-18T08:17:31.019Z</time></trkpt><trkpt lat="44.9005507" lon="8.1948085"><ele>130.0</ele><time>2026-04-18T08:17:33.019Z</time></trkpt><trkpt lat="44.9006224" lon="8.1948819"><ele>130.5</ele><time>2026-04-18T08:17:35.019Z</time></trkpt><trkpt lat="44.9006755" lon="8.1949417"><ele>131.0</ele><time>2026-04-18T08:17:37.018Z</time></trkpt><trkpt lat="44.9007475" lon="8.1950116"><ele>131.5</ele><time>2026-04-18T08:17:39.019Z</time></trkpt><trkpt lat="44.9008451" lon="8.1951203"><ele>132.0</ele><time>2026-04-18T08:17:41.019Z</time></trkpt><trkpt lat="44.9008953" lon="8.1951783"><ele>132.5</ele><time>2026-04-18T08:17:42.018Z</time></trkpt><trkpt lat="44.9009472" lon="8.1952304"><ele>133.0</ele><time>2026-04-18T08:17:43.018Z</time></trkpt><trkpt lat="44.9010464" lon="8.19532"><ele>133.33333333333334</ele><time>2026-04-18T08:17:45.019Z</time></trkpt><trkpt lat="44.9011479" lon="8.1953979"><ele>133.66666666666669</ele><time>2026-04-18T08:17:47.018Z</time></trkpt><trkpt lat="44.9012057" lon="8.1954351"><ele>134.0</ele><time>2026-04-18T08:17:48.019Z</time></trkpt><trkpt lat="44.901266" lon="8.1954778"><ele>134.33333333333334</ele><time>2026-04-18T08:17:49.018Z</time></trkpt><trkpt lat="44.9013317" lon="8.195522"><ele>134.66666666666666</ele><time>2026-04-18T08:17:50.019Z</time></trkpt><trkpt lat="44.9014012" lon="8.1955671"><ele>135.0</ele><time>2026-04-18T08:17:51.018Z</time></trkpt><trkpt lat="44.9014661" lon="8.1956131"><ele>135.0</ele><time>2026-04-18T08:17:52.019Z</time></trkpt><trkpt lat="44.9015302" lon="8.195653"><ele>135.0</ele><time>2026-04-18T08:17:53.019Z</time></trkpt><trkpt lat="44.9015914" lon="8.1956878"><ele>135.0</ele><time>2026-04-18T08:17:54.018Z</time></trkpt><trkpt lat="44.901656" lon="8.1957219"><ele>135.0</ele><time>2026-04-18T08:17:55.019Z</time></trkpt><trkpt lat="44.9017252" lon="8.1957618"><ele>135.0</ele><time>2026-04-18T08:17:56.019Z</time></trkpt><trkpt lat="44.9017964" lon="8.1958014"><ele>135.0</ele><time>2026-04-18T08:17:57.018Z</time></trkpt><trkpt lat="44.901868" lon="8.1958467"><ele>135.0</ele><time>2026-04-18T08:17:58.018Z</time></trkpt><trkpt lat="44.9019423" lon="8.1958925"><ele>136.33333333333334</ele><time>2026-04-18T08:17:59.019Z</time></trkpt><trkpt lat="44.9020191" lon="8.1959382"><ele>137.66666666666666</ele><time>2026-04-18T08:18:00.019Z</time></trkpt><trkpt lat="44.9020997" lon="8.1959903"><ele>139.0</ele><time>2026-04-18T08:18:01.018Z</time></trkpt><trkpt lat="44.902173" lon="8.1960435"><ele>140.33333333333331</ele><time>2026-04-18T08:18:02.019Z</time></trkpt><trkpt lat="44.9022426" lon="8.1960884"><ele>141.66666666666666</ele><time>2026-04-18T08:18:03.018Z</time></trkpt><trkpt lat="44.9023015" lon="8.1961364"><ele>143.0</ele><time>2026-04-18T08:18:04.018Z</time></trkpt><trkpt lat="44.9023597" lon="8.1961859"><ele>142.99999999999997</ele><time>2026-04-18T08:18:05.019Z</time></trkpt><trkpt lat="44.9024173" lon="8.196234"><ele>143.0</ele><time>2026-04-18T08:18:06.018Z</time></trkpt><trkpt lat="44.9024753" lon="8.1962893"><ele>143.0</ele><time>2026-04-18T08:18:07.019Z</time></trkpt><trkpt lat="44.902532" lon="8.1963447"><ele>143.0</ele><time>2026-04-18T08:18:08.019Z</time></trkpt><trkpt lat="44.9025837" lon="8.1964103"><ele>143.0</ele><time>2026-04-18T08:18:09.018Z</time></trkpt><trkpt lat="44.9026313" lon="8.1964938"><ele>142.99999999999997</ele><time>2026-04-18T08:18:10.019Z</time></trkpt><trkpt lat="44.9026778" lon="8.1965871"><ele>143.0</ele><time>2026-04-18T08:18:11.019Z</time></trkpt><trkpt lat="44.9027236" lon="8.1966844"><ele>143.8</ele><time>2026-04-18T08:18:12.019Z</time></trkpt><trkpt lat="44.9027716" lon="8.1967789"><ele>144.60000000000002</ele><time>2026-04-18T08:18:13.019Z</time></trkpt><trkpt lat="44.9028167" lon="8.1968808"><ele>145.39999999999998</ele><time>2026-04-18T08:18:14.018Z</time></trkpt><trkpt lat="44.9028544" lon="8.1969701"><ele>146.2</ele><time>2026-04-18T08:18:15.019Z</time></trkpt><trkpt lat="44.902921" lon="8.1971148"><ele>147.0</ele><time>2026-04-18T08:18:17.018Z</time></trkpt><trkpt lat="44.9029844" lon="8.1972568"><ele>147.0</ele><time>2026-04-18T08:18:19.019Z</time></trkpt><trkpt lat="44.9030202" lon="8.1973319"><ele>147.0</ele><time>2026-04-18T08:18:20.018Z</time></trkpt><trkpt lat="44.9030601" lon="8.1974195"><ele>147.0</ele><time>2026-04-18T08:18:21.018Z</time></trkpt><trkpt lat="44.903102" lon="8.1975166"><ele>147.0</ele><time>2026-04-18T08:18:22.019Z</time></trkpt><trkpt lat="44.9031494" lon="8.1976152"><ele>147.0</ele><time>2026-04-18T08:18:23.019Z</time></trkpt><trkpt lat="44.9031973" lon="8.1977177"><ele>147.0</ele><time>2026-04-18T08:18:24.018Z</time></trkpt><trkpt lat="44.9032442" lon="8.1978269"><ele>147.0</ele><time>2026-04-18T08:18:25.019Z</time></trkpt><trkpt lat="44.9032944" lon="8.1979377"><ele>147.0</ele><time>2026-04-18T08:18:26.019Z</time></trkpt><trkpt lat="44.903346" lon="8.1980514"><ele>147.0</ele><time>2026-04-18T08:18:27.019Z</time></trkpt><trkpt lat="44.903398" lon="8.1981652"><ele>147.0</ele><time>2026-04-18T08:18:28.018Z</time></trkpt><trkpt lat="44.9034489" lon="8.1982824"><ele>147.0</ele><time>2026-04-18T08:18:29.019Z</time></trkpt><trkpt lat="44.9035012" lon="8.1983973"><ele>147.6</ele><time>2026-04-18T08:18:30.018Z</time></trkpt><trkpt lat="44.9035521" lon="8.1985114"><ele>148.2</ele><time>2026-04-18T08:18:31.018Z</time></trkpt><trkpt lat="44.9035985" lon="8.1986223"><ele>148.8</ele><time>2026-04-18T08:18:32.019Z</time></trkpt><trkpt lat="44.903643" lon="8.1987216"><ele>149.4</ele><time>2026-04-18T08:18:33.019Z</time></trkpt><trkpt lat="44.9036833" lon="8.198807"><ele>150.0</ele><time>2026-04-18T08:18:34.019Z</time></trkpt><trkpt lat="44.9037399" lon="8.198944"><ele>150.0</ele><time>2026-04-18T08:18:36.019Z</time></trkpt><trkpt lat="44.9037796" lon="8.1990705"><ele>150.0</ele><time>2026-04-18T08:18:38.018Z</time></trkpt><trkpt lat="44.9038136" lon="8.1992235"><ele>150.0</ele><time>2026-04-18T08:18:40.019Z</time></trkpt><trkpt lat="44.9038833" lon="8.1993332"><ele>150.0</ele><time>2026-04-18T08:18:42.019Z</time></trkpt><trkpt lat="44.9039464" lon="8.1993771"><ele>150.0</ele><time>2026-04-18T08:18:44.018Z</time></trkpt><trkpt lat="44.9040136" lon="8.199427"><ele>150.0</ele><time>2026-04-18T08:18:46.018Z</time></trkpt><trkpt lat="44.9041075" lon="8.1995325"><ele>150.0</ele><time>2026-04-18T08:18:48.018Z</time></trkpt><trkpt lat="44.9041753" lon="8.1996078"><ele>150.0</ele><time>2026-04-18T08:18:49.019Z</time></trkpt><trkpt lat="44.9042493" lon="8.1997011"><ele>150.0</ele><time>2026-04-18T08:18:50.019Z</time></trkpt><trkpt lat="44.9043299" lon="8.1998075"><ele>150.0</ele><time>2026-04-18T08:18:51.019Z</time></trkpt><trkpt lat="44.9044129" lon="8.1999198"><ele>150.75</ele><time>2026-04-18T08:18:52.019Z</time></trkpt><trkpt lat="44.9045026" lon="8.2000309"><ele>151.5</ele><time>2026-04-18T08:18:53.018Z</time></trkpt><trkpt lat="44.9045898" lon="8.2001438"><ele>152.25</ele><time>2026-04-18T08:18:54.019Z</time></trkpt><trkpt lat="44.9046786" lon="8.200258"><ele>153.0</ele><time>2026-04-18T08:18:55.018Z</time></trkpt><trkpt lat="44.9047634" lon="8.2003757"><ele>153.0</ele><time>2026-04-18T08:18:56.019Z</time></trkpt><trkpt lat="44.9048482" lon="8.200489"><ele>153.0</ele><time>2026-04-18T08:18:57.018Z</time></trkpt><trkpt lat="44.904938" lon="8.2006035"><ele>153.0</ele><time>2026-04-18T08:18:58.018Z</time></trkpt><trkpt lat="44.9050243" lon="8.2007185"><ele>153.0</ele><time>2026-04-18T08:18:59.018Z</time></trkpt><trkpt lat="44.9051116" lon="8.200835"><ele>153.25</ele><time>2026-04-18T08:19:00.019Z</time></trkpt><trkpt lat="44.9051982" lon="8.2009518"><ele>153.5</ele><time>2026-04-18T08:19:01.018Z</time></trkpt><trkpt lat="44.9052895" lon="8.2010671"><ele>153.75</ele><time>2026-04-18T08:19:02.019Z</time></trkpt><trkpt lat="44.905378" lon="8.2011908"><ele>154.0</ele><time>2026-04-18T08:19:03.018Z</time></trkpt><trkpt lat="44.9054691" lon="8.2013082"><ele>154.0</ele><time>2026-04-18T08:19:04.019Z</time></trkpt><trkpt lat="44.905535" lon="8.2014245"><ele>154.0</ele><time>2026-04-18T08:19:05.018Z</time></trkpt><trkpt lat="44.9055889" lon="8.2015409"><ele>154.0</ele><time>2026-04-18T08:19:06.018Z</time></trkpt><trkpt lat="44.9056318" lon="8.2016552"><ele>154.0</ele><time>2026-04-18T08:19:07.018Z</time></trkpt><trkpt lat="44.9056523" lon="8.2017626"><ele>154.0</ele><time>2026-04-18T08:19:08.019Z</time></trkpt><trkpt lat="44.9056622" lon="8.2019096"><ele>152.8</ele><time>2026-04-18T08:19:10.019Z</time></trkpt><trkpt lat="44.9056744" lon="8.2020275"><ele>151.60000000000002</ele><time>2026-04-18T08:19:12.018Z</time></trkpt><trkpt lat="44.9056811" lon="8.2021822"><ele>150.4</ele><time>2026-04-18T08:19:14.019Z</time></trkpt><trkpt lat="44.9056554" lon="8.2023346"><ele>149.20000000000002</ele><time>2026-04-18T08:19:16.019Z</time></trkpt><trkpt lat="44.9055745" lon="8.2024536"><ele>148.0</ele><time>2026-04-18T08:19:18.018Z</time></trkpt><trkpt lat="44.9054715" lon="8.2025471"><ele>148.0</ele><time>2026-04-18T08:19:20.019Z</time></trkpt><trkpt lat="44.9053918" lon="8.2026231"><ele>148.0</ele><time>2026-04-18T08:19:22.019Z</time></trkpt><trkpt lat="44.9053196" lon="8.2026938"><ele>148.0</ele><time>2026-04-18T08:19:24.019Z</time></trkpt><trkpt lat="44.9052203" lon="8.2027814"><ele>148.0</ele><time>2026-04-18T08:19:26.019Z</time></trkpt><trkpt lat="44.9051625" lon="8.20283"><ele>148.0</ele><time>2026-04-18T08:19:27.018Z</time></trkpt><trkpt lat="44.9050976" lon="8.2028814"><ele>148.0</ele><time>2026-04-18T08:19:28.018Z</time></trkpt><trkpt lat="44.9050298" lon="8.2029337"><ele>147.83333333333334</ele><time>2026-04-18T08:19:29.018Z</time></trkpt><trkpt lat="44.9049572" lon="8.2029847"><ele>147.66666666666669</ele><time>2026-04-18T08:19:30.018Z</time></trkpt><trkpt lat="44.904883" lon="8.203038"><ele>147.5</ele><time>2026-04-18T08:19:31.019Z</time></trkpt><trkpt lat="44.9048077" lon="8.2031009"><ele>147.33333333333334</ele><time>2026-04-18T08:19:32.018Z</time></trkpt><trkpt lat="44.9047257" lon="8.2031592"><ele>147.16666666666666</ele><time>2026-04-18T08:19:33.019Z</time></trkpt><trkpt lat="44.9046435" lon="8.2032242"><ele>147.0</ele><time>2026-04-18T08:19:34.019Z</time></trkpt><trkpt lat="44.9045612" lon="8.2032932"><ele>147.0</ele><time>2026-04-18T08:19:35.019Z</time></trkpt><trkpt lat="44.9044772" lon="8.2033581"><ele>147.0</ele><time>2026-04-18T08:19:36.018Z</time></trkpt><trkpt lat="44.9043894" lon="8.2034302"><ele>147.0</ele><time>2026-04-18T08:19:37.018Z</time></trkpt><trkpt lat="44.9043068" lon="8.2035008"><ele>147.0</ele><time>2026-04-18T08:19:38.018Z</time></trkpt><trkpt lat="44.9042262" lon="8.2035657"><ele>147.0</ele><time>2026-04-18T08:19:39.019Z</time></trkpt><trkpt lat="44.9041551" lon="8.2036294"><ele>146.57142857142858</ele><time>2026-04-18T08:19:40.019Z</time></trkpt><trkpt lat="44.9040819" lon="8.2036841"><ele>146.14285714285714</ele><time>2026-04-18T08:19:41.019Z</time></trkpt><trkpt lat="44.9040212" lon="8.2037358"><ele>145.71428571428572</ele><time>2026-04-18T08:19:42.019Z</time></trkpt><trkpt lat="44.9039648" lon="8.2037791"><ele>145.28571428571428</ele><time>2026-04-18T08:19:43.018Z</time></trkpt><trkpt lat="44.90391" lon="8.2038263"><ele>144.85714285714286</ele><time>2026-04-18T08:19:44.018Z</time></trkpt><trkpt lat="44.9038615" lon="8.2039011"><ele>144.42857142857144</ele><time>2026-04-18T08:19:45.019Z</time></trkpt><trkpt lat="44.9038063" lon="8.2039572"><ele>144.0</ele><time>2026-04-18T08:19:46.018Z</time></trkpt><trkpt lat="44.9037007" lon="8.2040505"><ele>144.0</ele><time>2026-04-18T08:19:48.019Z</time></trkpt><trkpt lat="44.9036435" lon="8.2041"><ele>144.0</ele><time>2026-04-18T08:19:49.018Z</time></trkpt><trkpt lat="44.9035564" lon="8.2041708"><ele>144.0</ele><time>2026-04-18T08:19:51.019Z</time></trkpt><trkpt lat="44.903496" lon="8.2042138"><ele>144.0</ele><time>2026-04-18T08:19:53.019Z</time></trkpt><trkpt lat="44.9034144" lon="8.2042758"><ele>144.0</ele><time>2026-04-18T08:19:56.018Z</time></trkpt><trkpt lat="44.9033535" lon="8.2043227"><ele>144.0</ele><time>2026-04-18T08:19:58.018Z</time></trkpt><trkpt lat="44.9032923" lon="8.2043732"><ele>142.83333333333334</ele><time>2026-04-18T08:20:00.018Z</time></trkpt><trkpt lat="44.9032221" lon="8.2044147"><ele>141.66666666666666</ele><time>2026-04-18T08:20:02.019Z</time></trkpt><trkpt lat="44.9031422" lon="8.2044583"><ele>140.5</ele><time>2026-04-18T08:20:04.019Z</time></trkpt><trkpt lat="44.9030608" lon="8.2044978"><ele>139.33333333333331</ele><time>2026-04-18T08:20:06.019Z</time></trkpt><trkpt lat="44.9029782" lon="8.2045457"><ele>138.16666666666666</ele><time>2026-04-18T08:20:08.018Z</time></trkpt><trkpt lat="44.9029324" lon="8.2046222"><ele>137.0</ele><time>2026-04-18T08:20:10.018Z</time></trkpt><trkpt lat="44.9029391" lon="8.2047214"><ele>136.79999999999998</ele><time>2026-04-18T08:20:12.019Z</time></trkpt><trkpt lat="44.9029746" lon="8.2048709"><ele>136.6</ele><time>2026-04-18T08:20:14.018Z</time></trkpt><trkpt lat="44.903011" lon="8.2050205"><ele>136.39999999999998</ele><time>2026-04-18T08:20:16.018Z</time></trkpt><trkpt lat="44.9030275" lon="8.2051911"><ele>136.2</ele><time>2026-04-18T08:20:18.018Z</time></trkpt><trkpt lat="44.9030319" lon="8.2052932"><ele>136.0</ele><time>2026-04-18T08:20:19.019Z</time></trkpt><trkpt lat="44.9030404" lon="8.2054039"><ele>136.0</ele><time>2026-04-18T08:20:20.018Z</time></trkpt><trkpt lat="44.9030493" lon="8.2055222"><ele>136.0</ele><time>2026-04-18T08:20:21.019Z</time></trkpt><trkpt lat="44.9030614" lon="8.2056358"><ele>136.0</ele><time>2026-04-18T08:20:22.018Z</time></trkpt><trkpt lat="44.9030731" lon="8.2057434"><ele>136.0</ele><time>2026-04-18T08:20:23.018Z</time></trkpt><trkpt lat="44.9030835" lon="8.2058533"><ele>136.0</ele><time>2026-04-18T08:20:24.018Z</time></trkpt><trkpt lat="44.9030891" lon="8.205947"><ele>136.0</ele><time>2026-04-18T08:20:25.019Z</time></trkpt><trkpt lat="44.9031026" lon="8.2060968"><ele>135.8</ele><time>2026-04-18T08:20:27.019Z</time></trkpt><trkpt lat="44.9031147" lon="8.2062235"><ele>135.6</ele><time>2026-04-18T08:20:29.019Z</time></trkpt><trkpt lat="44.9031285" lon="8.2063355"><ele>135.4</ele><time>2026-04-18T08:20:31.019Z</time></trkpt><trkpt lat="44.9031389" lon="8.2064537"><ele>135.2</ele><time>2026-04-18T08:20:33.018Z</time></trkpt><trkpt lat="44.9031428" lon="8.2066057"><ele>135.0</ele><time>2026-04-18T08:20:35.019Z</time></trkpt><trkpt lat="44.9031538" lon="8.2067795"><ele>135.0</ele><time>2026-04-18T08:20:37.019Z</time></trkpt><trkpt lat="44.9031652" lon="8.206868"><ele>135.0</ele><time>2026-04-18T08:20:38.019Z</time></trkpt><trkpt lat="44.9031676" lon="8.2069717"><ele>135.0</ele><time>2026-04-18T08:20:39.018Z</time></trkpt><trkpt lat="44.9031769" lon="8.2070737"><ele>135.0</ele><time>2026-04-18T08:20:40.018Z</time></trkpt><trkpt lat="44.9031887" lon="8.2071801"><ele>135.0</ele><time>2026-04-18T08:20:41.018Z</time></trkpt><trkpt lat="44.9031987" lon="8.2073073"><ele>135.0</ele><time>2026-04-18T08:20:42.019Z</time></trkpt><trkpt lat="44.9032067" lon="8.2074325"><ele>135.0</ele><time>2026-04-18T08:20:43.019Z</time></trkpt><trkpt lat="44.9032198" lon="8.207569"><ele>135.0</ele><time>2026-04-18T08:20:44.019Z</time></trkpt><trkpt lat="44.903239" lon="8.2077147"><ele>135.0</ele><time>2026-04-18T08:20:45.019Z</time></trkpt><trkpt lat="44.9032576" lon="8.2078831"><ele>135.0</ele><time>2026-04-18T08:20:46.018Z</time></trkpt><trkpt lat="44.9032679" lon="8.2080605"><ele>135.0</ele><time>2026-04-18T08:20:47.018Z</time></trkpt><trkpt lat="44.9032761" lon="8.2082473"><ele>134.75</ele><time>2026-04-18T08:20:48.019Z</time></trkpt><trkpt lat="44.9032925" lon="8.2084324"><ele>134.5</ele><time>2026-04-18T08:20:49.019Z</time></trkpt><trkpt lat="44.9033043" lon="8.2086148"><ele>134.25</ele><time>2026-04-18T08:20:50.018Z</time></trkpt><trkpt lat="44.9033084" lon="8.2087887"><ele>134.0</ele><time>2026-04-18T08:20:51.019Z</time></trkpt><trkpt lat="44.9033131" lon="8.2089515"><ele>133.0</ele><time>2026-04-18T08:20:52.019Z</time></trkpt><trkpt lat="44.9033207" lon="8.2090986"><ele>132.0</ele><time>2026-04-18T08:20:53.018Z</time></trkpt><trkpt lat="44.9033268" lon="8.2092178"><ele>131.0</ele><time>2026-04-18T08:20:54.018Z</time></trkpt><trkpt lat="44.903335" lon="8.2093662"><ele>130.0</ele><time>2026-04-18T08:20:56.019Z</time></trkpt><trkpt lat="44.9033462" lon="8.2094649"><ele>129.0</ele><time>2026-04-18T08:20:58.018Z</time></trkpt><trkpt lat="44.903407" lon="8.2095757"><ele>129.5</ele><time>2026-04-18T08:21:00.018Z</time></trkpt><trkpt lat="44.9034573" lon="8.209634"><ele>130.0</ele><time>2026-04-18T08:21:01.018Z</time></trkpt><trkpt lat="44.9035153" lon="8.2097009"><ele>130.5</ele><time>2026-04-18T08:21:02.018Z</time></trkpt><trkpt lat="44.9035795" lon="8.2097734"><ele>131.0</ele><time>2026-04-18T08:21:03.019Z</time></trkpt><trkpt lat="44.9036538" lon="8.2098581"><ele>131.5</ele><time>2026-04-18T08:21:04.019Z</time></trkpt><trkpt lat="44.9037305" lon="8.209946"><ele>132.0</ele><time>2026-04-18T08:21:05.019Z</time></trkpt><trkpt lat="44.9038047" lon="8.2100324"><ele>132.0</ele><time>2026-04-18T08:21:06.019Z</time></trkpt><trkpt lat="44.9038726" lon="8.2101128"><ele>132.0</ele><time>2026-04-18T08:21:07.018Z</time></trkpt><trkpt lat="44.9039351" lon="8.2101852"><ele>132.0</ele><time>2026-04-18T08:21:08.018Z</time></trkpt><trkpt lat="44.9039992" lon="8.2102418"><ele>132.0</ele><time>2026-04-18T08:21:09.018Z</time></trkpt><trkpt lat="44.9040562" lon="8.2103089"><ele>132.0</ele><time>2026-04-18T08:21:10.018Z</time></trkpt><trkpt lat="44.9041184" lon="8.2103787"><ele>132.0</ele><time>2026-04-18T08:21:11.018Z</time></trkpt><trkpt lat="44.9041781" lon="8.2104563"><ele>132.0</ele><time>2026-04-18T08:21:12.019Z</time></trkpt><trkpt lat="44.9042417" lon="8.2105203"><ele>132.0</ele><time>2026-04-18T08:21:13.018Z</time></trkpt><trkpt lat="44.9042973" lon="8.2105837"><ele>132.0</ele><time>2026-04-18T08:21:14.019Z</time></trkpt><trkpt lat="44.9043929" lon="8.2106931"><ele>132.0</ele><time>2026-04-18T08:21:16.019Z</time></trkpt><trkpt lat="44.9044811" lon="8.2107858"><ele>132.0</ele><time>2026-04-18T08:21:18.018Z</time></trkpt><trkpt lat="44.9045499" lon="8.2108534"><ele>132.83333333333334</ele><time>2026-04-18T08:21:20.019Z</time></trkpt><trkpt lat="44.9045983" lon="8.2109161"><ele>133.66666666666666</ele><time>2026-04-18T08:21:22.019Z</time></trkpt><trkpt lat="44.904614" lon="8.2110318"><ele>134.5</ele><time>2026-04-18T08:21:24.019Z</time></trkpt><trkpt lat="44.9045578" lon="8.211166"><ele>135.33333333333331</ele><time>2026-04-18T08:21:26.019Z</time></trkpt><trkpt lat="44.9044571" lon="8.2112651"><ele>136.16666666666666</ele><time>2026-04-18T08:21:28.019Z</time></trkpt><trkpt lat="44.9044031" lon="8.2113174"><ele>137.0</ele><time>2026-04-18T08:21:29.019Z</time></trkpt><trkpt lat="44.9043478" lon="8.2113673"><ele>137.0</ele><time>2026-04-18T08:21:30.018Z</time></trkpt><trkpt lat="44.9042918" lon="8.2114199"><ele>137.0</ele><time>2026-04-18T08:21:31.019Z</time></trkpt><trkpt lat="44.9042346" lon="8.211469"><ele>137.0</ele><time>2026-04-18T08:21:32.018Z</time></trkpt><trkpt lat="44.9041797" lon="8.2115216"><ele>137.0</ele><time>2026-04-18T08:21:33.019Z</time></trkpt><trkpt lat="44.9041233" lon="8.2115741"><ele>137.0</ele><time>2026-04-18T08:21:34.019Z</time></trkpt><trkpt lat="44.9040658" lon="8.2116256"><ele>137.0</ele><time>2026-04-18T08:21:35.018Z</time></trkpt><trkpt lat="44.9039602" lon="8.2117188"><ele>135.42857142857144</ele><time>2026-04-18T08:21:37.018Z</time></trkpt><trkpt lat="44.9039062" lon="8.2117698"><ele>133.85714285714286</ele><time>2026-04-18T08:21:38.019Z</time></trkpt><trkpt lat="44.9038486" lon="8.2118218"><ele>132.28571428571428</ele><time>2026-04-18T08:21:39.018Z</time></trkpt><trkpt lat="44.9037889" lon="8.2118785"><ele>130.71428571428572</ele><time>2026-04-18T08:21:40.018Z</time></trkpt><trkpt lat="44.903725" lon="8.211938"><ele>129.14285714285714</ele><time>2026-04-18T08:21:41.018Z</time></trkpt><trkpt lat="44.9036587" lon="8.2119968"><ele>127.57142857142857</ele><time>2026-04-18T08:21:42.018Z</time></trkpt><trkpt lat="44.903593" lon="8.2120624"><ele>126.0</ele><time>2026-04-18T08:21:43.018Z</time></trkpt><trkpt lat="44.9035237" lon="8.212128"><ele>126.0</ele><time>2026-04-18T08:21:44.019Z</time></trkpt><trkpt lat="44.9034487" lon="8.212197"><ele>126.0</ele><time>2026-04-18T08:21:45.018Z</time></trkpt><trkpt lat="44.90337" lon="8.2122658"><ele>126.0</ele><time>2026-04-18T08:21:46.018Z</time></trkpt><trkpt lat="44.903295" lon="8.2123375"><ele>126.0</ele><time>2026-04-18T08:21:47.019Z</time></trkpt><trkpt lat="44.9032206" lon="8.2124018"><ele>126.0</ele><time>2026-04-18T08:21:48.019Z</time></trkpt><trkpt lat="44.9031506" lon="8.2124618"><ele>126.0</ele><time>2026-04-18T08:21:49.018Z</time></trkpt><trkpt lat="44.903094" lon="8.2125144"><ele>125.83333333333333</ele><time>2026-04-18T08:21:50.018Z</time></trkpt><trkpt lat="44.903025" lon="8.2125767"><ele>125.66666666666666</ele><time>2026-04-18T08:21:52.018Z</time></trkpt><trkpt lat="44.90296" lon="8.2126622"><ele>125.5</ele><time>2026-04-18T08:22:10.019Z</time></trkpt><trkpt lat="44.902903" lon="8.2127133"><ele>125.33333333333333</ele><time>2026-04-18T08:22:12.019Z</time></trkpt><trkpt lat="44.9028406" lon="8.2127708"><ele>125.16666666666666</ele><time>2026-04-18T08:22:19.019Z</time></trkpt><trkpt lat="44.9028004" lon="8.2128524"><ele>125.0</ele><time>2026-04-18T08:22:23.018Z</time></trkpt><trkpt lat="44.9028217" lon="8.2129676"><ele>125.0</ele><time>2026-04-18T08:22:26.018Z</time></trkpt><trkpt lat="44.9028445" lon="8.2130636"><ele>125.0</ele><time>2026-04-18T08:22:34.019Z</time></trkpt><trkpt lat="44.9028691" lon="8.2131503"><ele>125.0</ele><time>2026-04-18T08:22:37.019Z</time></trkpt><trkpt lat="44.9028878" lon="8.2132513"><ele>125.0</ele><time>2026-04-18T08:22:46.019Z</time></trkpt><trkpt lat="44.9029101" lon="8.2133551"><ele>125.0</ele><time>2026-04-18T08:22:49.019Z</time></trkpt><trkpt lat="44.9029312" lon="8.2134443"><ele>125.0</ele><time>2026-04-18T08:22:51.019Z</time></trkpt><trkpt lat="44.9029487" lon="8.2135562"><ele>125.0</ele><time>2026-04-18T08:22:54.018Z</time></trkpt><trkpt lat="44.90294" lon="8.2136802"><ele>125.4</ele><time>2026-04-18T08:22:56.019Z</time></trkpt><trkpt lat="44.9029512" lon="8.2138226"><ele>125.8</ele><time>2026-04-18T08:22:58.019Z</time></trkpt><trkpt lat="44.9029994" lon="8.2139601"><ele>126.19999999999999</ele><time>2026-04-18T08:23:00.018Z</time></trkpt><trkpt lat="44.9030533" lon="8.2140871"><ele>126.6</ele><time>2026-04-18T08:23:02.018Z</time></trkpt><trkpt lat="44.9030964" lon="8.2141977"><ele>127.0</ele><time>2026-04-18T08:23:04.019Z</time></trkpt><trkpt lat="44.9031274" lon="8.2142781"><ele>127.00000000000001</ele><time>2026-04-18T08:23:14.019Z</time></trkpt><trkpt lat="44.9031612" lon="8.2144049"><ele>127.0</ele><time>2026-04-18T08:23:17.019Z</time></trkpt><trkpt lat="44.9031999" lon="8.2145224"><ele>127.0</ele><time>2026-04-18T08:23:20.018Z</time></trkpt><trkpt lat="44.903238" lon="8.2146302"><ele>127.0</ele><time>2026-04-18T08:23:26.019Z</time></trkpt><trkpt lat="44.9032642" lon="8.214736"><ele>127.00000000000001</ele><time>2026-04-18T08:23:28.018Z</time></trkpt><trkpt lat="44.903288" lon="8.2148316"><ele>127.0</ele><time>2026-04-18T08:23:31.018Z</time></trkpt><trkpt lat="44.903313" lon="8.2149459"><ele>127.00000000000001</ele><time>2026-04-18T08:23:34.019Z</time></trkpt><trkpt lat="44.9033369" lon="8.2150395"><ele>127.0</ele><time>2026-04-18T08:23:36.018Z</time></trkpt><trkpt lat="44.9033675" lon="8.2151574"><ele>127.0</ele><time>2026-04-18T08:23:39.018Z</time></trkpt><trkpt lat="44.9033932" lon="8.215275"><ele>127.0</ele><time>2026-04-18T08:23:42.018Z</time></trkpt><trkpt lat="44.9034103" lon="8.2153676"><ele>127.00000000000001</ele><time>2026-04-18T08:23:46.019Z</time></trkpt><trkpt lat="44.9034542" lon="8.2155159"><ele>127.0</ele><time>2026-04-18T08:23:49.019Z</time></trkpt><trkpt lat="44.9034873" lon="8.2156696"><ele>126.50000000000001</ele><time>2026-04-18T08:23:51.019Z</time></trkpt><trkpt lat="44.903511" lon="8.2157625"><ele>126.0</ele><time>2026-04-18T08:23:52.019Z</time></trkpt><trkpt lat="44.9035385" lon="8.2158691"><ele>125.5</ele><time>2026-04-18T08:23:53.019Z</time></trkpt><trkpt lat="44.9035676" lon="8.2159834"><ele>125.0</ele><time>2026-04-18T08:23:54.019Z</time></trkpt><trkpt lat="44.9035984" lon="8.2160968"><ele>124.50000000000001</ele><time>2026-04-18T08:23:55.018Z</time></trkpt><trkpt lat="44.9036266" lon="8.2161986"><ele>124.0</ele><time>2026-04-18T08:23:56.019Z</time></trkpt><trkpt lat="44.9036494" lon="8.2162821"><ele>124.00000000000001</ele><time>2026-04-18T08:23:57.018Z</time></trkpt><trkpt lat="44.9036782" lon="8.2163785"><ele>124.0</ele><time>2026-04-18T08:23:59.018Z</time></trkpt><trkpt lat="44.9037102" lon="8.2164762"><ele>124.0</ele><time>2026-04-18T08:24:02.019Z</time></trkpt><trkpt lat="44.9037438" lon="8.2166297"><ele>124.0</ele><time>2026-04-18T08:24:04.019Z</time></trkpt><trkpt lat="44.9037696" lon="8.216718"><ele>124.00000000000001</ele><time>2026-04-18T08:24:05.018Z</time></trkpt><trkpt lat="44.9037909" lon="8.2168105"><ele>124.0</ele><time>2026-04-18T08:24:06.019Z</time></trkpt><trkpt lat="44.903814" lon="8.2168984"><ele>124.16666666666667</ele><time>2026-04-18T08:24:07.019Z</time></trkpt><trkpt lat="44.9038389" lon="8.2170005"><ele>124.33333333333334</ele><time>2026-04-18T08:24:08.019Z</time></trkpt><trkpt lat="44.9038686" lon="8.2171135"><ele>124.5</ele><time>2026-04-18T08:24:09.018Z</time></trkpt><trkpt lat="44.903901" lon="8.2172326"><ele>124.66666666666666</ele><time>2026-04-18T08:24:10.018Z</time></trkpt><trkpt lat="44.9039336" lon="8.2173551"><ele>124.83333333333333</ele><time>2026-04-18T08:24:11.018Z</time></trkpt><trkpt lat="44.9039675" lon="8.2174785"><ele>125.0</ele><time>2026-04-18T08:24:12.018Z</time></trkpt><trkpt lat="44.9039999" lon="8.2175948"><ele>124.99999999999999</ele><time>2026-04-18T08:24:13.018Z</time></trkpt><trkpt lat="44.9040308" lon="8.2177065"><ele>125.0</ele><time>2026-04-18T08:24:14.019Z</time></trkpt><trkpt lat="44.9040612" lon="8.2178178"><ele>125.0</ele><time>2026-04-18T08:24:15.018Z</time></trkpt><trkpt lat="44.9040935" lon="8.2179351"><ele>125.0</ele><time>2026-04-18T08:24:16.019Z</time></trkpt><trkpt lat="44.9041225" lon="8.2180513"><ele>124.99999999999999</ele><time>2026-04-18T08:24:17.019Z</time></trkpt><trkpt lat="44.9041489" lon="8.2181658"><ele>125.0</ele><time>2026-04-18T08:24:18.019Z</time></trkpt><trkpt lat="44.9041747" lon="8.2182581"><ele>124.8</ele><time>2026-04-18T08:24:19.018Z</time></trkpt><trkpt lat="44.9042039" lon="8.2183893"><ele>124.6</ele><time>2026-04-18T08:24:21.019Z</time></trkpt><trkpt lat="44.9042309" lon="8.2185055"><ele>124.4</ele><time>2026-04-18T08:24:24.019Z</time></trkpt><trkpt lat="44.9042754" lon="8.2186349"><ele>124.2</ele><time>2026-04-18T08:24:27.018Z</time></trkpt><trkpt lat="44.9043035" lon="8.2187474"><ele>124.0</ele><time>2026-04-18T08:24:29.019Z</time></trkpt><trkpt lat="44.9043276" lon="8.2188579"><ele>123.83333333333334</ele><time>2026-04-18T08:24:31.018Z</time></trkpt><trkpt lat="44.9043614" lon="8.2189668"><ele>123.66666666666667</ele><time>2026-04-18T08:24:33.019Z</time></trkpt><trkpt lat="44.9043874" lon="8.2190699"><ele>123.5</ele><time>2026-04-18T08:24:35.019Z</time></trkpt><trkpt lat="44.9044165" lon="8.2191921"><ele>123.33333333333334</ele><time>2026-04-18T08:24:37.018Z</time></trkpt><trkpt lat="44.9044539" lon="8.2193178"><ele>123.16666666666667</ele><time>2026-04-18T08:24:39.019Z</time></trkpt><trkpt lat="44.9044831" lon="8.2194389"><ele>123.0</ele><time>2026-04-18T08:24:41.019Z</time></trkpt><trkpt lat="44.9045193" lon="8.2195732"><ele>123.16666666666667</ele><time>2026-04-18T08:24:43.018Z</time></trkpt><trkpt lat="44.9045538" lon="8.219728"><ele>123.33333333333334</ele><time>2026-04-18T08:24:45.018Z</time></trkpt><trkpt lat="44.9045753" lon="8.2198176"><ele>123.5</ele><time>2026-04-18T08:24:46.018Z</time></trkpt><trkpt lat="44.9045993" lon="8.2199139"><ele>123.66666666666667</ele><time>2026-04-18T08:24:47.018Z</time></trkpt><trkpt lat="44.9046187" lon="8.2200048"><ele>123.83333333333334</ele><time>2026-04-18T08:24:48.019Z</time></trkpt><trkpt lat="44.9046459" lon="8.2200881"><ele>124.0</ele><time>2026-04-18T08:24:49.019Z</time></trkpt><trkpt lat="44.9046814" lon="8.2201692"><ele>124.00000000000001</ele><time>2026-04-18T08:24:50.019Z</time></trkpt><trkpt lat="44.9047132" lon="8.2202601"><ele>124.0</ele><time>2026-04-18T08:24:51.018Z</time></trkpt><trkpt lat="44.9047461" lon="8.220356"><ele>124.0</ele><time>2026-04-18T08:24:52.019Z</time></trkpt><trkpt lat="44.9047834" lon="8.2204567"><ele>124.0</ele><time>2026-04-18T08:24:53.018Z</time></trkpt><trkpt lat="44.9048117" lon="8.2205671"><ele>124.00000000000001</ele><time>2026-04-18T08:24:54.019Z</time></trkpt><trkpt lat="44.9048331" lon="8.2206671"><ele>124.0</ele><time>2026-04-18T08:24:55.018Z</time></trkpt><trkpt lat="44.9048662" lon="8.2208205"><ele>123.83333333333334</ele><time>2026-04-18T08:24:57.018Z</time></trkpt><trkpt lat="44.9048947" lon="8.2209444"><ele>123.66666666666667</ele><time>2026-04-18T08:24:59.019Z</time></trkpt><trkpt lat="44.9049184" lon="8.2210393"><ele>123.5</ele><time>2026-04-18T08:25:01.019Z</time></trkpt><trkpt lat="44.9049467" lon="8.2211591"><ele>123.33333333333334</ele><time>2026-04-18T08:25:03.018Z</time></trkpt><trkpt lat="44.9049737" lon="8.2212901"><ele>123.16666666666667</ele><time>2026-04-18T08:25:05.019Z</time></trkpt><trkpt lat="44.9050033" lon="8.2214017"><ele>123.0</ele><time>2026-04-18T08:25:07.018Z</time></trkpt><trkpt lat="44.9050342" lon="8.2215112"><ele>123.0</ele><time>2026-04-18T08:25:09.019Z</time></trkpt><trkpt lat="44.9050643" lon="8.2216449"><ele>123.00000000000001</ele><time>2026-04-18T08:25:11.018Z</time></trkpt><trkpt lat="44.9051041" lon="8.2217959"><ele>123.00000000000001</ele><time>2026-04-18T08:25:13.019Z</time></trkpt><trkpt lat="44.9051405" lon="8.2219479"><ele>123.0</ele><time>2026-04-18T08:25:15.018Z</time></trkpt><trkpt lat="44.9051824" lon="8.2221051"><ele>123.0</ele><time>2026-04-18T08:25:17.019Z</time></trkpt><trkpt lat="44.9052232" lon="8.2222714"><ele>122.42857142857144</ele><time>2026-04-18T08:25:19.018Z</time></trkpt><trkpt lat="44.9052458" lon="8.222366"><ele>121.85714285714286</ele><time>2026-04-18T08:25:20.018Z</time></trkpt><trkpt lat="44.9052686" lon="8.2224638"><ele>121.28571428571429</ele><time>2026-04-18T08:25:21.018Z</time></trkpt><trkpt lat="44.9052898" lon="8.2225521"><ele>120.71428571428572</ele><time>2026-04-18T08:25:22.019Z</time></trkpt><trkpt lat="44.9053083" lon="8.2226435"><ele>120.14285714285714</ele><time>2026-04-18T08:25:23.018Z</time></trkpt><trkpt lat="44.9053271" lon="8.2227325"><ele>119.57142857142857</ele><time>2026-04-18T08:25:24.019Z</time></trkpt><trkpt lat="44.9053589" lon="8.2228675"><ele>119.0</ele><time>2026-04-18T08:25:26.019Z</time></trkpt><trkpt lat="44.9053888" lon="8.222971"><ele>118.99999999999999</ele><time>2026-04-18T08:25:28.019Z</time></trkpt><trkpt lat="44.9054092" lon="8.2230607"><ele>119.0</ele><time>2026-04-18T08:25:30.019Z</time></trkpt><trkpt lat="44.905427" lon="8.2231577"><ele>119.0</ele><time>2026-04-18T08:25:33.018Z</time></trkpt><trkpt lat="44.9054491" lon="8.2232619"><ele>119.0</ele><time>2026-04-18T08:25:37.019Z</time></trkpt><trkpt lat="44.9054637" lon="8.2234025"><ele>118.99999999999999</ele><time>2026-04-18T08:25:39.019Z</time></trkpt><trkpt lat="44.9054878" lon="8.2235779"><ele>119.0</ele><time>2026-04-18T08:25:41.019Z</time></trkpt><trkpt lat="44.9055015" lon="8.2236845"><ele>118.66666666666666</ele><time>2026-04-18T08:25:42.018Z</time></trkpt><trkpt lat="44.9055101" lon="8.2237904"><ele>118.33333333333333</ele><time>2026-04-18T08:25:43.018Z</time></trkpt><trkpt lat="44.9055236" lon="8.2238796"><ele>118.0</ele><time>2026-04-18T08:25:44.018Z</time></trkpt><trkpt lat="44.9055295" lon="8.2239702"><ele>117.66666666666666</ele><time>2026-04-18T08:25:45.018Z</time></trkpt><trkpt lat="44.9055352" lon="8.2241332"><ele>117.33333333333333</ele><time>2026-04-18T08:25:47.018Z</time></trkpt><trkpt lat="44.905536" lon="8.2242926"><ele>117.0</ele><time>2026-04-18T08:25:49.019Z</time></trkpt><trkpt lat="44.9055336" lon="8.2244669"><ele>117.0</ele><time>2026-04-18T08:25:51.019Z</time></trkpt><trkpt lat="44.9055373" lon="8.2245616"><ele>117.0</ele><time>2026-04-18T08:25:52.019Z</time></trkpt><trkpt lat="44.9055384" lon="8.2246555"><ele>117.0</ele><time>2026-04-18T08:25:53.019Z</time></trkpt><trkpt lat="44.905541" lon="8.22475"><ele>117.0</ele><time>2026-04-18T08:25:54.019Z</time></trkpt><trkpt lat="44.9055434" lon="8.2248392"><ele>117.0</ele><time>2026-04-18T08:25:55.019Z</time></trkpt><trkpt lat="44.9055584" lon="8.2250029"><ele>117.0</ele><time>2026-04-18T08:25:57.019Z</time></trkpt><trkpt lat="44.905569" lon="8.2251514"><ele>117.33333333333333</ele><time>2026-04-18T08:25:59.019Z</time></trkpt><trkpt lat="44.9055751" lon="8.2253232"><ele>117.66666666666666</ele><time>2026-04-18T08:26:01.018Z</time></trkpt><trkpt lat="44.9055769" lon="8.2254136"><ele>118.0</ele><time>2026-04-18T08:26:02.018Z</time></trkpt><trkpt lat="44.905577" lon="8.2255088"><ele>118.33333333333333</ele><time>2026-04-18T08:26:03.019Z</time></trkpt><trkpt lat="44.90558" lon="8.2256041"><ele>118.66666666666666</ele><time>2026-04-18T08:26:04.018Z</time></trkpt><trkpt lat="44.905579" lon="8.225702"><ele>119.0</ele><time>2026-04-18T08:26:05.018Z</time></trkpt><trkpt lat="44.9055812" lon="8.2258018"><ele>118.99999999999999</ele><time>2026-04-18T08:26:06.019Z</time></trkpt><trkpt lat="44.9055873" lon="8.2259104"><ele>119.0</ele><time>2026-04-18T08:26:07.019Z</time></trkpt><trkpt lat="44.9055911" lon="8.2260217"><ele>119.0</ele><time>2026-04-18T08:26:08.018Z</time></trkpt><trkpt lat="44.9055931" lon="8.2261303"><ele>119.0</ele><time>2026-04-18T08:26:09.018Z</time></trkpt><trkpt lat="44.9055949" lon="8.2262489"><ele>118.99999999999999</ele><time>2026-04-18T08:26:10.019Z</time></trkpt><trkpt lat="44.9055977" lon="8.2263603"><ele>119.0</ele><time>2026-04-18T08:26:11.019Z</time></trkpt><trkpt lat="44.905602" lon="8.2264873"><ele>118.2</ele><time>2026-04-18T08:26:12.018Z</time></trkpt><trkpt lat="44.9056022" lon="8.2266257"><ele>117.4</ele><time>2026-04-18T08:26:13.019Z</time></trkpt><trkpt lat="44.9056099" lon="8.2267641"><ele>116.6</ele><time>2026-04-18T08:26:14.018Z</time></trkpt><trkpt lat="44.9056127" lon="8.2269102"><ele>115.8</ele><time>2026-04-18T08:26:15.019Z</time></trkpt><trkpt lat="44.9056164" lon="8.2270463"><ele>115.0</ele><time>2026-04-18T08:26:16.018Z</time></trkpt><trkpt lat="44.9056197" lon="8.2271806"><ele>115.0</ele><time>2026-04-18T08:26:17.018Z</time></trkpt><trkpt lat="44.9056188" lon="8.2273049"><ele>115.0</ele><time>2026-04-18T08:26:18.018Z</time></trkpt><trkpt lat="44.9056239" lon="8.2274334"><ele>115.0</ele><time>2026-04-18T08:26:19.018Z</time></trkpt><trkpt lat="44.9056259" lon="8.2275711"><ele>115.0</ele><time>2026-04-18T08:26:20.018Z</time></trkpt><trkpt lat="44.9056275" lon="8.2277119"><ele>115.0</ele><time>2026-04-18T08:26:21.019Z</time></trkpt><trkpt lat="44.9056308" lon="8.227856"><ele>115.0</ele><time>2026-04-18T08:26:22.019Z</time></trkpt><trkpt lat="44.9056343" lon="8.2279983"><ele>115.0</ele><time>2026-04-18T08:26:23.018Z</time></trkpt><trkpt lat="44.9056388" lon="8.2281364"><ele>115.0</ele><time>2026-04-18T08:26:24.019Z</time></trkpt><trkpt lat="44.9056448" lon="8.2282677"><ele>115.0</ele><time>2026-04-18T08:26:25.018Z</time></trkpt><trkpt lat="44.9056452" lon="8.2283741"><ele>115.0</ele><time>2026-04-18T08:26:26.018Z</time></trkpt><trkpt lat="44.9056485" lon="8.2285394"><ele>115.0</ele><time>2026-04-18T08:26:28.019Z</time></trkpt><trkpt lat="44.905655" lon="8.2286903"><ele>115.0</ele><time>2026-04-18T08:26:30.018Z</time></trkpt><trkpt lat="44.9056593" lon="8.2288627"><ele>115.0</ele><time>2026-04-18T08:26:32.018Z</time></trkpt><trkpt lat="44.9056614" lon="8.2289539"><ele>115.0</ele><time>2026-04-18T08:26:33.019Z</time></trkpt><trkpt lat="44.9056611" lon="8.2290432"><ele>115.0</ele><time>2026-04-18T08:26:34.019Z</time></trkpt><trkpt lat="44.9056635" lon="8.2292095"><ele>115.16666666666667</ele><time>2026-04-18T08:26:36.018Z</time></trkpt><trkpt lat="44.9056717" lon="8.2293563"><ele>115.33333333333334</ele><time>2026-04-18T08:26:38.019Z</time></trkpt><trkpt lat="44.9056793" lon="8.229479"><ele>115.5</ele><time>2026-04-18T08:26:40.018Z</time></trkpt><trkpt lat="44.9056829" lon="8.2295746"><ele>115.66666666666666</ele><time>2026-04-18T08:26:42.018Z</time></trkpt><trkpt lat="44.9056814" lon="8.2296635"><ele>115.83333333333333</ele><time>2026-04-18T08:26:44.019Z</time></trkpt><trkpt lat="44.9056825" lon="8.2297676"><ele>116.0</ele><time>2026-04-18T08:26:47.019Z</time></trkpt><trkpt lat="44.9056392" lon="8.2298921"><ele>116.0</ele><time>2026-04-18T08:26:49.019Z</time></trkpt><trkpt lat="44.9056085" lon="8.2300343"><ele>116.0</ele><time>2026-04-18T08:26:51.018Z</time></trkpt><trkpt lat="44.9056305" lon="8.2301891"><ele>116.0</ele><time>2026-04-18T08:26:53.018Z</time></trkpt><trkpt lat="44.905655" lon="8.230271"><ele>116.0</ele><time>2026-04-18T08:26:54.019Z</time></trkpt><trkpt lat="44.9056898" lon="8.2304201"><ele>116.0</ele><time>2026-04-18T08:26:56.018Z</time></trkpt><trkpt lat="44.905706" lon="8.2305396"><ele>115.99999999999999</ele><time>2026-04-18T08:26:58.019Z</time></trkpt><trkpt lat="44.9057165" lon="8.2306426"><ele>116.0</ele><time>2026-04-18T08:27:00.019Z</time></trkpt><trkpt lat="44.9057179" lon="8.2307429"><ele>116.0</ele><time>2026-04-18T08:27:03.018Z</time></trkpt><trkpt lat="44.9057181" lon="8.2308337"><ele>116.0</ele><time>2026-04-18T08:27:06.018Z</time></trkpt><trkpt lat="44.9057274" lon="8.2309466"><ele>115.99999999999999</ele><time>2026-04-18T08:27:10.018Z</time></trkpt><trkpt lat="44.9057328" lon="8.2310416"><ele>116.0</ele><time>2026-04-18T08:27:13.019Z</time></trkpt><trkpt lat="44.905736" lon="8.2311724"><ele>115.99999999999999</ele><time>2026-04-18T08:27:16.019Z</time></trkpt><trkpt lat="44.9057274" lon="8.2312757"><ele>116.0</ele><time>2026-04-18T08:27:19.018Z</time></trkpt><trkpt lat="44.9057066" lon="8.2313716"><ele>116.0</ele><time>2026-04-18T08:27:21.018Z</time></trkpt><trkpt lat="44.9056797" lon="8.2314812"><ele>116.0</ele><time>2026-04-18T08:27:23.018Z</time></trkpt><trkpt lat="44.9056698" lon="8.2316097"><ele>115.99999999999999</ele><time>2026-04-18T08:27:25.019Z</time></trkpt><trkpt lat="44.9057102" lon="8.2317625"><ele>116.0</ele><time>2026-04-18T08:27:27.018Z</time></trkpt><trkpt lat="44.9057328" lon="8.2318498"><ele>115.83333333333333</ele><time>2026-04-18T08:27:28.019Z</time></trkpt><trkpt lat="44.905748" lon="8.231954"><ele>115.66666666666666</ele><time>2026-04-18T08:27:29.019Z</time></trkpt><trkpt lat="44.9057578" lon="8.2320726"><ele>115.5</ele><time>2026-04-18T08:27:30.019Z</time></trkpt><trkpt lat="44.905768" lon="8.2322016"><ele>115.33333333333334</ele><time>2026-04-18T08:27:31.018Z</time></trkpt><trkpt lat="44.9057749" lon="8.2323347"><ele>115.16666666666667</ele><time>2026-04-18T08:27:32.019Z</time></trkpt><trkpt lat="44.9057811" lon="8.2324676"><ele>115.0</ele><time>2026-04-18T08:27:33.019Z</time></trkpt><trkpt lat="44.9057883" lon="8.232641"><ele>115.0</ele><time>2026-04-18T08:27:34.019Z</time></trkpt><trkpt lat="44.9057961" lon="8.2328466"><ele>115.0</ele><time>2026-04-18T08:27:35.018Z</time></trkpt><trkpt lat="44.9057999" lon="8.2330397"><ele>115.0</ele><time>2026-04-18T08:27:36.019Z</time></trkpt><trkpt lat="44.9058031" lon="8.233224"><ele>115.0</ele><time>2026-04-18T08:27:37.019Z</time></trkpt><trkpt lat="44.9058084" lon="8.2333916"><ele>115.00000000000001</ele><time>2026-04-18T08:27:38.018Z</time></trkpt><trkpt lat="44.9058148" lon="8.233538"><ele>115.0</ele><time>2026-04-18T08:27:39.019Z</time></trkpt><trkpt lat="44.905818" lon="8.2336731"><ele>115.0</ele><time>2026-04-18T08:27:40.019Z</time></trkpt><trkpt lat="44.9058226" lon="8.233798"><ele>115.0</ele><time>2026-04-18T08:27:41.019Z</time></trkpt><trkpt lat="44.9058269" lon="8.2339098"><ele>115.00000000000001</ele><time>2026-04-18T08:27:42.018Z</time></trkpt><trkpt lat="44.9058252" lon="8.2340213"><ele>115.0</ele><time>2026-04-18T08:27:43.019Z</time></trkpt><trkpt lat="44.9058293" lon="8.2341701"><ele>115.00000000000001</ele><time>2026-04-18T08:27:45.019Z</time></trkpt><trkpt lat="44.9058322" lon="8.2342663"><ele>115.0</ele><time>2026-04-18T08:27:47.019Z</time></trkpt><trkpt lat="44.9058367" lon="8.2343816"><ele>115.0</ele><time>2026-04-18T08:27:51.018Z</time></trkpt><trkpt lat="44.9058314" lon="8.2344854"><ele>115.0</ele><time>2026-04-18T08:27:53.018Z</time></trkpt><trkpt lat="44.9058186" lon="8.2346356"><ele>115.00000000000001</ele><time>2026-04-18T08:27:55.018Z</time></trkpt><trkpt lat="44.9058219" lon="8.2348029"><ele>115.0</ele><time>2026-04-18T08:27:57.019Z</time></trkpt><trkpt lat="44.9058323" lon="8.2349041"><ele>114.66666666666667</ele><time>2026-04-18T08:27:58.019Z</time></trkpt><trkpt lat="44.9058451" lon="8.2350088"><ele>114.33333333333334</ele><time>2026-04-18T08:27:59.019Z</time></trkpt><trkpt lat="44.9058502" lon="8.2351196"><ele>114.0</ele><time>2026-04-18T08:28:00.019Z</time></trkpt><trkpt lat="44.9058577" lon="8.2352411"><ele>113.66666666666666</ele><time>2026-04-18T08:28:01.019Z</time></trkpt><trkpt lat="44.9058619" lon="8.2353658"><ele>113.33333333333333</ele><time>2026-04-18T08:28:02.018Z</time></trkpt><trkpt lat="44.9058696" lon="8.2355078"><ele>113.0</ele><time>2026-04-18T08:28:03.018Z</time></trkpt><trkpt lat="44.9058715" lon="8.2356655"><ele>113.0</ele><time>2026-04-18T08:28:04.019Z</time></trkpt><trkpt lat="44.9058783" lon="8.2358205"><ele>113.00000000000001</ele><time>2026-04-18T08:28:05.019Z</time></trkpt><trkpt lat="44.9058859" lon="8.2359705"><ele>113.00000000000001</ele><time>2026-04-18T08:28:06.019Z</time></trkpt><trkpt lat="44.905889" lon="8.2360983"><ele>113.0</ele><time>2026-04-18T08:28:07.018Z</time></trkpt><trkpt lat="44.905893" lon="8.2362259"><ele>113.0</ele><time>2026-04-18T08:28:08.019Z</time></trkpt><trkpt lat="44.9058932" lon="8.2363583"><ele>112.80000000000001</ele><time>2026-04-18T08:28:09.019Z</time></trkpt><trkpt lat="44.9058962" lon="8.2364826"><ele>112.60000000000001</ele><time>2026-04-18T08:28:10.019Z</time></trkpt><trkpt lat="44.9059049" lon="8.2366243"><ele>112.39999999999999</ele><time>2026-04-18T08:28:11.019Z</time></trkpt><trkpt lat="44.9059106" lon="8.2367989"><ele>112.19999999999999</ele><time>2026-04-18T08:28:12.018Z</time></trkpt><trkpt lat="44.9059134" lon="8.2369679"><ele>112.0</ele><time>2026-04-18T08:28:13.018Z</time></trkpt><trkpt lat="44.9059177" lon="8.2371315"><ele>112.75</ele><time>2026-04-18T08:28:14.018Z</time></trkpt><trkpt lat="44.9059221" lon="8.2372887"><ele>113.5</ele><time>2026-04-18T08:28:15.019Z</time></trkpt><trkpt lat="44.9059232" lon="8.2374458"><ele>114.25</ele><time>2026-04-18T08:28:16.018Z</time></trkpt><trkpt lat="44.9059305" lon="8.2376023"><ele>115.0</ele><time>2026-04-18T08:28:17.019Z</time></trkpt><trkpt lat="44.9059385" lon="8.2377742"><ele>115.0</ele><time>2026-04-18T08:28:18.019Z</time></trkpt><trkpt lat="44.9059494" lon="8.2379668"><ele>115.0</ele><time>2026-04-18T08:28:19.019Z</time></trkpt><trkpt lat="44.9059543" lon="8.2381686"><ele>115.0</ele><time>2026-04-18T08:28:20.018Z</time></trkpt><trkpt lat="44.905955" lon="8.2383664"><ele>115.0</ele><time>2026-04-18T08:28:21.019Z</time></trkpt><trkpt lat="44.9059605" lon="8.2385461"><ele>115.0</ele><time>2026-04-18T08:28:22.019Z</time></trkpt><trkpt lat="44.9059634" lon="8.2387119"><ele>115.0</ele><time>2026-04-18T08:28:23.019Z</time></trkpt><trkpt lat="44.9059617" lon="8.2388578"><ele>115.0</ele><time>2026-04-18T08:28:24.018Z</time></trkpt><trkpt lat="44.9059535" lon="8.238985"><ele>115.0</ele><time>2026-04-18T08:28:25.019Z</time></trkpt><trkpt lat="44.9059505" lon="8.2390973"><ele>115.0</ele><time>2026-04-18T08:28:26.018Z</time></trkpt><trkpt lat="44.9059602" lon="8.2391935"><ele>115.00000000000001</ele><time>2026-04-18T08:28:27.019Z</time></trkpt><trkpt lat="44.9059709" lon="8.2393025"><ele>115.0</ele><time>2026-04-18T08:28:28.018Z</time></trkpt><trkpt lat="44.9059802" lon="8.2394181"><ele>115.0</ele><time>2026-04-18T08:28:29.019Z</time></trkpt><trkpt lat="44.9059909" lon="8.2395516"><ele>115.0</ele><time>2026-04-18T08:28:30.018Z</time></trkpt><trkpt lat="44.9059932" lon="8.2396825"><ele>115.00000000000001</ele><time>2026-04-18T08:28:31.019Z</time></trkpt><trkpt lat="44.9059979" lon="8.2398048"><ele>115.0</ele><time>2026-04-18T08:28:32.018Z</time></trkpt><trkpt lat="44.9060031" lon="8.2399198"><ele>114.99999999999999</ele><time>2026-04-18T08:28:33.018Z</time></trkpt><trkpt lat="44.9060054" lon="8.240024"><ele>115.0</ele><time>2026-04-18T08:28:34.019Z</time></trkpt><trkpt lat="44.9060084" lon="8.2401268"><ele>114.99999999999999</ele><time>2026-04-18T08:28:35.018Z</time></trkpt><trkpt lat="44.9060095" lon="8.2402259"><ele>114.99999999999999</ele><time>2026-04-18T08:28:36.018Z</time></trkpt><trkpt lat="44.906009" lon="8.2403175"><ele>115.0</ele><time>2026-04-18T08:28:37.019Z</time></trkpt><trkpt lat="44.9060121" lon="8.2404159"><ele>114.99999999999999</ele><time>2026-04-18T08:28:38.019Z</time></trkpt><trkpt lat="44.9060128" lon="8.2405158"><ele>114.99999999999999</ele><time>2026-04-18T08:28:39.019Z</time></trkpt><trkpt lat="44.9060119" lon="8.240614"><ele>114.75</ele><time>2026-04-18T08:28:40.018Z</time></trkpt><trkpt lat="44.9060169" lon="8.2407246"><ele>114.5</ele><time>2026-04-18T08:28:41.019Z</time></trkpt><trkpt lat="44.9060289" lon="8.240861"><ele>114.25</ele><time>2026-04-18T08:28:42.019Z</time></trkpt><trkpt lat="44.9060405" lon="8.2410371"><ele>114.0</ele><time>2026-04-18T08:28:43.019Z</time></trkpt><trkpt lat="44.9060487" lon="8.2412497"><ele>114.0</ele><time>2026-04-18T08:28:44.018Z</time></trkpt><trkpt lat="44.9060538" lon="8.2414601"><ele>114.0</ele><time>2026-04-18T08:28:45.018Z</time></trkpt><trkpt lat="44.9060588" lon="8.2416639"><ele>114.0</ele><time>2026-04-18T08:28:46.019Z</time></trkpt><trkpt lat="44.9060577" lon="8.2418565"><ele>114.0</ele><time>2026-04-18T08:28:47.019Z</time></trkpt><trkpt lat="44.9060624" lon="8.2420349"><ele>114.0</ele><time>2026-04-18T08:28:48.019Z</time></trkpt><trkpt lat="44.9060658" lon="8.2422033"><ele>114.0</ele><time>2026-04-18T08:28:49.018Z</time></trkpt><trkpt lat="44.90607" lon="8.2423647"><ele>114.0</ele><time>2026-04-18T08:28:50.018Z</time></trkpt><trkpt lat="44.9060769" lon="8.2425183"><ele>114.0</ele><time>2026-04-18T08:28:51.018Z</time></trkpt><trkpt lat="44.906081" lon="8.2426701"><ele>114.0</ele><time>2026-04-18T08:28:52.018Z</time></trkpt><trkpt lat="44.9060873" lon="8.2428259"><ele>114.0</ele><time>2026-04-18T08:28:53.019Z</time></trkpt><trkpt lat="44.9060972" lon="8.2430016"><ele>114.0</ele><time>2026-04-18T08:28:54.019Z</time></trkpt><trkpt lat="44.9061066" lon="8.2432049"><ele>114.0</ele><time>2026-04-18T08:28:55.019Z</time></trkpt><trkpt lat="44.9061145" lon="8.2434145"><ele>114.0</ele><time>2026-04-18T08:28:56.019Z</time></trkpt><trkpt lat="44.9061202" lon="8.2436386"><ele>114.0</ele><time>2026-04-18T08:28:57.018Z</time></trkpt><trkpt lat="44.9061265" lon="8.2438659"><ele>114.0</ele><time>2026-04-18T08:28:58.019Z</time></trkpt><trkpt lat="44.9061331" lon="8.2440993"><ele>114.33333333333334</ele><time>2026-04-18T08:28:59.019Z</time></trkpt><trkpt lat="44.9061387" lon="8.244334"><ele>114.66666666666667</ele><time>2026-04-18T08:29:00.019Z</time></trkpt><trkpt lat="44.906146" lon="8.2445725"><ele>115.0</ele><time>2026-04-18T08:29:01.019Z</time></trkpt><trkpt lat="44.9061524" lon="8.2448074"><ele>115.0</ele><time>2026-04-18T08:29:02.018Z</time></trkpt><trkpt lat="44.9061592" lon="8.2450475"><ele>115.0</ele><time>2026-04-18T08:29:03.018Z</time></trkpt><trkpt lat="44.9061651" lon="8.2452879"><ele>115.0</ele><time>2026-04-18T08:29:04.018Z</time></trkpt><trkpt lat="44.9061681" lon="8.2455325"><ele>115.33333333333334</ele><time>2026-04-18T08:29:05.018Z</time></trkpt><trkpt lat="44.906173" lon="8.245765"><ele>115.66666666666666</ele><time>2026-04-18T08:29:06.018Z</time></trkpt><trkpt lat="44.9061822" lon="8.2460242"><ele>116.0</ele><time>2026-04-18T08:29:07.019Z</time></trkpt><trkpt lat="44.9061914" lon="8.2462987"><ele>115.66666666666666</ele><time>2026-04-18T08:29:08.018Z</time></trkpt><trkpt lat="44.9061987" lon="8.2465708"><ele>115.33333333333334</ele><time>2026-04-18T08:29:09.019Z</time></trkpt><trkpt lat="44.9062079" lon="8.2468477"><ele>115.0</ele><time>2026-04-18T08:29:10.019Z</time></trkpt><trkpt lat="44.906219" lon="8.2471303"><ele>115.0</ele><time>2026-04-18T08:29:11.019Z</time></trkpt><trkpt lat="44.9062266" lon="8.2474196"><ele>115.0</ele><time>2026-04-18T08:29:12.019Z</time></trkpt><trkpt lat="44.906236" lon="8.2477068"><ele>115.0</ele><time>2026-04-18T08:29:13.018Z</time></trkpt><trkpt lat="44.9062412" lon="8.2479959"><ele>114.33333333333334</ele><time>2026-04-18T08:29:14.019Z</time></trkpt><trkpt lat="44.9062485" lon="8.2482909"><ele>113.66666666666666</ele><time>2026-04-18T08:29:15.019Z</time></trkpt><trkpt lat="44.9062547" lon="8.248586"><ele>113.0</ele><time>2026-04-18T08:29:16.019Z</time></trkpt><trkpt lat="44.9062617" lon="8.2488837"><ele>113.66666666666666</ele><time>2026-04-18T08:29:17.019Z</time></trkpt><trkpt lat="44.9062709" lon="8.2491833"><ele>114.33333333333334</ele><time>2026-04-18T08:29:18.019Z</time></trkpt><trkpt lat="44.9062816" lon="8.2494774"><ele>115.0</ele><time>2026-04-18T08:29:19.019Z</time></trkpt><trkpt lat="44.906292" lon="8.2497649"><ele>114.33333333333334</ele><time>2026-04-18T08:29:20.018Z</time></trkpt><trkpt lat="44.9063021" lon="8.2500506"><ele>113.66666666666666</ele><time>2026-04-18T08:29:21.019Z</time></trkpt><trkpt lat="44.9063118" lon="8.2503394"><ele>113.0</ele><time>2026-04-18T08:29:22.019Z</time></trkpt><trkpt lat="44.9063189" lon="8.2506195"><ele>112.66666666666666</ele><time>2026-04-18T08:29:23.019Z</time></trkpt><trkpt lat="44.9063273" lon="8.2508992"><ele>112.33333333333334</ele><time>2026-04-18T08:29:24.018Z</time></trkpt><trkpt lat="44.9063336" lon="8.2511714"><ele>112.0</ele><time>2026-04-18T08:29:25.018Z</time></trkpt><trkpt lat="44.9063405" lon="8.2514405"><ele>113.0</ele><time>2026-04-18T08:29:26.019Z</time></trkpt><trkpt lat="44.9063466" lon="8.2517121"><ele>114.0</ele><time>2026-04-18T08:29:27.019Z</time></trkpt><trkpt lat="44.906354" lon="8.2519777"><ele>115.0</ele><time>2026-04-18T08:29:28.018Z</time></trkpt><trkpt lat="44.9063644" lon="8.2522386"><ele>115.66666666666667</ele><time>2026-04-18T08:29:29.019Z</time></trkpt><trkpt lat="44.9063721" lon="8.2524925"><ele>116.33333333333334</ele><time>2026-04-18T08:29:30.019Z</time></trkpt><trkpt lat="44.9063795" lon="8.2527336"><ele>117.0</ele><time>2026-04-18T08:29:31.019Z</time></trkpt><trkpt lat="44.9063872" lon="8.2529661"><ele>116.0</ele><time>2026-04-18T08:29:32.019Z</time></trkpt><trkpt lat="44.9063961" lon="8.2531925"><ele>115.0</ele><time>2026-04-18T08:29:33.018Z</time></trkpt><trkpt lat="44.9063995" lon="8.2533967"><ele>114.0</ele><time>2026-04-18T08:29:34.018Z</time></trkpt><trkpt lat="44.9064034" lon="8.2535813"><ele>113.0</ele><time>2026-04-18T08:29:35.019Z</time></trkpt><trkpt lat="44.9064032" lon="8.2537417"><ele>113.0</ele><time>2026-04-18T08:29:36.019Z</time></trkpt><trkpt lat="44.9063989" lon="8.2538882"><ele>113.00000000000001</ele><time>2026-04-18T08:29:37.019Z</time></trkpt><trkpt lat="44.9063806" lon="8.2540149"><ele>113.00000000000001</ele><time>2026-04-18T08:29:38.019Z</time></trkpt><trkpt lat="44.9063381" lon="8.2541343"><ele>113.0</ele><time>2026-04-18T08:29:39.019Z</time></trkpt><trkpt lat="44.906278" lon="8.2542428"><ele>113.0</ele><time>2026-04-18T08:29:40.019Z</time></trkpt><trkpt lat="44.9062123" lon="8.2543589"><ele>113.0</ele><time>2026-04-18T08:29:41.018Z</time></trkpt><trkpt lat="44.906159" lon="8.2544906"><ele>113.00000000000001</ele><time>2026-04-18T08:29:42.018Z</time></trkpt><trkpt lat="44.9061368" lon="8.2546306"><ele>113.00000000000001</ele><time>2026-04-18T08:29:43.018Z</time></trkpt><trkpt lat="44.9061431" lon="8.254775"><ele>113.0</ele><time>2026-04-18T08:29:44.018Z</time></trkpt><trkpt lat="44.9061863" lon="8.254913"><ele>113.0</ele><time>2026-04-18T08:29:45.019Z</time></trkpt><trkpt lat="44.9062576" lon="8.2550324"><ele>113.5</ele><time>2026-04-18T08:29:46.019Z</time></trkpt><trkpt lat="44.9063333" lon="8.2551526"><ele>114.0</ele><time>2026-04-18T08:29:47.018Z</time></trkpt><trkpt lat="44.9064044" lon="8.2552874"><ele>114.5</ele><time>2026-04-18T08:29:48.019Z</time></trkpt><trkpt lat="44.9064512" lon="8.2554496"><ele>115.0</ele><time>2026-04-18T08:29:49.018Z</time></trkpt><trkpt lat="44.9064722" lon="8.2556314"><ele>115.25</ele><time>2026-04-18T08:29:50.018Z</time></trkpt><trkpt lat="44.9064802" lon="8.2558071"><ele>115.5</ele><time>2026-04-18T08:29:51.019Z</time></trkpt><trkpt lat="44.9064829" lon="8.2559806"><ele>115.75</ele><time>2026-04-18T08:29:52.019Z</time></trkpt><trkpt lat="44.9064894" lon="8.2561499"><ele>116.0</ele><time>2026-04-18T08:29:53.019Z</time></trkpt><trkpt lat="44.9065056" lon="8.2563273"><ele>116.25</ele><time>2026-04-18T08:29:54.019Z</time></trkpt><trkpt lat="44.9065175" lon="8.2565188"><ele>116.5</ele><time>2026-04-18T08:29:55.019Z</time></trkpt><trkpt lat="44.9065235" lon="8.2567206"><ele>116.75</ele><time>2026-04-18T08:29:56.018Z</time></trkpt><trkpt lat="44.9065284" lon="8.2569379"><ele>117.0</ele><time>2026-04-18T08:29:57.019Z</time></trkpt><trkpt lat="44.9065308" lon="8.2571509"><ele>116.75</ele><time>2026-04-18T08:29:58.018Z</time></trkpt><trkpt lat="44.9065338" lon="8.2573563"><ele>116.5</ele><time>2026-04-18T08:29:59.018Z</time></trkpt><trkpt lat="44.9065404" lon="8.2575562"><ele>116.25</ele><time>2026-04-18T08:30:00.019Z</time></trkpt><trkpt lat="44.9065457" lon="8.2577538"><ele>116.0</ele><time>2026-04-18T08:30:01.019Z</time></trkpt><trkpt lat="44.906553" lon="8.2579561"><ele>115.75</ele><time>2026-04-18T08:30:02.019Z</time></trkpt><trkpt lat="44.906561" lon="8.2581597"><ele>115.5</ele><time>2026-04-18T08:30:03.019Z</time></trkpt><trkpt lat="44.9065699" lon="8.2583632"><ele>115.25</ele><time>2026-04-18T08:30:04.018Z</time></trkpt><trkpt lat="44.9065759" lon="8.2585635"><ele>115.0</ele><time>2026-04-18T08:30:05.018Z</time></trkpt><trkpt lat="44.9065842" lon="8.2587738"><ele>115.33333333333334</ele><time>2026-04-18T08:30:06.018Z</time></trkpt><trkpt lat="44.9065957" lon="8.2589815"><ele>115.66666666666666</ele><time>2026-04-18T08:30:07.018Z</time></trkpt><trkpt lat="44.9065976" lon="8.2591918"><ele>116.0</ele><time>2026-04-18T08:30:08.019Z</time></trkpt><trkpt lat="44.906604" lon="8.2594124"><ele>116.0</ele><time>2026-04-18T08:30:09.018Z</time></trkpt><trkpt lat="44.9066138" lon="8.2596382"><ele>116.0</ele><time>2026-04-18T08:30:10.018Z</time></trkpt><trkpt lat="44.9066191" lon="8.2598666"><ele>116.0</ele><time>2026-04-18T08:30:11.019Z</time></trkpt><trkpt lat="44.9066265" lon="8.260097"><ele>116.33333333333333</ele><time>2026-04-18T08:30:12.018Z</time></trkpt><trkpt lat="44.9066354" lon="8.2603274"><ele>116.66666666666666</ele><time>2026-04-18T08:30:13.019Z</time></trkpt><trkpt lat="44.9066455" lon="8.2605588"><ele>117.0</ele><time>2026-04-18T08:30:14.019Z</time></trkpt><trkpt lat="44.9066566" lon="8.2608091"><ele>117.66666666666666</ele><time>2026-04-18T08:30:15.019Z</time></trkpt><trkpt lat="44.906666" lon="8.2610819"><ele>118.33333333333333</ele><time>2026-04-18T08:30:16.018Z</time></trkpt><trkpt lat="44.9066732" lon="8.2613567"><ele>119.0</ele><time>2026-04-18T08:30:17.019Z</time></trkpt><trkpt lat="44.9066774" lon="8.2616189"><ele>119.0</ele><time>2026-04-18T08:30:18.019Z</time></trkpt><trkpt lat="44.906682" lon="8.2618744"><ele>119.0</ele><time>2026-04-18T08:30:19.018Z</time></trkpt><trkpt lat="44.9066899" lon="8.2621195"><ele>119.0</ele><time>2026-04-18T08:30:20.019Z</time></trkpt><trkpt lat="44.9066932" lon="8.2623556"><ele>118.33333333333333</ele><time>2026-04-18T08:30:21.018Z</time></trkpt><trkpt lat="44.9067003" lon="8.2625801"><ele>117.66666666666666</ele><time>2026-04-18T08:30:22.019Z</time></trkpt><trkpt lat="44.9067057" lon="8.2627928"><ele>117.0</ele><time>2026-04-18T08:30:23.019Z</time></trkpt><trkpt lat="44.9067086" lon="8.2630089"><ele>116.66666666666666</ele><time>2026-04-18T08:30:24.019Z</time></trkpt><trkpt lat="44.9067147" lon="8.2632313"><ele>116.33333333333333</ele><time>2026-04-18T08:30:25.018Z</time></trkpt><trkpt lat="44.9067213" lon="8.2634541"><ele>116.0</ele><time>2026-04-18T08:30:26.018Z</time></trkpt><trkpt lat="44.9067246" lon="8.2636766"><ele>116.0</ele><time>2026-04-18T08:30:27.018Z</time></trkpt><trkpt lat="44.9067342" lon="8.2638975"><ele>116.0</ele><time>2026-04-18T08:30:28.019Z</time></trkpt><trkpt lat="44.9067419" lon="8.2641182"><ele>116.0</ele><time>2026-04-18T08:30:29.018Z</time></trkpt><trkpt lat="44.9067481" lon="8.2643371"><ele>116.0</ele><time>2026-04-18T08:30:30.019Z</time></trkpt><trkpt lat="44.906755" lon="8.2645546"><ele>116.0</ele><time>2026-04-18T08:30:31.018Z</time></trkpt><trkpt lat="44.9067622" lon="8.2647746"><ele>116.0</ele><time>2026-04-18T08:30:32.018Z</time></trkpt><trkpt lat="44.906773" lon="8.2649993"><ele>116.0</ele><time>2026-04-18T08:30:33.018Z</time></trkpt><trkpt lat="44.9067808" lon="8.265226"><ele>116.0</ele><time>2026-04-18T08:30:34.018Z</time></trkpt><trkpt lat="44.9067875" lon="8.2654525"><ele>116.0</ele><time>2026-04-18T08:30:35.019Z</time></trkpt><trkpt lat="44.9067965" lon="8.2656854"><ele>116.33333333333333</ele><time>2026-04-18T08:30:36.018Z</time></trkpt><trkpt lat="44.906804" lon="8.2659235"><ele>116.66666666666666</ele><time>2026-04-18T08:30:37.018Z</time></trkpt><trkpt lat="44.9068078" lon="8.2661627"><ele>117.0</ele><time>2026-04-18T08:30:38.019Z</time></trkpt><trkpt lat="44.9068162" lon="8.2664032"><ele>117.0</ele><time>2026-04-18T08:30:39.019Z</time></trkpt><trkpt lat="44.9068231" lon="8.2666437"><ele>117.0</ele><time>2026-04-18T08:30:40.019Z</time></trkpt><trkpt lat="44.9068303" lon="8.2668808"><ele>117.0</ele><time>2026-04-18T08:30:41.019Z</time></trkpt><trkpt lat="44.9068377" lon="8.2671238"><ele>117.66666666666666</ele><time>2026-04-18T08:30:42.018Z</time></trkpt><trkpt lat="44.906847" lon="8.26737"><ele>118.33333333333333</ele><time>2026-04-18T08:30:43.018Z</time></trkpt><trkpt lat="44.9068548" lon="8.2676136"><ele>119.0</ele><time>2026-04-18T08:30:44.019Z</time></trkpt><trkpt lat="44.9068604" lon="8.2678614"><ele>119.0</ele><time>2026-04-18T08:30:45.018Z</time></trkpt><trkpt lat="44.9068689" lon="8.2681091"><ele>119.0</ele><time>2026-04-18T08:30:46.018Z</time></trkpt><trkpt lat="44.9068779" lon="8.2683528"><ele>119.0</ele><time>2026-04-18T08:30:47.018Z</time></trkpt><trkpt lat="44.9068855" lon="8.2685978"><ele>118.66666666666666</ele><time>2026-04-18T08:30:48.019Z</time></trkpt><trkpt lat="44.9068921" lon="8.2688453"><ele>118.33333333333334</ele><time>2026-04-18T08:30:49.018Z</time></trkpt><trkpt lat="44.9069023" lon="8.2690917"><ele>118.0</ele><time>2026-04-18T08:30:50.018Z</time></trkpt><trkpt lat="44.906911" lon="8.2693387"><ele>117.33333333333334</ele><time>2026-04-18T08:30:51.018Z</time></trkpt><trkpt lat="44.9069193" lon="8.2695861"><ele>116.66666666666666</ele><time>2026-04-18T08:30:52.019Z</time></trkpt><trkpt lat="44.9069259" lon="8.2698315"><ele>116.0</ele><time>2026-04-18T08:30:53.019Z</time></trkpt><trkpt lat="44.9069347" lon="8.2700764"><ele>115.33333333333333</ele><time>2026-04-18T08:30:54.019Z</time></trkpt><trkpt lat="44.9069412" lon="8.2703062"><ele>114.66666666666666</ele><time>2026-04-18T08:30:55.019Z</time></trkpt><trkpt lat="44.906952" lon="8.2705288"><ele>114.0</ele><time>2026-04-18T08:30:56.018Z</time></trkpt><trkpt lat="44.9069582" lon="8.2707439"><ele>113.75</ele><time>2026-04-18T08:30:57.019Z</time></trkpt><trkpt lat="44.9069676" lon="8.2709524"><ele>113.5</ele><time>2026-04-18T08:30:58.019Z</time></trkpt><trkpt lat="44.9069711" lon="8.2711544"><ele>113.25</ele><time>2026-04-18T08:30:59.019Z</time></trkpt><trkpt lat="44.9069792" lon="8.2713461"><ele>113.0</ele><time>2026-04-18T08:31:00.019Z</time></trkpt><trkpt lat="44.9069851" lon="8.2715331"><ele>113.5</ele><time>2026-04-18T08:31:01.018Z</time></trkpt><trkpt lat="44.9069894" lon="8.2717092"><ele>114.0</ele><time>2026-04-18T08:31:02.018Z</time></trkpt><trkpt lat="44.9069965" lon="8.2718766"><ele>114.5</ele><time>2026-04-18T08:31:03.019Z</time></trkpt><trkpt lat="44.9069997" lon="8.2720342"><ele>115.0</ele><time>2026-04-18T08:31:04.019Z</time></trkpt><trkpt lat="44.9070001" lon="8.2721827"><ele>115.0</ele><time>2026-04-18T08:31:05.019Z</time></trkpt><trkpt lat="44.906991" lon="8.2723262"><ele>115.0</ele><time>2026-04-18T08:31:06.019Z</time></trkpt><trkpt lat="44.9069724" lon="8.2724645"><ele>115.0</ele><time>2026-04-18T08:31:07.018Z</time></trkpt><trkpt lat="44.9069628" lon="8.2726218"><ele>115.0</ele><time>2026-04-18T08:31:08.019Z</time></trkpt><trkpt lat="44.9069729" lon="8.2727913"><ele>115.0</ele><time>2026-04-18T08:31:09.019Z</time></trkpt><trkpt lat="44.9070087" lon="8.2729724"><ele>116.33333333333334</ele><time>2026-04-18T08:31:10.018Z</time></trkpt><trkpt lat="44.907034" lon="8.2731713"><ele>117.66666666666666</ele><time>2026-04-18T08:31:11.019Z</time></trkpt><trkpt lat="44.9070469" lon="8.2733923"><ele>119.0</ele><time>2026-04-18T08:31:12.018Z</time></trkpt><trkpt lat="44.9070535" lon="8.2736232"><ele>119.0</ele><time>2026-04-18T08:31:13.019Z</time></trkpt><trkpt lat="44.9070619" lon="8.2738562"><ele>119.0</ele><time>2026-04-18T08:31:14.019Z</time></trkpt><trkpt lat="44.9070705" lon="8.2740848"><ele>119.0</ele><time>2026-04-18T08:31:15.018Z</time></trkpt><trkpt lat="44.9070754" lon="8.2743026"><ele>119.5</ele><time>2026-04-18T08:31:16.018Z</time></trkpt><trkpt lat="44.9070831" lon="8.2745113"><ele>120.0</ele><time>2026-04-18T08:31:17.019Z</time></trkpt><trkpt lat="44.9070898" lon="8.274716"><ele>120.5</ele><time>2026-04-18T08:31:18.018Z</time></trkpt><trkpt lat="44.9070966" lon="8.2749264"><ele>121.0</ele><time>2026-04-18T08:31:19.019Z</time></trkpt><trkpt lat="44.9071023" lon="8.2751281"><ele>121.0</ele><time>2026-04-18T08:31:20.018Z</time></trkpt><trkpt lat="44.90711" lon="8.2753222"><ele>121.0</ele><time>2026-04-18T08:31:21.019Z</time></trkpt><trkpt lat="44.9071151" lon="8.2755037"><ele>121.0</ele><time>2026-04-18T08:31:22.019Z</time></trkpt><trkpt lat="44.907121" lon="8.2756887"><ele>121.0</ele><time>2026-04-18T08:31:23.019Z</time></trkpt><trkpt lat="44.9071228" lon="8.275865"><ele>120.75</ele><time>2026-04-18T08:31:24.018Z</time></trkpt><trkpt lat="44.9071268" lon="8.2760457"><ele>120.5</ele><time>2026-04-18T08:31:25.019Z</time></trkpt><trkpt lat="44.9071327" lon="8.276231"><ele>120.25</ele><time>2026-04-18T08:31:26.019Z</time></trkpt><trkpt lat="44.9071369" lon="8.2764266"><ele>120.0</ele><time>2026-04-18T08:31:27.018Z</time></trkpt><trkpt lat="44.9071435" lon="8.2766227"><ele>119.5</ele><time>2026-04-18T08:31:28.019Z</time></trkpt><trkpt lat="44.9071481" lon="8.2768157"><ele>119.0</ele><time>2026-04-18T08:31:29.019Z</time></trkpt><trkpt lat="44.907154" lon="8.2770146"><ele>118.5</ele><time>2026-04-18T08:31:30.018Z</time></trkpt><trkpt lat="44.907159" lon="8.2772008"><ele>118.0</ele><time>2026-04-18T08:31:31.018Z</time></trkpt><trkpt lat="44.9071638" lon="8.2773852"><ele>117.75</ele><time>2026-04-18T08:31:32.019Z</time></trkpt><trkpt lat="44.9071696" lon="8.2775677"><ele>117.5</ele><time>2026-04-18T08:31:33.019Z</time></trkpt><trkpt lat="44.9071742" lon="8.2777481"><ele>117.25</ele><time>2026-04-18T08:31:34.019Z</time></trkpt><trkpt lat="44.9071749" lon="8.2779345"><ele>117.0</ele><time>2026-04-18T08:31:35.019Z</time></trkpt><trkpt lat="44.9071783" lon="8.2781135"><ele>117.0</ele><time>2026-04-18T08:31:36.018Z</time></trkpt><trkpt lat="44.9071847" lon="8.2782856"><ele>117.0</ele><time>2026-04-18T08:31:37.018Z</time></trkpt><trkpt lat="44.9071897" lon="8.2784478"><ele>117.0</ele><time>2026-04-18T08:31:38.019Z</time></trkpt><trkpt lat="44.9071959" lon="8.2786037"><ele>117.0</ele><time>2026-04-18T08:31:39.019Z</time></trkpt><trkpt lat="44.9072003" lon="8.2787581"><ele>117.0</ele><time>2026-04-18T08:31:40.018Z</time></trkpt><trkpt lat="44.9072035" lon="8.2789116"><ele>116.99999999999999</ele><time>2026-04-18T08:31:41.018Z</time></trkpt><trkpt lat="44.9072084" lon="8.2790637"><ele>116.99999999999999</ele><time>2026-04-18T08:31:42.018Z</time></trkpt><trkpt lat="44.9072076" lon="8.2792276"><ele>117.0</ele><time>2026-04-18T08:31:43.019Z</time></trkpt><trkpt lat="44.9072125" lon="8.2793876"><ele>117.0</ele><time>2026-04-18T08:31:44.018Z</time></trkpt><trkpt lat="44.9072168" lon="8.2795513"><ele>117.0</ele><time>2026-04-18T08:31:45.019Z</time></trkpt><trkpt lat="44.9072219" lon="8.2797084"><ele>116.99999999999999</ele><time>2026-04-18T08:31:46.019Z</time></trkpt><trkpt lat="44.9072275" lon="8.2798628"><ele>116.99999999999999</ele><time>2026-04-18T08:31:47.018Z</time></trkpt><trkpt lat="44.9072345" lon="8.2800136"><ele>117.0</ele><time>2026-04-18T08:31:48.018Z</time></trkpt><trkpt lat="44.9072375" lon="8.2801558"><ele>117.0</ele><time>2026-04-18T08:31:49.018Z</time></trkpt><trkpt lat="44.9072431" lon="8.2802952"><ele>117.0</ele><time>2026-04-18T08:31:50.018Z</time></trkpt><trkpt lat="44.9072477" lon="8.2804359"><ele>116.99999999999999</ele><time>2026-04-18T08:31:51.019Z</time></trkpt><trkpt lat="44.9072533" lon="8.2805825"><ele>116.99999999999999</ele><time>2026-04-18T08:31:52.018Z</time></trkpt><trkpt lat="44.9072579" lon="8.2807366"><ele>117.0</ele><time>2026-04-18T08:31:53.019Z</time></trkpt><trkpt lat="44.9072645" lon="8.280895"><ele>117.0</ele><time>2026-04-18T08:31:54.019Z</time></trkpt><trkpt lat="44.9072655" lon="8.2810576"><ele>117.5</ele><time>2026-04-18T08:31:55.019Z</time></trkpt><trkpt lat="44.9072701" lon="8.2812234"><ele>118.0</ele><time>2026-04-18T08:31:56.018Z</time></trkpt><trkpt lat="44.9072759" lon="8.281394"><ele>118.5</ele><time>2026-04-18T08:31:57.019Z</time></trkpt><trkpt lat="44.907283" lon="8.2815638"><ele>119.0</ele><time>2026-04-18T08:31:58.018Z</time></trkpt><trkpt lat="44.9072937" lon="8.2817379"><ele>119.25</ele><time>2026-04-18T08:31:59.019Z</time></trkpt><trkpt lat="44.9073025" lon="8.2819226"><ele>119.5</ele><time>2026-04-18T08:32:00.019Z</time></trkpt><trkpt lat="44.9073101" lon="8.2821042"><ele>119.75</ele><time>2026-04-18T08:32:01.019Z</time></trkpt><trkpt lat="44.9073107" lon="8.282294"><ele>120.0</ele><time>2026-04-18T08:32:02.019Z</time></trkpt><trkpt lat="44.9073148" lon="8.2824742"><ele>120.4</ele><time>2026-04-18T08:32:03.019Z</time></trkpt><trkpt lat="44.9073206" lon="8.2826419"><ele>120.8</ele><time>2026-04-18T08:32:04.018Z</time></trkpt><trkpt lat="44.907325" lon="8.2827936"><ele>121.19999999999999</ele><time>2026-04-18T08:32:05.018Z</time></trkpt><trkpt lat="44.9073247" lon="8.2829378"><ele>121.6</ele><time>2026-04-18T08:32:06.019Z</time></trkpt><trkpt lat="44.9073207" lon="8.2830784"><ele>122.0</ele><time>2026-04-18T08:32:07.019Z</time></trkpt><trkpt lat="44.9073119" lon="8.2832181"><ele>122.0</ele><time>2026-04-18T08:32:08.019Z</time></trkpt><trkpt lat="44.9073" lon="8.2833561"><ele>121.99999999999999</ele><time>2026-04-18T08:32:09.018Z</time></trkpt><trkpt lat="44.9072746" lon="8.2834953"><ele>121.99999999999999</ele><time>2026-04-18T08:32:10.018Z</time></trkpt><trkpt lat="44.9072356" lon="8.2836404"><ele>122.0</ele><time>2026-04-18T08:32:11.018Z</time></trkpt><trkpt lat="44.9071775" lon="8.2837789"><ele>122.0</ele><time>2026-04-18T08:32:12.019Z</time></trkpt><trkpt lat="44.9071016" lon="8.2839193"><ele>122.25</ele><time>2026-04-18T08:32:13.019Z</time></trkpt><trkpt lat="44.9070091" lon="8.2840566"><ele>122.5</ele><time>2026-04-18T08:32:14.018Z</time></trkpt><trkpt lat="44.9069079" lon="8.2841964"><ele>122.75</ele><time>2026-04-18T08:32:15.019Z</time></trkpt><trkpt lat="44.9067998" lon="8.2843308"><ele>123.0</ele><time>2026-04-18T08:32:16.019Z</time></trkpt><trkpt lat="44.9066922" lon="8.2844586"><ele>122.5</ele><time>2026-04-18T08:32:17.018Z</time></trkpt><trkpt lat="44.9065858" lon="8.2845854"><ele>122.0</ele><time>2026-04-18T08:32:18.019Z</time></trkpt><trkpt lat="44.9064812" lon="8.2847127"><ele>121.5</ele><time>2026-04-18T08:32:19.018Z</time></trkpt><trkpt lat="44.9063756" lon="8.2848367"><ele>121.0</ele><time>2026-04-18T08:32:20.019Z</time></trkpt><trkpt lat="44.9062659" lon="8.2849639"><ele>121.0</ele><time>2026-04-18T08:32:21.018Z</time></trkpt><trkpt lat="44.9061536" lon="8.2850957"><ele>121.0</ele><time>2026-04-18T08:32:22.018Z</time></trkpt><trkpt lat="44.9060384" lon="8.2852289"><ele>121.0</ele><time>2026-04-18T08:32:23.018Z</time></trkpt><trkpt lat="44.9059246" lon="8.2853592"><ele>121.0</ele><time>2026-04-18T08:32:24.019Z</time></trkpt><trkpt lat="44.9058062" lon="8.2854982"><ele>120.33333333333334</ele><time>2026-04-18T08:32:25.018Z</time></trkpt><trkpt lat="44.9056839" lon="8.2856435"><ele>119.66666666666666</ele><time>2026-04-18T08:32:26.018Z</time></trkpt><trkpt lat="44.9055557" lon="8.2857971"><ele>119.0</ele><time>2026-04-18T08:32:27.018Z</time></trkpt><trkpt lat="44.9054218" lon="8.2859557"><ele>119.0</ele><time>2026-04-18T08:32:28.018Z</time></trkpt><trkpt lat="44.9052848" lon="8.2861189"><ele>119.0</ele><time>2026-04-18T08:32:29.019Z</time></trkpt><trkpt lat="44.9051505" lon="8.286278"><ele>119.0</ele><time>2026-04-18T08:32:30.019Z</time></trkpt><trkpt lat="44.9050202" lon="8.2864317"><ele>118.33333333333333</ele><time>2026-04-18T08:32:31.019Z</time></trkpt><trkpt lat="44.9048933" lon="8.2865836"><ele>117.66666666666666</ele><time>2026-04-18T08:32:32.019Z</time></trkpt><trkpt lat="44.90477" lon="8.2867317"><ele>117.0</ele><time>2026-04-18T08:32:33.018Z</time></trkpt><trkpt lat="44.9046529" lon="8.2868736"><ele>117.0</ele><time>2026-04-18T08:32:34.019Z</time></trkpt><trkpt lat="44.9045376" lon="8.2870113"><ele>117.0</ele><time>2026-04-18T08:32:35.018Z</time></trkpt><trkpt lat="44.9044193" lon="8.2871485"><ele>117.0</ele><time>2026-04-18T08:32:36.018Z</time></trkpt><trkpt lat="44.9043002" lon="8.2872895"><ele>116.33333333333334</ele><time>2026-04-18T08:32:37.018Z</time></trkpt><trkpt lat="44.9041788" lon="8.2874294"><ele>115.66666666666667</ele><time>2026-04-18T08:32:38.018Z</time></trkpt><trkpt lat="44.904059" lon="8.2875735"><ele>115.0</ele><time>2026-04-18T08:32:39.018Z</time></trkpt><trkpt lat="44.9039417" lon="8.2877158"><ele>115.0</ele><time>2026-04-18T08:32:40.018Z</time></trkpt><trkpt lat="44.9038237" lon="8.2878567"><ele>115.0</ele><time>2026-04-18T08:32:41.019Z</time></trkpt><trkpt lat="44.903709" lon="8.2879958"><ele>115.0</ele><time>2026-04-18T08:32:42.019Z</time></trkpt><trkpt lat="44.9035986" lon="8.2881275"><ele>115.0</ele><time>2026-04-18T08:32:43.018Z</time></trkpt><trkpt lat="44.9034891" lon="8.2882575"><ele>115.0</ele><time>2026-04-18T08:32:44.019Z</time></trkpt><trkpt lat="44.9033825" lon="8.2883843"><ele>115.0</ele><time>2026-04-18T08:32:45.019Z</time></trkpt><trkpt lat="44.9032751" lon="8.2885114"><ele>115.0</ele><time>2026-04-18T08:32:46.019Z</time></trkpt><trkpt lat="44.9031665" lon="8.2886369"><ele>115.25</ele><time>2026-04-18T08:32:47.018Z</time></trkpt><trkpt lat="44.9030559" lon="8.2887658"><ele>115.5</ele><time>2026-04-18T08:32:48.019Z</time></trkpt><trkpt lat="44.9029426" lon="8.2889002"><ele>115.75</ele><time>2026-04-18T08:32:49.018Z</time></trkpt><trkpt lat="44.9028285" lon="8.2890344"><ele>116.0</ele><time>2026-04-18T08:32:50.019Z</time></trkpt><trkpt lat="44.902713" lon="8.2891741"><ele>116.33333333333333</ele><time>2026-04-18T08:32:51.019Z</time></trkpt><trkpt lat="44.902597" lon="8.2893151"><ele>116.66666666666666</ele><time>2026-04-18T08:32:52.018Z</time></trkpt><trkpt lat="44.9024786" lon="8.2894573"><ele>117.0</ele><time>2026-04-18T08:32:53.019Z</time></trkpt><trkpt lat="44.9023559" lon="8.2896023"><ele>117.0</ele><time>2026-04-18T08:32:54.019Z</time></trkpt><trkpt lat="44.9022361" lon="8.2897455"><ele>117.0</ele><time>2026-04-18T08:32:55.018Z</time></trkpt><trkpt lat="44.9021155" lon="8.2898913"><ele>117.0</ele><time>2026-04-18T08:32:56.019Z</time></trkpt><trkpt lat="44.9019907" lon="8.2900395"><ele>117.33333333333334</ele><time>2026-04-18T08:32:57.019Z</time></trkpt><trkpt lat="44.9018661" lon="8.2901843"><ele>117.66666666666667</ele><time>2026-04-18T08:32:58.019Z</time></trkpt><trkpt lat="44.9017374" lon="8.2903355"><ele>118.0</ele><time>2026-04-18T08:32:59.019Z</time></trkpt><trkpt lat="44.9016073" lon="8.29049"><ele>118.0</ele><time>2026-04-18T08:33:00.019Z</time></trkpt><trkpt lat="44.9014761" lon="8.2906445"><ele>118.0</ele><time>2026-04-18T08:33:01.019Z</time></trkpt><trkpt lat="44.901344" lon="8.2908018"><ele>118.0</ele><time>2026-04-18T08:33:02.018Z</time></trkpt><trkpt lat="44.9012104" lon="8.2909604"><ele>118.0</ele><time>2026-04-18T08:33:03.019Z</time></trkpt><trkpt lat="44.901076" lon="8.2911192"><ele>118.0</ele><time>2026-04-18T08:33:04.018Z</time></trkpt><trkpt lat="44.900939" lon="8.2912803"><ele>118.0</ele><time>2026-04-18T08:33:05.019Z</time></trkpt><trkpt lat="44.9008013" lon="8.2914426"><ele>117.66666666666667</ele><time>2026-04-18T08:33:06.018Z</time></trkpt><trkpt lat="44.900664" lon="8.2916065"><ele>117.33333333333334</ele><time>2026-04-18T08:33:07.019Z</time></trkpt><trkpt lat="44.9005275" lon="8.2917655"><ele>117.0</ele><time>2026-04-18T08:33:08.018Z</time></trkpt><trkpt lat="44.9003891" lon="8.2919308"><ele>117.0</ele><time>2026-04-18T08:33:09.018Z</time></trkpt><trkpt lat="44.9002519" lon="8.2920957"><ele>117.0</ele><time>2026-04-18T08:33:10.019Z</time></trkpt><trkpt lat="44.9001112" lon="8.2922621"><ele>117.0</ele><time>2026-04-18T08:33:11.019Z</time></trkpt><trkpt lat="44.8999669" lon="8.2924352"><ele>116.33333333333334</ele><time>2026-04-18T08:33:12.019Z</time></trkpt><trkpt lat="44.8998189" lon="8.2926085"><ele>115.66666666666667</ele><time>2026-04-18T08:33:13.019Z</time></trkpt><trkpt lat="44.8996695" lon="8.2927884"><ele>115.0</ele><time>2026-04-18T08:33:14.019Z</time></trkpt><trkpt lat="44.8995166" lon="8.2929703"><ele>115.33333333333334</ele><time>2026-04-18T08:33:15.018Z</time></trkpt><trkpt lat="44.8993605" lon="8.2931536"><ele>115.66666666666666</ele><time>2026-04-18T08:33:16.019Z</time></trkpt><trkpt lat="44.8992018" lon="8.2933432"><ele>116.0</ele><time>2026-04-18T08:33:17.019Z</time></trkpt><trkpt lat="44.8990388" lon="8.2935389"><ele>116.0</ele><time>2026-04-18T08:33:18.019Z</time></trkpt><trkpt lat="44.8988723" lon="8.2937362"><ele>116.0</ele><time>2026-04-18T08:33:19.018Z</time></trkpt><trkpt lat="44.8987141" lon="8.2939213"><ele>116.0</ele><time>2026-04-18T08:33:20.018Z</time></trkpt><trkpt lat="44.8985718" lon="8.2940856"><ele>116.33333333333333</ele><time>2026-04-18T08:33:21.018Z</time></trkpt><trkpt lat="44.8984396" lon="8.2942398"><ele>116.66666666666666</ele><time>2026-04-18T08:33:22.019Z</time></trkpt><trkpt lat="44.8983114" lon="8.2943892"><ele>117.0</ele><time>2026-04-18T08:33:23.018Z</time></trkpt><trkpt lat="44.8981872" lon="8.294536"><ele>117.0</ele><time>2026-04-18T08:33:24.019Z</time></trkpt><trkpt lat="44.8980683" lon="8.2946729"><ele>117.0</ele><time>2026-04-18T08:33:25.018Z</time></trkpt><trkpt lat="44.8979558" lon="8.2948068"><ele>117.0</ele><time>2026-04-18T08:33:26.018Z</time></trkpt><trkpt lat="44.8978474" lon="8.2949343"><ele>117.0</ele><time>2026-04-18T08:33:27.019Z</time></trkpt><trkpt lat="44.897741" lon="8.2950581"><ele>117.0</ele><time>2026-04-18T08:33:28.019Z</time></trkpt><trkpt lat="44.8976387" lon="8.2951778"><ele>117.0</ele><time>2026-04-18T08:33:29.019Z</time></trkpt><trkpt lat="44.8975394" lon="8.2952936"><ele>117.0</ele><time>2026-04-18T08:33:30.018Z</time></trkpt><trkpt lat="44.8974394" lon="8.2954073"><ele>117.0</ele><time>2026-04-18T08:33:31.019Z</time></trkpt><trkpt lat="44.8973304" lon="8.2955309"><ele>117.0</ele><time>2026-04-18T08:33:32.019Z</time></trkpt><trkpt lat="44.8972093" lon="8.2956728"><ele>117.0</ele><time>2026-04-18T08:33:33.019Z</time></trkpt><trkpt lat="44.8970789" lon="8.2958353"><ele>117.0</ele><time>2026-04-18T08:33:34.019Z</time></trkpt><trkpt lat="44.8969333" lon="8.2960098"><ele>117.0</ele><time>2026-04-18T08:33:35.018Z</time></trkpt><trkpt lat="44.896779" lon="8.2961918"><ele>117.0</ele><time>2026-04-18T08:33:36.018Z</time></trkpt><trkpt lat="44.896616" lon="8.2963823"><ele>117.0</ele><time>2026-04-18T08:33:37.018Z</time></trkpt><trkpt lat="44.8964489" lon="8.2965826"><ele>117.0</ele><time>2026-04-18T08:33:38.019Z</time></trkpt><trkpt lat="44.8962828" lon="8.2967813"><ele>117.0</ele><time>2026-04-18T08:33:39.019Z</time></trkpt><trkpt lat="44.8961148" lon="8.2969833"><ele>117.0</ele><time>2026-04-18T08:33:40.019Z</time></trkpt><trkpt lat="44.8959442" lon="8.2971894"><ele>117.0</ele><time>2026-04-18T08:33:41.018Z</time></trkpt><trkpt lat="44.8957672" lon="8.2974018"><ele>117.0</ele><time>2026-04-18T08:33:42.019Z</time></trkpt><trkpt lat="44.8955861" lon="8.2976134"><ele>117.0</ele><time>2026-04-18T08:33:43.019Z</time></trkpt><trkpt lat="44.8954057" lon="8.2978295"><ele>117.0</ele><time>2026-04-18T08:33:44.018Z</time></trkpt><trkpt lat="44.895223" lon="8.2980485"><ele>117.0</ele><time>2026-04-18T08:33:45.018Z</time></trkpt><trkpt lat="44.8950371" lon="8.2982667"><ele>117.0</ele><time>2026-04-18T08:33:46.018Z</time></trkpt><trkpt lat="44.8948492" lon="8.2984879"><ele>117.0</ele><time>2026-04-18T08:33:47.019Z</time></trkpt><trkpt lat="44.8946626" lon="8.298708"><ele>117.0</ele><time>2026-04-18T08:33:48.019Z</time></trkpt><trkpt lat="44.8944764" lon="8.2989278"><ele>117.0</ele><time>2026-04-18T08:33:49.018Z</time></trkpt><trkpt lat="44.8942918" lon="8.2991448"><ele>117.0</ele><time>2026-04-18T08:33:50.019Z</time></trkpt><trkpt lat="44.8941114" lon="8.2993606"><ele>118.0</ele><time>2026-04-18T08:33:51.018Z</time></trkpt><trkpt lat="44.8939317" lon="8.2995718"><ele>119.0</ele><time>2026-04-18T08:33:52.018Z</time></trkpt><trkpt lat="44.8937541" lon="8.2997828"><ele>119.0</ele><time>2026-04-18T08:33:53.018Z</time></trkpt><trkpt lat="44.8935787" lon="8.2999907"><ele>119.0</ele><time>2026-04-18T08:33:54.019Z</time></trkpt><trkpt lat="44.8934027" lon="8.3001989"><ele>117.0</ele><time>2026-04-18T08:33:55.019Z</time></trkpt><trkpt lat="44.8932271" lon="8.3004022"><ele>115.0</ele><time>2026-04-18T08:33:56.018Z</time></trkpt><trkpt lat="44.8930538" lon="8.3006047"><ele>115.66666666666667</ele><time>2026-04-18T08:33:57.018Z</time></trkpt><trkpt lat="44.8928826" lon="8.3008091"><ele>116.33333333333334</ele><time>2026-04-18T08:33:58.019Z</time></trkpt><trkpt lat="44.8927135" lon="8.3010069"><ele>117.0</ele><time>2026-04-18T08:33:59.019Z</time></trkpt><trkpt lat="44.8925476" lon="8.3012015"><ele>117.0</ele><time>2026-04-18T08:34:00.019Z</time></trkpt><trkpt lat="44.8923825" lon="8.3013962"><ele>117.0</ele><time>2026-04-18T08:34:01.018Z</time></trkpt><trkpt lat="44.892216" lon="8.3015914"><ele>117.0</ele><time>2026-04-18T08:34:02.019Z</time></trkpt><trkpt lat="44.892047" lon="8.3017918"><ele>118.0</ele><time>2026-04-18T08:34:03.018Z</time></trkpt><trkpt lat="44.8918777" lon="8.3020076"><ele>119.0</ele><time>2026-04-18T08:34:04.019Z</time></trkpt><trkpt lat="44.8916969" lon="8.3022337"><ele>128.5</ele><time>2026-04-18T08:34:05.018Z</time></trkpt><trkpt lat="44.8915058" lon="8.302456"><ele>138.0</ele><time>2026-04-18T08:34:06.018Z</time></trkpt><trkpt lat="44.8913058" lon="8.3026714"><ele>138.0</ele><time>2026-04-18T08:34:07.018Z</time></trkpt><trkpt lat="44.8911124" lon="8.302889"><ele>138.0</ele><time>2026-04-18T08:34:08.018Z</time></trkpt><trkpt lat="44.8909315" lon="8.3031"><ele>139.0</ele><time>2026-04-18T08:34:09.018Z</time></trkpt><trkpt lat="44.8907593" lon="8.3033025"><ele>140.0</ele><time>2026-04-18T08:34:10.019Z</time></trkpt><trkpt lat="44.8905969" lon="8.3034956"><ele>141.0</ele><time>2026-04-18T08:34:11.019Z</time></trkpt><trkpt lat="44.8904403" lon="8.3036801"><ele>141.0</ele><time>2026-04-18T08:34:12.018Z</time></trkpt><trkpt lat="44.890293" lon="8.3038528"><ele>141.0</ele><time>2026-04-18T08:34:13.018Z</time></trkpt><trkpt lat="44.8901614" lon="8.3040222"><ele>141.0</ele><time>2026-04-18T08:34:14.019Z</time></trkpt><trkpt lat="44.8900568" lon="8.3042061"><ele>141.33333333333334</ele><time>2026-04-18T08:34:15.019Z</time></trkpt><trkpt lat="44.8899811" lon="8.3043992"><ele>141.66666666666669</ele><time>2026-04-18T08:34:16.019Z</time></trkpt><trkpt lat="44.8899366" lon="8.304608"><ele>142.0</ele><time>2026-04-18T08:34:17.019Z</time></trkpt><trkpt lat="44.8899254" lon="8.3048229"><ele>142.0</ele><time>2026-04-18T08:34:18.019Z</time></trkpt><trkpt lat="44.8899499" lon="8.3050384"><ele>142.0</ele><time>2026-04-18T08:34:19.019Z</time></trkpt><trkpt lat="44.8900048" lon="8.3052443"><ele>142.0</ele><time>2026-04-18T08:34:20.019Z</time></trkpt><trkpt lat="44.89008" lon="8.3054437"><ele>141.0</ele><time>2026-04-18T08:34:21.019Z</time></trkpt><trkpt lat="44.8901581" lon="8.3056412"><ele>140.0</ele><time>2026-04-18T08:34:22.019Z</time></trkpt><trkpt lat="44.8902262" lon="8.3058518"><ele>139.0</ele><time>2026-04-18T08:34:23.019Z</time></trkpt><trkpt lat="44.8902773" lon="8.3060706"><ele>139.0</ele><time>2026-04-18T08:34:24.019Z</time></trkpt><trkpt lat="44.8903076" lon="8.306291"><ele>139.0</ele><time>2026-04-18T08:34:25.018Z</time></trkpt><trkpt lat="44.890314" lon="8.3065172"><ele>139.0</ele><time>2026-04-18T08:34:26.019Z</time></trkpt><trkpt lat="44.8902912" lon="8.3067362"><ele>135.0</ele><time>2026-04-18T08:34:27.019Z</time></trkpt><trkpt lat="44.8902354" lon="8.3069384"><ele>131.0</ele><time>2026-04-18T08:34:28.018Z</time></trkpt><trkpt lat="44.8901484" lon="8.3071293"><ele>127.0</ele><time>2026-04-18T08:34:29.019Z</time></trkpt><trkpt lat="44.8900338" lon="8.3073049"><ele>127.0</ele><time>2026-04-18T08:34:30.019Z</time></trkpt><trkpt lat="44.8899022" lon="8.307466"><ele>127.0</ele><time>2026-04-18T08:34:31.019Z</time></trkpt><trkpt lat="44.889752" lon="8.3076171"><ele>127.0</ele><time>2026-04-18T08:34:32.018Z</time></trkpt><trkpt lat="44.8895923" lon="8.3077655"><ele>127.0</ele><time>2026-04-18T08:34:33.018Z</time></trkpt><trkpt lat="44.8894197" lon="8.3079176"><ele>127.0</ele><time>2026-04-18T08:34:34.018Z</time></trkpt><trkpt lat="44.8892413" lon="8.3080672"><ele>127.0</ele><time>2026-04-18T08:34:35.019Z</time></trkpt><trkpt lat="44.8890622" lon="8.3082171"><ele>129.66666666666669</ele><time>2026-04-18T08:34:36.019Z</time></trkpt><trkpt lat="44.8888833" lon="8.3083705"><ele>132.33333333333334</ele><time>2026-04-18T08:34:37.019Z</time></trkpt><trkpt lat="44.8887006" lon="8.3085243"><ele>135.0</ele><time>2026-04-18T08:34:38.019Z</time></trkpt><trkpt lat="44.8885151" lon="8.3086783"><ele>133.33333333333334</ele><time>2026-04-18T08:34:39.019Z</time></trkpt><trkpt lat="44.8883283" lon="8.308834"><ele>131.66666666666669</ele><time>2026-04-18T08:34:40.018Z</time></trkpt><trkpt lat="44.8881412" lon="8.3089758"><ele>130.0</ele><time>2026-04-18T08:34:41.018Z</time></trkpt><trkpt lat="44.8879483" lon="8.309105"><ele>130.0</ele><time>2026-04-18T08:34:42.019Z</time></trkpt><trkpt lat="44.8877559" lon="8.3092124"><ele>130.0</ele><time>2026-04-18T08:34:43.018Z</time></trkpt><trkpt lat="44.887562" lon="8.3093073"><ele>130.0</ele><time>2026-04-18T08:34:44.019Z</time></trkpt><trkpt lat="44.8873751" lon="8.3093948"><ele>127.66666666666667</ele><time>2026-04-18T08:34:45.018Z</time></trkpt><trkpt lat="44.8871874" lon="8.3094798"><ele>125.33333333333334</ele><time>2026-04-18T08:34:46.019Z</time></trkpt><trkpt lat="44.886998" lon="8.3095668"><ele>123.0</ele><time>2026-04-18T08:34:47.018Z</time></trkpt><trkpt lat="44.8868087" lon="8.3096522"><ele>122.33333333333334</ele><time>2026-04-18T08:34:48.019Z</time></trkpt><trkpt lat="44.8866213" lon="8.3097403"><ele>121.66666666666667</ele><time>2026-04-18T08:34:49.019Z</time></trkpt><trkpt lat="44.8864354" lon="8.3098241"><ele>121.0</ele><time>2026-04-18T08:34:50.018Z</time></trkpt><trkpt lat="44.8862545" lon="8.3098995"><ele>120.66666666666667</ele><time>2026-04-18T08:34:51.019Z</time></trkpt><trkpt lat="44.8860732" lon="8.3099837"><ele>120.33333333333334</ele><time>2026-04-18T08:34:52.018Z</time></trkpt><trkpt lat="44.88589" lon="8.3100695"><ele>120.0</ele><time>2026-04-18T08:34:53.019Z</time></trkpt><trkpt lat="44.8857073" lon="8.3101558"><ele>120.0</ele><time>2026-04-18T08:34:54.018Z</time></trkpt><trkpt lat="44.8855263" lon="8.3102433"><ele>120.0</ele><time>2026-04-18T08:34:55.018Z</time></trkpt><trkpt lat="44.8853451" lon="8.3103295"><ele>120.0</ele><time>2026-04-18T08:34:56.019Z</time></trkpt><trkpt lat="44.8851667" lon="8.3104164"><ele>119.66666666666666</ele><time>2026-04-18T08:34:57.019Z</time></trkpt><trkpt lat="44.8849886" lon="8.3104961"><ele>119.33333333333333</ele><time>2026-04-18T08:34:58.019Z</time></trkpt><trkpt lat="44.8848118" lon="8.3105815"><ele>119.0</ele><time>2026-04-18T08:34:59.019Z</time></trkpt><trkpt lat="44.8846388" lon="8.3106679"><ele>120.33333333333333</ele><time>2026-04-18T08:35:00.019Z</time></trkpt><trkpt lat="44.8844729" lon="8.3107617"><ele>121.66666666666666</ele><time>2026-04-18T08:35:01.018Z</time></trkpt><trkpt lat="44.8843144" lon="8.3108685"><ele>123.0</ele><time>2026-04-18T08:35:02.019Z</time></trkpt><trkpt lat="44.8841714" lon="8.3109815"><ele>123.0</ele><time>2026-04-18T08:35:03.019Z</time></trkpt><trkpt lat="44.8840418" lon="8.3110967"><ele>123.0</ele><time>2026-04-18T08:35:04.019Z</time></trkpt><trkpt lat="44.8839161" lon="8.3112068"><ele>123.0</ele><time>2026-04-18T08:35:05.019Z</time></trkpt><trkpt lat="44.8837939" lon="8.3113168"><ele>123.0</ele><time>2026-04-18T08:35:06.018Z</time></trkpt><trkpt lat="44.8836756" lon="8.311425"><ele>121.5</ele><time>2026-04-18T08:35:07.019Z</time></trkpt><trkpt lat="44.8835631" lon="8.3115304"><ele>120.0</ele><time>2026-04-18T08:35:08.019Z</time></trkpt><trkpt lat="44.8834532" lon="8.3116334"><ele>118.5</ele><time>2026-04-18T08:35:09.018Z</time></trkpt><trkpt lat="44.8833468" lon="8.3117355"><ele>117.0</ele><time>2026-04-18T08:35:10.018Z</time></trkpt><trkpt lat="44.8832417" lon="8.3118347"><ele>117.0</ele><time>2026-04-18T08:35:11.019Z</time></trkpt><trkpt lat="44.8831304" lon="8.3119322"><ele>117.0</ele><time>2026-04-18T08:35:12.019Z</time></trkpt><trkpt lat="44.8830149" lon="8.3120254"><ele>117.0</ele><time>2026-04-18T08:35:13.019Z</time></trkpt><trkpt lat="44.8829005" lon="8.3121129"><ele>117.0</ele><time>2026-04-18T08:35:14.019Z</time></trkpt><trkpt lat="44.8827867" lon="8.3121936"><ele>116.5</ele><time>2026-04-18T08:35:15.019Z</time></trkpt><trkpt lat="44.8826705" lon="8.3122755"><ele>116.0</ele><time>2026-04-18T08:35:16.019Z</time></trkpt><trkpt lat="44.882554" lon="8.3123577"><ele>115.5</ele><time>2026-04-18T08:35:17.019Z</time></trkpt><trkpt lat="44.8824377" lon="8.3124389"><ele>115.0</ele><time>2026-04-18T08:35:18.019Z</time></trkpt><trkpt lat="44.8823226" lon="8.3125202"><ele>115.0</ele><time>2026-04-18T08:35:19.018Z</time></trkpt><trkpt lat="44.8822088" lon="8.3125967"><ele>115.0</ele><time>2026-04-18T08:35:20.018Z</time></trkpt><trkpt lat="44.8820981" lon="8.3126774"><ele>115.0</ele><time>2026-04-18T08:35:21.019Z</time></trkpt><trkpt lat="44.8819907" lon="8.3127548"><ele>115.0</ele><time>2026-04-18T08:35:22.019Z</time></trkpt><trkpt lat="44.8818858" lon="8.3128324"><ele>115.0</ele><time>2026-04-18T08:35:23.019Z</time></trkpt><trkpt lat="44.8817833" lon="8.3129071"><ele>115.0</ele><time>2026-04-18T08:35:24.019Z</time></trkpt><trkpt lat="44.8816829" lon="8.312978"><ele>115.0</ele><time>2026-04-18T08:35:25.019Z</time></trkpt><trkpt lat="44.8815815" lon="8.313048"><ele>115.0</ele><time>2026-04-18T08:35:26.019Z</time></trkpt><trkpt lat="44.881482" lon="8.3131153"><ele>114.2</ele><time>2026-04-18T08:35:27.019Z</time></trkpt><trkpt lat="44.8813877" lon="8.3131843"><ele>113.4</ele><time>2026-04-18T08:35:28.019Z</time></trkpt><trkpt lat="44.8812925" lon="8.3132558"><ele>112.6</ele><time>2026-04-18T08:35:29.018Z</time></trkpt><trkpt lat="44.8812015" lon="8.3133195"><ele>111.8</ele><time>2026-04-18T08:35:30.018Z</time></trkpt><trkpt lat="44.8811131" lon="8.3133843"><ele>111.0</ele><time>2026-04-18T08:35:31.019Z</time></trkpt><trkpt lat="44.8810269" lon="8.3134487"><ele>111.0</ele><time>2026-04-18T08:35:32.019Z</time></trkpt><trkpt lat="44.8809459" lon="8.3135112"><ele>111.0</ele><time>2026-04-18T08:35:33.019Z</time></trkpt><trkpt lat="44.8808722" lon="8.3135653"><ele>111.0</ele><time>2026-04-18T08:35:34.018Z</time></trkpt><trkpt lat="44.880801" lon="8.3136134"><ele>111.0</ele><time>2026-04-18T08:35:35.019Z</time></trkpt><trkpt lat="44.8807305" lon="8.3136598"><ele>111.0</ele><time>2026-04-18T08:35:36.018Z</time></trkpt><trkpt lat="44.8806618" lon="8.3137037"><ele>111.0</ele><time>2026-04-18T08:35:37.018Z</time></trkpt><trkpt lat="44.880594" lon="8.3137546"><ele>111.0</ele><time>2026-04-18T08:35:38.019Z</time></trkpt><trkpt lat="44.880521" lon="8.3138089"><ele>111.0</ele><time>2026-04-18T08:35:39.019Z</time></trkpt><trkpt lat="44.8804383" lon="8.3138752"><ele>111.0</ele><time>2026-04-18T08:35:40.019Z</time></trkpt><trkpt lat="44.8803473" lon="8.3139431"><ele>111.0</ele><time>2026-04-18T08:35:41.019Z</time></trkpt><trkpt lat="44.8802479" lon="8.3140147"><ele>111.0</ele><time>2026-04-18T08:35:42.019Z</time></trkpt><trkpt lat="44.8801505" lon="8.3140858"><ele>110.66666666666667</ele><time>2026-04-18T08:35:43.018Z</time></trkpt><trkpt lat="44.8800579" lon="8.3141542"><ele>110.33333333333334</ele><time>2026-04-18T08:35:44.019Z</time></trkpt><trkpt lat="44.879968" lon="8.3142166"><ele>110.0</ele><time>2026-04-18T08:35:45.018Z</time></trkpt><trkpt lat="44.8798852" lon="8.3142657"><ele>109.66666666666667</ele><time>2026-04-18T08:35:46.018Z</time></trkpt><trkpt lat="44.8798064" lon="8.3142854"><ele>109.33333333333334</ele><time>2026-04-18T08:35:47.018Z</time></trkpt><trkpt lat="44.8797337" lon="8.3142726"><ele>109.0</ele><time>2026-04-18T08:35:48.018Z</time></trkpt><trkpt lat="44.8796752" lon="8.3142296"><ele>109.00000000000001</ele><time>2026-04-18T08:35:49.018Z</time></trkpt><trkpt lat="44.8796146" lon="8.3141555"><ele>109.0</ele><time>2026-04-18T08:35:50.018Z</time></trkpt><trkpt lat="44.8795532" lon="8.3140648"><ele>109.0</ele><time>2026-04-18T08:35:51.019Z</time></trkpt><trkpt lat="44.8794798" lon="8.3139727"><ele>109.0</ele><time>2026-04-18T08:35:52.018Z</time></trkpt><trkpt lat="44.8794119" lon="8.3138852"><ele>109.00000000000001</ele><time>2026-04-18T08:35:53.019Z</time></trkpt><trkpt lat="44.8793543" lon="8.3138127"><ele>109.0</ele><time>2026-04-18T08:35:54.018Z</time></trkpt><trkpt lat="44.879293" lon="8.313777"><ele>109.0</ele><time>2026-04-18T08:35:55.018Z</time></trkpt><trkpt lat="44.8791885" lon="8.3138284"><ele>109.0</ele><time>2026-04-18T08:35:57.019Z</time></trkpt><trkpt lat="44.8791437" lon="8.313915"><ele>109.0</ele><time>2026-04-18T08:35:58.018Z</time></trkpt><trkpt lat="44.8790931" lon="8.3140331"><ele>109.0</ele><time>2026-04-18T08:35:59.019Z</time></trkpt><trkpt lat="44.8790373" lon="8.3141762"><ele>109.0</ele><time>2026-04-18T08:36:00.018Z</time></trkpt><trkpt lat="44.8789802" lon="8.3143274"><ele>109.0</ele><time>2026-04-18T08:36:01.019Z</time></trkpt><trkpt lat="44.8789242" lon="8.3144716"><ele>109.0</ele><time>2026-04-18T08:36:02.019Z</time></trkpt><trkpt lat="44.8788715" lon="8.3146076"><ele>109.0</ele><time>2026-04-18T08:36:03.019Z</time></trkpt><trkpt lat="44.8788208" lon="8.314743"><ele>109.0</ele><time>2026-04-18T08:36:04.019Z</time></trkpt><trkpt lat="44.8787767" lon="8.3148705"><ele>109.0</ele><time>2026-04-18T08:36:05.019Z</time></trkpt><trkpt lat="44.8787279" lon="8.3150004"><ele>109.0</ele><time>2026-04-18T08:36:06.019Z</time></trkpt><trkpt lat="44.8786756" lon="8.3151364"><ele>109.0</ele><time>2026-04-18T08:36:07.019Z</time></trkpt><trkpt lat="44.8786223" lon="8.315282"><ele>109.0</ele><time>2026-04-18T08:36:08.018Z</time></trkpt><trkpt lat="44.8785654" lon="8.3154383"><ele>109.0</ele><time>2026-04-18T08:36:09.019Z</time></trkpt><trkpt lat="44.8785078" lon="8.3155962"><ele>109.0</ele><time>2026-04-18T08:36:10.019Z</time></trkpt><trkpt lat="44.8784474" lon="8.3157486"><ele>109.0</ele><time>2026-04-18T08:36:11.019Z</time></trkpt><trkpt lat="44.8783886" lon="8.3159022"><ele>109.0</ele><time>2026-04-18T08:36:12.018Z</time></trkpt><trkpt lat="44.8783335" lon="8.3160493"><ele>109.0</ele><time>2026-04-18T08:36:13.019Z</time></trkpt><trkpt lat="44.8782811" lon="8.3161926"><ele>109.0</ele><time>2026-04-18T08:36:14.019Z</time></trkpt><trkpt lat="44.8782264" lon="8.3163328"><ele>109.0</ele><time>2026-04-18T08:36:15.019Z</time></trkpt><trkpt lat="44.8781725" lon="8.3164752"><ele>109.0</ele><time>2026-04-18T08:36:16.019Z</time></trkpt><trkpt lat="44.8781195" lon="8.3166202"><ele>109.0</ele><time>2026-04-18T08:36:17.018Z</time></trkpt><trkpt lat="44.8780624" lon="8.3167632"><ele>109.25</ele><time>2026-04-18T08:36:18.019Z</time></trkpt><trkpt lat="44.8780041" lon="8.3169084"><ele>109.5</ele><time>2026-04-18T08:36:19.018Z</time></trkpt><trkpt lat="44.8779433" lon="8.3170682"><ele>109.75</ele><time>2026-04-18T08:36:20.018Z</time></trkpt><trkpt lat="44.877878" lon="8.3172439"><ele>110.0</ele><time>2026-04-18T08:36:21.019Z</time></trkpt><trkpt lat="44.8778077" lon="8.3174176"><ele>110.25</ele><time>2026-04-18T08:36:22.018Z</time></trkpt><trkpt lat="44.8777418" lon="8.3175883"><ele>110.5</ele><time>2026-04-18T08:36:23.018Z</time></trkpt><trkpt lat="44.877683" lon="8.3177463"><ele>110.75</ele><time>2026-04-18T08:36:24.018Z</time></trkpt><trkpt lat="44.8776252" lon="8.3178982"><ele>111.0</ele><time>2026-04-18T08:36:25.019Z</time></trkpt><trkpt lat="44.8775645" lon="8.3180449"><ele>111.5</ele><time>2026-04-18T08:36:26.019Z</time></trkpt><trkpt lat="44.8775089" lon="8.3182009"><ele>112.0</ele><time>2026-04-18T08:36:27.018Z</time></trkpt><trkpt lat="44.8774632" lon="8.3183734"><ele>112.5</ele><time>2026-04-18T08:36:28.018Z</time></trkpt><trkpt lat="44.8774352" lon="8.318556"><ele>113.0</ele><time>2026-04-18T08:36:29.018Z</time></trkpt><trkpt lat="44.8774332" lon="8.318753"><ele>112.5</ele><time>2026-04-18T08:36:30.018Z</time></trkpt><trkpt lat="44.8774487" lon="8.3189549"><ele>112.0</ele><time>2026-04-18T08:36:31.018Z</time></trkpt><trkpt lat="44.8774717" lon="8.319156"><ele>111.5</ele><time>2026-04-18T08:36:32.019Z</time></trkpt><trkpt lat="44.8774929" lon="8.3193573"><ele>111.0</ele><time>2026-04-18T08:36:33.019Z</time></trkpt><trkpt lat="44.8775152" lon="8.3195577"><ele>111.0</ele><time>2026-04-18T08:36:34.019Z</time></trkpt><trkpt lat="44.877536" lon="8.3197569"><ele>111.0</ele><time>2026-04-18T08:36:35.019Z</time></trkpt><trkpt lat="44.8775541" lon="8.3199578"><ele>111.0</ele><time>2026-04-18T08:36:36.018Z</time></trkpt><trkpt lat="44.8775729" lon="8.3201543"><ele>111.0</ele><time>2026-04-18T08:36:37.018Z</time></trkpt><trkpt lat="44.877592" lon="8.320354"><ele>111.25</ele><time>2026-04-18T08:36:38.019Z</time></trkpt><trkpt lat="44.8776131" lon="8.3205501"><ele>111.5</ele><time>2026-04-18T08:36:39.019Z</time></trkpt><trkpt lat="44.8776314" lon="8.320746"><ele>111.75</ele><time>2026-04-18T08:36:40.018Z</time></trkpt><trkpt lat="44.877651" lon="8.3209362"><ele>112.0</ele><time>2026-04-18T08:36:41.019Z</time></trkpt><trkpt lat="44.8776708" lon="8.3211223"><ele>112.75</ele><time>2026-04-18T08:36:42.019Z</time></trkpt><trkpt lat="44.8776846" lon="8.3213091"><ele>113.5</ele><time>2026-04-18T08:36:43.019Z</time></trkpt><trkpt lat="44.8777028" lon="8.3214942"><ele>114.25</ele><time>2026-04-18T08:36:44.019Z</time></trkpt><trkpt lat="44.8777155" lon="8.3216875"><ele>115.0</ele><time>2026-04-18T08:36:45.018Z</time></trkpt><trkpt lat="44.8777341" lon="8.3218837"><ele>116.0</ele><time>2026-04-18T08:36:46.019Z</time></trkpt><trkpt lat="44.8777505" lon="8.3220802"><ele>117.0</ele><time>2026-04-18T08:36:47.019Z</time></trkpt><trkpt lat="44.8777727" lon="8.3222756"><ele>118.0</ele><time>2026-04-18T08:36:48.019Z</time></trkpt><trkpt lat="44.8777891" lon="8.3224684"><ele>119.0</ele><time>2026-04-18T08:36:49.019Z</time></trkpt><trkpt lat="44.8778082" lon="8.3226658"><ele>120.25</ele><time>2026-04-18T08:36:50.019Z</time></trkpt><trkpt lat="44.8778282" lon="8.3228631"><ele>121.5</ele><time>2026-04-18T08:36:51.019Z</time></trkpt><trkpt lat="44.8778489" lon="8.3230656"><ele>122.75</ele><time>2026-04-18T08:36:52.018Z</time></trkpt><trkpt lat="44.8778697" lon="8.3232726"><ele>124.0</ele><time>2026-04-18T08:36:53.019Z</time></trkpt><trkpt lat="44.8778922" lon="8.3234808"><ele>124.66666666666667</ele><time>2026-04-18T08:36:54.018Z</time></trkpt><trkpt lat="44.8779145" lon="8.3236953"><ele>125.33333333333334</ele><time>2026-04-18T08:36:55.018Z</time></trkpt><trkpt lat="44.8779341" lon="8.3239118"><ele>126.0</ele><time>2026-04-18T08:36:56.019Z</time></trkpt><trkpt lat="44.8779559" lon="8.3241214"><ele>125.0</ele><time>2026-04-18T08:36:57.019Z</time></trkpt><trkpt lat="44.877976" lon="8.3243294"><ele>124.0</ele><time>2026-04-18T08:36:58.019Z</time></trkpt><trkpt lat="44.8779942" lon="8.3245299"><ele>123.0</ele><time>2026-04-18T08:36:59.018Z</time></trkpt><trkpt lat="44.8780137" lon="8.3247249"><ele>122.0</ele><time>2026-04-18T08:37:00.019Z</time></trkpt><trkpt lat="44.8780298" lon="8.3249146"><ele>121.5</ele><time>2026-04-18T08:37:01.018Z</time></trkpt><trkpt lat="44.8780491" lon="8.3251001"><ele>121.0</ele><time>2026-04-18T08:37:02.019Z</time></trkpt><trkpt lat="44.8780654" lon="8.3252875"><ele>120.5</ele><time>2026-04-18T08:37:03.019Z</time></trkpt><trkpt lat="44.8780845" lon="8.3254798"><ele>120.0</ele><time>2026-04-18T08:37:04.019Z</time></trkpt><trkpt lat="44.8781065" lon="8.3256731"><ele>119.5</ele><time>2026-04-18T08:37:05.019Z</time></trkpt><trkpt lat="44.8781265" lon="8.3258736"><ele>119.0</ele><time>2026-04-18T08:37:06.019Z</time></trkpt><trkpt lat="44.8781488" lon="8.326082"><ele>118.5</ele><time>2026-04-18T08:37:07.019Z</time></trkpt><trkpt lat="44.8781692" lon="8.3262982"><ele>118.0</ele><time>2026-04-18T08:37:08.019Z</time></trkpt><trkpt lat="44.8781907" lon="8.3265217"><ele>117.33333333333334</ele><time>2026-04-18T08:37:09.019Z</time></trkpt><trkpt lat="44.8782128" lon="8.3267438"><ele>116.66666666666666</ele><time>2026-04-18T08:37:10.019Z</time></trkpt><trkpt lat="44.8782366" lon="8.3269665"><ele>116.0</ele><time>2026-04-18T08:37:11.018Z</time></trkpt><trkpt lat="44.8782569" lon="8.3271976"><ele>115.33333333333333</ele><time>2026-04-18T08:37:12.018Z</time></trkpt><trkpt lat="44.8782802" lon="8.3274256"><ele>114.66666666666666</ele><time>2026-04-18T08:37:13.018Z</time></trkpt><trkpt lat="44.8783043" lon="8.3276575"><ele>114.0</ele><time>2026-04-18T08:37:14.019Z</time></trkpt><trkpt lat="44.8783294" lon="8.3278964"><ele>113.33333333333334</ele><time>2026-04-18T08:37:15.018Z</time></trkpt><trkpt lat="44.8783526" lon="8.3281423"><ele>112.66666666666667</ele><time>2026-04-18T08:37:16.019Z</time></trkpt><trkpt lat="44.8783768" lon="8.3283871"><ele>112.0</ele><time>2026-04-18T08:37:17.019Z</time></trkpt><trkpt lat="44.8784009" lon="8.3286303"><ele>112.0</ele><time>2026-04-18T08:37:18.019Z</time></trkpt><trkpt lat="44.8784207" lon="8.3288563"><ele>112.0</ele><time>2026-04-18T08:37:19.019Z</time></trkpt><trkpt lat="44.8784403" lon="8.3290761"><ele>112.0</ele><time>2026-04-18T08:37:20.019Z</time></trkpt><trkpt lat="44.8784622" lon="8.3292893"><ele>115.0</ele><time>2026-04-18T08:37:21.019Z</time></trkpt><trkpt lat="44.8784863" lon="8.3295054"><ele>118.0</ele><time>2026-04-18T08:37:22.018Z</time></trkpt><trkpt lat="44.8785065" lon="8.3297242"><ele>121.0</ele><time>2026-04-18T08:37:23.018Z</time></trkpt><trkpt lat="44.8785268" lon="8.3299449"><ele>121.33333333333334</ele><time>2026-04-18T08:37:24.019Z</time></trkpt><trkpt lat="44.8785462" lon="8.3301711"><ele>121.66666666666666</ele><time>2026-04-18T08:37:25.019Z</time></trkpt><trkpt lat="44.8785683" lon="8.3303953"><ele>122.0</ele><time>2026-04-18T08:37:26.019Z</time></trkpt><trkpt lat="44.8785918" lon="8.3306245"><ele>121.33333333333333</ele><time>2026-04-18T08:37:27.019Z</time></trkpt><trkpt lat="44.8786162" lon="8.3308567"><ele>120.66666666666666</ele><time>2026-04-18T08:37:28.019Z</time></trkpt><trkpt lat="44.8786433" lon="8.3310938"><ele>120.0</ele><time>2026-04-18T08:37:29.018Z</time></trkpt><trkpt lat="44.8786698" lon="8.3313339"><ele>119.33333333333334</ele><time>2026-04-18T08:37:30.019Z</time></trkpt><trkpt lat="44.8786954" lon="8.3315881"><ele>118.66666666666667</ele><time>2026-04-18T08:37:31.019Z</time></trkpt><trkpt lat="44.8787233" lon="8.3318478"><ele>118.0</ele><time>2026-04-18T08:37:32.019Z</time></trkpt><trkpt lat="44.87875" lon="8.3321136"><ele>117.66666666666667</ele><time>2026-04-18T08:37:33.019Z</time></trkpt><trkpt lat="44.8787763" lon="8.3323868"><ele>117.33333333333334</ele><time>2026-04-18T08:37:34.019Z</time></trkpt><trkpt lat="44.8788043" lon="8.3326589"><ele>117.0</ele><time>2026-04-18T08:37:35.019Z</time></trkpt><trkpt lat="44.8788329" lon="8.3329278"><ele>117.33333333333334</ele><time>2026-04-18T08:37:36.019Z</time></trkpt><trkpt lat="44.8788565" lon="8.3331959"><ele>117.66666666666667</ele><time>2026-04-18T08:37:37.018Z</time></trkpt><trkpt lat="44.8788802" lon="8.333464"><ele>118.0</ele><time>2026-04-18T08:37:38.019Z</time></trkpt><trkpt lat="44.8789041" lon="8.3337296"><ele>119.0</ele><time>2026-04-18T08:37:39.019Z</time></trkpt><trkpt lat="44.8789304" lon="8.3339891"><ele>120.0</ele><time>2026-04-18T08:37:40.019Z</time></trkpt><trkpt lat="44.878956" lon="8.3342402"><ele>121.0</ele><time>2026-04-18T08:37:41.019Z</time></trkpt><trkpt lat="44.8789825" lon="8.3344936"><ele>123.0</ele><time>2026-04-18T08:37:42.019Z</time></trkpt><trkpt lat="44.8790151" lon="8.3347472"><ele>125.0</ele><time>2026-04-18T08:37:43.018Z</time></trkpt><trkpt lat="44.879058" lon="8.3350066"><ele>127.0</ele><time>2026-04-18T08:37:44.019Z</time></trkpt><trkpt lat="44.8791118" lon="8.3352637"><ele>127.0</ele><time>2026-04-18T08:37:45.018Z</time></trkpt><trkpt lat="44.8791797" lon="8.3355223"><ele>127.0</ele><time>2026-04-18T08:37:46.019Z</time></trkpt><trkpt lat="44.8792508" lon="8.3357882"><ele>127.0</ele><time>2026-04-18T08:37:47.018Z</time></trkpt><trkpt lat="44.8793243" lon="8.3360566"><ele>125.66666666666667</ele><time>2026-04-18T08:37:48.018Z</time></trkpt><trkpt lat="44.8793974" lon="8.3363274"><ele>124.33333333333334</ele><time>2026-04-18T08:37:49.019Z</time></trkpt><trkpt lat="44.8794733" lon="8.3366006"><ele>123.0</ele><time>2026-04-18T08:37:50.019Z</time></trkpt><trkpt lat="44.8795492" lon="8.3368795"><ele>122.33333333333334</ele><time>2026-04-18T08:37:51.018Z</time></trkpt><trkpt lat="44.87963" lon="8.3371616"><ele>121.66666666666667</ele><time>2026-04-18T08:37:52.018Z</time></trkpt><trkpt lat="44.879706" lon="8.3374358"><ele>121.0</ele><time>2026-04-18T08:37:53.018Z</time></trkpt><trkpt lat="44.8797799" lon="8.337703"><ele>121.0</ele><time>2026-04-18T08:37:54.019Z</time></trkpt><trkpt lat="44.8798523" lon="8.3379699"><ele>121.0</ele><time>2026-04-18T08:37:55.019Z</time></trkpt><trkpt lat="44.8799277" lon="8.3382291"><ele>121.0</ele><time>2026-04-18T08:37:56.018Z</time></trkpt><trkpt lat="44.8799987" lon="8.3384809"><ele>121.0</ele><time>2026-04-18T08:37:57.019Z</time></trkpt><trkpt lat="44.8800704" lon="8.3387335"><ele>121.0</ele><time>2026-04-18T08:37:58.018Z</time></trkpt><trkpt lat="44.8801398" lon="8.3389781"><ele>121.0</ele><time>2026-04-18T08:37:59.019Z</time></trkpt><trkpt lat="44.8802085" lon="8.3392193"><ele>120.66666666666667</ele><time>2026-04-18T08:38:00.018Z</time></trkpt><trkpt lat="44.8802769" lon="8.3394566"><ele>120.33333333333334</ele><time>2026-04-18T08:38:01.018Z</time></trkpt><trkpt lat="44.8803472" lon="8.3397033"><ele>120.0</ele><time>2026-04-18T08:38:02.019Z</time></trkpt><trkpt lat="44.8804172" lon="8.339956"><ele>119.33333333333334</ele><time>2026-04-18T08:38:03.019Z</time></trkpt><trkpt lat="44.8804896" lon="8.3402177"><ele>118.66666666666667</ele><time>2026-04-18T08:38:04.018Z</time></trkpt><trkpt lat="44.8805638" lon="8.3404879"><ele>118.0</ele><time>2026-04-18T08:38:05.019Z</time></trkpt><trkpt lat="44.8806379" lon="8.3407607"><ele>118.0</ele><time>2026-04-18T08:38:06.018Z</time></trkpt><trkpt lat="44.8807139" lon="8.3410358"><ele>118.0</ele><time>2026-04-18T08:38:07.019Z</time></trkpt><trkpt lat="44.8807889" lon="8.3413156"><ele>118.0</ele><time>2026-04-18T08:38:08.019Z</time></trkpt><trkpt lat="44.8808655" lon="8.341595"><ele>118.33333333333334</ele><time>2026-04-18T08:38:09.018Z</time></trkpt><trkpt lat="44.8809445" lon="8.3418733"><ele>118.66666666666666</ele><time>2026-04-18T08:38:10.019Z</time></trkpt><trkpt lat="44.8810186" lon="8.3421498"><ele>119.0</ele><time>2026-04-18T08:38:11.018Z</time></trkpt><trkpt lat="44.8810946" lon="8.3424172"><ele>118.33333333333333</ele><time>2026-04-18T08:38:12.019Z</time></trkpt><trkpt lat="44.8811682" lon="8.3426836"><ele>117.66666666666666</ele><time>2026-04-18T08:38:13.018Z</time></trkpt><trkpt lat="44.8812414" lon="8.3429431"><ele>117.0</ele><time>2026-04-18T08:38:14.018Z</time></trkpt><trkpt lat="44.8813143" lon="8.3431965"><ele>117.0</ele><time>2026-04-18T08:38:15.019Z</time></trkpt><trkpt lat="44.8813887" lon="8.343454"><ele>117.0</ele><time>2026-04-18T08:38:16.018Z</time></trkpt><trkpt lat="44.881462" lon="8.3437074"><ele>117.0</ele><time>2026-04-18T08:38:17.019Z</time></trkpt><trkpt lat="44.8815368" lon="8.3439642"><ele>119.0</ele><time>2026-04-18T08:38:18.019Z</time></trkpt><trkpt lat="44.8816104" lon="8.3442229"><ele>121.0</ele><time>2026-04-18T08:38:19.019Z</time></trkpt><trkpt lat="44.8816855" lon="8.3444844"><ele>123.0</ele><time>2026-04-18T08:38:20.018Z</time></trkpt><trkpt lat="44.8817629" lon="8.3447566"><ele>123.33333333333334</ele><time>2026-04-18T08:38:21.019Z</time></trkpt><trkpt lat="44.8818386" lon="8.3450322"><ele>123.66666666666667</ele><time>2026-04-18T08:38:22.018Z</time></trkpt><trkpt lat="44.8819164" lon="8.345318"><ele>124.0</ele><time>2026-04-18T08:38:23.018Z</time></trkpt><trkpt lat="44.8819963" lon="8.3456136"><ele>124.0</ele><time>2026-04-18T08:38:24.019Z</time></trkpt><trkpt lat="44.8820824" lon="8.3459126"><ele>124.0</ele><time>2026-04-18T08:38:25.019Z</time></trkpt><trkpt lat="44.882166" lon="8.3462201"><ele>124.5</ele><time>2026-04-18T08:38:26.018Z</time></trkpt><trkpt lat="44.8822512" lon="8.3465331"><ele>125.0</ele><time>2026-04-18T08:38:27.018Z</time></trkpt><trkpt lat="44.8823389" lon="8.3468484"><ele>125.0</ele><time>2026-04-18T08:38:28.018Z</time></trkpt><trkpt lat="44.8824253" lon="8.3471594"><ele>125.0</ele><time>2026-04-18T08:38:29.019Z</time></trkpt><trkpt lat="44.8825063" lon="8.3474496"><ele>126.66666666666666</ele><time>2026-04-18T08:38:30.018Z</time></trkpt><trkpt lat="44.8825843" lon="8.3477233"><ele>128.33333333333334</ele><time>2026-04-18T08:38:31.019Z</time></trkpt><trkpt lat="44.8826598" lon="8.3479792"><ele>130.0</ele><time>2026-04-18T08:38:32.019Z</time></trkpt><trkpt lat="44.8827324" lon="8.3482288"><ele>132.0</ele><time>2026-04-18T08:38:33.018Z</time></trkpt><trkpt lat="44.8828034" lon="8.3484831"><ele>134.0</ele><time>2026-04-18T08:38:34.019Z</time></trkpt><trkpt lat="44.8828762" lon="8.3487412"><ele>136.0</ele><time>2026-04-18T08:38:35.019Z</time></trkpt><trkpt lat="44.8829488" lon="8.3490081"><ele>137.0</ele><time>2026-04-18T08:38:36.019Z</time></trkpt><trkpt lat="44.8830249" lon="8.3492768"><ele>138.0</ele><time>2026-04-18T08:38:37.018Z</time></trkpt><trkpt lat="44.8830976" lon="8.3495451"><ele>139.0</ele><time>2026-04-18T08:38:38.019Z</time></trkpt><trkpt lat="44.8831711" lon="8.349814"><ele>139.33333333333334</ele><time>2026-04-18T08:38:39.019Z</time></trkpt><trkpt lat="44.8832401" lon="8.3500708"><ele>139.66666666666666</ele><time>2026-04-18T08:38:40.019Z</time></trkpt><trkpt lat="44.8833075" lon="8.3503127"><ele>140.0</ele><time>2026-04-18T08:38:41.019Z</time></trkpt><trkpt lat="44.8833702" lon="8.350545"><ele>140.33333333333331</ele><time>2026-04-18T08:38:42.019Z</time></trkpt><trkpt lat="44.8834355" lon="8.3507756"><ele>140.66666666666666</ele><time>2026-04-18T08:38:43.019Z</time></trkpt><trkpt lat="44.8835008" lon="8.351011"><ele>141.0</ele><time>2026-04-18T08:38:44.018Z</time></trkpt><trkpt lat="44.8835656" lon="8.351253"><ele>141.0</ele><time>2026-04-18T08:38:45.018Z</time></trkpt><trkpt lat="44.8836322" lon="8.3514961"><ele>141.0</ele><time>2026-04-18T08:38:46.018Z</time></trkpt><trkpt lat="44.8837008" lon="8.3517423"><ele>141.0</ele><time>2026-04-18T08:38:47.019Z</time></trkpt><trkpt lat="44.8837771" lon="8.3520028"><ele>140.0</ele><time>2026-04-18T08:38:48.018Z</time></trkpt><trkpt lat="44.8838655" lon="8.3522825"><ele>139.0</ele><time>2026-04-18T08:38:49.018Z</time></trkpt><trkpt lat="44.8839584" lon="8.352584"><ele>139.0</ele><time>2026-04-18T08:38:50.018Z</time></trkpt><trkpt lat="44.8840555" lon="8.3529077"><ele>139.0</ele><time>2026-04-18T08:38:51.018Z</time></trkpt><trkpt lat="44.8841482" lon="8.3532538"><ele>138.5</ele><time>2026-04-18T08:38:52.019Z</time></trkpt><trkpt lat="44.8842374" lon="8.3535996"><ele>138.0</ele><time>2026-04-18T08:38:53.018Z</time></trkpt><trkpt lat="44.8843263" lon="8.3539441"><ele>138.0</ele><time>2026-04-18T08:38:54.018Z</time></trkpt><trkpt lat="44.8844172" lon="8.3542804"><ele>138.0</ele><time>2026-04-18T08:38:55.019Z</time></trkpt><trkpt lat="44.8845121" lon="8.354621"><ele>138.0</ele><time>2026-04-18T08:38:56.018Z</time></trkpt><trkpt lat="44.8846047" lon="8.3549608"><ele>138.0</ele><time>2026-04-18T08:38:57.019Z</time></trkpt><trkpt lat="44.8846976" lon="8.3552959"><ele>137.0</ele><time>2026-04-18T08:38:58.018Z</time></trkpt><trkpt lat="44.8847911" lon="8.3556284"><ele>136.0</ele><time>2026-04-18T08:38:59.019Z</time></trkpt><trkpt lat="44.884886" lon="8.3559618"><ele>136.0</ele><time>2026-04-18T08:39:00.018Z</time></trkpt><trkpt lat="44.8849812" lon="8.3562939"><ele>136.0</ele><time>2026-04-18T08:39:01.018Z</time></trkpt><trkpt lat="44.885075" lon="8.3566209"><ele>137.0</ele><time>2026-04-18T08:39:02.019Z</time></trkpt><trkpt lat="44.8851672" lon="8.3569483"><ele>138.0</ele><time>2026-04-18T08:39:03.019Z</time></trkpt><trkpt lat="44.8852609" lon="8.3572745"><ele>138.5</ele><time>2026-04-18T08:39:04.019Z</time></trkpt><trkpt lat="44.885352" lon="8.3576012"><ele>139.0</ele><time>2026-04-18T08:39:05.018Z</time></trkpt><trkpt lat="44.8854426" lon="8.3579268"><ele>138.5</ele><time>2026-04-18T08:39:06.018Z</time></trkpt><trkpt lat="44.8855366" lon="8.3582569"><ele>138.0</ele><time>2026-04-18T08:39:07.018Z</time></trkpt><trkpt lat="44.8856307" lon="8.358586"><ele>138.5</ele><time>2026-04-18T08:39:08.019Z</time></trkpt><trkpt lat="44.8857236" lon="8.3589102"><ele>139.0</ele><time>2026-04-18T08:39:09.018Z</time></trkpt><trkpt lat="44.8858165" lon="8.3592389"><ele>139.0</ele><time>2026-04-18T08:39:10.018Z</time></trkpt><trkpt lat="44.8859082" lon="8.359565"><ele>139.0</ele><time>2026-04-18T08:39:11.019Z</time></trkpt><trkpt lat="44.8859953" lon="8.3598802"><ele>137.0</ele><time>2026-04-18T08:39:12.018Z</time></trkpt><trkpt lat="44.8860808" lon="8.3601838"><ele>135.0</ele><time>2026-04-18T08:39:13.018Z</time></trkpt><trkpt lat="44.8861625" lon="8.3604797"><ele>134.33333333333334</ele><time>2026-04-18T08:39:14.019Z</time></trkpt><trkpt lat="44.8862406" lon="8.3607616"><ele>133.66666666666669</ele><time>2026-04-18T08:39:15.019Z</time></trkpt><trkpt lat="44.8863159" lon="8.3610314"><ele>133.0</ele><time>2026-04-18T08:39:16.019Z</time></trkpt><trkpt lat="44.8863873" lon="8.361293"><ele>132.66666666666669</ele><time>2026-04-18T08:39:17.018Z</time></trkpt><trkpt lat="44.8864638" lon="8.3615575"><ele>132.33333333333334</ele><time>2026-04-18T08:39:18.019Z</time></trkpt><trkpt lat="44.8865449" lon="8.3618325"><ele>132.0</ele><time>2026-04-18T08:39:19.019Z</time></trkpt><trkpt lat="44.8866345" lon="8.3621195"><ele>132.0</ele><time>2026-04-18T08:39:20.019Z</time></trkpt><trkpt lat="44.8867233" lon="8.3624207"><ele>132.0</ele><time>2026-04-18T08:39:21.018Z</time></trkpt><trkpt lat="44.8868091" lon="8.3627283"><ele>131.5</ele><time>2026-04-18T08:39:22.019Z</time></trkpt><trkpt lat="44.8868899" lon="8.3630302"><ele>131.0</ele><time>2026-04-18T08:39:23.019Z</time></trkpt><trkpt lat="44.8869659" lon="8.3633255"><ele>131.0</ele><time>2026-04-18T08:39:24.018Z</time></trkpt><trkpt lat="44.8870401" lon="8.3636223"><ele>131.0</ele><time>2026-04-18T08:39:25.019Z</time></trkpt><trkpt lat="44.8871189" lon="8.3639213"><ele>131.0</ele><time>2026-04-18T08:39:26.018Z</time></trkpt><trkpt lat="44.8871989" lon="8.3642132"><ele>130.66666666666666</ele><time>2026-04-18T08:39:27.018Z</time></trkpt><trkpt lat="44.887278" lon="8.3645035"><ele>130.33333333333334</ele><time>2026-04-18T08:39:28.018Z</time></trkpt><trkpt lat="44.8873593" lon="8.3647917"><ele>130.0</ele><time>2026-04-18T08:39:29.018Z</time></trkpt><trkpt lat="44.8874409" lon="8.3650731"><ele>130.0</ele><time>2026-04-18T08:39:30.018Z</time></trkpt><trkpt lat="44.8875187" lon="8.3653508"><ele>130.0</ele><time>2026-04-18T08:39:31.019Z</time></trkpt><trkpt lat="44.8875952" lon="8.3656263"><ele>130.0</ele><time>2026-04-18T08:39:32.018Z</time></trkpt><trkpt lat="44.8876722" lon="8.3658978"><ele>130.0</ele><time>2026-04-18T08:39:33.018Z</time></trkpt><trkpt lat="44.88775" lon="8.366161"><ele>130.0</ele><time>2026-04-18T08:39:34.019Z</time></trkpt><trkpt lat="44.8878226" lon="8.3664214"><ele>130.0</ele><time>2026-04-18T08:39:35.019Z</time></trkpt><trkpt lat="44.8878937" lon="8.366684"><ele>129.66666666666669</ele><time>2026-04-18T08:39:36.018Z</time></trkpt><trkpt lat="44.8879662" lon="8.3669483"><ele>129.33333333333334</ele><time>2026-04-18T08:39:37.019Z</time></trkpt><trkpt lat="44.8880356" lon="8.3672113"><ele>129.0</ele><time>2026-04-18T08:39:38.019Z</time></trkpt><trkpt lat="44.8881077" lon="8.367473"><ele>129.0</ele><time>2026-04-18T08:39:39.018Z</time></trkpt><trkpt lat="44.8881815" lon="8.3677362"><ele>129.0</ele><time>2026-04-18T08:39:40.019Z</time></trkpt><trkpt lat="44.8882556" lon="8.367999"><ele>129.0</ele><time>2026-04-18T08:39:41.019Z</time></trkpt><trkpt lat="44.8883293" lon="8.3682661"><ele>129.0</ele><time>2026-04-18T08:39:42.019Z</time></trkpt><trkpt lat="44.8884046" lon="8.3685306"><ele>129.0</ele><time>2026-04-18T08:39:43.019Z</time></trkpt><trkpt lat="44.8884785" lon="8.3687989"><ele>129.0</ele><time>2026-04-18T08:39:44.019Z</time></trkpt><trkpt lat="44.8885515" lon="8.3690599"><ele>128.66666666666666</ele><time>2026-04-18T08:39:45.019Z</time></trkpt><trkpt lat="44.8886262" lon="8.3693252"><ele>128.33333333333331</ele><time>2026-04-18T08:39:46.018Z</time></trkpt><trkpt lat="44.8886979" lon="8.3695849"><ele>128.0</ele><time>2026-04-18T08:39:47.019Z</time></trkpt><trkpt lat="44.8887687" lon="8.3698453"><ele>127.66666666666666</ele><time>2026-04-18T08:39:48.018Z</time></trkpt><trkpt lat="44.8888347" lon="8.3701028"><ele>127.33333333333334</ele><time>2026-04-18T08:39:49.018Z</time></trkpt><trkpt lat="44.8889072" lon="8.3703578"><ele>127.0</ele><time>2026-04-18T08:39:50.018Z</time></trkpt><trkpt lat="44.8889753" lon="8.3706093"><ele>126.33333333333334</ele><time>2026-04-18T08:39:51.018Z</time></trkpt><trkpt lat="44.8890415" lon="8.3708602"><ele>125.66666666666666</ele><time>2026-04-18T08:39:52.019Z</time></trkpt><trkpt lat="44.8891077" lon="8.3711096"><ele>125.0</ele><time>2026-04-18T08:39:53.018Z</time></trkpt><trkpt lat="44.8891708" lon="8.3713566"><ele>124.0</ele><time>2026-04-18T08:39:54.018Z</time></trkpt><trkpt lat="44.8892318" lon="8.3715961"><ele>123.0</ele><time>2026-04-18T08:39:55.019Z</time></trkpt><trkpt lat="44.8892928" lon="8.3718316"><ele>122.0</ele><time>2026-04-18T08:39:56.019Z</time></trkpt><trkpt lat="44.8893503" lon="8.3720584"><ele>122.0</ele><time>2026-04-18T08:39:57.018Z</time></trkpt><trkpt lat="44.8894069" lon="8.3722832"><ele>122.0</ele><time>2026-04-18T08:39:58.018Z</time></trkpt><trkpt lat="44.8894621" lon="8.3725146"><ele>122.0</ele><time>2026-04-18T08:39:59.018Z</time></trkpt><trkpt lat="44.8895244" lon="8.3727483"><ele>122.0</ele><time>2026-04-18T08:40:00.019Z</time></trkpt><trkpt lat="44.8895855" lon="8.3729851"><ele>122.0</ele><time>2026-04-18T08:40:01.018Z</time></trkpt><trkpt lat="44.8896483" lon="8.3732212"><ele>122.0</ele><time>2026-04-18T08:40:02.019Z</time></trkpt><trkpt lat="44.8897097" lon="8.3734522"><ele>122.66666666666666</ele><time>2026-04-18T08:40:03.018Z</time></trkpt><trkpt lat="44.8897695" lon="8.3736895"><ele>123.33333333333334</ele><time>2026-04-18T08:40:04.019Z</time></trkpt><trkpt lat="44.8898307" lon="8.3739351"><ele>124.0</ele><time>2026-04-18T08:40:05.018Z</time></trkpt><trkpt lat="44.8898917" lon="8.3741758"><ele>125.0</ele><time>2026-04-18T08:40:06.019Z</time></trkpt><trkpt lat="44.8899542" lon="8.3744145"><ele>126.0</ele><time>2026-04-18T08:40:07.018Z</time></trkpt><trkpt lat="44.890012" lon="8.3746512"><ele>127.0</ele><time>2026-04-18T08:40:08.018Z</time></trkpt><trkpt lat="44.8900684" lon="8.3748747"><ele>127.0</ele><time>2026-04-18T08:40:09.019Z</time></trkpt><trkpt lat="44.8901245" lon="8.3750964"><ele>127.0</ele><time>2026-04-18T08:40:10.019Z</time></trkpt><trkpt lat="44.8901743" lon="8.3753032"><ele>127.0</ele><time>2026-04-18T08:40:11.019Z</time></trkpt><trkpt lat="44.8902233" lon="8.3754966"><ele>126.75</ele><time>2026-04-18T08:40:12.019Z</time></trkpt><trkpt lat="44.8902722" lon="8.3756806"><ele>126.5</ele><time>2026-04-18T08:40:13.019Z</time></trkpt><trkpt lat="44.8903165" lon="8.3758529"><ele>126.25</ele><time>2026-04-18T08:40:14.019Z</time></trkpt><trkpt lat="44.8903622" lon="8.3760252"><ele>126.0</ele><time>2026-04-18T08:40:15.018Z</time></trkpt><trkpt lat="44.8904072" lon="8.3762066"><ele>125.25</ele><time>2026-04-18T08:40:16.019Z</time></trkpt><trkpt lat="44.8904551" lon="8.3763983"><ele>124.5</ele><time>2026-04-18T08:40:17.018Z</time></trkpt><trkpt lat="44.8905041" lon="8.3765941"><ele>123.75</ele><time>2026-04-18T08:40:18.018Z</time></trkpt><trkpt lat="44.8905539" lon="8.3767919"><ele>123.0</ele><time>2026-04-18T08:40:19.018Z</time></trkpt><trkpt lat="44.8906075" lon="8.376998"><ele>123.0</ele><time>2026-04-18T08:40:20.019Z</time></trkpt><trkpt lat="44.8906651" lon="8.3772076"><ele>123.0</ele><time>2026-04-18T08:40:21.019Z</time></trkpt><trkpt lat="44.8907264" lon="8.37743"><ele>123.0</ele><time>2026-04-18T08:40:22.019Z</time></trkpt><trkpt lat="44.8907879" lon="8.3776678"><ele>123.0</ele><time>2026-04-18T08:40:23.018Z</time></trkpt><trkpt lat="44.8908506" lon="8.3779107"><ele>123.0</ele><time>2026-04-18T08:40:24.019Z</time></trkpt><trkpt lat="44.8909169" lon="8.3781679"><ele>123.0</ele><time>2026-04-18T08:40:25.019Z</time></trkpt><trkpt lat="44.8909847" lon="8.3784278"><ele>120.66666666666666</ele><time>2026-04-18T08:40:26.018Z</time></trkpt><trkpt lat="44.8910545" lon="8.3786923"><ele>118.33333333333333</ele><time>2026-04-18T08:40:27.018Z</time></trkpt><trkpt lat="44.8911261" lon="8.3789656"><ele>116.0</ele><time>2026-04-18T08:40:28.019Z</time></trkpt><trkpt lat="44.8911961" lon="8.3792349"><ele>115.0</ele><time>2026-04-18T08:40:29.019Z</time></trkpt><trkpt lat="44.8912682" lon="8.3794991"><ele>114.0</ele><time>2026-04-18T08:40:30.019Z</time></trkpt><trkpt lat="44.8913352" lon="8.3797537"><ele>113.0</ele><time>2026-04-18T08:40:31.019Z</time></trkpt><trkpt lat="44.8914001" lon="8.3800051"><ele>113.0</ele><time>2026-04-18T08:40:32.019Z</time></trkpt><trkpt lat="44.8914653" lon="8.3802552"><ele>113.0</ele><time>2026-04-18T08:40:33.019Z</time></trkpt><trkpt lat="44.8915359" lon="8.3805134"><ele>113.0</ele><time>2026-04-18T08:40:34.019Z</time></trkpt><trkpt lat="44.8916044" lon="8.3807701"><ele>113.0</ele><time>2026-04-18T08:40:35.018Z</time></trkpt><trkpt lat="44.8916714" lon="8.381025"><ele>113.0</ele><time>2026-04-18T08:40:36.018Z</time></trkpt><trkpt lat="44.8917359" lon="8.3812765"><ele>113.0</ele><time>2026-04-18T08:40:37.018Z</time></trkpt><trkpt lat="44.8917989" lon="8.381517"><ele>112.66666666666666</ele><time>2026-04-18T08:40:38.019Z</time></trkpt><trkpt lat="44.8918612" lon="8.3817524"><ele>112.33333333333334</ele><time>2026-04-18T08:40:39.018Z</time></trkpt><trkpt lat="44.8919195" lon="8.3819823"><ele>112.0</ele><time>2026-04-18T08:40:40.018Z</time></trkpt><trkpt lat="44.8919772" lon="8.3822147"><ele>111.66666666666667</ele><time>2026-04-18T08:40:41.019Z</time></trkpt><trkpt lat="44.8920337" lon="8.3824427"><ele>111.33333333333334</ele><time>2026-04-18T08:40:42.018Z</time></trkpt><trkpt lat="44.8920996" lon="8.3826791"><ele>111.0</ele><time>2026-04-18T08:40:43.019Z</time></trkpt><trkpt lat="44.8921698" lon="8.3829416"><ele>111.0</ele><time>2026-04-18T08:40:44.018Z</time></trkpt><trkpt lat="44.8922416" lon="8.3832139"><ele>111.0</ele><time>2026-04-18T08:40:45.018Z</time></trkpt><trkpt lat="44.8923159" lon="8.3835041"><ele>111.0</ele><time>2026-04-18T08:40:46.019Z</time></trkpt><trkpt lat="44.8923911" lon="8.3838094"><ele>111.5</ele><time>2026-04-18T08:40:47.019Z</time></trkpt><trkpt lat="44.8924681" lon="8.3841161"><ele>112.0</ele><time>2026-04-18T08:40:48.019Z</time></trkpt><trkpt lat="44.8925424" lon="8.3844175"><ele>111.66666666666667</ele><time>2026-04-18T08:40:49.019Z</time></trkpt><trkpt lat="44.8926193" lon="8.3847158"><ele>111.33333333333334</ele><time>2026-04-18T08:40:50.018Z</time></trkpt><trkpt lat="44.892693" lon="8.385015"><ele>111.0</ele><time>2026-04-18T08:40:51.018Z</time></trkpt><trkpt lat="44.8927696" lon="8.3853135"><ele>111.5</ele><time>2026-04-18T08:40:52.019Z</time></trkpt><trkpt lat="44.892845" lon="8.3856156"><ele>112.0</ele><time>2026-04-18T08:40:53.018Z</time></trkpt><trkpt lat="44.8929237" lon="8.3859224"><ele>112.0</ele><time>2026-04-18T08:40:54.018Z</time></trkpt><trkpt lat="44.8930012" lon="8.3862298"><ele>112.0</ele><time>2026-04-18T08:40:55.019Z</time></trkpt><trkpt lat="44.8930778" lon="8.3865325"><ele>112.0</ele><time>2026-04-18T08:40:56.019Z</time></trkpt><trkpt lat="44.8931551" lon="8.3868241"><ele>112.0</ele><time>2026-04-18T08:40:57.019Z</time></trkpt><trkpt lat="44.893229" lon="8.3871138"><ele>112.0</ele><time>2026-04-18T08:40:58.019Z</time></trkpt><trkpt lat="44.8933003" lon="8.3873933"><ele>112.0</ele><time>2026-04-18T08:40:59.019Z</time></trkpt><trkpt lat="44.893372" lon="8.3876714"><ele>112.0</ele><time>2026-04-18T08:41:00.019Z</time></trkpt><trkpt lat="44.8934451" lon="8.3879569"><ele>112.0</ele><time>2026-04-18T08:41:01.018Z</time></trkpt><trkpt lat="44.8935202" lon="8.3882442"><ele>112.0</ele><time>2026-04-18T08:41:02.018Z</time></trkpt><trkpt lat="44.8935972" lon="8.3885447"><ele>112.0</ele><time>2026-04-18T08:41:03.019Z</time></trkpt><trkpt lat="44.8936753" lon="8.3888457"><ele>112.0</ele><time>2026-04-18T08:41:04.018Z</time></trkpt><trkpt lat="44.8937525" lon="8.3891474"><ele>112.0</ele><time>2026-04-18T08:41:05.019Z</time></trkpt><trkpt lat="44.8938283" lon="8.3894502"><ele>112.5</ele><time>2026-04-18T08:41:06.019Z</time></trkpt><trkpt lat="44.8939076" lon="8.3897523"><ele>113.0</ele><time>2026-04-18T08:41:07.018Z</time></trkpt><trkpt lat="44.8939878" lon="8.3900512"><ele>113.0</ele><time>2026-04-18T08:41:08.018Z</time></trkpt><trkpt lat="44.8940685" lon="8.3903475"><ele>113.0</ele><time>2026-04-18T08:41:09.019Z</time></trkpt><trkpt lat="44.8941418" lon="8.3906593"><ele>113.0</ele><time>2026-04-18T08:41:10.019Z</time></trkpt><trkpt lat="44.8942175" lon="8.3909634"><ele>113.0</ele><time>2026-04-18T08:41:11.019Z</time></trkpt><trkpt lat="44.8942968" lon="8.3912686"><ele>114.0</ele><time>2026-04-18T08:41:12.019Z</time></trkpt><trkpt lat="44.8943771" lon="8.3915749"><ele>115.0</ele><time>2026-04-18T08:41:13.019Z</time></trkpt><trkpt lat="44.8944585" lon="8.3918843"><ele>116.0</ele><time>2026-04-18T08:41:14.019Z</time></trkpt><trkpt lat="44.8945361" lon="8.3921912"><ele>117.0</ele><time>2026-04-18T08:41:15.019Z</time></trkpt><trkpt lat="44.8946157" lon="8.3924899"><ele>117.0</ele><time>2026-04-18T08:41:16.019Z</time></trkpt><trkpt lat="44.8946937" lon="8.3927839"><ele>117.0</ele><time>2026-04-18T08:41:17.018Z</time></trkpt><trkpt lat="44.8947668" lon="8.3930751"><ele>117.0</ele><time>2026-04-18T08:41:18.019Z</time></trkpt><trkpt lat="44.8948399" lon="8.393355"><ele>117.33333333333334</ele><time>2026-04-18T08:41:19.019Z</time></trkpt><trkpt lat="44.8949107" lon="8.3936263"><ele>117.66666666666667</ele><time>2026-04-18T08:41:20.018Z</time></trkpt><trkpt lat="44.8949792" lon="8.3938887"><ele>118.0</ele><time>2026-04-18T08:41:21.018Z</time></trkpt><trkpt lat="44.8950441" lon="8.3941373"><ele>118.0</ele><time>2026-04-18T08:41:22.019Z</time></trkpt><trkpt lat="44.8951081" lon="8.3943935"><ele>118.0</ele><time>2026-04-18T08:41:23.018Z</time></trkpt><trkpt lat="44.8951751" lon="8.3946595"><ele>118.0</ele><time>2026-04-18T08:41:24.018Z</time></trkpt><trkpt lat="44.8952457" lon="8.3949313"><ele>118.33333333333334</ele><time>2026-04-18T08:41:25.018Z</time></trkpt><trkpt lat="44.8953171" lon="8.3952056"><ele>118.66666666666666</ele><time>2026-04-18T08:41:26.018Z</time></trkpt><trkpt lat="44.8953914" lon="8.3954888"><ele>119.0</ele><time>2026-04-18T08:41:27.019Z</time></trkpt><trkpt lat="44.8954617" lon="8.3957593"><ele>119.33333333333333</ele><time>2026-04-18T08:41:28.018Z</time></trkpt><trkpt lat="44.8955292" lon="8.3960236"><ele>119.66666666666666</ele><time>2026-04-18T08:41:29.018Z</time></trkpt><trkpt lat="44.8955947" lon="8.3962755"><ele>120.0</ele><time>2026-04-18T08:41:30.018Z</time></trkpt><trkpt lat="44.8956566" lon="8.3965172"><ele>119.66666666666666</ele><time>2026-04-18T08:41:31.019Z</time></trkpt><trkpt lat="44.8957174" lon="8.3967468"><ele>119.33333333333333</ele><time>2026-04-18T08:41:32.018Z</time></trkpt><trkpt lat="44.8957761" lon="8.39697"><ele>119.0</ele><time>2026-04-18T08:41:33.019Z</time></trkpt><trkpt lat="44.8958332" lon="8.3971833"><ele>119.0</ele><time>2026-04-18T08:41:34.018Z</time></trkpt><trkpt lat="44.8958855" lon="8.397388"><ele>119.0</ele><time>2026-04-18T08:41:35.019Z</time></trkpt><trkpt lat="44.8959402" lon="8.3975872"><ele>119.0</ele><time>2026-04-18T08:41:36.019Z</time></trkpt><trkpt lat="44.8959876" lon="8.397778"><ele>119.0</ele><time>2026-04-18T08:41:37.019Z</time></trkpt><trkpt lat="44.8960339" lon="8.3979647"><ele>118.0</ele><time>2026-04-18T08:41:38.018Z</time></trkpt><trkpt lat="44.8960804" lon="8.3981475"><ele>117.0</ele><time>2026-04-18T08:41:39.018Z</time></trkpt><trkpt lat="44.8961259" lon="8.3983215"><ele>116.0</ele><time>2026-04-18T08:41:40.019Z</time></trkpt><trkpt lat="44.8961723" lon="8.3984936"><ele>115.0</ele><time>2026-04-18T08:41:41.018Z</time></trkpt><trkpt lat="44.8962166" lon="8.3986603"><ele>115.0</ele><time>2026-04-18T08:41:42.018Z</time></trkpt><trkpt lat="44.8962594" lon="8.3988265"><ele>115.0</ele><time>2026-04-18T08:41:43.019Z</time></trkpt><trkpt lat="44.8963018" lon="8.3989865"><ele>115.0</ele><time>2026-04-18T08:41:44.019Z</time></trkpt><trkpt lat="44.8963399" lon="8.3991445"><ele>115.0</ele><time>2026-04-18T08:41:45.019Z</time></trkpt><trkpt lat="44.896381" lon="8.3993006"><ele>114.8</ele><time>2026-04-18T08:41:46.019Z</time></trkpt><trkpt lat="44.8964186" lon="8.3994523"><ele>114.6</ele><time>2026-04-18T08:41:47.018Z</time></trkpt><trkpt lat="44.8964586" lon="8.3996047"><ele>114.4</ele><time>2026-04-18T08:41:48.018Z</time></trkpt><trkpt lat="44.8964972" lon="8.3997534"><ele>114.2</ele><time>2026-04-18T08:41:49.018Z</time></trkpt><trkpt lat="44.8965336" lon="8.3998972"><ele>114.0</ele><time>2026-04-18T08:41:50.018Z</time></trkpt><trkpt lat="44.8965735" lon="8.4000398"><ele>113.75</ele><time>2026-04-18T08:41:51.019Z</time></trkpt><trkpt lat="44.8966132" lon="8.400185"><ele>113.5</ele><time>2026-04-18T08:41:52.018Z</time></trkpt><trkpt lat="44.8966526" lon="8.4003292"><ele>113.25</ele><time>2026-04-18T08:41:53.019Z</time></trkpt><trkpt lat="44.8966872" lon="8.4004816"><ele>113.0</ele><time>2026-04-18T08:41:54.019Z</time></trkpt><trkpt lat="44.8967195" lon="8.4006406"><ele>114.75</ele><time>2026-04-18T08:41:55.018Z</time></trkpt><trkpt lat="44.8967586" lon="8.4008043"><ele>116.5</ele><time>2026-04-18T08:41:56.019Z</time></trkpt><trkpt lat="44.8968024" lon="8.4009691"><ele>118.25</ele><time>2026-04-18T08:41:57.019Z</time></trkpt><trkpt lat="44.8968477" lon="8.4011368"><ele>120.0</ele><time>2026-04-18T08:41:58.018Z</time></trkpt><trkpt lat="44.8968911" lon="8.4013014"><ele>120.25</ele><time>2026-04-18T08:41:59.019Z</time></trkpt><trkpt lat="44.8969305" lon="8.4014597"><ele>120.5</ele><time>2026-04-18T08:42:00.019Z</time></trkpt><trkpt lat="44.8969702" lon="8.4016174"><ele>120.75</ele><time>2026-04-18T08:42:01.019Z</time></trkpt><trkpt lat="44.8970098" lon="8.4017665"><ele>121.0</ele><time>2026-04-18T08:42:02.018Z</time></trkpt><trkpt lat="44.8970512" lon="8.4019154"><ele>121.0</ele><time>2026-04-18T08:42:03.018Z</time></trkpt><trkpt lat="44.8970936" lon="8.4020703"><ele>121.0</ele><time>2026-04-18T08:42:04.019Z</time></trkpt><trkpt lat="44.8971317" lon="8.4022241"><ele>121.0</ele><time>2026-04-18T08:42:05.019Z</time></trkpt><trkpt lat="44.8971749" lon="8.402381"><ele>121.0</ele><time>2026-04-18T08:42:06.019Z</time></trkpt><trkpt lat="44.8972178" lon="8.4025436"><ele>120.75</ele><time>2026-04-18T08:42:07.019Z</time></trkpt><trkpt lat="44.8972579" lon="8.4026986"><ele>120.5</ele><time>2026-04-18T08:42:08.019Z</time></trkpt><trkpt lat="44.8972976" lon="8.4028497"><ele>120.25</ele><time>2026-04-18T08:42:09.019Z</time></trkpt><trkpt lat="44.8973357" lon="8.4029968"><ele>120.0</ele><time>2026-04-18T08:42:10.018Z</time></trkpt><trkpt lat="44.8973727" lon="8.4031441"><ele>120.0</ele><time>2026-04-18T08:42:11.019Z</time></trkpt><trkpt lat="44.8974089" lon="8.4032805"><ele>120.0</ele><time>2026-04-18T08:42:12.018Z</time></trkpt><trkpt lat="44.8974432" lon="8.4034161"><ele>120.0</ele><time>2026-04-18T08:42:13.019Z</time></trkpt><trkpt lat="44.8974806" lon="8.4035558"><ele>120.0</ele><time>2026-04-18T08:42:14.019Z</time></trkpt><trkpt lat="44.8975168" lon="8.4036985"><ele>120.0</ele><time>2026-04-18T08:42:15.018Z</time></trkpt><trkpt lat="44.8975541" lon="8.4038386"><ele>121.0</ele><time>2026-04-18T08:42:16.019Z</time></trkpt><trkpt lat="44.8975867" lon="8.4039734"><ele>122.0</ele><time>2026-04-18T08:42:17.018Z</time></trkpt><trkpt lat="44.8976193" lon="8.4041031"><ele>123.0</ele><time>2026-04-18T08:42:18.019Z</time></trkpt><trkpt lat="44.8976533" lon="8.4042325"><ele>124.0</ele><time>2026-04-18T08:42:19.018Z</time></trkpt><trkpt lat="44.8976836" lon="8.4043535"><ele>125.0</ele><time>2026-04-18T08:42:20.018Z</time></trkpt><trkpt lat="44.8977127" lon="8.4044723"><ele>124.99999999999999</ele><time>2026-04-18T08:42:21.019Z</time></trkpt><trkpt lat="44.8977459" lon="8.4045891"><ele>125.0</ele><time>2026-04-18T08:42:22.019Z</time></trkpt><trkpt lat="44.8977788" lon="8.4047019"><ele>125.0</ele><time>2026-04-18T08:42:23.019Z</time></trkpt><trkpt lat="44.8978052" lon="8.4048069"><ele>125.0</ele><time>2026-04-18T08:42:24.019Z</time></trkpt><trkpt lat="44.8978342" lon="8.4049063"><ele>124.99999999999999</ele><time>2026-04-18T08:42:25.018Z</time></trkpt><trkpt lat="44.8978589" lon="8.4050004"><ele>125.0</ele><time>2026-04-18T08:42:26.019Z</time></trkpt><trkpt lat="44.8978784" lon="8.4050867"><ele>124.66666666666666</ele><time>2026-04-18T08:42:27.018Z</time></trkpt><trkpt lat="44.8979076" lon="8.4052206"><ele>124.33333333333333</ele><time>2026-04-18T08:42:29.019Z</time></trkpt><trkpt lat="44.8979401" lon="8.4053282"><ele>124.0</ele><time>2026-04-18T08:42:31.019Z</time></trkpt><trkpt lat="44.897965" lon="8.4054193"><ele>123.66666666666666</ele><time>2026-04-18T08:42:33.019Z</time></trkpt><trkpt lat="44.8979943" lon="8.4055065"><ele>123.33333333333333</ele><time>2026-04-18T08:42:36.018Z</time></trkpt><trkpt lat="44.8980357" lon="8.4056708"><ele>123.0</ele><time>2026-04-18T08:42:42.019Z</time></trkpt><trkpt lat="44.8980582" lon="8.4057589"><ele>122.83333333333333</ele><time>2026-04-18T08:42:43.018Z</time></trkpt><trkpt lat="44.8980922" lon="8.4058603"><ele>122.66666666666666</ele><time>2026-04-18T08:42:44.019Z</time></trkpt><trkpt lat="44.8981259" lon="8.4059648"><ele>122.5</ele><time>2026-04-18T08:42:45.019Z</time></trkpt><trkpt lat="44.898164" lon="8.4060761"><ele>122.33333333333333</ele><time>2026-04-18T08:42:46.019Z</time></trkpt><trkpt lat="44.8982012" lon="8.4061998"><ele>122.16666666666666</ele><time>2026-04-18T08:42:47.019Z</time></trkpt><trkpt lat="44.8982349" lon="8.406336"><ele>122.0</ele><time>2026-04-18T08:42:48.018Z</time></trkpt><trkpt lat="44.8982676" lon="8.4064775"><ele>121.6</ele><time>2026-04-18T08:42:49.019Z</time></trkpt><trkpt lat="44.8982919" lon="8.4066244"><ele>121.19999999999999</ele><time>2026-04-18T08:42:50.019Z</time></trkpt><trkpt lat="44.8982992" lon="8.4067776"><ele>120.8</ele><time>2026-04-18T08:42:51.018Z</time></trkpt><trkpt lat="44.8982954" lon="8.4069194"><ele>120.4</ele><time>2026-04-18T08:42:52.018Z</time></trkpt><trkpt lat="44.8982776" lon="8.4070535"><ele>120.0</ele><time>2026-04-18T08:42:53.018Z</time></trkpt><trkpt lat="44.8982592" lon="8.4071884"><ele>119.2</ele><time>2026-04-18T08:42:54.019Z</time></trkpt><trkpt lat="44.8982625" lon="8.4073144"><ele>118.4</ele><time>2026-04-18T08:42:55.019Z</time></trkpt><trkpt lat="44.8982724" lon="8.4074501"><ele>117.6</ele><time>2026-04-18T08:42:56.019Z</time></trkpt><trkpt lat="44.8982972" lon="8.4075974"><ele>116.8</ele><time>2026-04-18T08:42:57.019Z</time></trkpt><trkpt lat="44.8983232" lon="8.4077544"><ele>116.0</ele><time>2026-04-18T08:42:58.019Z</time></trkpt><trkpt lat="44.8983531" lon="8.4079184"><ele>115.5</ele><time>2026-04-18T08:42:59.018Z</time></trkpt><trkpt lat="44.8983881" lon="8.4080787"><ele>115.0</ele><time>2026-04-18T08:43:00.018Z</time></trkpt><trkpt lat="44.8984149" lon="8.4082379"><ele>114.5</ele><time>2026-04-18T08:43:01.019Z</time></trkpt><trkpt lat="44.8984261" lon="8.4083964"><ele>114.0</ele><time>2026-04-18T08:43:02.018Z</time></trkpt><trkpt lat="44.8984251" lon="8.4085534"><ele>114.0</ele><time>2026-04-18T08:43:03.018Z</time></trkpt><trkpt lat="44.8984165" lon="8.4087021"><ele>114.0</ele><time>2026-04-18T08:43:04.018Z</time></trkpt><trkpt lat="44.8984059" lon="8.4088558"><ele>114.0</ele><time>2026-04-18T08:43:05.019Z</time></trkpt><trkpt lat="44.8984017" lon="8.4090084"><ele>114.0</ele><time>2026-04-18T08:43:06.018Z</time></trkpt><trkpt lat="44.8984087" lon="8.4091696"><ele>114.0</ele><time>2026-04-18T08:43:07.019Z</time></trkpt><trkpt lat="44.8984223" lon="8.4093429"><ele>113.75</ele><time>2026-04-18T08:43:08.019Z</time></trkpt><trkpt lat="44.8984401" lon="8.4095145"><ele>113.5</ele><time>2026-04-18T08:43:09.018Z</time></trkpt><trkpt lat="44.8984604" lon="8.4096943"><ele>113.25</ele><time>2026-04-18T08:43:10.018Z</time></trkpt><trkpt lat="44.8984804" lon="8.4098768"><ele>113.0</ele><time>2026-04-18T08:43:11.018Z</time></trkpt><trkpt lat="44.8984967" lon="8.410056"><ele>113.0</ele><time>2026-04-18T08:43:12.018Z</time></trkpt><trkpt lat="44.8985133" lon="8.4102394"><ele>113.0</ele><time>2026-04-18T08:43:13.019Z</time></trkpt><trkpt lat="44.8985316" lon="8.4104282"><ele>113.0</ele><time>2026-04-18T08:43:14.018Z</time></trkpt><trkpt lat="44.8985509" lon="8.4106185"><ele>113.0</ele><time>2026-04-18T08:43:15.019Z</time></trkpt><trkpt lat="44.8985719" lon="8.4108137"><ele>113.5</ele><time>2026-04-18T08:43:16.019Z</time></trkpt><trkpt lat="44.8985939" lon="8.4110073"><ele>114.0</ele><time>2026-04-18T08:43:17.019Z</time></trkpt><trkpt lat="44.8986151" lon="8.4112034"><ele>114.5</ele><time>2026-04-18T08:43:18.018Z</time></trkpt><trkpt lat="44.8986328" lon="8.4113952"><ele>115.0</ele><time>2026-04-18T08:43:19.019Z</time></trkpt><trkpt lat="44.8986506" lon="8.4115894"><ele>115.0</ele><time>2026-04-18T08:43:20.019Z</time></trkpt><trkpt lat="44.8986715" lon="8.4117737"><ele>115.0</ele><time>2026-04-18T08:43:21.019Z</time></trkpt><trkpt lat="44.8986909" lon="8.4119439"><ele>115.0</ele><time>2026-04-18T08:43:22.019Z</time></trkpt><trkpt lat="44.8987099" lon="8.4121069"><ele>115.0</ele><time>2026-04-18T08:43:23.018Z</time></trkpt><trkpt lat="44.8987275" lon="8.4122658"><ele>115.2</ele><time>2026-04-18T08:43:24.019Z</time></trkpt><trkpt lat="44.8987405" lon="8.412411"><ele>115.4</ele><time>2026-04-18T08:43:25.019Z</time></trkpt><trkpt lat="44.8987556" lon="8.4125477"><ele>115.6</ele><time>2026-04-18T08:43:26.019Z</time></trkpt><trkpt lat="44.8987697" lon="8.4126775"><ele>115.8</ele><time>2026-04-18T08:43:27.019Z</time></trkpt><trkpt lat="44.8987837" lon="8.4128067"><ele>116.0</ele><time>2026-04-18T08:43:28.019Z</time></trkpt><trkpt lat="44.8987993" lon="8.412941"><ele>116.19999999999999</ele><time>2026-04-18T08:43:29.019Z</time></trkpt><trkpt lat="44.8988153" lon="8.4130819"><ele>116.39999999999999</ele><time>2026-04-18T08:43:30.018Z</time></trkpt><trkpt lat="44.8988311" lon="8.4132297"><ele>116.6</ele><time>2026-04-18T08:43:31.019Z</time></trkpt><trkpt lat="44.8988479" lon="8.4133848"><ele>116.8</ele><time>2026-04-18T08:43:32.018Z</time></trkpt><trkpt lat="44.8988644" lon="8.4135409"><ele>117.0</ele><time>2026-04-18T08:43:33.018Z</time></trkpt><trkpt lat="44.8988819" lon="8.4137008"><ele>117.25</ele><time>2026-04-18T08:43:34.019Z</time></trkpt><trkpt lat="44.8988989" lon="8.4138596"><ele>117.5</ele><time>2026-04-18T08:43:35.018Z</time></trkpt><trkpt lat="44.8989159" lon="8.4140181"><ele>117.75</ele><time>2026-04-18T08:43:36.019Z</time></trkpt><trkpt lat="44.8989343" lon="8.4141783"><ele>118.0</ele><time>2026-04-18T08:43:37.019Z</time></trkpt><trkpt lat="44.8989558" lon="8.4143414"><ele>118.0</ele><time>2026-04-18T08:43:38.019Z</time></trkpt><trkpt lat="44.8989756" lon="8.4145066"><ele>118.0</ele><time>2026-04-18T08:43:39.018Z</time></trkpt><trkpt lat="44.898991" lon="8.4146796"><ele>118.0</ele><time>2026-04-18T08:43:40.018Z</time></trkpt><trkpt lat="44.8990116" lon="8.4148546"><ele>118.0</ele><time>2026-04-18T08:43:41.018Z</time></trkpt><trkpt lat="44.8990306" lon="8.415036"><ele>117.5</ele><time>2026-04-18T08:43:42.019Z</time></trkpt><trkpt lat="44.8990526" lon="8.415213"><ele>117.0</ele><time>2026-04-18T08:43:43.018Z</time></trkpt><trkpt lat="44.89907" lon="8.4153934"><ele>116.5</ele><time>2026-04-18T08:43:44.018Z</time></trkpt><trkpt lat="44.8990881" lon="8.4155816"><ele>116.0</ele><time>2026-04-18T08:43:45.019Z</time></trkpt><trkpt lat="44.8991095" lon="8.4157784"><ele>116.0</ele><time>2026-04-18T08:43:46.019Z</time></trkpt><trkpt lat="44.8991306" lon="8.4159815"><ele>116.0</ele><time>2026-04-18T08:43:47.019Z</time></trkpt><trkpt lat="44.8991506" lon="8.4161911"><ele>116.0</ele><time>2026-04-18T08:43:48.019Z</time></trkpt><trkpt lat="44.89917" lon="8.4164056"><ele>116.0</ele><time>2026-04-18T08:43:49.019Z</time></trkpt><trkpt lat="44.8991938" lon="8.4166261"><ele>116.0</ele><time>2026-04-18T08:43:50.019Z</time></trkpt><trkpt lat="44.8992132" lon="8.4168543"><ele>116.0</ele><time>2026-04-18T08:43:51.019Z</time></trkpt><trkpt lat="44.8992367" lon="8.4170845"><ele>116.0</ele><time>2026-04-18T08:43:52.019Z</time></trkpt><trkpt lat="44.8992607" lon="8.4173211"><ele>116.66666666666666</ele><time>2026-04-18T08:43:53.019Z</time></trkpt><trkpt lat="44.8992822" lon="8.4175607"><ele>117.33333333333334</ele><time>2026-04-18T08:43:54.019Z</time></trkpt><trkpt lat="44.8993076" lon="8.4177893"><ele>118.0</ele><time>2026-04-18T08:43:55.019Z</time></trkpt><trkpt lat="44.899333" lon="8.4180142"><ele>118.0</ele><time>2026-04-18T08:43:56.018Z</time></trkpt><trkpt lat="44.8993571" lon="8.4182417"><ele>118.0</ele><time>2026-04-18T08:43:57.018Z</time></trkpt><trkpt lat="44.8993799" lon="8.4184712"><ele>118.0</ele><time>2026-04-18T08:43:58.019Z</time></trkpt><trkpt lat="44.8994062" lon="8.4187082"><ele>117.66666666666667</ele><time>2026-04-18T08:43:59.019Z</time></trkpt><trkpt lat="44.8994328" lon="8.4189523"><ele>117.33333333333334</ele><time>2026-04-18T08:44:00.018Z</time></trkpt><trkpt lat="44.8994596" lon="8.4192007"><ele>117.0</ele><time>2026-04-18T08:44:01.019Z</time></trkpt><trkpt lat="44.8994868" lon="8.4194592"><ele>117.0</ele><time>2026-04-18T08:44:02.018Z</time></trkpt><trkpt lat="44.8995159" lon="8.4197277"><ele>117.0</ele><time>2026-04-18T08:44:03.019Z</time></trkpt><trkpt lat="44.8995408" lon="8.4199945"><ele>117.0</ele><time>2026-04-18T08:44:04.019Z</time></trkpt><trkpt lat="44.8995674" lon="8.4202685"><ele>116.66666666666666</ele><time>2026-04-18T08:44:05.019Z</time></trkpt><trkpt lat="44.8995973" lon="8.4205489"><ele>116.33333333333333</ele><time>2026-04-18T08:44:06.019Z</time></trkpt><trkpt lat="44.8996274" lon="8.4208303"><ele>116.0</ele><time>2026-04-18T08:44:07.019Z</time></trkpt><trkpt lat="44.8996582" lon="8.4211145"><ele>116.0</ele><time>2026-04-18T08:44:08.019Z</time></trkpt><trkpt lat="44.8996845" lon="8.4213962"><ele>116.0</ele><time>2026-04-18T08:44:09.019Z</time></trkpt><trkpt lat="44.899713" lon="8.4216727"><ele>116.0</ele><time>2026-04-18T08:44:10.019Z</time></trkpt><trkpt lat="44.8997421" lon="8.4219462"><ele>116.0</ele><time>2026-04-18T08:44:11.019Z</time></trkpt><trkpt lat="44.8997705" lon="8.4222173"><ele>116.0</ele><time>2026-04-18T08:44:12.019Z</time></trkpt><trkpt lat="44.8997972" lon="8.4224881"><ele>116.0</ele><time>2026-04-18T08:44:13.019Z</time></trkpt><trkpt lat="44.8998235" lon="8.4227624"><ele>116.33333333333333</ele><time>2026-04-18T08:44:14.018Z</time></trkpt><trkpt lat="44.8998511" lon="8.4230428"><ele>116.66666666666666</ele><time>2026-04-18T08:44:15.019Z</time></trkpt><trkpt lat="44.8998826" lon="8.4233299"><ele>117.0</ele><time>2026-04-18T08:44:16.019Z</time></trkpt><trkpt lat="44.8999161" lon="8.4236189"><ele>117.0</ele><time>2026-04-18T08:44:17.018Z</time></trkpt><trkpt lat="44.8999478" lon="8.4239098"><ele>117.0</ele><time>2026-04-18T08:44:18.018Z</time></trkpt><trkpt lat="44.8999793" lon="8.4241951"><ele>117.0</ele><time>2026-04-18T08:44:19.019Z</time></trkpt><trkpt lat="44.9000073" lon="8.4244795"><ele>116.66666666666666</ele><time>2026-04-18T08:44:20.019Z</time></trkpt><trkpt lat="44.9000367" lon="8.4247621"><ele>116.33333333333333</ele><time>2026-04-18T08:44:21.019Z</time></trkpt><trkpt lat="44.9000638" lon="8.4250479"><ele>116.0</ele><time>2026-04-18T08:44:22.019Z</time></trkpt><trkpt lat="44.900089" lon="8.4253371"><ele>116.33333333333333</ele><time>2026-04-18T08:44:23.019Z</time></trkpt><trkpt lat="44.9001159" lon="8.42562"><ele>116.66666666666666</ele><time>2026-04-18T08:44:24.019Z</time></trkpt><trkpt lat="44.9001428" lon="8.4258982"><ele>117.0</ele><time>2026-04-18T08:44:25.019Z</time></trkpt><trkpt lat="44.9001671" lon="8.4261758"><ele>117.0</ele><time>2026-04-18T08:44:26.019Z</time></trkpt><trkpt lat="44.9001919" lon="8.4264519"><ele>117.0</ele><time>2026-04-18T08:44:27.018Z</time></trkpt><trkpt lat="44.9002185" lon="8.4267156"><ele>117.0</ele><time>2026-04-18T08:44:28.018Z</time></trkpt><trkpt lat="44.9002393" lon="8.4269691"><ele>117.0</ele><time>2026-04-18T08:44:29.019Z</time></trkpt><trkpt lat="44.9002611" lon="8.4272169"><ele>117.0</ele><time>2026-04-18T08:44:30.018Z</time></trkpt><trkpt lat="44.9002815" lon="8.4274512"><ele>117.0</ele><time>2026-04-18T08:44:31.019Z</time></trkpt><trkpt lat="44.9003055" lon="8.4276791"><ele>117.0</ele><time>2026-04-18T08:44:32.019Z</time></trkpt><trkpt lat="44.900325" lon="8.4278971"><ele>117.0</ele><time>2026-04-18T08:44:33.018Z</time></trkpt><trkpt lat="44.9003445" lon="8.4281075"><ele>117.0</ele><time>2026-04-18T08:44:34.018Z</time></trkpt><trkpt lat="44.900363" lon="8.428305"><ele>117.0</ele><time>2026-04-18T08:44:35.018Z</time></trkpt><trkpt lat="44.9003813" lon="8.4284813"><ele>117.0</ele><time>2026-04-18T08:44:36.019Z</time></trkpt><trkpt lat="44.9003968" lon="8.428648"><ele>116.99999999999999</ele><time>2026-04-18T08:44:37.018Z</time></trkpt><trkpt lat="44.9004085" lon="8.4287719"><ele>116.99999999999999</ele><time>2026-04-18T08:44:38.018Z</time></trkpt><trkpt lat="44.9004163" lon="8.4288757"><ele>117.0</ele><time>2026-04-18T08:44:39.019Z</time></trkpt><trkpt lat="44.9003795" lon="8.4290249"><ele>117.0</ele><time>2026-04-18T08:44:41.019Z</time></trkpt><trkpt lat="44.9002746" lon="8.4291443"><ele>117.0</ele><time>2026-04-18T08:44:43.019Z</time></trkpt><trkpt lat="44.9002002" lon="8.4292098"><ele>116.99999999999999</ele><time>2026-04-18T08:44:44.018Z</time></trkpt><trkpt lat="44.9001107" lon="8.4292763"><ele>116.99999999999999</ele><time>2026-04-18T08:44:45.018Z</time></trkpt><trkpt lat="44.9000089" lon="8.4293511"><ele>117.0</ele><time>2026-04-18T08:44:46.018Z</time></trkpt><trkpt lat="44.8998993" lon="8.4294406"><ele>117.0</ele><time>2026-04-18T08:44:47.018Z</time></trkpt><trkpt lat="44.8997912" lon="8.4295315"><ele>117.0</ele><time>2026-04-18T08:44:48.018Z</time></trkpt><trkpt lat="44.8996892" lon="8.4296207"><ele>116.99999999999999</ele><time>2026-04-18T08:44:49.019Z</time></trkpt><trkpt lat="44.8995929" lon="8.4297052"><ele>116.99999999999999</ele><time>2026-04-18T08:44:50.019Z</time></trkpt><trkpt lat="44.8995067" lon="8.4297823"><ele>117.0</ele><time>2026-04-18T08:44:51.018Z</time></trkpt><trkpt lat="44.8994288" lon="8.429853"><ele>117.0</ele><time>2026-04-18T08:44:52.019Z</time></trkpt><trkpt lat="44.8993562" lon="8.4299146"><ele>117.0</ele><time>2026-04-18T08:44:53.019Z</time></trkpt><trkpt lat="44.8992857" lon="8.4299645"><ele>117.00000000000001</ele><time>2026-04-18T08:44:54.018Z</time></trkpt><trkpt lat="44.8992154" lon="8.4299908"><ele>117.0</ele><time>2026-04-18T08:44:55.019Z</time></trkpt><trkpt lat="44.8991439" lon="8.4299938"><ele>117.0</ele><time>2026-04-18T08:44:56.018Z</time></trkpt><trkpt lat="44.8990732" lon="8.4299875"><ele>117.00000000000001</ele><time>2026-04-18T08:44:57.019Z</time></trkpt><trkpt lat="44.8990057" lon="8.4299714"><ele>117.0</ele><time>2026-04-18T08:44:58.018Z</time></trkpt><trkpt lat="44.8989313" lon="8.4299536"><ele>117.0</ele><time>2026-04-18T08:45:01.019Z</time></trkpt><trkpt lat="44.8988556" lon="8.4299275"><ele>116.83333333333333</ele><time>2026-04-18T08:45:05.019Z</time></trkpt><trkpt lat="44.8987873" lon="8.4299095"><ele>116.66666666666666</ele><time>2026-04-18T08:45:08.018Z</time></trkpt><trkpt lat="44.8987039" lon="8.4299509"><ele>116.5</ele><time>2026-04-18T08:45:15.018Z</time></trkpt><trkpt lat="44.8986484" lon="8.4300413"><ele>116.33333333333333</ele><time>2026-04-18T08:45:16.019Z</time></trkpt><trkpt lat="44.898606" lon="8.4301411"><ele>116.16666666666666</ele><time>2026-04-18T08:45:17.019Z</time></trkpt><trkpt lat="44.8985632" lon="8.4302621"><ele>116.0</ele><time>2026-04-18T08:45:18.018Z</time></trkpt><trkpt lat="44.8985117" lon="8.4303903"><ele>115.75</ele><time>2026-04-18T08:45:19.018Z</time></trkpt><trkpt lat="44.8984525" lon="8.4305275"><ele>115.5</ele><time>2026-04-18T08:45:20.018Z</time></trkpt><trkpt lat="44.898394" lon="8.430673"><ele>115.25</ele><time>2026-04-18T08:45:21.019Z</time></trkpt><trkpt lat="44.8983375" lon="8.4308201"><ele>115.0</ele><time>2026-04-18T08:45:22.018Z</time></trkpt><trkpt lat="44.898283" lon="8.4309507"><ele>114.83333333333334</ele><time>2026-04-18T08:45:23.019Z</time></trkpt><trkpt lat="44.898239" lon="8.4310652"><ele>114.66666666666667</ele><time>2026-04-18T08:45:24.019Z</time></trkpt><trkpt lat="44.8981986" lon="8.4311607"><ele>114.5</ele><time>2026-04-18T08:45:25.019Z</time></trkpt><trkpt lat="44.8981637" lon="8.4312351"><ele>114.33333333333334</ele><time>2026-04-18T08:45:26.019Z</time></trkpt><trkpt lat="44.898115" lon="8.431345"><ele>114.16666666666667</ele><time>2026-04-18T08:45:28.019Z</time></trkpt><trkpt lat="44.8980729" lon="8.4314586"><ele>114.0</ele><time>2026-04-18T08:46:32.018Z</time></trkpt><trkpt lat="44.8980147" lon="8.4316201"><ele>113.6</ele><time>2026-04-18T08:46:34.019Z</time></trkpt><trkpt lat="44.8979769" lon="8.4317115"><ele>113.2</ele><time>2026-04-18T08:46:35.019Z</time></trkpt><trkpt lat="44.897932" lon="8.4318199"><ele>112.79999999999998</ele><time>2026-04-18T08:46:36.019Z</time></trkpt><trkpt lat="44.8978803" lon="8.4319532"><ele>112.39999999999999</ele><time>2026-04-18T08:46:37.019Z</time></trkpt><trkpt lat="44.8978282" lon="8.4320972"><ele>112.0</ele><time>2026-04-18T08:46:38.018Z</time></trkpt><trkpt lat="44.89779" lon="8.43224"><ele>112.16666666666667</ele><time>2026-04-18T08:46:39.019Z</time></trkpt><trkpt lat="44.8977653" lon="8.4323842"><ele>112.33333333333334</ele><time>2026-04-18T08:46:40.019Z</time></trkpt><trkpt lat="44.8977591" lon="8.4325244"><ele>112.5</ele><time>2026-04-18T08:46:41.019Z</time></trkpt><trkpt lat="44.8977703" lon="8.4326531"><ele>112.66666666666666</ele><time>2026-04-18T08:46:42.019Z</time></trkpt><trkpt lat="44.8977899" lon="8.4327648"><ele>112.83333333333333</ele><time>2026-04-18T08:46:43.018Z</time></trkpt><trkpt lat="44.8978087" lon="8.4328532"><ele>113.0</ele><time>2026-04-18T08:46:44.019Z</time></trkpt><trkpt lat="44.8978406" lon="8.4330078"><ele>112.99999999999999</ele><time>2026-04-18T08:46:46.019Z</time></trkpt><trkpt lat="44.8978718" lon="8.4331809"><ele>113.0</ele><time>2026-04-18T08:46:48.019Z</time></trkpt><trkpt lat="44.8978819" lon="8.4332872"><ele>113.0</ele><time>2026-04-18T08:46:49.018Z</time></trkpt><trkpt lat="44.8978987" lon="8.4333987"><ele>113.0</ele><time>2026-04-18T08:46:50.019Z</time></trkpt><trkpt lat="44.8979191" lon="8.4335123"><ele>112.99999999999999</ele><time>2026-04-18T08:46:51.018Z</time></trkpt><trkpt lat="44.8979429" lon="8.4336136"><ele>113.0</ele><time>2026-04-18T08:46:52.018Z</time></trkpt><trkpt lat="44.8979698" lon="8.4337247"><ele>113.49999999999999</ele><time>2026-04-18T08:46:53.018Z</time></trkpt><trkpt lat="44.8979881" lon="8.4338398"><ele>114.0</ele><time>2026-04-18T08:46:54.019Z</time></trkpt><trkpt lat="44.8980128" lon="8.4339522"><ele>114.5</ele><time>2026-04-18T08:46:55.019Z</time></trkpt><trkpt lat="44.8980321" lon="8.4340669"><ele>115.0</ele><time>2026-04-18T08:46:56.019Z</time></trkpt><trkpt lat="44.8980538" lon="8.4341881"><ele>115.49999999999999</ele><time>2026-04-18T08:46:57.019Z</time></trkpt><trkpt lat="44.8980773" lon="8.4343109"><ele>116.0</ele><time>2026-04-18T08:46:58.018Z</time></trkpt><trkpt lat="44.8980971" lon="8.4344352"><ele>115.99999999999999</ele><time>2026-04-18T08:46:59.018Z</time></trkpt><trkpt lat="44.8981155" lon="8.4345562"><ele>116.0</ele><time>2026-04-18T08:47:00.019Z</time></trkpt><trkpt lat="44.8981354" lon="8.4346775"><ele>116.0</ele><time>2026-04-18T08:47:01.018Z</time></trkpt><trkpt lat="44.8981583" lon="8.4348008"><ele>116.0</ele><time>2026-04-18T08:47:02.019Z</time></trkpt><trkpt lat="44.898178" lon="8.434922"><ele>115.99999999999999</ele><time>2026-04-18T08:47:03.018Z</time></trkpt><trkpt lat="44.8981976" lon="8.4350439"><ele>116.0</ele><time>2026-04-18T08:47:04.018Z</time></trkpt><trkpt lat="44.8982181" lon="8.435165"><ele>116.19999999999999</ele><time>2026-04-18T08:47:05.018Z</time></trkpt><trkpt lat="44.8982404" lon="8.4352764"><ele>116.39999999999999</ele><time>2026-04-18T08:47:06.018Z</time></trkpt><trkpt lat="44.8982536" lon="8.4353781"><ele>116.6</ele><time>2026-04-18T08:47:07.018Z</time></trkpt><trkpt lat="44.8982659" lon="8.4354733"><ele>116.8</ele><time>2026-04-18T08:47:08.019Z</time></trkpt><trkpt lat="44.8982886" lon="8.4356383"><ele>117.0</ele><time>2026-04-18T08:47:10.018Z</time></trkpt><trkpt lat="44.8983035" lon="8.435813"><ele>116.66666666666667</ele><time>2026-04-18T08:47:12.018Z</time></trkpt><trkpt lat="44.8983118" lon="8.4359183"><ele>116.33333333333334</ele><time>2026-04-18T08:47:13.018Z</time></trkpt><trkpt lat="44.8983164" lon="8.4360321"><ele>116.0</ele><time>2026-04-18T08:47:14.018Z</time></trkpt><trkpt lat="44.8983209" lon="8.4361451"><ele>115.66666666666667</ele><time>2026-04-18T08:47:15.018Z</time></trkpt><trkpt lat="44.8983246" lon="8.4362525"><ele>115.33333333333334</ele><time>2026-04-18T08:47:16.019Z</time></trkpt><trkpt lat="44.8983279" lon="8.4363619"><ele>115.0</ele><time>2026-04-18T08:47:17.019Z</time></trkpt><trkpt lat="44.8983335" lon="8.4364713"><ele>114.83333333333334</ele><time>2026-04-18T08:47:18.019Z</time></trkpt><trkpt lat="44.898338" lon="8.4365792"><ele>114.66666666666667</ele><time>2026-04-18T08:47:19.018Z</time></trkpt><trkpt lat="44.8983443" lon="8.4366855"><ele>114.5</ele><time>2026-04-18T08:47:20.018Z</time></trkpt><trkpt lat="44.8983506" lon="8.4367909"><ele>114.33333333333334</ele><time>2026-04-18T08:47:21.018Z</time></trkpt><trkpt lat="44.8983543" lon="8.4368944"><ele>114.16666666666667</ele><time>2026-04-18T08:47:22.019Z</time></trkpt><trkpt lat="44.8983605" lon="8.4370047"><ele>114.0</ele><time>2026-04-18T08:47:23.018Z</time></trkpt><trkpt lat="44.8983757" lon="8.4371184"><ele>114.0</ele><time>2026-04-18T08:47:24.018Z</time></trkpt><trkpt lat="44.8983907" lon="8.437238"><ele>114.0</ele><time>2026-04-18T08:47:25.018Z</time></trkpt><trkpt lat="44.8984078" lon="8.4373568"><ele>114.0</ele><time>2026-04-18T08:47:26.018Z</time></trkpt><trkpt lat="44.8984215" lon="8.4374648"><ele>114.0</ele><time>2026-04-18T08:47:27.019Z</time></trkpt><trkpt lat="44.8984234" lon="8.4375672"><ele>114.0</ele><time>2026-04-18T08:47:28.019Z</time></trkpt><trkpt lat="44.8984249" lon="8.4376601"><ele>114.0</ele><time>2026-04-18T08:47:29.018Z</time></trkpt><trkpt lat="44.8984273" lon="8.4377567"><ele>114.0</ele><time>2026-04-18T08:47:30.018Z</time></trkpt><trkpt lat="44.8984294" lon="8.4378593"><ele>114.0</ele><time>2026-04-18T08:47:31.019Z</time></trkpt><trkpt lat="44.8984377" lon="8.4379503"><ele>114.0</ele><time>2026-04-18T08:47:32.019Z</time></trkpt><trkpt lat="44.8984495" lon="8.4380765"><ele>114.0</ele><time>2026-04-18T08:47:34.019Z</time></trkpt><trkpt lat="44.8984582" lon="8.4381647"><ele>114.0</ele><time>2026-04-18T08:47:37.019Z</time></trkpt><trkpt lat="44.8984692" lon="8.4382995"><ele>114.0</ele><time>2026-04-18T08:47:40.019Z</time></trkpt><trkpt lat="44.8984753" lon="8.4383959"><ele>114.0</ele><time>2026-04-18T08:47:42.018Z</time></trkpt><trkpt lat="44.898486" lon="8.4385042"><ele>114.0</ele><time>2026-04-18T08:47:45.019Z</time></trkpt><trkpt lat="44.8984932" lon="8.4386095"><ele>114.0</ele><time>2026-04-18T08:47:48.018Z</time></trkpt><trkpt lat="44.8984997" lon="8.4387194"><ele>114.0</ele><time>2026-04-18T08:47:50.019Z</time></trkpt><trkpt lat="44.8984827" lon="8.4388277"><ele>114.0</ele><time>2026-04-18T08:47:52.018Z</time></trkpt><trkpt lat="44.8984755" lon="8.4389431"><ele>114.0</ele><time>2026-04-18T08:47:54.019Z</time></trkpt><trkpt lat="44.8984808" lon="8.4390806"><ele>114.0</ele><time>2026-04-18T08:47:56.018Z</time></trkpt><trkpt lat="44.8984924" lon="8.439243"><ele>114.0</ele><time>2026-04-18T08:47:58.019Z</time></trkpt><trkpt lat="44.8985193" lon="8.4394059"><ele>114.0</ele><time>2026-04-18T08:48:00.018Z</time></trkpt><trkpt lat="44.8985479" lon="8.4395557"><ele>114.0</ele><time>2026-04-18T08:48:02.019Z</time></trkpt><trkpt lat="44.8985903" lon="8.4397246"><ele>114.0</ele><time>2026-04-18T08:48:04.019Z</time></trkpt><trkpt lat="44.8986126" lon="8.4398146"><ele>114.0</ele><time>2026-04-18T08:48:05.018Z</time></trkpt><trkpt lat="44.898635" lon="8.4399202"><ele>114.0</ele><time>2026-04-18T08:48:06.019Z</time></trkpt><trkpt lat="44.8986631" lon="8.4400302"><ele>114.0</ele><time>2026-04-18T08:48:07.018Z</time></trkpt><trkpt lat="44.8986999" lon="8.4401474"><ele>114.0</ele><time>2026-04-18T08:48:08.018Z</time></trkpt><trkpt lat="44.8987326" lon="8.4402737"><ele>114.0</ele><time>2026-04-18T08:48:09.019Z</time></trkpt><trkpt lat="44.8987723" lon="8.4404131"><ele>113.80000000000001</ele><time>2026-04-18T08:48:10.019Z</time></trkpt><trkpt lat="44.8988119" lon="8.4405528"><ele>113.60000000000001</ele><time>2026-04-18T08:48:11.019Z</time></trkpt><trkpt lat="44.8988537" lon="8.4406948"><ele>113.4</ele><time>2026-04-18T08:48:12.019Z</time></trkpt><trkpt lat="44.8988935" lon="8.4408373"><ele>113.2</ele><time>2026-04-18T08:48:13.019Z</time></trkpt><trkpt lat="44.898929" lon="8.4409738"><ele>113.0</ele><time>2026-04-18T08:48:14.018Z</time></trkpt><trkpt lat="44.8989628" lon="8.4411005"><ele>112.99999999999999</ele><time>2026-04-18T08:48:15.018Z</time></trkpt><trkpt lat="44.8989943" lon="8.4412209"><ele>113.0</ele><time>2026-04-18T08:48:16.019Z</time></trkpt><trkpt lat="44.8990192" lon="8.4413281"><ele>113.0</ele><time>2026-04-18T08:48:17.018Z</time></trkpt><trkpt lat="44.8990504" lon="8.4414233"><ele>113.0</ele><time>2026-04-18T08:48:18.018Z</time></trkpt><trkpt lat="44.8990745" lon="8.4415275"><ele>112.99999999999999</ele><time>2026-04-18T08:48:19.018Z</time></trkpt><trkpt lat="44.8991101" lon="8.4416398"><ele>113.0</ele><time>2026-04-18T08:48:20.019Z</time></trkpt><trkpt lat="44.8991423" lon="8.441761"><ele>113.0</ele><time>2026-04-18T08:48:21.019Z</time></trkpt><trkpt lat="44.8991764" lon="8.4418999"><ele>113.00000000000001</ele><time>2026-04-18T08:48:22.019Z</time></trkpt><trkpt lat="44.8992142" lon="8.4420348"><ele>113.00000000000001</ele><time>2026-04-18T08:48:23.019Z</time></trkpt><trkpt lat="44.8992562" lon="8.4421667"><ele>113.0</ele><time>2026-04-18T08:48:24.019Z</time></trkpt><trkpt lat="44.8992984" lon="8.442307"><ele>113.0</ele><time>2026-04-18T08:48:25.018Z</time></trkpt><trkpt lat="44.8993479" lon="8.4424404"><ele>112.60000000000001</ele><time>2026-04-18T08:48:26.019Z</time></trkpt><trkpt lat="44.8993939" lon="8.4425713"><ele>112.20000000000002</ele><time>2026-04-18T08:48:27.019Z</time></trkpt><trkpt lat="44.8994319" lon="8.4427142"><ele>111.8</ele><time>2026-04-18T08:48:28.019Z</time></trkpt><trkpt lat="44.8994736" lon="8.4428525"><ele>111.4</ele><time>2026-04-18T08:48:29.019Z</time></trkpt><trkpt lat="44.8995153" lon="8.4429908"><ele>111.0</ele><time>2026-04-18T08:48:30.018Z</time></trkpt><trkpt lat="44.8995565" lon="8.4431308"><ele>111.0</ele><time>2026-04-18T08:48:31.018Z</time></trkpt><trkpt lat="44.8996029" lon="8.4432788"><ele>111.0</ele><time>2026-04-18T08:48:32.018Z</time></trkpt><trkpt lat="44.8996502" lon="8.4434289"><ele>111.0</ele><time>2026-04-18T08:48:33.019Z</time></trkpt><trkpt lat="44.8997014" lon="8.4435835"><ele>111.0</ele><time>2026-04-18T08:48:34.018Z</time></trkpt><trkpt lat="44.8997477" lon="8.4437259"><ele>110.83333333333333</ele><time>2026-04-18T08:48:35.019Z</time></trkpt><trkpt lat="44.899788" lon="8.4438546"><ele>110.66666666666666</ele><time>2026-04-18T08:48:36.018Z</time></trkpt><trkpt lat="44.8998217" lon="8.4439633"><ele>110.5</ele><time>2026-04-18T08:48:37.018Z</time></trkpt><trkpt lat="44.8998548" lon="8.4440676"><ele>110.33333333333333</ele><time>2026-04-18T08:48:38.018Z</time></trkpt><trkpt lat="44.8998832" lon="8.4441598"><ele>110.16666666666666</ele><time>2026-04-18T08:48:39.018Z</time></trkpt><trkpt lat="44.899913" lon="8.4442488"><ele>110.0</ele><time>2026-04-18T08:48:40.019Z</time></trkpt><trkpt lat="44.8999439" lon="8.4443422"><ele>109.99999999999999</ele><time>2026-04-18T08:48:41.018Z</time></trkpt><trkpt lat="44.8999735" lon="8.4444396"><ele>110.0</ele><time>2026-04-18T08:48:42.019Z</time></trkpt><trkpt lat="44.9000058" lon="8.4445337"><ele>110.0</ele><time>2026-04-18T08:48:43.019Z</time></trkpt><trkpt lat="44.9000383" lon="8.4446245"><ele>110.0</ele><time>2026-04-18T08:48:44.018Z</time></trkpt><trkpt lat="44.9000664" lon="8.4447099"><ele>109.99999999999999</ele><time>2026-04-18T08:48:45.019Z</time></trkpt><trkpt lat="44.9001194" lon="8.4448518"><ele>110.0</ele><time>2026-04-18T08:48:47.018Z</time></trkpt><trkpt lat="44.9001605" lon="8.4449774"><ele>109.33333333333333</ele><time>2026-04-18T08:48:49.018Z</time></trkpt><trkpt lat="44.9001817" lon="8.4450711"><ele>108.66666666666666</ele><time>2026-04-18T08:48:52.019Z</time></trkpt><trkpt lat="44.9002125" lon="8.4451504"><ele>108.0</ele><time>2026-04-18T08:49:17.018Z</time></trkpt><trkpt lat="44.9002586" lon="8.4452675"><ele>107.33333333333334</ele><time>2026-04-18T08:49:19.018Z</time></trkpt><trkpt lat="44.9002927" lon="8.4453547"><ele>106.66666666666667</ele><time>2026-04-18T08:49:20.019Z</time></trkpt><trkpt lat="44.9003296" lon="8.4454691"><ele>106.0</ele><time>2026-04-18T08:49:21.019Z</time></trkpt><trkpt lat="44.9003725" lon="8.4456139"><ele>106.0</ele><time>2026-04-18T08:49:22.018Z</time></trkpt><trkpt lat="44.9004161" lon="8.4457562"><ele>106.0</ele><time>2026-04-18T08:49:23.019Z</time></trkpt><trkpt lat="44.9004622" lon="8.4458957"><ele>106.0</ele><time>2026-04-18T08:49:24.018Z</time></trkpt><trkpt lat="44.9005106" lon="8.4460373"><ele>106.0</ele><time>2026-04-18T08:49:25.018Z</time></trkpt><trkpt lat="44.9005654" lon="8.4462019"><ele>105.75</ele><time>2026-04-18T08:49:26.019Z</time></trkpt><trkpt lat="44.9006162" lon="8.4463715"><ele>105.5</ele><time>2026-04-18T08:49:27.019Z</time></trkpt><trkpt lat="44.9006739" lon="8.4465489"><ele>105.25</ele><time>2026-04-18T08:49:28.019Z</time></trkpt><trkpt lat="44.9007351" lon="8.4467336"><ele>105.0</ele><time>2026-04-18T08:49:29.018Z</time></trkpt><trkpt lat="44.9007977" lon="8.4469231"><ele>105.0</ele><time>2026-04-18T08:49:30.018Z</time></trkpt><trkpt lat="44.9008623" lon="8.4471129"><ele>105.0</ele><time>2026-04-18T08:49:31.018Z</time></trkpt><trkpt lat="44.9009281" lon="8.4473077"><ele>105.0</ele><time>2026-04-18T08:49:32.018Z</time></trkpt><trkpt lat="44.9009907" lon="8.4474956"><ele>105.0</ele><time>2026-04-18T08:49:33.018Z</time></trkpt><trkpt lat="44.9010549" lon="8.447681"><ele>104.5</ele><time>2026-04-18T08:49:34.019Z</time></trkpt><trkpt lat="44.9011159" lon="8.4478582"><ele>104.0</ele><time>2026-04-18T08:49:35.018Z</time></trkpt><trkpt lat="44.9011754" lon="8.4480313"><ele>103.5</ele><time>2026-04-18T08:49:36.018Z</time></trkpt><trkpt lat="44.9012309" lon="8.4482006"><ele>103.0</ele><time>2026-04-18T08:49:37.018Z</time></trkpt><trkpt lat="44.9012809" lon="8.4483563"><ele>103.0</ele><time>2026-04-18T08:49:38.019Z</time></trkpt><trkpt lat="44.9013223" lon="8.4485013"><ele>103.0</ele><time>2026-04-18T08:49:39.019Z</time></trkpt><trkpt lat="44.901344" lon="8.4486284"><ele>103.0</ele><time>2026-04-18T08:49:40.018Z</time></trkpt><trkpt lat="44.9013461" lon="8.4487537"><ele>103.0</ele><time>2026-04-18T08:49:41.019Z</time></trkpt><trkpt lat="44.9013237" lon="8.4488656"><ele>103.0</ele><time>2026-04-18T08:49:42.019Z</time></trkpt><trkpt lat="44.9012782" lon="8.4489577"><ele>103.0</ele><time>2026-04-18T08:49:43.018Z</time></trkpt><trkpt lat="44.9012091" lon="8.4490265"><ele>103.0</ele><time>2026-04-18T08:49:44.019Z</time></trkpt><trkpt lat="44.9011152" lon="8.4490746"><ele>103.0</ele><time>2026-04-18T08:49:45.019Z</time></trkpt><trkpt lat="44.9010014" lon="8.4491152"><ele>103.0</ele><time>2026-04-18T08:49:46.019Z</time></trkpt><trkpt lat="44.9008742" lon="8.449154"><ele>103.0</ele><time>2026-04-18T08:49:47.018Z</time></trkpt><trkpt lat="44.9007314" lon="8.4491953"><ele>101.66666666666667</ele><time>2026-04-18T08:49:48.018Z</time></trkpt><trkpt lat="44.9005756" lon="8.4492365"><ele>100.33333333333334</ele><time>2026-04-18T08:49:49.019Z</time></trkpt><trkpt lat="44.9004138" lon="8.4492777"><ele>99.0</ele><time>2026-04-18T08:49:50.019Z</time></trkpt><trkpt lat="44.9002441" lon="8.449322"><ele>99.33333333333334</ele><time>2026-04-18T08:49:51.019Z</time></trkpt><trkpt lat="44.9000648" lon="8.4493661"><ele>99.66666666666667</ele><time>2026-04-18T08:49:52.018Z</time></trkpt><trkpt lat="44.8998781" lon="8.4494143"><ele>100.0</ele><time>2026-04-18T08:49:53.018Z</time></trkpt><trkpt lat="44.8996883" lon="8.4494703"><ele>100.0</ele><time>2026-04-18T08:49:54.019Z</time></trkpt><trkpt lat="44.8994957" lon="8.4495254"><ele>100.0</ele><time>2026-04-18T08:49:55.019Z</time></trkpt><trkpt lat="44.8993081" lon="8.4495787"><ele>100.0</ele><time>2026-04-18T08:49:56.019Z</time></trkpt><trkpt lat="44.8991261" lon="8.4496303"><ele>100.33333333333334</ele><time>2026-04-18T08:49:57.018Z</time></trkpt><trkpt lat="44.89895" lon="8.4496759"><ele>100.66666666666666</ele><time>2026-04-18T08:49:58.018Z</time></trkpt><trkpt lat="44.8987848" lon="8.4497217"><ele>101.0</ele><time>2026-04-18T08:49:59.018Z</time></trkpt><trkpt lat="44.8986303" lon="8.4497663"><ele>101.0</ele><time>2026-04-18T08:50:00.019Z</time></trkpt><trkpt lat="44.8984822" lon="8.4498196"><ele>101.0</ele><time>2026-04-18T08:50:01.019Z</time></trkpt><trkpt lat="44.8983387" lon="8.4498803"><ele>101.0</ele><time>2026-04-18T08:50:02.018Z</time></trkpt><trkpt lat="44.8981954" lon="8.4499546"><ele>100.5</ele><time>2026-04-18T08:50:03.019Z</time></trkpt><trkpt lat="44.8980541" lon="8.4500321"><ele>100.0</ele><time>2026-04-18T08:50:04.019Z</time></trkpt><trkpt lat="44.8979175" lon="8.4501086"><ele>99.5</ele><time>2026-04-18T08:50:05.019Z</time></trkpt><trkpt lat="44.8977853" lon="8.4501864"><ele>99.0</ele><time>2026-04-18T08:50:06.019Z</time></trkpt><trkpt lat="44.8976538" lon="8.4502642"><ele>98.75</ele><time>2026-04-18T08:50:07.019Z</time></trkpt><trkpt lat="44.8975216" lon="8.4503434"><ele>98.5</ele><time>2026-04-18T08:50:08.019Z</time></trkpt><trkpt lat="44.8973882" lon="8.4504239"><ele>98.25</ele><time>2026-04-18T08:50:09.019Z</time></trkpt><trkpt lat="44.8972555" lon="8.4504997"><ele>98.0</ele><time>2026-04-18T08:50:10.019Z</time></trkpt><trkpt lat="44.8971202" lon="8.4505665"><ele>98.0</ele><time>2026-04-18T08:50:11.019Z</time></trkpt><trkpt lat="44.8969885" lon="8.4506211"><ele>98.0</ele><time>2026-04-18T08:50:12.019Z</time></trkpt><trkpt lat="44.8968572" lon="8.4506582"><ele>98.0</ele><time>2026-04-18T08:50:13.019Z</time></trkpt><trkpt lat="44.8967229" lon="8.4506756"><ele>98.0</ele><time>2026-04-18T08:50:14.019Z</time></trkpt><trkpt lat="44.8965861" lon="8.4506699"><ele>97.75</ele><time>2026-04-18T08:50:15.019Z</time></trkpt><trkpt lat="44.8964486" lon="8.4506367"><ele>97.5</ele><time>2026-04-18T08:50:16.018Z</time></trkpt><trkpt lat="44.8963171" lon="8.4505738"><ele>97.25</ele><time>2026-04-18T08:50:17.018Z</time></trkpt><trkpt lat="44.8961917" lon="8.4504769"><ele>97.0</ele><time>2026-04-18T08:50:18.018Z</time></trkpt><trkpt lat="44.8960779" lon="8.4503533"><ele>97.0</ele><time>2026-04-18T08:50:19.019Z</time></trkpt><trkpt lat="44.895976" lon="8.4502047"><ele>97.0</ele><time>2026-04-18T08:50:20.019Z</time></trkpt><trkpt lat="44.895893" lon="8.4500359"><ele>97.0</ele><time>2026-04-18T08:50:21.019Z</time></trkpt><trkpt lat="44.8958297" lon="8.4498508"><ele>97.0</ele><time>2026-04-18T08:50:22.018Z</time></trkpt><trkpt lat="44.8957863" lon="8.4496493"><ele>97.0</ele><time>2026-04-18T08:50:23.019Z</time></trkpt><trkpt lat="44.8957543" lon="8.4494357"><ele>97.0</ele><time>2026-04-18T08:50:24.019Z</time></trkpt><trkpt lat="44.8957305" lon="8.4492276"><ele>97.0</ele><time>2026-04-18T08:50:25.018Z</time></trkpt><trkpt lat="44.8957115" lon="8.4490235"><ele>97.0</ele><time>2026-04-18T08:50:26.019Z</time></trkpt><trkpt lat="44.895694" lon="8.4488184"><ele>97.0</ele><time>2026-04-18T08:50:27.019Z</time></trkpt><trkpt lat="44.895675" lon="8.4486111"><ele>97.0</ele><time>2026-04-18T08:50:28.018Z</time></trkpt><trkpt lat="44.8956541" lon="8.4483917"><ele>97.0</ele><time>2026-04-18T08:50:29.019Z</time></trkpt><trkpt lat="44.8956352" lon="8.4481588"><ele>97.0</ele><time>2026-04-18T08:50:30.019Z</time></trkpt><trkpt lat="44.8956129" lon="8.447913"><ele>97.0</ele><time>2026-04-18T08:50:31.019Z</time></trkpt><trkpt lat="44.8955919" lon="8.4476647"><ele>97.0</ele><time>2026-04-18T08:50:32.019Z</time></trkpt><trkpt lat="44.8955686" lon="8.4474175"><ele>97.0</ele><time>2026-04-18T08:50:33.018Z</time></trkpt><trkpt lat="44.8955483" lon="8.4471728"><ele>97.0</ele><time>2026-04-18T08:50:34.018Z</time></trkpt><trkpt lat="44.8955298" lon="8.4469227"><ele>97.33333333333334</ele><time>2026-04-18T08:50:35.018Z</time></trkpt><trkpt lat="44.8955117" lon="8.4466672"><ele>97.66666666666666</ele><time>2026-04-18T08:50:36.018Z</time></trkpt><trkpt lat="44.8954833" lon="8.4464125"><ele>98.0</ele><time>2026-04-18T08:50:37.019Z</time></trkpt><trkpt lat="44.8954446" lon="8.4461622"><ele>98.0</ele><time>2026-04-18T08:50:38.018Z</time></trkpt><trkpt lat="44.895393" lon="8.4459141"><ele>98.0</ele><time>2026-04-18T08:50:39.018Z</time></trkpt><trkpt lat="44.8953255" lon="8.4456671"><ele>98.0</ele><time>2026-04-18T08:50:40.019Z</time></trkpt><trkpt lat="44.8952516" lon="8.4454143"><ele>98.0</ele><time>2026-04-18T08:50:41.019Z</time></trkpt><trkpt lat="44.8951699" lon="8.4451536"><ele>98.0</ele><time>2026-04-18T08:50:42.019Z</time></trkpt><trkpt lat="44.8950841" lon="8.444881"><ele>98.0</ele><time>2026-04-18T08:50:43.019Z</time></trkpt><trkpt lat="44.8949987" lon="8.4446016"><ele>98.0</ele><time>2026-04-18T08:50:44.018Z</time></trkpt><trkpt lat="44.8949126" lon="8.4443164"><ele>98.0</ele><time>2026-04-18T08:50:45.019Z</time></trkpt><trkpt lat="44.8948267" lon="8.4440376"><ele>98.0</ele><time>2026-04-18T08:50:46.019Z</time></trkpt><trkpt lat="44.8947416" lon="8.4437628"><ele>98.0</ele><time>2026-04-18T08:50:47.018Z</time></trkpt><trkpt lat="44.89466" lon="8.4434891"><ele>98.0</ele><time>2026-04-18T08:50:48.019Z</time></trkpt><trkpt lat="44.8945793" lon="8.4432155"><ele>98.0</ele><time>2026-04-18T08:50:49.018Z</time></trkpt><trkpt lat="44.8944978" lon="8.4429416"><ele>98.0</ele><time>2026-04-18T08:50:50.019Z</time></trkpt><trkpt lat="44.8944148" lon="8.4426748"><ele>98.0</ele><time>2026-04-18T08:50:51.019Z</time></trkpt><trkpt lat="44.8943304" lon="8.4424135"><ele>98.0</ele><time>2026-04-18T08:50:52.019Z</time></trkpt><trkpt lat="44.8942445" lon="8.4421584"><ele>98.0</ele><time>2026-04-18T08:50:53.019Z</time></trkpt><trkpt lat="44.8941583" lon="8.4419084"><ele>98.0</ele><time>2026-04-18T08:50:54.019Z</time></trkpt><trkpt lat="44.8940706" lon="8.4416623"><ele>98.0</ele><time>2026-04-18T08:50:55.018Z</time></trkpt><trkpt lat="44.8939838" lon="8.4414189"><ele>98.0</ele><time>2026-04-18T08:50:56.019Z</time></trkpt><trkpt lat="44.8938986" lon="8.4411769"><ele>98.0</ele><time>2026-04-18T08:50:57.018Z</time></trkpt><trkpt lat="44.8938161" lon="8.4409376"><ele>98.0</ele><time>2026-04-18T08:50:58.018Z</time></trkpt><trkpt lat="44.8937356" lon="8.4407094"><ele>98.0</ele><time>2026-04-18T08:50:59.018Z</time></trkpt><trkpt lat="44.893657" lon="8.4404912"><ele>98.0</ele><time>2026-04-18T08:51:00.018Z</time></trkpt><trkpt lat="44.8935833" lon="8.4402819"><ele>98.0</ele><time>2026-04-18T08:51:01.018Z</time></trkpt><trkpt lat="44.8935128" lon="8.440082"><ele>98.0</ele><time>2026-04-18T08:51:02.019Z</time></trkpt><trkpt lat="44.893445" lon="8.4398899"><ele>98.0</ele><time>2026-04-18T08:51:03.019Z</time></trkpt><trkpt lat="44.8933792" lon="8.4397062"><ele>98.0</ele><time>2026-04-18T08:51:04.019Z</time></trkpt><trkpt lat="44.8933147" lon="8.4395311"><ele>98.0</ele><time>2026-04-18T08:51:05.019Z</time></trkpt><trkpt lat="44.8932558" lon="8.4393703"><ele>98.16666666666666</ele><time>2026-04-18T08:51:06.018Z</time></trkpt><trkpt lat="44.8932076" lon="8.4392306"><ele>98.33333333333333</ele><time>2026-04-18T08:51:07.019Z</time></trkpt><trkpt lat="44.8931687" lon="8.4391144"><ele>98.5</ele><time>2026-04-18T08:51:08.018Z</time></trkpt><trkpt lat="44.8931401" lon="8.4390135"><ele>98.66666666666666</ele><time>2026-04-18T08:51:09.019Z</time></trkpt><trkpt lat="44.8931319" lon="8.4389114"><ele>98.83333333333333</ele><time>2026-04-18T08:51:10.019Z</time></trkpt><trkpt lat="44.8931412" lon="8.4388092"><ele>99.0</ele><time>2026-04-18T08:51:11.019Z</time></trkpt><trkpt lat="44.8931545" lon="8.4386992"><ele>99.0</ele><time>2026-04-18T08:51:12.019Z</time></trkpt><trkpt lat="44.8931412" lon="8.4385954"><ele>99.0</ele><time>2026-04-18T08:51:13.019Z</time></trkpt><trkpt lat="44.8931041" lon="8.4385044"><ele>99.0</ele><time>2026-04-18T08:51:14.018Z</time></trkpt><trkpt lat="44.8930504" lon="8.4384354"><ele>99.0</ele><time>2026-04-18T08:51:15.019Z</time></trkpt><trkpt lat="44.8929772" lon="8.4384065"><ele>99.0</ele><time>2026-04-18T08:51:16.019Z</time></trkpt><trkpt lat="44.8928992" lon="8.4384044"><ele>99.0</ele><time>2026-04-18T08:51:17.019Z</time></trkpt><trkpt lat="44.8928126" lon="8.4384119"><ele>99.0</ele><time>2026-04-18T08:51:18.019Z</time></trkpt><trkpt lat="44.8927183" lon="8.4384027"><ele>99.0</ele><time>2026-04-18T08:51:19.018Z</time></trkpt><trkpt lat="44.8926178" lon="8.4383659"><ele>99.0</ele><time>2026-04-18T08:51:20.019Z</time></trkpt><trkpt lat="44.8925135" lon="8.4383133"><ele>99.0</ele><time>2026-04-18T08:51:21.018Z</time></trkpt><trkpt lat="44.8924025" lon="8.4382614"><ele>99.0</ele><time>2026-04-18T08:51:22.019Z</time></trkpt><trkpt lat="44.8922813" lon="8.4382161"><ele>99.0</ele><time>2026-04-18T08:51:23.019Z</time></trkpt><trkpt lat="44.8921496" lon="8.4381837"><ele>99.0</ele><time>2026-04-18T08:51:24.019Z</time></trkpt><trkpt lat="44.8920135" lon="8.4381689"><ele>99.0</ele><time>2026-04-18T08:51:25.018Z</time></trkpt><trkpt lat="44.8918713" lon="8.4381816"><ele>99.0</ele><time>2026-04-18T08:51:26.018Z</time></trkpt><trkpt lat="44.8917236" lon="8.4382183"><ele>98.66666666666666</ele><time>2026-04-18T08:51:27.019Z</time></trkpt><trkpt lat="44.89157" lon="8.4382801"><ele>98.33333333333333</ele><time>2026-04-18T08:51:28.019Z</time></trkpt><trkpt lat="44.891417" lon="8.4383596"><ele>98.0</ele><time>2026-04-18T08:51:29.019Z</time></trkpt><trkpt lat="44.8912653" lon="8.4384443"><ele>98.0</ele><time>2026-04-18T08:51:30.018Z</time></trkpt><trkpt lat="44.8911148" lon="8.438531"><ele>98.0</ele><time>2026-04-18T08:51:31.019Z</time></trkpt><trkpt lat="44.8909575" lon="8.4386218"><ele>98.0</ele><time>2026-04-18T08:51:32.019Z</time></trkpt><trkpt lat="44.8907911" lon="8.4387179"><ele>96.0</ele><time>2026-04-18T08:51:33.019Z</time></trkpt><trkpt lat="44.8906217" lon="8.4388188"><ele>94.0</ele><time>2026-04-18T08:51:34.019Z</time></trkpt><trkpt lat="44.8904549" lon="8.438918"><ele>92.0</ele><time>2026-04-18T08:51:35.019Z</time></trkpt><trkpt lat="44.8902987" lon="8.4390112"><ele>92.0</ele><time>2026-04-18T08:51:36.019Z</time></trkpt><trkpt lat="44.890146" lon="8.439102"><ele>92.0</ele><time>2026-04-18T08:51:37.019Z</time></trkpt><trkpt lat="44.8899908" lon="8.4391946"><ele>92.0</ele><time>2026-04-18T08:51:38.018Z</time></trkpt><trkpt lat="44.8898284" lon="8.4392906"><ele>92.0</ele><time>2026-04-18T08:51:39.018Z</time></trkpt><trkpt lat="44.8896615" lon="8.4393895"><ele>92.0</ele><time>2026-04-18T08:51:40.018Z</time></trkpt><trkpt lat="44.8894932" lon="8.4394913"><ele>92.0</ele><time>2026-04-18T08:51:41.019Z</time></trkpt><trkpt lat="44.8893249" lon="8.4395899"><ele>93.66666666666667</ele><time>2026-04-18T08:51:42.019Z</time></trkpt><trkpt lat="44.8891586" lon="8.4396834"><ele>95.33333333333334</ele><time>2026-04-18T08:51:43.019Z</time></trkpt><trkpt lat="44.8889887" lon="8.4397807"><ele>97.0</ele><time>2026-04-18T08:51:44.018Z</time></trkpt><trkpt lat="44.8888189" lon="8.4398814"><ele>97.0</ele><time>2026-04-18T08:51:45.019Z</time></trkpt><trkpt lat="44.8886407" lon="8.4399856"><ele>97.0</ele><time>2026-04-18T08:51:46.018Z</time></trkpt><trkpt lat="44.8884558" lon="8.4400942"><ele>97.0</ele><time>2026-04-18T08:51:47.019Z</time></trkpt><trkpt lat="44.8882695" lon="8.4402009"><ele>97.0</ele><time>2026-04-18T08:51:48.019Z</time></trkpt><trkpt lat="44.8880797" lon="8.440306"><ele>97.0</ele><time>2026-04-18T08:51:49.018Z</time></trkpt><trkpt lat="44.887885" lon="8.4404042"><ele>97.0</ele><time>2026-04-18T08:51:50.018Z</time></trkpt><trkpt lat="44.8876782" lon="8.4405015"><ele>97.5</ele><time>2026-04-18T08:51:51.019Z</time></trkpt><trkpt lat="44.8874592" lon="8.4405984"><ele>98.0</ele><time>2026-04-18T08:51:52.018Z</time></trkpt><trkpt lat="44.8872281" lon="8.4406952"><ele>98.0</ele><time>2026-04-18T08:51:53.019Z</time></trkpt><trkpt lat="44.886989" lon="8.4407938"><ele>98.0</ele><time>2026-04-18T08:51:54.019Z</time></trkpt><trkpt lat="44.8867462" lon="8.440886"><ele>98.0</ele><time>2026-04-18T08:51:55.018Z</time></trkpt><trkpt lat="44.8865039" lon="8.4409711"><ele>98.0</ele><time>2026-04-18T08:51:56.018Z</time></trkpt><trkpt lat="44.8862718" lon="8.4410468"><ele>98.0</ele><time>2026-04-18T08:51:57.019Z</time></trkpt><trkpt lat="44.8860496" lon="8.4411196"><ele>98.0</ele><time>2026-04-18T08:51:58.019Z</time></trkpt><trkpt lat="44.8858347" lon="8.4411969"><ele>98.0</ele><time>2026-04-18T08:51:59.018Z</time></trkpt><trkpt lat="44.885623" lon="8.4412734"><ele>98.0</ele><time>2026-04-18T08:52:00.018Z</time></trkpt><trkpt lat="44.8854118" lon="8.4413533"><ele>98.0</ele><time>2026-04-18T08:52:01.019Z</time></trkpt><trkpt lat="44.8852018" lon="8.4414312"><ele>98.0</ele><time>2026-04-18T08:52:02.018Z</time></trkpt><trkpt lat="44.8849908" lon="8.4415132"><ele>98.0</ele><time>2026-04-18T08:52:03.018Z</time></trkpt><trkpt lat="44.8847801" lon="8.4415979"><ele>98.0</ele><time>2026-04-18T08:52:04.018Z</time></trkpt><trkpt lat="44.8845674" lon="8.4416795"><ele>98.0</ele><time>2026-04-18T08:52:05.019Z</time></trkpt><trkpt lat="44.8843565" lon="8.4417619"><ele>98.0</ele><time>2026-04-18T08:52:06.018Z</time></trkpt><trkpt lat="44.8841487" lon="8.4418438"><ele>98.0</ele><time>2026-04-18T08:52:07.019Z</time></trkpt><trkpt lat="44.8839413" lon="8.4419235"><ele>97.33333333333333</ele><time>2026-04-18T08:52:08.018Z</time></trkpt><trkpt lat="44.8837356" lon="8.4420022"><ele>96.66666666666666</ele><time>2026-04-18T08:52:09.019Z</time></trkpt><trkpt lat="44.8835312" lon="8.4420802"><ele>96.0</ele><time>2026-04-18T08:52:10.018Z</time></trkpt><trkpt lat="44.8833257" lon="8.4421591"><ele>96.0</ele><time>2026-04-18T08:52:11.019Z</time></trkpt><trkpt lat="44.8831197" lon="8.4422385"><ele>96.0</ele><time>2026-04-18T08:52:12.018Z</time></trkpt><trkpt lat="44.8829136" lon="8.4423178"><ele>96.0</ele><time>2026-04-18T08:52:13.018Z</time></trkpt><trkpt lat="44.8827028" lon="8.4423977"><ele>96.66666666666666</ele><time>2026-04-18T08:52:14.019Z</time></trkpt><trkpt lat="44.8824916" lon="8.4424782"><ele>97.33333333333333</ele><time>2026-04-18T08:52:15.019Z</time></trkpt><trkpt lat="44.8822844" lon="8.442557"><ele>98.0</ele><time>2026-04-18T08:52:16.018Z</time></trkpt><trkpt lat="44.8820808" lon="8.4426349"><ele>98.0</ele><time>2026-04-18T08:52:17.019Z</time></trkpt><trkpt lat="44.8818798" lon="8.4427155"><ele>98.0</ele><time>2026-04-18T08:52:18.018Z</time></trkpt><trkpt lat="44.88168" lon="8.4427955"><ele>98.0</ele><time>2026-04-18T08:52:19.018Z</time></trkpt><trkpt lat="44.8814842" lon="8.4428736"><ele>98.0</ele><time>2026-04-18T08:52:20.019Z</time></trkpt><trkpt lat="44.8812919" lon="8.4429492"><ele>98.0</ele><time>2026-04-18T08:52:21.019Z</time></trkpt><trkpt lat="44.8811065" lon="8.4430219"><ele>98.0</ele><time>2026-04-18T08:52:22.019Z</time></trkpt><trkpt lat="44.880928" lon="8.4430914"><ele>98.66666666666666</ele><time>2026-04-18T08:52:23.019Z</time></trkpt><trkpt lat="44.8807555" lon="8.4431572"><ele>99.33333333333334</ele><time>2026-04-18T08:52:24.018Z</time></trkpt><trkpt lat="44.8805893" lon="8.4432217"><ele>100.0</ele><time>2026-04-18T08:52:25.019Z</time></trkpt><trkpt lat="44.8804268" lon="8.4432838"><ele>100.0</ele><time>2026-04-18T08:52:26.019Z</time></trkpt><trkpt lat="44.8802688" lon="8.4433476"><ele>100.0</ele><time>2026-04-18T08:52:27.019Z</time></trkpt><trkpt lat="44.8801117" lon="8.44341"><ele>100.0</ele><time>2026-04-18T08:52:28.019Z</time></trkpt><trkpt lat="44.8799524" lon="8.4434704"><ele>100.0</ele><time>2026-04-18T08:52:29.019Z</time></trkpt><trkpt lat="44.8797897" lon="8.443533"><ele>100.0</ele><time>2026-04-18T08:52:30.018Z</time></trkpt><trkpt lat="44.8796211" lon="8.4435946"><ele>100.0</ele><time>2026-04-18T08:52:31.018Z</time></trkpt><trkpt lat="44.8794467" lon="8.4436597"><ele>100.0</ele><time>2026-04-18T08:52:32.018Z</time></trkpt><trkpt lat="44.87927" lon="8.4437268"><ele>100.0</ele><time>2026-04-18T08:52:33.019Z</time></trkpt><trkpt lat="44.8790935" lon="8.4437938"><ele>100.0</ele><time>2026-04-18T08:52:34.018Z</time></trkpt><trkpt lat="44.8789128" lon="8.4438631"><ele>99.66666666666667</ele><time>2026-04-18T08:52:35.018Z</time></trkpt><trkpt lat="44.8787275" lon="8.4439346"><ele>99.33333333333334</ele><time>2026-04-18T08:52:36.018Z</time></trkpt><trkpt lat="44.8785375" lon="8.4440072"><ele>99.0</ele><time>2026-04-18T08:52:37.018Z</time></trkpt><trkpt lat="44.878346" lon="8.4440803"><ele>99.0</ele><time>2026-04-18T08:52:38.018Z</time></trkpt><trkpt lat="44.8781552" lon="8.4441534"><ele>99.0</ele><time>2026-04-18T08:52:39.018Z</time></trkpt><trkpt lat="44.8779651" lon="8.4442276"><ele>99.0</ele><time>2026-04-18T08:52:40.019Z</time></trkpt><trkpt lat="44.8777782" lon="8.4442967"><ele>100.0</ele><time>2026-04-18T08:52:41.019Z</time></trkpt><trkpt lat="44.8775942" lon="8.4443706"><ele>101.0</ele><time>2026-04-18T08:52:42.019Z</time></trkpt><trkpt lat="44.877415" lon="8.4444435"><ele>102.0</ele><time>2026-04-18T08:52:43.019Z</time></trkpt><trkpt lat="44.8772416" lon="8.4445099"><ele>102.0</ele><time>2026-04-18T08:52:44.019Z</time></trkpt><trkpt lat="44.8770658" lon="8.444578"><ele>102.0</ele><time>2026-04-18T08:52:45.018Z</time></trkpt><trkpt lat="44.8768856" lon="8.4446467"><ele>102.0</ele><time>2026-04-18T08:52:46.018Z</time></trkpt><trkpt lat="44.8767025" lon="8.4447177"><ele>101.33333333333334</ele><time>2026-04-18T08:52:47.019Z</time></trkpt><trkpt lat="44.8765142" lon="8.4447903"><ele>100.66666666666667</ele><time>2026-04-18T08:52:48.019Z</time></trkpt><trkpt lat="44.8763245" lon="8.4448641"><ele>100.0</ele><time>2026-04-18T08:52:49.019Z</time></trkpt><trkpt lat="44.8761338" lon="8.4449367"><ele>100.0</ele><time>2026-04-18T08:52:50.019Z</time></trkpt><trkpt lat="44.8759447" lon="8.4450077"><ele>100.0</ele><time>2026-04-18T08:52:51.019Z</time></trkpt><trkpt lat="44.8757548" lon="8.4450816"><ele>100.0</ele><time>2026-04-18T08:52:52.019Z</time></trkpt><trkpt lat="44.8755686" lon="8.4451528"><ele>100.0</ele><time>2026-04-18T08:52:53.019Z</time></trkpt><trkpt lat="44.8753863" lon="8.445224"><ele>100.0</ele><time>2026-04-18T08:52:54.018Z</time></trkpt><trkpt lat="44.8752102" lon="8.4452913"><ele>100.0</ele><time>2026-04-18T08:52:55.019Z</time></trkpt><trkpt lat="44.8750368" lon="8.4453598"><ele>100.33333333333334</ele><time>2026-04-18T08:52:56.019Z</time></trkpt><trkpt lat="44.8748638" lon="8.445426"><ele>100.66666666666666</ele><time>2026-04-18T08:52:57.018Z</time></trkpt><trkpt lat="44.8746914" lon="8.445492"><ele>101.0</ele><time>2026-04-18T08:52:58.019Z</time></trkpt><trkpt lat="44.8745191" lon="8.4455593"><ele>101.0</ele><time>2026-04-18T08:52:59.018Z</time></trkpt><trkpt lat="44.8743505" lon="8.445626"><ele>101.0</ele><time>2026-04-18T08:53:00.019Z</time></trkpt><trkpt lat="44.8741882" lon="8.4456912"><ele>101.0</ele><time>2026-04-18T08:53:01.019Z</time></trkpt><trkpt lat="44.8740307" lon="8.4457516"><ele>101.0</ele><time>2026-04-18T08:53:02.018Z</time></trkpt><trkpt lat="44.8738815" lon="8.4458123"><ele>101.0</ele><time>2026-04-18T08:53:03.019Z</time></trkpt><trkpt lat="44.8737403" lon="8.4458691"><ele>101.0</ele><time>2026-04-18T08:53:04.019Z</time></trkpt><trkpt lat="44.8736114" lon="8.4459201"><ele>101.0</ele><time>2026-04-18T08:53:05.019Z</time></trkpt><trkpt lat="44.8734976" lon="8.4459629"><ele>100.99999999999999</ele><time>2026-04-18T08:53:06.019Z</time></trkpt><trkpt lat="44.8733965" lon="8.4460007"><ele>101.0</ele><time>2026-04-18T08:53:07.019Z</time></trkpt><trkpt lat="44.8733072" lon="8.4460333"><ele>101.0</ele><time>2026-04-18T08:53:08.019Z</time></trkpt><trkpt lat="44.87323" lon="8.446057"><ele>101.0</ele><time>2026-04-18T08:53:09.019Z</time></trkpt><trkpt lat="44.8731628" lon="8.446077"><ele>100.99999999999999</ele><time>2026-04-18T08:53:10.019Z</time></trkpt><trkpt lat="44.8730643" lon="8.4461012"><ele>101.0</ele><time>2026-04-18T08:53:12.018Z</time></trkpt><trkpt lat="44.8729987" lon="8.4461309"><ele>101.0</ele><time>2026-04-18T08:53:14.018Z</time></trkpt><trkpt lat="44.8729496" lon="8.4462532"><ele>101.0</ele><time>2026-04-18T08:53:16.019Z</time></trkpt><trkpt lat="44.8729491" lon="8.4463535"><ele>101.0</ele><time>2026-04-18T08:53:17.019Z</time></trkpt><trkpt lat="44.872971" lon="8.4464684"><ele>101.0</ele><time>2026-04-18T08:53:18.019Z</time></trkpt><trkpt lat="44.8730168" lon="8.4466029"><ele>101.0</ele><time>2026-04-18T08:53:19.018Z</time></trkpt><trkpt lat="44.8730703" lon="8.4467584"><ele>101.25</ele><time>2026-04-18T08:53:20.019Z</time></trkpt><trkpt lat="44.8731231" lon="8.4469274"><ele>101.5</ele><time>2026-04-18T08:53:21.019Z</time></trkpt><trkpt lat="44.8731786" lon="8.4471158"><ele>101.75</ele><time>2026-04-18T08:53:22.019Z</time></trkpt><trkpt lat="44.873239" lon="8.4473276"><ele>102.0</ele><time>2026-04-18T08:53:23.019Z</time></trkpt><trkpt lat="44.8732996" lon="8.4475519"><ele>102.0</ele><time>2026-04-18T08:53:24.018Z</time></trkpt><trkpt lat="44.8733554" lon="8.4477732"><ele>102.0</ele><time>2026-04-18T08:53:25.019Z</time></trkpt><trkpt lat="44.8734073" lon="8.4479991"><ele>102.0</ele><time>2026-04-18T08:53:26.018Z</time></trkpt><trkpt lat="44.8734534" lon="8.4482329"><ele>102.0</ele><time>2026-04-18T08:53:27.019Z</time></trkpt><trkpt lat="44.8734955" lon="8.4484809"><ele>102.0</ele><time>2026-04-18T08:53:28.019Z</time></trkpt><trkpt lat="44.8735314" lon="8.4487324"><ele>102.0</ele><time>2026-04-18T08:53:29.018Z</time></trkpt><trkpt lat="44.8735582" lon="8.4489894"><ele>102.33333333333334</ele><time>2026-04-18T08:53:30.019Z</time></trkpt><trkpt lat="44.8735761" lon="8.4492568"><ele>102.66666666666667</ele><time>2026-04-18T08:53:31.019Z</time></trkpt><trkpt lat="44.8735823" lon="8.4495203"><ele>103.0</ele><time>2026-04-18T08:53:32.019Z</time></trkpt><trkpt lat="44.8735799" lon="8.4497697"><ele>103.25</ele><time>2026-04-18T08:53:33.019Z</time></trkpt><trkpt lat="44.8735761" lon="8.4499937"><ele>103.5</ele><time>2026-04-18T08:53:34.019Z</time></trkpt><trkpt lat="44.8735716" lon="8.4501918"><ele>103.75</ele><time>2026-04-18T08:53:35.018Z</time></trkpt><trkpt lat="44.873566" lon="8.4503616"><ele>104.0</ele><time>2026-04-18T08:53:36.018Z</time></trkpt><trkpt lat="44.8735593" lon="8.4505132"><ele>103.99999999999999</ele><time>2026-04-18T08:53:37.018Z</time></trkpt><trkpt lat="44.8735524" lon="8.4506423"><ele>104.0</ele><time>2026-04-18T08:53:38.019Z</time></trkpt><trkpt lat="44.8735477" lon="8.4507569"><ele>104.0</ele><time>2026-04-18T08:53:39.018Z</time></trkpt><trkpt lat="44.8735431" lon="8.4508538"><ele>104.0</ele><time>2026-04-18T08:53:40.019Z</time></trkpt><trkpt lat="44.8735362" lon="8.4509735"><ele>103.99999999999999</ele><time>2026-04-18T08:53:42.019Z</time></trkpt><trkpt lat="44.8735308" lon="8.4510641"><ele>104.0</ele><time>2026-04-18T08:53:45.018Z</time></trkpt><trkpt lat="44.8735508" lon="8.4511634"><ele>103.99999999999999</ele><time>2026-04-18T08:54:37.019Z</time></trkpt><trkpt lat="44.8735351" lon="8.4512637"><ele>104.0</ele><time>2026-04-18T08:54:40.019Z</time></trkpt><trkpt lat="44.8735481" lon="8.4513742"><ele>104.0</ele><time>2026-04-18T09:06:03.019Z</time></trkpt><trkpt lat="44.8735428" lon="8.4514652"><ele>104.0</ele><time>2026-04-18T09:06:05.019Z</time></trkpt><trkpt lat="44.8735285" lon="8.4515741"><ele>103.99999999999999</ele><time>2026-04-18T09:06:07.018Z</time></trkpt><trkpt lat="44.8735208" lon="8.4517198"><ele>104.0</ele><time>2026-04-18T09:06:09.019Z</time></trkpt><trkpt lat="44.8735148" lon="8.4518989"><ele>103.4</ele><time>2026-04-18T09:06:11.019Z</time></trkpt><trkpt lat="44.8735117" lon="8.4520147"><ele>102.80000000000001</ele><time>2026-04-18T09:06:12.018Z</time></trkpt><trkpt lat="44.8735049" lon="8.452138"><ele>102.19999999999999</ele><time>2026-04-18T09:06:13.019Z</time></trkpt><trkpt lat="44.8734975" lon="8.4522623"><ele>101.6</ele><time>2026-04-18T09:06:14.018Z</time></trkpt><trkpt lat="44.8734916" lon="8.4523966"><ele>101.0</ele><time>2026-04-18T09:06:15.019Z</time></trkpt><trkpt lat="44.8734831" lon="8.452542"><ele>100.8</ele><time>2026-04-18T09:06:16.019Z</time></trkpt><trkpt lat="44.8734776" lon="8.4526947"><ele>100.6</ele><time>2026-04-18T09:06:17.019Z</time></trkpt><trkpt lat="44.873471" lon="8.4528464"><ele>100.4</ele><time>2026-04-18T09:06:18.019Z</time></trkpt><trkpt lat="44.8734637" lon="8.4529991"><ele>100.2</ele><time>2026-04-18T09:06:19.019Z</time></trkpt><trkpt lat="44.8734598" lon="8.4531535"><ele>100.0</ele><time>2026-04-18T09:06:20.018Z</time></trkpt><trkpt lat="44.8734556" lon="8.453317"><ele>100.75</ele><time>2026-04-18T09:06:21.019Z</time></trkpt><trkpt lat="44.87345" lon="8.4534912"><ele>101.5</ele><time>2026-04-18T09:06:22.019Z</time></trkpt><trkpt lat="44.8734449" lon="8.4536762"><ele>102.25</ele><time>2026-04-18T09:06:23.019Z</time></trkpt><trkpt lat="44.8734393" lon="8.4538734"><ele>103.0</ele><time>2026-04-18T09:06:24.018Z</time></trkpt><trkpt lat="44.8734314" lon="8.4540841"><ele>103.0</ele><time>2026-04-18T09:06:25.019Z</time></trkpt><trkpt lat="44.8734193" lon="8.4543093"><ele>103.0</ele><time>2026-04-18T09:06:26.019Z</time></trkpt><trkpt lat="44.8734015" lon="8.4545284"><ele>103.0</ele><time>2026-04-18T09:06:27.019Z</time></trkpt><trkpt lat="44.8733749" lon="8.454751"><ele>103.0</ele><time>2026-04-18T09:06:28.018Z</time></trkpt><trkpt lat="44.8733354" lon="8.4549713"><ele>103.0</ele><time>2026-04-18T09:06:29.019Z</time></trkpt><trkpt lat="44.8732847" lon="8.4551877"><ele>103.0</ele><time>2026-04-18T09:06:30.019Z</time></trkpt><trkpt lat="44.8732186" lon="8.4553989"><ele>103.33333333333334</ele><time>2026-04-18T09:06:31.018Z</time></trkpt><trkpt lat="44.8731355" lon="8.4556082"><ele>103.66666666666666</ele><time>2026-04-18T09:06:32.019Z</time></trkpt><trkpt lat="44.8730347" lon="8.4558104"><ele>104.0</ele><time>2026-04-18T09:06:33.018Z</time></trkpt><trkpt lat="44.8729152" lon="8.4560016"><ele>104.0</ele><time>2026-04-18T09:06:34.019Z</time></trkpt><trkpt lat="44.87279" lon="8.4561878"><ele>104.0</ele><time>2026-04-18T09:06:35.019Z</time></trkpt><trkpt lat="44.8726668" lon="8.4563716"><ele>104.0</ele><time>2026-04-18T09:06:36.019Z</time></trkpt><trkpt lat="44.8725483" lon="8.4565591"><ele>104.66666666666666</ele><time>2026-04-18T09:06:37.018Z</time></trkpt><trkpt lat="44.8724332" lon="8.4567566"><ele>105.33333333333334</ele><time>2026-04-18T09:06:38.019Z</time></trkpt><trkpt lat="44.872322" lon="8.4569636"><ele>106.0</ele><time>2026-04-18T09:06:39.019Z</time></trkpt><trkpt lat="44.8722173" lon="8.4571776"><ele>106.0</ele><time>2026-04-18T09:06:40.019Z</time></trkpt><trkpt lat="44.872116" lon="8.4573975"><ele>106.0</ele><time>2026-04-18T09:06:41.019Z</time></trkpt><trkpt lat="44.8720194" lon="8.4576151"><ele>106.0</ele><time>2026-04-18T09:06:42.019Z</time></trkpt><trkpt lat="44.8719226" lon="8.457835"><ele>106.0</ele><time>2026-04-18T09:06:43.018Z</time></trkpt><trkpt lat="44.871829" lon="8.4580564"><ele>106.0</ele><time>2026-04-18T09:06:44.018Z</time></trkpt><trkpt lat="44.8717405" lon="8.4582692"><ele>106.0</ele><time>2026-04-18T09:06:45.019Z</time></trkpt><trkpt lat="44.8716549" lon="8.4584841"><ele>107.33333333333334</ele><time>2026-04-18T09:06:46.019Z</time></trkpt><trkpt lat="44.8715712" lon="8.4587009"><ele>108.66666666666666</ele><time>2026-04-18T09:06:47.019Z</time></trkpt><trkpt lat="44.8714857" lon="8.4589195"><ele>110.0</ele><time>2026-04-18T09:06:48.019Z</time></trkpt><trkpt lat="44.8713984" lon="8.4591422"><ele>110.0</ele><time>2026-04-18T09:06:49.019Z</time></trkpt><trkpt lat="44.8713084" lon="8.4593709"><ele>110.0</ele><time>2026-04-18T09:06:50.019Z</time></trkpt><trkpt lat="44.8712197" lon="8.4596025"><ele>110.0</ele><time>2026-04-18T09:06:51.019Z</time></trkpt><trkpt lat="44.8711274" lon="8.4598399"><ele>110.33333333333333</ele><time>2026-04-18T09:06:52.019Z</time></trkpt><trkpt lat="44.8710337" lon="8.4600778"><ele>110.66666666666666</ele><time>2026-04-18T09:06:53.018Z</time></trkpt><trkpt lat="44.8709389" lon="8.460312"><ele>111.0</ele><time>2026-04-18T09:06:54.018Z</time></trkpt><trkpt lat="44.870843" lon="8.4605446"><ele>112.66666666666666</ele><time>2026-04-18T09:06:55.019Z</time></trkpt><trkpt lat="44.8707495" lon="8.4607739"><ele>114.33333333333333</ele><time>2026-04-18T09:06:56.018Z</time></trkpt><trkpt lat="44.8706589" lon="8.4610008"><ele>116.0</ele><time>2026-04-18T09:06:57.018Z</time></trkpt><trkpt lat="44.8705695" lon="8.4612275"><ele>116.33333333333333</ele><time>2026-04-18T09:06:58.019Z</time></trkpt><trkpt lat="44.8704796" lon="8.4614557"><ele>116.66666666666666</ele><time>2026-04-18T09:06:59.019Z</time></trkpt><trkpt lat="44.8703882" lon="8.4616865"><ele>117.0</ele><time>2026-04-18T09:07:00.019Z</time></trkpt><trkpt lat="44.8702982" lon="8.461917"><ele>117.33333333333334</ele><time>2026-04-18T09:07:01.018Z</time></trkpt><trkpt lat="44.8702106" lon="8.4621485"><ele>117.66666666666667</ele><time>2026-04-18T09:07:02.019Z</time></trkpt><trkpt lat="44.8701256" lon="8.4623878"><ele>118.0</ele><time>2026-04-18T09:07:03.019Z</time></trkpt><trkpt lat="44.8700536" lon="8.4626346"><ele>118.33333333333334</ele><time>2026-04-18T09:07:04.019Z</time></trkpt><trkpt lat="44.8699972" lon="8.4628898"><ele>118.66666666666666</ele><time>2026-04-18T09:07:05.019Z</time></trkpt><trkpt lat="44.8699486" lon="8.4631538"><ele>119.0</ele><time>2026-04-18T09:07:06.018Z</time></trkpt><trkpt lat="44.86991" lon="8.4634296"><ele>119.0</ele><time>2026-04-18T09:07:07.019Z</time></trkpt><trkpt lat="44.8698747" lon="8.4637149"><ele>119.0</ele><time>2026-04-18T09:07:08.019Z</time></trkpt><trkpt lat="44.8698432" lon="8.4640003"><ele>119.0</ele><time>2026-04-18T09:07:09.019Z</time></trkpt><trkpt lat="44.8698088" lon="8.4642915"><ele>118.33333333333333</ele><time>2026-04-18T09:07:10.019Z</time></trkpt><trkpt lat="44.8697744" lon="8.4645884"><ele>117.66666666666666</ele><time>2026-04-18T09:07:11.019Z</time></trkpt><trkpt lat="44.869741" lon="8.4648931"><ele>117.0</ele><time>2026-04-18T09:07:12.018Z</time></trkpt><trkpt lat="44.8697045" lon="8.4652014"><ele>117.0</ele><time>2026-04-18T09:07:13.019Z</time></trkpt><trkpt lat="44.869661" lon="8.4655131"><ele>117.0</ele><time>2026-04-18T09:07:14.019Z</time></trkpt><trkpt lat="44.8696056" lon="8.4658263"><ele>117.0</ele><time>2026-04-18T09:07:15.018Z</time></trkpt><trkpt lat="44.8695416" lon="8.4661385"><ele>117.0</ele><time>2026-04-18T09:07:16.019Z</time></trkpt><trkpt lat="44.8694738" lon="8.466451"><ele>117.0</ele><time>2026-04-18T09:07:17.019Z</time></trkpt><trkpt lat="44.8694064" lon="8.4667607"><ele>117.0</ele><time>2026-04-18T09:07:18.019Z</time></trkpt><trkpt lat="44.8693379" lon="8.4670654"><ele>117.0</ele><time>2026-04-18T09:07:19.018Z</time></trkpt><trkpt lat="44.8692676" lon="8.4673663"><ele>117.0</ele><time>2026-04-18T09:07:20.018Z</time></trkpt><trkpt lat="44.8691884" lon="8.4676603"><ele>117.0</ele><time>2026-04-18T09:07:21.018Z</time></trkpt><trkpt lat="44.8690923" lon="8.4679534"><ele>117.0</ele><time>2026-04-18T09:07:22.019Z</time></trkpt><trkpt lat="44.8689765" lon="8.4682378"><ele>117.0</ele><time>2026-04-18T09:07:23.018Z</time></trkpt><trkpt lat="44.8688427" lon="8.4685126"><ele>117.0</ele><time>2026-04-18T09:07:24.018Z</time></trkpt><trkpt lat="44.8686962" lon="8.4687772"><ele>117.0</ele><time>2026-04-18T09:07:25.018Z</time></trkpt><trkpt lat="44.8685487" lon="8.4690403"><ele>116.5</ele><time>2026-04-18T09:07:26.019Z</time></trkpt><trkpt lat="44.868405" lon="8.4692946"><ele>116.0</ele><time>2026-04-18T09:07:27.019Z</time></trkpt><trkpt lat="44.8682655" lon="8.4695433"><ele>116.0</ele><time>2026-04-18T09:07:28.018Z</time></trkpt><trkpt lat="44.8681353" lon="8.4697855"><ele>116.0</ele><time>2026-04-18T09:07:29.019Z</time></trkpt><trkpt lat="44.8680131" lon="8.470029"><ele>116.0</ele><time>2026-04-18T09:07:30.019Z</time></trkpt><trkpt lat="44.8679028" lon="8.4702819"><ele>116.0</ele><time>2026-04-18T09:07:31.018Z</time></trkpt><trkpt lat="44.8678063" lon="8.4705544"><ele>116.0</ele><time>2026-04-18T09:07:32.018Z</time></trkpt><trkpt lat="44.8677187" lon="8.4708456"><ele>116.0</ele><time>2026-04-18T09:07:33.018Z</time></trkpt><trkpt lat="44.8676376" lon="8.4711559"><ele>114.5</ele><time>2026-04-18T09:07:34.018Z</time></trkpt><trkpt lat="44.8675645" lon="8.4714843"><ele>113.0</ele><time>2026-04-18T09:07:35.018Z</time></trkpt><trkpt lat="44.8675049" lon="8.4718262"><ele>112.0</ele><time>2026-04-18T09:07:36.019Z</time></trkpt><trkpt lat="44.86745" lon="8.4721795"><ele>111.0</ele><time>2026-04-18T09:07:37.019Z</time></trkpt><trkpt lat="44.867396" lon="8.4725414"><ele>111.0</ele><time>2026-04-18T09:07:38.018Z</time></trkpt><trkpt lat="44.8673422" lon="8.47291"><ele>111.0</ele><time>2026-04-18T09:07:39.019Z</time></trkpt><trkpt lat="44.8672892" lon="8.4732784"><ele>111.5</ele><time>2026-04-18T09:07:40.018Z</time></trkpt><trkpt lat="44.8672375" lon="8.4736463"><ele>112.0</ele><time>2026-04-18T09:07:41.019Z</time></trkpt><trkpt lat="44.8671853" lon="8.4740056"><ele>113.5</ele><time>2026-04-18T09:07:42.019Z</time></trkpt><trkpt lat="44.8671332" lon="8.4743603"><ele>115.0</ele><time>2026-04-18T09:07:43.018Z</time></trkpt><trkpt lat="44.867084" lon="8.4747052"><ele>115.5</ele><time>2026-04-18T09:07:44.018Z</time></trkpt><trkpt lat="44.8670332" lon="8.475046"><ele>116.0</ele><time>2026-04-18T09:07:45.019Z</time></trkpt><trkpt lat="44.8669818" lon="8.4753842"><ele>115.5</ele><time>2026-04-18T09:07:46.019Z</time></trkpt><trkpt lat="44.8669316" lon="8.4757206"><ele>115.0</ele><time>2026-04-18T09:07:47.018Z</time></trkpt><trkpt lat="44.8668819" lon="8.4760554"><ele>115.0</ele><time>2026-04-18T09:07:48.019Z</time></trkpt><trkpt lat="44.8668361" lon="8.476388"><ele>115.0</ele><time>2026-04-18T09:07:49.019Z</time></trkpt><trkpt lat="44.8667899" lon="8.476719"><ele>116.0</ele><time>2026-04-18T09:07:50.019Z</time></trkpt><trkpt lat="44.8667455" lon="8.4770475"><ele>117.0</ele><time>2026-04-18T09:07:51.019Z</time></trkpt><trkpt lat="44.8666994" lon="8.4773744"><ele>117.5</ele><time>2026-04-18T09:07:52.019Z</time></trkpt><trkpt lat="44.8666495" lon="8.4777002"><ele>118.0</ele><time>2026-04-18T09:07:53.019Z</time></trkpt><trkpt lat="44.8666021" lon="8.4780279"><ele>117.0</ele><time>2026-04-18T09:07:54.018Z</time></trkpt><trkpt lat="44.8665515" lon="8.4783586"><ele>116.0</ele><time>2026-04-18T09:07:55.019Z</time></trkpt><trkpt lat="44.8665037" lon="8.4786932"><ele>115.5</ele><time>2026-04-18T09:07:56.018Z</time></trkpt><trkpt lat="44.8664561" lon="8.479028"><ele>115.0</ele><time>2026-04-18T09:07:57.019Z</time></trkpt><trkpt lat="44.8664088" lon="8.4793618"><ele>115.0</ele><time>2026-04-18T09:07:58.019Z</time></trkpt><trkpt lat="44.8663608" lon="8.4796928"><ele>115.0</ele><time>2026-04-18T09:07:59.019Z</time></trkpt><trkpt lat="44.8663141" lon="8.4800189"><ele>115.0</ele><time>2026-04-18T09:08:00.019Z</time></trkpt><trkpt lat="44.8662691" lon="8.4803344"><ele>115.0</ele><time>2026-04-18T09:08:01.019Z</time></trkpt><trkpt lat="44.8662254" lon="8.4806391"><ele>115.0</ele><time>2026-04-18T09:08:02.019Z</time></trkpt><trkpt lat="44.8661822" lon="8.4809332"><ele>115.0</ele><time>2026-04-18T09:08:03.019Z</time></trkpt><trkpt lat="44.8661406" lon="8.4812204"><ele>115.0</ele><time>2026-04-18T09:08:04.018Z</time></trkpt><trkpt lat="44.866099" lon="8.481498"><ele>115.0</ele><time>2026-04-18T09:08:05.019Z</time></trkpt><trkpt lat="44.8660564" lon="8.4817606"><ele>115.0</ele><time>2026-04-18T09:08:06.019Z</time></trkpt><trkpt lat="44.8660081" lon="8.4820042"><ele>115.0</ele><time>2026-04-18T09:08:07.019Z</time></trkpt><trkpt lat="44.8659535" lon="8.4822318"><ele>115.0</ele><time>2026-04-18T09:08:08.019Z</time></trkpt><trkpt lat="44.8658885" lon="8.4824461"><ele>115.0</ele><time>2026-04-18T09:08:09.018Z</time></trkpt><trkpt lat="44.8658177" lon="8.4826452"><ele>115.0</ele><time>2026-04-18T09:08:10.019Z</time></trkpt><trkpt lat="44.8657439" lon="8.4828316"><ele>115.0</ele><time>2026-04-18T09:08:11.019Z</time></trkpt><trkpt lat="44.8656649" lon="8.483008"><ele>115.0</ele><time>2026-04-18T09:08:12.019Z</time></trkpt><trkpt lat="44.8655805" lon="8.4831825"><ele>115.0</ele><time>2026-04-18T09:08:13.018Z</time></trkpt><trkpt lat="44.8654885" lon="8.4833514"><ele>115.0</ele><time>2026-04-18T09:08:14.019Z</time></trkpt><trkpt lat="44.8653969" lon="8.4835001"><ele>115.0</ele><time>2026-04-18T09:08:15.019Z</time></trkpt><trkpt lat="44.8653155" lon="8.4836205"><ele>115.0</ele><time>2026-04-18T09:08:16.018Z</time></trkpt><trkpt lat="44.8652362" lon="8.4837279"><ele>115.0</ele><time>2026-04-18T09:08:17.018Z</time></trkpt><trkpt lat="44.8651586" lon="8.4838263"><ele>115.0</ele><time>2026-04-18T09:08:18.018Z</time></trkpt><trkpt lat="44.8650815" lon="8.4839223"><ele>115.0</ele><time>2026-04-18T09:08:19.019Z</time></trkpt><trkpt lat="44.8650018" lon="8.4840175"><ele>115.0</ele><time>2026-04-18T09:08:20.019Z</time></trkpt><trkpt lat="44.8649206" lon="8.48411"><ele>115.25</ele><time>2026-04-18T09:08:21.019Z</time></trkpt><trkpt lat="44.8648348" lon="8.4842035"><ele>115.5</ele><time>2026-04-18T09:08:22.018Z</time></trkpt><trkpt lat="44.8647415" lon="8.4842968"><ele>115.75</ele><time>2026-04-18T09:08:23.018Z</time></trkpt><trkpt lat="44.8646422" lon="8.4843887"><ele>116.0</ele><time>2026-04-18T09:08:24.018Z</time></trkpt><trkpt lat="44.8645397" lon="8.4844818"><ele>116.0</ele><time>2026-04-18T09:08:25.019Z</time></trkpt><trkpt lat="44.864437" lon="8.4845751"><ele>116.0</ele><time>2026-04-18T09:08:26.019Z</time></trkpt><trkpt lat="44.8643356" lon="8.4846655"><ele>116.0</ele><time>2026-04-18T09:08:27.018Z</time></trkpt><trkpt lat="44.8642354" lon="8.4847511"><ele>116.0</ele><time>2026-04-18T09:08:28.019Z</time></trkpt><trkpt lat="44.8641385" lon="8.4848363"><ele>115.75</ele><time>2026-04-18T09:08:29.018Z</time></trkpt><trkpt lat="44.8640377" lon="8.4849229"><ele>115.5</ele><time>2026-04-18T09:08:30.018Z</time></trkpt><trkpt lat="44.8639329" lon="8.4850133"><ele>115.25</ele><time>2026-04-18T09:08:31.019Z</time></trkpt><trkpt lat="44.8638227" lon="8.4851021"><ele>115.0</ele><time>2026-04-18T09:08:32.018Z</time></trkpt><trkpt lat="44.8637106" lon="8.485195"><ele>115.0</ele><time>2026-04-18T09:08:33.019Z</time></trkpt><trkpt lat="44.8635991" lon="8.4852869"><ele>115.0</ele><time>2026-04-18T09:08:34.019Z</time></trkpt><trkpt lat="44.8634915" lon="8.4853796"><ele>115.0</ele><time>2026-04-18T09:08:35.019Z</time></trkpt><trkpt lat="44.8633856" lon="8.4854662"><ele>115.0</ele><time>2026-04-18T09:08:36.018Z</time></trkpt><trkpt lat="44.8632878" lon="8.4855491"><ele>114.6</ele><time>2026-04-18T09:08:37.019Z</time></trkpt><trkpt lat="44.8631964" lon="8.4856234"><ele>114.2</ele><time>2026-04-18T09:08:38.018Z</time></trkpt><trkpt lat="44.8631185" lon="8.4856919"><ele>113.80000000000001</ele><time>2026-04-18T09:08:39.018Z</time></trkpt><trkpt lat="44.8630623" lon="8.4857531"><ele>113.4</ele><time>2026-04-18T09:08:40.018Z</time></trkpt><trkpt lat="44.8630176" lon="8.4859185"><ele>113.0</ele><time>2026-04-18T09:08:42.019Z</time></trkpt><trkpt lat="44.8630309" lon="8.4860326"><ele>113.0</ele><time>2026-04-18T09:08:43.018Z</time></trkpt><trkpt lat="44.8630607" lon="8.4861623"><ele>113.00000000000001</ele><time>2026-04-18T09:08:44.019Z</time></trkpt><trkpt lat="44.8631027" lon="8.4863044"><ele>113.00000000000001</ele><time>2026-04-18T09:08:45.019Z</time></trkpt><trkpt lat="44.8631501" lon="8.4864587"><ele>113.0</ele><time>2026-04-18T09:08:46.019Z</time></trkpt><trkpt lat="44.8631986" lon="8.4866171"><ele>113.0</ele><time>2026-04-18T09:08:47.019Z</time></trkpt><trkpt lat="44.8632429" lon="8.4867763"><ele>113.0</ele><time>2026-04-18T09:08:48.018Z</time></trkpt><trkpt lat="44.8632856" lon="8.486931"><ele>113.0</ele><time>2026-04-18T09:08:49.018Z</time></trkpt><trkpt lat="44.8633207" lon="8.4870859"><ele>113.0</ele><time>2026-04-18T09:08:50.019Z</time></trkpt><trkpt lat="44.8633452" lon="8.4872423"><ele>113.0</ele><time>2026-04-18T09:08:51.019Z</time></trkpt><trkpt lat="44.8633623" lon="8.4873987"><ele>112.80000000000001</ele><time>2026-04-18T09:08:52.018Z</time></trkpt><trkpt lat="44.8633749" lon="8.4875507"><ele>112.60000000000001</ele><time>2026-04-18T09:08:53.019Z</time></trkpt><trkpt lat="44.8633825" lon="8.4876954"><ele>112.39999999999999</ele><time>2026-04-18T09:08:54.018Z</time></trkpt><trkpt lat="44.8633881" lon="8.4878217"><ele>112.19999999999999</ele><time>2026-04-18T09:08:55.018Z</time></trkpt><trkpt lat="44.8633895" lon="8.4879392"><ele>112.0</ele><time>2026-04-18T09:08:56.019Z</time></trkpt><trkpt lat="44.8633881" lon="8.4880482"><ele>111.39999999999999</ele><time>2026-04-18T09:08:57.018Z</time></trkpt><trkpt lat="44.863382" lon="8.4881597"><ele>110.79999999999998</ele><time>2026-04-18T09:08:58.019Z</time></trkpt><trkpt lat="44.8633702" lon="8.4882782"><ele>110.2</ele><time>2026-04-18T09:08:59.019Z</time></trkpt><trkpt lat="44.8633576" lon="8.4884082"><ele>109.6</ele><time>2026-04-18T09:09:00.018Z</time></trkpt><trkpt lat="44.8633496" lon="8.4885455"><ele>109.0</ele><time>2026-04-18T09:09:01.019Z</time></trkpt><trkpt lat="44.8633396" lon="8.4886842"><ele>108.6</ele><time>2026-04-18T09:09:02.019Z</time></trkpt><trkpt lat="44.8633316" lon="8.4888261"><ele>108.2</ele><time>2026-04-18T09:09:03.019Z</time></trkpt><trkpt lat="44.8633316" lon="8.4889728"><ele>107.79999999999998</ele><time>2026-04-18T09:09:04.019Z</time></trkpt><trkpt lat="44.8633306" lon="8.4891296"><ele>107.39999999999999</ele><time>2026-04-18T09:09:05.019Z</time></trkpt><trkpt lat="44.8633244" lon="8.4892919"><ele>107.0</ele><time>2026-04-18T09:09:06.019Z</time></trkpt><trkpt lat="44.8633101" lon="8.4894558"><ele>106.5</ele><time>2026-04-18T09:09:07.019Z</time></trkpt><trkpt lat="44.8632851" lon="8.4896262"><ele>106.0</ele><time>2026-04-18T09:09:08.018Z</time></trkpt><trkpt lat="44.8632463" lon="8.4897969"><ele>105.5</ele><time>2026-04-18T09:09:09.019Z</time></trkpt><trkpt lat="44.8631906" lon="8.4899594"><ele>105.0</ele><time>2026-04-18T09:09:10.019Z</time></trkpt><trkpt lat="44.8631149" lon="8.4901042"><ele>105.0</ele><time>2026-04-18T09:09:11.019Z</time></trkpt><trkpt lat="44.8630233" lon="8.4902368"><ele>105.0</ele><time>2026-04-18T09:09:12.019Z</time></trkpt><trkpt lat="44.8629226" lon="8.4903622"><ele>105.0</ele><time>2026-04-18T09:09:13.019Z</time></trkpt><trkpt lat="44.8628164" lon="8.4904872"><ele>105.0</ele><time>2026-04-18T09:09:14.019Z</time></trkpt><trkpt lat="44.8627115" lon="8.4906102"><ele>104.25</ele><time>2026-04-18T09:09:15.019Z</time></trkpt><trkpt lat="44.8626101" lon="8.4907333"><ele>103.5</ele><time>2026-04-18T09:09:16.018Z</time></trkpt><trkpt lat="44.8625071" lon="8.4908574"><ele>102.75</ele><time>2026-04-18T09:09:17.019Z</time></trkpt><trkpt lat="44.8623987" lon="8.4909845"><ele>102.0</ele><time>2026-04-18T09:09:18.019Z</time></trkpt><trkpt lat="44.8622855" lon="8.49112"><ele>102.0</ele><time>2026-04-18T09:09:19.018Z</time></trkpt><trkpt lat="44.8621705" lon="8.4912569"><ele>102.0</ele><time>2026-04-18T09:09:20.018Z</time></trkpt><trkpt lat="44.8620593" lon="8.49139"><ele>102.0</ele><time>2026-04-18T09:09:21.019Z</time></trkpt><trkpt lat="44.8619533" lon="8.4915214"><ele>102.0</ele><time>2026-04-18T09:09:22.019Z</time></trkpt><trkpt lat="44.8618463" lon="8.4916543"><ele>101.75</ele><time>2026-04-18T09:09:23.018Z</time></trkpt><trkpt lat="44.8617418" lon="8.4917848"><ele>101.5</ele><time>2026-04-18T09:09:24.018Z</time></trkpt><trkpt lat="44.8616384" lon="8.4919148"><ele>101.25</ele><time>2026-04-18T09:09:25.018Z</time></trkpt><trkpt lat="44.8615343" lon="8.4920439"><ele>101.0</ele><time>2026-04-18T09:09:26.018Z</time></trkpt><trkpt lat="44.8614319" lon="8.4921714"><ele>100.0</ele><time>2026-04-18T09:09:27.019Z</time></trkpt><trkpt lat="44.8613294" lon="8.4922984"><ele>99.0</ele><time>2026-04-18T09:09:28.019Z</time></trkpt><trkpt lat="44.861223" lon="8.4924299"><ele>98.0</ele><time>2026-04-18T09:09:29.018Z</time></trkpt><trkpt lat="44.8611142" lon="8.4925649"><ele>97.0</ele><time>2026-04-18T09:09:30.019Z</time></trkpt><trkpt lat="44.8610069" lon="8.492699"><ele>97.25</ele><time>2026-04-18T09:09:31.018Z</time></trkpt><trkpt lat="44.8609" lon="8.492835"><ele>97.5</ele><time>2026-04-18T09:09:32.019Z</time></trkpt><trkpt lat="44.8607942" lon="8.4929676"><ele>97.75</ele><time>2026-04-18T09:09:33.019Z</time></trkpt><trkpt lat="44.8606901" lon="8.4930992"><ele>98.0</ele><time>2026-04-18T09:09:34.018Z</time></trkpt><trkpt lat="44.8605857" lon="8.49323"><ele>99.0</ele><time>2026-04-18T09:09:35.018Z</time></trkpt><trkpt lat="44.8604787" lon="8.4933587"><ele>100.0</ele><time>2026-04-18T09:09:36.018Z</time></trkpt><trkpt lat="44.8603737" lon="8.4934852"><ele>101.0</ele><time>2026-04-18T09:09:37.018Z</time></trkpt><trkpt lat="44.8602649" lon="8.4936019"><ele>102.0</ele><time>2026-04-18T09:09:38.019Z</time></trkpt><trkpt lat="44.8601502" lon="8.4937108"><ele>102.5</ele><time>2026-04-18T09:09:39.019Z</time></trkpt><trkpt lat="44.8600281" lon="8.4938073"><ele>103.0</ele><time>2026-04-18T09:09:40.018Z</time></trkpt><trkpt lat="44.8598982" lon="8.4938979"><ele>103.5</ele><time>2026-04-18T09:09:41.019Z</time></trkpt><trkpt lat="44.8597648" lon="8.4939851"><ele>104.0</ele><time>2026-04-18T09:09:42.019Z</time></trkpt><trkpt lat="44.8596298" lon="8.4940691"><ele>104.0</ele><time>2026-04-18T09:09:43.018Z</time></trkpt><trkpt lat="44.8594963" lon="8.4941597"><ele>104.0</ele><time>2026-04-18T09:09:44.018Z</time></trkpt><trkpt lat="44.859372" lon="8.4942652"><ele>104.0</ele><time>2026-04-18T09:09:45.018Z</time></trkpt><trkpt lat="44.8592578" lon="8.4943904"><ele>104.0</ele><time>2026-04-18T09:09:46.018Z</time></trkpt><trkpt lat="44.859151" lon="8.4945221"><ele>103.5</ele><time>2026-04-18T09:09:47.019Z</time></trkpt><trkpt lat="44.8590503" lon="8.4946539"><ele>103.0</ele><time>2026-04-18T09:09:48.019Z</time></trkpt><trkpt lat="44.8589485" lon="8.4947835"><ele>102.5</ele><time>2026-04-18T09:09:49.019Z</time></trkpt><trkpt lat="44.8588452" lon="8.4949192"><ele>102.0</ele><time>2026-04-18T09:09:50.019Z</time></trkpt><trkpt lat="44.8587392" lon="8.4950577"><ele>102.0</ele><time>2026-04-18T09:09:51.019Z</time></trkpt><trkpt lat="44.8586368" lon="8.49519"><ele>102.0</ele><time>2026-04-18T09:09:52.018Z</time></trkpt><trkpt lat="44.858549" lon="8.4953029"><ele>102.0</ele><time>2026-04-18T09:09:53.019Z</time></trkpt><trkpt lat="44.8584697" lon="8.4954047"><ele>102.0</ele><time>2026-04-18T09:09:54.019Z</time></trkpt><trkpt lat="44.8583909" lon="8.4955053"><ele>102.0</ele><time>2026-04-18T09:09:55.019Z</time></trkpt><trkpt lat="44.8583081" lon="8.4956128"><ele>102.0</ele><time>2026-04-18T09:09:56.018Z</time></trkpt><trkpt lat="44.8582158" lon="8.4957306"><ele>102.0</ele><time>2026-04-18T09:09:57.019Z</time></trkpt><trkpt lat="44.8581176" lon="8.4958582"><ele>102.0</ele><time>2026-04-18T09:09:58.019Z</time></trkpt><trkpt lat="44.8580135" lon="8.4959935"><ele>102.0</ele><time>2026-04-18T09:09:59.019Z</time></trkpt><trkpt lat="44.8579045" lon="8.4961358"><ele>102.0</ele><time>2026-04-18T09:10:00.019Z</time></trkpt><trkpt lat="44.8577912" lon="8.4962835"><ele>102.0</ele><time>2026-04-18T09:10:01.019Z</time></trkpt><trkpt lat="44.8576719" lon="8.496437"><ele>101.66666666666666</ele><time>2026-04-18T09:10:02.018Z</time></trkpt><trkpt lat="44.8575476" lon="8.4965956"><ele>101.33333333333333</ele><time>2026-04-18T09:10:03.018Z</time></trkpt><trkpt lat="44.8574208" lon="8.4967615"><ele>101.0</ele><time>2026-04-18T09:10:04.019Z</time></trkpt><trkpt lat="44.8572942" lon="8.4969295"><ele>101.0</ele><time>2026-04-18T09:10:05.018Z</time></trkpt><trkpt lat="44.8571641" lon="8.4970975"><ele>101.0</ele><time>2026-04-18T09:10:06.018Z</time></trkpt><trkpt lat="44.8570352" lon="8.4972643"><ele>101.0</ele><time>2026-04-18T09:10:07.019Z</time></trkpt><trkpt lat="44.8569049" lon="8.4974312"><ele>101.0</ele><time>2026-04-18T09:10:08.019Z</time></trkpt><trkpt lat="44.856773" lon="8.4976004"><ele>101.0</ele><time>2026-04-18T09:10:09.018Z</time></trkpt><trkpt lat="44.8566389" lon="8.497774"><ele>101.0</ele><time>2026-04-18T09:10:10.019Z</time></trkpt><trkpt lat="44.8565009" lon="8.4979499"><ele>101.0</ele><time>2026-04-18T09:10:11.018Z</time></trkpt><trkpt lat="44.8563608" lon="8.4981259"><ele>101.0</ele><time>2026-04-18T09:10:12.019Z</time></trkpt><trkpt lat="44.8562207" lon="8.4983033"><ele>101.0</ele><time>2026-04-18T09:10:13.018Z</time></trkpt><trkpt lat="44.8560847" lon="8.4984853"><ele>101.0</ele><time>2026-04-18T09:10:14.019Z</time></trkpt><trkpt lat="44.8559621" lon="8.4986806"><ele>101.0</ele><time>2026-04-18T09:10:15.019Z</time></trkpt><trkpt lat="44.8558565" lon="8.4989013"><ele>101.0</ele><time>2026-04-18T09:10:16.019Z</time></trkpt><trkpt lat="44.8557664" lon="8.4991461"><ele>101.0</ele><time>2026-04-18T09:10:17.018Z</time></trkpt><trkpt lat="44.8556817" lon="8.4993965"><ele>101.0</ele><time>2026-04-18T09:10:18.018Z</time></trkpt><trkpt lat="44.8555973" lon="8.4996534"><ele>101.0</ele><time>2026-04-18T09:10:19.019Z</time></trkpt><trkpt lat="44.8555069" lon="8.4999176"><ele>100.66666666666666</ele><time>2026-04-18T09:10:20.018Z</time></trkpt><trkpt lat="44.855414" lon="8.5001885"><ele>100.33333333333334</ele><time>2026-04-18T09:10:21.018Z</time></trkpt><trkpt lat="44.8553193" lon="8.5004612"><ele>100.0</ele><time>2026-04-18T09:10:22.018Z</time></trkpt><trkpt lat="44.8552235" lon="8.5007412"><ele>100.0</ele><time>2026-04-18T09:10:23.019Z</time></trkpt><trkpt lat="44.8551276" lon="8.5010239"><ele>100.0</ele><time>2026-04-18T09:10:24.018Z</time></trkpt><trkpt lat="44.8550328" lon="8.5013046"><ele>100.0</ele><time>2026-04-18T09:10:25.019Z</time></trkpt><trkpt lat="44.8549389" lon="8.5015859"><ele>100.66666666666667</ele><time>2026-04-18T09:10:26.018Z</time></trkpt><trkpt lat="44.8548462" lon="8.5018636"><ele>101.33333333333334</ele><time>2026-04-18T09:10:27.019Z</time></trkpt><trkpt lat="44.8547535" lon="8.5021427"><ele>102.0</ele><time>2026-04-18T09:10:28.019Z</time></trkpt><trkpt lat="44.8546611" lon="8.5024113"><ele>102.0</ele><time>2026-04-18T09:10:29.019Z</time></trkpt><trkpt lat="44.854572" lon="8.5026673"><ele>102.0</ele><time>2026-04-18T09:10:30.019Z</time></trkpt><trkpt lat="44.8544866" lon="8.5029158"><ele>102.0</ele><time>2026-04-18T09:10:31.019Z</time></trkpt><trkpt lat="44.8544028" lon="8.5031596"><ele>101.33333333333334</ele><time>2026-04-18T09:10:32.018Z</time></trkpt><trkpt lat="44.8543176" lon="8.503408"><ele>100.66666666666667</ele><time>2026-04-18T09:10:33.018Z</time></trkpt><trkpt lat="44.8542328" lon="8.5036606"><ele>100.0</ele><time>2026-04-18T09:10:34.019Z</time></trkpt><trkpt lat="44.8541468" lon="8.5039137"><ele>102.0</ele><time>2026-04-18T09:10:35.019Z</time></trkpt><trkpt lat="44.85406" lon="8.5041681"><ele>104.0</ele><time>2026-04-18T09:10:36.018Z</time></trkpt><trkpt lat="44.8539751" lon="8.5044218"><ele>106.0</ele><time>2026-04-18T09:10:37.018Z</time></trkpt><trkpt lat="44.8538944" lon="8.5046781"><ele>107.33333333333334</ele><time>2026-04-18T09:10:38.018Z</time></trkpt><trkpt lat="44.8538098" lon="8.5049289"><ele>108.66666666666666</ele><time>2026-04-18T09:10:39.019Z</time></trkpt><trkpt lat="44.8537293" lon="8.5051665"><ele>110.0</ele><time>2026-04-18T09:10:40.019Z</time></trkpt><trkpt lat="44.8536474" lon="8.5053942"><ele>109.66666666666666</ele><time>2026-04-18T09:10:41.018Z</time></trkpt><trkpt lat="44.853561" lon="8.5056098"><ele>109.33333333333334</ele><time>2026-04-18T09:10:42.019Z</time></trkpt><trkpt lat="44.8534629" lon="8.5058167"><ele>109.0</ele><time>2026-04-18T09:10:43.018Z</time></trkpt><trkpt lat="44.8533557" lon="8.5060253"><ele>109.66666666666667</ele><time>2026-04-18T09:10:44.019Z</time></trkpt><trkpt lat="44.8532516" lon="8.5062454"><ele>110.33333333333334</ele><time>2026-04-18T09:10:45.018Z</time></trkpt><trkpt lat="44.8531583" lon="8.5064835"><ele>111.0</ele><time>2026-04-18T09:10:46.019Z</time></trkpt><trkpt lat="44.8530694" lon="8.5067341"><ele>111.0</ele><time>2026-04-18T09:10:47.019Z</time></trkpt><trkpt lat="44.8529866" lon="8.5069953"><ele>111.0</ele><time>2026-04-18T09:10:48.019Z</time></trkpt><trkpt lat="44.8529124" lon="8.5072618"><ele>111.0</ele><time>2026-04-18T09:10:49.019Z</time></trkpt><trkpt lat="44.8528496" lon="8.5075284"><ele>110.66666666666666</ele><time>2026-04-18T09:10:50.019Z</time></trkpt><trkpt lat="44.8527974" lon="8.5077937"><ele>110.33333333333333</ele><time>2026-04-18T09:10:51.018Z</time></trkpt><trkpt lat="44.8527521" lon="8.5080575"><ele>110.0</ele><time>2026-04-18T09:10:52.018Z</time></trkpt><trkpt lat="44.8527116" lon="8.5083241"><ele>110.0</ele><time>2026-04-18T09:10:53.019Z</time></trkpt><trkpt lat="44.8526684" lon="8.5085928"><ele>110.0</ele><time>2026-04-18T09:10:54.018Z</time></trkpt><trkpt lat="44.85262" lon="8.508867"><ele>110.0</ele><time>2026-04-18T09:10:55.019Z</time></trkpt><trkpt lat="44.8525643" lon="8.5091446"><ele>110.66666666666666</ele><time>2026-04-18T09:10:56.018Z</time></trkpt><trkpt lat="44.8524985" lon="8.5094229"><ele>111.33333333333334</ele><time>2026-04-18T09:10:57.019Z</time></trkpt><trkpt lat="44.8524261" lon="8.509699"><ele>112.0</ele><time>2026-04-18T09:10:58.019Z</time></trkpt><trkpt lat="44.8523514" lon="8.5099753"><ele>112.0</ele><time>2026-04-18T09:10:59.019Z</time></trkpt><trkpt lat="44.8522828" lon="8.5102491"><ele>112.0</ele><time>2026-04-18T09:11:00.018Z</time></trkpt><trkpt lat="44.8522252" lon="8.5105184"><ele>112.0</ele><time>2026-04-18T09:11:01.019Z</time></trkpt><trkpt lat="44.8521758" lon="8.5107861"><ele>112.0</ele><time>2026-04-18T09:11:02.018Z</time></trkpt><trkpt lat="44.8521301" lon="8.5110464"><ele>112.0</ele><time>2026-04-18T09:11:03.018Z</time></trkpt><trkpt lat="44.8520828" lon="8.5113013"><ele>112.0</ele><time>2026-04-18T09:11:04.019Z</time></trkpt><trkpt lat="44.852034" lon="8.5115487"><ele>112.0</ele><time>2026-04-18T09:11:05.018Z</time></trkpt><trkpt lat="44.8519865" lon="8.5117907"><ele>112.0</ele><time>2026-04-18T09:11:06.018Z</time></trkpt><trkpt lat="44.8519403" lon="8.5120258"><ele>112.0</ele><time>2026-04-18T09:11:07.018Z</time></trkpt><trkpt lat="44.8518947" lon="8.5122519"><ele>112.0</ele><time>2026-04-18T09:11:08.019Z</time></trkpt><trkpt lat="44.8518513" lon="8.5124638"><ele>112.0</ele><time>2026-04-18T09:11:09.019Z</time></trkpt><trkpt lat="44.8518123" lon="8.5126584"><ele>112.0</ele><time>2026-04-18T09:11:10.018Z</time></trkpt><trkpt lat="44.8517777" lon="8.512823"><ele>112.0</ele><time>2026-04-18T09:11:11.019Z</time></trkpt><trkpt lat="44.851746" lon="8.5129537"><ele>111.83333333333334</ele><time>2026-04-18T09:11:12.018Z</time></trkpt><trkpt lat="44.851712" lon="8.5130535"><ele>111.66666666666667</ele><time>2026-04-18T09:11:13.018Z</time></trkpt><trkpt lat="44.8516766" lon="8.5131289"><ele>111.5</ele><time>2026-04-18T09:11:14.019Z</time></trkpt><trkpt lat="44.8516198" lon="8.5132357"><ele>111.33333333333334</ele><time>2026-04-18T09:11:16.018Z</time></trkpt><trkpt lat="44.8515813" lon="8.5133131"><ele>111.16666666666667</ele><time>2026-04-18T09:11:23.019Z</time></trkpt><trkpt lat="44.8515348" lon="8.5134404"><ele>111.0</ele><time>2026-04-18T09:11:25.018Z</time></trkpt><trkpt lat="44.8515219" lon="8.5135488"><ele>111.0</ele><time>2026-04-18T09:11:26.019Z</time></trkpt><trkpt lat="44.8515187" lon="8.513672"><ele>111.0</ele><time>2026-04-18T09:11:27.018Z</time></trkpt><trkpt lat="44.8515174" lon="8.5138142"><ele>111.0</ele><time>2026-04-18T09:11:28.019Z</time></trkpt><trkpt lat="44.8515147" lon="8.5139833"><ele>111.0</ele><time>2026-04-18T09:11:29.019Z</time></trkpt><trkpt lat="44.8514999" lon="8.5141707"><ele>111.0</ele><time>2026-04-18T09:11:30.018Z</time></trkpt><trkpt lat="44.8514742" lon="8.5143579"><ele>111.0</ele><time>2026-04-18T09:11:31.019Z</time></trkpt><trkpt lat="44.851442" lon="8.5145454"><ele>111.0</ele><time>2026-04-18T09:11:32.019Z</time></trkpt><trkpt lat="44.8514066" lon="8.5147274"><ele>111.0</ele><time>2026-04-18T09:11:33.018Z</time></trkpt><trkpt lat="44.8513706" lon="8.514913"><ele>111.0</ele><time>2026-04-18T09:11:34.019Z</time></trkpt><trkpt lat="44.8513318" lon="8.5151097"><ele>110.66666666666666</ele><time>2026-04-18T09:11:35.019Z</time></trkpt><trkpt lat="44.851291" lon="8.5153165"><ele>110.33333333333333</ele><time>2026-04-18T09:11:36.019Z</time></trkpt><trkpt lat="44.8512489" lon="8.5155293"><ele>110.0</ele><time>2026-04-18T09:11:37.018Z</time></trkpt><trkpt lat="44.8512054" lon="8.515748"><ele>110.0</ele><time>2026-04-18T09:11:38.019Z</time></trkpt><trkpt lat="44.851163" lon="8.5159726"><ele>110.0</ele><time>2026-04-18T09:11:39.018Z</time></trkpt><trkpt lat="44.8511184" lon="8.5162041"><ele>110.0</ele><time>2026-04-18T09:11:40.019Z</time></trkpt><trkpt lat="44.8510708" lon="8.5164442"><ele>110.0</ele><time>2026-04-18T09:11:41.019Z</time></trkpt><trkpt lat="44.8510217" lon="8.5166903"><ele>110.0</ele><time>2026-04-18T09:11:42.019Z</time></trkpt><trkpt lat="44.8509735" lon="8.5169326"><ele>110.0</ele><time>2026-04-18T09:11:43.019Z</time></trkpt><trkpt lat="44.8509254" lon="8.5171812"><ele>110.0</ele><time>2026-04-18T09:11:44.019Z</time></trkpt><trkpt lat="44.8508771" lon="8.517433"><ele>110.0</ele><time>2026-04-18T09:11:45.019Z</time></trkpt><trkpt lat="44.8508294" lon="8.5176815"><ele>110.0</ele><time>2026-04-18T09:11:46.018Z</time></trkpt><trkpt lat="44.850785" lon="8.5179266"><ele>109.33333333333333</ele><time>2026-04-18T09:11:47.019Z</time></trkpt><trkpt lat="44.8507383" lon="8.5181695"><ele>108.66666666666666</ele><time>2026-04-18T09:11:48.019Z</time></trkpt><trkpt lat="44.8506904" lon="8.5184137"><ele>108.0</ele><time>2026-04-18T09:11:49.018Z</time></trkpt><trkpt lat="44.8506419" lon="8.5186607"><ele>108.0</ele><time>2026-04-18T09:11:50.019Z</time></trkpt><trkpt lat="44.8505941" lon="8.5189105"><ele>108.0</ele><time>2026-04-18T09:11:51.019Z</time></trkpt><trkpt lat="44.8505487" lon="8.5191613"><ele>108.0</ele><time>2026-04-18T09:11:52.019Z</time></trkpt><trkpt lat="44.8505105" lon="8.5194117"><ele>108.33333333333334</ele><time>2026-04-18T09:11:53.018Z</time></trkpt><trkpt lat="44.8504832" lon="8.5196595"><ele>108.66666666666667</ele><time>2026-04-18T09:11:54.019Z</time></trkpt><trkpt lat="44.8504724" lon="8.5199102"><ele>109.0</ele><time>2026-04-18T09:11:55.019Z</time></trkpt><trkpt lat="44.8504837" lon="8.520158"><ele>108.66666666666667</ele><time>2026-04-18T09:11:56.019Z</time></trkpt><trkpt lat="44.8505181" lon="8.5204064"><ele>108.33333333333334</ele><time>2026-04-18T09:11:57.018Z</time></trkpt><trkpt lat="44.850579" lon="8.520651"><ele>108.0</ele><time>2026-04-18T09:11:58.018Z</time></trkpt><trkpt lat="44.8506533" lon="8.520893"><ele>108.0</ele><time>2026-04-18T09:11:59.019Z</time></trkpt><trkpt lat="44.8507345" lon="8.5211323"><ele>108.0</ele><time>2026-04-18T09:12:00.019Z</time></trkpt><trkpt lat="44.8508171" lon="8.5213721"><ele>108.0</ele><time>2026-04-18T09:12:01.018Z</time></trkpt><trkpt lat="44.850896" lon="8.5216038"><ele>108.0</ele><time>2026-04-18T09:12:02.019Z</time></trkpt><trkpt lat="44.8509737" lon="8.5218294"><ele>108.0</ele><time>2026-04-18T09:12:03.018Z</time></trkpt><trkpt lat="44.8510511" lon="8.5220526"><ele>108.0</ele><time>2026-04-18T09:12:04.018Z</time></trkpt><trkpt lat="44.8511281" lon="8.5222761"><ele>108.0</ele><time>2026-04-18T09:12:05.018Z</time></trkpt><trkpt lat="44.8511991" lon="8.5225054"><ele>108.0</ele><time>2026-04-18T09:12:06.018Z</time></trkpt><trkpt lat="44.8512605" lon="8.522747"><ele>108.0</ele><time>2026-04-18T09:12:07.019Z</time></trkpt><trkpt lat="44.8513148" lon="8.5229941"><ele>108.33333333333334</ele><time>2026-04-18T09:12:08.019Z</time></trkpt><trkpt lat="44.8513642" lon="8.5232366"><ele>108.66666666666667</ele><time>2026-04-18T09:12:09.018Z</time></trkpt><trkpt lat="44.8514145" lon="8.5234796"><ele>109.0</ele><time>2026-04-18T09:12:10.018Z</time></trkpt><trkpt lat="44.8514629" lon="8.5237191"><ele>108.33333333333334</ele><time>2026-04-18T09:12:11.019Z</time></trkpt><trkpt lat="44.8515102" lon="8.5239583"><ele>107.66666666666666</ele><time>2026-04-18T09:12:12.018Z</time></trkpt><trkpt lat="44.8515568" lon="8.5241939"><ele>107.0</ele><time>2026-04-18T09:12:13.018Z</time></trkpt><trkpt lat="44.8516038" lon="8.5244272"><ele>107.66666666666666</ele><time>2026-04-18T09:12:14.019Z</time></trkpt><trkpt lat="44.8516497" lon="8.5246571"><ele>108.33333333333334</ele><time>2026-04-18T09:12:15.018Z</time></trkpt><trkpt lat="44.8516986" lon="8.5248847"><ele>109.0</ele><time>2026-04-18T09:12:16.019Z</time></trkpt><trkpt lat="44.8517458" lon="8.5251169"><ele>109.0</ele><time>2026-04-18T09:12:17.019Z</time></trkpt><trkpt lat="44.8517896" lon="8.5253604"><ele>109.0</ele><time>2026-04-18T09:12:18.019Z</time></trkpt><trkpt lat="44.8518281" lon="8.5256136"><ele>109.0</ele><time>2026-04-18T09:12:19.019Z</time></trkpt><trkpt lat="44.8518565" lon="8.525878"><ele>108.66666666666667</ele><time>2026-04-18T09:12:20.019Z</time></trkpt><trkpt lat="44.8518769" lon="8.5261535"><ele>108.33333333333334</ele><time>2026-04-18T09:12:21.018Z</time></trkpt><trkpt lat="44.8518964" lon="8.5264285"><ele>108.0</ele><time>2026-04-18T09:12:22.018Z</time></trkpt><trkpt lat="44.8519167" lon="8.5267019"><ele>107.66666666666666</ele><time>2026-04-18T09:12:23.019Z</time></trkpt><trkpt lat="44.8519353" lon="8.5269777"><ele>107.33333333333333</ele><time>2026-04-18T09:12:24.018Z</time></trkpt><trkpt lat="44.8519533" lon="8.5272568"><ele>107.0</ele><time>2026-04-18T09:12:25.018Z</time></trkpt><trkpt lat="44.8519724" lon="8.5275389"><ele>107.0</ele><time>2026-04-18T09:12:26.019Z</time></trkpt><trkpt lat="44.8519884" lon="8.5278211"><ele>107.0</ele><time>2026-04-18T09:12:27.019Z</time></trkpt><trkpt lat="44.8520046" lon="8.5281023"><ele>107.0</ele><time>2026-04-18T09:12:28.019Z</time></trkpt><trkpt lat="44.8520184" lon="8.5283852"><ele>106.66666666666666</ele><time>2026-04-18T09:12:29.019Z</time></trkpt><trkpt lat="44.8520256" lon="8.5286679"><ele>106.33333333333334</ele><time>2026-04-18T09:12:30.018Z</time></trkpt><trkpt lat="44.8520262" lon="8.5289549"><ele>106.0</ele><time>2026-04-18T09:12:31.019Z</time></trkpt><trkpt lat="44.8520275" lon="8.5292418"><ele>106.0</ele><time>2026-04-18T09:12:32.019Z</time></trkpt><trkpt lat="44.8520288" lon="8.5295315"><ele>106.0</ele><time>2026-04-18T09:12:33.019Z</time></trkpt><trkpt lat="44.8520281" lon="8.5298264"><ele>106.0</ele><time>2026-04-18T09:12:34.018Z</time></trkpt><trkpt lat="44.8520263" lon="8.5301205"><ele>106.0</ele><time>2026-04-18T09:12:35.019Z</time></trkpt><trkpt lat="44.8520259" lon="8.5304201"><ele>106.0</ele><time>2026-04-18T09:12:36.018Z</time></trkpt><trkpt lat="44.8520248" lon="8.5307203"><ele>106.0</ele><time>2026-04-18T09:12:37.019Z</time></trkpt><trkpt lat="44.8520226" lon="8.5310208"><ele>106.33333333333334</ele><time>2026-04-18T09:12:38.019Z</time></trkpt><trkpt lat="44.8520205" lon="8.5313242"><ele>106.66666666666666</ele><time>2026-04-18T09:12:39.019Z</time></trkpt><trkpt lat="44.8520217" lon="8.5316269"><ele>107.0</ele><time>2026-04-18T09:12:40.019Z</time></trkpt><trkpt lat="44.8520204" lon="8.5319297"><ele>106.66666666666666</ele><time>2026-04-18T09:12:41.019Z</time></trkpt><trkpt lat="44.8520176" lon="8.532235"><ele>106.33333333333334</ele><time>2026-04-18T09:12:42.018Z</time></trkpt><trkpt lat="44.852016" lon="8.53254"><ele>106.0</ele><time>2026-04-18T09:12:43.019Z</time></trkpt><trkpt lat="44.8520138" lon="8.5328457"><ele>105.66666666666667</ele><time>2026-04-18T09:12:44.018Z</time></trkpt><trkpt lat="44.8520118" lon="8.5331538"><ele>105.33333333333334</ele><time>2026-04-18T09:12:45.018Z</time></trkpt><trkpt lat="44.8520106" lon="8.5334626"><ele>105.0</ele><time>2026-04-18T09:12:46.018Z</time></trkpt><trkpt lat="44.8520115" lon="8.5337716"><ele>105.66666666666666</ele><time>2026-04-18T09:12:47.019Z</time></trkpt><trkpt lat="44.8520119" lon="8.5340791"><ele>106.33333333333333</ele><time>2026-04-18T09:12:48.019Z</time></trkpt><trkpt lat="44.852011" lon="8.5343867"><ele>107.0</ele><time>2026-04-18T09:12:49.019Z</time></trkpt><trkpt lat="44.852011" lon="8.5346921"><ele>107.33333333333333</ele><time>2026-04-18T09:12:50.018Z</time></trkpt><trkpt lat="44.8520106" lon="8.5349985"><ele>107.66666666666666</ele><time>2026-04-18T09:12:51.018Z</time></trkpt><trkpt lat="44.8520121" lon="8.5353024"><ele>108.0</ele><time>2026-04-18T09:12:52.018Z</time></trkpt><trkpt lat="44.8520102" lon="8.5356055"><ele>108.0</ele><time>2026-04-18T09:12:53.019Z</time></trkpt><trkpt lat="44.8520033" lon="8.5359085"><ele>108.0</ele><time>2026-04-18T09:12:54.018Z</time></trkpt><trkpt lat="44.8519834" lon="8.5362127"><ele>108.0</ele><time>2026-04-18T09:12:55.019Z</time></trkpt><trkpt lat="44.8519535" lon="8.5365104"><ele>107.66666666666666</ele><time>2026-04-18T09:12:56.018Z</time></trkpt><trkpt lat="44.851908" lon="8.5367965"><ele>107.33333333333333</ele><time>2026-04-18T09:12:57.018Z</time></trkpt><trkpt lat="44.8518577" lon="8.5370754"><ele>107.0</ele><time>2026-04-18T09:12:58.019Z</time></trkpt><trkpt lat="44.8518057" lon="8.5373535"><ele>106.66666666666666</ele><time>2026-04-18T09:12:59.019Z</time></trkpt><trkpt lat="44.851752" lon="8.5376369"><ele>106.33333333333334</ele><time>2026-04-18T09:13:00.019Z</time></trkpt><trkpt lat="44.8516951" lon="8.5379256"><ele>106.0</ele><time>2026-04-18T09:13:01.019Z</time></trkpt><trkpt lat="44.8516388" lon="8.5382165"><ele>106.0</ele><time>2026-04-18T09:13:02.019Z</time></trkpt><trkpt lat="44.8515816" lon="8.5385094"><ele>106.0</ele><time>2026-04-18T09:13:03.019Z</time></trkpt><trkpt lat="44.8515251" lon="8.5387977"><ele>106.0</ele><time>2026-04-18T09:13:04.019Z</time></trkpt><trkpt lat="44.8514717" lon="8.5390761"><ele>106.0</ele><time>2026-04-18T09:13:05.019Z</time></trkpt><trkpt lat="44.851421" lon="8.5393398"><ele>106.0</ele><time>2026-04-18T09:13:06.018Z</time></trkpt><trkpt lat="44.8513714" lon="8.5395937"><ele>106.0</ele><time>2026-04-18T09:13:07.018Z</time></trkpt><trkpt lat="44.8513252" lon="8.5398349"><ele>106.0</ele><time>2026-04-18T09:13:08.018Z</time></trkpt><trkpt lat="44.851282" lon="8.5400614"><ele>106.0</ele><time>2026-04-18T09:13:09.018Z</time></trkpt><trkpt lat="44.8512436" lon="8.5402648"><ele>106.0</ele><time>2026-04-18T09:13:10.019Z</time></trkpt><trkpt lat="44.8512115" lon="8.5404459"><ele>106.0</ele><time>2026-04-18T09:13:11.018Z</time></trkpt><trkpt lat="44.8511802" lon="8.5406082"><ele>106.0</ele><time>2026-04-18T09:13:12.018Z</time></trkpt><trkpt lat="44.8511525" lon="8.5407485"><ele>106.0</ele><time>2026-04-18T09:13:13.019Z</time></trkpt><trkpt lat="44.8511273" lon="8.5408744"><ele>106.0</ele><time>2026-04-18T09:13:14.018Z</time></trkpt><trkpt lat="44.8511024" lon="8.5409929"><ele>106.0</ele><time>2026-04-18T09:13:15.019Z</time></trkpt><trkpt lat="44.851078" lon="8.5411114"><ele>106.0</ele><time>2026-04-18T09:13:16.019Z</time></trkpt><trkpt lat="44.8510504" lon="8.5412409"><ele>105.8</ele><time>2026-04-18T09:13:17.019Z</time></trkpt><trkpt lat="44.8510227" lon="8.5413789"><ele>105.6</ele><time>2026-04-18T09:13:18.019Z</time></trkpt><trkpt lat="44.8509968" lon="8.5415238"><ele>105.4</ele><time>2026-04-18T09:13:19.019Z</time></trkpt><trkpt lat="44.8509771" lon="8.5416666"><ele>105.2</ele><time>2026-04-18T09:13:20.019Z</time></trkpt><trkpt lat="44.8509645" lon="8.5418001"><ele>105.0</ele><time>2026-04-18T09:13:21.018Z</time></trkpt><trkpt lat="44.8509554" lon="8.5419215"><ele>105.0</ele><time>2026-04-18T09:13:22.019Z</time></trkpt><trkpt lat="44.850943" lon="8.5420301"><ele>105.0</ele><time>2026-04-18T09:13:23.018Z</time></trkpt><trkpt lat="44.8509155" lon="8.5421274"><ele>105.0</ele><time>2026-04-18T09:13:24.018Z</time></trkpt><trkpt lat="44.8508704" lon="8.5422143"><ele>105.0</ele><time>2026-04-18T09:13:25.018Z</time></trkpt><trkpt lat="44.8508065" lon="8.5422908"><ele>105.0</ele><time>2026-04-18T09:13:26.019Z</time></trkpt><trkpt lat="44.8507339" lon="8.542364"><ele>105.0</ele><time>2026-04-18T09:13:27.019Z</time></trkpt><trkpt lat="44.8506674" lon="8.5424519"><ele>105.2</ele><time>2026-04-18T09:13:28.019Z</time></trkpt><trkpt lat="44.8506124" lon="8.5425647"><ele>105.4</ele><time>2026-04-18T09:13:29.019Z</time></trkpt><trkpt lat="44.8505864" lon="8.5426901"><ele>105.6</ele><time>2026-04-18T09:13:30.019Z</time></trkpt><trkpt lat="44.8505906" lon="8.5428173"><ele>105.8</ele><time>2026-04-18T09:13:31.018Z</time></trkpt><trkpt lat="44.8506211" lon="8.5429389"><ele>106.0</ele><time>2026-04-18T09:13:32.019Z</time></trkpt><trkpt lat="44.8506767" lon="8.5430459"><ele>106.0</ele><time>2026-04-18T09:13:33.019Z</time></trkpt><trkpt lat="44.8507525" lon="8.5431234"><ele>106.0</ele><time>2026-04-18T09:13:34.018Z</time></trkpt><trkpt lat="44.8508449" lon="8.5431721"><ele>106.0</ele><time>2026-04-18T09:13:35.019Z</time></trkpt><trkpt lat="44.8509449" lon="8.5431863"><ele>106.0</ele><time>2026-04-18T09:13:36.019Z</time></trkpt><trkpt lat="44.8510507" lon="8.5431886"><ele>106.0</ele><time>2026-04-18T09:13:37.019Z</time></trkpt><trkpt lat="44.8511584" lon="8.5432385"><ele>105.5</ele><time>2026-04-18T09:13:38.019Z</time></trkpt><trkpt lat="44.8512601" lon="8.5433254"><ele>105.0</ele><time>2026-04-18T09:13:39.018Z</time></trkpt><trkpt lat="44.8513543" lon="8.5434438"><ele>104.5</ele><time>2026-04-18T09:13:40.018Z</time></trkpt><trkpt lat="44.8514563" lon="8.5435769"><ele>104.0</ele><time>2026-04-18T09:13:41.018Z</time></trkpt><trkpt lat="44.8515724" lon="8.5437119"><ele>103.33333333333333</ele><time>2026-04-18T09:13:42.018Z</time></trkpt><trkpt lat="44.8516991" lon="8.5438417"><ele>102.66666666666666</ele><time>2026-04-18T09:13:43.019Z</time></trkpt><trkpt lat="44.8518301" lon="8.5439643"><ele>102.0</ele><time>2026-04-18T09:13:44.019Z</time></trkpt><trkpt lat="44.8519618" lon="8.544077"><ele>102.0</ele><time>2026-04-18T09:13:45.018Z</time></trkpt><trkpt lat="44.852093" lon="8.5441858"><ele>102.0</ele><time>2026-04-18T09:13:46.018Z</time></trkpt><trkpt lat="44.8522241" lon="8.5442919"><ele>102.0</ele><time>2026-04-18T09:13:47.018Z</time></trkpt><trkpt lat="44.8523511" lon="8.5443935"><ele>102.0</ele><time>2026-04-18T09:13:48.018Z</time></trkpt><trkpt lat="44.8524673" lon="8.5444894"><ele>102.19999999999999</ele><time>2026-04-18T09:13:49.019Z</time></trkpt><trkpt lat="44.8525628" lon="8.5445713"><ele>102.4</ele><time>2026-04-18T09:13:50.019Z</time></trkpt><trkpt lat="44.852635" lon="8.5446347"><ele>102.6</ele><time>2026-04-18T09:13:51.018Z</time></trkpt><trkpt lat="44.8527193" lon="8.5447116"><ele>102.80000000000001</ele><time>2026-04-18T09:13:53.019Z</time></trkpt><trkpt lat="44.8527882" lon="8.5447826"><ele>103.0</ele><time>2026-04-18T09:13:55.019Z</time></trkpt><trkpt lat="44.8528466" lon="8.5448799"><ele>103.0</ele><time>2026-04-18T09:13:57.019Z</time></trkpt><trkpt lat="44.8528957" lon="8.5450555"><ele>103.0</ele><time>2026-04-18T09:13:59.019Z</time></trkpt><trkpt lat="44.8529293" lon="8.5451676"><ele>103.0</ele><time>2026-04-18T09:14:00.019Z</time></trkpt><trkpt lat="44.8529832" lon="8.5452747"><ele>103.0</ele><time>2026-04-18T09:14:01.018Z</time></trkpt><trkpt lat="44.8530621" lon="8.5453586"><ele>103.0</ele><time>2026-04-18T09:14:02.018Z</time></trkpt><trkpt lat="44.853157" lon="8.5454131"><ele>103.0</ele><time>2026-04-18T09:14:03.019Z</time></trkpt><trkpt lat="44.8532658" lon="8.5454464"><ele>103.0</ele><time>2026-04-18T09:14:04.019Z</time></trkpt><trkpt lat="44.8533729" lon="8.5455163"><ele>103.0</ele><time>2026-04-18T09:14:05.019Z</time></trkpt><trkpt lat="44.8534726" lon="8.5456306"><ele>103.0</ele><time>2026-04-18T09:14:06.019Z</time></trkpt><trkpt lat="44.8535702" lon="8.5457708"><ele>102.66666666666667</ele><time>2026-04-18T09:14:07.018Z</time></trkpt><trkpt lat="44.8536735" lon="8.5459161"><ele>102.33333333333334</ele><time>2026-04-18T09:14:08.019Z</time></trkpt><trkpt lat="44.8537901" lon="8.5460621"><ele>102.0</ele><time>2026-04-18T09:14:09.019Z</time></trkpt><trkpt lat="44.8539172" lon="8.5462049"><ele>102.33333333333334</ele><time>2026-04-18T09:14:10.018Z</time></trkpt><trkpt lat="44.8540539" lon="8.5463412"><ele>102.66666666666667</ele><time>2026-04-18T09:14:11.019Z</time></trkpt><trkpt lat="44.8541955" lon="8.5464627"><ele>103.0</ele><time>2026-04-18T09:14:12.018Z</time></trkpt><trkpt lat="44.8543342" lon="8.5465742"><ele>103.33333333333334</ele><time>2026-04-18T09:14:13.019Z</time></trkpt><trkpt lat="44.8544702" lon="8.5466809"><ele>103.66666666666666</ele><time>2026-04-18T09:14:14.018Z</time></trkpt><trkpt lat="44.854605" lon="8.5467875"><ele>104.0</ele><time>2026-04-18T09:14:15.019Z</time></trkpt><trkpt lat="44.8547436" lon="8.5468969"><ele>104.0</ele><time>2026-04-18T09:14:16.018Z</time></trkpt><trkpt lat="44.8548835" lon="8.5470057"><ele>104.0</ele><time>2026-04-18T09:14:17.018Z</time></trkpt><trkpt lat="44.8550332" lon="8.5471122"><ele>104.0</ele><time>2026-04-18T09:14:18.018Z</time></trkpt><trkpt lat="44.8551823" lon="8.5472144"><ele>103.33333333333333</ele><time>2026-04-18T09:14:19.018Z</time></trkpt><trkpt lat="44.855329" lon="8.5473242"><ele>102.66666666666666</ele><time>2026-04-18T09:14:20.018Z</time></trkpt><trkpt lat="44.8554704" lon="8.5474406"><ele>102.0</ele><time>2026-04-18T09:14:21.018Z</time></trkpt><trkpt lat="44.8556015" lon="8.5475544"><ele>102.0</ele><time>2026-04-18T09:14:22.019Z</time></trkpt><trkpt lat="44.8557263" lon="8.5476632"><ele>102.0</ele><time>2026-04-18T09:14:23.019Z</time></trkpt><trkpt lat="44.8558459" lon="8.5477673"><ele>102.0</ele><time>2026-04-18T09:14:24.019Z</time></trkpt><trkpt lat="44.855964" lon="8.5478667"><ele>102.0</ele><time>2026-04-18T09:14:25.019Z</time></trkpt><trkpt lat="44.8560813" lon="8.5479652"><ele>102.0</ele><time>2026-04-18T09:14:26.019Z</time></trkpt><trkpt lat="44.8561971" lon="8.5480625"><ele>102.0</ele><time>2026-04-18T09:14:27.019Z</time></trkpt><trkpt lat="44.8563121" lon="8.5481599"><ele>102.0</ele><time>2026-04-18T09:14:28.018Z</time></trkpt><trkpt lat="44.8564296" lon="8.5482562"><ele>102.0</ele><time>2026-04-18T09:14:29.019Z</time></trkpt><trkpt lat="44.8565493" lon="8.5483524"><ele>102.0</ele><time>2026-04-18T09:14:30.019Z</time></trkpt><trkpt lat="44.8566727" lon="8.548447"><ele>102.0</ele><time>2026-04-18T09:14:31.019Z</time></trkpt><trkpt lat="44.8567975" lon="8.5485394"><ele>102.0</ele><time>2026-04-18T09:14:32.019Z</time></trkpt><trkpt lat="44.8569247" lon="8.5486249"><ele>102.0</ele><time>2026-04-18T09:14:33.018Z</time></trkpt><trkpt lat="44.857054" lon="8.5487099"><ele>101.5</ele><time>2026-04-18T09:14:34.018Z</time></trkpt><trkpt lat="44.8571844" lon="8.5487951"><ele>101.0</ele><time>2026-04-18T09:14:35.018Z</time></trkpt><trkpt lat="44.8573139" lon="8.5488825"><ele>100.5</ele><time>2026-04-18T09:14:36.018Z</time></trkpt><trkpt lat="44.8574422" lon="8.548968"><ele>100.0</ele><time>2026-04-18T09:14:37.019Z</time></trkpt><trkpt lat="44.8575679" lon="8.5490493"><ele>100.25</ele><time>2026-04-18T09:14:38.018Z</time></trkpt><trkpt lat="44.8576893" lon="8.5491273"><ele>100.5</ele><time>2026-04-18T09:14:39.019Z</time></trkpt><trkpt lat="44.857808" lon="8.5492036"><ele>100.75</ele><time>2026-04-18T09:14:40.019Z</time></trkpt><trkpt lat="44.8579259" lon="8.5492793"><ele>101.0</ele><time>2026-04-18T09:14:41.018Z</time></trkpt><trkpt lat="44.8580418" lon="8.5493577"><ele>101.0</ele><time>2026-04-18T09:14:42.018Z</time></trkpt><trkpt lat="44.8581575" lon="8.5494382"><ele>101.0</ele><time>2026-04-18T09:14:43.019Z</time></trkpt><trkpt lat="44.8582719" lon="8.5495149"><ele>101.0</ele><time>2026-04-18T09:14:44.019Z</time></trkpt><trkpt lat="44.8583885" lon="8.5495904"><ele>101.0</ele><time>2026-04-18T09:14:45.018Z</time></trkpt><trkpt lat="44.8585074" lon="8.54967"><ele>101.75</ele><time>2026-04-18T09:14:46.018Z</time></trkpt><trkpt lat="44.8586274" lon="8.5497532"><ele>102.5</ele><time>2026-04-18T09:14:47.018Z</time></trkpt><trkpt lat="44.85875" lon="8.5498355"><ele>103.25</ele><time>2026-04-18T09:14:48.018Z</time></trkpt><trkpt lat="44.8588691" lon="8.5499146"><ele>104.0</ele><time>2026-04-18T09:14:49.019Z</time></trkpt><trkpt lat="44.8589843" lon="8.549994"><ele>104.0</ele><time>2026-04-18T09:14:50.018Z</time></trkpt><trkpt lat="44.8590987" lon="8.5500752"><ele>104.0</ele><time>2026-04-18T09:14:51.018Z</time></trkpt><trkpt lat="44.8592122" lon="8.5501535"><ele>104.0</ele><time>2026-04-18T09:14:52.019Z</time></trkpt><trkpt lat="44.8593305" lon="8.5502339"><ele>104.0</ele><time>2026-04-18T09:14:53.018Z</time></trkpt><trkpt lat="44.859454" lon="8.5503166"><ele>104.0</ele><time>2026-04-18T09:14:54.019Z</time></trkpt><trkpt lat="44.8595762" lon="8.5503999"><ele>104.0</ele><time>2026-04-18T09:14:55.018Z</time></trkpt><trkpt lat="44.8596963" lon="8.5504817"><ele>104.0</ele><time>2026-04-18T09:14:56.018Z</time></trkpt><trkpt lat="44.8598129" lon="8.5505645"><ele>104.0</ele><time>2026-04-18T09:14:57.018Z</time></trkpt><trkpt lat="44.8599299" lon="8.5506465"><ele>104.0</ele><time>2026-04-18T09:14:58.019Z</time></trkpt><trkpt lat="44.860042" lon="8.5507237"><ele>104.0</ele><time>2026-04-18T09:14:59.019Z</time></trkpt><trkpt lat="44.8601386" lon="8.5507896"><ele>104.0</ele><time>2026-04-18T09:15:00.018Z</time></trkpt><trkpt lat="44.8602127" lon="8.5508404"><ele>104.0</ele><time>2026-04-18T09:15:01.019Z</time></trkpt><trkpt lat="44.8602657" lon="8.5508909"><ele>104.0</ele><time>2026-04-18T09:15:02.019Z</time></trkpt><trkpt lat="44.8602928" lon="8.5509982"><ele>103.99999999999999</ele><time>2026-04-18T09:15:04.018Z</time></trkpt><trkpt lat="44.8602622" lon="8.5511336"><ele>104.0</ele><time>2026-04-18T09:15:06.019Z</time></trkpt><trkpt lat="44.8602325" lon="8.5512273"><ele>104.0</ele><time>2026-04-18T09:15:07.019Z</time></trkpt><trkpt lat="44.8601949" lon="8.5513313"><ele>104.0</ele><time>2026-04-18T09:15:08.018Z</time></trkpt><trkpt lat="44.8601541" lon="8.5514479"><ele>103.99999999999999</ele><time>2026-04-18T09:15:09.018Z</time></trkpt><trkpt lat="44.8601087" lon="8.5515747"><ele>104.0</ele><time>2026-04-18T09:15:10.018Z</time></trkpt><trkpt lat="44.8600641" lon="8.5517038"><ele>104.0</ele><time>2026-04-18T09:15:11.019Z</time></trkpt><trkpt lat="44.8600198" lon="8.5518307"><ele>104.0</ele><time>2026-04-18T09:15:12.018Z</time></trkpt><trkpt lat="44.8599735" lon="8.5519645"><ele>104.0</ele><time>2026-04-18T09:15:13.019Z</time></trkpt><trkpt lat="44.8599238" lon="8.5521126"><ele>104.0</ele><time>2026-04-18T09:15:14.019Z</time></trkpt><trkpt lat="44.859867" lon="8.5522733"><ele>104.0</ele><time>2026-04-18T09:15:15.019Z</time></trkpt><trkpt lat="44.8598085" lon="8.552442"><ele>103.75</ele><time>2026-04-18T09:15:16.018Z</time></trkpt><trkpt lat="44.8597523" lon="8.5526041"><ele>103.5</ele><time>2026-04-18T09:15:17.018Z</time></trkpt><trkpt lat="44.859695" lon="8.5527706"><ele>103.25</ele><time>2026-04-18T09:15:18.019Z</time></trkpt><trkpt lat="44.8596355" lon="8.5529443"><ele>103.0</ele><time>2026-04-18T09:15:19.018Z</time></trkpt><trkpt lat="44.8595762" lon="8.5531231"><ele>103.0</ele><time>2026-04-18T09:15:20.019Z</time></trkpt><trkpt lat="44.859516" lon="8.5533019"><ele>103.0</ele><time>2026-04-18T09:15:21.019Z</time></trkpt><trkpt lat="44.8594574" lon="8.5534849"><ele>103.0</ele><time>2026-04-18T09:15:22.019Z</time></trkpt><trkpt lat="44.8593978" lon="8.5536683"><ele>103.0</ele><time>2026-04-18T09:15:23.018Z</time></trkpt><trkpt lat="44.8593343" lon="8.553859"><ele>103.0</ele><time>2026-04-18T09:15:24.019Z</time></trkpt><trkpt lat="44.8592681" lon="8.5540576"><ele>103.0</ele><time>2026-04-18T09:15:25.019Z</time></trkpt><trkpt lat="44.8592005" lon="8.5542566"><ele>103.0</ele><time>2026-04-18T09:15:26.019Z</time></trkpt><trkpt lat="44.8591358" lon="8.5544506"><ele>102.75</ele><time>2026-04-18T09:15:27.018Z</time></trkpt><trkpt lat="44.8590744" lon="8.5546372"><ele>102.5</ele><time>2026-04-18T09:15:28.019Z</time></trkpt><trkpt lat="44.8590133" lon="8.5548157"><ele>102.25</ele><time>2026-04-18T09:15:29.019Z</time></trkpt><trkpt lat="44.8589562" lon="8.5549871"><ele>102.0</ele><time>2026-04-18T09:15:30.018Z</time></trkpt><trkpt lat="44.8589011" lon="8.5551526"><ele>102.0</ele><time>2026-04-18T09:15:31.019Z</time></trkpt><trkpt lat="44.8588481" lon="8.5553073"><ele>102.0</ele><time>2026-04-18T09:15:32.018Z</time></trkpt><trkpt lat="44.858798" lon="8.5554463"><ele>102.0</ele><time>2026-04-18T09:15:33.019Z</time></trkpt><trkpt lat="44.8587534" lon="8.5555646"><ele>102.0</ele><time>2026-04-18T09:15:34.019Z</time></trkpt><trkpt lat="44.8587156" lon="8.5556569"><ele>102.0</ele><time>2026-04-18T09:15:35.019Z</time></trkpt><trkpt lat="44.858683" lon="8.5557397"><ele>102.5</ele><time>2026-04-18T09:15:36.019Z</time></trkpt><trkpt lat="44.8586439" lon="8.555872"><ele>103.0</ele><time>2026-04-18T09:15:38.018Z</time></trkpt><trkpt lat="44.8586128" lon="8.555983"><ele>103.5</ele><time>2026-04-18T09:15:40.019Z</time></trkpt><trkpt lat="44.8585888" lon="8.5560691"><ele>104.0</ele><time>2026-04-18T09:15:42.018Z</time></trkpt><trkpt lat="44.8585837" lon="8.5561825"><ele>104.5</ele><time>2026-04-18T09:16:10.018Z</time></trkpt><trkpt lat="44.8586749" lon="8.5562162"><ele>105.0</ele><time>2026-04-18T09:16:13.018Z</time></trkpt><trkpt lat="44.8587933" lon="8.5562588"><ele>105.4</ele><time>2026-04-18T09:16:15.019Z</time></trkpt><trkpt lat="44.8588635" lon="8.5563248"><ele>105.8</ele><time>2026-04-18T09:16:16.018Z</time></trkpt><trkpt lat="44.8589312" lon="8.5564127"><ele>106.19999999999999</ele><time>2026-04-18T09:16:17.019Z</time></trkpt><trkpt lat="44.8589938" lon="8.556497"><ele>106.6</ele><time>2026-04-18T09:16:18.018Z</time></trkpt><trkpt lat="44.8590619" lon="8.5565834"><ele>107.0</ele><time>2026-04-18T09:16:19.018Z</time></trkpt><trkpt lat="44.8591377" lon="8.5566711"><ele>107.0</ele><time>2026-04-18T09:16:20.018Z</time></trkpt><trkpt lat="44.8592188" lon="8.5567656"><ele>106.99999999999999</ele><time>2026-04-18T09:16:21.019Z</time></trkpt><trkpt lat="44.8593001" lon="8.5568613"><ele>106.99999999999999</ele><time>2026-04-18T09:16:22.019Z</time></trkpt><trkpt lat="44.8593841" lon="8.5569599"><ele>107.0</ele><time>2026-04-18T09:16:23.018Z</time></trkpt><trkpt lat="44.859469" lon="8.5570582"><ele>107.0</ele><time>2026-04-18T09:16:24.018Z</time></trkpt><trkpt lat="44.8595536" lon="8.5571668"><ele>105.75</ele><time>2026-04-18T09:16:25.018Z</time></trkpt><trkpt lat="44.8596424" lon="8.5573006"><ele>104.5</ele><time>2026-04-18T09:16:26.019Z</time></trkpt><trkpt lat="44.8597387" lon="8.5574577"><ele>103.25</ele><time>2026-04-18T09:16:27.018Z</time></trkpt><trkpt lat="44.8598414" lon="8.5576317"><ele>102.0</ele><time>2026-04-18T09:16:28.019Z</time></trkpt><trkpt lat="44.8599458" lon="8.5578076"><ele>102.0</ele><time>2026-04-18T09:16:29.018Z</time></trkpt><trkpt lat="44.8600578" lon="8.557993"><ele>102.0</ele><time>2026-04-18T09:16:30.018Z</time></trkpt><trkpt lat="44.8601745" lon="8.5581875"><ele>102.0</ele><time>2026-04-18T09:16:31.019Z</time></trkpt><trkpt lat="44.8602941" lon="8.5583894"><ele>101.66666666666666</ele><time>2026-04-18T09:16:32.019Z</time></trkpt><trkpt lat="44.8604178" lon="8.5586027"><ele>101.33333333333333</ele><time>2026-04-18T09:16:33.018Z</time></trkpt><trkpt lat="44.8605434" lon="8.5588248"><ele>101.0</ele><time>2026-04-18T09:16:34.019Z</time></trkpt><trkpt lat="44.8606676" lon="8.5590473"><ele>101.0</ele><time>2026-04-18T09:16:35.018Z</time></trkpt><trkpt lat="44.8607902" lon="8.5592734"><ele>101.0</ele><time>2026-04-18T09:16:36.018Z</time></trkpt><trkpt lat="44.8609141" lon="8.5595083"><ele>101.0</ele><time>2026-04-18T09:16:37.019Z</time></trkpt><trkpt lat="44.8610394" lon="8.5597455"><ele>100.33333333333333</ele><time>2026-04-18T09:16:38.018Z</time></trkpt><trkpt lat="44.8611656" lon="8.5599903"><ele>99.66666666666666</ele><time>2026-04-18T09:16:39.019Z</time></trkpt><trkpt lat="44.8612927" lon="8.5602379"><ele>99.0</ele><time>2026-04-18T09:16:40.019Z</time></trkpt><trkpt lat="44.86142" lon="8.5604899"><ele>99.0</ele><time>2026-04-18T09:16:41.018Z</time></trkpt><trkpt lat="44.8615503" lon="8.5607447"><ele>99.0</ele><time>2026-04-18T09:16:42.019Z</time></trkpt><trkpt lat="44.8616796" lon="8.5610026"><ele>99.0</ele><time>2026-04-18T09:16:43.018Z</time></trkpt><trkpt lat="44.861808" lon="8.5612656"><ele>99.0</ele><time>2026-04-18T09:16:44.018Z</time></trkpt><trkpt lat="44.8619339" lon="8.5615232"><ele>99.0</ele><time>2026-04-18T09:16:45.019Z</time></trkpt><trkpt lat="44.8620606" lon="8.561783"><ele>99.0</ele><time>2026-04-18T09:16:46.019Z</time></trkpt><trkpt lat="44.8621886" lon="8.5620471"><ele>99.0</ele><time>2026-04-18T09:16:47.019Z</time></trkpt><trkpt lat="44.8623158" lon="8.5623128"><ele>99.0</ele><time>2026-04-18T09:16:48.018Z</time></trkpt><trkpt lat="44.862443" lon="8.5625829"><ele>99.0</ele><time>2026-04-18T09:16:49.019Z</time></trkpt><trkpt lat="44.8625684" lon="8.5628542"><ele>99.0</ele><time>2026-04-18T09:16:50.018Z</time></trkpt><trkpt lat="44.8626911" lon="8.5631246"><ele>99.0</ele><time>2026-04-18T09:16:51.018Z</time></trkpt><trkpt lat="44.8628095" lon="8.5633956"><ele>99.0</ele><time>2026-04-18T09:16:52.019Z</time></trkpt><trkpt lat="44.862928" lon="8.5636693"><ele>99.0</ele><time>2026-04-18T09:16:53.018Z</time></trkpt><trkpt lat="44.863046" lon="8.5639412"><ele>99.0</ele><time>2026-04-18T09:16:54.018Z</time></trkpt><trkpt lat="44.8631657" lon="8.5642121"><ele>99.0</ele><time>2026-04-18T09:16:55.019Z</time></trkpt><trkpt lat="44.8632851" lon="8.5644842"><ele>99.0</ele><time>2026-04-18T09:16:56.018Z</time></trkpt><trkpt lat="44.8634015" lon="8.5647564"><ele>100.0</ele><time>2026-04-18T09:16:57.019Z</time></trkpt><trkpt lat="44.8635164" lon="8.5650291"><ele>101.0</ele><time>2026-04-18T09:16:58.019Z</time></trkpt><trkpt lat="44.8636319" lon="8.5653017"><ele>100.5</ele><time>2026-04-18T09:16:59.019Z</time></trkpt><trkpt lat="44.86375" lon="8.5655703"><ele>100.0</ele><time>2026-04-18T09:17:00.019Z</time></trkpt><trkpt lat="44.8638728" lon="8.5658381"><ele>100.0</ele><time>2026-04-18T09:17:01.018Z</time></trkpt><trkpt lat="44.8639962" lon="8.5660997"><ele>100.0</ele><time>2026-04-18T09:17:02.019Z</time></trkpt><trkpt lat="44.8641231" lon="8.5663609"><ele>100.0</ele><time>2026-04-18T09:17:03.018Z</time></trkpt><trkpt lat="44.864247" lon="8.5666193"><ele>100.0</ele><time>2026-04-18T09:17:04.018Z</time></trkpt><trkpt lat="44.8643724" lon="8.5668779"><ele>100.0</ele><time>2026-04-18T09:17:05.018Z</time></trkpt><trkpt lat="44.8644979" lon="8.5671365"><ele>100.0</ele><time>2026-04-18T09:17:06.019Z</time></trkpt><trkpt lat="44.8646243" lon="8.5673953"><ele>100.0</ele><time>2026-04-18T09:17:07.018Z</time></trkpt><trkpt lat="44.8647558" lon="8.5676598"><ele>100.0</ele><time>2026-04-18T09:17:08.018Z</time></trkpt><trkpt lat="44.8648919" lon="8.5679198"><ele>100.5</ele><time>2026-04-18T09:17:09.019Z</time></trkpt><trkpt lat="44.8650307" lon="8.5681798"><ele>101.0</ele><time>2026-04-18T09:17:10.019Z</time></trkpt><trkpt lat="44.8651701" lon="8.5684382"><ele>101.5</ele><time>2026-04-18T09:17:11.019Z</time></trkpt><trkpt lat="44.8653086" lon="8.5686988"><ele>102.0</ele><time>2026-04-18T09:17:12.019Z</time></trkpt><trkpt lat="44.8654499" lon="8.5689511"><ele>102.0</ele><time>2026-04-18T09:17:13.019Z</time></trkpt><trkpt lat="44.8655866" lon="8.5691948"><ele>102.0</ele><time>2026-04-18T09:17:14.019Z</time></trkpt><trkpt lat="44.8657164" lon="8.5694299"><ele>102.0</ele><time>2026-04-18T09:17:15.019Z</time></trkpt><trkpt lat="44.8658464" lon="8.569659"><ele>101.33333333333334</ele><time>2026-04-18T09:17:16.019Z</time></trkpt><trkpt lat="44.8659773" lon="8.5698847"><ele>100.66666666666667</ele><time>2026-04-18T09:17:17.019Z</time></trkpt><trkpt lat="44.8661114" lon="8.5701069"><ele>100.0</ele><time>2026-04-18T09:17:18.018Z</time></trkpt><trkpt lat="44.8662434" lon="8.57033"><ele>101.0</ele><time>2026-04-18T09:17:19.019Z</time></trkpt><trkpt lat="44.8663747" lon="8.5705495"><ele>102.0</ele><time>2026-04-18T09:17:20.019Z</time></trkpt><trkpt lat="44.8665079" lon="8.5707703"><ele>103.0</ele><time>2026-04-18T09:17:21.018Z</time></trkpt><trkpt lat="44.866643" lon="8.5709915"><ele>102.0</ele><time>2026-04-18T09:17:22.018Z</time></trkpt><trkpt lat="44.8667816" lon="8.5712181"><ele>101.0</ele><time>2026-04-18T09:17:23.018Z</time></trkpt><trkpt lat="44.866924" lon="8.5714427"><ele>100.0</ele><time>2026-04-18T09:17:24.018Z</time></trkpt><trkpt lat="44.8670703" lon="8.5716687"><ele>100.0</ele><time>2026-04-18T09:17:25.019Z</time></trkpt><trkpt lat="44.8672199" lon="8.5718947"><ele>100.0</ele><time>2026-04-18T09:17:26.019Z</time></trkpt><trkpt lat="44.8673729" lon="8.5721249"><ele>100.0</ele><time>2026-04-18T09:17:27.019Z</time></trkpt><trkpt lat="44.8675282" lon="8.5723597"><ele>99.5</ele><time>2026-04-18T09:17:28.018Z</time></trkpt><trkpt lat="44.8676854" lon="8.5725951"><ele>99.0</ele><time>2026-04-18T09:17:29.019Z</time></trkpt><trkpt lat="44.8678487" lon="8.5728344"><ele>101.0</ele><time>2026-04-18T09:17:30.019Z</time></trkpt><trkpt lat="44.8680148" lon="8.5730753"><ele>103.0</ele><time>2026-04-18T09:17:31.019Z</time></trkpt><trkpt lat="44.8681858" lon="8.5733204"><ele>103.0</ele><time>2026-04-18T09:17:32.019Z</time></trkpt><trkpt lat="44.8683588" lon="8.5735658"><ele>103.0</ele><time>2026-04-18T09:17:33.019Z</time></trkpt><trkpt lat="44.8685339" lon="8.5738146"><ele>102.5</ele><time>2026-04-18T09:17:34.019Z</time></trkpt><trkpt lat="44.868714" lon="8.5740689"><ele>102.0</ele><time>2026-04-18T09:17:35.019Z</time></trkpt><trkpt lat="44.8688962" lon="8.5743246"><ele>103.5</ele><time>2026-04-18T09:17:36.018Z</time></trkpt><trkpt lat="44.8690834" lon="8.5745791"><ele>105.0</ele><time>2026-04-18T09:17:37.019Z</time></trkpt><trkpt lat="44.869269" lon="8.5748317"><ele>102.5</ele><time>2026-04-18T09:17:38.019Z</time></trkpt><trkpt lat="44.8694534" lon="8.5750816"><ele>100.0</ele><time>2026-04-18T09:17:39.018Z</time></trkpt><trkpt lat="44.8696341" lon="8.5753264"><ele>102.5</ele><time>2026-04-18T09:17:40.019Z</time></trkpt><trkpt lat="44.8698138" lon="8.5755656"><ele>105.0</ele><time>2026-04-18T09:17:41.019Z</time></trkpt><trkpt lat="44.8699903" lon="8.5758011"><ele>104.5</ele><time>2026-04-18T09:17:42.019Z</time></trkpt><trkpt lat="44.8701633" lon="8.5760356"><ele>104.0</ele><time>2026-04-18T09:17:43.018Z</time></trkpt><trkpt lat="44.8703334" lon="8.5762675"><ele>104.0</ele><time>2026-04-18T09:17:44.018Z</time></trkpt><trkpt lat="44.8705013" lon="8.5764971"><ele>104.0</ele><time>2026-04-18T09:17:45.019Z</time></trkpt><trkpt lat="44.8706716" lon="8.5767311"><ele>104.0</ele><time>2026-04-18T09:17:46.018Z</time></trkpt><trkpt lat="44.8708425" lon="8.5769718"><ele>104.0</ele><time>2026-04-18T09:17:47.019Z</time></trkpt><trkpt lat="44.8710176" lon="8.5772169"><ele>102.0</ele><time>2026-04-18T09:17:48.019Z</time></trkpt><trkpt lat="44.8711961" lon="8.5774646"><ele>100.0</ele><time>2026-04-18T09:17:49.019Z</time></trkpt><trkpt lat="44.871376" lon="8.5777161"><ele>101.0</ele><time>2026-04-18T09:17:50.019Z</time></trkpt><trkpt lat="44.8715583" lon="8.5779705"><ele>102.0</ele><time>2026-04-18T09:17:51.018Z</time></trkpt><trkpt lat="44.871739" lon="8.5782278"><ele>101.5</ele><time>2026-04-18T09:17:52.018Z</time></trkpt><trkpt lat="44.8719168" lon="8.578484"><ele>101.0</ele><time>2026-04-18T09:17:53.019Z</time></trkpt><trkpt lat="44.8720888" lon="8.5787359"><ele>102.0</ele><time>2026-04-18T09:17:54.018Z</time></trkpt><trkpt lat="44.8722561" lon="8.5789838"><ele>103.0</ele><time>2026-04-18T09:17:55.018Z</time></trkpt><trkpt lat="44.8724148" lon="8.5792268"><ele>103.0</ele><time>2026-04-18T09:17:56.018Z</time></trkpt><trkpt lat="44.87257" lon="8.5794631"><ele>103.0</ele><time>2026-04-18T09:17:57.018Z</time></trkpt><trkpt lat="44.8727191" lon="8.579693"><ele>103.0</ele><time>2026-04-18T09:17:58.019Z</time></trkpt><trkpt lat="44.872863" lon="8.5799176"><ele>102.33333333333334</ele><time>2026-04-18T09:17:59.019Z</time></trkpt><trkpt lat="44.8730014" lon="8.5801375"><ele>101.66666666666666</ele><time>2026-04-18T09:18:00.019Z</time></trkpt><trkpt lat="44.8731336" lon="8.5803521"><ele>101.0</ele><time>2026-04-18T09:18:01.018Z</time></trkpt><trkpt lat="44.8732622" lon="8.5805673"><ele>100.66666666666666</ele><time>2026-04-18T09:18:02.019Z</time></trkpt><trkpt lat="44.8733946" lon="8.5807922"><ele>100.33333333333334</ele><time>2026-04-18T09:18:03.019Z</time></trkpt><trkpt lat="44.8735322" lon="8.5810275"><ele>100.0</ele><time>2026-04-18T09:18:04.019Z</time></trkpt><trkpt lat="44.8736765" lon="8.5812727"><ele>99.0</ele><time>2026-04-18T09:18:05.019Z</time></trkpt><trkpt lat="44.8738213" lon="8.5815255"><ele>98.0</ele><time>2026-04-18T09:18:06.019Z</time></trkpt><trkpt lat="44.873966" lon="8.5817867"><ele>98.5</ele><time>2026-04-18T09:18:07.019Z</time></trkpt><trkpt lat="44.8741109" lon="8.5820535"><ele>99.0</ele><time>2026-04-18T09:18:08.018Z</time></trkpt><trkpt lat="44.8742586" lon="8.5823224"><ele>98.0</ele><time>2026-04-18T09:18:09.019Z</time></trkpt><trkpt lat="44.8744061" lon="8.5825952"><ele>97.0</ele><time>2026-04-18T09:18:10.018Z</time></trkpt><trkpt lat="44.8745549" lon="8.5828685"><ele>97.0</ele><time>2026-04-18T09:18:11.018Z</time></trkpt><trkpt lat="44.8747032" lon="8.5831411"><ele>97.0</ele><time>2026-04-18T09:18:12.019Z</time></trkpt><trkpt lat="44.874852" lon="8.5834133"><ele>97.5</ele><time>2026-04-18T09:18:13.019Z</time></trkpt><trkpt lat="44.8749995" lon="8.5836855"><ele>98.0</ele><time>2026-04-18T09:18:14.018Z</time></trkpt><trkpt lat="44.8751442" lon="8.5839595"><ele>98.0</ele><time>2026-04-18T09:18:15.019Z</time></trkpt><trkpt lat="44.8752835" lon="8.5842398"><ele>98.0</ele><time>2026-04-18T09:18:16.018Z</time></trkpt><trkpt lat="44.8754222" lon="8.5845253"><ele>98.0</ele><time>2026-04-18T09:18:17.019Z</time></trkpt><trkpt lat="44.8755616" lon="8.5848126"><ele>98.0</ele><time>2026-04-18T09:18:18.018Z</time></trkpt><trkpt lat="44.8757014" lon="8.5851019"><ele>98.0</ele><time>2026-04-18T09:18:19.018Z</time></trkpt><trkpt lat="44.8758396" lon="8.5853938"><ele>98.0</ele><time>2026-04-18T09:18:20.018Z</time></trkpt><trkpt lat="44.8759766" lon="8.5856879"><ele>98.0</ele><time>2026-04-18T09:18:21.018Z</time></trkpt><trkpt lat="44.8761112" lon="8.58598"><ele>98.0</ele><time>2026-04-18T09:18:22.019Z</time></trkpt><trkpt lat="44.8762422" lon="8.5862592"><ele>98.0</ele><time>2026-04-18T09:18:23.019Z</time></trkpt><trkpt lat="44.8763671" lon="8.5865302"><ele>98.0</ele><time>2026-04-18T09:18:24.019Z</time></trkpt><trkpt lat="44.8764851" lon="8.5867926"><ele>98.0</ele><time>2026-04-18T09:18:25.019Z</time></trkpt><trkpt lat="44.8765979" lon="8.5870497"><ele>97.66666666666666</ele><time>2026-04-18T09:18:26.019Z</time></trkpt><trkpt lat="44.8767122" lon="8.5873175"><ele>97.33333333333334</ele><time>2026-04-18T09:18:27.018Z</time></trkpt><trkpt lat="44.8768297" lon="8.5875902"><ele>97.0</ele><time>2026-04-18T09:18:28.019Z</time></trkpt><trkpt lat="44.8769481" lon="8.5878679"><ele>96.5</ele><time>2026-04-18T09:18:29.018Z</time></trkpt><trkpt lat="44.8770652" lon="8.5881531"><ele>96.0</ele><time>2026-04-18T09:18:30.018Z</time></trkpt><trkpt lat="44.8771807" lon="8.588445"><ele>96.5</ele><time>2026-04-18T09:18:31.018Z</time></trkpt><trkpt lat="44.8772983" lon="8.5887406"><ele>97.0</ele><time>2026-04-18T09:18:32.019Z</time></trkpt><trkpt lat="44.8774181" lon="8.58904"><ele>97.0</ele><time>2026-04-18T09:18:33.019Z</time></trkpt><trkpt lat="44.8775391" lon="8.5893458"><ele>97.0</ele><time>2026-04-18T09:18:34.019Z</time></trkpt><trkpt lat="44.8776582" lon="8.5896553"><ele>96.0</ele><time>2026-04-18T09:18:35.018Z</time></trkpt><trkpt lat="44.8777752" lon="8.5899677"><ele>95.0</ele><time>2026-04-18T09:18:36.019Z</time></trkpt><trkpt lat="44.8778871" lon="8.5902733"><ele>95.5</ele><time>2026-04-18T09:18:37.019Z</time></trkpt><trkpt lat="44.8779943" lon="8.5905657"><ele>96.0</ele><time>2026-04-18T09:18:38.019Z</time></trkpt><trkpt lat="44.8780962" lon="8.5908482"><ele>96.0</ele><time>2026-04-18T09:18:39.019Z</time></trkpt><trkpt lat="44.8781926" lon="8.5911203"><ele>96.0</ele><time>2026-04-18T09:18:40.019Z</time></trkpt><trkpt lat="44.878283" lon="8.591383"><ele>96.0</ele><time>2026-04-18T09:18:41.018Z</time></trkpt><trkpt lat="44.8783679" lon="8.5916378"><ele>96.66666666666666</ele><time>2026-04-18T09:18:42.019Z</time></trkpt><trkpt lat="44.878447" lon="8.5918857"><ele>97.33333333333333</ele><time>2026-04-18T09:18:43.019Z</time></trkpt><trkpt lat="44.8785236" lon="8.5921284"><ele>98.0</ele><time>2026-04-18T09:18:44.019Z</time></trkpt><trkpt lat="44.8786007" lon="8.5923743"><ele>98.0</ele><time>2026-04-18T09:18:45.019Z</time></trkpt><trkpt lat="44.878676" lon="8.5926103"><ele>98.0</ele><time>2026-04-18T09:18:46.018Z</time></trkpt><trkpt lat="44.8787445" lon="8.5928339"><ele>98.0</ele><time>2026-04-18T09:18:47.019Z</time></trkpt><trkpt lat="44.8788057" lon="8.593043"><ele>98.33333333333333</ele><time>2026-04-18T09:18:48.019Z</time></trkpt><trkpt lat="44.8788501" lon="8.5932475"><ele>98.66666666666666</ele><time>2026-04-18T09:18:49.018Z</time></trkpt><trkpt lat="44.8788684" lon="8.5934555"><ele>99.0</ele><time>2026-04-18T09:18:50.018Z</time></trkpt><trkpt lat="44.8788721" lon="8.5936763"><ele>99.0</ele><time>2026-04-18T09:18:51.019Z</time></trkpt><trkpt lat="44.8788689" lon="8.5939021"><ele>99.0</ele><time>2026-04-18T09:18:52.018Z</time></trkpt><trkpt lat="44.8788636" lon="8.5941219"><ele>99.0</ele><time>2026-04-18T09:18:53.019Z</time></trkpt><trkpt lat="44.8788557" lon="8.5943375"><ele>98.5</ele><time>2026-04-18T09:18:54.018Z</time></trkpt><trkpt lat="44.8788516" lon="8.5945477"><ele>98.0</ele><time>2026-04-18T09:18:55.018Z</time></trkpt><trkpt lat="44.8788453" lon="8.5947495"><ele>97.5</ele><time>2026-04-18T09:18:56.019Z</time></trkpt><trkpt lat="44.8788399" lon="8.5949469"><ele>97.0</ele><time>2026-04-18T09:18:57.018Z</time></trkpt><trkpt lat="44.8788336" lon="8.5951403"><ele>97.0</ele><time>2026-04-18T09:18:58.019Z</time></trkpt><trkpt lat="44.8788238" lon="8.5953244"><ele>97.0</ele><time>2026-04-18T09:18:59.019Z</time></trkpt><trkpt lat="44.8787982" lon="8.595497"><ele>97.0</ele><time>2026-04-18T09:19:00.019Z</time></trkpt><trkpt lat="44.8787535" lon="8.5956561"><ele>97.0</ele><time>2026-04-18T09:19:01.019Z</time></trkpt><trkpt lat="44.8786925" lon="8.595797"><ele>97.0</ele><time>2026-04-18T09:19:02.019Z</time></trkpt><trkpt lat="44.8786138" lon="8.5959111"><ele>97.0</ele><time>2026-04-18T09:19:03.018Z</time></trkpt><trkpt lat="44.8785121" lon="8.5960096"><ele>97.0</ele><time>2026-04-18T09:19:04.019Z</time></trkpt><trkpt lat="44.8783874" lon="8.5960962"><ele>97.0</ele><time>2026-04-18T09:19:05.019Z</time></trkpt><trkpt lat="44.8782417" lon="8.5961849"><ele>96.33333333333334</ele><time>2026-04-18T09:19:06.019Z</time></trkpt><trkpt lat="44.8780856" lon="8.5962858"><ele>95.66666666666667</ele><time>2026-04-18T09:19:07.019Z</time></trkpt><trkpt lat="44.8779165" lon="8.5963934"><ele>95.0</ele><time>2026-04-18T09:19:08.019Z</time></trkpt><trkpt lat="44.8777337" lon="8.5965093"><ele>94.66666666666667</ele><time>2026-04-18T09:19:09.019Z</time></trkpt><trkpt lat="44.8775518" lon="8.5966275"><ele>94.33333333333333</ele><time>2026-04-18T09:19:10.019Z</time></trkpt><trkpt lat="44.877362" lon="8.5967533"><ele>94.0</ele><time>2026-04-18T09:19:11.019Z</time></trkpt><trkpt lat="44.8771702" lon="8.5968858"><ele>94.0</ele><time>2026-04-18T09:19:12.019Z</time></trkpt><trkpt lat="44.8769793" lon="8.5970305"><ele>94.0</ele><time>2026-04-18T09:19:13.019Z</time></trkpt><trkpt lat="44.8767894" lon="8.5971882"><ele>94.0</ele><time>2026-04-18T09:19:14.018Z</time></trkpt><trkpt lat="44.8766011" lon="8.5973588"><ele>94.0</ele><time>2026-04-18T09:19:15.019Z</time></trkpt><trkpt lat="44.8764161" lon="8.5975458"><ele>94.0</ele><time>2026-04-18T09:19:16.019Z</time></trkpt><trkpt lat="44.8762328" lon="8.5977451"><ele>94.5</ele><time>2026-04-18T09:19:17.019Z</time></trkpt><trkpt lat="44.8760546" lon="8.5979518"><ele>95.0</ele><time>2026-04-18T09:19:18.019Z</time></trkpt><trkpt lat="44.8758821" lon="8.5981683"><ele>95.0</ele><time>2026-04-18T09:19:19.018Z</time></trkpt><trkpt lat="44.8757209" lon="8.5983978"><ele>95.0</ele><time>2026-04-18T09:19:20.019Z</time></trkpt><trkpt lat="44.8755737" lon="8.5986383"><ele>95.33333333333334</ele><time>2026-04-18T09:19:21.018Z</time></trkpt><trkpt lat="44.8754377" lon="8.5988866"><ele>95.66666666666667</ele><time>2026-04-18T09:19:22.018Z</time></trkpt><trkpt lat="44.8753108" lon="8.5991424"><ele>96.0</ele><time>2026-04-18T09:19:23.019Z</time></trkpt><trkpt lat="44.8751887" lon="8.5994021"><ele>96.0</ele><time>2026-04-18T09:19:24.019Z</time></trkpt><trkpt lat="44.8750698" lon="8.5996515"><ele>96.0</ele><time>2026-04-18T09:19:25.018Z</time></trkpt><trkpt lat="44.8749572" lon="8.5998917"><ele>96.0</ele><time>2026-04-18T09:19:26.019Z</time></trkpt><trkpt lat="44.8748499" lon="8.6001205"><ele>95.66666666666667</ele><time>2026-04-18T09:19:27.019Z</time></trkpt><trkpt lat="44.8747506" lon="8.6003369"><ele>95.33333333333334</ele><time>2026-04-18T09:19:28.019Z</time></trkpt><trkpt lat="44.8746554" lon="8.6005461"><ele>95.0</ele><time>2026-04-18T09:19:29.019Z</time></trkpt><trkpt lat="44.8745637" lon="8.6007437"><ele>95.0</ele><time>2026-04-18T09:19:30.018Z</time></trkpt><trkpt lat="44.8744771" lon="8.6009345"><ele>95.0</ele><time>2026-04-18T09:19:31.019Z</time></trkpt><trkpt lat="44.8743876" lon="8.6011256"><ele>95.0</ele><time>2026-04-18T09:19:32.018Z</time></trkpt><trkpt lat="44.8742939" lon="8.601325"><ele>95.0</ele><time>2026-04-18T09:19:33.018Z</time></trkpt><trkpt lat="44.8742018" lon="8.6015305"><ele>95.0</ele><time>2026-04-18T09:19:34.019Z</time></trkpt><trkpt lat="44.8741077" lon="8.6017395"><ele>95.0</ele><time>2026-04-18T09:19:35.018Z</time></trkpt><trkpt lat="44.87401" lon="8.6019536"><ele>95.0</ele><time>2026-04-18T09:19:36.018Z</time></trkpt><trkpt lat="44.8739098" lon="8.6021704"><ele>95.0</ele><time>2026-04-18T09:19:37.018Z</time></trkpt><trkpt lat="44.8738062" lon="8.602388"><ele>95.0</ele><time>2026-04-18T09:19:38.019Z</time></trkpt><trkpt lat="44.8736936" lon="8.6025961"><ele>95.0</ele><time>2026-04-18T09:19:39.018Z</time></trkpt><trkpt lat="44.8735663" lon="8.6027906"><ele>95.0</ele><time>2026-04-18T09:19:40.019Z</time></trkpt><trkpt lat="44.8734255" lon="8.6029649"><ele>95.0</ele><time>2026-04-18T09:19:41.018Z</time></trkpt><trkpt lat="44.8732778" lon="8.6031352"><ele>94.66666666666667</ele><time>2026-04-18T09:19:42.018Z</time></trkpt><trkpt lat="44.8731274" lon="8.6033098"><ele>94.33333333333333</ele><time>2026-04-18T09:19:43.018Z</time></trkpt><trkpt lat="44.872975" lon="8.6034888"><ele>94.0</ele><time>2026-04-18T09:19:44.018Z</time></trkpt><trkpt lat="44.8728258" lon="8.6036658"><ele>93.33333333333333</ele><time>2026-04-18T09:19:45.019Z</time></trkpt><trkpt lat="44.872681" lon="8.6038334"><ele>92.66666666666667</ele><time>2026-04-18T09:19:46.018Z</time></trkpt><trkpt lat="44.8725407" lon="8.6039972"><ele>92.0</ele><time>2026-04-18T09:19:47.018Z</time></trkpt><trkpt lat="44.8724075" lon="8.6041576"><ele>92.0</ele><time>2026-04-18T09:19:48.018Z</time></trkpt><trkpt lat="44.8722789" lon="8.6043144"><ele>92.0</ele><time>2026-04-18T09:19:49.019Z</time></trkpt><trkpt lat="44.8721445" lon="8.6044672"><ele>92.0</ele><time>2026-04-18T09:19:50.018Z</time></trkpt><trkpt lat="44.8720056" lon="8.6046228"><ele>92.33333333333334</ele><time>2026-04-18T09:19:51.018Z</time></trkpt><trkpt lat="44.8718538" lon="8.6047754"><ele>92.66666666666667</ele><time>2026-04-18T09:19:52.019Z</time></trkpt><trkpt lat="44.8716855" lon="8.6049108"><ele>93.0</ele><time>2026-04-18T09:19:53.019Z</time></trkpt><trkpt lat="44.8714999" lon="8.6050222"><ele>93.33333333333333</ele><time>2026-04-18T09:19:54.019Z</time></trkpt><trkpt lat="44.8713038" lon="8.6051093"><ele>93.66666666666666</ele><time>2026-04-18T09:19:55.019Z</time></trkpt><trkpt lat="44.8710975" lon="8.6051674"><ele>94.0</ele><time>2026-04-18T09:19:56.019Z</time></trkpt><trkpt lat="44.8708822" lon="8.6052054"><ele>94.0</ele><time>2026-04-18T09:19:57.018Z</time></trkpt><trkpt lat="44.8706617" lon="8.6052394"><ele>94.0</ele><time>2026-04-18T09:19:58.019Z</time></trkpt><trkpt lat="44.8704361" lon="8.6052763"><ele>94.0</ele><time>2026-04-18T09:19:59.019Z</time></trkpt><trkpt lat="44.8702065" lon="8.605312"><ele>94.0</ele><time>2026-04-18T09:20:00.018Z</time></trkpt><trkpt lat="44.8699742" lon="8.6053488"><ele>94.0</ele><time>2026-04-18T09:20:01.019Z</time></trkpt><trkpt lat="44.8697407" lon="8.6053892"><ele>94.0</ele><time>2026-04-18T09:20:02.018Z</time></trkpt><trkpt lat="44.8695077" lon="8.6054275"><ele>94.0</ele><time>2026-04-18T09:20:03.019Z</time></trkpt><trkpt lat="44.8692763" lon="8.6054637"><ele>94.5</ele><time>2026-04-18T09:20:04.019Z</time></trkpt><trkpt lat="44.8690467" lon="8.605503"><ele>95.0</ele><time>2026-04-18T09:20:05.018Z</time></trkpt><trkpt lat="44.8688136" lon="8.6055408"><ele>95.0</ele><time>2026-04-18T09:20:06.018Z</time></trkpt><trkpt lat="44.8685782" lon="8.6055793"><ele>95.0</ele><time>2026-04-18T09:20:07.019Z</time></trkpt><trkpt lat="44.8683384" lon="8.6056188"><ele>94.5</ele><time>2026-04-18T09:20:08.019Z</time></trkpt><trkpt lat="44.8680946" lon="8.6056597"><ele>94.0</ele><time>2026-04-18T09:20:09.019Z</time></trkpt><trkpt lat="44.8678512" lon="8.6057012"><ele>94.0</ele><time>2026-04-18T09:20:10.019Z</time></trkpt><trkpt lat="44.8676043" lon="8.6057399"><ele>94.0</ele><time>2026-04-18T09:20:11.018Z</time></trkpt><trkpt lat="44.8673568" lon="8.6057786"><ele>94.0</ele><time>2026-04-18T09:20:12.018Z</time></trkpt><trkpt lat="44.8671101" lon="8.6058186"><ele>94.0</ele><time>2026-04-18T09:20:13.019Z</time></trkpt><trkpt lat="44.8668618" lon="8.6058592"><ele>94.0</ele><time>2026-04-18T09:20:14.018Z</time></trkpt><trkpt lat="44.8666149" lon="8.6058993"><ele>94.0</ele><time>2026-04-18T09:20:15.019Z</time></trkpt><trkpt lat="44.8663709" lon="8.605942"><ele>94.0</ele><time>2026-04-18T09:20:16.019Z</time></trkpt><trkpt lat="44.8661258" lon="8.6059825"><ele>94.0</ele><time>2026-04-18T09:20:17.019Z</time></trkpt><trkpt lat="44.865879" lon="8.606022"><ele>94.5</ele><time>2026-04-18T09:20:18.018Z</time></trkpt><trkpt lat="44.8656302" lon="8.6060629"><ele>95.0</ele><time>2026-04-18T09:20:19.019Z</time></trkpt><trkpt lat="44.8653833" lon="8.6061053"><ele>95.0</ele><time>2026-04-18T09:20:20.018Z</time></trkpt><trkpt lat="44.8651407" lon="8.606146"><ele>95.0</ele><time>2026-04-18T09:20:21.019Z</time></trkpt><trkpt lat="44.8649001" lon="8.606183"><ele>94.0</ele><time>2026-04-18T09:20:22.019Z</time></trkpt><trkpt lat="44.8646587" lon="8.6062219"><ele>93.0</ele><time>2026-04-18T09:20:23.019Z</time></trkpt><trkpt lat="44.8644173" lon="8.6062636"><ele>93.5</ele><time>2026-04-18T09:20:24.018Z</time></trkpt><trkpt lat="44.864173" lon="8.6063055"><ele>94.0</ele><time>2026-04-18T09:20:25.019Z</time></trkpt><trkpt lat="44.8639295" lon="8.606346"><ele>94.0</ele><time>2026-04-18T09:20:26.018Z</time></trkpt><trkpt lat="44.8636865" lon="8.6063839"><ele>94.0</ele><time>2026-04-18T09:20:27.019Z</time></trkpt><trkpt lat="44.8634501" lon="8.6064191"><ele>93.5</ele><time>2026-04-18T09:20:28.019Z</time></trkpt><trkpt lat="44.8632216" lon="8.606456"><ele>93.0</ele><time>2026-04-18T09:20:29.019Z</time></trkpt><trkpt lat="44.8629976" lon="8.6064914"><ele>93.0</ele><time>2026-04-18T09:20:30.018Z</time></trkpt><trkpt lat="44.8627769" lon="8.6065287"><ele>93.0</ele><time>2026-04-18T09:20:31.019Z</time></trkpt><trkpt lat="44.862553" lon="8.606564"><ele>93.0</ele><time>2026-04-18T09:20:32.019Z</time></trkpt><trkpt lat="44.8623232" lon="8.6066017"><ele>93.5</ele><time>2026-04-18T09:20:33.018Z</time></trkpt><trkpt lat="44.8620921" lon="8.6066446"><ele>94.0</ele><time>2026-04-18T09:20:34.019Z</time></trkpt><trkpt lat="44.86186" lon="8.6067013"><ele>94.5</ele><time>2026-04-18T09:20:35.019Z</time></trkpt><trkpt lat="44.8616293" lon="8.6067777"><ele>95.0</ele><time>2026-04-18T09:20:36.018Z</time></trkpt><trkpt lat="44.8614013" lon="8.6068733"><ele>95.0</ele><time>2026-04-18T09:20:37.018Z</time></trkpt><trkpt lat="44.8611756" lon="8.6069842"><ele>95.0</ele><time>2026-04-18T09:20:38.018Z</time></trkpt><trkpt lat="44.8609532" lon="8.6071108"><ele>95.5</ele><time>2026-04-18T09:20:39.019Z</time></trkpt><trkpt lat="44.8607336" lon="8.6072448"><ele>96.0</ele><time>2026-04-18T09:20:40.019Z</time></trkpt><trkpt lat="44.8605183" lon="8.6073762"><ele>96.0</ele><time>2026-04-18T09:20:41.019Z</time></trkpt><trkpt lat="44.8603099" lon="8.6075015"><ele>96.0</ele><time>2026-04-18T09:20:42.018Z</time></trkpt><trkpt lat="44.8601089" lon="8.6076231"><ele>96.0</ele><time>2026-04-18T09:20:43.018Z</time></trkpt><trkpt lat="44.8599145" lon="8.6077386"><ele>95.66666666666667</ele><time>2026-04-18T09:20:44.019Z</time></trkpt><trkpt lat="44.859729" lon="8.6078508"><ele>95.33333333333334</ele><time>2026-04-18T09:20:45.019Z</time></trkpt><trkpt lat="44.8595499" lon="8.6079604"><ele>95.0</ele><time>2026-04-18T09:20:46.018Z</time></trkpt><trkpt lat="44.8593737" lon="8.60807"><ele>95.66666666666667</ele><time>2026-04-18T09:20:47.018Z</time></trkpt><trkpt lat="44.8591952" lon="8.6081802"><ele>96.33333333333334</ele><time>2026-04-18T09:20:48.019Z</time></trkpt><trkpt lat="44.8590099" lon="8.608292"><ele>97.0</ele><time>2026-04-18T09:20:49.018Z</time></trkpt><trkpt lat="44.85882" lon="8.6084079"><ele>97.0</ele><time>2026-04-18T09:20:50.018Z</time></trkpt><trkpt lat="44.8586234" lon="8.6085267"><ele>97.0</ele><time>2026-04-18T09:20:51.019Z</time></trkpt><trkpt lat="44.8584207" lon="8.6086509"><ele>97.0</ele><time>2026-04-18T09:20:52.019Z</time></trkpt><trkpt lat="44.8582193" lon="8.6087743"><ele>96.66666666666667</ele><time>2026-04-18T09:20:53.019Z</time></trkpt><trkpt lat="44.8580209" lon="8.6088967"><ele>96.33333333333334</ele><time>2026-04-18T09:20:54.019Z</time></trkpt><trkpt lat="44.8578274" lon="8.6090136"><ele>96.0</ele><time>2026-04-18T09:20:55.019Z</time></trkpt><trkpt lat="44.8576393" lon="8.6091264"><ele>96.66666666666666</ele><time>2026-04-18T09:20:56.019Z</time></trkpt><trkpt lat="44.8574538" lon="8.6092374"><ele>97.33333333333333</ele><time>2026-04-18T09:20:57.018Z</time></trkpt><trkpt lat="44.857273" lon="8.6093474"><ele>98.0</ele><time>2026-04-18T09:20:58.019Z</time></trkpt><trkpt lat="44.8571029" lon="8.6094538"><ele>97.66666666666666</ele><time>2026-04-18T09:20:59.018Z</time></trkpt><trkpt lat="44.856937" lon="8.6095582"><ele>97.33333333333334</ele><time>2026-04-18T09:21:00.019Z</time></trkpt><trkpt lat="44.8567768" lon="8.6096565"><ele>97.0</ele><time>2026-04-18T09:21:01.018Z</time></trkpt><trkpt lat="44.8566203" lon="8.6097537"><ele>97.0</ele><time>2026-04-18T09:21:02.019Z</time></trkpt><trkpt lat="44.8564711" lon="8.6098458"><ele>97.0</ele><time>2026-04-18T09:21:03.019Z</time></trkpt><trkpt lat="44.8563242" lon="8.6099361"><ele>97.0</ele><time>2026-04-18T09:21:04.019Z</time></trkpt><trkpt lat="44.8561711" lon="8.610029"><ele>97.0</ele><time>2026-04-18T09:21:05.019Z</time></trkpt><trkpt lat="44.8560131" lon="8.6101296"><ele>97.0</ele><time>2026-04-18T09:21:06.018Z</time></trkpt><trkpt lat="44.8558471" lon="8.6102333"><ele>97.0</ele><time>2026-04-18T09:21:07.019Z</time></trkpt><trkpt lat="44.8556726" lon="8.6103415"><ele>97.0</ele><time>2026-04-18T09:21:08.018Z</time></trkpt><trkpt lat="44.8554924" lon="8.6104532"><ele>97.0</ele><time>2026-04-18T09:21:09.019Z</time></trkpt><trkpt lat="44.8553073" lon="8.6105705"><ele>97.0</ele><time>2026-04-18T09:21:10.018Z</time></trkpt><trkpt lat="44.8551189" lon="8.6106905"><ele>96.66666666666667</ele><time>2026-04-18T09:21:11.018Z</time></trkpt><trkpt lat="44.8549237" lon="8.6108083"><ele>96.33333333333334</ele><time>2026-04-18T09:21:12.019Z</time></trkpt><trkpt lat="44.8547237" lon="8.6109278"><ele>96.0</ele><time>2026-04-18T09:21:13.019Z</time></trkpt><trkpt lat="44.8545207" lon="8.6110511"><ele>96.0</ele><time>2026-04-18T09:21:14.019Z</time></trkpt><trkpt lat="44.8543135" lon="8.611176"><ele>96.0</ele><time>2026-04-18T09:21:15.019Z</time></trkpt><trkpt lat="44.8541046" lon="8.6113048"><ele>96.0</ele><time>2026-04-18T09:21:16.018Z</time></trkpt><trkpt lat="44.8538923" lon="8.611437"><ele>96.0</ele><time>2026-04-18T09:21:17.018Z</time></trkpt><trkpt lat="44.853678" lon="8.6115718"><ele>96.0</ele><time>2026-04-18T09:21:18.018Z</time></trkpt><trkpt lat="44.8534613" lon="8.6117064"><ele>96.0</ele><time>2026-04-18T09:21:19.019Z</time></trkpt><trkpt lat="44.8532415" lon="8.6118405"><ele>96.0</ele><time>2026-04-18T09:21:20.018Z</time></trkpt><trkpt lat="44.8530237" lon="8.6119756"><ele>96.0</ele><time>2026-04-18T09:21:21.019Z</time></trkpt><trkpt lat="44.8528094" lon="8.6121112"><ele>96.5</ele><time>2026-04-18T09:21:22.018Z</time></trkpt><trkpt lat="44.8525979" lon="8.6122424"><ele>97.0</ele><time>2026-04-18T09:21:23.019Z</time></trkpt><trkpt lat="44.8523856" lon="8.6123686"><ele>97.0</ele><time>2026-04-18T09:21:24.018Z</time></trkpt><trkpt lat="44.8521782" lon="8.6124965"><ele>97.0</ele><time>2026-04-18T09:21:25.018Z</time></trkpt><trkpt lat="44.8519745" lon="8.6126231"><ele>97.0</ele><time>2026-04-18T09:21:26.018Z</time></trkpt><trkpt lat="44.8517718" lon="8.6127486"><ele>97.33333333333334</ele><time>2026-04-18T09:21:27.019Z</time></trkpt><trkpt lat="44.8515699" lon="8.6128741"><ele>97.66666666666666</ele><time>2026-04-18T09:21:28.019Z</time></trkpt><trkpt lat="44.8513693" lon="8.612998"><ele>98.0</ele><time>2026-04-18T09:21:29.019Z</time></trkpt><trkpt lat="44.8511722" lon="8.613121"><ele>98.0</ele><time>2026-04-18T09:21:30.018Z</time></trkpt><trkpt lat="44.8509824" lon="8.6132379"><ele>98.0</ele><time>2026-04-18T09:21:31.019Z</time></trkpt><trkpt lat="44.8507984" lon="8.6133503"><ele>98.0</ele><time>2026-04-18T09:21:32.019Z</time></trkpt><trkpt lat="44.8506186" lon="8.6134608"><ele>98.0</ele><time>2026-04-18T09:21:33.018Z</time></trkpt><trkpt lat="44.8504346" lon="8.6135742"><ele>98.0</ele><time>2026-04-18T09:21:34.018Z</time></trkpt><trkpt lat="44.8502492" lon="8.6136899"><ele>98.0</ele><time>2026-04-18T09:21:35.019Z</time></trkpt><trkpt lat="44.8500692" lon="8.6137996"><ele>98.66666666666666</ele><time>2026-04-18T09:21:36.019Z</time></trkpt><trkpt lat="44.8498924" lon="8.6139073"><ele>99.33333333333334</ele><time>2026-04-18T09:21:37.019Z</time></trkpt><trkpt lat="44.8497222" lon="8.6140114"><ele>100.0</ele><time>2026-04-18T09:21:38.019Z</time></trkpt><trkpt lat="44.8495555" lon="8.614114"><ele>100.0</ele><time>2026-04-18T09:21:39.018Z</time></trkpt><trkpt lat="44.8493882" lon="8.6142187"><ele>100.0</ele><time>2026-04-18T09:21:40.019Z</time></trkpt><trkpt lat="44.8492186" lon="8.6143227"><ele>100.0</ele><time>2026-04-18T09:21:41.018Z</time></trkpt><trkpt lat="44.8490465" lon="8.614429"><ele>99.33333333333334</ele><time>2026-04-18T09:21:42.019Z</time></trkpt><trkpt lat="44.8488737" lon="8.6145346"><ele>98.66666666666666</ele><time>2026-04-18T09:21:43.018Z</time></trkpt><trkpt lat="44.8486999" lon="8.6146406"><ele>98.0</ele><time>2026-04-18T09:21:44.019Z</time></trkpt><trkpt lat="44.8485234" lon="8.6147532"><ele>98.33333333333333</ele><time>2026-04-18T09:21:45.019Z</time></trkpt><trkpt lat="44.8483453" lon="8.614867"><ele>98.66666666666666</ele><time>2026-04-18T09:21:46.018Z</time></trkpt><trkpt lat="44.8481665" lon="8.6149798"><ele>99.0</ele><time>2026-04-18T09:21:47.019Z</time></trkpt><trkpt lat="44.8479883" lon="8.6150953"><ele>99.0</ele><time>2026-04-18T09:21:48.019Z</time></trkpt><trkpt lat="44.8478057" lon="8.6152069"><ele>99.0</ele><time>2026-04-18T09:21:49.018Z</time></trkpt><trkpt lat="44.8476216" lon="8.6153192"><ele>99.0</ele><time>2026-04-18T09:21:50.019Z</time></trkpt><trkpt lat="44.847436" lon="8.6154322"><ele>98.33333333333334</ele><time>2026-04-18T09:21:51.019Z</time></trkpt><trkpt lat="44.8472547" lon="8.615547"><ele>97.66666666666667</ele><time>2026-04-18T09:21:52.018Z</time></trkpt><trkpt lat="44.8470753" lon="8.6156566"><ele>97.0</ele><time>2026-04-18T09:21:53.019Z</time></trkpt><trkpt lat="44.8468982" lon="8.6157646"><ele>97.33333333333334</ele><time>2026-04-18T09:21:54.019Z</time></trkpt><trkpt lat="44.8467203" lon="8.6158702"><ele>97.66666666666666</ele><time>2026-04-18T09:21:55.018Z</time></trkpt><trkpt lat="44.8465451" lon="8.6159782"><ele>98.0</ele><time>2026-04-18T09:21:56.018Z</time></trkpt><trkpt lat="44.8463726" lon="8.6160872"><ele>98.0</ele><time>2026-04-18T09:21:57.019Z</time></trkpt><trkpt lat="44.8461969" lon="8.6161968"><ele>98.0</ele><time>2026-04-18T09:21:58.019Z</time></trkpt><trkpt lat="44.84602" lon="8.616308"><ele>98.0</ele><time>2026-04-18T09:21:59.019Z</time></trkpt><trkpt lat="44.8458407" lon="8.6164185"><ele>98.33333333333333</ele><time>2026-04-18T09:22:00.019Z</time></trkpt><trkpt lat="44.8456598" lon="8.6165313"><ele>98.66666666666666</ele><time>2026-04-18T09:22:01.019Z</time></trkpt><trkpt lat="44.8454823" lon="8.6166407"><ele>99.0</ele><time>2026-04-18T09:22:02.019Z</time></trkpt><trkpt lat="44.8453101" lon="8.6167455"><ele>99.0</ele><time>2026-04-18T09:22:03.018Z</time></trkpt><trkpt lat="44.8451451" lon="8.6168459"><ele>99.0</ele><time>2026-04-18T09:22:04.019Z</time></trkpt><trkpt lat="44.8449856" lon="8.6169469"><ele>99.0</ele><time>2026-04-18T09:22:05.019Z</time></trkpt><trkpt lat="44.8448294" lon="8.6170462"><ele>99.0</ele><time>2026-04-18T09:22:06.018Z</time></trkpt><trkpt lat="44.8446734" lon="8.6171492"><ele>99.0</ele><time>2026-04-18T09:22:07.019Z</time></trkpt><trkpt lat="44.844525" lon="8.6172551"><ele>99.0</ele><time>2026-04-18T09:22:08.018Z</time></trkpt><trkpt lat="44.8443857" lon="8.617364"><ele>99.66666666666666</ele><time>2026-04-18T09:22:09.019Z</time></trkpt><trkpt lat="44.8442537" lon="8.617477"><ele>100.33333333333333</ele><time>2026-04-18T09:22:10.019Z</time></trkpt><trkpt lat="44.8441321" lon="8.6175954"><ele>101.0</ele><time>2026-04-18T09:22:11.019Z</time></trkpt><trkpt lat="44.8440114" lon="8.6177176"><ele>101.0</ele><time>2026-04-18T09:22:12.019Z</time></trkpt><trkpt lat="44.8438937" lon="8.617838"><ele>101.0</ele><time>2026-04-18T09:22:13.019Z</time></trkpt><trkpt lat="44.8437791" lon="8.6179586"><ele>101.0</ele><time>2026-04-18T09:22:14.019Z</time></trkpt><trkpt lat="44.8436631" lon="8.6180798"><ele>101.0</ele><time>2026-04-18T09:22:15.019Z</time></trkpt><trkpt lat="44.8435459" lon="8.6182012"><ele>101.33333333333333</ele><time>2026-04-18T09:22:16.019Z</time></trkpt><trkpt lat="44.8434263" lon="8.6183266"><ele>101.66666666666666</ele><time>2026-04-18T09:22:17.019Z</time></trkpt><trkpt lat="44.8433034" lon="8.6184526"><ele>102.0</ele><time>2026-04-18T09:22:18.019Z</time></trkpt><trkpt lat="44.8431808" lon="8.6185814"><ele>101.66666666666666</ele><time>2026-04-18T09:22:19.019Z</time></trkpt><trkpt lat="44.8430558" lon="8.6187115"><ele>101.33333333333333</ele><time>2026-04-18T09:22:20.019Z</time></trkpt><trkpt lat="44.8429334" lon="8.6188395"><ele>101.0</ele><time>2026-04-18T09:22:21.019Z</time></trkpt><trkpt lat="44.8428138" lon="8.618966"><ele>101.0</ele><time>2026-04-18T09:22:22.018Z</time></trkpt><trkpt lat="44.8426981" lon="8.6190878"><ele>101.0</ele><time>2026-04-18T09:22:23.018Z</time></trkpt><trkpt lat="44.8425861" lon="8.6192067"><ele>101.0</ele><time>2026-04-18T09:22:24.019Z</time></trkpt><trkpt lat="44.8424755" lon="8.6193252"><ele>101.0</ele><time>2026-04-18T09:22:25.018Z</time></trkpt><trkpt lat="44.8423604" lon="8.6194461"><ele>100.75</ele><time>2026-04-18T09:22:26.018Z</time></trkpt><trkpt lat="44.8422423" lon="8.6195716"><ele>100.5</ele><time>2026-04-18T09:22:27.019Z</time></trkpt><trkpt lat="44.8421226" lon="8.6196971"><ele>100.25</ele><time>2026-04-18T09:22:28.019Z</time></trkpt><trkpt lat="44.8420038" lon="8.6198217"><ele>100.0</ele><time>2026-04-18T09:22:29.019Z</time></trkpt><trkpt lat="44.841887" lon="8.6199417"><ele>100.25</ele><time>2026-04-18T09:22:30.018Z</time></trkpt><trkpt lat="44.8417728" lon="8.6200588"><ele>100.5</ele><time>2026-04-18T09:22:31.018Z</time></trkpt><trkpt lat="44.8416665" lon="8.6201705"><ele>100.75</ele><time>2026-04-18T09:22:32.019Z</time></trkpt><trkpt lat="44.8415706" lon="8.6202716"><ele>101.0</ele><time>2026-04-18T09:22:33.018Z</time></trkpt><trkpt lat="44.8414769" lon="8.6203714"><ele>101.0</ele><time>2026-04-18T09:22:34.018Z</time></trkpt><trkpt lat="44.8413866" lon="8.6204672"><ele>101.0</ele><time>2026-04-18T09:22:35.019Z</time></trkpt><trkpt lat="44.8412973" lon="8.6205594"><ele>101.0</ele><time>2026-04-18T09:22:36.019Z</time></trkpt><trkpt lat="44.8412074" lon="8.6206508"><ele>101.0</ele><time>2026-04-18T09:22:37.018Z</time></trkpt><trkpt lat="44.841119" lon="8.6207431"><ele>101.0</ele><time>2026-04-18T09:22:38.019Z</time></trkpt><trkpt lat="44.8410257" lon="8.6208392"><ele>101.25</ele><time>2026-04-18T09:22:39.019Z</time></trkpt><trkpt lat="44.840926" lon="8.6209429"><ele>101.5</ele><time>2026-04-18T09:22:40.019Z</time></trkpt><trkpt lat="44.8408208" lon="8.6210536"><ele>101.75</ele><time>2026-04-18T09:22:41.019Z</time></trkpt><trkpt lat="44.8407131" lon="8.6211691"><ele>102.0</ele><time>2026-04-18T09:22:42.019Z</time></trkpt><trkpt lat="44.8406035" lon="8.6212873"><ele>102.5</ele><time>2026-04-18T09:22:43.018Z</time></trkpt><trkpt lat="44.8404898" lon="8.6214102"><ele>103.0</ele><time>2026-04-18T09:22:44.019Z</time></trkpt><trkpt lat="44.8403719" lon="8.6215387"><ele>103.5</ele><time>2026-04-18T09:22:45.018Z</time></trkpt><trkpt lat="44.8402556" lon="8.6216768"><ele>104.0</ele><time>2026-04-18T09:22:46.019Z</time></trkpt><trkpt lat="44.8401375" lon="8.621824"><ele>103.66666666666666</ele><time>2026-04-18T09:22:47.018Z</time></trkpt><trkpt lat="44.8400183" lon="8.6219783"><ele>103.33333333333334</ele><time>2026-04-18T09:22:48.018Z</time></trkpt><trkpt lat="44.8399007" lon="8.6221278"><ele>103.0</ele><time>2026-04-18T09:22:49.019Z</time></trkpt><trkpt lat="44.8397899" lon="8.6222699"><ele>103.0</ele><time>2026-04-18T09:22:50.018Z</time></trkpt><trkpt lat="44.8396792" lon="8.6224021"><ele>103.0</ele><time>2026-04-18T09:22:51.019Z</time></trkpt><trkpt lat="44.8395667" lon="8.6225344"><ele>103.0</ele><time>2026-04-18T09:22:52.019Z</time></trkpt><trkpt lat="44.8394515" lon="8.6226691"><ele>103.0</ele><time>2026-04-18T09:22:53.018Z</time></trkpt><trkpt lat="44.8393277" lon="8.6227956"><ele>104.0</ele><time>2026-04-18T09:22:54.018Z</time></trkpt><trkpt lat="44.8391911" lon="8.6229154"><ele>105.0</ele><time>2026-04-18T09:22:55.019Z</time></trkpt><trkpt lat="44.8390507" lon="8.6230269"><ele>106.0</ele><time>2026-04-18T09:22:56.018Z</time></trkpt><trkpt lat="44.8389105" lon="8.6231211"><ele>106.0</ele><time>2026-04-18T09:22:57.018Z</time></trkpt><trkpt lat="44.8387753" lon="8.6232097"><ele>106.0</ele><time>2026-04-18T09:22:58.018Z</time></trkpt><trkpt lat="44.8386451" lon="8.623296"><ele>106.0</ele><time>2026-04-18T09:22:59.019Z</time></trkpt><trkpt lat="44.8385224" lon="8.6233757"><ele>106.0</ele><time>2026-04-18T09:23:00.018Z</time></trkpt><trkpt lat="44.8384055" lon="8.6234534"><ele>105.8</ele><time>2026-04-18T09:23:01.018Z</time></trkpt><trkpt lat="44.8382991" lon="8.6235297"><ele>105.6</ele><time>2026-04-18T09:23:02.018Z</time></trkpt><trkpt lat="44.8382043" lon="8.623612"><ele>105.4</ele><time>2026-04-18T09:23:03.018Z</time></trkpt><trkpt lat="44.8381205" lon="8.6236929"><ele>105.2</ele><time>2026-04-18T09:23:04.019Z</time></trkpt><trkpt lat="44.8380506" lon="8.6237624"><ele>105.0</ele><time>2026-04-18T09:23:05.018Z</time></trkpt><trkpt lat="44.8379948" lon="8.6238194"><ele>105.0</ele><time>2026-04-18T09:23:06.018Z</time></trkpt><trkpt lat="44.8379017" lon="8.6239166"><ele>105.0</ele><time>2026-04-18T09:23:08.018Z</time></trkpt><trkpt lat="44.837812" lon="8.6240057"><ele>105.0</ele><time>2026-04-18T09:23:10.019Z</time></trkpt><trkpt lat="44.8377161" lon="8.6241013"><ele>105.0</ele><time>2026-04-18T09:23:12.018Z</time></trkpt><trkpt lat="44.8376612" lon="8.6241573"><ele>105.0</ele><time>2026-04-18T09:23:13.018Z</time></trkpt><trkpt lat="44.8375982" lon="8.6242191"><ele>104.83333333333333</ele><time>2026-04-18T09:23:14.018Z</time></trkpt><trkpt lat="44.8375366" lon="8.6242827"><ele>104.66666666666666</ele><time>2026-04-18T09:23:15.019Z</time></trkpt><trkpt lat="44.8374713" lon="8.6243459"><ele>104.5</ele><time>2026-04-18T09:23:16.019Z</time></trkpt><trkpt lat="44.8374018" lon="8.6244045"><ele>104.33333333333333</ele><time>2026-04-18T09:23:17.019Z</time></trkpt><trkpt lat="44.8373317" lon="8.6244636"><ele>104.16666666666666</ele><time>2026-04-18T09:23:18.019Z</time></trkpt><trkpt lat="44.8372558" lon="8.6245244"><ele>104.0</ele><time>2026-04-18T09:23:19.018Z</time></trkpt><trkpt lat="44.8371748" lon="8.6245916"><ele>104.0</ele><time>2026-04-18T09:23:20.019Z</time></trkpt><trkpt lat="44.8370902" lon="8.6246659"><ele>104.0</ele><time>2026-04-18T09:23:21.018Z</time></trkpt><trkpt lat="44.8370083" lon="8.6247548"><ele>104.0</ele><time>2026-04-18T09:23:22.019Z</time></trkpt><trkpt lat="44.8369286" lon="8.6248576"><ele>104.0</ele><time>2026-04-18T09:23:23.019Z</time></trkpt><trkpt lat="44.8368487" lon="8.624969"><ele>104.0</ele><time>2026-04-18T09:23:24.019Z</time></trkpt><trkpt lat="44.8367707" lon="8.6250814"><ele>103.80000000000001</ele><time>2026-04-18T09:23:25.018Z</time></trkpt><trkpt lat="44.8366951" lon="8.6251896"><ele>103.60000000000001</ele><time>2026-04-18T09:23:26.019Z</time></trkpt><trkpt lat="44.836622" lon="8.6252894"><ele>103.4</ele><time>2026-04-18T09:23:27.019Z</time></trkpt><trkpt lat="44.8365534" lon="8.6253862"><ele>103.2</ele><time>2026-04-18T09:23:28.019Z</time></trkpt><trkpt lat="44.8364898" lon="8.6254792"><ele>103.0</ele><time>2026-04-18T09:23:29.018Z</time></trkpt><trkpt lat="44.8364248" lon="8.6255747"><ele>103.0</ele><time>2026-04-18T09:23:30.018Z</time></trkpt><trkpt lat="44.8363579" lon="8.6256713"><ele>103.0</ele><time>2026-04-18T09:23:31.019Z</time></trkpt><trkpt lat="44.8362882" lon="8.6257775"><ele>103.0</ele><time>2026-04-18T09:23:32.018Z</time></trkpt><trkpt lat="44.8362143" lon="8.6258899"><ele>103.0</ele><time>2026-04-18T09:23:33.018Z</time></trkpt><trkpt lat="44.8361388" lon="8.6260036"><ele>103.0</ele><time>2026-04-18T09:23:34.019Z</time></trkpt><trkpt lat="44.8360577" lon="8.6261017"><ele>103.4</ele><time>2026-04-18T09:23:35.019Z</time></trkpt><trkpt lat="44.8359681" lon="8.6261797"><ele>103.80000000000001</ele><time>2026-04-18T09:23:36.019Z</time></trkpt><trkpt lat="44.8358762" lon="8.6262371"><ele>104.2</ele><time>2026-04-18T09:23:37.019Z</time></trkpt><trkpt lat="44.8357812" lon="8.626268"><ele>104.6</ele><time>2026-04-18T09:23:38.019Z</time></trkpt><trkpt lat="44.8357005" lon="8.6262776"><ele>105.0</ele><time>2026-04-18T09:23:39.018Z</time></trkpt><trkpt lat="44.8356081" lon="8.6262705"><ele>105.0</ele><time>2026-04-18T09:23:41.019Z</time></trkpt><trkpt lat="44.835538" lon="8.62626"><ele>105.0</ele><time>2026-04-18T09:23:44.019Z</time></trkpt><trkpt lat="44.835438" lon="8.6262061"><ele>105.0</ele><time>2026-04-18T09:24:14.019Z</time></trkpt><trkpt lat="44.8353641" lon="8.6261564"><ele>105.0</ele><time>2026-04-18T09:24:16.018Z</time></trkpt><trkpt lat="44.8353025" lon="8.6261148"><ele>105.0</ele><time>2026-04-18T09:24:18.019Z</time></trkpt><trkpt lat="44.8351895" lon="8.6260448"><ele>105.2</ele><time>2026-04-18T09:24:20.018Z</time></trkpt><trkpt lat="44.8351103" lon="8.625995"><ele>105.4</ele><time>2026-04-18T09:24:21.019Z</time></trkpt><trkpt lat="44.8350208" lon="8.6259358"><ele>105.6</ele><time>2026-04-18T09:24:22.019Z</time></trkpt><trkpt lat="44.8349314" lon="8.625884"><ele>105.8</ele><time>2026-04-18T09:24:23.018Z</time></trkpt><trkpt lat="44.8348357" lon="8.6258433"><ele>106.0</ele><time>2026-04-18T09:24:24.018Z</time></trkpt><trkpt lat="44.8347304" lon="8.6258088"><ele>106.0</ele><time>2026-04-18T09:24:25.019Z</time></trkpt><trkpt lat="44.8346124" lon="8.6257755"><ele>106.0</ele><time>2026-04-18T09:24:26.018Z</time></trkpt><trkpt lat="44.8344842" lon="8.6257456"><ele>106.0</ele><time>2026-04-18T09:24:27.019Z</time></trkpt><trkpt lat="44.8343492" lon="8.6257142"><ele>106.0</ele><time>2026-04-18T09:24:28.019Z</time></trkpt><trkpt lat="44.8342121" lon="8.6256823"><ele>106.0</ele><time>2026-04-18T09:24:29.018Z</time></trkpt><trkpt lat="44.834082" lon="8.6256515"><ele>106.0</ele><time>2026-04-18T09:24:30.018Z</time></trkpt><trkpt lat="44.8339475" lon="8.625619"><ele>106.0</ele><time>2026-04-18T09:24:31.018Z</time></trkpt><trkpt lat="44.8338122" lon="8.6255852"><ele>106.0</ele><time>2026-04-18T09:24:32.019Z</time></trkpt><trkpt lat="44.8336752" lon="8.6255476"><ele>106.0</ele><time>2026-04-18T09:24:33.018Z</time></trkpt><trkpt lat="44.8335354" lon="8.6255121"><ele>106.0</ele><time>2026-04-18T09:24:34.019Z</time></trkpt><trkpt lat="44.8333947" lon="8.6254783"><ele>106.0</ele><time>2026-04-18T09:24:35.019Z</time></trkpt><trkpt lat="44.8332559" lon="8.625447"><ele>106.0</ele><time>2026-04-18T09:24:36.019Z</time></trkpt><trkpt lat="44.8331177" lon="8.625416"><ele>106.0</ele><time>2026-04-18T09:24:37.018Z</time></trkpt><trkpt lat="44.8329807" lon="8.625382"><ele>106.0</ele><time>2026-04-18T09:24:38.019Z</time></trkpt><trkpt lat="44.8328446" lon="8.6253474"><ele>106.0</ele><time>2026-04-18T09:24:39.019Z</time></trkpt><trkpt lat="44.8327035" lon="8.6253139"><ele>106.0</ele><time>2026-04-18T09:24:40.019Z</time></trkpt><trkpt lat="44.832557" lon="8.6252767"><ele>106.0</ele><time>2026-04-18T09:24:41.018Z</time></trkpt><trkpt lat="44.832407" lon="8.6252427"><ele>106.0</ele><time>2026-04-18T09:24:42.018Z</time></trkpt><trkpt lat="44.8322538" lon="8.6252163"><ele>106.0</ele><time>2026-04-18T09:24:43.018Z</time></trkpt><trkpt lat="44.832097" lon="8.6252117"><ele>106.0</ele><time>2026-04-18T09:24:44.019Z</time></trkpt><trkpt lat="44.8319398" lon="8.6252316"><ele>106.0</ele><time>2026-04-18T09:24:45.019Z</time></trkpt><trkpt lat="44.8317774" lon="8.6252562"><ele>106.0</ele><time>2026-04-18T09:24:46.019Z</time></trkpt><trkpt lat="44.8316106" lon="8.625282"><ele>106.0</ele><time>2026-04-18T09:24:47.019Z</time></trkpt><trkpt lat="44.8314422" lon="8.6253104"><ele>106.0</ele><time>2026-04-18T09:24:48.019Z</time></trkpt><trkpt lat="44.8312744" lon="8.6253336"><ele>106.0</ele><time>2026-04-18T09:24:49.019Z</time></trkpt><trkpt lat="44.8311037" lon="8.6253601"><ele>106.0</ele><time>2026-04-18T09:24:50.018Z</time></trkpt><trkpt lat="44.830937" lon="8.625389"><ele>106.0</ele><time>2026-04-18T09:24:51.019Z</time></trkpt><trkpt lat="44.8307725" lon="8.6254233"><ele>106.0</ele><time>2026-04-18T09:24:52.019Z</time></trkpt><trkpt lat="44.8306092" lon="8.6254601"><ele>106.0</ele><time>2026-04-18T09:24:53.019Z</time></trkpt><trkpt lat="44.8304492" lon="8.6255014"><ele>106.0</ele><time>2026-04-18T09:24:54.019Z</time></trkpt><trkpt lat="44.8302915" lon="8.6255453"><ele>106.0</ele><time>2026-04-18T09:24:55.019Z</time></trkpt><trkpt lat="44.8301428" lon="8.6255873"><ele>106.0</ele><time>2026-04-18T09:24:56.019Z</time></trkpt><trkpt lat="44.8299998" lon="8.6256273"><ele>106.0</ele><time>2026-04-18T09:24:57.019Z</time></trkpt><trkpt lat="44.8298603" lon="8.6256711"><ele>106.0</ele><time>2026-04-18T09:24:58.018Z</time></trkpt><trkpt lat="44.82972" lon="8.6257161"><ele>106.0</ele><time>2026-04-18T09:24:59.019Z</time></trkpt><trkpt lat="44.8295792" lon="8.6257629"><ele>106.0</ele><time>2026-04-18T09:25:00.018Z</time></trkpt><trkpt lat="44.8294343" lon="8.6258164"><ele>106.0</ele><time>2026-04-18T09:25:01.019Z</time></trkpt><trkpt lat="44.8292808" lon="8.6258734"><ele>106.0</ele><time>2026-04-18T09:25:02.019Z</time></trkpt><trkpt lat="44.829123" lon="8.6259343"><ele>106.0</ele><time>2026-04-18T09:25:03.019Z</time></trkpt><trkpt lat="44.8289622" lon="8.6260041"><ele>106.0</ele><time>2026-04-18T09:25:04.019Z</time></trkpt><trkpt lat="44.8288073" lon="8.6260765"><ele>106.0</ele><time>2026-04-18T09:25:05.018Z</time></trkpt><trkpt lat="44.8286566" lon="8.6261472"><ele>106.0</ele><time>2026-04-18T09:25:06.019Z</time></trkpt><trkpt lat="44.8285017" lon="8.6262242"><ele>106.0</ele><time>2026-04-18T09:25:07.019Z</time></trkpt><trkpt lat="44.828343" lon="8.6263089"><ele>106.0</ele><time>2026-04-18T09:25:08.018Z</time></trkpt><trkpt lat="44.8281817" lon="8.6264002"><ele>106.0</ele><time>2026-04-18T09:25:09.019Z</time></trkpt><trkpt lat="44.8280242" lon="8.6264964"><ele>106.0</ele><time>2026-04-18T09:25:10.019Z</time></trkpt><trkpt lat="44.8278703" lon="8.6265951"><ele>106.0</ele><time>2026-04-18T09:25:11.019Z</time></trkpt><trkpt lat="44.8277199" lon="8.626697"><ele>106.0</ele><time>2026-04-18T09:25:12.019Z</time></trkpt><trkpt lat="44.8275737" lon="8.6268016"><ele>106.0</ele><time>2026-04-18T09:25:13.019Z</time></trkpt><trkpt lat="44.8274272" lon="8.6269053"><ele>106.0</ele><time>2026-04-18T09:25:14.019Z</time></trkpt><trkpt lat="44.8272835" lon="8.6270043"><ele>106.0</ele><time>2026-04-18T09:25:15.019Z</time></trkpt><trkpt lat="44.8271381" lon="8.6271024"><ele>106.0</ele><time>2026-04-18T09:25:16.019Z</time></trkpt><trkpt lat="44.8269869" lon="8.6272026"><ele>106.0</ele><time>2026-04-18T09:25:17.019Z</time></trkpt><trkpt lat="44.8268344" lon="8.6273047"><ele>106.33333333333334</ele><time>2026-04-18T09:25:18.019Z</time></trkpt><trkpt lat="44.8266816" lon="8.6274047"><ele>106.66666666666666</ele><time>2026-04-18T09:25:19.019Z</time></trkpt><trkpt lat="44.8265331" lon="8.6274978"><ele>107.0</ele><time>2026-04-18T09:25:20.018Z</time></trkpt><trkpt lat="44.8263847" lon="8.6275915"><ele>107.0</ele><time>2026-04-18T09:25:21.018Z</time></trkpt><trkpt lat="44.8262437" lon="8.6277026"><ele>107.0</ele><time>2026-04-18T09:25:22.019Z</time></trkpt><trkpt lat="44.8261148" lon="8.6278368"><ele>107.0</ele><time>2026-04-18T09:25:23.019Z</time></trkpt><trkpt lat="44.8259933" lon="8.62799"><ele>106.66666666666666</ele><time>2026-04-18T09:25:24.018Z</time></trkpt><trkpt lat="44.8258713" lon="8.6281436"><ele>106.33333333333334</ele><time>2026-04-18T09:25:25.018Z</time></trkpt><trkpt lat="44.8257416" lon="8.6282789"><ele>106.0</ele><time>2026-04-18T09:25:26.018Z</time></trkpt><trkpt lat="44.8256033" lon="8.6283926"><ele>106.0</ele><time>2026-04-18T09:25:27.018Z</time></trkpt><trkpt lat="44.8254526" lon="8.6284828"><ele>106.0</ele><time>2026-04-18T09:25:28.019Z</time></trkpt><trkpt lat="44.8252883" lon="8.6285465"><ele>106.0</ele><time>2026-04-18T09:25:29.018Z</time></trkpt><trkpt lat="44.8251185" lon="8.6285819"><ele>106.0</ele><time>2026-04-18T09:25:30.019Z</time></trkpt><trkpt lat="44.8249434" lon="8.6285971"><ele>106.0</ele><time>2026-04-18T09:25:31.018Z</time></trkpt><trkpt lat="44.8247623" lon="8.6286031"><ele>106.0</ele><time>2026-04-18T09:25:32.019Z</time></trkpt><trkpt lat="44.8245723" lon="8.6286111"><ele>106.0</ele><time>2026-04-18T09:25:33.018Z</time></trkpt><trkpt lat="44.824377" lon="8.6286244"><ele>106.0</ele><time>2026-04-18T09:25:34.019Z</time></trkpt><trkpt lat="44.8241775" lon="8.6286361"><ele>106.0</ele><time>2026-04-18T09:25:35.019Z</time></trkpt><trkpt lat="44.8239819" lon="8.6286474"><ele>106.0</ele><time>2026-04-18T09:25:36.019Z</time></trkpt><trkpt lat="44.8237891" lon="8.6286592"><ele>106.0</ele><time>2026-04-18T09:25:37.019Z</time></trkpt><trkpt lat="44.8235979" lon="8.6286722"><ele>106.0</ele><time>2026-04-18T09:25:38.018Z</time></trkpt><trkpt lat="44.823407" lon="8.628683"><ele>106.0</ele><time>2026-04-18T09:25:39.019Z</time></trkpt><trkpt lat="44.8232197" lon="8.6286921"><ele>106.0</ele><time>2026-04-18T09:25:40.018Z</time></trkpt><trkpt lat="44.8230325" lon="8.6287008"><ele>106.0</ele><time>2026-04-18T09:25:41.018Z</time></trkpt><trkpt lat="44.8228414" lon="8.6287087"><ele>106.33333333333334</ele><time>2026-04-18T09:25:42.019Z</time></trkpt><trkpt lat="44.8226455" lon="8.6287193"><ele>106.66666666666666</ele><time>2026-04-18T09:25:43.018Z</time></trkpt><trkpt lat="44.8224473" lon="8.6287319"><ele>107.0</ele><time>2026-04-18T09:25:44.019Z</time></trkpt><trkpt lat="44.8222487" lon="8.6287439"><ele>107.0</ele><time>2026-04-18T09:25:45.019Z</time></trkpt><trkpt lat="44.8220502" lon="8.6287563"><ele>107.0</ele><time>2026-04-18T09:25:46.019Z</time></trkpt><trkpt lat="44.821852" lon="8.6287671"><ele>107.0</ele><time>2026-04-18T09:25:47.019Z</time></trkpt><trkpt lat="44.8216602" lon="8.6287771"><ele>107.66666666666666</ele><time>2026-04-18T09:25:48.018Z</time></trkpt><trkpt lat="44.8214751" lon="8.6287889"><ele>108.33333333333334</ele><time>2026-04-18T09:25:49.018Z</time></trkpt><trkpt lat="44.8212979" lon="8.6287993"><ele>109.0</ele><time>2026-04-18T09:25:50.018Z</time></trkpt><trkpt lat="44.8211298" lon="8.6288107"><ele>108.66666666666667</ele><time>2026-04-18T09:25:51.019Z</time></trkpt><trkpt lat="44.8209594" lon="8.6288204"><ele>108.33333333333334</ele><time>2026-04-18T09:25:52.019Z</time></trkpt><trkpt lat="44.8207814" lon="8.6288301"><ele>108.0</ele><time>2026-04-18T09:25:53.018Z</time></trkpt><trkpt lat="44.8205963" lon="8.6288415"><ele>108.0</ele><time>2026-04-18T09:25:54.019Z</time></trkpt><trkpt lat="44.8204014" lon="8.6288511"><ele>108.0</ele><time>2026-04-18T09:25:55.018Z</time></trkpt><trkpt lat="44.8202031" lon="8.62886"><ele>108.0</ele><time>2026-04-18T09:25:56.018Z</time></trkpt><trkpt lat="44.8200025" lon="8.6288731"><ele>108.33333333333334</ele><time>2026-04-18T09:25:57.019Z</time></trkpt><trkpt lat="44.8198032" lon="8.6288844"><ele>108.66666666666667</ele><time>2026-04-18T09:25:58.018Z</time></trkpt><trkpt lat="44.8196046" lon="8.6288949"><ele>109.0</ele><time>2026-04-18T09:25:59.019Z</time></trkpt><trkpt lat="44.8194042" lon="8.6289063"><ele>109.0</ele><time>2026-04-18T09:26:00.019Z</time></trkpt><trkpt lat="44.819204" lon="8.6289187"><ele>109.0</ele><time>2026-04-18T09:26:01.018Z</time></trkpt><trkpt lat="44.819" lon="8.628932"><ele>109.0</ele><time>2026-04-18T09:26:02.019Z</time></trkpt><trkpt lat="44.8187944" lon="8.6289459"><ele>109.0</ele><time>2026-04-18T09:26:03.019Z</time></trkpt><trkpt lat="44.8185876" lon="8.62896"><ele>109.0</ele><time>2026-04-18T09:26:04.019Z</time></trkpt><trkpt lat="44.8183827" lon="8.6289731"><ele>109.0</ele><time>2026-04-18T09:26:05.018Z</time></trkpt><trkpt lat="44.8181833" lon="8.6289856"><ele>109.0</ele><time>2026-04-18T09:26:06.019Z</time></trkpt><trkpt lat="44.817983" lon="8.6289949"><ele>109.0</ele><time>2026-04-18T09:26:07.018Z</time></trkpt><trkpt lat="44.8177886" lon="8.6290045"><ele>109.0</ele><time>2026-04-18T09:26:08.019Z</time></trkpt><trkpt lat="44.8175979" lon="8.6290152"><ele>109.0</ele><time>2026-04-18T09:26:09.019Z</time></trkpt><trkpt lat="44.8174112" lon="8.6290251"><ele>109.0</ele><time>2026-04-18T09:26:10.018Z</time></trkpt><trkpt lat="44.8172288" lon="8.6290338"><ele>109.0</ele><time>2026-04-18T09:26:11.018Z</time></trkpt><trkpt lat="44.817049" lon="8.6290442"><ele>109.0</ele><time>2026-04-18T09:26:12.018Z</time></trkpt><trkpt lat="44.8168738" lon="8.6290544"><ele>109.0</ele><time>2026-04-18T09:26:13.019Z</time></trkpt><trkpt lat="44.8167067" lon="8.6290646"><ele>109.0</ele><time>2026-04-18T09:26:14.018Z</time></trkpt><trkpt lat="44.8165475" lon="8.6290702"><ele>109.25</ele><time>2026-04-18T09:26:15.018Z</time></trkpt><trkpt lat="44.8163956" lon="8.6290662"><ele>109.5</ele><time>2026-04-18T09:26:16.018Z</time></trkpt><trkpt lat="44.8162502" lon="8.6290536"><ele>109.75</ele><time>2026-04-18T09:26:17.019Z</time></trkpt><trkpt lat="44.8161103" lon="8.629051"><ele>110.0</ele><time>2026-04-18T09:26:18.018Z</time></trkpt><trkpt lat="44.8159611" lon="8.6290704"><ele>110.0</ele><time>2026-04-18T09:26:19.019Z</time></trkpt><trkpt lat="44.8158043" lon="8.6291047"><ele>110.0</ele><time>2026-04-18T09:26:20.018Z</time></trkpt><trkpt lat="44.8156369" lon="8.6291272"><ele>110.0</ele><time>2026-04-18T09:26:21.018Z</time></trkpt><trkpt lat="44.8154633" lon="8.6291367"><ele>110.0</ele><time>2026-04-18T09:26:22.019Z</time></trkpt><trkpt lat="44.8152838" lon="8.6291489"><ele>110.0</ele><time>2026-04-18T09:26:23.019Z</time></trkpt><trkpt lat="44.8151058" lon="8.6291714"><ele>110.0</ele><time>2026-04-18T09:26:24.019Z</time></trkpt><trkpt lat="44.8149277" lon="8.629211"><ele>109.66666666666666</ele><time>2026-04-18T09:26:25.019Z</time></trkpt><trkpt lat="44.81476" lon="8.6292718"><ele>109.33333333333334</ele><time>2026-04-18T09:26:26.018Z</time></trkpt><trkpt lat="44.8146033" lon="8.6293578"><ele>109.0</ele><time>2026-04-18T09:26:27.018Z</time></trkpt><trkpt lat="44.8144533" lon="8.629446"><ele>110.0</ele><time>2026-04-18T09:26:28.018Z</time></trkpt><trkpt lat="44.8143059" lon="8.6295387"><ele>111.0</ele><time>2026-04-18T09:26:29.019Z</time></trkpt><trkpt lat="44.8141644" lon="8.6296268"><ele>112.0</ele><time>2026-04-18T09:26:30.019Z</time></trkpt><trkpt lat="44.8140314" lon="8.6297121"><ele>112.0</ele><time>2026-04-18T09:26:31.019Z</time></trkpt><trkpt lat="44.8138997" lon="8.6297978"><ele>112.0</ele><time>2026-04-18T09:26:32.019Z</time></trkpt><trkpt lat="44.8137683" lon="8.6298805"><ele>112.0</ele><time>2026-04-18T09:26:33.019Z</time></trkpt><trkpt lat="44.8136351" lon="8.6299624"><ele>112.0</ele><time>2026-04-18T09:26:34.019Z</time></trkpt><trkpt lat="44.8135034" lon="8.630042"><ele>112.0</ele><time>2026-04-18T09:26:35.019Z</time></trkpt><trkpt lat="44.8133741" lon="8.6301212"><ele>112.0</ele><time>2026-04-18T09:26:36.019Z</time></trkpt><trkpt lat="44.8132505" lon="8.6301972"><ele>112.0</ele><time>2026-04-18T09:26:37.019Z</time></trkpt><trkpt lat="44.813134" lon="8.6302702"><ele>112.0</ele><time>2026-04-18T09:26:38.019Z</time></trkpt><trkpt lat="44.8130193" lon="8.6303405"><ele>112.25</ele><time>2026-04-18T09:26:39.018Z</time></trkpt><trkpt lat="44.8129039" lon="8.6304116"><ele>112.5</ele><time>2026-04-18T09:26:40.019Z</time></trkpt><trkpt lat="44.8127844" lon="8.6304843"><ele>112.75</ele><time>2026-04-18T09:26:41.018Z</time></trkpt><trkpt lat="44.8126642" lon="8.6305601"><ele>113.0</ele><time>2026-04-18T09:26:42.019Z</time></trkpt><trkpt lat="44.8125414" lon="8.6306368"><ele>113.25</ele><time>2026-04-18T09:26:43.019Z</time></trkpt><trkpt lat="44.8124187" lon="8.6307097"><ele>113.5</ele><time>2026-04-18T09:26:44.019Z</time></trkpt><trkpt lat="44.8122981" lon="8.6307846"><ele>113.75</ele><time>2026-04-18T09:26:45.019Z</time></trkpt><trkpt lat="44.8121796" lon="8.6308593"><ele>114.0</ele><time>2026-04-18T09:26:46.019Z</time></trkpt><trkpt lat="44.8120594" lon="8.6309344"><ele>114.0</ele><time>2026-04-18T09:26:47.018Z</time></trkpt><trkpt lat="44.8119394" lon="8.6310086"><ele>114.0</ele><time>2026-04-18T09:26:48.018Z</time></trkpt><trkpt lat="44.8118189" lon="8.6310811"><ele>114.0</ele><time>2026-04-18T09:26:49.019Z</time></trkpt><trkpt lat="44.811696" lon="8.6311552"><ele>114.0</ele><time>2026-04-18T09:26:50.018Z</time></trkpt><trkpt lat="44.8115721" lon="8.6312325"><ele>114.0</ele><time>2026-04-18T09:26:51.019Z</time></trkpt><trkpt lat="44.8114519" lon="8.6313085"><ele>114.0</ele><time>2026-04-18T09:26:52.018Z</time></trkpt><trkpt lat="44.8113345" lon="8.6313825"><ele>114.0</ele><time>2026-04-18T09:26:53.018Z</time></trkpt><trkpt lat="44.8112186" lon="8.6314552"><ele>114.0</ele><time>2026-04-18T09:26:54.018Z</time></trkpt><trkpt lat="44.8110954" lon="8.6315273"><ele>114.25</ele><time>2026-04-18T09:26:55.018Z</time></trkpt><trkpt lat="44.8109716" lon="8.6316039"><ele>114.5</ele><time>2026-04-18T09:26:56.019Z</time></trkpt><trkpt lat="44.8108477" lon="8.631683"><ele>114.75</ele><time>2026-04-18T09:26:57.019Z</time></trkpt><trkpt lat="44.8107273" lon="8.6317599"><ele>115.0</ele><time>2026-04-18T09:26:58.019Z</time></trkpt><trkpt lat="44.8106099" lon="8.6318321"><ele>115.0</ele><time>2026-04-18T09:26:59.019Z</time></trkpt><trkpt lat="44.8104938" lon="8.6319037"><ele>115.0</ele><time>2026-04-18T09:27:00.018Z</time></trkpt><trkpt lat="44.8103764" lon="8.6319775"><ele>115.0</ele><time>2026-04-18T09:27:01.018Z</time></trkpt><trkpt lat="44.8102573" lon="8.6320512"><ele>115.0</ele><time>2026-04-18T09:27:02.019Z</time></trkpt><trkpt lat="44.8101362" lon="8.6321264"><ele>115.0</ele><time>2026-04-18T09:27:03.019Z</time></trkpt><trkpt lat="44.8100144" lon="8.6322027"><ele>115.0</ele><time>2026-04-18T09:27:04.019Z</time></trkpt><trkpt lat="44.8098939" lon="8.632276"><ele>115.0</ele><time>2026-04-18T09:27:05.018Z</time></trkpt><trkpt lat="44.8097754" lon="8.6323486"><ele>115.0</ele><time>2026-04-18T09:27:06.019Z</time></trkpt><trkpt lat="44.809657" lon="8.6324234"><ele>115.0</ele><time>2026-04-18T09:27:07.018Z</time></trkpt><trkpt lat="44.8095397" lon="8.6324981"><ele>115.0</ele><time>2026-04-18T09:27:08.019Z</time></trkpt><trkpt lat="44.8094243" lon="8.6325702"><ele>115.0</ele><time>2026-04-18T09:27:09.019Z</time></trkpt><trkpt lat="44.809311" lon="8.6326389"><ele>115.0</ele><time>2026-04-18T09:27:10.019Z</time></trkpt><trkpt lat="44.8092044" lon="8.6327047"><ele>115.2</ele><time>2026-04-18T09:27:11.018Z</time></trkpt><trkpt lat="44.8091054" lon="8.6327715"><ele>115.4</ele><time>2026-04-18T09:27:12.019Z</time></trkpt><trkpt lat="44.8090046" lon="8.6328312"><ele>115.6</ele><time>2026-04-18T09:27:13.019Z</time></trkpt><trkpt lat="44.808908" lon="8.6328908"><ele>115.8</ele><time>2026-04-18T09:27:14.018Z</time></trkpt><trkpt lat="44.8088131" lon="8.6329491"><ele>116.0</ele><time>2026-04-18T09:27:15.019Z</time></trkpt><trkpt lat="44.808718" lon="8.6330066"><ele>116.0</ele><time>2026-04-18T09:27:16.018Z</time></trkpt><trkpt lat="44.8086218" lon="8.6330654"><ele>116.0</ele><time>2026-04-18T09:27:17.019Z</time></trkpt><trkpt lat="44.808518" lon="8.6331286"><ele>116.0</ele><time>2026-04-18T09:27:18.018Z</time></trkpt><trkpt lat="44.8084132" lon="8.6332019"><ele>116.0</ele><time>2026-04-18T09:27:19.019Z</time></trkpt><trkpt lat="44.8083033" lon="8.6332775"><ele>115.5</ele><time>2026-04-18T09:27:20.018Z</time></trkpt><trkpt lat="44.8081866" lon="8.6333581"><ele>115.0</ele><time>2026-04-18T09:27:21.018Z</time></trkpt><trkpt lat="44.8080657" lon="8.6334414"><ele>114.5</ele><time>2026-04-18T09:27:22.018Z</time></trkpt><trkpt lat="44.8079404" lon="8.6335283"><ele>114.0</ele><time>2026-04-18T09:27:23.019Z</time></trkpt><trkpt lat="44.8078044" lon="8.6336063"><ele>114.0</ele><time>2026-04-18T09:27:24.018Z</time></trkpt><trkpt lat="44.8076628" lon="8.633682"><ele>114.0</ele><time>2026-04-18T09:27:25.019Z</time></trkpt><trkpt lat="44.8075186" lon="8.6337595"><ele>114.0</ele><time>2026-04-18T09:27:26.019Z</time></trkpt><trkpt lat="44.8073732" lon="8.6338391"><ele>115.0</ele><time>2026-04-18T09:27:27.019Z</time></trkpt><trkpt lat="44.8072287" lon="8.6339199"><ele>116.0</ele><time>2026-04-18T09:27:28.018Z</time></trkpt><trkpt lat="44.8070871" lon="8.6340051"><ele>117.0</ele><time>2026-04-18T09:27:29.019Z</time></trkpt><trkpt lat="44.8069447" lon="8.6340946"><ele>116.33333333333334</ele><time>2026-04-18T09:27:30.019Z</time></trkpt><trkpt lat="44.8067996" lon="8.6341855"><ele>115.66666666666667</ele><time>2026-04-18T09:27:31.019Z</time></trkpt><trkpt lat="44.8066549" lon="8.6342747"><ele>115.0</ele><time>2026-04-18T09:27:32.018Z</time></trkpt><trkpt lat="44.8065051" lon="8.6343668"><ele>115.0</ele><time>2026-04-18T09:27:33.019Z</time></trkpt><trkpt lat="44.8063533" lon="8.6344619"><ele>115.0</ele><time>2026-04-18T09:27:34.019Z</time></trkpt><trkpt lat="44.8062031" lon="8.634557"><ele>115.0</ele><time>2026-04-18T09:27:35.019Z</time></trkpt><trkpt lat="44.8060505" lon="8.6346544"><ele>115.33333333333334</ele><time>2026-04-18T09:27:36.018Z</time></trkpt><trkpt lat="44.8058964" lon="8.634749"><ele>115.66666666666666</ele><time>2026-04-18T09:27:37.019Z</time></trkpt><trkpt lat="44.8057478" lon="8.6348422"><ele>116.0</ele><time>2026-04-18T09:27:38.019Z</time></trkpt><trkpt lat="44.805603" lon="8.6349317"><ele>116.0</ele><time>2026-04-18T09:27:39.019Z</time></trkpt><trkpt lat="44.8054595" lon="8.6350184"><ele>116.0</ele><time>2026-04-18T09:27:40.019Z</time></trkpt><trkpt lat="44.8053215" lon="8.6351014"><ele>116.0</ele><time>2026-04-18T09:27:41.019Z</time></trkpt><trkpt lat="44.8051907" lon="8.6351797"><ele>116.0</ele><time>2026-04-18T09:27:42.019Z</time></trkpt><trkpt lat="44.8050665" lon="8.6352558"><ele>116.75</ele><time>2026-04-18T09:27:43.018Z</time></trkpt><trkpt lat="44.8049463" lon="8.6353284"><ele>117.5</ele><time>2026-04-18T09:27:44.019Z</time></trkpt><trkpt lat="44.8048263" lon="8.6353997"><ele>118.25</ele><time>2026-04-18T09:27:45.018Z</time></trkpt><trkpt lat="44.8046999" lon="8.6354766"><ele>119.0</ele><time>2026-04-18T09:27:46.018Z</time></trkpt><trkpt lat="44.8045715" lon="8.6355522"><ele>119.0</ele><time>2026-04-18T09:27:47.018Z</time></trkpt><trkpt lat="44.8044406" lon="8.6356311"><ele>119.0</ele><time>2026-04-18T09:27:48.018Z</time></trkpt><trkpt lat="44.8043049" lon="8.6357167"><ele>119.0</ele><time>2026-04-18T09:27:49.018Z</time></trkpt><trkpt lat="44.8041684" lon="8.6358037"><ele>119.0</ele><time>2026-04-18T09:27:50.019Z</time></trkpt><trkpt lat="44.8040284" lon="8.6358934"><ele>119.33333333333333</ele><time>2026-04-18T09:27:51.019Z</time></trkpt><trkpt lat="44.8038858" lon="8.6359865"><ele>119.66666666666666</ele><time>2026-04-18T09:27:52.019Z</time></trkpt><trkpt lat="44.8037408" lon="8.6360822"><ele>120.0</ele><time>2026-04-18T09:27:53.018Z</time></trkpt><trkpt lat="44.8035965" lon="8.6361743"><ele>119.66666666666666</ele><time>2026-04-18T09:27:54.018Z</time></trkpt><trkpt lat="44.8034547" lon="8.6362614"><ele>119.33333333333333</ele><time>2026-04-18T09:27:55.019Z</time></trkpt><trkpt lat="44.8033159" lon="8.6363469"><ele>119.0</ele><time>2026-04-18T09:27:56.019Z</time></trkpt><trkpt lat="44.8031764" lon="8.6364336"><ele>119.0</ele><time>2026-04-18T09:27:57.019Z</time></trkpt><trkpt lat="44.8030373" lon="8.6365176"><ele>119.0</ele><time>2026-04-18T09:27:58.019Z</time></trkpt><trkpt lat="44.8028956" lon="8.6366041"><ele>119.0</ele><time>2026-04-18T09:27:59.018Z</time></trkpt><trkpt lat="44.8027557" lon="8.6366933"><ele>119.0</ele><time>2026-04-18T09:28:00.019Z</time></trkpt><trkpt lat="44.8026173" lon="8.6367803"><ele>119.0</ele><time>2026-04-18T09:28:01.018Z</time></trkpt><trkpt lat="44.8024803" lon="8.6368652"><ele>119.0</ele><time>2026-04-18T09:28:02.019Z</time></trkpt><trkpt lat="44.8023456" lon="8.6369473"><ele>119.0</ele><time>2026-04-18T09:28:03.018Z</time></trkpt><trkpt lat="44.8022102" lon="8.637033"><ele>119.0</ele><time>2026-04-18T09:28:04.018Z</time></trkpt><trkpt lat="44.8020755" lon="8.6371192"><ele>119.0</ele><time>2026-04-18T09:28:05.019Z</time></trkpt><trkpt lat="44.8019353" lon="8.637207"><ele>119.0</ele><time>2026-04-18T09:28:06.019Z</time></trkpt><trkpt lat="44.8017922" lon="8.6372963"><ele>119.0</ele><time>2026-04-18T09:28:07.019Z</time></trkpt><trkpt lat="44.8016476" lon="8.6373869"><ele>119.0</ele><time>2026-04-18T09:28:08.019Z</time></trkpt><trkpt lat="44.8015007" lon="8.6374767"><ele>119.0</ele><time>2026-04-18T09:28:09.018Z</time></trkpt><trkpt lat="44.8013567" lon="8.6375655"><ele>119.0</ele><time>2026-04-18T09:28:10.018Z</time></trkpt><trkpt lat="44.8012153" lon="8.637653"><ele>119.0</ele><time>2026-04-18T09:28:11.018Z</time></trkpt><trkpt lat="44.8010695" lon="8.6377429"><ele>119.0</ele><time>2026-04-18T09:28:12.018Z</time></trkpt><trkpt lat="44.8009197" lon="8.6378364"><ele>119.33333333333333</ele><time>2026-04-18T09:28:13.018Z</time></trkpt><trkpt lat="44.8007645" lon="8.6379318"><ele>119.66666666666666</ele><time>2026-04-18T09:28:14.018Z</time></trkpt><trkpt lat="44.8006062" lon="8.6380305"><ele>120.0</ele><time>2026-04-18T09:28:15.019Z</time></trkpt><trkpt lat="44.8004481" lon="8.6381317"><ele>120.0</ele><time>2026-04-18T09:28:16.019Z</time></trkpt><trkpt lat="44.8002897" lon="8.6382335"><ele>120.0</ele><time>2026-04-18T09:28:17.018Z</time></trkpt><trkpt lat="44.8001295" lon="8.6383331"><ele>120.0</ele><time>2026-04-18T09:28:18.019Z</time></trkpt><trkpt lat="44.7999702" lon="8.6384292"><ele>120.0</ele><time>2026-04-18T09:28:19.019Z</time></trkpt><trkpt lat="44.7998101" lon="8.6385248"><ele>120.0</ele><time>2026-04-18T09:28:20.018Z</time></trkpt><trkpt lat="44.7996558" lon="8.6386193"><ele>120.0</ele><time>2026-04-18T09:28:21.018Z</time></trkpt><trkpt lat="44.7995069" lon="8.6387108"><ele>120.33333333333334</ele><time>2026-04-18T09:28:22.018Z</time></trkpt><trkpt lat="44.7993628" lon="8.6388009"><ele>120.66666666666667</ele><time>2026-04-18T09:28:23.019Z</time></trkpt><trkpt lat="44.7992199" lon="8.6388887"><ele>121.0</ele><time>2026-04-18T09:28:24.019Z</time></trkpt><trkpt lat="44.7990747" lon="8.638977"><ele>121.0</ele><time>2026-04-18T09:28:25.019Z</time></trkpt><trkpt lat="44.7989273" lon="8.6390663"><ele>121.0</ele><time>2026-04-18T09:28:26.019Z</time></trkpt><trkpt lat="44.7987802" lon="8.639157"><ele>121.0</ele><time>2026-04-18T09:28:27.018Z</time></trkpt><trkpt lat="44.7986347" lon="8.6392443"><ele>121.0</ele><time>2026-04-18T09:28:28.018Z</time></trkpt><trkpt lat="44.7984916" lon="8.6393319"><ele>121.0</ele><time>2026-04-18T09:28:29.018Z</time></trkpt><trkpt lat="44.7983468" lon="8.6394216"><ele>121.0</ele><time>2026-04-18T09:28:30.019Z</time></trkpt><trkpt lat="44.7982007" lon="8.6395119"><ele>121.0</ele><time>2026-04-18T09:28:31.019Z</time></trkpt><trkpt lat="44.7980531" lon="8.639603"><ele>121.0</ele><time>2026-04-18T09:28:32.018Z</time></trkpt><trkpt lat="44.7979089" lon="8.6396947"><ele>121.0</ele><time>2026-04-18T09:28:33.019Z</time></trkpt><trkpt lat="44.7977636" lon="8.6397841"><ele>120.66666666666667</ele><time>2026-04-18T09:28:34.019Z</time></trkpt><trkpt lat="44.7976184" lon="8.6398713"><ele>120.33333333333334</ele><time>2026-04-18T09:28:35.019Z</time></trkpt><trkpt lat="44.7974716" lon="8.6399579"><ele>120.0</ele><time>2026-04-18T09:28:36.018Z</time></trkpt><trkpt lat="44.7973257" lon="8.6400448"><ele>120.0</ele><time>2026-04-18T09:28:37.019Z</time></trkpt><trkpt lat="44.7971842" lon="8.6401311"><ele>120.0</ele><time>2026-04-18T09:28:38.019Z</time></trkpt><trkpt lat="44.7970399" lon="8.6402092"><ele>120.0</ele><time>2026-04-18T09:28:39.019Z</time></trkpt><trkpt lat="44.7968925" lon="8.6402811"><ele>120.0</ele><time>2026-04-18T09:28:40.019Z</time></trkpt><trkpt lat="44.7967447" lon="8.6403532"><ele>120.0</ele><time>2026-04-18T09:28:41.019Z</time></trkpt><trkpt lat="44.7965982" lon="8.6404478"><ele>120.0</ele><time>2026-04-18T09:28:42.018Z</time></trkpt><trkpt lat="44.7964467" lon="8.6405624"><ele>120.0</ele><time>2026-04-18T09:28:43.018Z</time></trkpt><trkpt lat="44.7962853" lon="8.6406752"><ele>120.0</ele><time>2026-04-18T09:28:44.019Z</time></trkpt><trkpt lat="44.7961138" lon="8.6407864"><ele>120.0</ele><time>2026-04-18T09:28:45.018Z</time></trkpt><trkpt lat="44.7959348" lon="8.6409001"><ele>119.66666666666666</ele><time>2026-04-18T09:28:46.018Z</time></trkpt><trkpt lat="44.7957505" lon="8.6410131"><ele>119.33333333333333</ele><time>2026-04-18T09:28:47.019Z</time></trkpt><trkpt lat="44.7955633" lon="8.6411263"><ele>119.0</ele><time>2026-04-18T09:28:48.018Z</time></trkpt><trkpt lat="44.795373" lon="8.6412415"><ele>119.0</ele><time>2026-04-18T09:28:49.019Z</time></trkpt><trkpt lat="44.7951792" lon="8.6413608"><ele>119.0</ele><time>2026-04-18T09:28:50.018Z</time></trkpt><trkpt lat="44.7949815" lon="8.6414807"><ele>119.0</ele><time>2026-04-18T09:28:51.019Z</time></trkpt><trkpt lat="44.7947798" lon="8.6415972"><ele>119.0</ele><time>2026-04-18T09:28:52.018Z</time></trkpt><trkpt lat="44.7945738" lon="8.641709"><ele>119.0</ele><time>2026-04-18T09:28:53.019Z</time></trkpt><trkpt lat="44.7943648" lon="8.6418156"><ele>119.0</ele><time>2026-04-18T09:28:54.018Z</time></trkpt><trkpt lat="44.7941534" lon="8.6419218"><ele>118.5</ele><time>2026-04-18T09:28:55.019Z</time></trkpt><trkpt lat="44.7939411" lon="8.6420277"><ele>118.0</ele><time>2026-04-18T09:28:56.019Z</time></trkpt><trkpt lat="44.7937254" lon="8.642135"><ele>118.0</ele><time>2026-04-18T09:28:57.019Z</time></trkpt><trkpt lat="44.7935083" lon="8.6422411"><ele>118.0</ele><time>2026-04-18T09:28:58.019Z</time></trkpt><trkpt lat="44.7932922" lon="8.6423464"><ele>118.5</ele><time>2026-04-18T09:28:59.019Z</time></trkpt><trkpt lat="44.7930754" lon="8.6424498"><ele>119.0</ele><time>2026-04-18T09:29:00.018Z</time></trkpt><trkpt lat="44.7928574" lon="8.6425546"><ele>120.0</ele><time>2026-04-18T09:29:01.018Z</time></trkpt><trkpt lat="44.7926387" lon="8.6426643"><ele>121.0</ele><time>2026-04-18T09:29:02.019Z</time></trkpt><trkpt lat="44.7924184" lon="8.6427723"><ele>121.0</ele><time>2026-04-18T09:29:03.019Z</time></trkpt><trkpt lat="44.7921962" lon="8.6428822"><ele>121.0</ele><time>2026-04-18T09:29:04.019Z</time></trkpt><trkpt lat="44.7919738" lon="8.6429924"><ele>121.5</ele><time>2026-04-18T09:29:05.019Z</time></trkpt><trkpt lat="44.7917557" lon="8.6430998"><ele>122.0</ele><time>2026-04-18T09:29:06.019Z</time></trkpt><trkpt lat="44.7915342" lon="8.6432067"><ele>122.0</ele><time>2026-04-18T09:29:07.018Z</time></trkpt><trkpt lat="44.7913106" lon="8.6433148"><ele>122.0</ele><time>2026-04-18T09:29:08.018Z</time></trkpt><trkpt lat="44.7910895" lon="8.6434243"><ele>122.0</ele><time>2026-04-18T09:29:09.019Z</time></trkpt><trkpt lat="44.7908694" lon="8.6435291"><ele>122.0</ele><time>2026-04-18T09:29:10.019Z</time></trkpt><trkpt lat="44.790647" lon="8.6436355"><ele>122.0</ele><time>2026-04-18T09:29:11.019Z</time></trkpt><trkpt lat="44.7904223" lon="8.6437398"><ele>122.0</ele><time>2026-04-18T09:29:12.018Z</time></trkpt><trkpt lat="44.7901969" lon="8.6438428"><ele>122.5</ele><time>2026-04-18T09:29:13.019Z</time></trkpt><trkpt lat="44.7899744" lon="8.6439412"><ele>123.0</ele><time>2026-04-18T09:29:14.018Z</time></trkpt><trkpt lat="44.7897525" lon="8.6440412"><ele>123.0</ele><time>2026-04-18T09:29:15.019Z</time></trkpt><trkpt lat="44.789534" lon="8.6441376"><ele>123.0</ele><time>2026-04-18T09:29:16.018Z</time></trkpt><trkpt lat="44.7893254" lon="8.6442323"><ele>123.0</ele><time>2026-04-18T09:29:17.018Z</time></trkpt><trkpt lat="44.7891204" lon="8.6443311"><ele>123.0</ele><time>2026-04-18T09:29:18.019Z</time></trkpt><trkpt lat="44.7889146" lon="8.6444321"><ele>123.0</ele><time>2026-04-18T09:29:19.018Z</time></trkpt><trkpt lat="44.7887087" lon="8.6445325"><ele>123.0</ele><time>2026-04-18T09:29:20.018Z</time></trkpt><trkpt lat="44.7885103" lon="8.6446308"><ele>123.0</ele><time>2026-04-18T09:29:21.018Z</time></trkpt><trkpt lat="44.7883163" lon="8.6447265"><ele>123.0</ele><time>2026-04-18T09:29:22.018Z</time></trkpt><trkpt lat="44.7881202" lon="8.6448218"><ele>123.0</ele><time>2026-04-18T09:29:23.019Z</time></trkpt><trkpt lat="44.7879204" lon="8.6449166"><ele>123.0</ele><time>2026-04-18T09:29:24.019Z</time></trkpt><trkpt lat="44.7877202" lon="8.6450138"><ele>123.0</ele><time>2026-04-18T09:29:25.019Z</time></trkpt><trkpt lat="44.7875208" lon="8.6451118"><ele>123.0</ele><time>2026-04-18T09:29:26.019Z</time></trkpt><trkpt lat="44.7873206" lon="8.6452105"><ele>122.66666666666666</ele><time>2026-04-18T09:29:27.019Z</time></trkpt><trkpt lat="44.7871214" lon="8.6453104"><ele>122.33333333333333</ele><time>2026-04-18T09:29:28.018Z</time></trkpt><trkpt lat="44.7869278" lon="8.6454076"><ele>122.0</ele><time>2026-04-18T09:29:29.019Z</time></trkpt><trkpt lat="44.786741" lon="8.6455016"><ele>122.66666666666666</ele><time>2026-04-18T09:29:30.018Z</time></trkpt><trkpt lat="44.7865569" lon="8.6455945"><ele>123.33333333333334</ele><time>2026-04-18T09:29:31.019Z</time></trkpt><trkpt lat="44.7863672" lon="8.6456908"><ele>124.0</ele><time>2026-04-18T09:29:32.019Z</time></trkpt><trkpt lat="44.7861754" lon="8.6457898"><ele>123.33333333333334</ele><time>2026-04-18T09:29:33.019Z</time></trkpt><trkpt lat="44.7859764" lon="8.6458925"><ele>122.66666666666666</ele><time>2026-04-18T09:29:34.019Z</time></trkpt><trkpt lat="44.7857728" lon="8.645998"><ele>122.0</ele><time>2026-04-18T09:29:35.019Z</time></trkpt><trkpt lat="44.7855674" lon="8.6461026"><ele>122.0</ele><time>2026-04-18T09:29:36.019Z</time></trkpt><trkpt lat="44.7853603" lon="8.6462063"><ele>122.0</ele><time>2026-04-18T09:29:37.018Z</time></trkpt><trkpt lat="44.7851543" lon="8.6463074"><ele>122.0</ele><time>2026-04-18T09:29:38.019Z</time></trkpt><trkpt lat="44.7849504" lon="8.6464075"><ele>122.0</ele><time>2026-04-18T09:29:39.019Z</time></trkpt><trkpt lat="44.7847499" lon="8.6465059"><ele>122.0</ele><time>2026-04-18T09:29:40.019Z</time></trkpt><trkpt lat="44.7845531" lon="8.6466009"><ele>122.0</ele><time>2026-04-18T09:29:41.018Z</time></trkpt><trkpt lat="44.7843543" lon="8.6466985"><ele>121.66666666666666</ele><time>2026-04-18T09:29:42.018Z</time></trkpt><trkpt lat="44.7841505" lon="8.646798"><ele>121.33333333333334</ele><time>2026-04-18T09:29:43.019Z</time></trkpt><trkpt lat="44.7839438" lon="8.6468994"><ele>121.0</ele><time>2026-04-18T09:29:44.019Z</time></trkpt><trkpt lat="44.7837356" lon="8.6470011"><ele>121.0</ele><time>2026-04-18T09:29:45.018Z</time></trkpt><trkpt lat="44.7835234" lon="8.6471044"><ele>121.0</ele><time>2026-04-18T09:29:46.019Z</time></trkpt><trkpt lat="44.783308" lon="8.6472067"><ele>122.33333333333334</ele><time>2026-04-18T09:29:47.019Z</time></trkpt><trkpt lat="44.783096" lon="8.6473114"><ele>123.66666666666666</ele><time>2026-04-18T09:29:48.019Z</time></trkpt><trkpt lat="44.7828877" lon="8.6474139"><ele>125.0</ele><time>2026-04-18T09:29:49.019Z</time></trkpt><trkpt lat="44.782685" lon="8.6475136"><ele>125.0</ele><time>2026-04-18T09:29:50.018Z</time></trkpt><trkpt lat="44.782485" lon="8.6476088"><ele>125.0</ele><time>2026-04-18T09:29:51.019Z</time></trkpt><trkpt lat="44.7822874" lon="8.6477036"><ele>125.0</ele><time>2026-04-18T09:29:52.018Z</time></trkpt><trkpt lat="44.7820969" lon="8.6477948"><ele>125.33333333333333</ele><time>2026-04-18T09:29:53.019Z</time></trkpt><trkpt lat="44.7819126" lon="8.6478795"><ele>125.66666666666666</ele><time>2026-04-18T09:29:54.019Z</time></trkpt><trkpt lat="44.7817302" lon="8.6479539"><ele>126.0</ele><time>2026-04-18T09:29:55.019Z</time></trkpt><trkpt lat="44.7815476" lon="8.6480149"><ele>126.0</ele><time>2026-04-18T09:29:56.019Z</time></trkpt><trkpt lat="44.7813576" lon="8.6480639"><ele>126.0</ele><time>2026-04-18T09:29:57.019Z</time></trkpt><trkpt lat="44.7811627" lon="8.6480915"><ele>126.0</ele><time>2026-04-18T09:29:58.019Z</time></trkpt><trkpt lat="44.7809633" lon="8.6480982"><ele>125.33333333333334</ele><time>2026-04-18T09:29:59.019Z</time></trkpt><trkpt lat="44.7807639" lon="8.6480815"><ele>124.66666666666667</ele><time>2026-04-18T09:30:00.019Z</time></trkpt><trkpt lat="44.7805723" lon="8.6480387"><ele>124.0</ele><time>2026-04-18T09:30:01.019Z</time></trkpt><trkpt lat="44.7803863" lon="8.6479706"><ele>124.0</ele><time>2026-04-18T09:30:02.018Z</time></trkpt><trkpt lat="44.7802005" lon="8.6478987"><ele>124.0</ele><time>2026-04-18T09:30:03.018Z</time></trkpt><trkpt lat="44.7800163" lon="8.6478267"><ele>124.0</ele><time>2026-04-18T09:30:04.019Z</time></trkpt><trkpt lat="44.7798362" lon="8.6477557"><ele>124.0</ele><time>2026-04-18T09:30:05.019Z</time></trkpt><trkpt lat="44.7796572" lon="8.6476861"><ele>124.0</ele><time>2026-04-18T09:30:06.019Z</time></trkpt><trkpt lat="44.779478" lon="8.64762"><ele>124.0</ele><time>2026-04-18T09:30:07.018Z</time></trkpt><trkpt lat="44.7793017" lon="8.6475567"><ele>123.66666666666667</ele><time>2026-04-18T09:30:08.019Z</time></trkpt><trkpt lat="44.7791263" lon="8.647495"><ele>123.33333333333334</ele><time>2026-04-18T09:30:09.019Z</time></trkpt><trkpt lat="44.7789503" lon="8.6474421"><ele>123.0</ele><time>2026-04-18T09:30:10.019Z</time></trkpt><trkpt lat="44.7787753" lon="8.6474061"><ele>123.0</ele><time>2026-04-18T09:30:11.018Z</time></trkpt><trkpt lat="44.7785992" lon="8.647396"><ele>123.0</ele><time>2026-04-18T09:30:12.019Z</time></trkpt><trkpt lat="44.7784235" lon="8.6474189"><ele>123.0</ele><time>2026-04-18T09:30:13.019Z</time></trkpt><trkpt lat="44.77825" lon="8.6474743"><ele>123.0</ele><time>2026-04-18T09:30:14.018Z</time></trkpt><trkpt lat="44.7780831" lon="8.6475552"><ele>123.0</ele><time>2026-04-18T09:30:15.018Z</time></trkpt><trkpt lat="44.7779233" lon="8.6476482"><ele>123.0</ele><time>2026-04-18T09:30:16.019Z</time></trkpt><trkpt lat="44.7777668" lon="8.6477442"><ele>123.66666666666666</ele><time>2026-04-18T09:30:17.019Z</time></trkpt><trkpt lat="44.7776092" lon="8.6478362"><ele>124.33333333333333</ele><time>2026-04-18T09:30:18.019Z</time></trkpt><trkpt lat="44.7774519" lon="8.6479342"><ele>125.0</ele><time>2026-04-18T09:30:19.019Z</time></trkpt><trkpt lat="44.7772962" lon="8.6480434"><ele>125.0</ele><time>2026-04-18T09:30:20.019Z</time></trkpt><trkpt lat="44.7771418" lon="8.6481725"><ele>125.0</ele><time>2026-04-18T09:30:21.019Z</time></trkpt><trkpt lat="44.776997" lon="8.6483259"><ele>125.0</ele><time>2026-04-18T09:30:22.019Z</time></trkpt><trkpt lat="44.7768687" lon="8.6485103"><ele>125.0</ele><time>2026-04-18T09:30:23.019Z</time></trkpt><trkpt lat="44.7767549" lon="8.6487231"><ele>125.0</ele><time>2026-04-18T09:30:24.018Z</time></trkpt><trkpt lat="44.7766502" lon="8.6489399"><ele>125.0</ele><time>2026-04-18T09:30:25.019Z</time></trkpt><trkpt lat="44.7765482" lon="8.6491523"><ele>125.0</ele><time>2026-04-18T09:30:26.019Z</time></trkpt><trkpt lat="44.7764459" lon="8.649371"><ele>125.0</ele><time>2026-04-18T09:30:27.018Z</time></trkpt><trkpt lat="44.776341" lon="8.6495921"><ele>125.0</ele><time>2026-04-18T09:30:28.019Z</time></trkpt><trkpt lat="44.7762347" lon="8.6498161"><ele>125.33333333333333</ele><time>2026-04-18T09:30:29.018Z</time></trkpt><trkpt lat="44.7761256" lon="8.6500419"><ele>125.66666666666666</ele><time>2026-04-18T09:30:30.018Z</time></trkpt><trkpt lat="44.7760059" lon="8.6502614"><ele>126.0</ele><time>2026-04-18T09:30:31.018Z</time></trkpt><trkpt lat="44.7758788" lon="8.6504716"><ele>126.33333333333334</ele><time>2026-04-18T09:30:32.019Z</time></trkpt><trkpt lat="44.7757429" lon="8.6506706"><ele>126.66666666666667</ele><time>2026-04-18T09:30:33.019Z</time></trkpt><trkpt lat="44.775602" lon="8.6508592"><ele>127.0</ele><time>2026-04-18T09:30:34.018Z</time></trkpt><trkpt lat="44.7754554" lon="8.6510435"><ele>126.66666666666667</ele><time>2026-04-18T09:30:35.019Z</time></trkpt><trkpt lat="44.775301" lon="8.6512196"><ele>126.33333333333334</ele><time>2026-04-18T09:30:36.018Z</time></trkpt><trkpt lat="44.7751376" lon="8.651389"><ele>126.0</ele><time>2026-04-18T09:30:37.019Z</time></trkpt><trkpt lat="44.7749717" lon="8.6515577"><ele>126.0</ele><time>2026-04-18T09:30:38.019Z</time></trkpt><trkpt lat="44.7748081" lon="8.651725"><ele>126.0</ele><time>2026-04-18T09:30:39.018Z</time></trkpt><trkpt lat="44.774643" lon="8.651888"><ele>126.0</ele><time>2026-04-18T09:30:40.018Z</time></trkpt><trkpt lat="44.7744772" lon="8.6520503"><ele>127.0</ele><time>2026-04-18T09:30:41.018Z</time></trkpt><trkpt lat="44.7743107" lon="8.6522135"><ele>128.0</ele><time>2026-04-18T09:30:42.019Z</time></trkpt><trkpt lat="44.7741442" lon="8.6523775"><ele>129.0</ele><time>2026-04-18T09:30:43.018Z</time></trkpt><trkpt lat="44.7739766" lon="8.6525407"><ele>129.0</ele><time>2026-04-18T09:30:44.019Z</time></trkpt><trkpt lat="44.7738094" lon="8.6527076"><ele>129.0</ele><time>2026-04-18T09:30:45.018Z</time></trkpt><trkpt lat="44.7736443" lon="8.6528737"><ele>129.0</ele><time>2026-04-18T09:30:46.018Z</time></trkpt><trkpt lat="44.7734824" lon="8.653035"><ele>128.33333333333334</ele><time>2026-04-18T09:30:47.018Z</time></trkpt><trkpt lat="44.7733203" lon="8.6531988"><ele>127.66666666666667</ele><time>2026-04-18T09:30:48.019Z</time></trkpt><trkpt lat="44.7731534" lon="8.6533635"><ele>127.0</ele><time>2026-04-18T09:30:49.018Z</time></trkpt><trkpt lat="44.7729809" lon="8.6535319"><ele>127.0</ele><time>2026-04-18T09:30:50.018Z</time></trkpt><trkpt lat="44.772806" lon="8.6537032"><ele>127.0</ele><time>2026-04-18T09:30:51.019Z</time></trkpt><trkpt lat="44.7726302" lon="8.6538762"><ele>127.0</ele><time>2026-04-18T09:30:52.019Z</time></trkpt><trkpt lat="44.7724502" lon="8.6540507"><ele>127.0</ele><time>2026-04-18T09:30:53.018Z</time></trkpt><trkpt lat="44.7722625" lon="8.6542271"><ele>127.0</ele><time>2026-04-18T09:30:54.018Z</time></trkpt><trkpt lat="44.7720722" lon="8.654408"><ele>127.0</ele><time>2026-04-18T09:30:55.018Z</time></trkpt><trkpt lat="44.7718765" lon="8.6545842"><ele>127.0</ele><time>2026-04-18T09:30:56.019Z</time></trkpt><trkpt lat="44.7716719" lon="8.6547522"><ele>127.0</ele><time>2026-04-18T09:30:57.019Z</time></trkpt><trkpt lat="44.7714606" lon="8.654908"><ele>127.0</ele><time>2026-04-18T09:30:58.018Z</time></trkpt><trkpt lat="44.7712416" lon="8.6550573"><ele>126.5</ele><time>2026-04-18T09:30:59.018Z</time></trkpt><trkpt lat="44.7710158" lon="8.6551943"><ele>126.0</ele><time>2026-04-18T09:31:00.018Z</time></trkpt><trkpt lat="44.7707827" lon="8.6553155"><ele>126.0</ele><time>2026-04-18T09:31:01.019Z</time></trkpt><trkpt lat="44.7705432" lon="8.65542"><ele>126.0</ele><time>2026-04-18T09:31:02.018Z</time></trkpt><trkpt lat="44.7703051" lon="8.6555183"><ele>126.5</ele><time>2026-04-18T09:31:03.019Z</time></trkpt><trkpt lat="44.7700682" lon="8.6556129"><ele>127.0</ele><time>2026-04-18T09:31:04.018Z</time></trkpt><trkpt lat="44.7698403" lon="8.6557078"><ele>127.0</ele><time>2026-04-18T09:31:05.018Z</time></trkpt><trkpt lat="44.7696205" lon="8.6557971"><ele>127.0</ele><time>2026-04-18T09:31:06.018Z</time></trkpt><trkpt lat="44.7694047" lon="8.6558829"><ele>127.66666666666667</ele><time>2026-04-18T09:31:07.019Z</time></trkpt><trkpt lat="44.7691942" lon="8.6559687"><ele>128.33333333333334</ele><time>2026-04-18T09:31:08.018Z</time></trkpt><trkpt lat="44.7689856" lon="8.6560561"><ele>129.0</ele><time>2026-04-18T09:31:09.019Z</time></trkpt><trkpt lat="44.7687784" lon="8.6561423"><ele>129.0</ele><time>2026-04-18T09:31:10.018Z</time></trkpt><trkpt lat="44.7685689" lon="8.6562298"><ele>129.0</ele><time>2026-04-18T09:31:11.019Z</time></trkpt><trkpt lat="44.7683564" lon="8.6563171"><ele>129.0</ele><time>2026-04-18T09:31:12.019Z</time></trkpt><trkpt lat="44.7681405" lon="8.6564061"><ele>129.0</ele><time>2026-04-18T09:31:13.018Z</time></trkpt><trkpt lat="44.7679213" lon="8.6564964"><ele>129.0</ele><time>2026-04-18T09:31:14.018Z</time></trkpt><trkpt lat="44.7677008" lon="8.6565894"><ele>129.5</ele><time>2026-04-18T09:31:15.018Z</time></trkpt><trkpt lat="44.767479" lon="8.6566837"><ele>130.0</ele><time>2026-04-18T09:31:16.018Z</time></trkpt><trkpt lat="44.7672557" lon="8.656779"><ele>130.0</ele><time>2026-04-18T09:31:17.018Z</time></trkpt><trkpt lat="44.7670277" lon="8.6568687"><ele>130.0</ele><time>2026-04-18T09:31:18.018Z</time></trkpt><trkpt lat="44.7667956" lon="8.656951"><ele>129.5</ele><time>2026-04-18T09:31:19.018Z</time></trkpt><trkpt lat="44.7665611" lon="8.6570231"><ele>129.0</ele><time>2026-04-18T09:31:20.018Z</time></trkpt><trkpt lat="44.7663242" lon="8.6570779"><ele>129.0</ele><time>2026-04-18T09:31:21.019Z</time></trkpt><trkpt lat="44.7660844" lon="8.6571158"><ele>129.0</ele><time>2026-04-18T09:31:22.019Z</time></trkpt><trkpt lat="44.7658413" lon="8.6571383"><ele>129.5</ele><time>2026-04-18T09:31:23.019Z</time></trkpt><trkpt lat="44.7655999" lon="8.65715"><ele>130.0</ele><time>2026-04-18T09:31:24.019Z</time></trkpt><trkpt lat="44.7653592" lon="8.6571559"><ele>130.5</ele><time>2026-04-18T09:31:25.019Z</time></trkpt><trkpt lat="44.7651205" lon="8.657163"><ele>131.0</ele><time>2026-04-18T09:31:26.018Z</time></trkpt><trkpt lat="44.7648847" lon="8.6571719"><ele>131.0</ele><time>2026-04-18T09:31:27.018Z</time></trkpt><trkpt lat="44.7646565" lon="8.657183"><ele>131.0</ele><time>2026-04-18T09:31:28.019Z</time></trkpt><trkpt lat="44.7644355" lon="8.657199"><ele>131.33333333333331</ele><time>2026-04-18T09:31:29.018Z</time></trkpt><trkpt lat="44.7642177" lon="8.6572221"><ele>131.66666666666666</ele><time>2026-04-18T09:31:30.019Z</time></trkpt><trkpt lat="44.7639965" lon="8.6572529"><ele>132.0</ele><time>2026-04-18T09:31:31.019Z</time></trkpt><trkpt lat="44.7637739" lon="8.6572898"><ele>132.0</ele><time>2026-04-18T09:31:32.019Z</time></trkpt><trkpt lat="44.763556" lon="8.657334"><ele>132.0</ele><time>2026-04-18T09:31:33.019Z</time></trkpt><trkpt lat="44.7633451" lon="8.657379"><ele>132.0</ele><time>2026-04-18T09:31:34.019Z</time></trkpt><trkpt lat="44.7631365" lon="8.6574239"><ele>132.0</ele><time>2026-04-18T09:31:35.018Z</time></trkpt><trkpt lat="44.7629255" lon="8.6574716"><ele>132.0</ele><time>2026-04-18T09:31:36.019Z</time></trkpt><trkpt lat="44.7627134" lon="8.657519"><ele>132.0</ele><time>2026-04-18T09:31:37.019Z</time></trkpt><trkpt lat="44.7625028" lon="8.6575664"><ele>132.0</ele><time>2026-04-18T09:31:38.019Z</time></trkpt><trkpt lat="44.762292" lon="8.6576121"><ele>132.0</ele><time>2026-04-18T09:31:39.018Z</time></trkpt><trkpt lat="44.7620792" lon="8.6576561"><ele>132.0</ele><time>2026-04-18T09:31:40.018Z</time></trkpt><trkpt lat="44.7618643" lon="8.657701"><ele>131.33333333333334</ele><time>2026-04-18T09:31:41.019Z</time></trkpt><trkpt lat="44.7616491" lon="8.6577443"><ele>130.66666666666669</ele><time>2026-04-18T09:31:42.019Z</time></trkpt><trkpt lat="44.7614338" lon="8.6577902"><ele>130.0</ele><time>2026-04-18T09:31:43.019Z</time></trkpt><trkpt lat="44.7612219" lon="8.6578299"><ele>130.0</ele><time>2026-04-18T09:31:44.019Z</time></trkpt><trkpt lat="44.7610113" lon="8.6578649"><ele>130.0</ele><time>2026-04-18T09:31:45.019Z</time></trkpt><trkpt lat="44.7608007" lon="8.6578955"><ele>130.0</ele><time>2026-04-18T09:31:46.019Z</time></trkpt><trkpt lat="44.7605926" lon="8.6579186"><ele>130.0</ele><time>2026-04-18T09:31:47.019Z</time></trkpt><trkpt lat="44.760392" lon="8.6579428"><ele>130.0</ele><time>2026-04-18T09:31:48.019Z</time></trkpt><trkpt lat="44.7601982" lon="8.6579668"><ele>130.0</ele><time>2026-04-18T09:31:49.018Z</time></trkpt><trkpt lat="44.7600124" lon="8.657993"><ele>130.33333333333334</ele><time>2026-04-18T09:31:50.018Z</time></trkpt><trkpt lat="44.7598333" lon="8.6580188"><ele>130.66666666666666</ele><time>2026-04-18T09:31:51.019Z</time></trkpt><trkpt lat="44.7596641" lon="8.6580434"><ele>131.0</ele><time>2026-04-18T09:31:52.018Z</time></trkpt><trkpt lat="44.7595103" lon="8.6580685"><ele>131.0</ele><time>2026-04-18T09:31:53.019Z</time></trkpt><trkpt lat="44.759374" lon="8.6580988"><ele>131.0</ele><time>2026-04-18T09:31:54.019Z</time></trkpt><trkpt lat="44.759255" lon="8.6581344"><ele>131.0</ele><time>2026-04-18T09:31:55.018Z</time></trkpt><trkpt lat="44.7591509" lon="8.6581687"><ele>131.0</ele><time>2026-04-18T09:31:56.019Z</time></trkpt><trkpt lat="44.7590534" lon="8.6581946"><ele>131.0</ele><time>2026-04-18T09:31:57.019Z</time></trkpt><trkpt lat="44.7589544" lon="8.6582062"><ele>131.0</ele><time>2026-04-18T09:31:58.019Z</time></trkpt><trkpt lat="44.7588599" lon="8.6581857"><ele>131.0</ele><time>2026-04-18T09:31:59.018Z</time></trkpt><trkpt lat="44.7587714" lon="8.658147"><ele>131.0</ele><time>2026-04-18T09:32:00.019Z</time></trkpt><trkpt lat="44.7586865" lon="8.6581298"><ele>131.0</ele><time>2026-04-18T09:32:01.018Z</time></trkpt><trkpt lat="44.7586049" lon="8.658146"><ele>131.2</ele><time>2026-04-18T09:32:02.018Z</time></trkpt><trkpt lat="44.7585344" lon="8.6582034"><ele>131.39999999999998</ele><time>2026-04-18T09:32:03.019Z</time></trkpt><trkpt lat="44.7584815" lon="8.6582985"><ele>131.6</ele><time>2026-04-18T09:32:04.018Z</time></trkpt><trkpt lat="44.7584556" lon="8.6584178"><ele>131.79999999999998</ele><time>2026-04-18T09:32:05.019Z</time></trkpt><trkpt lat="44.7584541" lon="8.6585571"><ele>132.0</ele><time>2026-04-18T09:32:06.019Z</time></trkpt><trkpt lat="44.758463" lon="8.6587182"><ele>132.0</ele><time>2026-04-18T09:32:07.019Z</time></trkpt><trkpt lat="44.7584402" lon="8.6588878"><ele>132.0</ele><time>2026-04-18T09:32:08.019Z</time></trkpt><trkpt lat="44.7583822" lon="8.6590345"><ele>132.0</ele><time>2026-04-18T09:32:09.018Z</time></trkpt><trkpt lat="44.7583016" lon="8.6591652"><ele>132.0</ele><time>2026-04-18T09:32:10.019Z</time></trkpt><trkpt lat="44.7582018" lon="8.6592868"><ele>132.0</ele><time>2026-04-18T09:32:11.019Z</time></trkpt><trkpt lat="44.758101" lon="8.6594054"><ele>132.0</ele><time>2026-04-18T09:32:12.018Z</time></trkpt><trkpt lat="44.7579992" lon="8.659525"><ele>132.0</ele><time>2026-04-18T09:32:13.018Z</time></trkpt><trkpt lat="44.7578941" lon="8.6596471"><ele>132.0</ele><time>2026-04-18T09:32:14.018Z</time></trkpt><trkpt lat="44.7577896" lon="8.6597719"><ele>132.0</ele><time>2026-04-18T09:32:15.019Z</time></trkpt><trkpt lat="44.7576922" lon="8.6599077"><ele>132.0</ele><time>2026-04-18T09:32:16.019Z</time></trkpt><trkpt lat="44.7576129" lon="8.660071"><ele>132.0</ele><time>2026-04-18T09:32:17.019Z</time></trkpt><trkpt lat="44.757559" lon="8.6602555"><ele>132.0</ele><time>2026-04-18T09:32:18.018Z</time></trkpt><trkpt lat="44.757528" lon="8.6604471"><ele>130.66666666666666</ele><time>2026-04-18T09:32:19.018Z</time></trkpt><trkpt lat="44.7575019" lon="8.6606555"><ele>129.33333333333331</ele><time>2026-04-18T09:32:20.019Z</time></trkpt><trkpt lat="44.7574744" lon="8.6608773"><ele>128.0</ele><time>2026-04-18T09:32:21.019Z</time></trkpt><trkpt lat="44.7574461" lon="8.6611074"><ele>126.0</ele><time>2026-04-18T09:32:22.019Z</time></trkpt><trkpt lat="44.7574209" lon="8.6613352"><ele>124.0</ele><time>2026-04-18T09:32:23.019Z</time></trkpt><trkpt lat="44.7573961" lon="8.661556"><ele>122.0</ele><time>2026-04-18T09:32:24.018Z</time></trkpt><trkpt lat="44.7573729" lon="8.6617602"><ele>122.0</ele><time>2026-04-18T09:32:25.019Z</time></trkpt><trkpt lat="44.7573523" lon="8.6619445"><ele>122.0</ele><time>2026-04-18T09:32:26.019Z</time></trkpt><trkpt lat="44.7573324" lon="8.6621241"><ele>122.0</ele><time>2026-04-18T09:32:27.019Z</time></trkpt><trkpt lat="44.7573225" lon="8.6623073"><ele>122.0</ele><time>2026-04-18T09:32:28.018Z</time></trkpt><trkpt lat="44.7573309" lon="8.6625004"><ele>123.33333333333333</ele><time>2026-04-18T09:32:29.018Z</time></trkpt><trkpt lat="44.7573482" lon="8.66271"><ele>124.66666666666666</ele><time>2026-04-18T09:32:30.019Z</time></trkpt><trkpt lat="44.7573696" lon="8.662939"><ele>126.0</ele><time>2026-04-18T09:32:31.018Z</time></trkpt><trkpt lat="44.7573928" lon="8.6631811"><ele>126.33333333333334</ele><time>2026-04-18T09:32:32.018Z</time></trkpt><trkpt lat="44.7574116" lon="8.66344"><ele>126.66666666666667</ele><time>2026-04-18T09:32:33.019Z</time></trkpt><trkpt lat="44.757432" lon="8.6637138"><ele>127.0</ele><time>2026-04-18T09:32:34.018Z</time></trkpt><trkpt lat="44.7574538" lon="8.6639982"><ele>127.0</ele><time>2026-04-18T09:32:35.019Z</time></trkpt><trkpt lat="44.7574736" lon="8.6642918"><ele>127.0</ele><time>2026-04-18T09:32:36.019Z</time></trkpt><trkpt lat="44.7574964" lon="8.6645904"><ele>127.0</ele><time>2026-04-18T09:32:37.018Z</time></trkpt><trkpt lat="44.7575187" lon="8.6648923"><ele>127.0</ele><time>2026-04-18T09:32:38.019Z</time></trkpt><trkpt lat="44.7575421" lon="8.6651961"><ele>127.0</ele><time>2026-04-18T09:32:39.018Z</time></trkpt><trkpt lat="44.7575647" lon="8.6655025"><ele>127.0</ele><time>2026-04-18T09:32:40.019Z</time></trkpt><trkpt lat="44.7575891" lon="8.6658133"><ele>126.5</ele><time>2026-04-18T09:32:41.019Z</time></trkpt><trkpt lat="44.7576131" lon="8.6661311"><ele>126.0</ele><time>2026-04-18T09:32:42.019Z</time></trkpt><trkpt lat="44.7576359" lon="8.6664505"><ele>126.0</ele><time>2026-04-18T09:32:43.019Z</time></trkpt><trkpt lat="44.7576582" lon="8.6667728"><ele>126.0</ele><time>2026-04-18T09:32:44.019Z</time></trkpt><trkpt lat="44.7576811" lon="8.6670978"><ele>125.0</ele><time>2026-04-18T09:32:45.018Z</time></trkpt><trkpt lat="44.757708" lon="8.6674299"><ele>124.0</ele><time>2026-04-18T09:32:46.018Z</time></trkpt><trkpt lat="44.7577399" lon="8.6677676"><ele>123.5</ele><time>2026-04-18T09:32:47.018Z</time></trkpt><trkpt lat="44.757774" lon="8.6681192"><ele>123.0</ele><time>2026-04-18T09:32:48.019Z</time></trkpt><trkpt lat="44.7578089" lon="8.6684774"><ele>123.5</ele><time>2026-04-18T09:32:49.019Z</time></trkpt><trkpt lat="44.7578412" lon="8.6688389"><ele>124.0</ele><time>2026-04-18T09:32:50.018Z</time></trkpt><trkpt lat="44.757871" lon="8.6692004"><ele>124.0</ele><time>2026-04-18T09:32:51.018Z</time></trkpt><trkpt lat="44.7578989" lon="8.6695668"><ele>124.0</ele><time>2026-04-18T09:32:52.019Z</time></trkpt><trkpt lat="44.7579233" lon="8.6699323"><ele>123.5</ele><time>2026-04-18T09:32:53.019Z</time></trkpt><trkpt lat="44.7579483" lon="8.6702899"><ele>123.0</ele><time>2026-04-18T09:32:54.019Z</time></trkpt><trkpt lat="44.7579708" lon="8.6706376"><ele>123.0</ele><time>2026-04-18T09:32:55.019Z</time></trkpt><trkpt lat="44.7579948" lon="8.6709832"><ele>123.0</ele><time>2026-04-18T09:32:56.019Z</time></trkpt><trkpt lat="44.7580162" lon="8.6713173"><ele>123.0</ele><time>2026-04-18T09:32:57.019Z</time></trkpt><trkpt lat="44.7580361" lon="8.6716378"><ele>123.0</ele><time>2026-04-18T09:32:58.019Z</time></trkpt><trkpt lat="44.7580559" lon="8.671947"><ele>123.0</ele><time>2026-04-18T09:32:59.019Z</time></trkpt><trkpt lat="44.7580783" lon="8.6722608"><ele>123.66666666666666</ele><time>2026-04-18T09:33:00.019Z</time></trkpt><trkpt lat="44.7581013" lon="8.6725744"><ele>124.33333333333333</ele><time>2026-04-18T09:33:01.019Z</time></trkpt><trkpt lat="44.7581268" lon="8.6728871"><ele>125.0</ele><time>2026-04-18T09:33:02.018Z</time></trkpt><trkpt lat="44.7581513" lon="8.6732039"><ele>125.0</ele><time>2026-04-18T09:33:03.018Z</time></trkpt><trkpt lat="44.7581779" lon="8.673528"><ele>125.0</ele><time>2026-04-18T09:33:04.018Z</time></trkpt><trkpt lat="44.7582035" lon="8.673852"><ele>125.0</ele><time>2026-04-18T09:33:05.019Z</time></trkpt><trkpt lat="44.7582276" lon="8.6741741"><ele>125.0</ele><time>2026-04-18T09:33:06.018Z</time></trkpt><trkpt lat="44.7582507" lon="8.6744948"><ele>124.5</ele><time>2026-04-18T09:33:07.019Z</time></trkpt><trkpt lat="44.7582745" lon="8.6748126"><ele>124.0</ele><time>2026-04-18T09:33:08.019Z</time></trkpt><trkpt lat="44.7582998" lon="8.6751269"><ele>124.66666666666667</ele><time>2026-04-18T09:33:09.019Z</time></trkpt><trkpt lat="44.7583246" lon="8.6754319"><ele>125.33333333333334</ele><time>2026-04-18T09:33:10.019Z</time></trkpt><trkpt lat="44.7583481" lon="8.6757247"><ele>126.0</ele><time>2026-04-18T09:33:11.018Z</time></trkpt><trkpt lat="44.75837" lon="8.6760123"><ele>126.33333333333334</ele><time>2026-04-18T09:33:12.019Z</time></trkpt><trkpt lat="44.758393" lon="8.6762953"><ele>126.66666666666667</ele><time>2026-04-18T09:33:13.018Z</time></trkpt><trkpt lat="44.7584153" lon="8.6765757"><ele>127.0</ele><time>2026-04-18T09:33:14.019Z</time></trkpt><trkpt lat="44.7584348" lon="8.6768548"><ele>127.0</ele><time>2026-04-18T09:33:15.019Z</time></trkpt><trkpt lat="44.7584558" lon="8.6771366"><ele>127.0</ele><time>2026-04-18T09:33:16.019Z</time></trkpt><trkpt lat="44.7584765" lon="8.6774193"><ele>127.0</ele><time>2026-04-18T09:33:17.019Z</time></trkpt><trkpt lat="44.7584996" lon="8.6777006"><ele>126.66666666666667</ele><time>2026-04-18T09:33:18.019Z</time></trkpt><trkpt lat="44.7585223" lon="8.6779793"><ele>126.33333333333334</ele><time>2026-04-18T09:33:19.018Z</time></trkpt><trkpt lat="44.7585429" lon="8.6782562"><ele>126.0</ele><time>2026-04-18T09:33:20.019Z</time></trkpt><trkpt lat="44.758563" lon="8.6785297"><ele>126.66666666666666</ele><time>2026-04-18T09:33:21.019Z</time></trkpt><trkpt lat="44.7585832" lon="8.6787955"><ele>127.33333333333333</ele><time>2026-04-18T09:33:22.018Z</time></trkpt><trkpt lat="44.7586023" lon="8.6790481"><ele>128.0</ele><time>2026-04-18T09:33:23.019Z</time></trkpt><trkpt lat="44.7586217" lon="8.6792929"><ele>127.66666666666666</ele><time>2026-04-18T09:33:24.018Z</time></trkpt><trkpt lat="44.7586395" lon="8.6795315"><ele>127.33333333333334</ele><time>2026-04-18T09:33:25.019Z</time></trkpt><trkpt lat="44.7586576" lon="8.6797742"><ele>127.0</ele><time>2026-04-18T09:33:26.018Z</time></trkpt><trkpt lat="44.7586772" lon="8.6800136"><ele>127.0</ele><time>2026-04-18T09:33:27.018Z</time></trkpt><trkpt lat="44.7586958" lon="8.6802437"><ele>127.0</ele><time>2026-04-18T09:33:28.019Z</time></trkpt><trkpt lat="44.7587133" lon="8.6804628"><ele>127.0</ele><time>2026-04-18T09:33:29.018Z</time></trkpt><trkpt lat="44.7587312" lon="8.680675"><ele>127.0</ele><time>2026-04-18T09:33:30.018Z</time></trkpt><trkpt lat="44.7587486" lon="8.6808833"><ele>127.0</ele><time>2026-04-18T09:33:31.018Z</time></trkpt><trkpt lat="44.7587648" lon="8.6810797"><ele>127.0</ele><time>2026-04-18T09:33:32.019Z</time></trkpt><trkpt lat="44.7587774" lon="8.6812497"><ele>127.0</ele><time>2026-04-18T09:33:33.019Z</time></trkpt><trkpt lat="44.7587873" lon="8.6813916"><ele>127.14285714285714</ele><time>2026-04-18T09:33:34.018Z</time></trkpt><trkpt lat="44.7587899" lon="8.6815084"><ele>127.28571428571428</ele><time>2026-04-18T09:33:35.019Z</time></trkpt><trkpt lat="44.7587891" lon="8.6816092"><ele>127.42857142857142</ele><time>2026-04-18T09:33:36.018Z</time></trkpt><trkpt lat="44.7587828" lon="8.6817029"><ele>127.57142857142857</ele><time>2026-04-18T09:33:37.019Z</time></trkpt><trkpt lat="44.7587631" lon="8.6817883"><ele>127.7142857142857</ele><time>2026-04-18T09:33:38.019Z</time></trkpt><trkpt lat="44.7587213" lon="8.6818564"><ele>127.85714285714285</ele><time>2026-04-18T09:33:39.019Z</time></trkpt><trkpt lat="44.7586521" lon="8.6819071"><ele>128.0</ele><time>2026-04-18T09:33:40.019Z</time></trkpt><trkpt lat="44.7585587" lon="8.6819379"><ele>128.25</ele><time>2026-04-18T09:33:41.019Z</time></trkpt><trkpt lat="44.7584402" lon="8.6819538"><ele>128.5</ele><time>2026-04-18T09:33:42.019Z</time></trkpt><trkpt lat="44.7582961" lon="8.6819669"><ele>128.75</ele><time>2026-04-18T09:33:43.018Z</time></trkpt><trkpt lat="44.758136" lon="8.6819751"><ele>129.0</ele><time>2026-04-18T09:33:44.019Z</time></trkpt><trkpt lat="44.7579619" lon="8.6819767"><ele>129.0</ele><time>2026-04-18T09:33:45.019Z</time></trkpt><trkpt lat="44.7577893" lon="8.6819814"><ele>129.0</ele><time>2026-04-18T09:33:46.018Z</time></trkpt><trkpt lat="44.7576107" lon="8.6819853"><ele>129.0</ele><time>2026-04-18T09:33:47.019Z</time></trkpt><trkpt lat="44.7574259" lon="8.6819898"><ele>129.0</ele><time>2026-04-18T09:33:48.018Z</time></trkpt><trkpt lat="44.7572372" lon="8.6819939"><ele>129.0</ele><time>2026-04-18T09:33:49.018Z</time></trkpt><trkpt lat="44.7570403" lon="8.6819973"><ele>129.0</ele><time>2026-04-18T09:33:50.018Z</time></trkpt><trkpt lat="44.756838" lon="8.6820007"><ele>129.0</ele><time>2026-04-18T09:33:51.019Z</time></trkpt><trkpt lat="44.7566275" lon="8.682005"><ele>129.0</ele><time>2026-04-18T09:33:52.019Z</time></trkpt><trkpt lat="44.7564149" lon="8.6820081"><ele>129.0</ele><time>2026-04-18T09:33:53.019Z</time></trkpt><trkpt lat="44.7562013" lon="8.6820122"><ele>128.33333333333334</ele><time>2026-04-18T09:33:54.019Z</time></trkpt><trkpt lat="44.755987" lon="8.6820146"><ele>127.66666666666667</ele><time>2026-04-18T09:33:55.018Z</time></trkpt><trkpt lat="44.7557724" lon="8.682018"><ele>127.0</ele><time>2026-04-18T09:33:56.019Z</time></trkpt><trkpt lat="44.7555554" lon="8.6820255"><ele>127.0</ele><time>2026-04-18T09:33:57.019Z</time></trkpt><trkpt lat="44.7553343" lon="8.6820325"><ele>127.0</ele><time>2026-04-18T09:33:58.018Z</time></trkpt><trkpt lat="44.7551102" lon="8.6820389"><ele>127.0</ele><time>2026-04-18T09:33:59.019Z</time></trkpt><trkpt lat="44.7548843" lon="8.6820419"><ele>127.33333333333334</ele><time>2026-04-18T09:34:00.019Z</time></trkpt><trkpt lat="44.7546598" lon="8.6820487"><ele>127.66666666666666</ele><time>2026-04-18T09:34:01.019Z</time></trkpt><trkpt lat="44.7544393" lon="8.6820533"><ele>128.0</ele><time>2026-04-18T09:34:02.019Z</time></trkpt><trkpt lat="44.7542197" lon="8.6820581"><ele>127.33333333333333</ele><time>2026-04-18T09:34:03.018Z</time></trkpt><trkpt lat="44.7540008" lon="8.6820611"><ele>126.66666666666666</ele><time>2026-04-18T09:34:04.019Z</time></trkpt><trkpt lat="44.7537848" lon="8.6820619"><ele>126.0</ele><time>2026-04-18T09:34:05.019Z</time></trkpt><trkpt lat="44.7535706" lon="8.6820646"><ele>126.66666666666666</ele><time>2026-04-18T09:34:06.018Z</time></trkpt><trkpt lat="44.7533584" lon="8.6820659"><ele>127.33333333333333</ele><time>2026-04-18T09:34:07.019Z</time></trkpt><trkpt lat="44.7531442" lon="8.6820697"><ele>128.0</ele><time>2026-04-18T09:34:08.019Z</time></trkpt><trkpt lat="44.7529268" lon="8.6820742"><ele>128.33333333333331</ele><time>2026-04-18T09:34:09.019Z</time></trkpt><trkpt lat="44.7527057" lon="8.6820779"><ele>128.66666666666666</ele><time>2026-04-18T09:34:10.018Z</time></trkpt><trkpt lat="44.7524788" lon="8.682083"><ele>129.0</ele><time>2026-04-18T09:34:11.018Z</time></trkpt><trkpt lat="44.7522468" lon="8.6820865"><ele>129.0</ele><time>2026-04-18T09:34:12.019Z</time></trkpt><trkpt lat="44.7520104" lon="8.6820912"><ele>129.0</ele><time>2026-04-18T09:34:13.019Z</time></trkpt><trkpt lat="44.751771" lon="8.6820977"><ele>127.5</ele><time>2026-04-18T09:34:14.019Z</time></trkpt><trkpt lat="44.7515277" lon="8.6821074"><ele>126.0</ele><time>2026-04-18T09:34:15.018Z</time></trkpt><trkpt lat="44.7512825" lon="8.6821186"><ele>127.0</ele><time>2026-04-18T09:34:16.018Z</time></trkpt><trkpt lat="44.7510344" lon="8.6821286"><ele>128.0</ele><time>2026-04-18T09:34:17.019Z</time></trkpt><trkpt lat="44.7507853" lon="8.6821393"><ele>128.0</ele><time>2026-04-18T09:34:18.018Z</time></trkpt><trkpt lat="44.7505421" lon="8.6821458"><ele>128.0</ele><time>2026-04-18T09:34:19.018Z</time></trkpt><trkpt lat="44.7503069" lon="8.6821501"><ele>128.33333333333331</ele><time>2026-04-18T09:34:20.019Z</time></trkpt><trkpt lat="44.7500829" lon="8.6821547"><ele>128.66666666666666</ele><time>2026-04-18T09:34:21.019Z</time></trkpt><trkpt lat="44.7498634" lon="8.6821597"><ele>129.0</ele><time>2026-04-18T09:34:22.019Z</time></trkpt><trkpt lat="44.7496528" lon="8.6821624"><ele>129.0</ele><time>2026-04-18T09:34:23.019Z</time></trkpt><trkpt lat="44.7494509" lon="8.6821662"><ele>129.0</ele><time>2026-04-18T09:34:24.018Z</time></trkpt><trkpt lat="44.749257" lon="8.6821712"><ele>129.0</ele><time>2026-04-18T09:34:25.019Z</time></trkpt><trkpt lat="44.7490658" lon="8.6821786"><ele>129.66666666666666</ele><time>2026-04-18T09:34:26.019Z</time></trkpt><trkpt lat="44.7488679" lon="8.6821919"><ele>130.33333333333331</ele><time>2026-04-18T09:34:27.018Z</time></trkpt><trkpt lat="44.7486523" lon="8.6822042"><ele>131.0</ele><time>2026-04-18T09:34:28.018Z</time></trkpt><trkpt lat="44.7484253" lon="8.6822084"><ele>131.0</ele><time>2026-04-18T09:34:29.018Z</time></trkpt><trkpt lat="44.7481871" lon="8.6822015"><ele>131.0</ele><time>2026-04-18T09:34:30.018Z</time></trkpt><trkpt lat="44.747941" lon="8.6821965"><ele>130.5</ele><time>2026-04-18T09:34:31.018Z</time></trkpt><trkpt lat="44.7476941" lon="8.6821967"><ele>130.0</ele><time>2026-04-18T09:34:32.019Z</time></trkpt><trkpt lat="44.7474444" lon="8.6821965"><ele>130.0</ele><time>2026-04-18T09:34:33.019Z</time></trkpt><trkpt lat="44.7471935" lon="8.6821995"><ele>130.0</ele><time>2026-04-18T09:34:34.018Z</time></trkpt><trkpt lat="44.7469425" lon="8.6822043"><ele>130.0</ele><time>2026-04-18T09:34:35.018Z</time></trkpt><trkpt lat="44.746693" lon="8.6822095"><ele>130.0</ele><time>2026-04-18T09:34:36.018Z</time></trkpt><trkpt lat="44.7464538" lon="8.6822126"><ele>130.0</ele><time>2026-04-18T09:34:37.018Z</time></trkpt><trkpt lat="44.7462224" lon="8.6822148"><ele>130.0</ele><time>2026-04-18T09:34:38.019Z</time></trkpt><trkpt lat="44.7459988" lon="8.68222"><ele>131.66666666666669</ele><time>2026-04-18T09:34:39.019Z</time></trkpt><trkpt lat="44.7457826" lon="8.6822276"><ele>133.33333333333334</ele><time>2026-04-18T09:34:40.018Z</time></trkpt><trkpt lat="44.7455725" lon="8.6822335"><ele>135.0</ele><time>2026-04-18T09:34:41.019Z</time></trkpt><trkpt lat="44.7453635" lon="8.6822397"><ele>134.0</ele><time>2026-04-18T09:34:42.018Z</time></trkpt><trkpt lat="44.7451534" lon="8.6822496"><ele>133.0</ele><time>2026-04-18T09:34:43.019Z</time></trkpt><trkpt lat="44.7449414" lon="8.6822739"><ele>132.0</ele><time>2026-04-18T09:34:44.018Z</time></trkpt><trkpt lat="44.7447272" lon="8.6823237"><ele>132.0</ele><time>2026-04-18T09:34:45.019Z</time></trkpt><trkpt lat="44.7445166" lon="8.6823853"><ele>132.0</ele><time>2026-04-18T09:34:46.019Z</time></trkpt><trkpt lat="44.7443089" lon="8.6824524"><ele>132.0</ele><time>2026-04-18T09:34:47.018Z</time></trkpt><trkpt lat="44.7441008" lon="8.6825232"><ele>131.0</ele><time>2026-04-18T09:34:48.019Z</time></trkpt><trkpt lat="44.743897" lon="8.6825941"><ele>130.0</ele><time>2026-04-18T09:34:49.019Z</time></trkpt><trkpt lat="44.7436977" lon="8.6826622"><ele>129.0</ele><time>2026-04-18T09:34:50.019Z</time></trkpt><trkpt lat="44.743498" lon="8.6827331"><ele>129.66666666666666</ele><time>2026-04-18T09:34:51.019Z</time></trkpt><trkpt lat="44.7432967" lon="8.6828048"><ele>130.33333333333331</ele><time>2026-04-18T09:34:52.019Z</time></trkpt><trkpt lat="44.7430974" lon="8.6828762"><ele>131.0</ele><time>2026-04-18T09:34:53.019Z</time></trkpt><trkpt lat="44.7428987" lon="8.6829508"><ele>131.0</ele><time>2026-04-18T09:34:54.019Z</time></trkpt><trkpt lat="44.7426971" lon="8.6830278"><ele>131.0</ele><time>2026-04-18T09:34:55.018Z</time></trkpt><trkpt lat="44.742492" lon="8.6831032"><ele>131.0</ele><time>2026-04-18T09:34:56.018Z</time></trkpt><trkpt lat="44.7422843" lon="8.6831773"><ele>131.0</ele><time>2026-04-18T09:34:57.018Z</time></trkpt><trkpt lat="44.742074" lon="8.6832551"><ele>131.0</ele><time>2026-04-18T09:34:58.019Z</time></trkpt><trkpt lat="44.7418627" lon="8.6833311"><ele>131.0</ele><time>2026-04-18T09:34:59.019Z</time></trkpt><trkpt lat="44.7416535" lon="8.6834059"><ele>131.0</ele><time>2026-04-18T09:35:00.019Z</time></trkpt><trkpt lat="44.741447" lon="8.6834804"><ele>131.0</ele><time>2026-04-18T09:35:01.018Z</time></trkpt><trkpt lat="44.7412403" lon="8.6835545"><ele>131.0</ele><time>2026-04-18T09:35:02.019Z</time></trkpt><trkpt lat="44.741035" lon="8.6836262"><ele>131.0</ele><time>2026-04-18T09:35:03.019Z</time></trkpt><trkpt lat="44.7408308" lon="8.6836984"><ele>131.0</ele><time>2026-04-18T09:35:04.019Z</time></trkpt><trkpt lat="44.7406281" lon="8.6837715"><ele>131.0</ele><time>2026-04-18T09:35:05.018Z</time></trkpt><trkpt lat="44.7404264" lon="8.6838442"><ele>131.0</ele><time>2026-04-18T09:35:06.018Z</time></trkpt><trkpt lat="44.7402225" lon="8.6839168"><ele>131.0</ele><time>2026-04-18T09:35:07.018Z</time></trkpt><trkpt lat="44.7400178" lon="8.6839889"><ele>131.0</ele><time>2026-04-18T09:35:08.019Z</time></trkpt><trkpt lat="44.7398127" lon="8.6840594"><ele>131.0</ele><time>2026-04-18T09:35:09.019Z</time></trkpt><trkpt lat="44.7396113" lon="8.6841298"><ele>131.0</ele><time>2026-04-18T09:35:10.019Z</time></trkpt><trkpt lat="44.7394089" lon="8.6841991"><ele>131.0</ele><time>2026-04-18T09:35:11.019Z</time></trkpt><trkpt lat="44.7392041" lon="8.6842698"><ele>131.0</ele><time>2026-04-18T09:35:12.018Z</time></trkpt><trkpt lat="44.7390006" lon="8.6843405"><ele>131.0</ele><time>2026-04-18T09:35:13.019Z</time></trkpt><trkpt lat="44.738797" lon="8.6844128"><ele>131.0</ele><time>2026-04-18T09:35:14.019Z</time></trkpt><trkpt lat="44.7385942" lon="8.6844871"><ele>131.0</ele><time>2026-04-18T09:35:15.019Z</time></trkpt><trkpt lat="44.7383902" lon="8.6845627"><ele>131.0</ele><time>2026-04-18T09:35:16.019Z</time></trkpt><trkpt lat="44.7381903" lon="8.6846347"><ele>131.0</ele><time>2026-04-18T09:35:17.019Z</time></trkpt><trkpt lat="44.737991" lon="8.6847047"><ele>131.0</ele><time>2026-04-18T09:35:18.019Z</time></trkpt><trkpt lat="44.7377942" lon="8.6847751"><ele>131.0</ele><time>2026-04-18T09:35:19.018Z</time></trkpt><trkpt lat="44.7376101" lon="8.6848437"><ele>131.0</ele><time>2026-04-18T09:35:20.019Z</time></trkpt><trkpt lat="44.7374561" lon="8.6849016"><ele>130.75</ele><time>2026-04-18T09:35:21.019Z</time></trkpt><trkpt lat="44.7373102" lon="8.6849521"><ele>130.5</ele><time>2026-04-18T09:35:22.018Z</time></trkpt><trkpt lat="44.7371693" lon="8.6850015"><ele>130.25</ele><time>2026-04-18T09:35:23.019Z</time></trkpt><trkpt lat="44.7370335" lon="8.6850496"><ele>130.0</ele><time>2026-04-18T09:35:24.019Z</time></trkpt><trkpt lat="44.7369003" lon="8.6851008"><ele>131.25</ele><time>2026-04-18T09:35:25.019Z</time></trkpt><trkpt lat="44.7367702" lon="8.6851522"><ele>132.5</ele><time>2026-04-18T09:35:26.018Z</time></trkpt><trkpt lat="44.7366412" lon="8.6852002"><ele>133.75</ele><time>2026-04-18T09:35:27.018Z</time></trkpt><trkpt lat="44.736515" lon="8.6852469"><ele>135.0</ele><time>2026-04-18T09:35:28.019Z</time></trkpt><trkpt lat="44.7363916" lon="8.685291"><ele>136.0</ele><time>2026-04-18T09:35:29.019Z</time></trkpt><trkpt lat="44.736274" lon="8.6853282"><ele>137.0</ele><time>2026-04-18T09:35:30.018Z</time></trkpt><trkpt lat="44.7361621" lon="8.6853575"><ele>138.0</ele><time>2026-04-18T09:35:31.018Z</time></trkpt><trkpt lat="44.7360508" lon="8.6853784"><ele>139.0</ele><time>2026-04-18T09:35:32.019Z</time></trkpt><trkpt lat="44.7359377" lon="8.6853935"><ele>140.0</ele><time>2026-04-18T09:35:33.019Z</time></trkpt><trkpt lat="44.7358281" lon="8.6854067"><ele>141.0</ele><time>2026-04-18T09:35:34.019Z</time></trkpt><trkpt lat="44.7357287" lon="8.6854152"><ele>142.0</ele><time>2026-04-18T09:35:35.019Z</time></trkpt><trkpt lat="44.7356397" lon="8.6854212"><ele>143.0</ele><time>2026-04-18T09:35:36.019Z</time></trkpt><trkpt lat="44.7355604" lon="8.6854261"><ele>144.0</ele><time>2026-04-18T09:35:37.018Z</time></trkpt><trkpt lat="44.7354789" lon="8.6854298"><ele>144.0</ele><time>2026-04-18T09:35:38.019Z</time></trkpt><trkpt lat="44.7354017" lon="8.6854404"><ele>144.0</ele><time>2026-04-18T09:35:39.019Z</time></trkpt><trkpt lat="44.7353305" lon="8.6854532"><ele>144.0</ele><time>2026-04-18T09:35:40.019Z</time></trkpt><trkpt lat="44.7352621" lon="8.6854663"><ele>144.0</ele><time>2026-04-18T09:35:41.019Z</time></trkpt><trkpt lat="44.735192" lon="8.6854784"><ele>144.0</ele><time>2026-04-18T09:35:42.019Z</time></trkpt><trkpt lat="44.7351141" lon="8.6854926"><ele>144.0</ele><time>2026-04-18T09:35:43.019Z</time></trkpt><trkpt lat="44.7350184" lon="8.6855124"><ele>143.2</ele><time>2026-04-18T09:35:44.019Z</time></trkpt><trkpt lat="44.7349104" lon="8.6855335"><ele>142.4</ele><time>2026-04-18T09:35:45.019Z</time></trkpt><trkpt lat="44.7348066" lon="8.6855504"><ele>141.6</ele><time>2026-04-18T09:35:46.018Z</time></trkpt><trkpt lat="44.7347105" lon="8.6855605"><ele>140.8</ele><time>2026-04-18T09:35:47.019Z</time></trkpt><trkpt lat="44.7346268" lon="8.685569"><ele>140.0</ele><time>2026-04-18T09:35:48.018Z</time></trkpt><trkpt lat="44.7345583" lon="8.6855744"><ele>140.0</ele><time>2026-04-18T09:35:49.018Z</time></trkpt><trkpt lat="44.7344674" lon="8.6855824"><ele>140.0</ele><time>2026-04-18T09:35:51.019Z</time></trkpt><trkpt lat="44.7343978" lon="8.685594"><ele>140.0</ele><time>2026-04-18T09:35:53.019Z</time></trkpt><trkpt lat="44.7343129" lon="8.6856147"><ele>140.0</ele><time>2026-04-18T09:35:56.019Z</time></trkpt><trkpt lat="44.7342362" lon="8.6856136"><ele>140.0</ele><time>2026-04-18T09:35:58.018Z</time></trkpt><trkpt lat="44.7341553" lon="8.6856262"><ele>140.0</ele><time>2026-04-18T09:36:00.019Z</time></trkpt><trkpt lat="44.7340901" lon="8.6856376"><ele>139.4</ele><time>2026-04-18T09:36:02.019Z</time></trkpt><trkpt lat="44.7339975" lon="8.6856548"><ele>138.8</ele><time>2026-04-18T09:36:04.018Z</time></trkpt><trkpt lat="44.7338696" lon="8.6856717"><ele>138.2</ele><time>2026-04-18T09:36:06.019Z</time></trkpt><trkpt lat="44.7337977" lon="8.6856815"><ele>137.6</ele><time>2026-04-18T09:36:07.018Z</time></trkpt><trkpt lat="44.7337143" lon="8.6856965"><ele>137.0</ele><time>2026-04-18T09:36:08.019Z</time></trkpt><trkpt lat="44.7336234" lon="8.6857113"><ele>136.2</ele><time>2026-04-18T09:36:09.019Z</time></trkpt><trkpt lat="44.7335223" lon="8.6857276"><ele>135.39999999999998</ele><time>2026-04-18T09:36:10.018Z</time></trkpt><trkpt lat="44.7334156" lon="8.685745"><ele>134.60000000000002</ele><time>2026-04-18T09:36:11.018Z</time></trkpt><trkpt lat="44.7333117" lon="8.6857635"><ele>133.8</ele><time>2026-04-18T09:36:12.018Z</time></trkpt><trkpt lat="44.7332112" lon="8.6857805"><ele>133.0</ele><time>2026-04-18T09:36:13.019Z</time></trkpt><trkpt lat="44.7331084" lon="8.6857969"><ele>133.0</ele><time>2026-04-18T09:36:14.019Z</time></trkpt><trkpt lat="44.7330025" lon="8.6858111"><ele>133.0</ele><time>2026-04-18T09:36:15.019Z</time></trkpt><trkpt lat="44.7328963" lon="8.6858266"><ele>133.0</ele><time>2026-04-18T09:36:16.019Z</time></trkpt><trkpt lat="44.7327905" lon="8.685842"><ele>133.0</ele><time>2026-04-18T09:36:17.019Z</time></trkpt><trkpt lat="44.7326881" lon="8.6858563"><ele>133.0</ele><time>2026-04-18T09:36:18.019Z</time></trkpt><trkpt lat="44.732587" lon="8.6858715"><ele>133.4</ele><time>2026-04-18T09:36:19.019Z</time></trkpt><trkpt lat="44.7324876" lon="8.6858864"><ele>133.8</ele><time>2026-04-18T09:36:20.019Z</time></trkpt><trkpt lat="44.7323925" lon="8.685904"><ele>134.2</ele><time>2026-04-18T09:36:21.019Z</time></trkpt><trkpt lat="44.7323041" lon="8.6859182"><ele>134.6</ele><time>2026-04-18T09:36:22.019Z</time></trkpt><trkpt lat="44.7322275" lon="8.6859265"><ele>135.0</ele><time>2026-04-18T09:36:23.019Z</time></trkpt><trkpt lat="44.7321156" lon="8.6859443"><ele>135.0</ele><time>2026-04-18T09:36:25.018Z</time></trkpt><trkpt lat="44.7320492" lon="8.6860189"><ele>135.0</ele><time>2026-04-18T09:36:27.019Z</time></trkpt><trkpt lat="44.7320315" lon="8.6861515"><ele>135.0</ele><time>2026-04-18T09:36:29.018Z</time></trkpt><trkpt lat="44.7319866" lon="8.6862964"><ele>135.0</ele><time>2026-04-18T09:36:31.019Z</time></trkpt><trkpt lat="44.7319123" lon="8.6864351"><ele>135.0</ele><time>2026-04-18T09:36:33.018Z</time></trkpt><trkpt lat="44.731873" lon="8.6865079"><ele>136.42857142857142</ele><time>2026-04-18T09:36:34.019Z</time></trkpt><trkpt lat="44.7318307" lon="8.6865775"><ele>137.85714285714283</ele><time>2026-04-18T09:36:35.019Z</time></trkpt><trkpt lat="44.7317905" lon="8.6866475"><ele>139.28571428571428</ele><time>2026-04-18T09:36:36.019Z</time></trkpt><trkpt lat="44.7317472" lon="8.686718"><ele>140.71428571428572</ele><time>2026-04-18T09:36:37.019Z</time></trkpt><trkpt lat="44.7317027" lon="8.6867844"><ele>142.14285714285717</ele><time>2026-04-18T09:36:38.018Z</time></trkpt><trkpt lat="44.7316535" lon="8.6868452"><ele>143.57142857142858</ele><time>2026-04-18T09:36:39.019Z</time></trkpt><trkpt lat="44.731596" lon="8.6868965"><ele>145.0</ele><time>2026-04-18T09:36:40.018Z</time></trkpt><trkpt lat="44.7315321" lon="8.6869364"><ele>147.16666666666669</ele><time>2026-04-18T09:36:41.018Z</time></trkpt><trkpt lat="44.7314617" lon="8.6869684"><ele>149.33333333333334</ele><time>2026-04-18T09:36:42.018Z</time></trkpt><trkpt lat="44.7313884" lon="8.6869907"><ele>151.5</ele><time>2026-04-18T09:36:43.018Z</time></trkpt><trkpt lat="44.7313114" lon="8.6870004"><ele>153.66666666666666</ele><time>2026-04-18T09:36:44.019Z</time></trkpt><trkpt lat="44.7312398" lon="8.686992"><ele>155.83333333333331</ele><time>2026-04-18T09:36:45.019Z</time></trkpt><trkpt lat="44.7311273" lon="8.6869773"><ele>158.0</ele><time>2026-04-18T09:36:47.018Z</time></trkpt><trkpt lat="44.7310427" lon="8.6869691"><ele>158.0</ele><time>2026-04-18T09:36:49.019Z</time></trkpt><trkpt lat="44.7309781" lon="8.6869692"><ele>158.0</ele><time>2026-04-18T09:36:51.019Z</time></trkpt><trkpt lat="44.7309073" lon="8.6870219"><ele>158.0</ele><time>2026-04-18T09:37:35.018Z</time></trkpt><trkpt lat="44.7308303" lon="8.6870658"><ele>158.0</ele><time>2026-04-18T09:37:37.019Z</time></trkpt><trkpt lat="44.7307442" lon="8.6871198"><ele>158.0</ele><time>2026-04-18T09:37:39.018Z</time></trkpt><trkpt lat="44.7306362" lon="8.6871495"><ele>158.0</ele><time>2026-04-18T09:37:41.019Z</time></trkpt><trkpt lat="44.7305732" lon="8.6871368"><ele>158.0</ele><time>2026-04-18T09:37:42.018Z</time></trkpt><trkpt lat="44.7305048" lon="8.6871165"><ele>158.0</ele><time>2026-04-18T09:37:43.019Z</time></trkpt><trkpt lat="44.7304276" lon="8.6870932"><ele>158.0</ele><time>2026-04-18T09:37:44.019Z</time></trkpt><trkpt lat="44.7303471" lon="8.6870667"><ele>158.0</ele><time>2026-04-18T09:37:45.018Z</time></trkpt><trkpt lat="44.7302673" lon="8.6870395"><ele>158.0</ele><time>2026-04-18T09:37:46.019Z</time></trkpt><trkpt lat="44.7301906" lon="8.6870102"><ele>158.0</ele><time>2026-04-18T09:37:47.019Z</time></trkpt><trkpt lat="44.7301167" lon="8.6869896"><ele>159.33333333333331</ele><time>2026-04-18T09:37:48.018Z</time></trkpt><trkpt lat="44.7300509" lon="8.6869935"><ele>160.66666666666666</ele><time>2026-04-18T09:37:49.018Z</time></trkpt><trkpt lat="44.729974" lon="8.6870981"><ele>162.0</ele><time>2026-04-18T09:37:51.018Z</time></trkpt><trkpt lat="44.7299207" lon="8.6871993"><ele>163.33333333333334</ele><time>2026-04-18T09:37:53.018Z</time></trkpt><trkpt lat="44.7298201" lon="8.6872072"><ele>164.66666666666669</ele><time>2026-04-18T09:37:55.018Z</time></trkpt><trkpt lat="44.7297582" lon="8.6871863"><ele>166.0</ele><time>2026-04-18T09:37:56.018Z</time></trkpt><trkpt lat="44.7296866" lon="8.6871489"><ele>166.0</ele><time>2026-04-18T09:37:57.018Z</time></trkpt><trkpt lat="44.7296056" lon="8.6871068"><ele>166.0</ele><time>2026-04-18T09:37:58.019Z</time></trkpt><trkpt lat="44.729528" lon="8.6870669"><ele>166.0</ele><time>2026-04-18T09:37:59.019Z</time></trkpt><trkpt lat="44.7294541" lon="8.6870296"><ele>166.0</ele><time>2026-04-18T09:38:00.018Z</time></trkpt><trkpt lat="44.7293754" lon="8.6869918"><ele>166.0</ele><time>2026-04-18T09:38:01.019Z</time></trkpt><trkpt lat="44.7292945" lon="8.6869594"><ele>166.0</ele><time>2026-04-18T09:38:02.019Z</time></trkpt><trkpt lat="44.7292175" lon="8.6869267"><ele>165.33333333333334</ele><time>2026-04-18T09:38:03.018Z</time></trkpt><trkpt lat="44.7291562" lon="8.6869005"><ele>164.66666666666669</ele><time>2026-04-18T09:38:04.018Z</time></trkpt><trkpt lat="44.7290586" lon="8.6868556"><ele>164.0</ele><time>2026-04-18T09:38:06.019Z</time></trkpt><trkpt lat="44.7289777" lon="8.6868797"><ele>163.33333333333334</ele><time>2026-04-18T09:38:08.018Z</time></trkpt><trkpt lat="44.7289809" lon="8.6870047"><ele>162.66666666666666</ele><time>2026-04-18T09:38:10.018Z</time></trkpt><trkpt lat="44.7290443" lon="8.6871326"><ele>162.0</ele><time>2026-04-18T09:38:12.018Z</time></trkpt><trkpt lat="44.7290567" lon="8.6872302"><ele>164.16666666666666</ele><time>2026-04-18T09:38:13.018Z</time></trkpt><trkpt lat="44.729054" lon="8.6873416"><ele>166.33333333333334</ele><time>2026-04-18T09:38:14.018Z</time></trkpt><trkpt lat="44.7290438" lon="8.6874757"><ele>168.5</ele><time>2026-04-18T09:38:15.019Z</time></trkpt><trkpt lat="44.7290347" lon="8.6875976"><ele>170.66666666666669</ele><time>2026-04-18T09:38:16.019Z</time></trkpt><trkpt lat="44.7290235" lon="8.6877126"><ele>172.83333333333334</ele><time>2026-04-18T09:38:17.018Z</time></trkpt><trkpt lat="44.7290138" lon="8.6878268"><ele>175.0</ele><time>2026-04-18T09:38:18.019Z</time></trkpt><trkpt lat="44.7290027" lon="8.6879273"><ele>175.5</ele><time>2026-04-18T09:38:19.018Z</time></trkpt><trkpt lat="44.7289892" lon="8.6880198"><ele>176.0</ele><time>2026-04-18T09:38:20.018Z</time></trkpt><trkpt lat="44.7289702" lon="8.6881098"><ele>176.5</ele><time>2026-04-18T09:38:21.018Z</time></trkpt><trkpt lat="44.7289514" lon="8.6882094"><ele>177.0</ele><time>2026-04-18T09:38:22.018Z</time></trkpt><trkpt lat="44.7289372" lon="8.6883219"><ele>177.5</ele><time>2026-04-18T09:38:23.019Z</time></trkpt><trkpt lat="44.7289237" lon="8.6884441"><ele>178.0</ele><time>2026-04-18T09:38:24.018Z</time></trkpt><trkpt lat="44.7289088" lon="8.6885718"><ele>177.8</ele><time>2026-04-18T09:38:25.018Z</time></trkpt><trkpt lat="44.7288931" lon="8.6887001"><ele>177.60000000000002</ele><time>2026-04-18T09:38:26.019Z</time></trkpt><trkpt lat="44.7288713" lon="8.6888277"><ele>177.39999999999998</ele><time>2026-04-18T09:38:27.018Z</time></trkpt><trkpt lat="44.7288332" lon="8.6889477"><ele>177.2</ele><time>2026-04-18T09:38:28.018Z</time></trkpt><trkpt lat="44.728783" lon="8.6890632"><ele>177.0</ele><time>2026-04-18T09:38:29.018Z</time></trkpt><trkpt lat="44.7287307" lon="8.6891788"><ele>177.0</ele><time>2026-04-18T09:38:30.018Z</time></trkpt><trkpt lat="44.7286868" lon="8.6892775"><ele>177.0</ele><time>2026-04-18T09:38:31.019Z</time></trkpt><trkpt lat="44.7286375" lon="8.6894071"><ele>177.0</ele><time>2026-04-18T09:38:33.019Z</time></trkpt><trkpt lat="44.7286057" lon="8.6894981"><ele>177.0</ele><time>2026-04-18T09:38:37.019Z</time></trkpt><trkpt lat="44.7285781" lon="8.6896309"><ele>177.0</ele><time>2026-04-18T09:38:39.019Z</time></trkpt><trkpt lat="44.7285449" lon="8.6897847"><ele>177.0</ele><time>2026-04-18T09:38:41.018Z</time></trkpt><trkpt lat="44.7284946" lon="8.6899504"><ele>177.0</ele><time>2026-04-18T09:38:43.019Z</time></trkpt><trkpt lat="44.7284651" lon="8.6900446"><ele>177.0</ele><time>2026-04-18T09:38:44.019Z</time></trkpt><trkpt lat="44.728436" lon="8.690147"><ele>177.0</ele><time>2026-04-18T09:38:45.018Z</time></trkpt><trkpt lat="44.7284088" lon="8.6902593"><ele>177.0</ele><time>2026-04-18T09:38:46.018Z</time></trkpt><trkpt lat="44.7283761" lon="8.6903748"><ele>177.39999999999998</ele><time>2026-04-18T09:38:47.019Z</time></trkpt><trkpt lat="44.7283425" lon="8.6904962"><ele>177.79999999999998</ele><time>2026-04-18T09:38:48.019Z</time></trkpt><trkpt lat="44.7283114" lon="8.6906198"><ele>178.2</ele><time>2026-04-18T09:38:49.018Z</time></trkpt><trkpt lat="44.72828" lon="8.6907492"><ele>178.6</ele><time>2026-04-18T09:38:50.019Z</time></trkpt><trkpt lat="44.7282481" lon="8.6908802"><ele>179.0</ele><time>2026-04-18T09:38:51.018Z</time></trkpt><trkpt lat="44.7282127" lon="8.6910075"><ele>179.0</ele><time>2026-04-18T09:38:52.018Z</time></trkpt><trkpt lat="44.728179" lon="8.6911359"><ele>179.0</ele><time>2026-04-18T09:38:53.018Z</time></trkpt><trkpt lat="44.728145" lon="8.6912648"><ele>179.0</ele><time>2026-04-18T09:38:54.019Z</time></trkpt><trkpt lat="44.7281132" lon="8.6913915"><ele>179.0</ele><time>2026-04-18T09:38:55.018Z</time></trkpt><trkpt lat="44.7280822" lon="8.6915167"><ele>179.0</ele><time>2026-04-18T09:38:56.019Z</time></trkpt><trkpt lat="44.7280465" lon="8.6916536"><ele>179.0</ele><time>2026-04-18T09:38:57.019Z</time></trkpt><trkpt lat="44.7280104" lon="8.6918086"><ele>179.0</ele><time>2026-04-18T09:38:58.018Z</time></trkpt><trkpt lat="44.7279697" lon="8.6919692"><ele>179.0</ele><time>2026-04-18T09:38:59.018Z</time></trkpt><trkpt lat="44.727929" lon="8.6921369"><ele>179.0</ele><time>2026-04-18T09:39:00.019Z</time></trkpt><trkpt lat="44.7278873" lon="8.6923068"><ele>179.0</ele><time>2026-04-18T09:39:01.019Z</time></trkpt><trkpt lat="44.7278407" lon="8.6924814"><ele>179.0</ele><time>2026-04-18T09:39:02.019Z</time></trkpt><trkpt lat="44.7277913" lon="8.6926569"><ele>179.0</ele><time>2026-04-18T09:39:03.018Z</time></trkpt><trkpt lat="44.7277452" lon="8.6928356"><ele>179.0</ele><time>2026-04-18T09:39:04.019Z</time></trkpt><trkpt lat="44.7277005" lon="8.6930194"><ele>179.75</ele><time>2026-04-18T09:39:05.019Z</time></trkpt><trkpt lat="44.7276561" lon="8.6932032"><ele>180.5</ele><time>2026-04-18T09:39:06.018Z</time></trkpt><trkpt lat="44.727609" lon="8.6933919"><ele>181.25</ele><time>2026-04-18T09:39:07.019Z</time></trkpt><trkpt lat="44.7275585" lon="8.6935863"><ele>182.0</ele><time>2026-04-18T09:39:08.019Z</time></trkpt><trkpt lat="44.7275076" lon="8.6937808"><ele>182.66666666666666</ele><time>2026-04-18T09:39:09.019Z</time></trkpt><trkpt lat="44.7274568" lon="8.6939797"><ele>183.33333333333334</ele><time>2026-04-18T09:39:10.018Z</time></trkpt><trkpt lat="44.7274066" lon="8.6941797"><ele>184.0</ele><time>2026-04-18T09:39:11.018Z</time></trkpt><trkpt lat="44.7273565" lon="8.6943786"><ele>184.75</ele><time>2026-04-18T09:39:12.018Z</time></trkpt><trkpt lat="44.727312" lon="8.6945636"><ele>185.5</ele><time>2026-04-18T09:39:13.019Z</time></trkpt><trkpt lat="44.72727" lon="8.6947301"><ele>186.25</ele><time>2026-04-18T09:39:14.019Z</time></trkpt><trkpt lat="44.7272317" lon="8.6948819"><ele>187.0</ele><time>2026-04-18T09:39:15.018Z</time></trkpt><trkpt lat="44.7272011" lon="8.6950163"><ele>187.0</ele><time>2026-04-18T09:39:16.019Z</time></trkpt><trkpt lat="44.7271712" lon="8.6951394"><ele>187.0</ele><time>2026-04-18T09:39:17.018Z</time></trkpt><trkpt lat="44.7271411" lon="8.69526"><ele>187.0</ele><time>2026-04-18T09:39:18.019Z</time></trkpt><trkpt lat="44.7271096" lon="8.695385"><ele>187.0</ele><time>2026-04-18T09:39:19.018Z</time></trkpt><trkpt lat="44.7270817" lon="8.6955136"><ele>187.0</ele><time>2026-04-18T09:39:20.019Z</time></trkpt><trkpt lat="44.7270559" lon="8.6956518"><ele>188.39999999999998</ele><time>2026-04-18T09:39:21.018Z</time></trkpt><trkpt lat="44.7270299" lon="8.6957907"><ele>189.79999999999998</ele><time>2026-04-18T09:39:22.018Z</time></trkpt><trkpt lat="44.7270017" lon="8.6959376"><ele>191.2</ele><time>2026-04-18T09:39:23.018Z</time></trkpt><trkpt lat="44.7269736" lon="8.6960946"><ele>192.6</ele><time>2026-04-18T09:39:24.019Z</time></trkpt><trkpt lat="44.7269386" lon="8.6962585"><ele>194.0</ele><time>2026-04-18T09:39:25.018Z</time></trkpt><trkpt lat="44.7268987" lon="8.6964345"><ele>196.25</ele><time>2026-04-18T09:39:26.019Z</time></trkpt><trkpt lat="44.7268579" lon="8.6966165"><ele>198.5</ele><time>2026-04-18T09:39:27.018Z</time></trkpt><trkpt lat="44.7268173" lon="8.6968014"><ele>200.75</ele><time>2026-04-18T09:39:28.019Z</time></trkpt><trkpt lat="44.7267762" lon="8.6969905"><ele>203.0</ele><time>2026-04-18T09:39:29.019Z</time></trkpt><trkpt lat="44.7267343" lon="8.6971857"><ele>204.5</ele><time>2026-04-18T09:39:30.018Z</time></trkpt><trkpt lat="44.7266901" lon="8.6973812"><ele>206.0</ele><time>2026-04-18T09:39:31.019Z</time></trkpt><trkpt lat="44.7266462" lon="8.6975796"><ele>207.5</ele><time>2026-04-18T09:39:32.019Z</time></trkpt><trkpt lat="44.7266053" lon="8.6977719"><ele>209.0</ele><time>2026-04-18T09:39:33.019Z</time></trkpt><trkpt lat="44.7265654" lon="8.6979531"><ele>210.0</ele><time>2026-04-18T09:39:34.019Z</time></trkpt><trkpt lat="44.7265317" lon="8.69812"><ele>211.0</ele><time>2026-04-18T09:39:35.019Z</time></trkpt><trkpt lat="44.7264969" lon="8.6982778"><ele>211.99999999999997</ele><time>2026-04-18T09:39:36.018Z</time></trkpt><trkpt lat="44.7264585" lon="8.6984205"><ele>213.0</ele><time>2026-04-18T09:39:37.019Z</time></trkpt><trkpt lat="44.7264172" lon="8.6985382"><ele>214.0</ele><time>2026-04-18T09:39:38.019Z</time></trkpt><trkpt lat="44.7263812" lon="8.6986237"><ele>214.16666666666666</ele><time>2026-04-18T09:39:39.018Z</time></trkpt><trkpt lat="44.726333" lon="8.6987436"><ele>214.33333333333331</ele><time>2026-04-18T09:39:41.019Z</time></trkpt><trkpt lat="44.7263231" lon="8.6988883"><ele>214.5</ele><time>2026-04-18T09:39:43.019Z</time></trkpt><trkpt lat="44.7263453" lon="8.6989781"><ele>214.66666666666669</ele><time>2026-04-18T09:39:44.019Z</time></trkpt><trkpt lat="44.7263771" lon="8.6990891"><ele>214.83333333333334</ele><time>2026-04-18T09:39:45.019Z</time></trkpt><trkpt lat="44.7264058" lon="8.6992047"><ele>215.0</ele><time>2026-04-18T09:39:46.018Z</time></trkpt><trkpt lat="44.7264291" lon="8.6993083"><ele>215.0</ele><time>2026-04-18T09:39:47.018Z</time></trkpt><trkpt lat="44.7264474" lon="8.6994113"><ele>215.0</ele><time>2026-04-18T09:39:48.019Z</time></trkpt><trkpt lat="44.7264644" lon="8.6995112"><ele>215.0</ele><time>2026-04-18T09:39:49.019Z</time></trkpt><trkpt lat="44.726477" lon="8.6996111"><ele>215.0</ele><time>2026-04-18T09:39:50.019Z</time></trkpt><trkpt lat="44.7264901" lon="8.6997119"><ele>215.0</ele><time>2026-04-18T09:39:51.018Z</time></trkpt><trkpt lat="44.7265028" lon="8.6998156"><ele>215.0</ele><time>2026-04-18T09:39:52.018Z</time></trkpt><trkpt lat="44.7265152" lon="8.6999227"><ele>215.0</ele><time>2026-04-18T09:39:53.019Z</time></trkpt><trkpt lat="44.7265281" lon="8.7000344"><ele>215.2</ele><time>2026-04-18T09:39:54.019Z</time></trkpt><trkpt lat="44.7265421" lon="8.7001537"><ele>215.4</ele><time>2026-04-18T09:39:55.019Z</time></trkpt><trkpt lat="44.7265552" lon="8.7002791"><ele>215.60000000000002</ele><time>2026-04-18T09:39:56.019Z</time></trkpt><trkpt lat="44.7265679" lon="8.7004121"><ele>215.8</ele><time>2026-04-18T09:39:57.019Z</time></trkpt><trkpt lat="44.7265819" lon="8.7005519"><ele>216.0</ele><time>2026-04-18T09:39:58.019Z</time></trkpt><trkpt lat="44.7265954" lon="8.7007031"><ele>216.0</ele><time>2026-04-18T09:39:59.018Z</time></trkpt><trkpt lat="44.7266086" lon="8.7008674"><ele>216.0</ele><time>2026-04-18T09:40:00.019Z</time></trkpt><trkpt lat="44.726622" lon="8.7010411"><ele>216.0</ele><time>2026-04-18T09:40:01.018Z</time></trkpt><trkpt lat="44.7266357" lon="8.7012252"><ele>216.0</ele><time>2026-04-18T09:40:02.018Z</time></trkpt><trkpt lat="44.7266491" lon="8.7014131"><ele>216.0</ele><time>2026-04-18T09:40:03.018Z</time></trkpt><trkpt lat="44.7266654" lon="8.7015955"><ele>216.0</ele><time>2026-04-18T09:40:04.018Z</time></trkpt><trkpt lat="44.7266811" lon="8.7017729"><ele>216.0</ele><time>2026-04-18T09:40:05.018Z</time></trkpt><trkpt lat="44.7266985" lon="8.7019439"><ele>216.0</ele><time>2026-04-18T09:40:06.019Z</time></trkpt><trkpt lat="44.7267129" lon="8.7021148"><ele>215.5</ele><time>2026-04-18T09:40:07.019Z</time></trkpt><trkpt lat="44.726719" lon="8.7022866"><ele>215.0</ele><time>2026-04-18T09:40:08.019Z</time></trkpt><trkpt lat="44.7267115" lon="8.702468"><ele>214.5</ele><time>2026-04-18T09:40:09.019Z</time></trkpt><trkpt lat="44.7266949" lon="8.7026569"><ele>214.0</ele><time>2026-04-18T09:40:10.019Z</time></trkpt><trkpt lat="44.726676" lon="8.7028554"><ele>212.5</ele><time>2026-04-18T09:40:11.019Z</time></trkpt><trkpt lat="44.7266553" lon="8.7030591"><ele>211.0</ele><time>2026-04-18T09:40:12.019Z</time></trkpt><trkpt lat="44.7266346" lon="8.7032579"><ele>209.5</ele><time>2026-04-18T09:40:13.018Z</time></trkpt><trkpt lat="44.7266126" lon="8.7034562"><ele>208.0</ele><time>2026-04-18T09:40:14.018Z</time></trkpt><trkpt lat="44.7265902" lon="8.703653"><ele>206.25</ele><time>2026-04-18T09:40:15.019Z</time></trkpt><trkpt lat="44.7265675" lon="8.7038493"><ele>204.5</ele><time>2026-04-18T09:40:16.019Z</time></trkpt><trkpt lat="44.7265518" lon="8.7040458"><ele>202.75</ele><time>2026-04-18T09:40:17.019Z</time></trkpt><trkpt lat="44.7265461" lon="8.7042387"><ele>201.0</ele><time>2026-04-18T09:40:18.019Z</time></trkpt><trkpt lat="44.7265626" lon="8.7044311"><ele>200.0</ele><time>2026-04-18T09:40:19.019Z</time></trkpt><trkpt lat="44.7266041" lon="8.7046199"><ele>199.0</ele><time>2026-04-18T09:40:20.019Z</time></trkpt><trkpt lat="44.7266734" lon="8.7047973"><ele>198.0</ele><time>2026-04-18T09:40:21.019Z</time></trkpt><trkpt lat="44.7267682" lon="8.7049594"><ele>197.0</ele><time>2026-04-18T09:40:22.018Z</time></trkpt><trkpt lat="44.7268703" lon="8.7051231"><ele>194.33333333333334</ele><time>2026-04-18T09:40:23.018Z</time></trkpt><trkpt lat="44.726976" lon="8.7052836"><ele>191.66666666666669</ele><time>2026-04-18T09:40:24.019Z</time></trkpt><trkpt lat="44.7270856" lon="8.7054431"><ele>189.0</ele><time>2026-04-18T09:40:25.019Z</time></trkpt><trkpt lat="44.7271991" lon="8.7056054"><ele>189.0</ele><time>2026-04-18T09:40:26.018Z</time></trkpt><trkpt lat="44.7273155" lon="8.7057675"><ele>189.0</ele><time>2026-04-18T09:40:27.019Z</time></trkpt><trkpt lat="44.7274342" lon="8.7059304"><ele>189.0</ele><time>2026-04-18T09:40:28.019Z</time></trkpt><trkpt lat="44.7275517" lon="8.7060922"><ele>189.66666666666666</ele><time>2026-04-18T09:40:29.019Z</time></trkpt><trkpt lat="44.7276661" lon="8.7062487"><ele>190.33333333333331</ele><time>2026-04-18T09:40:30.019Z</time></trkpt><trkpt lat="44.7277757" lon="8.7064004"><ele>191.0</ele><time>2026-04-18T09:40:31.018Z</time></trkpt><trkpt lat="44.7278803" lon="8.7065496"><ele>191.25</ele><time>2026-04-18T09:40:32.018Z</time></trkpt><trkpt lat="44.72798" lon="8.7066951"><ele>191.5</ele><time>2026-04-18T09:40:33.018Z</time></trkpt><trkpt lat="44.7280707" lon="8.7068345"><ele>191.75</ele><time>2026-04-18T09:40:34.019Z</time></trkpt><trkpt lat="44.728157" lon="8.7069715"><ele>192.0</ele><time>2026-04-18T09:40:35.018Z</time></trkpt><trkpt lat="44.7282459" lon="8.7070963"><ele>192.0</ele><time>2026-04-18T09:40:36.018Z</time></trkpt><trkpt lat="44.7283266" lon="8.7072203"><ele>192.0</ele><time>2026-04-18T09:40:37.018Z</time></trkpt><trkpt lat="44.7283968" lon="8.7073523"><ele>192.0</ele><time>2026-04-18T09:40:38.018Z</time></trkpt><trkpt lat="44.728453" lon="8.7075012"><ele>192.0</ele><time>2026-04-18T09:40:39.019Z</time></trkpt><trkpt lat="44.7284849" lon="8.7076602"><ele>193.75</ele><time>2026-04-18T09:40:40.019Z</time></trkpt><trkpt lat="44.7284958" lon="8.7078259"><ele>195.5</ele><time>2026-04-18T09:40:41.019Z</time></trkpt><trkpt lat="44.728488" lon="8.7080037"><ele>197.25</ele><time>2026-04-18T09:40:42.019Z</time></trkpt><trkpt lat="44.7284622" lon="8.708194"><ele>199.0</ele><time>2026-04-18T09:40:43.018Z</time></trkpt><trkpt lat="44.7284249" lon="8.7083924"><ele>201.25</ele><time>2026-04-18T09:40:44.018Z</time></trkpt><trkpt lat="44.7283864" lon="8.7085846"><ele>203.5</ele><time>2026-04-18T09:40:45.019Z</time></trkpt><trkpt lat="44.7283484" lon="8.7087715"><ele>205.75</ele><time>2026-04-18T09:40:46.019Z</time></trkpt><trkpt lat="44.7283148" lon="8.7089576"><ele>208.0</ele><time>2026-04-18T09:40:47.019Z</time></trkpt><trkpt lat="44.7282725" lon="8.7091404"><ele>208.0</ele><time>2026-04-18T09:40:48.019Z</time></trkpt><trkpt lat="44.7282306" lon="8.7093238"><ele>208.0</ele><time>2026-04-18T09:40:49.019Z</time></trkpt><trkpt lat="44.7281817" lon="8.7095057"><ele>208.0</ele><time>2026-04-18T09:40:50.018Z</time></trkpt><trkpt lat="44.7281285" lon="8.7096826"><ele>208.0</ele><time>2026-04-18T09:40:51.018Z</time></trkpt><trkpt lat="44.7280746" lon="8.7098526"><ele>209.5</ele><time>2026-04-18T09:40:52.019Z</time></trkpt><trkpt lat="44.7280246" lon="8.7100135"><ele>211.0</ele><time>2026-04-18T09:40:53.018Z</time></trkpt><trkpt lat="44.7279766" lon="8.7101642"><ele>212.5</ele><time>2026-04-18T09:40:54.018Z</time></trkpt><trkpt lat="44.7279329" lon="8.7103081"><ele>214.0</ele><time>2026-04-18T09:40:55.019Z</time></trkpt><trkpt lat="44.7278934" lon="8.7104438"><ele>215.0</ele><time>2026-04-18T09:40:56.019Z</time></trkpt><trkpt lat="44.7278603" lon="8.7105717"><ele>215.99999999999997</ele><time>2026-04-18T09:40:57.019Z</time></trkpt><trkpt lat="44.727843" lon="8.7106944"><ele>216.99999999999997</ele><time>2026-04-18T09:40:58.019Z</time></trkpt><trkpt lat="44.7278498" lon="8.7108194"><ele>218.0</ele><time>2026-04-18T09:40:59.018Z</time></trkpt><trkpt lat="44.7278768" lon="8.7109565"><ele>219.0</ele><time>2026-04-18T09:41:00.019Z</time></trkpt><trkpt lat="44.7279134" lon="8.7110971"><ele>219.2</ele><time>2026-04-18T09:41:01.019Z</time></trkpt><trkpt lat="44.7279506" lon="8.7112394"><ele>219.39999999999998</ele><time>2026-04-18T09:41:02.018Z</time></trkpt><trkpt lat="44.727987" lon="8.7113825"><ele>219.6</ele><time>2026-04-18T09:41:03.018Z</time></trkpt><trkpt lat="44.7280242" lon="8.7115219"><ele>219.8</ele><time>2026-04-18T09:41:04.019Z</time></trkpt><trkpt lat="44.728058" lon="8.7116519"><ele>220.0</ele><time>2026-04-18T09:41:05.018Z</time></trkpt><trkpt lat="44.7280886" lon="8.7117771"><ele>219.99999999999997</ele><time>2026-04-18T09:41:06.019Z</time></trkpt><trkpt lat="44.7281126" lon="8.7118982"><ele>220.0</ele><time>2026-04-18T09:41:07.018Z</time></trkpt><trkpt lat="44.7281326" lon="8.7120152"><ele>220.0</ele><time>2026-04-18T09:41:08.019Z</time></trkpt><trkpt lat="44.7281522" lon="8.7121244"><ele>220.0</ele><time>2026-04-18T09:41:09.019Z</time></trkpt><trkpt lat="44.7281691" lon="8.7122203"><ele>219.99999999999997</ele><time>2026-04-18T09:41:10.019Z</time></trkpt><trkpt lat="44.7281811" lon="8.712373"><ele>220.0</ele><time>2026-04-18T09:41:12.018Z</time></trkpt><trkpt lat="44.7281313" lon="8.7124806"><ele>220.0</ele><time>2026-04-18T09:41:14.018Z</time></trkpt><trkpt lat="44.7280137" lon="8.7125559"><ele>220.0</ele><time>2026-04-18T09:41:16.018Z</time></trkpt><trkpt lat="44.7279287" lon="8.7125888"><ele>220.0</ele><time>2026-04-18T09:41:17.019Z</time></trkpt><trkpt lat="44.7278322" lon="8.7126327"><ele>220.0</ele><time>2026-04-18T09:41:18.019Z</time></trkpt><trkpt lat="44.7277295" lon="8.7126891"><ele>220.0</ele><time>2026-04-18T09:41:19.018Z</time></trkpt><trkpt lat="44.7276228" lon="8.7127556"><ele>219.5</ele><time>2026-04-18T09:41:20.019Z</time></trkpt><trkpt lat="44.727516" lon="8.7128407"><ele>219.0</ele><time>2026-04-18T09:41:21.018Z</time></trkpt><trkpt lat="44.7274146" lon="8.7129471"><ele>218.5</ele><time>2026-04-18T09:41:22.019Z</time></trkpt><trkpt lat="44.7273195" lon="8.7130688"><ele>218.0</ele><time>2026-04-18T09:41:23.019Z</time></trkpt><trkpt lat="44.7272276" lon="8.7131943"><ele>218.0</ele><time>2026-04-18T09:41:24.019Z</time></trkpt><trkpt lat="44.7271396" lon="8.7133189"><ele>218.0</ele><time>2026-04-18T09:41:25.019Z</time></trkpt><trkpt lat="44.7270535" lon="8.7134455"><ele>218.0</ele><time>2026-04-18T09:41:26.019Z</time></trkpt><trkpt lat="44.7269616" lon="8.7135718"><ele>218.0</ele><time>2026-04-18T09:41:27.018Z</time></trkpt><trkpt lat="44.7268596" lon="8.713695"><ele>218.25</ele><time>2026-04-18T09:41:28.018Z</time></trkpt><trkpt lat="44.7267573" lon="8.7138203"><ele>218.5</ele><time>2026-04-18T09:41:29.019Z</time></trkpt><trkpt lat="44.72665" lon="8.7139481"><ele>218.75</ele><time>2026-04-18T09:41:30.018Z</time></trkpt><trkpt lat="44.726542" lon="8.714073"><ele>219.0</ele><time>2026-04-18T09:41:31.018Z</time></trkpt><trkpt lat="44.7264359" lon="8.7141984"><ele>219.0</ele><time>2026-04-18T09:41:32.019Z</time></trkpt><trkpt lat="44.7263289" lon="8.7143265"><ele>219.0</ele><time>2026-04-18T09:41:33.019Z</time></trkpt><trkpt lat="44.726226" lon="8.7144574"><ele>219.0</ele><time>2026-04-18T09:41:34.018Z</time></trkpt><trkpt lat="44.726126" lon="8.7145868"><ele>219.0</ele><time>2026-04-18T09:41:35.019Z</time></trkpt><trkpt lat="44.7260239" lon="8.7147186"><ele>219.0</ele><time>2026-04-18T09:41:36.018Z</time></trkpt><trkpt lat="44.7259252" lon="8.7148525"><ele>219.0</ele><time>2026-04-18T09:41:37.019Z</time></trkpt><trkpt lat="44.725828" lon="8.7149873"><ele>219.0</ele><time>2026-04-18T09:41:38.019Z</time></trkpt><trkpt lat="44.7257344" lon="8.7151199"><ele>219.0</ele><time>2026-04-18T09:41:39.018Z</time></trkpt><trkpt lat="44.7256399" lon="8.7152514"><ele>219.0</ele><time>2026-04-18T09:41:40.019Z</time></trkpt><trkpt lat="44.725544" lon="8.7153814"><ele>219.0</ele><time>2026-04-18T09:41:41.018Z</time></trkpt><trkpt lat="44.7254484" lon="8.7155086"><ele>219.0</ele><time>2026-04-18T09:41:42.019Z</time></trkpt><trkpt lat="44.7253536" lon="8.71564"><ele>219.0</ele><time>2026-04-18T09:41:43.019Z</time></trkpt><trkpt lat="44.7252635" lon="8.7157763"><ele>219.0</ele><time>2026-04-18T09:41:44.019Z</time></trkpt><trkpt lat="44.7251787" lon="8.7159189"><ele>219.0</ele><time>2026-04-18T09:41:45.018Z</time></trkpt><trkpt lat="44.7250984" lon="8.7160712"><ele>219.0</ele><time>2026-04-18T09:41:46.019Z</time></trkpt><trkpt lat="44.7250191" lon="8.7162299"><ele>219.0</ele><time>2026-04-18T09:41:47.019Z</time></trkpt><trkpt lat="44.7249399" lon="8.7163966"><ele>219.75</ele><time>2026-04-18T09:41:48.018Z</time></trkpt><trkpt lat="44.7248622" lon="8.716567"><ele>220.5</ele><time>2026-04-18T09:41:49.018Z</time></trkpt><trkpt lat="44.7247926" lon="8.7167419"><ele>221.25</ele><time>2026-04-18T09:41:50.017Z</time></trkpt><trkpt lat="44.7247287" lon="8.7169226"><ele>222.0</ele><time>2026-04-18T09:41:51.019Z</time></trkpt><trkpt lat="44.7246732" lon="8.7171136"><ele>222.0</ele><time>2026-04-18T09:41:52.019Z</time></trkpt><trkpt lat="44.7246184" lon="8.7173089"><ele>222.0</ele><time>2026-04-18T09:41:53.018Z</time></trkpt><trkpt lat="44.7245605" lon="8.717503"><ele>222.0</ele><time>2026-04-18T09:41:54.019Z</time></trkpt><trkpt lat="44.7245016" lon="8.7176924"><ele>222.0</ele><time>2026-04-18T09:41:55.018Z</time></trkpt><trkpt lat="44.7244379" lon="8.7178797"><ele>223.5</ele><time>2026-04-18T09:41:56.018Z</time></trkpt><trkpt lat="44.7243728" lon="8.7180573"><ele>225.0</ele><time>2026-04-18T09:41:57.018Z</time></trkpt><trkpt lat="44.7242983" lon="8.7182201"><ele>226.5</ele><time>2026-04-18T09:41:58.019Z</time></trkpt><trkpt lat="44.7242113" lon="8.7183684"><ele>228.0</ele><time>2026-04-18T09:41:59.018Z</time></trkpt><trkpt lat="44.7241136" lon="8.7185032"><ele>228.0</ele><time>2026-04-18T09:42:00.019Z</time></trkpt><trkpt lat="44.7240124" lon="8.7186302"><ele>228.0</ele><time>2026-04-18T09:42:01.019Z</time></trkpt><trkpt lat="44.7238993" lon="8.7187524"><ele>228.0</ele><time>2026-04-18T09:42:02.018Z</time></trkpt><trkpt lat="44.7237801" lon="8.7188691"><ele>228.0</ele><time>2026-04-18T09:42:03.019Z</time></trkpt><trkpt lat="44.7236562" lon="8.7189909"><ele>228.66666666666669</ele><time>2026-04-18T09:42:04.019Z</time></trkpt><trkpt lat="44.7235338" lon="8.7191238"><ele>229.33333333333334</ele><time>2026-04-18T09:42:05.018Z</time></trkpt><trkpt lat="44.723411" lon="8.7192648"><ele>230.0</ele><time>2026-04-18T09:42:06.019Z</time></trkpt><trkpt lat="44.7232899" lon="8.7194098"><ele>230.0</ele><time>2026-04-18T09:42:07.018Z</time></trkpt><trkpt lat="44.7231669" lon="8.7195555"><ele>230.0</ele><time>2026-04-18T09:42:08.019Z</time></trkpt><trkpt lat="44.7230395" lon="8.7196965"><ele>230.0</ele><time>2026-04-18T09:42:09.019Z</time></trkpt><trkpt lat="44.7229096" lon="8.7198286"><ele>230.0</ele><time>2026-04-18T09:42:10.018Z</time></trkpt><trkpt lat="44.7227828" lon="8.719959"><ele>230.0</ele><time>2026-04-18T09:42:11.019Z</time></trkpt><trkpt lat="44.7226544" lon="8.7200843"><ele>230.0</ele><time>2026-04-18T09:42:12.018Z</time></trkpt><trkpt lat="44.7225212" lon="8.7202067"><ele>230.0</ele><time>2026-04-18T09:42:13.019Z</time></trkpt><trkpt lat="44.7223813" lon="8.7203253"><ele>230.0</ele><time>2026-04-18T09:42:14.019Z</time></trkpt><trkpt lat="44.7222355" lon="8.720436"><ele>230.0</ele><time>2026-04-18T09:42:15.019Z</time></trkpt><trkpt lat="44.7220852" lon="8.7205369"><ele>230.0</ele><time>2026-04-18T09:42:16.018Z</time></trkpt><trkpt lat="44.7219385" lon="8.7206319"><ele>230.0</ele><time>2026-04-18T09:42:17.019Z</time></trkpt><trkpt lat="44.7217973" lon="8.72073"><ele>230.0</ele><time>2026-04-18T09:42:18.018Z</time></trkpt><trkpt lat="44.7216654" lon="8.7208369"><ele>230.25</ele><time>2026-04-18T09:42:19.019Z</time></trkpt><trkpt lat="44.721546" lon="8.7209533"><ele>230.5</ele><time>2026-04-18T09:42:20.018Z</time></trkpt><trkpt lat="44.7214289" lon="8.7210836"><ele>230.75</ele><time>2026-04-18T09:42:21.018Z</time></trkpt><trkpt lat="44.7213109" lon="8.721219"><ele>231.0</ele><time>2026-04-18T09:42:22.018Z</time></trkpt><trkpt lat="44.7211899" lon="8.7213516"><ele>231.0</ele><time>2026-04-18T09:42:23.018Z</time></trkpt><trkpt lat="44.7210709" lon="8.721483"><ele>231.0</ele><time>2026-04-18T09:42:24.018Z</time></trkpt><trkpt lat="44.7209586" lon="8.7216159"><ele>231.0</ele><time>2026-04-18T09:42:25.018Z</time></trkpt><trkpt lat="44.720851" lon="8.7217425"><ele>231.0</ele><time>2026-04-18T09:42:26.019Z</time></trkpt><trkpt lat="44.7207425" lon="8.7218513"><ele>230.75</ele><time>2026-04-18T09:42:27.019Z</time></trkpt><trkpt lat="44.7206274" lon="8.7219413"><ele>230.5</ele><time>2026-04-18T09:42:28.018Z</time></trkpt><trkpt lat="44.7204966" lon="8.7220137"><ele>230.25</ele><time>2026-04-18T09:42:29.018Z</time></trkpt><trkpt lat="44.7203545" lon="8.7220799"><ele>230.0</ele><time>2026-04-18T09:42:30.019Z</time></trkpt><trkpt lat="44.7202048" lon="8.7221426"><ele>231.0</ele><time>2026-04-18T09:42:31.018Z</time></trkpt><trkpt lat="44.7200528" lon="8.7222043"><ele>232.0</ele><time>2026-04-18T09:42:32.019Z</time></trkpt><trkpt lat="44.7198986" lon="8.7222649"><ele>233.0</ele><time>2026-04-18T09:42:33.019Z</time></trkpt><trkpt lat="44.719741" lon="8.72232"><ele>233.0</ele><time>2026-04-18T09:42:34.019Z</time></trkpt><trkpt lat="44.7195831" lon="8.7223772"><ele>233.0</ele><time>2026-04-18T09:42:35.018Z</time></trkpt><trkpt lat="44.7194267" lon="8.7224348"><ele>233.0</ele><time>2026-04-18T09:42:36.019Z</time></trkpt><trkpt lat="44.7192738" lon="8.7224923"><ele>233.66666666666669</ele><time>2026-04-18T09:42:37.019Z</time></trkpt><trkpt lat="44.7191208" lon="8.7225597"><ele>234.33333333333331</ele><time>2026-04-18T09:42:38.018Z</time></trkpt><trkpt lat="44.718973" lon="8.7226507"><ele>235.0</ele><time>2026-04-18T09:42:39.019Z</time></trkpt><trkpt lat="44.7188303" lon="8.7227584"><ele>235.0</ele><time>2026-04-18T09:42:40.019Z</time></trkpt><trkpt lat="44.7186879" lon="8.7228764"><ele>235.0</ele><time>2026-04-18T09:42:41.019Z</time></trkpt><trkpt lat="44.7185457" lon="8.7229907"><ele>235.0</ele><time>2026-04-18T09:42:42.019Z</time></trkpt><trkpt lat="44.7184045" lon="8.7231036"><ele>236.66666666666666</ele><time>2026-04-18T09:42:43.019Z</time></trkpt><trkpt lat="44.7182665" lon="8.7232155"><ele>238.33333333333331</ele><time>2026-04-18T09:42:44.019Z</time></trkpt><trkpt lat="44.7181286" lon="8.7233307"><ele>240.0</ele><time>2026-04-18T09:42:45.018Z</time></trkpt><trkpt lat="44.717993" lon="8.7234416"><ele>240.0</ele><time>2026-04-18T09:42:46.018Z</time></trkpt><trkpt lat="44.7178599" lon="8.7235496"><ele>240.0</ele><time>2026-04-18T09:42:47.019Z</time></trkpt><trkpt lat="44.7177303" lon="8.7236571"><ele>240.0</ele><time>2026-04-18T09:42:48.018Z</time></trkpt><trkpt lat="44.7175982" lon="8.7237659"><ele>240.66666666666669</ele><time>2026-04-18T09:42:49.017Z</time></trkpt><trkpt lat="44.7174645" lon="8.7238765"><ele>241.33333333333334</ele><time>2026-04-18T09:42:50.019Z</time></trkpt><trkpt lat="44.7173313" lon="8.723985"><ele>242.0</ele><time>2026-04-18T09:42:51.018Z</time></trkpt><trkpt lat="44.7171987" lon="8.7240951"><ele>242.0</ele><time>2026-04-18T09:42:52.019Z</time></trkpt><trkpt lat="44.7170635" lon="8.7242033"><ele>242.0</ele><time>2026-04-18T09:42:53.019Z</time></trkpt><trkpt lat="44.7169267" lon="8.7243089"><ele>242.0</ele><time>2026-04-18T09:42:54.018Z</time></trkpt><trkpt lat="44.7167807" lon="8.7244061"><ele>242.33333333333334</ele><time>2026-04-18T09:42:55.019Z</time></trkpt><trkpt lat="44.716626" lon="8.7244906"><ele>242.66666666666669</ele><time>2026-04-18T09:42:56.018Z</time></trkpt><trkpt lat="44.716469" lon="8.7245702"><ele>243.0</ele><time>2026-04-18T09:42:57.019Z</time></trkpt><trkpt lat="44.7163122" lon="8.7246476"><ele>243.0</ele><time>2026-04-18T09:42:58.019Z</time></trkpt><trkpt lat="44.7161533" lon="8.7247219"><ele>243.0</ele><time>2026-04-18T09:42:59.019Z</time></trkpt><trkpt lat="44.7159934" lon="8.7247937"><ele>243.0</ele><time>2026-04-18T09:43:00.018Z</time></trkpt><trkpt lat="44.7158305" lon="8.7248656"><ele>244.33333333333331</ele><time>2026-04-18T09:43:01.019Z</time></trkpt><trkpt lat="44.7156732" lon="8.7249389"><ele>245.66666666666666</ele><time>2026-04-18T09:43:02.019Z</time></trkpt><trkpt lat="44.7155206" lon="8.7250166"><ele>247.0</ele><time>2026-04-18T09:43:03.018Z</time></trkpt><trkpt lat="44.7153712" lon="8.725099"><ele>247.33333333333331</ele><time>2026-04-18T09:43:04.019Z</time></trkpt><trkpt lat="44.7152282" lon="8.725183"><ele>247.66666666666669</ele><time>2026-04-18T09:43:05.019Z</time></trkpt><trkpt lat="44.7150881" lon="8.7252669"><ele>248.0</ele><time>2026-04-18T09:43:06.019Z</time></trkpt><trkpt lat="44.7149472" lon="8.7253497"><ele>248.0</ele><time>2026-04-18T09:43:07.019Z</time></trkpt><trkpt lat="44.7148035" lon="8.7254307"><ele>248.0</ele><time>2026-04-18T09:43:08.018Z</time></trkpt><trkpt lat="44.7146549" lon="8.725502"><ele>248.0</ele><time>2026-04-18T09:43:09.018Z</time></trkpt><trkpt lat="44.7145044" lon="8.7255662"><ele>249.0</ele><time>2026-04-18T09:43:10.019Z</time></trkpt><trkpt lat="44.7143525" lon="8.7256259"><ele>250.0</ele><time>2026-04-18T09:43:11.019Z</time></trkpt><trkpt lat="44.7142021" lon="8.7256826"><ele>251.0</ele><time>2026-04-18T09:43:12.019Z</time></trkpt><trkpt lat="44.7140513" lon="8.7257354"><ele>251.0</ele><time>2026-04-18T09:43:13.019Z</time></trkpt><trkpt lat="44.7139015" lon="8.7257794"><ele>251.0</ele><time>2026-04-18T09:43:14.018Z</time></trkpt><trkpt lat="44.7137533" lon="8.7258259"><ele>251.0</ele><time>2026-04-18T09:43:15.019Z</time></trkpt><trkpt lat="44.713606" lon="8.7258922"><ele>250.66666666666669</ele><time>2026-04-18T09:43:16.019Z</time></trkpt><trkpt lat="44.7134624" lon="8.7259884"><ele>250.33333333333331</ele><time>2026-04-18T09:43:17.019Z</time></trkpt><trkpt lat="44.7133196" lon="8.7261099"><ele>250.0</ele><time>2026-04-18T09:43:18.018Z</time></trkpt><trkpt lat="44.7131764" lon="8.7262468"><ele>249.66666666666666</ele><time>2026-04-18T09:43:19.019Z</time></trkpt><trkpt lat="44.7130317" lon="8.7263858"><ele>249.33333333333331</ele><time>2026-04-18T09:43:20.018Z</time></trkpt><trkpt lat="44.7128856" lon="8.726527"><ele>249.0</ele><time>2026-04-18T09:43:21.018Z</time></trkpt><trkpt lat="44.7127408" lon="8.7266679"><ele>250.33333333333331</ele><time>2026-04-18T09:43:22.019Z</time></trkpt><trkpt lat="44.7125955" lon="8.7268112"><ele>251.66666666666666</ele><time>2026-04-18T09:43:23.019Z</time></trkpt><trkpt lat="44.7124493" lon="8.7269532"><ele>253.0</ele><time>2026-04-18T09:43:24.018Z</time></trkpt><trkpt lat="44.7123056" lon="8.7270918"><ele>253.0</ele><time>2026-04-18T09:43:25.019Z</time></trkpt><trkpt lat="44.7121652" lon="8.727229"><ele>253.0</ele><time>2026-04-18T09:43:26.019Z</time></trkpt><trkpt lat="44.7120291" lon="8.7273658"><ele>253.0</ele><time>2026-04-18T09:43:27.019Z</time></trkpt><trkpt lat="44.7118905" lon="8.7274989"><ele>254.0</ele><time>2026-04-18T09:43:28.018Z</time></trkpt><trkpt lat="44.7117503" lon="8.7276335"><ele>255.0</ele><time>2026-04-18T09:43:29.019Z</time></trkpt><trkpt lat="44.7116096" lon="8.7277693"><ele>256.0</ele><time>2026-04-18T09:43:30.018Z</time></trkpt><trkpt lat="44.711469" lon="8.7279079"><ele>256.0</ele><time>2026-04-18T09:43:31.019Z</time></trkpt><trkpt lat="44.7113281" lon="8.7280422"><ele>256.0</ele><time>2026-04-18T09:43:32.018Z</time></trkpt><trkpt lat="44.7111894" lon="8.7281762"><ele>256.0</ele><time>2026-04-18T09:43:33.018Z</time></trkpt><trkpt lat="44.7110539" lon="8.7283074"><ele>255.66666666666666</ele><time>2026-04-18T09:43:34.019Z</time></trkpt><trkpt lat="44.7109184" lon="8.7284404"><ele>255.33333333333331</ele><time>2026-04-18T09:43:35.018Z</time></trkpt><trkpt lat="44.7107802" lon="8.7285764"><ele>255.0</ele><time>2026-04-18T09:43:36.018Z</time></trkpt><trkpt lat="44.7106396" lon="8.7287127"><ele>255.0</ele><time>2026-04-18T09:43:37.019Z</time></trkpt><trkpt lat="44.7104958" lon="8.7288494"><ele>255.0</ele><time>2026-04-18T09:43:38.018Z</time></trkpt><trkpt lat="44.7103508" lon="8.7289876"><ele>255.0</ele><time>2026-04-18T09:43:39.019Z</time></trkpt><trkpt lat="44.7102064" lon="8.7291264"><ele>255.33333333333331</ele><time>2026-04-18T09:43:40.019Z</time></trkpt><trkpt lat="44.7100637" lon="8.7292662"><ele>255.66666666666666</ele><time>2026-04-18T09:43:41.018Z</time></trkpt><trkpt lat="44.7099214" lon="8.7294075"><ele>256.0</ele><time>2026-04-18T09:43:42.019Z</time></trkpt><trkpt lat="44.709778" lon="8.7295487"><ele>256.3333333333333</ele><time>2026-04-18T09:43:43.018Z</time></trkpt><trkpt lat="44.7096362" lon="8.7296877"><ele>256.6666666666667</ele><time>2026-04-18T09:43:44.019Z</time></trkpt><trkpt lat="44.7094955" lon="8.7298268"><ele>257.0</ele><time>2026-04-18T09:43:45.019Z</time></trkpt><trkpt lat="44.709354" lon="8.7299643"><ele>257.0</ele><time>2026-04-18T09:43:46.019Z</time></trkpt><trkpt lat="44.7092134" lon="8.7301034"><ele>257.0</ele><time>2026-04-18T09:43:47.019Z</time></trkpt><trkpt lat="44.7090721" lon="8.7302427"><ele>257.0</ele><time>2026-04-18T09:43:48.019Z</time></trkpt><trkpt lat="44.7089327" lon="8.7303794"><ele>257.33333333333337</ele><time>2026-04-18T09:43:49.018Z</time></trkpt><trkpt lat="44.7087979" lon="8.7305132"><ele>257.6666666666667</ele><time>2026-04-18T09:43:50.019Z</time></trkpt><trkpt lat="44.7086662" lon="8.7306412"><ele>258.0</ele><time>2026-04-18T09:43:51.019Z</time></trkpt><trkpt lat="44.7085413" lon="8.7307616"><ele>258.0</ele><time>2026-04-18T09:43:52.018Z</time></trkpt><trkpt lat="44.7084265" lon="8.7308726"><ele>258.0</ele><time>2026-04-18T09:43:53.019Z</time></trkpt><trkpt lat="44.7083261" lon="8.7309691"><ele>258.0</ele><time>2026-04-18T09:43:54.018Z</time></trkpt><trkpt lat="44.7082369" lon="8.731052"><ele>258.0</ele><time>2026-04-18T09:43:55.018Z</time></trkpt><trkpt lat="44.7081634" lon="8.7311178"><ele>257.85714285714283</ele><time>2026-04-18T09:43:56.018Z</time></trkpt><trkpt lat="44.7081089" lon="8.7311712"><ele>257.7142857142857</ele><time>2026-04-18T09:43:57.019Z</time></trkpt><trkpt lat="44.7080533" lon="8.731227"><ele>257.57142857142856</ele><time>2026-04-18T09:43:59.019Z</time></trkpt><trkpt lat="44.7079971" lon="8.731295"><ele>257.42857142857144</ele><time>2026-04-18T09:44:01.019Z</time></trkpt><trkpt lat="44.7079479" lon="8.7313545"><ele>257.2857142857143</ele><time>2026-04-18T09:44:02.019Z</time></trkpt><trkpt lat="44.7079012" lon="8.7314178"><ele>257.1428571428571</ele><time>2026-04-18T09:44:03.019Z</time></trkpt><trkpt lat="44.7078567" lon="8.7314963"><ele>257.0</ele><time>2026-04-18T09:44:04.019Z</time></trkpt><trkpt lat="44.707811" lon="8.7315919"><ele>257.0</ele><time>2026-04-18T09:44:05.018Z</time></trkpt><trkpt lat="44.7077683" lon="8.7316992"><ele>257.0</ele><time>2026-04-18T09:44:06.019Z</time></trkpt><trkpt lat="44.7077386" lon="8.7318113"><ele>257.0</ele><time>2026-04-18T09:44:07.019Z</time></trkpt><trkpt lat="44.7077173" lon="8.7319338"><ele>257.0</ele><time>2026-04-18T09:44:08.019Z</time></trkpt><trkpt lat="44.7077022" lon="8.7320565"><ele>257.0</ele><time>2026-04-18T09:44:09.019Z</time></trkpt><trkpt lat="44.7076833" lon="8.7321761"><ele>257.0</ele><time>2026-04-18T09:44:10.019Z</time></trkpt><trkpt lat="44.7076589" lon="8.7322914"><ele>257.2</ele><time>2026-04-18T09:44:11.019Z</time></trkpt><trkpt lat="44.7076283" lon="8.7324067"><ele>257.4</ele><time>2026-04-18T09:44:12.018Z</time></trkpt><trkpt lat="44.7075826" lon="8.7325173"><ele>257.6</ele><time>2026-04-18T09:44:13.018Z</time></trkpt><trkpt lat="44.7075177" lon="8.7326166"><ele>257.8</ele><time>2026-04-18T09:44:14.018Z</time></trkpt><trkpt lat="44.7074349" lon="8.7327074"><ele>258.0</ele><time>2026-04-18T09:44:15.019Z</time></trkpt><trkpt lat="44.7073458" lon="8.7327787"><ele>258.0</ele><time>2026-04-18T09:44:16.018Z</time></trkpt><trkpt lat="44.7072469" lon="8.7328427"><ele>258.0</ele><time>2026-04-18T09:44:17.019Z</time></trkpt><trkpt lat="44.707143" lon="8.7329039"><ele>258.0</ele><time>2026-04-18T09:44:18.018Z</time></trkpt><trkpt lat="44.7070404" lon="8.7329636"><ele>258.0</ele><time>2026-04-18T09:44:19.019Z</time></trkpt><trkpt lat="44.7069353" lon="8.7330288"><ele>258.0</ele><time>2026-04-18T09:44:20.019Z</time></trkpt><trkpt lat="44.7068314" lon="8.7331032"><ele>258.75</ele><time>2026-04-18T09:44:21.019Z</time></trkpt><trkpt lat="44.7067309" lon="8.7331874"><ele>259.5</ele><time>2026-04-18T09:44:22.019Z</time></trkpt><trkpt lat="44.7066297" lon="8.7332761"><ele>260.25</ele><time>2026-04-18T09:44:23.019Z</time></trkpt><trkpt lat="44.7065246" lon="8.7333725"><ele>261.0</ele><time>2026-04-18T09:44:24.018Z</time></trkpt><trkpt lat="44.7064123" lon="8.7334737"><ele>261.25</ele><time>2026-04-18T09:44:25.018Z</time></trkpt><trkpt lat="44.7062942" lon="8.7335759"><ele>261.5</ele><time>2026-04-18T09:44:26.015Z</time></trkpt><trkpt lat="44.7061753" lon="8.733682"><ele>261.75</ele><time>2026-04-18T09:44:27.019Z</time></trkpt><trkpt lat="44.7060583" lon="8.7337891"><ele>262.0</ele><time>2026-04-18T09:44:28.018Z</time></trkpt><trkpt lat="44.7059424" lon="8.7338952"><ele>262.0</ele><time>2026-04-18T09:44:29.019Z</time></trkpt><trkpt lat="44.7058275" lon="8.7339975"><ele>262.0</ele><time>2026-04-18T09:44:30.018Z</time></trkpt><trkpt lat="44.7057166" lon="8.7341017"><ele>262.0</ele><time>2026-04-18T09:44:31.018Z</time></trkpt><trkpt lat="44.7056108" lon="8.7342062"><ele>262.0</ele><time>2026-04-18T09:44:32.019Z</time></trkpt><trkpt lat="44.7055167" lon="8.7343221"><ele>262.75</ele><time>2026-04-18T09:44:33.018Z</time></trkpt><trkpt lat="44.7054287" lon="8.7344539"><ele>263.5</ele><time>2026-04-18T09:44:34.017Z</time></trkpt><trkpt lat="44.7053402" lon="8.7345906"><ele>264.25</ele><time>2026-04-18T09:44:35.019Z</time></trkpt><trkpt lat="44.7052512" lon="8.7347299"><ele>265.0</ele><time>2026-04-18T09:44:36.019Z</time></trkpt><trkpt lat="44.7051667" lon="8.7348684"><ele>265.0</ele><time>2026-04-18T09:44:37.019Z</time></trkpt><trkpt lat="44.7050891" lon="8.7350056"><ele>265.0</ele><time>2026-04-18T09:44:38.018Z</time></trkpt><trkpt lat="44.7050089" lon="8.735146"><ele>265.0</ele><time>2026-04-18T09:44:39.019Z</time></trkpt><trkpt lat="44.7049237" lon="8.7352899"><ele>265.0</ele><time>2026-04-18T09:44:40.019Z</time></trkpt><trkpt lat="44.7048388" lon="8.735431"><ele>264.75</ele><time>2026-04-18T09:44:41.018Z</time></trkpt><trkpt lat="44.7047534" lon="8.7355697"><ele>264.5</ele><time>2026-04-18T09:44:42.019Z</time></trkpt><trkpt lat="44.7046637" lon="8.7357008"><ele>264.25</ele><time>2026-04-18T09:44:43.018Z</time></trkpt><trkpt lat="44.7045645" lon="8.735822"><ele>264.0</ele><time>2026-04-18T09:44:44.018Z</time></trkpt><trkpt lat="44.7044555" lon="8.7359326"><ele>264.5</ele><time>2026-04-18T09:44:45.018Z</time></trkpt><trkpt lat="44.7043434" lon="8.7360309"><ele>265.0</ele><time>2026-04-18T09:44:46.019Z</time></trkpt><trkpt lat="44.7042384" lon="8.7361206"><ele>265.5</ele><time>2026-04-18T09:44:47.018Z</time></trkpt><trkpt lat="44.7041374" lon="8.736199"><ele>266.0</ele><time>2026-04-18T09:44:48.019Z</time></trkpt><trkpt lat="44.7040365" lon="8.7362629"><ele>266.0</ele><time>2026-04-18T09:44:49.018Z</time></trkpt><trkpt lat="44.703936" lon="8.7363069"><ele>266.0</ele><time>2026-04-18T09:44:50.018Z</time></trkpt><trkpt lat="44.7038462" lon="8.7363333"><ele>266.0</ele><time>2026-04-18T09:44:51.018Z</time></trkpt><trkpt lat="44.7037715" lon="8.736364"><ele>266.0</ele><time>2026-04-18T09:44:52.019Z</time></trkpt><trkpt lat="44.7037096" lon="8.7364231"><ele>266.0</ele><time>2026-04-18T09:44:53.019Z</time></trkpt><trkpt lat="44.7036532" lon="8.7365128"><ele>266.0</ele><time>2026-04-18T09:44:54.018Z</time></trkpt><trkpt lat="44.7035994" lon="8.7366199"><ele>266.6</ele><time>2026-04-18T09:44:55.019Z</time></trkpt><trkpt lat="44.7035439" lon="8.736723"><ele>267.20000000000005</ele><time>2026-04-18T09:44:56.018Z</time></trkpt><trkpt lat="44.7034971" lon="8.7368192"><ele>267.79999999999995</ele><time>2026-04-18T09:44:57.018Z</time></trkpt><trkpt lat="44.7034662" lon="8.7369028"><ele>268.4</ele><time>2026-04-18T09:44:58.019Z</time></trkpt><trkpt lat="44.7034583" lon="8.7370607"><ele>269.0</ele><time>2026-04-18T09:45:00.019Z</time></trkpt><trkpt lat="44.703532" lon="8.7372031"><ele>268.57142857142856</ele><time>2026-04-18T09:45:02.018Z</time></trkpt><trkpt lat="44.7035838" lon="8.7372836"><ele>268.14285714285717</ele><time>2026-04-18T09:45:03.018Z</time></trkpt><trkpt lat="44.7036285" lon="8.7373717"><ele>267.7142857142857</ele><time>2026-04-18T09:45:04.019Z</time></trkpt><trkpt lat="44.7036483" lon="8.737464"><ele>267.2857142857143</ele><time>2026-04-18T09:45:05.019Z</time></trkpt><trkpt lat="44.7036422" lon="8.7375601"><ele>266.8571428571429</ele><time>2026-04-18T09:45:06.018Z</time></trkpt><trkpt lat="44.7036162" lon="8.7376508"><ele>266.42857142857144</ele><time>2026-04-18T09:45:07.019Z</time></trkpt><trkpt lat="44.7035767" lon="8.7377427"><ele>266.0</ele><time>2026-04-18T09:45:08.019Z</time></trkpt><trkpt lat="44.7035284" lon="8.7378425"><ele>266.0</ele><time>2026-04-18T09:45:09.019Z</time></trkpt><trkpt lat="44.7034696" lon="8.7379477"><ele>266.0</ele><time>2026-04-18T09:45:10.019Z</time></trkpt><trkpt lat="44.7034016" lon="8.7380568"><ele>266.0</ele><time>2026-04-18T09:45:11.018Z</time></trkpt><trkpt lat="44.7033285" lon="8.7381585"><ele>266.0</ele><time>2026-04-18T09:45:12.019Z</time></trkpt><trkpt lat="44.7032483" lon="8.7382512"><ele>266.0</ele><time>2026-04-18T09:45:13.019Z</time></trkpt><trkpt lat="44.7031652" lon="8.73834"><ele>266.0</ele><time>2026-04-18T09:45:14.018Z</time></trkpt><trkpt lat="44.7030781" lon="8.7384207"><ele>266.0</ele><time>2026-04-18T09:45:15.019Z</time></trkpt><trkpt lat="44.7029863" lon="8.7384966"><ele>266.0</ele><time>2026-04-18T09:45:16.018Z</time></trkpt><trkpt lat="44.7028909" lon="8.738571"><ele>266.0</ele><time>2026-04-18T09:45:17.018Z</time></trkpt><trkpt lat="44.7027917" lon="8.7386423"><ele>266.0</ele><time>2026-04-18T09:45:18.018Z</time></trkpt><trkpt lat="44.7026905" lon="8.7387131"><ele>265.6</ele><time>2026-04-18T09:45:19.019Z</time></trkpt><trkpt lat="44.7025875" lon="8.7387819"><ele>265.20000000000005</ele><time>2026-04-18T09:45:20.019Z</time></trkpt><trkpt lat="44.7024825" lon="8.7388453"><ele>264.79999999999995</ele><time>2026-04-18T09:45:21.018Z</time></trkpt><trkpt lat="44.702383" lon="8.7389053"><ele>264.4</ele><time>2026-04-18T09:45:22.018Z</time></trkpt><trkpt lat="44.7022915" lon="8.7389732"><ele>264.0</ele><time>2026-04-18T09:45:23.018Z</time></trkpt><trkpt lat="44.7022038" lon="8.7390613"><ele>264.0</ele><time>2026-04-18T09:45:24.019Z</time></trkpt><trkpt lat="44.702117" lon="8.7391666"><ele>264.0</ele><time>2026-04-18T09:45:25.018Z</time></trkpt><trkpt lat="44.7020302" lon="8.7392818"><ele>264.0</ele><time>2026-04-18T09:45:26.018Z</time></trkpt><trkpt lat="44.7019479" lon="8.7394084"><ele>264.0</ele><time>2026-04-18T09:45:27.018Z</time></trkpt><trkpt lat="44.7018783" lon="8.7395467"><ele>265.5</ele><time>2026-04-18T09:45:28.019Z</time></trkpt><trkpt lat="44.7018259" lon="8.7396972"><ele>267.0</ele><time>2026-04-18T09:45:29.019Z</time></trkpt><trkpt lat="44.7017718" lon="8.7398502"><ele>268.5</ele><time>2026-04-18T09:45:30.018Z</time></trkpt><trkpt lat="44.7017096" lon="8.7399972"><ele>270.0</ele><time>2026-04-18T09:45:31.019Z</time></trkpt><trkpt lat="44.7016372" lon="8.7401278"><ele>268.5</ele><time>2026-04-18T09:45:32.019Z</time></trkpt><trkpt lat="44.7015471" lon="8.7402452"><ele>267.0</ele><time>2026-04-18T09:45:33.019Z</time></trkpt><trkpt lat="44.7014435" lon="8.7403501"><ele>265.5</ele><time>2026-04-18T09:45:34.018Z</time></trkpt><trkpt lat="44.7013375" lon="8.7404611"><ele>264.0</ele><time>2026-04-18T09:45:35.018Z</time></trkpt><trkpt lat="44.7012338" lon="8.7405815"><ele>264.0</ele><time>2026-04-18T09:45:36.018Z</time></trkpt><trkpt lat="44.7011354" lon="8.7407044"><ele>264.0</ele><time>2026-04-18T09:45:37.019Z</time></trkpt><trkpt lat="44.7010405" lon="8.7408282"><ele>264.0</ele><time>2026-04-18T09:45:38.018Z</time></trkpt><trkpt lat="44.7009481" lon="8.7409375"><ele>264.0</ele><time>2026-04-18T09:45:39.019Z</time></trkpt><trkpt lat="44.7008596" lon="8.7410238"><ele>263.0</ele><time>2026-04-18T09:45:40.018Z</time></trkpt><trkpt lat="44.7007782" lon="8.7410814"><ele>262.0</ele><time>2026-04-18T09:45:41.019Z</time></trkpt><trkpt lat="44.700694" lon="8.7411123"><ele>261.0</ele><time>2026-04-18T09:45:42.017Z</time></trkpt><trkpt lat="44.7006002" lon="8.7411299"><ele>260.0</ele><time>2026-04-18T09:45:43.019Z</time></trkpt><trkpt lat="44.7004933" lon="8.7411438"><ele>259.0</ele><time>2026-04-18T09:45:44.019Z</time></trkpt><trkpt lat="44.7003737" lon="8.7411639"><ele>260.0</ele><time>2026-04-18T09:45:45.018Z</time></trkpt><trkpt lat="44.7002477" lon="8.7411871"><ele>261.0</ele><time>2026-04-18T09:45:46.018Z</time></trkpt><trkpt lat="44.7001225" lon="8.7412072"><ele>262.0</ele><time>2026-04-18T09:45:47.019Z</time></trkpt><trkpt lat="44.6999972" lon="8.7412151"><ele>263.0</ele><time>2026-04-18T09:45:48.019Z</time></trkpt><trkpt lat="44.6998691" lon="8.7412112"><ele>263.0</ele><time>2026-04-18T09:45:49.019Z</time></trkpt><trkpt lat="44.6997349" lon="8.7412013"><ele>263.0</ele><time>2026-04-18T09:45:50.019Z</time></trkpt><trkpt lat="44.6995966" lon="8.7411876"><ele>263.0</ele><time>2026-04-18T09:45:51.019Z</time></trkpt><trkpt lat="44.6994559" lon="8.741179"><ele>263.0</ele><time>2026-04-18T09:45:52.016Z</time></trkpt><trkpt lat="44.6993162" lon="8.7411812"><ele>264.0</ele><time>2026-04-18T09:45:53.018Z</time></trkpt><trkpt lat="44.6991752" lon="8.7411984"><ele>265.0</ele><time>2026-04-18T09:45:54.018Z</time></trkpt><trkpt lat="44.6990344" lon="8.7412312"><ele>266.0</ele><time>2026-04-18T09:45:55.019Z</time></trkpt><trkpt lat="44.6988985" lon="8.7412773"><ele>267.0</ele><time>2026-04-18T09:45:56.018Z</time></trkpt><trkpt lat="44.6987677" lon="8.7413274"><ele>267.0</ele><time>2026-04-18T09:45:57.019Z</time></trkpt><trkpt lat="44.698642" lon="8.7413831"><ele>267.0</ele><time>2026-04-18T09:45:58.017Z</time></trkpt><trkpt lat="44.6985227" lon="8.7414487"><ele>267.0</ele><time>2026-04-18T09:45:59.018Z</time></trkpt><trkpt lat="44.6984061" lon="8.7415292"><ele>267.0</ele><time>2026-04-18T09:46:00.017Z</time></trkpt><trkpt lat="44.6982855" lon="8.7416199"><ele>266.25</ele><time>2026-04-18T09:46:01.018Z</time></trkpt><trkpt lat="44.6981637" lon="8.7417129"><ele>265.5</ele><time>2026-04-18T09:46:02.018Z</time></trkpt><trkpt lat="44.6980367" lon="8.7418071"><ele>264.75</ele><time>2026-04-18T09:46:03.018Z</time></trkpt><trkpt lat="44.6979131" lon="8.7419051"><ele>264.0</ele><time>2026-04-18T09:46:04.018Z</time></trkpt><trkpt lat="44.6977858" lon="8.7420022"><ele>266.25</ele><time>2026-04-18T09:46:05.019Z</time></trkpt><trkpt lat="44.6976654" lon="8.7421058"><ele>268.5</ele><time>2026-04-18T09:46:06.018Z</time></trkpt><trkpt lat="44.6975555" lon="8.7422085"><ele>270.75</ele><time>2026-04-18T09:46:07.019Z</time></trkpt><trkpt lat="44.6974623" lon="8.7423189"><ele>273.0</ele><time>2026-04-18T09:46:08.018Z</time></trkpt><trkpt lat="44.6973855" lon="8.7424441"><ele>273.0</ele><time>2026-04-18T09:46:09.018Z</time></trkpt><trkpt lat="44.697333" lon="8.7425781"><ele>273.0</ele><time>2026-04-18T09:46:10.019Z</time></trkpt><trkpt lat="44.6972946" lon="8.742717"><ele>273.0</ele><time>2026-04-18T09:46:11.019Z</time></trkpt><trkpt lat="44.6972558" lon="8.7428525"><ele>273.0</ele><time>2026-04-18T09:46:12.019Z</time></trkpt><trkpt lat="44.6971967" lon="8.7429715"><ele>273.0</ele><time>2026-04-18T09:46:13.019Z</time></trkpt><trkpt lat="44.6971229" lon="8.7430881"><ele>272.5</ele><time>2026-04-18T09:46:14.019Z</time></trkpt><trkpt lat="44.6970388" lon="8.7432056"><ele>272.0</ele><time>2026-04-18T09:46:15.019Z</time></trkpt><trkpt lat="44.6969422" lon="8.7433255"><ele>271.5</ele><time>2026-04-18T09:46:16.018Z</time></trkpt><trkpt lat="44.6968392" lon="8.7434525"><ele>271.0</ele><time>2026-04-18T09:46:17.019Z</time></trkpt><trkpt lat="44.696736" lon="8.7435782"><ele>271.0</ele><time>2026-04-18T09:46:18.019Z</time></trkpt><trkpt lat="44.696638" lon="8.7436958"><ele>271.0</ele><time>2026-04-18T09:46:19.019Z</time></trkpt><trkpt lat="44.6965432" lon="8.7438018"><ele>271.0</ele><time>2026-04-18T09:46:20.018Z</time></trkpt><trkpt lat="44.6964463" lon="8.7438846"><ele>271.0</ele><time>2026-04-18T09:46:21.019Z</time></trkpt><trkpt lat="44.696339" lon="8.7439411"><ele>271.0</ele><time>2026-04-18T09:46:22.019Z</time></trkpt><trkpt lat="44.6962269" lon="8.743974"><ele>271.0</ele><time>2026-04-18T09:46:23.018Z</time></trkpt><trkpt lat="44.6961119" lon="8.7439832"><ele>271.0</ele><time>2026-04-18T09:46:24.018Z</time></trkpt><trkpt lat="44.6959985" lon="8.7439858"><ele>271.0</ele><time>2026-04-18T09:46:25.018Z</time></trkpt><trkpt lat="44.6958873" lon="8.7439877"><ele>272.2</ele><time>2026-04-18T09:46:26.019Z</time></trkpt><trkpt lat="44.6957834" lon="8.7440064"><ele>273.40000000000003</ele><time>2026-04-18T09:46:27.019Z</time></trkpt><trkpt lat="44.6956816" lon="8.7440509"><ele>274.6</ele><time>2026-04-18T09:46:28.018Z</time></trkpt><trkpt lat="44.6955772" lon="8.7441028"><ele>275.8</ele><time>2026-04-18T09:46:29.016Z</time></trkpt><trkpt lat="44.695473" lon="8.7441563"><ele>277.0</ele><time>2026-04-18T09:46:30.018Z</time></trkpt><trkpt lat="44.6953767" lon="8.7442303"><ele>277.0</ele><time>2026-04-18T09:46:31.019Z</time></trkpt><trkpt lat="44.6952923" lon="8.7443291"><ele>277.0</ele><time>2026-04-18T09:46:32.018Z</time></trkpt><trkpt lat="44.6952163" lon="8.7444531"><ele>277.0</ele><time>2026-04-18T09:46:33.018Z</time></trkpt><trkpt lat="44.6951436" lon="8.7445962"><ele>277.0</ele><time>2026-04-18T09:46:34.018Z</time></trkpt><trkpt lat="44.6950677" lon="8.7447444"><ele>277.0</ele><time>2026-04-18T09:46:35.018Z</time></trkpt><trkpt lat="44.6949924" lon="8.744897"><ele>277.0</ele><time>2026-04-18T09:46:36.019Z</time></trkpt><trkpt lat="44.6949178" lon="8.7450546"><ele>277.0</ele><time>2026-04-18T09:46:37.019Z</time></trkpt><trkpt lat="44.6948433" lon="8.7452103"><ele>277.0</ele><time>2026-04-18T09:46:38.019Z</time></trkpt><trkpt lat="44.69477" lon="8.7453644"><ele>277.0</ele><time>2026-04-18T09:46:39.019Z</time></trkpt><trkpt lat="44.694698" lon="8.7455119"><ele>277.0</ele><time>2026-04-18T09:46:40.019Z</time></trkpt><trkpt lat="44.6946323" lon="8.7456471"><ele>277.0</ele><time>2026-04-18T09:46:41.019Z</time></trkpt><trkpt lat="44.6945747" lon="8.7457698"><ele>277.0</ele><time>2026-04-18T09:46:42.018Z</time></trkpt><trkpt lat="44.6945268" lon="8.7458693"><ele>277.0</ele><time>2026-04-18T09:46:43.019Z</time></trkpt><trkpt lat="44.6944918" lon="8.745946"><ele>277.8</ele><time>2026-04-18T09:46:44.017Z</time></trkpt><trkpt lat="44.6944406" lon="8.7460959"><ele>278.6</ele><time>2026-04-18T09:46:46.019Z</time></trkpt><trkpt lat="44.6944065" lon="8.7461893"><ele>279.40000000000003</ele><time>2026-04-18T09:46:47.019Z</time></trkpt><trkpt lat="44.6943633" lon="8.7462867"><ele>280.2</ele><time>2026-04-18T09:46:48.019Z</time></trkpt><trkpt lat="44.6943078" lon="8.746392"><ele>281.0</ele><time>2026-04-18T09:46:49.019Z</time></trkpt><trkpt lat="44.694242" lon="8.7465042"><ele>281.0</ele><time>2026-04-18T09:46:50.018Z</time></trkpt><trkpt lat="44.694169" lon="8.7466209"><ele>281.0</ele><time>2026-04-18T09:46:51.018Z</time></trkpt><trkpt lat="44.6940999" lon="8.7467417"><ele>281.0</ele><time>2026-04-18T09:46:52.018Z</time></trkpt><trkpt lat="44.694031" lon="8.7468643"><ele>281.0</ele><time>2026-04-18T09:46:53.018Z</time></trkpt><trkpt lat="44.6939643" lon="8.7469855"><ele>281.0</ele><time>2026-04-18T09:46:54.019Z</time></trkpt><trkpt lat="44.6939029" lon="8.7471114"><ele>279.6</ele><time>2026-04-18T09:46:55.016Z</time></trkpt><trkpt lat="44.6938422" lon="8.7472398"><ele>278.20000000000005</ele><time>2026-04-18T09:46:56.019Z</time></trkpt><trkpt lat="44.6937871" lon="8.7473736"><ele>276.79999999999995</ele><time>2026-04-18T09:46:57.018Z</time></trkpt><trkpt lat="44.6937363" lon="8.7475103"><ele>275.4</ele><time>2026-04-18T09:46:58.018Z</time></trkpt><trkpt lat="44.6936893" lon="8.7476457"><ele>274.0</ele><time>2026-04-18T09:46:59.019Z</time></trkpt><trkpt lat="44.69365" lon="8.7477702"><ele>273.8333333333333</ele><time>2026-04-18T09:47:00.018Z</time></trkpt><trkpt lat="44.6936152" lon="8.7478829"><ele>273.66666666666663</ele><time>2026-04-18T09:47:01.018Z</time></trkpt><trkpt lat="44.6935812" lon="8.7479881"><ele>273.5</ele><time>2026-04-18T09:47:02.018Z</time></trkpt><trkpt lat="44.6935441" lon="8.7480851"><ele>273.3333333333333</ele><time>2026-04-18T09:47:03.019Z</time></trkpt><trkpt lat="44.6935058" lon="8.7481823"><ele>273.1666666666667</ele><time>2026-04-18T09:47:04.018Z</time></trkpt><trkpt lat="44.6934666" lon="8.748287"><ele>273.0</ele><time>2026-04-18T09:47:05.018Z</time></trkpt><trkpt lat="44.6934211" lon="8.7483907"><ele>275.2</ele><time>2026-04-18T09:47:06.019Z</time></trkpt><trkpt lat="44.6933786" lon="8.7484832"><ele>277.4</ele><time>2026-04-18T09:47:07.019Z</time></trkpt><trkpt lat="44.6933413" lon="8.7485691"><ele>279.59999999999997</ele><time>2026-04-18T09:47:08.018Z</time></trkpt><trkpt lat="44.6932874" lon="8.748671"><ele>281.8</ele><time>2026-04-18T09:47:10.018Z</time></trkpt><trkpt lat="44.693213" lon="8.748774"><ele>284.0</ele><time>2026-04-18T09:47:13.019Z</time></trkpt><trkpt lat="44.6930942" lon="8.748866"><ele>284.6666666666667</ele><time>2026-04-18T09:47:15.019Z</time></trkpt><trkpt lat="44.6930285" lon="8.7489111"><ele>285.33333333333337</ele><time>2026-04-18T09:47:16.017Z</time></trkpt><trkpt lat="44.6929586" lon="8.748963"><ele>286.0</ele><time>2026-04-18T09:47:17.019Z</time></trkpt><trkpt lat="44.69289" lon="8.7490152"><ele>286.6666666666667</ele><time>2026-04-18T09:47:18.019Z</time></trkpt><trkpt lat="44.6928213" lon="8.7490699"><ele>287.3333333333333</ele><time>2026-04-18T09:47:19.019Z</time></trkpt><trkpt lat="44.6927546" lon="8.7491176"><ele>288.0</ele><time>2026-04-18T09:47:20.019Z</time></trkpt><trkpt lat="44.692696" lon="8.7491635"><ele>288.8333333333333</ele><time>2026-04-18T09:47:21.019Z</time></trkpt><trkpt lat="44.6926083" lon="8.7492196"><ele>289.6666666666667</ele><time>2026-04-18T09:47:23.019Z</time></trkpt><trkpt lat="44.6925411" lon="8.7491614"><ele>290.5</ele><time>2026-04-18T09:47:26.019Z</time></trkpt><trkpt lat="44.6925036" lon="8.7490245"><ele>291.33333333333337</ele><time>2026-04-18T09:47:28.019Z</time></trkpt><trkpt lat="44.6924931" lon="8.7489344"><ele>292.1666666666667</ele><time>2026-04-18T09:47:29.019Z</time></trkpt><trkpt lat="44.6924829" lon="8.7488351"><ele>293.0</ele><time>2026-04-18T09:47:30.019Z</time></trkpt><trkpt lat="44.6924681" lon="8.7487233"><ele>293.0</ele><time>2026-04-18T09:47:31.018Z</time></trkpt><trkpt lat="44.692454" lon="8.7485995"><ele>293.0</ele><time>2026-04-18T09:47:32.018Z</time></trkpt><trkpt lat="44.6924356" lon="8.7484692"><ele>293.0</ele><time>2026-04-18T09:47:33.019Z</time></trkpt><trkpt lat="44.6924128" lon="8.7483377"><ele>293.0</ele><time>2026-04-18T09:47:34.019Z</time></trkpt><trkpt lat="44.6923872" lon="8.7482021"><ele>293.0</ele><time>2026-04-18T09:47:35.019Z</time></trkpt><trkpt lat="44.6923602" lon="8.7480693"><ele>292.8</ele><time>2026-04-18T09:47:36.019Z</time></trkpt><trkpt lat="44.6923313" lon="8.7479369"><ele>292.6</ele><time>2026-04-18T09:47:37.019Z</time></trkpt><trkpt lat="44.6922986" lon="8.7478084"><ele>292.4</ele><time>2026-04-18T09:47:38.018Z</time></trkpt><trkpt lat="44.692264" lon="8.747681"><ele>292.2</ele><time>2026-04-18T09:47:39.019Z</time></trkpt><trkpt lat="44.6922216" lon="8.747561"><ele>292.0</ele><time>2026-04-18T09:47:40.018Z</time></trkpt><trkpt lat="44.6921739" lon="8.7474545"><ele>292.0</ele><time>2026-04-18T09:47:41.019Z</time></trkpt><trkpt lat="44.6921156" lon="8.7473645"><ele>292.0</ele><time>2026-04-18T09:47:42.019Z</time></trkpt><trkpt lat="44.692049" lon="8.747289"><ele>292.0</ele><time>2026-04-18T09:47:43.019Z</time></trkpt><trkpt lat="44.691997" lon="8.7472351"><ele>292.0</ele><time>2026-04-18T09:47:44.019Z</time></trkpt><trkpt lat="44.6919289" lon="8.7471732"><ele>292.0</ele><time>2026-04-18T09:47:46.019Z</time></trkpt><trkpt lat="44.6918693" lon="8.7470758"><ele>292.0</ele><time>2026-04-18T09:47:48.018Z</time></trkpt><trkpt lat="44.6918438" lon="8.7469824"><ele>291.8333333333333</ele><time>2026-04-18T09:47:49.018Z</time></trkpt><trkpt lat="44.6918159" lon="8.7468771"><ele>291.66666666666663</ele><time>2026-04-18T09:47:50.018Z</time></trkpt><trkpt lat="44.6917878" lon="8.7467714"><ele>291.5</ele><time>2026-04-18T09:47:51.019Z</time></trkpt><trkpt lat="44.6917619" lon="8.7466747"><ele>291.3333333333333</ele><time>2026-04-18T09:47:52.019Z</time></trkpt><trkpt lat="44.691713" lon="8.7465282"><ele>291.1666666666667</ele><time>2026-04-18T09:47:54.019Z</time></trkpt><trkpt lat="44.6916425" lon="8.746479"><ele>291.0</ele><time>2026-04-18T09:47:56.019Z</time></trkpt><trkpt lat="44.691583" lon="8.7465448"><ele>291.0</ele><time>2026-04-18T09:47:58.018Z</time></trkpt><trkpt lat="44.6915918" lon="8.7466755"><ele>291.0</ele><time>2026-04-18T09:48:00.018Z</time></trkpt><trkpt lat="44.6916489" lon="8.746808"><ele>291.0</ele><time>2026-04-18T09:48:02.019Z</time></trkpt><trkpt lat="44.6916939" lon="8.7469421"><ele>291.0</ele><time>2026-04-18T09:48:04.019Z</time></trkpt><trkpt lat="44.6917302" lon="8.7470201"><ele>291.0</ele><time>2026-04-18T09:48:06.018Z</time></trkpt><trkpt lat="44.6917903" lon="8.7470935"><ele>290.2</ele><time>2026-04-18T09:48:13.018Z</time></trkpt><trkpt lat="44.6918456" lon="8.7471831"><ele>289.40000000000003</ele><time>2026-04-18T09:48:16.018Z</time></trkpt><trkpt lat="44.6917863" lon="8.7472388"><ele>288.6</ele><time>2026-04-18T09:48:19.018Z</time></trkpt><trkpt lat="44.6916636" lon="8.7471661"><ele>287.8</ele><time>2026-04-18T09:48:21.019Z</time></trkpt><trkpt lat="44.6915905" lon="8.747111"><ele>287.0</ele><time>2026-04-18T09:48:22.018Z</time></trkpt><trkpt lat="44.6915167" lon="8.747043"><ele>287.0</ele><time>2026-04-18T09:48:23.018Z</time></trkpt><trkpt lat="44.6914436" lon="8.7469551"><ele>287.0</ele><time>2026-04-18T09:48:24.019Z</time></trkpt><trkpt lat="44.6913697" lon="8.7468543"><ele>287.0</ele><time>2026-04-18T09:48:25.018Z</time></trkpt><trkpt lat="44.6912946" lon="8.746747"><ele>287.0</ele><time>2026-04-18T09:48:26.018Z</time></trkpt><trkpt lat="44.6912132" lon="8.7466356"><ele>287.0</ele><time>2026-04-18T09:48:27.019Z</time></trkpt><trkpt lat="44.6911289" lon="8.7465181"><ele>286.25</ele><time>2026-04-18T09:48:28.018Z</time></trkpt><trkpt lat="44.691045" lon="8.7463939"><ele>285.5</ele><time>2026-04-18T09:48:29.019Z</time></trkpt><trkpt lat="44.6909629" lon="8.7462622"><ele>284.75</ele><time>2026-04-18T09:48:30.018Z</time></trkpt><trkpt lat="44.6908812" lon="8.7461244"><ele>284.0</ele><time>2026-04-18T09:48:31.019Z</time></trkpt><trkpt lat="44.6907984" lon="8.7459842"><ele>284.0</ele><time>2026-04-18T09:48:32.018Z</time></trkpt><trkpt lat="44.6907144" lon="8.7458408"><ele>284.0</ele><time>2026-04-18T09:48:33.019Z</time></trkpt><trkpt lat="44.6906293" lon="8.7456994"><ele>284.0</ele><time>2026-04-18T09:48:34.018Z</time></trkpt><trkpt lat="44.6905399" lon="8.7455713"><ele>284.0</ele><time>2026-04-18T09:48:35.018Z</time></trkpt><trkpt lat="44.6904448" lon="8.7454657"><ele>284.0</ele><time>2026-04-18T09:48:36.019Z</time></trkpt><trkpt lat="44.6903526" lon="8.7453774"><ele>284.0</ele><time>2026-04-18T09:48:37.019Z</time></trkpt><trkpt lat="44.6902618" lon="8.7453062"><ele>284.0</ele><time>2026-04-18T09:48:38.019Z</time></trkpt><trkpt lat="44.6901835" lon="8.7452565"><ele>284.0</ele><time>2026-04-18T09:48:39.019Z</time></trkpt><trkpt lat="44.6900991" lon="8.7452189"><ele>284.0</ele><time>2026-04-18T09:48:40.019Z</time></trkpt><trkpt lat="44.6900023" lon="8.745217"><ele>279.25</ele><time>2026-04-18T09:48:41.019Z</time></trkpt><trkpt lat="44.689886" lon="8.7452371"><ele>274.5</ele><time>2026-04-18T09:48:42.018Z</time></trkpt><trkpt lat="44.6897649" lon="8.7452637"><ele>269.75</ele><time>2026-04-18T09:48:43.018Z</time></trkpt><trkpt lat="44.6896453" lon="8.7452817"><ele>265.0</ele><time>2026-04-18T09:48:44.018Z</time></trkpt><trkpt lat="44.6895281" lon="8.7452788"><ele>263.0</ele><time>2026-04-18T09:48:45.019Z</time></trkpt><trkpt lat="44.6894216" lon="8.7452669"><ele>261.0</ele><time>2026-04-18T09:48:46.019Z</time></trkpt><trkpt lat="44.6893307" lon="8.7452406"><ele>259.0</ele><time>2026-04-18T09:48:47.018Z</time></trkpt><trkpt lat="44.6892497" lon="8.7451862"><ele>257.0</ele><time>2026-04-18T09:48:48.019Z</time></trkpt><trkpt lat="44.6891694" lon="8.745112"><ele>255.0</ele><time>2026-04-18T09:48:49.019Z</time></trkpt><trkpt lat="44.6890986" lon="8.7450145"><ele>255.0</ele><time>2026-04-18T09:48:50.019Z</time></trkpt><trkpt lat="44.6890227" lon="8.7449064"><ele>255.0</ele><time>2026-04-18T09:48:51.019Z</time></trkpt><trkpt lat="44.6889346" lon="8.7447909"><ele>255.0</ele><time>2026-04-18T09:48:52.019Z</time></trkpt><trkpt lat="44.6888408" lon="8.7446807"><ele>255.0</ele><time>2026-04-18T09:48:53.018Z</time></trkpt><trkpt lat="44.6887434" lon="8.744572"><ele>255.0</ele><time>2026-04-18T09:48:54.019Z</time></trkpt><trkpt lat="44.6886441" lon="8.7444631"><ele>255.0</ele><time>2026-04-18T09:48:55.018Z</time></trkpt><trkpt lat="44.6885395" lon="8.7443693"><ele>255.0</ele><time>2026-04-18T09:48:56.019Z</time></trkpt><trkpt lat="44.688429" lon="8.7442889"><ele>255.0</ele><time>2026-04-18T09:48:57.018Z</time></trkpt><trkpt lat="44.6883169" lon="8.7442155"><ele>252.5</ele><time>2026-04-18T09:48:58.018Z</time></trkpt><trkpt lat="44.6882058" lon="8.7441373"><ele>250.0</ele><time>2026-04-18T09:48:59.019Z</time></trkpt><trkpt lat="44.6880898" lon="8.7440529"><ele>247.5</ele><time>2026-04-18T09:49:00.019Z</time></trkpt><trkpt lat="44.6879702" lon="8.7439619"><ele>245.0</ele><time>2026-04-18T09:49:01.019Z</time></trkpt><trkpt lat="44.6878549" lon="8.7438764"><ele>241.6</ele><time>2026-04-18T09:49:02.019Z</time></trkpt><trkpt lat="44.6877595" lon="8.7437985"><ele>238.2</ele><time>2026-04-18T09:49:03.019Z</time></trkpt><trkpt lat="44.6876803" lon="8.7437098"><ele>234.8</ele><time>2026-04-18T09:49:04.018Z</time></trkpt><trkpt lat="44.6876093" lon="8.7435943"><ele>231.4</ele><time>2026-04-18T09:49:05.019Z</time></trkpt><trkpt lat="44.6875384" lon="8.7434687"><ele>228.0</ele><time>2026-04-18T09:49:06.018Z</time></trkpt><trkpt lat="44.6874524" lon="8.743351"><ele>228.0</ele><time>2026-04-18T09:49:07.019Z</time></trkpt><trkpt lat="44.6873583" lon="8.7432385"><ele>228.0</ele><time>2026-04-18T09:49:08.019Z</time></trkpt><trkpt lat="44.6872689" lon="8.743122"><ele>228.0</ele><time>2026-04-18T09:49:09.019Z</time></trkpt><trkpt lat="44.6871984" lon="8.7429851"><ele>228.0</ele><time>2026-04-18T09:49:10.018Z</time></trkpt><trkpt lat="44.6871463" lon="8.7428423"><ele>227.0</ele><time>2026-04-18T09:49:11.019Z</time></trkpt><trkpt lat="44.6870915" lon="8.7427125"><ele>226.0</ele><time>2026-04-18T09:49:12.019Z</time></trkpt><trkpt lat="44.6870202" lon="8.7426078"><ele>225.0</ele><time>2026-04-18T09:49:13.019Z</time></trkpt><trkpt lat="44.6869295" lon="8.7425165"><ele>224.0</ele><time>2026-04-18T09:49:14.019Z</time></trkpt><trkpt lat="44.6868249" lon="8.7424356"><ele>223.0</ele><time>2026-04-18T09:49:15.019Z</time></trkpt><trkpt lat="44.686714" lon="8.742345"><ele>221.25</ele><time>2026-04-18T09:49:16.019Z</time></trkpt><trkpt lat="44.6866027" lon="8.7422505"><ele>219.5</ele><time>2026-04-18T09:49:17.019Z</time></trkpt><trkpt lat="44.6864901" lon="8.7421473"><ele>217.75</ele><time>2026-04-18T09:49:18.019Z</time></trkpt><trkpt lat="44.6863852" lon="8.7420443"><ele>216.0</ele><time>2026-04-18T09:49:19.019Z</time></trkpt><trkpt lat="44.6862853" lon="8.741939"><ele>214.5</ele><time>2026-04-18T09:49:20.019Z</time></trkpt><trkpt lat="44.6861999" lon="8.7418142"><ele>213.0</ele><time>2026-04-18T09:49:21.019Z</time></trkpt><trkpt lat="44.6861289" lon="8.7416746"><ele>211.5</ele><time>2026-04-18T09:49:22.019Z</time></trkpt><trkpt lat="44.6860592" lon="8.7415367"><ele>210.0</ele><time>2026-04-18T09:49:23.019Z</time></trkpt><trkpt lat="44.6859808" lon="8.7414101"><ele>209.2</ele><time>2026-04-18T09:49:24.019Z</time></trkpt><trkpt lat="44.6858961" lon="8.741295"><ele>208.4</ele><time>2026-04-18T09:49:25.019Z</time></trkpt><trkpt lat="44.6858052" lon="8.7411966"><ele>207.60000000000002</ele><time>2026-04-18T09:49:26.018Z</time></trkpt><trkpt lat="44.685707" lon="8.7411229"><ele>206.8</ele><time>2026-04-18T09:49:27.019Z</time></trkpt><trkpt lat="44.6856087" lon="8.7410699"><ele>206.0</ele><time>2026-04-18T09:49:28.019Z</time></trkpt><trkpt lat="44.6855392" lon="8.7410128"><ele>205.20000000000002</ele><time>2026-04-18T09:49:29.019Z</time></trkpt><trkpt lat="44.6854882" lon="8.7409237"><ele>204.4</ele><time>2026-04-18T09:49:30.019Z</time></trkpt><trkpt lat="44.6854608" lon="8.7408072"><ele>203.6</ele><time>2026-04-18T09:49:31.019Z</time></trkpt><trkpt lat="44.6854645" lon="8.7406652"><ele>202.8</ele><time>2026-04-18T09:49:32.019Z</time></trkpt><trkpt lat="44.6854801" lon="8.7405111"><ele>202.0</ele><time>2026-04-18T09:49:33.018Z</time></trkpt><trkpt lat="44.6854923" lon="8.7403557"><ele>200.39999999999998</ele><time>2026-04-18T09:49:34.019Z</time></trkpt><trkpt lat="44.6854921" lon="8.7402064"><ele>198.79999999999998</ele><time>2026-04-18T09:49:35.018Z</time></trkpt><trkpt lat="44.685475" lon="8.7400657"><ele>197.2</ele><time>2026-04-18T09:49:36.019Z</time></trkpt><trkpt lat="44.6854393" lon="8.739937"><ele>195.6</ele><time>2026-04-18T09:49:37.018Z</time></trkpt><trkpt lat="44.6853841" lon="8.739807"><ele>194.0</ele><time>2026-04-18T09:49:38.019Z</time></trkpt><trkpt lat="44.6853199" lon="8.7396717"><ele>192.75</ele><time>2026-04-18T09:49:39.018Z</time></trkpt><trkpt lat="44.6852427" lon="8.7395268"><ele>191.5</ele><time>2026-04-18T09:49:40.018Z</time></trkpt><trkpt lat="44.6851615" lon="8.7393829"><ele>190.25</ele><time>2026-04-18T09:49:41.018Z</time></trkpt><trkpt lat="44.6850829" lon="8.7392491"><ele>189.0</ele><time>2026-04-18T09:49:42.019Z</time></trkpt><trkpt lat="44.6850154" lon="8.7391145"><ele>188.79999999999998</ele><time>2026-04-18T09:49:43.019Z</time></trkpt><trkpt lat="44.6849807" lon="8.7389717"><ele>188.6</ele><time>2026-04-18T09:49:44.019Z</time></trkpt><trkpt lat="44.6849765" lon="8.7388224"><ele>188.4</ele><time>2026-04-18T09:49:45.019Z</time></trkpt><trkpt lat="44.6849897" lon="8.7386539"><ele>188.2</ele><time>2026-04-18T09:49:46.019Z</time></trkpt><trkpt lat="44.6849913" lon="8.7384962"><ele>188.0</ele><time>2026-04-18T09:49:47.019Z</time></trkpt><trkpt lat="44.684973" lon="8.7383776"><ele>187.8</ele><time>2026-04-18T09:49:48.018Z</time></trkpt><trkpt lat="44.684926" lon="8.7382872"><ele>187.60000000000002</ele><time>2026-04-18T09:49:49.019Z</time></trkpt><trkpt lat="44.6848572" lon="8.7382285"><ele>187.39999999999998</ele><time>2026-04-18T09:49:50.019Z</time></trkpt><trkpt lat="44.6847666" lon="8.7382045"><ele>187.2</ele><time>2026-04-18T09:49:51.019Z</time></trkpt><trkpt lat="44.6846662" lon="8.7382161"><ele>187.0</ele><time>2026-04-18T09:49:52.019Z</time></trkpt><trkpt lat="44.6845551" lon="8.7382447"><ele>187.0</ele><time>2026-04-18T09:49:53.018Z</time></trkpt><trkpt lat="44.6844322" lon="8.7382671"><ele>187.0</ele><time>2026-04-18T09:49:54.018Z</time></trkpt><trkpt lat="44.6842977" lon="8.7382835"><ele>187.0</ele><time>2026-04-18T09:49:55.019Z</time></trkpt><trkpt lat="44.6841568" lon="8.7382994"><ele>187.0</ele><time>2026-04-18T09:49:56.018Z</time></trkpt><trkpt lat="44.6840166" lon="8.7383173"><ele>186.75</ele><time>2026-04-18T09:49:57.019Z</time></trkpt><trkpt lat="44.6838795" lon="8.7383394"><ele>186.5</ele><time>2026-04-18T09:49:58.019Z</time></trkpt><trkpt lat="44.6837466" lon="8.7383461"><ele>186.25</ele><time>2026-04-18T09:49:59.019Z</time></trkpt><trkpt lat="44.683624" lon="8.7383143"><ele>186.0</ele><time>2026-04-18T09:50:00.018Z</time></trkpt><trkpt lat="44.6835093" lon="8.7382499"><ele>188.5</ele><time>2026-04-18T09:50:01.018Z</time></trkpt><trkpt lat="44.6834035" lon="8.738154"><ele>191.0</ele><time>2026-04-18T09:50:02.019Z</time></trkpt><trkpt lat="44.683304" lon="8.7380463"><ele>193.5</ele><time>2026-04-18T09:50:03.018Z</time></trkpt><trkpt lat="44.6832122" lon="8.7379508"><ele>196.0</ele><time>2026-04-18T09:50:04.018Z</time></trkpt><trkpt lat="44.6831181" lon="8.737869"><ele>196.0</ele><time>2026-04-18T09:50:05.019Z</time></trkpt><trkpt lat="44.6830174" lon="8.7378207"><ele>196.0</ele><time>2026-04-18T09:50:06.019Z</time></trkpt><trkpt lat="44.6829157" lon="8.7378004"><ele>196.0</ele><time>2026-04-18T09:50:07.019Z</time></trkpt><trkpt lat="44.6828065" lon="8.7378071"><ele>196.0</ele><time>2026-04-18T09:50:08.019Z</time></trkpt><trkpt lat="44.682692" lon="8.7378392"><ele>196.0</ele><time>2026-04-18T09:50:09.019Z</time></trkpt><trkpt lat="44.6825742" lon="8.7378874"><ele>197.0</ele><time>2026-04-18T09:50:10.018Z</time></trkpt><trkpt lat="44.68246" lon="8.7379691"><ele>198.0</ele><time>2026-04-18T09:50:11.018Z</time></trkpt><trkpt lat="44.682351" lon="8.7380844"><ele>199.0</ele><time>2026-04-18T09:50:12.018Z</time></trkpt><trkpt lat="44.6822451" lon="8.7382131"><ele>200.0</ele><time>2026-04-18T09:50:13.018Z</time></trkpt><trkpt lat="44.6821368" lon="8.7383438"><ele>200.0</ele><time>2026-04-18T09:50:14.018Z</time></trkpt><trkpt lat="44.6820329" lon="8.738468"><ele>200.0</ele><time>2026-04-18T09:50:15.019Z</time></trkpt><trkpt lat="44.681924" lon="8.7385918"><ele>200.0</ele><time>2026-04-18T09:50:16.019Z</time></trkpt><trkpt lat="44.6818068" lon="8.7387"><ele>200.0</ele><time>2026-04-18T09:50:17.019Z</time></trkpt><trkpt lat="44.6816856" lon="8.7388034"><ele>200.75</ele><time>2026-04-18T09:50:18.018Z</time></trkpt><trkpt lat="44.6815706" lon="8.7389097"><ele>201.5</ele><time>2026-04-18T09:50:19.018Z</time></trkpt><trkpt lat="44.6814648" lon="8.7390219"><ele>202.25</ele><time>2026-04-18T09:50:20.019Z</time></trkpt><trkpt lat="44.6813616" lon="8.7391363"><ele>203.0</ele><time>2026-04-18T09:50:21.019Z</time></trkpt><trkpt lat="44.6812547" lon="8.739255"><ele>203.0</ele><time>2026-04-18T09:50:22.018Z</time></trkpt><trkpt lat="44.681142" lon="8.739368"><ele>203.0</ele><time>2026-04-18T09:50:23.019Z</time></trkpt><trkpt lat="44.6810274" lon="8.7394712"><ele>203.0</ele><time>2026-04-18T09:50:24.018Z</time></trkpt><trkpt lat="44.6809156" lon="8.7395661"><ele>203.0</ele><time>2026-04-18T09:50:25.019Z</time></trkpt><trkpt lat="44.680804" lon="8.7396628"><ele>205.0</ele><time>2026-04-18T09:50:26.019Z</time></trkpt><trkpt lat="44.6806902" lon="8.7397619"><ele>207.0</ele><time>2026-04-18T09:50:27.019Z</time></trkpt><trkpt lat="44.6805703" lon="8.7398558"><ele>209.0</ele><time>2026-04-18T09:50:28.018Z</time></trkpt><trkpt lat="44.6804428" lon="8.7399352"><ele>211.0</ele><time>2026-04-18T09:50:29.018Z</time></trkpt><trkpt lat="44.6803055" lon="8.7399941"><ele>212.25</ele><time>2026-04-18T09:50:30.019Z</time></trkpt><trkpt lat="44.6801625" lon="8.7400393"><ele>213.5</ele><time>2026-04-18T09:50:31.019Z</time></trkpt><trkpt lat="44.6800204" lon="8.7400767"><ele>214.75</ele><time>2026-04-18T09:50:32.018Z</time></trkpt><trkpt lat="44.679885" lon="8.7401095"><ele>216.0</ele><time>2026-04-18T09:50:33.018Z</time></trkpt><trkpt lat="44.6797496" lon="8.7401384"><ele>216.0</ele><time>2026-04-18T09:50:34.018Z</time></trkpt><trkpt lat="44.6796167" lon="8.7401652"><ele>216.0</ele><time>2026-04-18T09:50:35.019Z</time></trkpt><trkpt lat="44.679482" lon="8.7401911"><ele>216.0</ele><time>2026-04-18T09:50:36.019Z</time></trkpt><trkpt lat="44.679345" lon="8.7402145"><ele>216.0</ele><time>2026-04-18T09:50:37.019Z</time></trkpt><trkpt lat="44.6792073" lon="8.7402414"><ele>217.5</ele><time>2026-04-18T09:50:38.019Z</time></trkpt><trkpt lat="44.6790692" lon="8.7402694"><ele>219.0</ele><time>2026-04-18T09:50:39.019Z</time></trkpt><trkpt lat="44.678932" lon="8.7403002"><ele>220.5</ele><time>2026-04-18T09:50:40.018Z</time></trkpt><trkpt lat="44.6787974" lon="8.7403315"><ele>222.0</ele><time>2026-04-18T09:50:41.018Z</time></trkpt><trkpt lat="44.6786636" lon="8.7403581"><ele>222.75</ele><time>2026-04-18T09:50:42.019Z</time></trkpt><trkpt lat="44.6785331" lon="8.7403615"><ele>223.5</ele><time>2026-04-18T09:50:43.018Z</time></trkpt><trkpt lat="44.6784142" lon="8.7403363"><ele>224.25</ele><time>2026-04-18T09:50:44.019Z</time></trkpt><trkpt lat="44.6782999" lon="8.7402957"><ele>225.0</ele><time>2026-04-18T09:50:45.018Z</time></trkpt><trkpt lat="44.6781924" lon="8.7402613"><ele>225.0</ele><time>2026-04-18T09:50:46.018Z</time></trkpt><trkpt lat="44.6780912" lon="8.7402575"><ele>225.0</ele><time>2026-04-18T09:50:47.019Z</time></trkpt><trkpt lat="44.6779892" lon="8.7402818"><ele>225.0</ele><time>2026-04-18T09:50:48.019Z</time></trkpt><trkpt lat="44.677876" lon="8.7403283"><ele>225.0</ele><time>2026-04-18T09:50:49.019Z</time></trkpt><trkpt lat="44.6777591" lon="8.7403899"><ele>225.0</ele><time>2026-04-18T09:50:50.019Z</time></trkpt><trkpt lat="44.6776398" lon="8.7404754"><ele>224.0</ele><time>2026-04-18T09:50:51.018Z</time></trkpt><trkpt lat="44.677527" lon="8.7405946"><ele>223.0</ele><time>2026-04-18T09:50:52.019Z</time></trkpt><trkpt lat="44.6774182" lon="8.7407331"><ele>222.0</ele><time>2026-04-18T09:50:53.019Z</time></trkpt><trkpt lat="44.677303" lon="8.7408743"><ele>221.0</ele><time>2026-04-18T09:50:54.018Z</time></trkpt><trkpt lat="44.6771805" lon="8.7410087"><ele>222.0</ele><time>2026-04-18T09:50:55.018Z</time></trkpt><trkpt lat="44.677055" lon="8.7411264"><ele>223.0</ele><time>2026-04-18T09:50:56.018Z</time></trkpt><trkpt lat="44.6769332" lon="8.7412342"><ele>224.0</ele><time>2026-04-18T09:50:57.019Z</time></trkpt><trkpt lat="44.6768093" lon="8.7413376"><ele>225.0</ele><time>2026-04-18T09:50:58.019Z</time></trkpt><trkpt lat="44.6766732" lon="8.7414251"><ele>225.0</ele><time>2026-04-18T09:50:59.019Z</time></trkpt><trkpt lat="44.676527" lon="8.7414854"><ele>225.0</ele><time>2026-04-18T09:51:00.018Z</time></trkpt><trkpt lat="44.6763784" lon="8.741545"><ele>225.0</ele><time>2026-04-18T09:51:01.019Z</time></trkpt><trkpt lat="44.6762354" lon="8.7416214"><ele>225.0</ele><time>2026-04-18T09:51:02.019Z</time></trkpt><trkpt lat="44.6761041" lon="8.7417299"><ele>225.0</ele><time>2026-04-18T09:51:03.019Z</time></trkpt><trkpt lat="44.6759788" lon="8.7418582"><ele>225.0</ele><time>2026-04-18T09:51:04.019Z</time></trkpt><trkpt lat="44.6758489" lon="8.7419918"><ele>226.0</ele><time>2026-04-18T09:51:05.019Z</time></trkpt><trkpt lat="44.6757118" lon="8.7421141"><ele>227.0</ele><time>2026-04-18T09:51:06.019Z</time></trkpt><trkpt lat="44.675568" lon="8.7422318"><ele>228.0</ele><time>2026-04-18T09:51:07.019Z</time></trkpt><trkpt lat="44.675422" lon="8.7423472"><ele>228.0</ele><time>2026-04-18T09:51:08.018Z</time></trkpt><trkpt lat="44.6752827" lon="8.7424571"><ele>228.0</ele><time>2026-04-18T09:51:09.019Z</time></trkpt><trkpt lat="44.675152" lon="8.7425645"><ele>228.0</ele><time>2026-04-18T09:51:10.018Z</time></trkpt><trkpt lat="44.6750315" lon="8.7426931"><ele>231.33333333333331</ele><time>2026-04-18T09:51:11.019Z</time></trkpt><trkpt lat="44.6749109" lon="8.7428417"><ele>234.66666666666666</ele><time>2026-04-18T09:51:12.018Z</time></trkpt><trkpt lat="44.6747811" lon="8.7429845"><ele>238.0</ele><time>2026-04-18T09:51:13.019Z</time></trkpt><trkpt lat="44.6746353" lon="8.7431116"><ele>238.0</ele><time>2026-04-18T09:51:14.019Z</time></trkpt><trkpt lat="44.6744798" lon="8.7432234"><ele>238.0</ele><time>2026-04-18T09:51:15.018Z</time></trkpt><trkpt lat="44.6743226" lon="8.74333"><ele>238.0</ele><time>2026-04-18T09:51:16.019Z</time></trkpt><trkpt lat="44.6741651" lon="8.7434383"><ele>234.66666666666666</ele><time>2026-04-18T09:51:17.019Z</time></trkpt><trkpt lat="44.6740108" lon="8.7435465"><ele>231.33333333333331</ele><time>2026-04-18T09:51:18.018Z</time></trkpt><trkpt lat="44.6738537" lon="8.7436513"><ele>228.0</ele><time>2026-04-18T09:51:19.019Z</time></trkpt><trkpt lat="44.673686" lon="8.7437372"><ele>234.66666666666669</ele><time>2026-04-18T09:51:20.018Z</time></trkpt><trkpt lat="44.6735132" lon="8.7437986"><ele>241.33333333333334</ele><time>2026-04-18T09:51:21.019Z</time></trkpt><trkpt lat="44.6733411" lon="8.7438456"><ele>248.0</ele><time>2026-04-18T09:51:22.018Z</time></trkpt><trkpt lat="44.6731667" lon="8.74388"><ele>248.0</ele><time>2026-04-18T09:51:23.019Z</time></trkpt><trkpt lat="44.6729895" lon="8.7439065"><ele>248.0</ele><time>2026-04-18T09:51:24.018Z</time></trkpt><trkpt lat="44.6728114" lon="8.7439267"><ele>248.0</ele><time>2026-04-18T09:51:25.018Z</time></trkpt><trkpt lat="44.6726378" lon="8.7439501"><ele>246.33333333333334</ele><time>2026-04-18T09:51:26.019Z</time></trkpt><trkpt lat="44.6724693" lon="8.7439776"><ele>244.66666666666669</ele><time>2026-04-18T09:51:27.019Z</time></trkpt><trkpt lat="44.6723034" lon="8.7439895"><ele>243.0</ele><time>2026-04-18T09:51:28.018Z</time></trkpt><trkpt lat="44.6721357" lon="8.7439774"><ele>243.0</ele><time>2026-04-18T09:51:29.018Z</time></trkpt><trkpt lat="44.6719675" lon="8.7439563"><ele>243.0</ele><time>2026-04-18T09:51:30.018Z</time></trkpt><trkpt lat="44.6718006" lon="8.7439513"><ele>243.0</ele><time>2026-04-18T09:51:31.018Z</time></trkpt><trkpt lat="44.6716392" lon="8.7439632"><ele>243.33333333333331</ele><time>2026-04-18T09:51:32.019Z</time></trkpt><trkpt lat="44.6714849" lon="8.7439796"><ele>243.66666666666666</ele><time>2026-04-18T09:51:33.019Z</time></trkpt><trkpt lat="44.6713336" lon="8.7439905"><ele>244.0</ele><time>2026-04-18T09:51:34.018Z</time></trkpt><trkpt lat="44.6711833" lon="8.7440088"><ele>244.0</ele><time>2026-04-18T09:51:35.019Z</time></trkpt><trkpt lat="44.6710288" lon="8.7440397"><ele>244.0</ele><time>2026-04-18T09:51:36.019Z</time></trkpt><trkpt lat="44.6708776" lon="8.7440756"><ele>244.0</ele><time>2026-04-18T09:51:37.018Z</time></trkpt><trkpt lat="44.6707276" lon="8.7441113"><ele>244.0</ele><time>2026-04-18T09:51:38.019Z</time></trkpt><trkpt lat="44.6705764" lon="8.7441599"><ele>244.0</ele><time>2026-04-18T09:51:39.018Z</time></trkpt><trkpt lat="44.6704263" lon="8.7442342"><ele>244.0</ele><time>2026-04-18T09:51:40.019Z</time></trkpt><trkpt lat="44.6702819" lon="8.7443305"><ele>247.66666666666666</ele><time>2026-04-18T09:51:41.019Z</time></trkpt><trkpt lat="44.6701451" lon="8.7444403"><ele>251.33333333333331</ele><time>2026-04-18T09:51:42.018Z</time></trkpt><trkpt lat="44.6700065" lon="8.7445324"><ele>255.0</ele><time>2026-04-18T09:51:43.019Z</time></trkpt><trkpt lat="44.6698568" lon="8.744592"><ele>255.0</ele><time>2026-04-18T09:51:44.019Z</time></trkpt><trkpt lat="44.6697002" lon="8.7446167"><ele>255.0</ele><time>2026-04-18T09:51:45.018Z</time></trkpt><trkpt lat="44.6695421" lon="8.7446129"><ele>255.0</ele><time>2026-04-18T09:51:46.018Z</time></trkpt><trkpt lat="44.6693865" lon="8.7446018"><ele>255.25</ele><time>2026-04-18T09:51:47.019Z</time></trkpt><trkpt lat="44.6692395" lon="8.7445954"><ele>255.5</ele><time>2026-04-18T09:51:48.019Z</time></trkpt><trkpt lat="44.6691" lon="8.7445895"><ele>255.75</ele><time>2026-04-18T09:51:49.017Z</time></trkpt><trkpt lat="44.6689582" lon="8.744588"><ele>256.0</ele><time>2026-04-18T09:51:50.018Z</time></trkpt><trkpt lat="44.6688182" lon="8.7445978"><ele>256.0</ele><time>2026-04-18T09:51:51.019Z</time></trkpt><trkpt lat="44.6686755" lon="8.7446209"><ele>256.0</ele><time>2026-04-18T09:51:52.019Z</time></trkpt><trkpt lat="44.6685284" lon="8.744649"><ele>256.0</ele><time>2026-04-18T09:51:53.019Z</time></trkpt><trkpt lat="44.6683801" lon="8.7446789"><ele>256.0</ele><time>2026-04-18T09:51:54.018Z</time></trkpt><trkpt lat="44.6682373" lon="8.7447078"><ele>255.5</ele><time>2026-04-18T09:51:55.019Z</time></trkpt><trkpt lat="44.6680955" lon="8.744747"><ele>255.0</ele><time>2026-04-18T09:51:56.019Z</time></trkpt><trkpt lat="44.6679494" lon="8.7447986"><ele>254.5</ele><time>2026-04-18T09:51:57.018Z</time></trkpt><trkpt lat="44.6678051" lon="8.7448712"><ele>254.0</ele><time>2026-04-18T09:51:58.019Z</time></trkpt><trkpt lat="44.6676654" lon="8.7449568"><ele>253.5</ele><time>2026-04-18T09:51:59.019Z</time></trkpt><trkpt lat="44.6675341" lon="8.7450421"><ele>253.0</ele><time>2026-04-18T09:52:00.019Z</time></trkpt><trkpt lat="44.6674047" lon="8.7451237"><ele>252.5</ele><time>2026-04-18T09:52:01.019Z</time></trkpt><trkpt lat="44.6672768" lon="8.7451993"><ele>252.0</ele><time>2026-04-18T09:52:02.019Z</time></trkpt><trkpt lat="44.6671495" lon="8.7452767"><ele>255.25</ele><time>2026-04-18T09:52:03.018Z</time></trkpt><trkpt lat="44.6670216" lon="8.7453555"><ele>258.5</ele><time>2026-04-18T09:52:04.018Z</time></trkpt><trkpt lat="44.6668959" lon="8.7454438"><ele>261.75</ele><time>2026-04-18T09:52:05.018Z</time></trkpt><trkpt lat="44.6667684" lon="8.7455398"><ele>265.0</ele><time>2026-04-18T09:52:06.019Z</time></trkpt><trkpt lat="44.666636" lon="8.7456276"><ele>265.0</ele><time>2026-04-18T09:52:07.019Z</time></trkpt><trkpt lat="44.666498" lon="8.745708"><ele>265.0</ele><time>2026-04-18T09:52:08.018Z</time></trkpt><trkpt lat="44.6663609" lon="8.7457965"><ele>265.0</ele><time>2026-04-18T09:52:09.018Z</time></trkpt><trkpt lat="44.6662276" lon="8.7458976"><ele>264.3333333333333</ele><time>2026-04-18T09:52:10.018Z</time></trkpt><trkpt lat="44.6660938" lon="8.7460004"><ele>263.6666666666667</ele><time>2026-04-18T09:52:11.018Z</time></trkpt><trkpt lat="44.6659554" lon="8.7460934"><ele>263.0</ele><time>2026-04-18T09:52:12.018Z</time></trkpt><trkpt lat="44.6658143" lon="8.7461728"><ele>268.0</ele><time>2026-04-18T09:52:13.019Z</time></trkpt><trkpt lat="44.6656686" lon="8.7462421"><ele>273.0</ele><time>2026-04-18T09:52:14.018Z</time></trkpt><trkpt lat="44.6655206" lon="8.7463044"><ele>278.0</ele><time>2026-04-18T09:52:15.019Z</time></trkpt><trkpt lat="44.6653736" lon="8.7463603"><ele>277.25</ele><time>2026-04-18T09:52:16.019Z</time></trkpt><trkpt lat="44.665231" lon="8.7464117"><ele>276.5</ele><time>2026-04-18T09:52:17.019Z</time></trkpt><trkpt lat="44.6650891" lon="8.7464614"><ele>275.75</ele><time>2026-04-18T09:52:18.018Z</time></trkpt><trkpt lat="44.6649443" lon="8.7465153"><ele>275.0</ele><time>2026-04-18T09:52:19.019Z</time></trkpt><trkpt lat="44.6647978" lon="8.7465707"><ele>275.0</ele><time>2026-04-18T09:52:20.019Z</time></trkpt><trkpt lat="44.6646522" lon="8.7466262"><ele>275.0</ele><time>2026-04-18T09:52:21.019Z</time></trkpt><trkpt lat="44.6645067" lon="8.7466801"><ele>275.0</ele><time>2026-04-18T09:52:22.018Z</time></trkpt><trkpt lat="44.664364" lon="8.7467302"><ele>275.0</ele><time>2026-04-18T09:52:23.019Z</time></trkpt><trkpt lat="44.6642245" lon="8.7467802"><ele>275.25</ele><time>2026-04-18T09:52:24.018Z</time></trkpt><trkpt lat="44.6640875" lon="8.7468294"><ele>275.5</ele><time>2026-04-18T09:52:25.018Z</time></trkpt><trkpt lat="44.6639532" lon="8.7468769"><ele>275.75</ele><time>2026-04-18T09:52:26.019Z</time></trkpt><trkpt lat="44.6638241" lon="8.7469231"><ele>276.0</ele><time>2026-04-18T09:52:27.018Z</time></trkpt><trkpt lat="44.6637008" lon="8.7469704"><ele>278.40000000000003</ele><time>2026-04-18T09:52:28.018Z</time></trkpt><trkpt lat="44.663586" lon="8.7470136"><ele>280.8</ele><time>2026-04-18T09:52:29.019Z</time></trkpt><trkpt lat="44.6634785" lon="8.7470523"><ele>283.20000000000005</ele><time>2026-04-18T09:52:30.019Z</time></trkpt><trkpt lat="44.6633789" lon="8.7470933"><ele>285.6</ele><time>2026-04-18T09:52:31.018Z</time></trkpt><trkpt lat="44.6632873" lon="8.7471359"><ele>288.0</ele><time>2026-04-18T09:52:32.018Z</time></trkpt><trkpt lat="44.6632048" lon="8.7471702"><ele>288.0</ele><time>2026-04-18T09:52:33.019Z</time></trkpt><trkpt lat="44.6631265" lon="8.7471887"><ele>288.0</ele><time>2026-04-18T09:52:34.018Z</time></trkpt><trkpt lat="44.6630473" lon="8.7471853"><ele>288.0</ele><time>2026-04-18T09:52:35.019Z</time></trkpt><trkpt lat="44.6629788" lon="8.7471531"><ele>288.0</ele><time>2026-04-18T09:52:36.018Z</time></trkpt><trkpt lat="44.6629272" lon="8.7470946"><ele>288.0</ele><time>2026-04-18T09:52:37.018Z</time></trkpt><trkpt lat="44.662903" lon="8.7470127"><ele>288.0</ele><time>2026-04-18T09:52:38.019Z</time></trkpt><trkpt lat="44.6629295" lon="8.7468369"><ele>287.6</ele><time>2026-04-18T09:52:40.018Z</time></trkpt><trkpt lat="44.6629769" lon="8.7467319"><ele>287.20000000000005</ele><time>2026-04-18T09:52:41.019Z</time></trkpt><trkpt lat="44.6630346" lon="8.7466166"><ele>286.8</ele><time>2026-04-18T09:52:42.019Z</time></trkpt><trkpt lat="44.6630904" lon="8.7465042"><ele>286.40000000000003</ele><time>2026-04-18T09:52:43.019Z</time></trkpt><trkpt lat="44.6631442" lon="8.7464046"><ele>286.0</ele><time>2026-04-18T09:52:44.019Z</time></trkpt><trkpt lat="44.6631938" lon="8.7463224"><ele>286.0</ele><time>2026-04-18T09:52:45.019Z</time></trkpt><trkpt lat="44.6632617" lon="8.7462299"><ele>286.0</ele><time>2026-04-18T09:52:47.019Z</time></trkpt><trkpt lat="44.6632912" lon="8.7461352"><ele>286.0</ele><time>2026-04-18T09:52:50.019Z</time></trkpt><trkpt lat="44.6632057" lon="8.7461157"><ele>286.0</ele><time>2026-04-18T09:52:53.019Z</time></trkpt><trkpt lat="44.663123" lon="8.7461474"><ele>286.0</ele><time>2026-04-18T09:52:54.019Z</time></trkpt><trkpt lat="44.6630468" lon="8.7461544"><ele>286.0</ele><time>2026-04-18T09:52:55.019Z</time></trkpt><trkpt lat="44.6629703" lon="8.7461558"><ele>286.0</ele><time>2026-04-18T09:52:56.019Z</time></trkpt><trkpt lat="44.6629018" lon="8.7461557"><ele>286.0</ele><time>2026-04-18T09:52:57.018Z</time></trkpt><trkpt lat="44.6628306" lon="8.746147"><ele>286.0</ele><time>2026-04-18T09:52:58.019Z</time></trkpt><trkpt lat="44.6627564" lon="8.7461326"><ele>286.0</ele><time>2026-04-18T09:52:59.019Z</time></trkpt><trkpt lat="44.6626771" lon="8.7461171"><ele>286.0</ele><time>2026-04-18T09:53:00.019Z</time></trkpt><trkpt lat="44.6625957" lon="8.7461012"><ele>286.0</ele><time>2026-04-18T09:53:01.018Z</time></trkpt><trkpt lat="44.6625174" lon="8.7460796"><ele>287.3333333333333</ele><time>2026-04-18T09:53:02.018Z</time></trkpt><trkpt lat="44.6624413" lon="8.7460435"><ele>288.66666666666663</ele><time>2026-04-18T09:53:03.019Z</time></trkpt><trkpt lat="44.6623677" lon="8.7459883"><ele>290.0</ele><time>2026-04-18T09:53:04.019Z</time></trkpt><trkpt lat="44.6622982" lon="8.7459266"><ele>291.3333333333333</ele><time>2026-04-18T09:53:05.018Z</time></trkpt><trkpt lat="44.6622362" lon="8.7458559"><ele>292.6666666666667</ele><time>2026-04-18T09:53:06.019Z</time></trkpt><trkpt lat="44.6621788" lon="8.7457806"><ele>294.0</ele><time>2026-04-18T09:53:07.019Z</time></trkpt><trkpt lat="44.6621225" lon="8.7457066"><ele>294.0</ele><time>2026-04-18T09:53:08.018Z</time></trkpt><trkpt lat="44.6620684" lon="8.7456359"><ele>294.0</ele><time>2026-04-18T09:53:09.019Z</time></trkpt><trkpt lat="44.6620132" lon="8.7455658"><ele>294.0</ele><time>2026-04-18T09:53:10.018Z</time></trkpt><trkpt lat="44.6619572" lon="8.7455024"><ele>294.0</ele><time>2026-04-18T09:53:11.018Z</time></trkpt><trkpt lat="44.661897" lon="8.7454473"><ele>294.0</ele><time>2026-04-18T09:53:12.019Z</time></trkpt><trkpt lat="44.6618361" lon="8.7454067"><ele>294.0</ele><time>2026-04-18T09:53:13.019Z</time></trkpt><trkpt lat="44.6617742" lon="8.7453797"><ele>294.0</ele><time>2026-04-18T09:53:14.018Z</time></trkpt><trkpt lat="44.6616516" lon="8.7453524"><ele>296.2</ele><time>2026-04-18T09:53:16.018Z</time></trkpt><trkpt lat="44.6615303" lon="8.7453637"><ele>298.4</ele><time>2026-04-18T09:53:18.019Z</time></trkpt><trkpt lat="44.6614027" lon="8.7454134"><ele>300.6</ele><time>2026-04-18T09:53:20.019Z</time></trkpt><trkpt lat="44.6613399" lon="8.745463"><ele>302.8</ele><time>2026-04-18T09:53:21.019Z</time></trkpt><trkpt lat="44.6612965" lon="8.7455423"><ele>305.0</ele><time>2026-04-18T09:53:22.019Z</time></trkpt><trkpt lat="44.6612657" lon="8.7456445"><ele>305.0</ele><time>2026-04-18T09:53:23.019Z</time></trkpt><trkpt lat="44.6612491" lon="8.7457576"><ele>305.0</ele><time>2026-04-18T09:53:24.018Z</time></trkpt><trkpt lat="44.66125" lon="8.7458689"><ele>305.0</ele><time>2026-04-18T09:53:25.019Z</time></trkpt><trkpt lat="44.6612563" lon="8.7459794"><ele>305.0</ele><time>2026-04-18T09:53:26.018Z</time></trkpt><trkpt lat="44.6612651" lon="8.7460869"><ele>305.0</ele><time>2026-04-18T09:53:27.019Z</time></trkpt><trkpt lat="44.6612771" lon="8.7461991"><ele>305.0</ele><time>2026-04-18T09:53:28.019Z</time></trkpt><trkpt lat="44.6612869" lon="8.7463203"><ele>306.0</ele><time>2026-04-18T09:53:29.019Z</time></trkpt><trkpt lat="44.6612965" lon="8.7464463"><ele>307.0</ele><time>2026-04-18T09:53:30.019Z</time></trkpt><trkpt lat="44.6613046" lon="8.7465766"><ele>308.0</ele><time>2026-04-18T09:53:31.018Z</time></trkpt><trkpt lat="44.6613102" lon="8.7467163"><ele>309.0</ele><time>2026-04-18T09:53:32.019Z</time></trkpt><trkpt lat="44.6613076" lon="8.7468605"><ele>310.0</ele><time>2026-04-18T09:53:33.019Z</time></trkpt><trkpt lat="44.6613002" lon="8.7470082"><ele>310.4</ele><time>2026-04-18T09:53:34.019Z</time></trkpt><trkpt lat="44.6612823" lon="8.7471533"><ele>310.8</ele><time>2026-04-18T09:53:35.019Z</time></trkpt><trkpt lat="44.661245" lon="8.7472866"><ele>311.2</ele><time>2026-04-18T09:53:36.018Z</time></trkpt><trkpt lat="44.6611861" lon="8.7473945"><ele>311.6</ele><time>2026-04-18T09:53:37.019Z</time></trkpt><trkpt lat="44.6611026" lon="8.7474721"><ele>312.0</ele><time>2026-04-18T09:53:38.019Z</time></trkpt><trkpt lat="44.6609994" lon="8.7475333"><ele>311.75</ele><time>2026-04-18T09:53:39.018Z</time></trkpt><trkpt lat="44.6608825" lon="8.7475889"><ele>311.5</ele><time>2026-04-18T09:53:40.019Z</time></trkpt><trkpt lat="44.6607555" lon="8.7476452"><ele>311.25</ele><time>2026-04-18T09:53:41.019Z</time></trkpt><trkpt lat="44.6606314" lon="8.7477069"><ele>311.0</ele><time>2026-04-18T09:53:42.018Z</time></trkpt><trkpt lat="44.6605069" lon="8.7477738"><ele>311.0</ele><time>2026-04-18T09:53:43.019Z</time></trkpt><trkpt lat="44.6603838" lon="8.7478445"><ele>311.0</ele><time>2026-04-18T09:53:44.018Z</time></trkpt><trkpt lat="44.6602617" lon="8.7479238"><ele>311.0</ele><time>2026-04-18T09:53:45.018Z</time></trkpt><trkpt lat="44.6601383" lon="8.748004"><ele>311.0</ele><time>2026-04-18T09:53:46.018Z</time></trkpt><trkpt lat="44.6600161" lon="8.7480761"><ele>311.25</ele><time>2026-04-18T09:53:47.018Z</time></trkpt><trkpt lat="44.6598918" lon="8.7481364"><ele>311.5</ele><time>2026-04-18T09:53:48.017Z</time></trkpt><trkpt lat="44.6597761" lon="8.7481816"><ele>311.75</ele><time>2026-04-18T09:53:49.018Z</time></trkpt><trkpt lat="44.659674" lon="8.7482095"><ele>312.0</ele><time>2026-04-18T09:53:50.018Z</time></trkpt><trkpt lat="44.6595744" lon="8.7482324"><ele>312.0</ele><time>2026-04-18T09:53:51.019Z</time></trkpt><trkpt lat="44.6594753" lon="8.7482482"><ele>312.0</ele><time>2026-04-18T09:53:52.019Z</time></trkpt><trkpt lat="44.6593707" lon="8.7482704"><ele>312.0</ele><time>2026-04-18T09:53:53.018Z</time></trkpt><trkpt lat="44.6592635" lon="8.7483082"><ele>312.0</ele><time>2026-04-18T09:53:54.019Z</time></trkpt><trkpt lat="44.6591567" lon="8.7483577"><ele>312.0</ele><time>2026-04-18T09:53:55.019Z</time></trkpt><trkpt lat="44.6590472" lon="8.748418"><ele>311.25</ele><time>2026-04-18T09:53:56.018Z</time></trkpt><trkpt lat="44.6589335" lon="8.7484819"><ele>310.5</ele><time>2026-04-18T09:53:57.019Z</time></trkpt><trkpt lat="44.6588156" lon="8.7485502"><ele>309.75</ele><time>2026-04-18T09:53:58.019Z</time></trkpt><trkpt lat="44.6586978" lon="8.748616"><ele>309.0</ele><time>2026-04-18T09:53:59.019Z</time></trkpt><trkpt lat="44.6585798" lon="8.748674"><ele>307.75</ele><time>2026-04-18T09:54:00.018Z</time></trkpt><trkpt lat="44.6584636" lon="8.748732"><ele>306.5</ele><time>2026-04-18T09:54:01.019Z</time></trkpt><trkpt lat="44.6583459" lon="8.7487846"><ele>305.25</ele><time>2026-04-18T09:54:02.019Z</time></trkpt><trkpt lat="44.65822" lon="8.7488216"><ele>304.0</ele><time>2026-04-18T09:54:03.018Z</time></trkpt><trkpt lat="44.6580963" lon="8.748839"><ele>304.0</ele><time>2026-04-18T09:54:04.019Z</time></trkpt><trkpt lat="44.657972" lon="8.7488272"><ele>304.0</ele><time>2026-04-18T09:54:05.019Z</time></trkpt><trkpt lat="44.6578533" lon="8.7487732"><ele>304.0</ele><time>2026-04-18T09:54:06.018Z</time></trkpt><trkpt lat="44.6577278" lon="8.7487166"><ele>304.0</ele><time>2026-04-18T09:54:07.018Z</time></trkpt><trkpt lat="44.6575973" lon="8.7487057"><ele>304.25</ele><time>2026-04-18T09:54:08.019Z</time></trkpt><trkpt lat="44.6574694" lon="8.7487379"><ele>304.5</ele><time>2026-04-18T09:54:09.019Z</time></trkpt><trkpt lat="44.6573457" lon="8.7487825"><ele>304.75</ele><time>2026-04-18T09:54:10.018Z</time></trkpt><trkpt lat="44.657229" lon="8.7488233"><ele>305.0</ele><time>2026-04-18T09:54:11.019Z</time></trkpt><trkpt lat="44.6571149" lon="8.7488395"><ele>305.0</ele><time>2026-04-18T09:54:12.018Z</time></trkpt><trkpt lat="44.6570028" lon="8.7488235"><ele>305.0</ele><time>2026-04-18T09:54:13.019Z</time></trkpt><trkpt lat="44.6568905" lon="8.7487793"><ele>305.0</ele><time>2026-04-18T09:54:14.019Z</time></trkpt><trkpt lat="44.6567841" lon="8.7487287"><ele>305.0</ele><time>2026-04-18T09:54:15.019Z</time></trkpt><trkpt lat="44.6566861" lon="8.7486878"><ele>305.0</ele><time>2026-04-18T09:54:16.019Z</time></trkpt><trkpt lat="44.6565949" lon="8.7486551"><ele>305.75</ele><time>2026-04-18T09:54:17.018Z</time></trkpt><trkpt lat="44.6565037" lon="8.7486325"><ele>306.5</ele><time>2026-04-18T09:54:18.018Z</time></trkpt><trkpt lat="44.6563967" lon="8.74861"><ele>307.25</ele><time>2026-04-18T09:54:19.018Z</time></trkpt><trkpt lat="44.6562674" lon="8.7485641"><ele>308.0</ele><time>2026-04-18T09:54:20.019Z</time></trkpt><trkpt lat="44.6561292" lon="8.7485063"><ele>309.0</ele><time>2026-04-18T09:54:21.019Z</time></trkpt><trkpt lat="44.6559797" lon="8.7484642"><ele>310.0</ele><time>2026-04-18T09:54:22.018Z</time></trkpt><trkpt lat="44.6558341" lon="8.7484422"><ele>311.0</ele><time>2026-04-18T09:54:23.018Z</time></trkpt><trkpt lat="44.6556961" lon="8.7484382"><ele>312.0</ele><time>2026-04-18T09:54:24.018Z</time></trkpt><trkpt lat="44.6555618" lon="8.7484589"><ele>312.0</ele><time>2026-04-18T09:54:25.018Z</time></trkpt><trkpt lat="44.6554229" lon="8.7485129"><ele>312.0</ele><time>2026-04-18T09:54:26.019Z</time></trkpt><trkpt lat="44.6552808" lon="8.7485936"><ele>312.0</ele><time>2026-04-18T09:54:27.019Z</time></trkpt><trkpt lat="44.6551345" lon="8.7486867"><ele>312.25</ele><time>2026-04-18T09:54:28.018Z</time></trkpt><trkpt lat="44.6549945" lon="8.7487815"><ele>312.5</ele><time>2026-04-18T09:54:29.019Z</time></trkpt><trkpt lat="44.6548626" lon="8.7488812"><ele>312.75</ele><time>2026-04-18T09:54:30.018Z</time></trkpt><trkpt lat="44.6547503" lon="8.7489929"><ele>313.0</ele><time>2026-04-18T09:54:31.019Z</time></trkpt><trkpt lat="44.6546641" lon="8.7491266"><ele>313.0</ele><time>2026-04-18T09:54:32.019Z</time></trkpt><trkpt lat="44.6546083" lon="8.7492897"><ele>313.0</ele><time>2026-04-18T09:54:33.018Z</time></trkpt><trkpt lat="44.6545827" lon="8.7494857"><ele>313.0</ele><time>2026-04-18T09:54:34.019Z</time></trkpt><trkpt lat="44.6545594" lon="8.7497013"><ele>313.0</ele><time>2026-04-18T09:54:35.019Z</time></trkpt><trkpt lat="44.6545202" lon="8.7499231"><ele>315.66666666666663</ele><time>2026-04-18T09:54:36.018Z</time></trkpt><trkpt lat="44.6544703" lon="8.7501437"><ele>318.3333333333333</ele><time>2026-04-18T09:54:37.018Z</time></trkpt><trkpt lat="44.6544113" lon="8.7503538"><ele>321.0</ele><time>2026-04-18T09:54:38.019Z</time></trkpt><trkpt lat="44.6543535" lon="8.750545"><ele>321.0</ele><time>2026-04-18T09:54:39.019Z</time></trkpt><trkpt lat="44.6542983" lon="8.7507122"><ele>321.0</ele><time>2026-04-18T09:54:40.019Z</time></trkpt><trkpt lat="44.6542331" lon="8.7508514"><ele>321.0</ele><time>2026-04-18T09:54:41.019Z</time></trkpt><trkpt lat="44.6541547" lon="8.7509621"><ele>321.0</ele><time>2026-04-18T09:54:42.018Z</time></trkpt><trkpt lat="44.6540705" lon="8.7510387"><ele>319.6</ele><time>2026-04-18T09:54:43.018Z</time></trkpt><trkpt lat="44.6539837" lon="8.7511041"><ele>318.20000000000005</ele><time>2026-04-18T09:54:44.018Z</time></trkpt><trkpt lat="44.6538981" lon="8.7511832"><ele>316.79999999999995</ele><time>2026-04-18T09:54:45.019Z</time></trkpt><trkpt lat="44.6538224" lon="8.7512947"><ele>315.4</ele><time>2026-04-18T09:54:46.019Z</time></trkpt><trkpt lat="44.6537644" lon="8.7514278"><ele>314.0</ele><time>2026-04-18T09:54:47.019Z</time></trkpt><trkpt lat="44.6537223" lon="8.7515599"><ele>314.0</ele><time>2026-04-18T09:54:48.018Z</time></trkpt><trkpt lat="44.6536882" lon="8.7516896"><ele>314.0</ele><time>2026-04-18T09:54:49.018Z</time></trkpt><trkpt lat="44.6536637" lon="8.7518126"><ele>314.0</ele><time>2026-04-18T09:54:50.019Z</time></trkpt><trkpt lat="44.6536459" lon="8.7519078"><ele>314.0</ele><time>2026-04-18T09:54:51.019Z</time></trkpt><trkpt lat="44.65362" lon="8.7520281"><ele>314.0</ele><time>2026-04-18T09:54:53.019Z</time></trkpt><trkpt lat="44.6535396" lon="8.7520122"><ele>314.0</ele><time>2026-04-18T09:54:56.019Z</time></trkpt><trkpt lat="44.6535429" lon="8.7518676"><ele>314.0</ele><time>2026-04-18T09:54:58.019Z</time></trkpt><trkpt lat="44.6535717" lon="8.7517777"><ele>314.0</ele><time>2026-04-18T09:54:59.019Z</time></trkpt><trkpt lat="44.6535994" lon="8.7516918"><ele>314.0</ele><time>2026-04-18T09:55:00.018Z</time></trkpt><trkpt lat="44.6536187" lon="8.7515815"><ele>314.0</ele><time>2026-04-18T09:55:01.019Z</time></trkpt><trkpt lat="44.6536424" lon="8.751452"><ele>314.0</ele><time>2026-04-18T09:55:02.019Z</time></trkpt><trkpt lat="44.6536812" lon="8.7513148"><ele>314.0</ele><time>2026-04-18T09:55:03.019Z</time></trkpt><trkpt lat="44.6537375" lon="8.7511844"><ele>314.0</ele><time>2026-04-18T09:55:04.019Z</time></trkpt><trkpt lat="44.6538071" lon="8.7510692"><ele>314.0</ele><time>2026-04-18T09:55:05.018Z</time></trkpt><trkpt lat="44.6538707" lon="8.7509602"><ele>314.0</ele><time>2026-04-18T09:55:06.018Z</time></trkpt><trkpt lat="44.6539155" lon="8.750827"><ele>314.0</ele><time>2026-04-18T09:55:07.018Z</time></trkpt><trkpt lat="44.6539449" lon="8.7506714"><ele>314.0</ele><time>2026-04-18T09:55:08.019Z</time></trkpt><trkpt lat="44.65397" lon="8.7505079"><ele>315.4</ele><time>2026-04-18T09:55:09.019Z</time></trkpt><trkpt lat="44.6539941" lon="8.7503638"><ele>316.79999999999995</ele><time>2026-04-18T09:55:10.018Z</time></trkpt><trkpt lat="44.6540069" lon="8.7502356"><ele>318.20000000000005</ele><time>2026-04-18T09:55:11.019Z</time></trkpt><trkpt lat="44.6539944" lon="8.7501203"><ele>319.6</ele><time>2026-04-18T09:55:12.019Z</time></trkpt><trkpt lat="44.6539556" lon="8.7500056"><ele>321.0</ele><time>2026-04-18T09:55:13.018Z</time></trkpt><trkpt lat="44.6538875" lon="8.7499014"><ele>322.0</ele><time>2026-04-18T09:55:14.018Z</time></trkpt><trkpt lat="44.6537934" lon="8.7497938"><ele>323.0</ele><time>2026-04-18T09:55:15.019Z</time></trkpt><trkpt lat="44.6536817" lon="8.7496626"><ele>324.0</ele><time>2026-04-18T09:55:16.019Z</time></trkpt><trkpt lat="44.6535808" lon="8.7495139"><ele>325.0</ele><time>2026-04-18T09:55:17.018Z</time></trkpt><trkpt lat="44.6534991" lon="8.7493609"><ele>328.0</ele><time>2026-04-18T09:55:18.019Z</time></trkpt><trkpt lat="44.6534205" lon="8.7491997"><ele>331.0</ele><time>2026-04-18T09:55:19.019Z</time></trkpt><trkpt lat="44.6533435" lon="8.7490375"><ele>334.0</ele><time>2026-04-18T09:55:20.019Z</time></trkpt><trkpt lat="44.6532695" lon="8.7488753"><ele>337.0</ele><time>2026-04-18T09:55:21.018Z</time></trkpt><trkpt lat="44.6531924" lon="8.7487237"><ele>337.0</ele><time>2026-04-18T09:55:22.019Z</time></trkpt><trkpt lat="44.6531077" lon="8.7485953"><ele>337.0</ele><time>2026-04-18T09:55:23.018Z</time></trkpt><trkpt lat="44.6530138" lon="8.748484"><ele>337.0</ele><time>2026-04-18T09:55:24.019Z</time></trkpt><trkpt lat="44.6529129" lon="8.7483839"><ele>337.0</ele><time>2026-04-18T09:55:25.019Z</time></trkpt><trkpt lat="44.6528155" lon="8.7482828"><ele>338.5</ele><time>2026-04-18T09:55:26.019Z</time></trkpt><trkpt lat="44.6527382" lon="8.7481558"><ele>340.0</ele><time>2026-04-18T09:55:27.018Z</time></trkpt><trkpt lat="44.652688" lon="8.748006"><ele>341.5</ele><time>2026-04-18T09:55:28.019Z</time></trkpt><trkpt lat="44.6526534" lon="8.7478548"><ele>343.0</ele><time>2026-04-18T09:55:29.019Z</time></trkpt><trkpt lat="44.6526212" lon="8.7477137"><ele>341.59999999999997</ele><time>2026-04-18T09:55:30.019Z</time></trkpt><trkpt lat="44.6525846" lon="8.7475905"><ele>340.2</ele><time>2026-04-18T09:55:31.019Z</time></trkpt><trkpt lat="44.6525488" lon="8.7474923"><ele>338.8</ele><time>2026-04-18T09:55:32.019Z</time></trkpt><trkpt lat="44.652499" lon="8.7473635"><ele>337.4</ele><time>2026-04-18T09:55:34.019Z</time></trkpt><trkpt lat="44.6524443" lon="8.7472902"><ele>336.0</ele><time>2026-04-18T09:55:37.018Z</time></trkpt><trkpt lat="44.6523426" lon="8.7473131"><ele>336.0</ele><time>2026-04-18T09:55:40.019Z</time></trkpt><trkpt lat="44.6522519" lon="8.7474489"><ele>336.0</ele><time>2026-04-18T09:55:42.019Z</time></trkpt><trkpt lat="44.6522048" lon="8.7475403"><ele>336.0</ele><time>2026-04-18T09:55:43.019Z</time></trkpt><trkpt lat="44.6521583" lon="8.7476491"><ele>336.0</ele><time>2026-04-18T09:55:44.018Z</time></trkpt><trkpt lat="44.6521242" lon="8.7477776"><ele>336.0</ele><time>2026-04-18T09:55:45.018Z</time></trkpt><trkpt lat="44.6520966" lon="8.7479242"><ele>337.25</ele><time>2026-04-18T09:55:46.018Z</time></trkpt><trkpt lat="44.6520666" lon="8.7480869"><ele>338.5</ele><time>2026-04-18T09:55:47.019Z</time></trkpt><trkpt lat="44.6520284" lon="8.7482525"><ele>339.75</ele><time>2026-04-18T09:55:48.019Z</time></trkpt><trkpt lat="44.6519847" lon="8.7484137"><ele>341.0</ele><time>2026-04-18T09:55:49.019Z</time></trkpt><trkpt lat="44.6519373" lon="8.7485676"><ele>341.0</ele><time>2026-04-18T09:55:50.019Z</time></trkpt><trkpt lat="44.6518766" lon="8.7487078"><ele>341.0</ele><time>2026-04-18T09:55:51.018Z</time></trkpt><trkpt lat="44.651796" lon="8.7488173"><ele>341.0</ele><time>2026-04-18T09:55:52.018Z</time></trkpt><trkpt lat="44.6516962" lon="8.7488751"><ele>341.0</ele><time>2026-04-18T09:55:53.019Z</time></trkpt><trkpt lat="44.6515849" lon="8.7488753"><ele>341.0</ele><time>2026-04-18T09:55:54.019Z</time></trkpt><trkpt lat="44.6514604" lon="8.7488494"><ele>341.0</ele><time>2026-04-18T09:55:55.019Z</time></trkpt><trkpt lat="44.6513214" lon="8.7488351"><ele>341.0</ele><time>2026-04-18T09:55:56.019Z</time></trkpt><trkpt lat="44.6511795" lon="8.7488642"><ele>341.0</ele><time>2026-04-18T09:55:57.018Z</time></trkpt><trkpt lat="44.651048" lon="8.7489117"><ele>341.0</ele><time>2026-04-18T09:55:58.019Z</time></trkpt><trkpt lat="44.6509306" lon="8.7489886"><ele>338.25</ele><time>2026-04-18T09:55:59.018Z</time></trkpt><trkpt lat="44.6508244" lon="8.7491093"><ele>335.5</ele><time>2026-04-18T09:56:00.019Z</time></trkpt><trkpt lat="44.6507068" lon="8.7492273"><ele>332.75</ele><time>2026-04-18T09:56:01.018Z</time></trkpt><trkpt lat="44.650565" lon="8.7493082"><ele>330.0</ele><time>2026-04-18T09:56:02.019Z</time></trkpt><trkpt lat="44.6504135" lon="8.7493494"><ele>332.0</ele><time>2026-04-18T09:56:03.018Z</time></trkpt><trkpt lat="44.6502652" lon="8.7493746"><ele>334.0</ele><time>2026-04-18T09:56:04.019Z</time></trkpt><trkpt lat="44.6501274" lon="8.7494056"><ele>336.0</ele><time>2026-04-18T09:56:05.019Z</time></trkpt><trkpt lat="44.6500004" lon="8.7494558"><ele>338.0</ele><time>2026-04-18T09:56:06.018Z</time></trkpt><trkpt lat="44.6498767" lon="8.7495376"><ele>338.0</ele><time>2026-04-18T09:56:07.018Z</time></trkpt><trkpt lat="44.6497501" lon="8.7496364"><ele>338.0</ele><time>2026-04-18T09:56:08.018Z</time></trkpt><trkpt lat="44.6496212" lon="8.749748"><ele>338.0</ele><time>2026-04-18T09:56:09.018Z</time></trkpt><trkpt lat="44.6494871" lon="8.7498725"><ele>334.6666666666667</ele><time>2026-04-18T09:56:10.019Z</time></trkpt><trkpt lat="44.649355" lon="8.7500046"><ele>331.3333333333333</ele><time>2026-04-18T09:56:11.018Z</time></trkpt><trkpt lat="44.649227" lon="8.750138"><ele>328.0</ele><time>2026-04-18T09:56:12.018Z</time></trkpt><trkpt lat="44.6491024" lon="8.7502644"><ele>328.0</ele><time>2026-04-18T09:56:13.019Z</time></trkpt><trkpt lat="44.6489747" lon="8.7503772"><ele>328.0</ele><time>2026-04-18T09:56:14.019Z</time></trkpt><trkpt lat="44.648837" lon="8.7504603"><ele>328.0</ele><time>2026-04-18T09:56:15.018Z</time></trkpt><trkpt lat="44.6486936" lon="8.7505154"><ele>328.0</ele><time>2026-04-18T09:56:16.019Z</time></trkpt><trkpt lat="44.6485443" lon="8.7505464"><ele>328.0</ele><time>2026-04-18T09:56:17.018Z</time></trkpt><trkpt lat="44.6483955" lon="8.7505641"><ele>328.0</ele><time>2026-04-18T09:56:18.019Z</time></trkpt><trkpt lat="44.6482473" lon="8.7505795"><ele>328.0</ele><time>2026-04-18T09:56:19.018Z</time></trkpt><trkpt lat="44.6480993" lon="8.750595"><ele>328.0</ele><time>2026-04-18T09:56:20.019Z</time></trkpt><trkpt lat="44.6479501" lon="8.7506143"><ele>328.0</ele><time>2026-04-18T09:56:21.018Z</time></trkpt><trkpt lat="44.647801" lon="8.7506367"><ele>328.0</ele><time>2026-04-18T09:56:22.018Z</time></trkpt><trkpt lat="44.6476489" lon="8.750652"><ele>328.0</ele><time>2026-04-18T09:56:23.019Z</time></trkpt><trkpt lat="44.6475029" lon="8.7506445"><ele>328.0</ele><time>2026-04-18T09:56:24.018Z</time></trkpt><trkpt lat="44.6473626" lon="8.7506304"><ele>330.25</ele><time>2026-04-18T09:56:25.018Z</time></trkpt><trkpt lat="44.6472263" lon="8.7506414"><ele>332.5</ele><time>2026-04-18T09:56:26.019Z</time></trkpt><trkpt lat="44.6470941" lon="8.7506969"><ele>334.75</ele><time>2026-04-18T09:56:27.018Z</time></trkpt><trkpt lat="44.6469603" lon="8.7507556"><ele>337.0</ele><time>2026-04-18T09:56:28.018Z</time></trkpt><trkpt lat="44.6468295" lon="8.7508086"><ele>337.0</ele><time>2026-04-18T09:56:29.019Z</time></trkpt><trkpt lat="44.6466984" lon="8.7508412"><ele>337.0</ele><time>2026-04-18T09:56:30.019Z</time></trkpt><trkpt lat="44.6465768" lon="8.7508452"><ele>337.0</ele><time>2026-04-18T09:56:31.018Z</time></trkpt><trkpt lat="44.6464734" lon="8.7508157"><ele>337.0</ele><time>2026-04-18T09:56:32.019Z</time></trkpt><trkpt lat="44.6463902" lon="8.7507502"><ele>337.0</ele><time>2026-04-18T09:56:33.018Z</time></trkpt><trkpt lat="44.6463298" lon="8.750659"><ele>337.0</ele><time>2026-04-18T09:56:34.018Z</time></trkpt><trkpt lat="44.6462875" lon="8.7505628"><ele>337.0</ele><time>2026-04-18T09:56:35.018Z</time></trkpt><trkpt lat="44.6462543" lon="8.7504703"><ele>337.0</ele><time>2026-04-18T09:56:36.019Z</time></trkpt><trkpt lat="44.6462267" lon="8.7503842"><ele>337.0</ele><time>2026-04-18T09:56:37.019Z</time></trkpt><trkpt lat="44.6461852" lon="8.750256"><ele>337.0</ele><time>2026-04-18T09:56:39.019Z</time></trkpt><trkpt lat="44.646147" lon="8.7501606"><ele>338.8</ele><time>2026-04-18T09:56:41.019Z</time></trkpt><trkpt lat="44.6460905" lon="8.7500357"><ele>340.6</ele><time>2026-04-18T09:56:43.019Z</time></trkpt><trkpt lat="44.6460434" lon="8.7499552"><ele>342.40000000000003</ele><time>2026-04-18T09:56:44.019Z</time></trkpt><trkpt lat="44.6459806" lon="8.7498777"><ele>344.20000000000005</ele><time>2026-04-18T09:56:45.018Z</time></trkpt><trkpt lat="44.6458945" lon="8.7498143"><ele>346.0</ele><time>2026-04-18T09:56:46.019Z</time></trkpt><trkpt lat="44.6457932" lon="8.7497824"><ele>346.0</ele><time>2026-04-18T09:56:47.019Z</time></trkpt><trkpt lat="44.6456843" lon="8.7497824"><ele>346.0</ele><time>2026-04-18T09:56:48.019Z</time></trkpt><trkpt lat="44.6455736" lon="8.749789"><ele>346.0</ele><time>2026-04-18T09:56:49.019Z</time></trkpt><trkpt lat="44.6454518" lon="8.7497996"><ele>346.0</ele><time>2026-04-18T09:56:50.018Z</time></trkpt><trkpt lat="44.6453213" lon="8.7498155"><ele>347.0</ele><time>2026-04-18T09:56:51.018Z</time></trkpt><trkpt lat="44.6451868" lon="8.7498304"><ele>348.0</ele><time>2026-04-18T09:56:52.019Z</time></trkpt><trkpt lat="44.6450477" lon="8.7498479"><ele>349.0</ele><time>2026-04-18T09:56:53.018Z</time></trkpt><trkpt lat="44.6449177" lon="8.7498631"><ele>350.0</ele><time>2026-04-18T09:56:54.018Z</time></trkpt><trkpt lat="44.644808" lon="8.7498767"><ele>350.0</ele><time>2026-04-18T09:56:55.018Z</time></trkpt><trkpt lat="44.6447114" lon="8.7498823"><ele>350.0</ele><time>2026-04-18T09:56:56.018Z</time></trkpt><trkpt lat="44.644615" lon="8.7498841"><ele>350.0</ele><time>2026-04-18T09:56:57.019Z</time></trkpt><trkpt lat="44.6445176" lon="8.7498789"><ele>350.0</ele><time>2026-04-18T09:56:58.019Z</time></trkpt><trkpt lat="44.6444117" lon="8.7498683"><ele>350.0</ele><time>2026-04-18T09:56:59.019Z</time></trkpt><trkpt lat="44.6442998" lon="8.7498502"><ele>348.5</ele><time>2026-04-18T09:57:00.018Z</time></trkpt><trkpt lat="44.6441844" lon="8.7498203"><ele>347.0</ele><time>2026-04-18T09:57:01.019Z</time></trkpt><trkpt lat="44.6440655" lon="8.7497778"><ele>345.5</ele><time>2026-04-18T09:57:02.019Z</time></trkpt><trkpt lat="44.6439442" lon="8.7497251"><ele>344.0</ele><time>2026-04-18T09:57:03.018Z</time></trkpt><trkpt lat="44.6438176" lon="8.7496555"><ele>344.0</ele><time>2026-04-18T09:57:04.018Z</time></trkpt><trkpt lat="44.6436841" lon="8.7495699"><ele>344.0</ele><time>2026-04-18T09:57:05.018Z</time></trkpt><trkpt lat="44.6435466" lon="8.749476"><ele>344.0</ele><time>2026-04-18T09:57:06.019Z</time></trkpt><trkpt lat="44.6434058" lon="8.7493705"><ele>341.6666666666667</ele><time>2026-04-18T09:57:07.018Z</time></trkpt><trkpt lat="44.6432671" lon="8.7492602"><ele>339.3333333333333</ele><time>2026-04-18T09:57:08.018Z</time></trkpt><trkpt lat="44.643129" lon="8.7491514"><ele>337.0</ele><time>2026-04-18T09:57:09.019Z</time></trkpt><trkpt lat="44.6429815" lon="8.7490732"><ele>337.0</ele><time>2026-04-18T09:57:10.019Z</time></trkpt><trkpt lat="44.6428215" lon="8.7490213"><ele>337.0</ele><time>2026-04-18T09:57:11.018Z</time></trkpt><trkpt lat="44.6426581" lon="8.7489808"><ele>337.0</ele><time>2026-04-18T09:57:12.019Z</time></trkpt><trkpt lat="44.6424881" lon="8.7489434"><ele>335.3333333333333</ele><time>2026-04-18T09:57:13.018Z</time></trkpt><trkpt lat="44.6423215" lon="8.7489101"><ele>333.6666666666667</ele><time>2026-04-18T09:57:14.019Z</time></trkpt><trkpt lat="44.6421645" lon="8.7488837"><ele>332.0</ele><time>2026-04-18T09:57:15.019Z</time></trkpt><trkpt lat="44.6420074" lon="8.7488571"><ele>331.0</ele><time>2026-04-18T09:57:16.019Z</time></trkpt><trkpt lat="44.6418478" lon="8.7488288"><ele>330.0</ele><time>2026-04-18T09:57:17.019Z</time></trkpt><trkpt lat="44.641684" lon="8.7488012"><ele>329.0</ele><time>2026-04-18T09:57:18.019Z</time></trkpt><trkpt lat="44.6415162" lon="8.7487762"><ele>329.0</ele><time>2026-04-18T09:57:19.019Z</time></trkpt><trkpt lat="44.6413499" lon="8.7487504"><ele>329.0</ele><time>2026-04-18T09:57:20.019Z</time></trkpt><trkpt lat="44.6411892" lon="8.7487244"><ele>329.0</ele><time>2026-04-18T09:57:21.018Z</time></trkpt><trkpt lat="44.6410364" lon="8.748697"><ele>328.6666666666667</ele><time>2026-04-18T09:57:22.018Z</time></trkpt><trkpt lat="44.6408909" lon="8.7486674"><ele>328.3333333333333</ele><time>2026-04-18T09:57:23.019Z</time></trkpt><trkpt lat="44.6407437" lon="8.7486367"><ele>328.0</ele><time>2026-04-18T09:57:24.018Z</time></trkpt><trkpt lat="44.6405912" lon="8.7486027"><ele>328.0</ele><time>2026-04-18T09:57:25.019Z</time></trkpt><trkpt lat="44.6404353" lon="8.7485656"><ele>328.0</ele><time>2026-04-18T09:57:26.018Z</time></trkpt><trkpt lat="44.6402748" lon="8.7485269"><ele>328.0</ele><time>2026-04-18T09:57:27.018Z</time></trkpt><trkpt lat="44.6401082" lon="8.748489"><ele>327.0</ele><time>2026-04-18T09:57:28.018Z</time></trkpt><trkpt lat="44.6399382" lon="8.7484449"><ele>326.0</ele><time>2026-04-18T09:57:29.019Z</time></trkpt><trkpt lat="44.6397689" lon="8.7484002"><ele>325.0</ele><time>2026-04-18T09:57:30.018Z</time></trkpt><trkpt lat="44.6395996" lon="8.7483568"><ele>324.0</ele><time>2026-04-18T09:57:31.018Z</time></trkpt><trkpt lat="44.6394274" lon="8.7483147"><ele>323.0</ele><time>2026-04-18T09:57:32.019Z</time></trkpt><trkpt lat="44.6392552" lon="8.7482724"><ele>322.0</ele><time>2026-04-18T09:57:33.018Z</time></trkpt><trkpt lat="44.6390825" lon="8.7482298"><ele>322.0</ele><time>2026-04-18T09:57:34.018Z</time></trkpt><trkpt lat="44.63891" lon="8.748189"><ele>322.0</ele><time>2026-04-18T09:57:35.018Z</time></trkpt><trkpt lat="44.6387374" lon="8.7481493"><ele>322.0</ele><time>2026-04-18T09:57:36.018Z</time></trkpt><trkpt lat="44.6385694" lon="8.7481104"><ele>321.3333333333333</ele><time>2026-04-18T09:57:37.018Z</time></trkpt><trkpt lat="44.6384067" lon="8.7480709"><ele>320.6666666666667</ele><time>2026-04-18T09:57:38.018Z</time></trkpt><trkpt lat="44.6382479" lon="8.7480324"><ele>320.0</ele><time>2026-04-18T09:57:39.018Z</time></trkpt><trkpt lat="44.6380946" lon="8.7479959"><ele>320.0</ele><time>2026-04-18T09:57:40.018Z</time></trkpt><trkpt lat="44.637944" lon="8.747963"><ele>320.0</ele><time>2026-04-18T09:57:41.018Z</time></trkpt><trkpt lat="44.637799" lon="8.7479313"><ele>320.0</ele><time>2026-04-18T09:57:42.019Z</time></trkpt><trkpt lat="44.6376625" lon="8.7479011"><ele>320.0</ele><time>2026-04-18T09:57:43.019Z</time></trkpt><trkpt lat="44.6375355" lon="8.7478702"><ele>320.0</ele><time>2026-04-18T09:57:44.019Z</time></trkpt><trkpt lat="44.6374262" lon="8.7478386"><ele>320.0</ele><time>2026-04-18T09:57:45.018Z</time></trkpt><trkpt lat="44.6373403" lon="8.7478063"><ele>320.0</ele><time>2026-04-18T09:57:46.018Z</time></trkpt><trkpt lat="44.6372799" lon="8.7477791"><ele>320.0</ele><time>2026-04-18T09:57:47.019Z</time></trkpt><trkpt lat="44.6372042" lon="8.7477595"><ele>320.0</ele><time>2026-04-18T09:57:49.019Z</time></trkpt><trkpt lat="44.6371364" lon="8.7478115"><ele>320.0</ele><time>2026-04-18T09:57:52.019Z</time></trkpt><trkpt lat="44.6371416" lon="8.7479286"><ele>320.0</ele><time>2026-04-18T09:57:54.019Z</time></trkpt><trkpt lat="44.637168" lon="8.7480198"><ele>320.0</ele><time>2026-04-18T09:57:55.018Z</time></trkpt><trkpt lat="44.6371996" lon="8.7481412"><ele>320.0</ele><time>2026-04-18T09:57:56.019Z</time></trkpt><trkpt lat="44.6372354" lon="8.7482756"><ele>320.0</ele><time>2026-04-18T09:57:57.019Z</time></trkpt><trkpt lat="44.6372676" lon="8.7484091"><ele>320.0</ele><time>2026-04-18T09:57:58.019Z</time></trkpt><trkpt lat="44.6372993" lon="8.7485536"><ele>320.75</ele><time>2026-04-18T09:57:59.019Z</time></trkpt><trkpt lat="44.6373314" lon="8.7487084"><ele>321.5</ele><time>2026-04-18T09:58:00.018Z</time></trkpt><trkpt lat="44.6373665" lon="8.7488735"><ele>322.25</ele><time>2026-04-18T09:58:01.019Z</time></trkpt><trkpt lat="44.6374014" lon="8.7490475"><ele>323.0</ele><time>2026-04-18T09:58:02.019Z</time></trkpt><trkpt lat="44.6374348" lon="8.7492306"><ele>323.5</ele><time>2026-04-18T09:58:03.019Z</time></trkpt><trkpt lat="44.6374705" lon="8.7494208"><ele>324.0</ele><time>2026-04-18T09:58:04.018Z</time></trkpt><trkpt lat="44.6375072" lon="8.7496121"><ele>324.5</ele><time>2026-04-18T09:58:05.019Z</time></trkpt><trkpt lat="44.6375438" lon="8.7497978"><ele>325.0</ele><time>2026-04-18T09:58:06.019Z</time></trkpt><trkpt lat="44.6375774" lon="8.7499844"><ele>325.0</ele><time>2026-04-18T09:58:07.018Z</time></trkpt><trkpt lat="44.637614" lon="8.7501754"><ele>325.0</ele><time>2026-04-18T09:58:08.019Z</time></trkpt><trkpt lat="44.6376506" lon="8.7503625"><ele>325.0</ele><time>2026-04-18T09:58:09.018Z</time></trkpt><trkpt lat="44.6376875" lon="8.7505499"><ele>325.0</ele><time>2026-04-18T09:58:10.019Z</time></trkpt><trkpt lat="44.6377272" lon="8.7507342"><ele>325.75</ele><time>2026-04-18T09:58:11.019Z</time></trkpt><trkpt lat="44.6377689" lon="8.7509135"><ele>326.5</ele><time>2026-04-18T09:58:12.019Z</time></trkpt><trkpt lat="44.6378086" lon="8.7510882"><ele>327.25</ele><time>2026-04-18T09:58:13.018Z</time></trkpt><trkpt lat="44.6378389" lon="8.7512573"><ele>328.0</ele><time>2026-04-18T09:58:14.019Z</time></trkpt><trkpt lat="44.6378555" lon="8.751422"><ele>331.0</ele><time>2026-04-18T09:58:15.019Z</time></trkpt><trkpt lat="44.637854" lon="8.7515885"><ele>334.0</ele><time>2026-04-18T09:58:16.018Z</time></trkpt><trkpt lat="44.637835" lon="8.7517539"><ele>337.0</ele><time>2026-04-18T09:58:17.018Z</time></trkpt><trkpt lat="44.6378061" lon="8.7519153"><ele>340.0</ele><time>2026-04-18T09:58:18.018Z</time></trkpt><trkpt lat="44.6377709" lon="8.7520757"><ele>340.0</ele><time>2026-04-18T09:58:19.019Z</time></trkpt><trkpt lat="44.6377297" lon="8.752228"><ele>340.0</ele><time>2026-04-18T09:58:20.019Z</time></trkpt><trkpt lat="44.6376851" lon="8.7523666"><ele>340.0</ele><time>2026-04-18T09:58:21.019Z</time></trkpt><trkpt lat="44.6376455" lon="8.7525"><ele>340.0</ele><time>2026-04-18T09:58:22.019Z</time></trkpt><trkpt lat="44.6376235" lon="8.7526393"><ele>340.0</ele><time>2026-04-18T09:58:23.018Z</time></trkpt><trkpt lat="44.6376262" lon="8.7527854"><ele>340.25</ele><time>2026-04-18T09:58:24.018Z</time></trkpt><trkpt lat="44.6376522" lon="8.7529346"><ele>340.5</ele><time>2026-04-18T09:58:25.019Z</time></trkpt><trkpt lat="44.6376955" lon="8.7530862"><ele>340.75</ele><time>2026-04-18T09:58:26.018Z</time></trkpt><trkpt lat="44.6377444" lon="8.753247"><ele>341.0</ele><time>2026-04-18T09:58:27.019Z</time></trkpt><trkpt lat="44.6377928" lon="8.7534185"><ele>346.5</ele><time>2026-04-18T09:58:28.018Z</time></trkpt><trkpt lat="44.6378298" lon="8.7536023"><ele>352.0</ele><time>2026-04-18T09:58:29.018Z</time></trkpt><trkpt lat="44.63785" lon="8.7537875"><ele>357.5</ele><time>2026-04-18T09:58:30.019Z</time></trkpt><trkpt lat="44.6378575" lon="8.753955"><ele>363.0</ele><time>2026-04-18T09:58:31.018Z</time></trkpt><trkpt lat="44.6378425" lon="8.7541056"><ele>361.4</ele><time>2026-04-18T09:58:32.019Z</time></trkpt><trkpt lat="44.6377996" lon="8.7542322"><ele>359.79999999999995</ele><time>2026-04-18T09:58:33.019Z</time></trkpt><trkpt lat="44.63773" lon="8.7543245"><ele>358.2</ele><time>2026-04-18T09:58:34.019Z</time></trkpt><trkpt lat="44.63764" lon="8.7543862"><ele>356.6</ele><time>2026-04-18T09:58:35.019Z</time></trkpt><trkpt lat="44.6375462" lon="8.754439"><ele>355.0</ele><time>2026-04-18T09:58:36.018Z</time></trkpt><trkpt lat="44.6374616" lon="8.7544925"><ele>355.0</ele><time>2026-04-18T09:58:37.018Z</time></trkpt><trkpt lat="44.6374069" lon="8.7545779"><ele>355.0</ele><time>2026-04-18T09:58:38.018Z</time></trkpt><trkpt lat="44.6373785" lon="8.7546818"><ele>355.0</ele><time>2026-04-18T09:58:39.019Z</time></trkpt><trkpt lat="44.6373842" lon="8.7548036"><ele>355.0</ele><time>2026-04-18T09:58:40.019Z</time></trkpt><trkpt lat="44.6374236" lon="8.75494"><ele>355.0</ele><time>2026-04-18T09:58:41.019Z</time></trkpt><trkpt lat="44.6374757" lon="8.7551007"><ele>356.5</ele><time>2026-04-18T09:58:42.019Z</time></trkpt><trkpt lat="44.6375222" lon="8.7552804"><ele>358.0</ele><time>2026-04-18T09:58:43.019Z</time></trkpt><trkpt lat="44.6375578" lon="8.7554668"><ele>359.5</ele><time>2026-04-18T09:58:44.018Z</time></trkpt><trkpt lat="44.6375858" lon="8.7556416"><ele>361.0</ele><time>2026-04-18T09:58:45.018Z</time></trkpt><trkpt lat="44.6375959" lon="8.7558072"><ele>361.0</ele><time>2026-04-18T09:58:46.018Z</time></trkpt><trkpt lat="44.6375758" lon="8.7559622"><ele>361.0</ele><time>2026-04-18T09:58:47.019Z</time></trkpt><trkpt lat="44.6375354" lon="8.7561079"><ele>361.0</ele><time>2026-04-18T09:58:48.019Z</time></trkpt><trkpt lat="44.6374787" lon="8.7562368"><ele>361.0</ele><time>2026-04-18T09:58:49.019Z</time></trkpt><trkpt lat="44.6374278" lon="8.7563548"><ele>361.0</ele><time>2026-04-18T09:58:50.018Z</time></trkpt><trkpt lat="44.6374068" lon="8.7564664"><ele>361.20000000000005</ele><time>2026-04-18T09:58:51.019Z</time></trkpt><trkpt lat="44.6374043" lon="8.75661"><ele>361.40000000000003</ele><time>2026-04-18T09:58:53.019Z</time></trkpt><trkpt lat="44.6373287" lon="8.7567052"><ele>361.6</ele><time>2026-04-18T09:58:55.018Z</time></trkpt><trkpt lat="44.637266" lon="8.7567561"><ele>361.8</ele><time>2026-04-18T09:58:56.019Z</time></trkpt><trkpt lat="44.6371927" lon="8.756822"><ele>362.0</ele><time>2026-04-18T09:58:57.019Z</time></trkpt><trkpt lat="44.6371086" lon="8.7568985"><ele>361.0</ele><time>2026-04-18T09:58:58.019Z</time></trkpt><trkpt lat="44.637019" lon="8.7569709"><ele>360.0</ele><time>2026-04-18T09:58:59.019Z</time></trkpt><trkpt lat="44.636925" lon="8.7570396"><ele>359.0</ele><time>2026-04-18T09:59:00.019Z</time></trkpt><trkpt lat="44.6368227" lon="8.757106"><ele>358.0</ele><time>2026-04-18T09:59:01.018Z</time></trkpt><trkpt lat="44.636718" lon="8.7571642"><ele>357.0</ele><time>2026-04-18T09:59:02.019Z</time></trkpt><trkpt lat="44.6366094" lon="8.7572123"><ele>357.0</ele><time>2026-04-18T09:59:03.019Z</time></trkpt><trkpt lat="44.6365033" lon="8.757255"><ele>357.0</ele><time>2026-04-18T09:59:04.019Z</time></trkpt><trkpt lat="44.6363966" lon="8.7572964"><ele>357.0</ele><time>2026-04-18T09:59:05.018Z</time></trkpt><trkpt lat="44.6362897" lon="8.7573353"><ele>357.0</ele><time>2026-04-18T09:59:06.018Z</time></trkpt><trkpt lat="44.6361814" lon="8.7573705"><ele>357.0</ele><time>2026-04-18T09:59:07.019Z</time></trkpt><trkpt lat="44.6360674" lon="8.7573868"><ele>356.5</ele><time>2026-04-18T09:59:08.018Z</time></trkpt><trkpt lat="44.6359569" lon="8.7573768"><ele>356.0</ele><time>2026-04-18T09:59:09.019Z</time></trkpt><trkpt lat="44.635846" lon="8.7573499"><ele>355.5</ele><time>2026-04-18T09:59:10.019Z</time></trkpt><trkpt lat="44.6357338" lon="8.7573152"><ele>355.0</ele><time>2026-04-18T09:59:11.018Z</time></trkpt><trkpt lat="44.6356225" lon="8.757274"><ele>355.0</ele><time>2026-04-18T09:59:12.018Z</time></trkpt><trkpt lat="44.6355103" lon="8.7572332"><ele>355.0</ele><time>2026-04-18T09:59:13.018Z</time></trkpt><trkpt lat="44.6353998" lon="8.7572042"><ele>355.0</ele><time>2026-04-18T09:59:14.018Z</time></trkpt><trkpt lat="44.6352837" lon="8.7572077"><ele>355.0</ele><time>2026-04-18T09:59:15.019Z</time></trkpt><trkpt lat="44.63517" lon="8.7572457"><ele>356.0</ele><time>2026-04-18T09:59:16.019Z</time></trkpt><trkpt lat="44.6350636" lon="8.7573071"><ele>357.0</ele><time>2026-04-18T09:59:17.019Z</time></trkpt><trkpt lat="44.6349566" lon="8.7573744"><ele>358.0</ele><time>2026-04-18T09:59:18.017Z</time></trkpt><trkpt lat="44.6348441" lon="8.757416"><ele>359.0</ele><time>2026-04-18T09:59:19.018Z</time></trkpt><trkpt lat="44.634738" lon="8.7574492"><ele>359.0</ele><time>2026-04-18T09:59:20.018Z</time></trkpt><trkpt lat="44.6346317" lon="8.757489"><ele>359.0</ele><time>2026-04-18T09:59:21.018Z</time></trkpt><trkpt lat="44.6345304" lon="8.7575424"><ele>359.0</ele><time>2026-04-18T09:59:22.018Z</time></trkpt><trkpt lat="44.6344339" lon="8.757613"><ele>359.0</ele><time>2026-04-18T09:59:23.019Z</time></trkpt><trkpt lat="44.6343362" lon="8.757691"><ele>359.0</ele><time>2026-04-18T09:59:24.018Z</time></trkpt><trkpt lat="44.6342386" lon="8.7577691"><ele>359.25</ele><time>2026-04-18T09:59:25.018Z</time></trkpt><trkpt lat="44.6341358" lon="8.7578504"><ele>359.5</ele><time>2026-04-18T09:59:26.019Z</time></trkpt><trkpt lat="44.6340321" lon="8.7579339"><ele>359.75</ele><time>2026-04-18T09:59:27.019Z</time></trkpt><trkpt lat="44.633926" lon="8.7580104"><ele>360.0</ele><time>2026-04-18T09:59:28.018Z</time></trkpt><trkpt lat="44.6338155" lon="8.7580665"><ele>360.0</ele><time>2026-04-18T09:59:29.019Z</time></trkpt><trkpt lat="44.6336967" lon="8.7580957"><ele>360.0</ele><time>2026-04-18T09:59:30.019Z</time></trkpt><trkpt lat="44.6335806" lon="8.7581178"><ele>360.0</ele><time>2026-04-18T09:59:31.018Z</time></trkpt><trkpt lat="44.6334699" lon="8.7581741"><ele>360.0</ele><time>2026-04-18T09:59:32.019Z</time></trkpt><trkpt lat="44.6333633" lon="8.7582779"><ele>362.0</ele><time>2026-04-18T09:59:33.018Z</time></trkpt><trkpt lat="44.6332732" lon="8.7584045"><ele>364.0</ele><time>2026-04-18T09:59:34.018Z</time></trkpt><trkpt lat="44.6332095" lon="8.7585403"><ele>366.0</ele><time>2026-04-18T09:59:35.019Z</time></trkpt><trkpt lat="44.6331834" lon="8.7586899"><ele>368.0</ele><time>2026-04-18T09:59:36.019Z</time></trkpt><trkpt lat="44.6332025" lon="8.7588315"><ele>368.0</ele><time>2026-04-18T09:59:37.018Z</time></trkpt><trkpt lat="44.6332527" lon="8.7589632"><ele>368.0</ele><time>2026-04-18T09:59:38.018Z</time></trkpt><trkpt lat="44.6333278" lon="8.7590831"><ele>368.0</ele><time>2026-04-18T09:59:39.018Z</time></trkpt><trkpt lat="44.6334272" lon="8.7591723"><ele>368.0</ele><time>2026-04-18T09:59:40.019Z</time></trkpt><trkpt lat="44.6335498" lon="8.7592267"><ele>366.5</ele><time>2026-04-18T09:59:41.019Z</time></trkpt><trkpt lat="44.6336745" lon="8.7592871"><ele>365.0</ele><time>2026-04-18T09:59:42.017Z</time></trkpt><trkpt lat="44.6337793" lon="8.7593776"><ele>363.5</ele><time>2026-04-18T09:59:43.019Z</time></trkpt><trkpt lat="44.6338724" lon="8.7594839"><ele>362.0</ele><time>2026-04-18T09:59:44.018Z</time></trkpt><trkpt lat="44.633953" lon="8.7596321"><ele>362.0</ele><time>2026-04-18T09:59:45.019Z</time></trkpt><trkpt lat="44.6340283" lon="8.7598024"><ele>362.0</ele><time>2026-04-18T09:59:46.019Z</time></trkpt><trkpt lat="44.6341118" lon="8.759979"><ele>362.0</ele><time>2026-04-18T09:59:47.018Z</time></trkpt><trkpt lat="44.6341849" lon="8.7601596"><ele>362.0</ele><time>2026-04-18T09:59:48.019Z</time></trkpt><trkpt lat="44.6342386" lon="8.7603463"><ele>361.75</ele><time>2026-04-18T09:59:49.017Z</time></trkpt><trkpt lat="44.6342769" lon="8.7605419"><ele>361.5</ele><time>2026-04-18T09:59:50.019Z</time></trkpt><trkpt lat="44.634311" lon="8.7607436"><ele>361.25</ele><time>2026-04-18T09:59:51.018Z</time></trkpt><trkpt lat="44.6343427" lon="8.760943"><ele>361.0</ele><time>2026-04-18T09:59:52.019Z</time></trkpt><trkpt lat="44.6343716" lon="8.7611325"><ele>361.0</ele><time>2026-04-18T09:59:53.019Z</time></trkpt><trkpt lat="44.6343826" lon="8.761296"><ele>361.0</ele><time>2026-04-18T09:59:54.018Z</time></trkpt><trkpt lat="44.6343608" lon="8.7614295"><ele>361.0</ele><time>2026-04-18T09:59:55.018Z</time></trkpt><trkpt lat="44.6343112" lon="8.7615346"><ele>361.0</ele><time>2026-04-18T09:59:56.018Z</time></trkpt><trkpt lat="44.6342416" lon="8.7616135"><ele>361.0</ele><time>2026-04-18T09:59:57.019Z</time></trkpt><trkpt lat="44.6341621" lon="8.7616721"><ele>361.0</ele><time>2026-04-18T09:59:58.018Z</time></trkpt><trkpt lat="44.6340994" lon="8.7617593"><ele>361.0</ele><time>2026-04-18T09:59:59.018Z</time></trkpt><trkpt lat="44.6340608" lon="8.7618749"><ele>361.0</ele><time>2026-04-18T10:00:00.019Z</time></trkpt><trkpt lat="44.6340368" lon="8.7620144"><ele>361.0</ele><time>2026-04-18T10:00:01.019Z</time></trkpt><trkpt lat="44.6340119" lon="8.762163"><ele>361.0</ele><time>2026-04-18T10:00:02.019Z</time></trkpt><trkpt lat="44.6339904" lon="8.7622981"><ele>360.4</ele><time>2026-04-18T10:00:03.019Z</time></trkpt><trkpt lat="44.6340002" lon="8.7624244"><ele>359.8</ele><time>2026-04-18T10:00:04.019Z</time></trkpt><trkpt lat="44.6340483" lon="8.7625264"><ele>359.2</ele><time>2026-04-18T10:00:05.019Z</time></trkpt><trkpt lat="44.6341275" lon="8.7626096"><ele>358.59999999999997</ele><time>2026-04-18T10:00:06.019Z</time></trkpt><trkpt lat="44.6342239" lon="8.7626903"><ele>358.0</ele><time>2026-04-18T10:00:07.019Z</time></trkpt><trkpt lat="44.6343302" lon="8.7627753"><ele>359.5</ele><time>2026-04-18T10:00:08.019Z</time></trkpt><trkpt lat="44.6344391" lon="8.7628636"><ele>361.0</ele><time>2026-04-18T10:00:09.019Z</time></trkpt><trkpt lat="44.6345493" lon="8.7629532"><ele>362.5</ele><time>2026-04-18T10:00:10.019Z</time></trkpt><trkpt lat="44.6346569" lon="8.7630369"><ele>364.0</ele><time>2026-04-18T10:00:11.018Z</time></trkpt><trkpt lat="44.634758" lon="8.7631189"><ele>364.0</ele><time>2026-04-18T10:00:12.019Z</time></trkpt><trkpt lat="44.6348521" lon="8.7631976"><ele>364.0</ele><time>2026-04-18T10:00:13.018Z</time></trkpt><trkpt lat="44.6349348" lon="8.7632856"><ele>364.0</ele><time>2026-04-18T10:00:14.018Z</time></trkpt><trkpt lat="44.635006" lon="8.7633863"><ele>364.0</ele><time>2026-04-18T10:00:15.018Z</time></trkpt><trkpt lat="44.6350626" lon="8.7635023"><ele>364.0</ele><time>2026-04-18T10:00:16.019Z</time></trkpt><trkpt lat="44.6351046" lon="8.7636371"><ele>363.4</ele><time>2026-04-18T10:00:17.018Z</time></trkpt><trkpt lat="44.6351595" lon="8.7637696"><ele>362.79999999999995</ele><time>2026-04-18T10:00:18.019Z</time></trkpt><trkpt lat="44.6352482" lon="8.7638694"><ele>362.20000000000005</ele><time>2026-04-18T10:00:19.018Z</time></trkpt><trkpt lat="44.6353333" lon="8.7639511"><ele>361.6</ele><time>2026-04-18T10:00:20.019Z</time></trkpt><trkpt lat="44.6354107" lon="8.7640225"><ele>361.0</ele><time>2026-04-18T10:00:21.019Z</time></trkpt><trkpt lat="44.6354826" lon="8.7640871"><ele>361.0</ele><time>2026-04-18T10:00:22.019Z</time></trkpt><trkpt lat="44.6355366" lon="8.764162"><ele>361.0</ele><time>2026-04-18T10:00:23.018Z</time></trkpt><trkpt lat="44.6355748" lon="8.7642483"><ele>361.0</ele><time>2026-04-18T10:00:24.019Z</time></trkpt><trkpt lat="44.6356139" lon="8.7643337"><ele>361.0</ele><time>2026-04-18T10:00:25.018Z</time></trkpt><trkpt lat="44.6356644" lon="8.764405"><ele>361.0</ele><time>2026-04-18T10:00:26.019Z</time></trkpt><trkpt lat="44.6357178" lon="8.7644557"><ele>361.0</ele><time>2026-04-18T10:00:27.019Z</time></trkpt><trkpt lat="44.6358027" lon="8.7644871"><ele>361.0</ele><time>2026-04-18T10:00:29.019Z</time></trkpt><trkpt lat="44.6358695" lon="8.7644457"><ele>361.66666666666663</ele><time>2026-04-18T10:06:05.019Z</time></trkpt><trkpt lat="44.6359298" lon="8.7644937"><ele>362.3333333333333</ele><time>2026-04-18T10:06:08.018Z</time></trkpt><trkpt lat="44.6359803" lon="8.764596"><ele>363.0</ele><time>2026-04-18T10:06:11.018Z</time></trkpt><trkpt lat="44.6360037" lon="8.7647144"><ele>363.6666666666667</ele><time>2026-04-18T10:06:14.018Z</time></trkpt><trkpt lat="44.6360025" lon="8.7648038"><ele>364.33333333333337</ele><time>2026-04-18T10:06:16.019Z</time></trkpt><trkpt lat="44.635987" lon="8.764903"><ele>365.0</ele><time>2026-04-18T10:06:18.018Z</time></trkpt><trkpt lat="44.6359419" lon="8.7649989"><ele>365.0</ele><time>2026-04-18T10:06:20.019Z</time></trkpt><trkpt lat="44.6358874" lon="8.7651028"><ele>365.0</ele><time>2026-04-18T10:06:22.019Z</time></trkpt><trkpt lat="44.6358188" lon="8.7652052"><ele>365.0</ele><time>2026-04-18T10:06:24.018Z</time></trkpt><trkpt lat="44.6357486" lon="8.7653037"><ele>365.0</ele><time>2026-04-18T10:06:26.018Z</time></trkpt><trkpt lat="44.6356699" lon="8.7654034"><ele>365.0</ele><time>2026-04-18T10:06:28.019Z</time></trkpt><trkpt lat="44.6355821" lon="8.7655239"><ele>364.33333333333337</ele><time>2026-04-18T10:06:30.019Z</time></trkpt><trkpt lat="44.635526" lon="8.7656031"><ele>363.6666666666667</ele><time>2026-04-18T10:06:31.019Z</time></trkpt><trkpt lat="44.6354655" lon="8.7656837"><ele>363.0</ele><time>2026-04-18T10:06:32.019Z</time></trkpt><trkpt lat="44.635408" lon="8.765768"><ele>362.3333333333333</ele><time>2026-04-18T10:06:33.019Z</time></trkpt><trkpt lat="44.635349" lon="8.7658576"><ele>361.66666666666663</ele><time>2026-04-18T10:06:34.019Z</time></trkpt><trkpt lat="44.6352756" lon="8.7659356"><ele>361.0</ele><time>2026-04-18T10:06:35.019Z</time></trkpt><trkpt lat="44.6351944" lon="8.7660058"><ele>362.5</ele><time>2026-04-18T10:06:36.019Z</time></trkpt><trkpt lat="44.6351179" lon="8.7660823"><ele>364.0</ele><time>2026-04-18T10:06:37.019Z</time></trkpt><trkpt lat="44.6350607" lon="8.7661807"><ele>365.5</ele><time>2026-04-18T10:06:38.019Z</time></trkpt><trkpt lat="44.6350316" lon="8.7662969"><ele>367.0</ele><time>2026-04-18T10:06:39.018Z</time></trkpt><trkpt lat="44.6350332" lon="8.7664078"><ele>368.5</ele><time>2026-04-18T10:06:40.018Z</time></trkpt><trkpt lat="44.6350553" lon="8.7665008"><ele>370.0</ele><time>2026-04-18T10:06:41.019Z</time></trkpt><trkpt lat="44.6351006" lon="8.766592"><ele>370.0</ele><time>2026-04-18T10:06:42.019Z</time></trkpt><trkpt lat="44.6351612" lon="8.7666977"><ele>370.0</ele><time>2026-04-18T10:06:43.019Z</time></trkpt><trkpt lat="44.6352269" lon="8.7668299"><ele>370.0</ele><time>2026-04-18T10:06:44.018Z</time></trkpt><trkpt lat="44.6352948" lon="8.7669729"><ele>370.0</ele><time>2026-04-18T10:06:45.019Z</time></trkpt><trkpt lat="44.6353604" lon="8.7671195"><ele>365.4</ele><time>2026-04-18T10:06:46.019Z</time></trkpt><trkpt lat="44.6354202" lon="8.7672605"><ele>360.8</ele><time>2026-04-18T10:06:47.019Z</time></trkpt><trkpt lat="44.6354686" lon="8.7673976"><ele>356.20000000000005</ele><time>2026-04-18T10:06:48.019Z</time></trkpt><trkpt lat="44.6354911" lon="8.7675182"><ele>351.6</ele><time>2026-04-18T10:06:49.019Z</time></trkpt><trkpt lat="44.6354888" lon="8.767642"><ele>347.0</ele><time>2026-04-18T10:06:50.019Z</time></trkpt><trkpt lat="44.6354586" lon="8.7677536"><ele>347.0</ele><time>2026-04-18T10:06:51.019Z</time></trkpt><trkpt lat="44.6353927" lon="8.7678399"><ele>347.0</ele><time>2026-04-18T10:06:52.018Z</time></trkpt><trkpt lat="44.6353039" lon="8.7679001"><ele>347.0</ele><time>2026-04-18T10:06:53.019Z</time></trkpt><trkpt lat="44.635198" lon="8.7679287"><ele>347.0</ele><time>2026-04-18T10:06:54.019Z</time></trkpt><trkpt lat="44.6350917" lon="8.7679494"><ele>347.0</ele><time>2026-04-18T10:06:55.019Z</time></trkpt><trkpt lat="44.6349969" lon="8.7680067"><ele>350.20000000000005</ele><time>2026-04-18T10:06:56.018Z</time></trkpt><trkpt lat="44.6349281" lon="8.7680838"><ele>353.4</ele><time>2026-04-18T10:06:57.019Z</time></trkpt><trkpt lat="44.6348723" lon="8.7681827"><ele>356.6</ele><time>2026-04-18T10:06:58.019Z</time></trkpt><trkpt lat="44.6348339" lon="8.7683106"><ele>359.79999999999995</ele><time>2026-04-18T10:06:59.018Z</time></trkpt><trkpt lat="44.6348198" lon="8.7684417"><ele>363.0</ele><time>2026-04-18T10:07:00.018Z</time></trkpt><trkpt lat="44.6348283" lon="8.7685631"><ele>365.59999999999997</ele><time>2026-04-18T10:07:01.019Z</time></trkpt><trkpt lat="44.6348626" lon="8.7686653"><ele>368.2</ele><time>2026-04-18T10:07:02.019Z</time></trkpt><trkpt lat="44.63492" lon="8.7687448"><ele>370.8</ele><time>2026-04-18T10:07:03.019Z</time></trkpt><trkpt lat="44.6350046" lon="8.7688082"><ele>373.4</ele><time>2026-04-18T10:07:04.019Z</time></trkpt><trkpt lat="44.635112" lon="8.7688612"><ele>376.0</ele><time>2026-04-18T10:07:05.019Z</time></trkpt><trkpt lat="44.6352339" lon="8.7688967"><ele>372.6</ele><time>2026-04-18T10:07:06.019Z</time></trkpt><trkpt lat="44.6353526" lon="8.7689068"><ele>369.20000000000005</ele><time>2026-04-18T10:07:07.019Z</time></trkpt><trkpt lat="44.6354592" lon="8.7688916"><ele>365.79999999999995</ele><time>2026-04-18T10:07:08.019Z</time></trkpt><trkpt lat="44.6355483" lon="8.7688853"><ele>362.4</ele><time>2026-04-18T10:07:09.018Z</time></trkpt><trkpt lat="44.6356214" lon="8.7689138"><ele>359.0</ele><time>2026-04-18T10:07:10.019Z</time></trkpt><trkpt lat="44.6356685" lon="8.7689772"><ele>359.0</ele><time>2026-04-18T10:07:11.019Z</time></trkpt><trkpt lat="44.6356924" lon="8.7690669"><ele>359.0</ele><time>2026-04-18T10:07:12.019Z</time></trkpt><trkpt lat="44.6356938" lon="8.7691911"><ele>359.0</ele><time>2026-04-18T10:07:13.019Z</time></trkpt><trkpt lat="44.6356777" lon="8.7693555"><ele>359.0</ele><time>2026-04-18T10:07:14.019Z</time></trkpt><trkpt lat="44.6356453" lon="8.7695667"><ele>359.0</ele><time>2026-04-18T10:07:15.018Z</time></trkpt><trkpt lat="44.6356138" lon="8.7697826"><ele>360.0</ele><time>2026-04-18T10:07:16.018Z</time></trkpt><trkpt lat="44.635587" lon="8.7699772"><ele>361.0</ele><time>2026-04-18T10:07:17.019Z</time></trkpt><trkpt lat="44.635582" lon="8.7701578"><ele>362.0</ele><time>2026-04-18T10:07:18.018Z</time></trkpt><trkpt lat="44.6356082" lon="8.7703345"><ele>363.0</ele><time>2026-04-18T10:07:19.018Z</time></trkpt><trkpt lat="44.6356592" lon="8.7705089"><ele>365.25</ele><time>2026-04-18T10:07:20.018Z</time></trkpt><trkpt lat="44.6357221" lon="8.7706882"><ele>367.5</ele><time>2026-04-18T10:07:21.019Z</time></trkpt><trkpt lat="44.6357836" lon="8.7708655"><ele>369.75</ele><time>2026-04-18T10:07:22.019Z</time></trkpt><trkpt lat="44.6358353" lon="8.7710287"><ele>372.0</ele><time>2026-04-18T10:07:23.018Z</time></trkpt><trkpt lat="44.6358699" lon="8.7711827"><ele>373.5</ele><time>2026-04-18T10:07:24.018Z</time></trkpt><trkpt lat="44.6358765" lon="8.7713378"><ele>375.0</ele><time>2026-04-18T10:07:25.019Z</time></trkpt><trkpt lat="44.6358715" lon="8.7715084"><ele>376.5</ele><time>2026-04-18T10:07:26.018Z</time></trkpt><trkpt lat="44.6358521" lon="8.7717026"><ele>378.0</ele><time>2026-04-18T10:07:27.019Z</time></trkpt><trkpt lat="44.6358358" lon="8.7719119"><ele>378.75</ele><time>2026-04-18T10:07:28.019Z</time></trkpt><trkpt lat="44.6358336" lon="8.7721137"><ele>379.5</ele><time>2026-04-18T10:07:29.019Z</time></trkpt><trkpt lat="44.6358486" lon="8.7722939"><ele>380.25</ele><time>2026-04-18T10:07:30.019Z</time></trkpt><trkpt lat="44.6358634" lon="8.7724488"><ele>381.0</ele><time>2026-04-18T10:07:31.018Z</time></trkpt><trkpt lat="44.6358459" lon="8.7725794"><ele>378.5</ele><time>2026-04-18T10:07:32.019Z</time></trkpt><trkpt lat="44.6357969" lon="8.7727005"><ele>376.0</ele><time>2026-04-18T10:07:33.019Z</time></trkpt><trkpt lat="44.6357158" lon="8.7728272"><ele>373.5</ele><time>2026-04-18T10:07:34.019Z</time></trkpt><trkpt lat="44.6356239" lon="8.7729623"><ele>371.0</ele><time>2026-04-18T10:07:35.018Z</time></trkpt><trkpt lat="44.6355285" lon="8.7731088"><ele>371.0</ele><time>2026-04-18T10:07:36.019Z</time></trkpt><trkpt lat="44.6354238" lon="8.7732438"><ele>371.0</ele><time>2026-04-18T10:07:37.019Z</time></trkpt><trkpt lat="44.6353057" lon="8.773357"><ele>371.0</ele><time>2026-04-18T10:07:38.019Z</time></trkpt><trkpt lat="44.6351707" lon="8.7734409"><ele>371.0</ele><time>2026-04-18T10:07:39.018Z</time></trkpt><trkpt lat="44.6350398" lon="8.773505"><ele>373.6</ele><time>2026-04-18T10:07:40.018Z</time></trkpt><trkpt lat="44.6349207" lon="8.77357"><ele>376.20000000000005</ele><time>2026-04-18T10:07:41.019Z</time></trkpt><trkpt lat="44.634828" lon="8.7736477"><ele>378.79999999999995</ele><time>2026-04-18T10:07:42.018Z</time></trkpt><trkpt lat="44.6347725" lon="8.7737405"><ele>381.4</ele><time>2026-04-18T10:07:43.018Z</time></trkpt><trkpt lat="44.6347505" lon="8.7738486"><ele>384.0</ele><time>2026-04-18T10:07:44.019Z</time></trkpt><trkpt lat="44.6347642" lon="8.7739658"><ele>384.0</ele><time>2026-04-18T10:07:45.019Z</time></trkpt><trkpt lat="44.6348152" lon="8.7740732"><ele>384.0</ele><time>2026-04-18T10:07:46.019Z</time></trkpt><trkpt lat="44.6349006" lon="8.7741616"><ele>384.0</ele><time>2026-04-18T10:07:47.019Z</time></trkpt><trkpt lat="44.6350025" lon="8.7742408"><ele>384.0</ele><time>2026-04-18T10:07:48.018Z</time></trkpt><trkpt lat="44.6350828" lon="8.7743198"><ele>384.0</ele><time>2026-04-18T10:07:49.019Z</time></trkpt><trkpt lat="44.63512" lon="8.7744143"><ele>383.5</ele><time>2026-04-18T10:07:50.019Z</time></trkpt><trkpt lat="44.635117" lon="8.7745109"><ele>383.0</ele><time>2026-04-18T10:07:51.018Z</time></trkpt><trkpt lat="44.6350794" lon="8.7745897"><ele>382.5</ele><time>2026-04-18T10:07:52.019Z</time></trkpt><trkpt lat="44.6350227" lon="8.774661"><ele>382.0</ele><time>2026-04-18T10:07:53.019Z</time></trkpt><trkpt lat="44.63496" lon="8.774739"><ele>381.5</ele><time>2026-04-18T10:07:54.018Z</time></trkpt><trkpt lat="44.634889" lon="8.7748287"><ele>381.0</ele><time>2026-04-18T10:07:55.018Z</time></trkpt><trkpt lat="44.6348134" lon="8.7749201"><ele>381.0</ele><time>2026-04-18T10:07:56.018Z</time></trkpt><trkpt lat="44.6347423" lon="8.7750009"><ele>381.0</ele><time>2026-04-18T10:07:57.019Z</time></trkpt><trkpt lat="44.6346664" lon="8.7750678"><ele>381.0</ele><time>2026-04-18T10:07:58.019Z</time></trkpt><trkpt lat="44.6345646" lon="8.775122"><ele>381.0</ele><time>2026-04-18T10:07:59.018Z</time></trkpt><trkpt lat="44.6344514" lon="8.7751559"><ele>381.0</ele><time>2026-04-18T10:08:00.019Z</time></trkpt><trkpt lat="44.634346" lon="8.7751855"><ele>384.4</ele><time>2026-04-18T10:08:01.019Z</time></trkpt><trkpt lat="44.6342565" lon="8.7752224"><ele>387.8</ele><time>2026-04-18T10:08:02.019Z</time></trkpt><trkpt lat="44.6341828" lon="8.775282"><ele>391.2</ele><time>2026-04-18T10:08:03.019Z</time></trkpt><trkpt lat="44.6341276" lon="8.7753734"><ele>394.59999999999997</ele><time>2026-04-18T10:08:04.018Z</time></trkpt><trkpt lat="44.6340927" lon="8.7755115"><ele>398.0</ele><time>2026-04-18T10:08:05.019Z</time></trkpt><trkpt lat="44.6340741" lon="8.7756831"><ele>398.0</ele><time>2026-04-18T10:08:06.018Z</time></trkpt><trkpt lat="44.6340533" lon="8.7758463"><ele>398.0</ele><time>2026-04-18T10:08:07.019Z</time></trkpt><trkpt lat="44.634056" lon="8.7760005"><ele>398.0</ele><time>2026-04-18T10:08:08.019Z</time></trkpt><trkpt lat="44.6340831" lon="8.776142"><ele>398.0</ele><time>2026-04-18T10:08:09.018Z</time></trkpt><trkpt lat="44.6341116" lon="8.7762704"><ele>398.0</ele><time>2026-04-18T10:08:10.018Z</time></trkpt><trkpt lat="44.6341148" lon="8.7763934"><ele>396.79999999999995</ele><time>2026-04-18T10:08:11.019Z</time></trkpt><trkpt lat="44.6340854" lon="8.7764913"><ele>395.6</ele><time>2026-04-18T10:08:12.018Z</time></trkpt><trkpt lat="44.6340215" lon="8.776572"><ele>394.4</ele><time>2026-04-18T10:08:13.019Z</time></trkpt><trkpt lat="44.6339205" lon="8.7766532"><ele>393.20000000000005</ele><time>2026-04-18T10:08:14.019Z</time></trkpt><trkpt lat="44.6337973" lon="8.7767265"><ele>392.0</ele><time>2026-04-18T10:08:15.018Z</time></trkpt><trkpt lat="44.6336723" lon="8.7767589"><ele>395.6</ele><time>2026-04-18T10:08:16.019Z</time></trkpt><trkpt lat="44.6335553" lon="8.7767696"><ele>399.20000000000005</ele><time>2026-04-18T10:08:17.018Z</time></trkpt><trkpt lat="44.6334603" lon="8.776811"><ele>402.8</ele><time>2026-04-18T10:08:18.019Z</time></trkpt><trkpt lat="44.6333922" lon="8.7768911"><ele>406.4</ele><time>2026-04-18T10:08:19.019Z</time></trkpt><trkpt lat="44.6333593" lon="8.7769974"><ele>410.0</ele><time>2026-04-18T10:08:20.019Z</time></trkpt><trkpt lat="44.6333669" lon="8.7771206"><ele>410.0</ele><time>2026-04-18T10:08:21.019Z</time></trkpt><trkpt lat="44.6333982" lon="8.777261"><ele>410.0</ele><time>2026-04-18T10:08:22.019Z</time></trkpt><trkpt lat="44.6334027" lon="8.7773966"><ele>410.0</ele><time>2026-04-18T10:08:23.018Z</time></trkpt><trkpt lat="44.6333716" lon="8.7775376"><ele>410.0</ele><time>2026-04-18T10:08:24.018Z</time></trkpt><trkpt lat="44.6333008" lon="8.7776806"><ele>410.0</ele><time>2026-04-18T10:08:25.018Z</time></trkpt><trkpt lat="44.6332026" lon="8.7778041"><ele>411.2</ele><time>2026-04-18T10:08:26.019Z</time></trkpt><trkpt lat="44.6331026" lon="8.7778967"><ele>412.4</ele><time>2026-04-18T10:08:27.018Z</time></trkpt><trkpt lat="44.6330216" lon="8.777993"><ele>413.6</ele><time>2026-04-18T10:08:28.018Z</time></trkpt><trkpt lat="44.6329835" lon="8.7781083"><ele>414.8</ele><time>2026-04-18T10:08:29.018Z</time></trkpt><trkpt lat="44.6329796" lon="8.7782294"><ele>416.0</ele><time>2026-04-18T10:08:30.019Z</time></trkpt><trkpt lat="44.6330102" lon="8.7783457"><ele>416.0</ele><time>2026-04-18T10:08:31.018Z</time></trkpt><trkpt lat="44.6330751" lon="8.7784348"><ele>416.0</ele><time>2026-04-18T10:08:32.019Z</time></trkpt><trkpt lat="44.6331712" lon="8.7784898"><ele>416.0</ele><time>2026-04-18T10:08:33.018Z</time></trkpt><trkpt lat="44.6332994" lon="8.7785147"><ele>416.0</ele><time>2026-04-18T10:08:34.019Z</time></trkpt><trkpt lat="44.6334476" lon="8.7785169"><ele>416.0</ele><time>2026-04-18T10:08:35.018Z</time></trkpt><trkpt lat="44.6336026" lon="8.7785094"><ele>416.0</ele><time>2026-04-18T10:08:36.019Z</time></trkpt><trkpt lat="44.633746" lon="8.7785009"><ele>416.0</ele><time>2026-04-18T10:08:37.019Z</time></trkpt><trkpt lat="44.6338756" lon="8.778519"><ele>416.0</ele><time>2026-04-18T10:08:38.018Z</time></trkpt><trkpt lat="44.6339795" lon="8.7785789"><ele>416.25</ele><time>2026-04-18T10:08:39.018Z</time></trkpt><trkpt lat="44.6340552" lon="8.778678"><ele>416.5</ele><time>2026-04-18T10:08:40.018Z</time></trkpt><trkpt lat="44.6341088" lon="8.7788073"><ele>416.75</ele><time>2026-04-18T10:08:41.018Z</time></trkpt><trkpt lat="44.6341594" lon="8.778978"><ele>417.0</ele><time>2026-04-18T10:08:42.018Z</time></trkpt><trkpt lat="44.6342052" lon="8.7791646"><ele>417.0</ele><time>2026-04-18T10:08:43.019Z</time></trkpt><trkpt lat="44.6342484" lon="8.7793375"><ele>417.0</ele><time>2026-04-18T10:08:44.018Z</time></trkpt><trkpt lat="44.6343036" lon="8.7794949"><ele>417.0</ele><time>2026-04-18T10:08:45.019Z</time></trkpt><trkpt lat="44.6343771" lon="8.7795998"><ele>417.0</ele><time>2026-04-18T10:08:46.018Z</time></trkpt><trkpt lat="44.6344546" lon="8.7796424"><ele>417.0</ele><time>2026-04-18T10:08:47.018Z</time></trkpt><trkpt lat="44.6345349" lon="8.7796374"><ele>416.5</ele><time>2026-04-18T10:08:48.019Z</time></trkpt><trkpt lat="44.6346255" lon="8.7795487"><ele>416.0</ele><time>2026-04-18T10:08:49.019Z</time></trkpt><trkpt lat="44.6347276" lon="8.7794224"><ele>415.5</ele><time>2026-04-18T10:08:50.018Z</time></trkpt><trkpt lat="44.6348348" lon="8.7792735"><ele>415.0</ele><time>2026-04-18T10:08:51.019Z</time></trkpt><trkpt lat="44.6349404" lon="8.7791189"><ele>415.0</ele><time>2026-04-18T10:08:52.018Z</time></trkpt><trkpt lat="44.635035" lon="8.7789748"><ele>415.0</ele><time>2026-04-18T10:08:53.019Z</time></trkpt><trkpt lat="44.6351282" lon="8.7788506"><ele>415.0</ele><time>2026-04-18T10:08:54.019Z</time></trkpt><trkpt lat="44.6352244" lon="8.7787713"><ele>415.0</ele><time>2026-04-18T10:08:55.019Z</time></trkpt><trkpt lat="44.6353177" lon="8.7787286"><ele>413.6</ele><time>2026-04-18T10:08:56.019Z</time></trkpt><trkpt lat="44.6353982" lon="8.7787485"><ele>412.2</ele><time>2026-04-18T10:08:57.018Z</time></trkpt><trkpt lat="44.6354686" lon="8.7788144"><ele>410.79999999999995</ele><time>2026-04-18T10:08:58.019Z</time></trkpt><trkpt lat="44.6355408" lon="8.7789193"><ele>409.4</ele><time>2026-04-18T10:08:59.018Z</time></trkpt><trkpt lat="44.6356212" lon="8.7790572"><ele>408.0</ele><time>2026-04-18T10:09:00.018Z</time></trkpt><trkpt lat="44.6357151" lon="8.7791869"><ele>408.0</ele><time>2026-04-18T10:09:01.019Z</time></trkpt><trkpt lat="44.6358131" lon="8.779302"><ele>408.0</ele><time>2026-04-18T10:09:02.019Z</time></trkpt><trkpt lat="44.635913" lon="8.7793993"><ele>408.0</ele><time>2026-04-18T10:09:03.018Z</time></trkpt><trkpt lat="44.6360094" lon="8.7794831"><ele>408.0</ele><time>2026-04-18T10:09:04.018Z</time></trkpt><trkpt lat="44.6361007" lon="8.7795657"><ele>407.25</ele><time>2026-04-18T10:09:05.018Z</time></trkpt><trkpt lat="44.6361871" lon="8.7796645"><ele>406.5</ele><time>2026-04-18T10:09:06.018Z</time></trkpt><trkpt lat="44.6362714" lon="8.7797705"><ele>405.75</ele><time>2026-04-18T10:09:07.019Z</time></trkpt><trkpt lat="44.6363566" lon="8.7798775"><ele>405.0</ele><time>2026-04-18T10:09:08.019Z</time></trkpt><trkpt lat="44.6364354" lon="8.7799938"><ele>405.0</ele><time>2026-04-18T10:09:09.019Z</time></trkpt><trkpt lat="44.6365111" lon="8.7801238"><ele>405.0</ele><time>2026-04-18T10:09:10.018Z</time></trkpt><trkpt lat="44.6365874" lon="8.7802665"><ele>405.0</ele><time>2026-04-18T10:09:11.019Z</time></trkpt><trkpt lat="44.636661" lon="8.7804156"><ele>405.0</ele><time>2026-04-18T10:09:12.019Z</time></trkpt><trkpt lat="44.6367312" lon="8.7805604"><ele>405.4</ele><time>2026-04-18T10:09:13.019Z</time></trkpt><trkpt lat="44.6368048" lon="8.7806987"><ele>405.8</ele><time>2026-04-18T10:09:14.019Z</time></trkpt><trkpt lat="44.6368826" lon="8.7808172"><ele>406.20000000000005</ele><time>2026-04-18T10:09:15.019Z</time></trkpt><trkpt lat="44.636961" lon="8.780915"><ele>406.6</ele><time>2026-04-18T10:09:16.018Z</time></trkpt><trkpt lat="44.6370351" lon="8.7810058"><ele>407.0</ele><time>2026-04-18T10:09:17.019Z</time></trkpt><trkpt lat="44.6370921" lon="8.7811051"><ele>406.99999999999994</ele><time>2026-04-18T10:09:18.019Z</time></trkpt><trkpt lat="44.6371248" lon="8.7811986"><ele>407.0</ele><time>2026-04-18T10:09:19.019Z</time></trkpt><trkpt lat="44.6371711" lon="8.7813498"><ele>407.0</ele><time>2026-04-18T10:09:21.018Z</time></trkpt><trkpt lat="44.6372215" lon="8.7815024"><ele>407.0</ele><time>2026-04-18T10:09:23.019Z</time></trkpt><trkpt lat="44.6372613" lon="8.7815751"><ele>406.99999999999994</ele><time>2026-04-18T10:09:24.019Z</time></trkpt><trkpt lat="44.6373104" lon="8.7816375"><ele>407.0</ele><time>2026-04-18T10:09:25.019Z</time></trkpt><trkpt lat="44.6373718" lon="8.7816853"><ele>406.99999999999994</ele><time>2026-04-18T10:09:26.019Z</time></trkpt><trkpt lat="44.6374475" lon="8.7817219"><ele>407.0</ele><time>2026-04-18T10:09:27.018Z</time></trkpt><trkpt lat="44.6375298" lon="8.781745"><ele>407.0</ele><time>2026-04-18T10:09:28.019Z</time></trkpt><trkpt lat="44.6376035" lon="8.7817661"><ele>407.0</ele><time>2026-04-18T10:09:29.019Z</time></trkpt><trkpt lat="44.637668" lon="8.7817819"><ele>406.99999999999994</ele><time>2026-04-18T10:09:30.019Z</time></trkpt><trkpt lat="44.6377763" lon="8.7818023"><ele>407.0</ele><time>2026-04-18T10:09:32.018Z</time></trkpt><trkpt lat="44.6378558" lon="8.7818181"><ele>408.49999999999994</ele><time>2026-04-18T10:09:34.018Z</time></trkpt><trkpt lat="44.6379479" lon="8.7818552"><ele>410.0</ele><time>2026-04-18T10:09:36.019Z</time></trkpt><trkpt lat="44.6380108" lon="8.781875"><ele>411.5</ele><time>2026-04-18T10:09:37.019Z</time></trkpt><trkpt lat="44.6380845" lon="8.7819019"><ele>413.0</ele><time>2026-04-18T10:09:38.019Z</time></trkpt><trkpt lat="44.638162" lon="8.7819442"><ele>414.49999999999994</ele><time>2026-04-18T10:09:39.019Z</time></trkpt><trkpt lat="44.6382406" lon="8.7819946"><ele>416.0</ele><time>2026-04-18T10:09:40.018Z</time></trkpt><trkpt lat="44.6383195" lon="8.7820496"><ele>415.99999999999994</ele><time>2026-04-18T10:09:41.019Z</time></trkpt><trkpt lat="44.6383975" lon="8.7820924"><ele>416.0</ele><time>2026-04-18T10:09:42.019Z</time></trkpt><trkpt lat="44.6384733" lon="8.782118"><ele>416.0</ele><time>2026-04-18T10:09:43.018Z</time></trkpt><trkpt lat="44.6385468" lon="8.7821159"><ele>416.0</ele><time>2026-04-18T10:09:44.018Z</time></trkpt><trkpt lat="44.6386248" lon="8.7820787"><ele>415.99999999999994</ele><time>2026-04-18T10:09:45.018Z</time></trkpt><trkpt lat="44.6386978" lon="8.7820076"><ele>416.0</ele><time>2026-04-18T10:09:46.019Z</time></trkpt><trkpt lat="44.6387705" lon="8.7819146"><ele>413.0</ele><time>2026-04-18T10:09:47.018Z</time></trkpt><trkpt lat="44.6388453" lon="8.781799"><ele>410.0</ele><time>2026-04-18T10:09:48.019Z</time></trkpt><trkpt lat="44.6389245" lon="8.7816768"><ele>407.0</ele><time>2026-04-18T10:09:49.018Z</time></trkpt><trkpt lat="44.6389969" lon="8.7815603"><ele>404.0</ele><time>2026-04-18T10:09:50.019Z</time></trkpt><trkpt lat="44.6390654" lon="8.7814487"><ele>401.0</ele><time>2026-04-18T10:09:51.019Z</time></trkpt><trkpt lat="44.6391305" lon="8.7813441"><ele>400.99999999999994</ele><time>2026-04-18T10:09:52.019Z</time></trkpt><trkpt lat="44.6391885" lon="8.7812666"><ele>401.0</ele><time>2026-04-18T10:09:53.018Z</time></trkpt><trkpt lat="44.6392457" lon="8.7812268"><ele>401.0</ele><time>2026-04-18T10:09:54.018Z</time></trkpt><trkpt lat="44.6393117" lon="8.7812215"><ele>401.0</ele><time>2026-04-18T10:09:55.019Z</time></trkpt><trkpt lat="44.6393707" lon="8.7812535"><ele>400.99999999999994</ele><time>2026-04-18T10:09:56.018Z</time></trkpt><trkpt lat="44.6394228" lon="8.7813362"><ele>401.0</ele><time>2026-04-18T10:09:57.018Z</time></trkpt><trkpt lat="44.6394674" lon="8.781462"><ele>395.75</ele><time>2026-04-18T10:09:58.019Z</time></trkpt><trkpt lat="44.6395047" lon="8.7816162"><ele>390.5</ele><time>2026-04-18T10:09:59.019Z</time></trkpt><trkpt lat="44.6395358" lon="8.7817884"><ele>385.25</ele><time>2026-04-18T10:10:00.018Z</time></trkpt><trkpt lat="44.6395496" lon="8.7819727"><ele>380.0</ele><time>2026-04-18T10:10:01.019Z</time></trkpt><trkpt lat="44.6395449" lon="8.7821459"><ele>379.4</ele><time>2026-04-18T10:10:02.019Z</time></trkpt><trkpt lat="44.6395379" lon="8.7823044"><ele>378.8</ele><time>2026-04-18T10:10:03.019Z</time></trkpt><trkpt lat="44.6395303" lon="8.7824518"><ele>378.20000000000005</ele><time>2026-04-18T10:10:04.018Z</time></trkpt><trkpt lat="44.6395072" lon="8.7825823"><ele>377.6</ele><time>2026-04-18T10:10:05.019Z</time></trkpt><trkpt lat="44.6394578" lon="8.7826914"><ele>377.0</ele><time>2026-04-18T10:10:06.018Z</time></trkpt><trkpt lat="44.6393779" lon="8.7827941"><ele>382.0</ele><time>2026-04-18T10:10:07.018Z</time></trkpt><trkpt lat="44.6392783" lon="8.7829016"><ele>387.0</ele><time>2026-04-18T10:10:08.018Z</time></trkpt><trkpt lat="44.6391703" lon="8.7830228"><ele>392.0</ele><time>2026-04-18T10:10:09.019Z</time></trkpt><trkpt lat="44.6390615" lon="8.7831546"><ele>397.0</ele><time>2026-04-18T10:10:10.018Z</time></trkpt><trkpt lat="44.6389584" lon="8.7833067"><ele>397.0</ele><time>2026-04-18T10:10:11.018Z</time></trkpt><trkpt lat="44.6388688" lon="8.7834849"><ele>397.0</ele><time>2026-04-18T10:10:12.019Z</time></trkpt><trkpt lat="44.6387968" lon="8.7836638"><ele>397.0</ele><time>2026-04-18T10:10:13.019Z</time></trkpt><trkpt lat="44.6387333" lon="8.7838313"><ele>397.0</ele><time>2026-04-18T10:10:14.019Z</time></trkpt><trkpt lat="44.6386889" lon="8.7839962"><ele>395.0</ele><time>2026-04-18T10:10:15.018Z</time></trkpt><trkpt lat="44.6386704" lon="8.7841727"><ele>393.0</ele><time>2026-04-18T10:10:16.018Z</time></trkpt><trkpt lat="44.6386861" lon="8.7843591"><ele>391.0</ele><time>2026-04-18T10:10:17.019Z</time></trkpt><trkpt lat="44.6387303" lon="8.7845505"><ele>389.0</ele><time>2026-04-18T10:10:18.019Z</time></trkpt><trkpt lat="44.6387965" lon="8.78474"><ele>389.0</ele><time>2026-04-18T10:10:19.018Z</time></trkpt><trkpt lat="44.6388841" lon="8.7849159"><ele>389.0</ele><time>2026-04-18T10:10:20.019Z</time></trkpt><trkpt lat="44.6389911" lon="8.7850799"><ele>389.0</ele><time>2026-04-18T10:10:21.019Z</time></trkpt><trkpt lat="44.6391072" lon="8.7852432"><ele>388.66666666666663</ele><time>2026-04-18T10:10:22.018Z</time></trkpt><trkpt lat="44.6392196" lon="8.785412"><ele>388.33333333333337</ele><time>2026-04-18T10:10:23.019Z</time></trkpt><trkpt lat="44.6393441" lon="8.7855642"><ele>388.0</ele><time>2026-04-18T10:10:24.018Z</time></trkpt><trkpt lat="44.6394724" lon="8.7856889"><ele>388.0</ele><time>2026-04-18T10:10:25.018Z</time></trkpt><trkpt lat="44.6395911" lon="8.7858054"><ele>388.0</ele><time>2026-04-18T10:10:26.019Z</time></trkpt><trkpt lat="44.6396949" lon="8.7859309"><ele>388.0</ele><time>2026-04-18T10:10:27.019Z</time></trkpt><trkpt lat="44.6397968" lon="8.7860429"><ele>388.0</ele><time>2026-04-18T10:10:28.018Z</time></trkpt><trkpt lat="44.6399004" lon="8.7861139"><ele>388.0</ele><time>2026-04-18T10:10:29.019Z</time></trkpt><trkpt lat="44.6400009" lon="8.7861394"><ele>388.0</ele><time>2026-04-18T10:10:30.019Z</time></trkpt><trkpt lat="44.6400966" lon="8.7861175"><ele>388.0</ele><time>2026-04-18T10:10:31.019Z</time></trkpt><trkpt lat="44.6401766" lon="8.7860588"><ele>388.0</ele><time>2026-04-18T10:10:32.019Z</time></trkpt><trkpt lat="44.6402454" lon="8.7859734"><ele>388.0</ele><time>2026-04-18T10:10:33.018Z</time></trkpt><trkpt lat="44.6403087" lon="8.7858824"><ele>387.85714285714283</ele><time>2026-04-18T10:10:34.019Z</time></trkpt><trkpt lat="44.6403681" lon="8.785825"><ele>387.7142857142857</ele><time>2026-04-18T10:10:35.019Z</time></trkpt><trkpt lat="44.6404348" lon="8.7858037"><ele>387.57142857142856</ele><time>2026-04-18T10:10:36.019Z</time></trkpt><trkpt lat="44.6404998" lon="8.7858291"><ele>387.42857142857144</ele><time>2026-04-18T10:10:37.018Z</time></trkpt><trkpt lat="44.6405513" lon="8.7858933"><ele>387.28571428571433</ele><time>2026-04-18T10:10:38.019Z</time></trkpt><trkpt lat="44.6405815" lon="8.7859898"><ele>387.14285714285717</ele><time>2026-04-18T10:10:39.018Z</time></trkpt><trkpt lat="44.6405883" lon="8.7861083"><ele>387.0</ele><time>2026-04-18T10:10:40.019Z</time></trkpt><trkpt lat="44.6405973" lon="8.7862542"><ele>387.0</ele><time>2026-04-18T10:10:41.019Z</time></trkpt><trkpt lat="44.6406413" lon="8.7864076"><ele>387.0</ele><time>2026-04-18T10:10:42.019Z</time></trkpt><trkpt lat="44.6407143" lon="8.7865476"><ele>387.0</ele><time>2026-04-18T10:10:43.019Z</time></trkpt><trkpt lat="44.6408015" lon="8.7866698"><ele>387.0</ele><time>2026-04-18T10:10:44.018Z</time></trkpt><trkpt lat="44.6409047" lon="8.7867803"><ele>388.25</ele><time>2026-04-18T10:10:45.018Z</time></trkpt><trkpt lat="44.6410174" lon="8.786879"><ele>389.5</ele><time>2026-04-18T10:10:46.019Z</time></trkpt><trkpt lat="44.6411344" lon="8.7869591"><ele>390.75</ele><time>2026-04-18T10:10:47.019Z</time></trkpt><trkpt lat="44.6412553" lon="8.7870231"><ele>392.0</ele><time>2026-04-18T10:10:48.019Z</time></trkpt><trkpt lat="44.6413698" lon="8.7870818"><ele>389.40000000000003</ele><time>2026-04-18T10:10:49.018Z</time></trkpt><trkpt lat="44.6414679" lon="8.7871525"><ele>386.8</ele><time>2026-04-18T10:10:50.019Z</time></trkpt><trkpt lat="44.6415429" lon="8.7872416"><ele>384.2</ele><time>2026-04-18T10:10:51.018Z</time></trkpt><trkpt lat="44.641603" lon="8.7873714"><ele>381.6</ele><time>2026-04-18T10:10:52.019Z</time></trkpt><trkpt lat="44.6416512" lon="8.787539"><ele>379.0</ele><time>2026-04-18T10:10:53.019Z</time></trkpt><trkpt lat="44.6417024" lon="8.7877173"><ele>379.0</ele><time>2026-04-18T10:10:54.019Z</time></trkpt><trkpt lat="44.6417755" lon="8.7878806"><ele>379.0</ele><time>2026-04-18T10:10:55.019Z</time></trkpt><trkpt lat="44.64186" lon="8.7880246"><ele>379.0</ele><time>2026-04-18T10:10:56.018Z</time></trkpt><trkpt lat="44.641955" lon="8.7881507"><ele>379.0</ele><time>2026-04-18T10:10:57.019Z</time></trkpt><trkpt lat="44.6420627" lon="8.7882814"><ele>379.66666666666663</ele><time>2026-04-18T10:10:58.019Z</time></trkpt><trkpt lat="44.6421836" lon="8.7884168"><ele>380.3333333333333</ele><time>2026-04-18T10:10:59.019Z</time></trkpt><trkpt lat="44.642305" lon="8.7885485"><ele>381.0</ele><time>2026-04-18T10:11:00.018Z</time></trkpt><trkpt lat="44.6424273" lon="8.7886717"><ele>381.0</ele><time>2026-04-18T10:11:01.019Z</time></trkpt><trkpt lat="44.6425465" lon="8.788782"><ele>381.0</ele><time>2026-04-18T10:11:02.019Z</time></trkpt><trkpt lat="44.642662" lon="8.7888841"><ele>381.0</ele><time>2026-04-18T10:11:03.018Z</time></trkpt><trkpt lat="44.6427734" lon="8.7889744"><ele>381.0</ele><time>2026-04-18T10:11:04.018Z</time></trkpt><trkpt lat="44.642884" lon="8.7890441"><ele>380.20000000000005</ele><time>2026-04-18T10:11:05.018Z</time></trkpt><trkpt lat="44.6429895" lon="8.7890776"><ele>379.40000000000003</ele><time>2026-04-18T10:11:06.018Z</time></trkpt><trkpt lat="44.6430899" lon="8.7890685"><ele>378.6</ele><time>2026-04-18T10:11:07.018Z</time></trkpt><trkpt lat="44.6431885" lon="8.7890137"><ele>377.8</ele><time>2026-04-18T10:11:08.018Z</time></trkpt><trkpt lat="44.6432877" lon="8.7889129"><ele>377.0</ele><time>2026-04-18T10:11:09.019Z</time></trkpt><trkpt lat="44.6433878" lon="8.7887794"><ele>377.0</ele><time>2026-04-18T10:11:10.019Z</time></trkpt><trkpt lat="44.6434931" lon="8.7886351"><ele>377.0</ele><time>2026-04-18T10:11:11.019Z</time></trkpt><trkpt lat="44.6435992" lon="8.7884816"><ele>377.0</ele><time>2026-04-18T10:11:12.019Z</time></trkpt><trkpt lat="44.6437016" lon="8.7883309"><ele>377.0</ele><time>2026-04-18T10:11:13.018Z</time></trkpt><trkpt lat="44.643801" lon="8.7881871"><ele>374.8</ele><time>2026-04-18T10:11:14.018Z</time></trkpt><trkpt lat="44.643892" lon="8.7880569"><ele>372.6</ele><time>2026-04-18T10:11:15.018Z</time></trkpt><trkpt lat="44.6439716" lon="8.7879519"><ele>370.40000000000003</ele><time>2026-04-18T10:11:16.019Z</time></trkpt><trkpt lat="44.6440499" lon="8.787876"><ele>368.20000000000005</ele><time>2026-04-18T10:11:17.019Z</time></trkpt><trkpt lat="44.6441253" lon="8.7878469"><ele>366.0</ele><time>2026-04-18T10:11:18.019Z</time></trkpt><trkpt lat="44.6441963" lon="8.7878615"><ele>366.0</ele><time>2026-04-18T10:11:19.019Z</time></trkpt><trkpt lat="44.6442584" lon="8.7879209"><ele>366.0</ele><time>2026-04-18T10:11:20.018Z</time></trkpt><trkpt lat="44.6443147" lon="8.7880265"><ele>366.0</ele><time>2026-04-18T10:11:21.019Z</time></trkpt><trkpt lat="44.6443691" lon="8.78818"><ele>366.0</ele><time>2026-04-18T10:11:22.019Z</time></trkpt><trkpt lat="44.6444278" lon="8.7883607"><ele>366.0</ele><time>2026-04-18T10:11:23.018Z</time></trkpt><trkpt lat="44.6444859" lon="8.788555"><ele>365.5</ele><time>2026-04-18T10:11:24.018Z</time></trkpt><trkpt lat="44.6445411" lon="8.7887349"><ele>365.0</ele><time>2026-04-18T10:11:25.019Z</time></trkpt><trkpt lat="44.6446081" lon="8.7888958"><ele>364.5</ele><time>2026-04-18T10:11:26.018Z</time></trkpt><trkpt lat="44.6446928" lon="8.7890228"><ele>364.0</ele><time>2026-04-18T10:11:27.019Z</time></trkpt><trkpt lat="44.6447878" lon="8.7891053"><ele>364.0</ele><time>2026-04-18T10:11:28.018Z</time></trkpt><trkpt lat="44.6448898" lon="8.7891433"><ele>364.0</ele><time>2026-04-18T10:11:29.018Z</time></trkpt><trkpt lat="44.6449897" lon="8.7891292"><ele>364.0</ele><time>2026-04-18T10:11:30.018Z</time></trkpt><trkpt lat="44.6450849" lon="8.7890785"><ele>364.0</ele><time>2026-04-18T10:11:31.019Z</time></trkpt><trkpt lat="44.6451739" lon="8.7889809"><ele>364.0</ele><time>2026-04-18T10:11:32.018Z</time></trkpt><trkpt lat="44.645255" lon="8.7888812"><ele>361.6</ele><time>2026-04-18T10:11:33.018Z</time></trkpt><trkpt lat="44.6453216" lon="8.7888195"><ele>359.2</ele><time>2026-04-18T10:11:34.018Z</time></trkpt><trkpt lat="44.6454301" lon="8.7888007"><ele>356.8</ele><time>2026-04-18T10:11:36.019Z</time></trkpt><trkpt lat="44.6455189" lon="8.7889249"><ele>354.40000000000003</ele><time>2026-04-18T10:11:38.018Z</time></trkpt><trkpt lat="44.6455578" lon="8.7890363"><ele>352.0</ele><time>2026-04-18T10:11:39.018Z</time></trkpt><trkpt lat="44.6456017" lon="8.7891725"><ele>352.0</ele><time>2026-04-18T10:11:40.019Z</time></trkpt><trkpt lat="44.6456502" lon="8.7893204"><ele>352.0</ele><time>2026-04-18T10:11:41.018Z</time></trkpt><trkpt lat="44.6456965" lon="8.7894626"><ele>352.0</ele><time>2026-04-18T10:11:42.018Z</time></trkpt><trkpt lat="44.6457417" lon="8.7895965"><ele>352.0</ele><time>2026-04-18T10:11:43.019Z</time></trkpt><trkpt lat="44.6457959" lon="8.7897146"><ele>352.0</ele><time>2026-04-18T10:11:44.018Z</time></trkpt><trkpt lat="44.6458716" lon="8.789811"><ele>353.20000000000005</ele><time>2026-04-18T10:11:45.019Z</time></trkpt><trkpt lat="44.6459559" lon="8.789883"><ele>354.4</ele><time>2026-04-18T10:11:46.018Z</time></trkpt><trkpt lat="44.6460525" lon="8.7899418"><ele>355.6</ele><time>2026-04-18T10:11:47.018Z</time></trkpt><trkpt lat="44.6461528" lon="8.7899978"><ele>356.79999999999995</ele><time>2026-04-18T10:11:48.019Z</time></trkpt><trkpt lat="44.6462522" lon="8.7900515"><ele>358.0</ele><time>2026-04-18T10:11:49.019Z</time></trkpt><trkpt lat="44.6463465" lon="8.7901068"><ele>357.4</ele><time>2026-04-18T10:11:50.019Z</time></trkpt><trkpt lat="44.6464322" lon="8.7901655"><ele>356.79999999999995</ele><time>2026-04-18T10:11:51.019Z</time></trkpt><trkpt lat="44.6465129" lon="8.7902301"><ele>356.2</ele><time>2026-04-18T10:11:52.019Z</time></trkpt><trkpt lat="44.6465846" lon="8.7903042"><ele>355.6</ele><time>2026-04-18T10:11:53.018Z</time></trkpt><trkpt lat="44.6466512" lon="8.7903923"><ele>355.0</ele><time>2026-04-18T10:11:54.018Z</time></trkpt><trkpt lat="44.6467064" lon="8.7904862"><ele>355.0</ele><time>2026-04-18T10:11:55.019Z</time></trkpt><trkpt lat="44.6467528" lon="8.7905773"><ele>355.0</ele><time>2026-04-18T10:11:56.018Z</time></trkpt><trkpt lat="44.6467946" lon="8.7906715"><ele>355.0</ele><time>2026-04-18T10:11:57.019Z</time></trkpt><trkpt lat="44.6468271" lon="8.7907694"><ele>355.0</ele><time>2026-04-18T10:11:58.018Z</time></trkpt><trkpt lat="44.6468548" lon="8.7908748"><ele>355.0</ele><time>2026-04-18T10:11:59.018Z</time></trkpt><trkpt lat="44.6468718" lon="8.7909911"><ele>355.0</ele><time>2026-04-18T10:12:00.019Z</time></trkpt><trkpt lat="44.6468782" lon="8.7911085"><ele>355.3333333333333</ele><time>2026-04-18T10:12:01.019Z</time></trkpt><trkpt lat="44.6468804" lon="8.7912247"><ele>355.66666666666663</ele><time>2026-04-18T10:12:02.019Z</time></trkpt><trkpt lat="44.6468791" lon="8.7913369"><ele>356.0</ele><time>2026-04-18T10:12:03.019Z</time></trkpt><trkpt lat="44.6468879" lon="8.7914444"><ele>356.3333333333333</ele><time>2026-04-18T10:12:04.019Z</time></trkpt><trkpt lat="44.6469194" lon="8.791551"><ele>356.6666666666667</ele><time>2026-04-18T10:12:05.019Z</time></trkpt><trkpt lat="44.6469712" lon="8.7916691"><ele>357.0</ele><time>2026-04-18T10:12:06.019Z</time></trkpt><trkpt lat="44.6470309" lon="8.7917985"><ele>353.5</ele><time>2026-04-18T10:12:07.018Z</time></trkpt><trkpt lat="44.6470842" lon="8.7919336"><ele>350.0</ele><time>2026-04-18T10:12:08.019Z</time></trkpt><trkpt lat="44.6471375" lon="8.792075"><ele>346.5</ele><time>2026-04-18T10:12:09.018Z</time></trkpt><trkpt lat="44.6471967" lon="8.7922257"><ele>343.0</ele><time>2026-04-18T10:12:10.019Z</time></trkpt><trkpt lat="44.6472622" lon="8.7923873"><ele>343.0</ele><time>2026-04-18T10:12:11.018Z</time></trkpt><trkpt lat="44.6473295" lon="8.7925587"><ele>343.0</ele><time>2026-04-18T10:12:12.018Z</time></trkpt><trkpt lat="44.6473979" lon="8.7927313"><ele>343.0</ele><time>2026-04-18T10:12:13.018Z</time></trkpt><trkpt lat="44.6474678" lon="8.7929081"><ele>343.0</ele><time>2026-04-18T10:12:14.018Z</time></trkpt><trkpt lat="44.6475381" lon="8.7930876"><ele>342.25</ele><time>2026-04-18T10:12:15.019Z</time></trkpt><trkpt lat="44.6476082" lon="8.7932617"><ele>341.5</ele><time>2026-04-18T10:12:16.019Z</time></trkpt><trkpt lat="44.6476758" lon="8.7934292"><ele>340.75</ele><time>2026-04-18T10:12:17.019Z</time></trkpt><trkpt lat="44.6477407" lon="8.793593"><ele>340.0</ele><time>2026-04-18T10:12:18.018Z</time></trkpt><trkpt lat="44.6478071" lon="8.7937504"><ele>338.75</ele><time>2026-04-18T10:12:19.018Z</time></trkpt><trkpt lat="44.6478677" lon="8.7939045"><ele>337.5</ele><time>2026-04-18T10:12:20.019Z</time></trkpt><trkpt lat="44.647924" lon="8.794056"><ele>336.25</ele><time>2026-04-18T10:12:21.019Z</time></trkpt><trkpt lat="44.6479815" lon="8.7942018"><ele>335.0</ele><time>2026-04-18T10:12:22.019Z</time></trkpt><trkpt lat="44.6480381" lon="8.7943427"><ele>334.6</ele><time>2026-04-18T10:12:23.019Z</time></trkpt><trkpt lat="44.6480928" lon="8.7944784"><ele>334.2</ele><time>2026-04-18T10:12:24.018Z</time></trkpt><trkpt lat="44.6481461" lon="8.7946068"><ele>333.79999999999995</ele><time>2026-04-18T10:12:25.019Z</time></trkpt><trkpt lat="44.6482029" lon="8.794724"><ele>333.4</ele><time>2026-04-18T10:12:26.018Z</time></trkpt><trkpt lat="44.6482561" lon="8.7948394"><ele>333.0</ele><time>2026-04-18T10:12:27.019Z</time></trkpt><trkpt lat="44.6482997" lon="8.7949662"><ele>333.0</ele><time>2026-04-18T10:12:28.018Z</time></trkpt><trkpt lat="44.6483271" lon="8.7951058"><ele>333.0</ele><time>2026-04-18T10:12:29.019Z</time></trkpt><trkpt lat="44.6483487" lon="8.7952509"><ele>333.0</ele><time>2026-04-18T10:12:30.018Z</time></trkpt><trkpt lat="44.6483729" lon="8.7954007"><ele>333.0</ele><time>2026-04-18T10:12:31.019Z</time></trkpt><trkpt lat="44.6483977" lon="8.7955527"><ele>333.0</ele><time>2026-04-18T10:12:32.019Z</time></trkpt><trkpt lat="44.6484248" lon="8.7957043"><ele>331.25</ele><time>2026-04-18T10:12:33.019Z</time></trkpt><trkpt lat="44.648453" lon="8.7958547"><ele>329.5</ele><time>2026-04-18T10:12:34.019Z</time></trkpt><trkpt lat="44.6484852" lon="8.7960162"><ele>327.75</ele><time>2026-04-18T10:12:35.019Z</time></trkpt><trkpt lat="44.6485249" lon="8.7961907"><ele>326.0</ele><time>2026-04-18T10:12:36.019Z</time></trkpt><trkpt lat="44.6485754" lon="8.7963726"><ele>325.33333333333337</ele><time>2026-04-18T10:12:37.019Z</time></trkpt><trkpt lat="44.6486386" lon="8.7965639"><ele>324.6666666666667</ele><time>2026-04-18T10:12:38.019Z</time></trkpt><trkpt lat="44.6486985" lon="8.7967583"><ele>324.0</ele><time>2026-04-18T10:12:39.019Z</time></trkpt><trkpt lat="44.6487632" lon="8.7969555"><ele>324.0</ele><time>2026-04-18T10:12:40.018Z</time></trkpt><trkpt lat="44.6488284" lon="8.7971465"><ele>324.0</ele><time>2026-04-18T10:12:41.019Z</time></trkpt><trkpt lat="44.6488931" lon="8.7973305"><ele>324.0</ele><time>2026-04-18T10:12:42.019Z</time></trkpt><trkpt lat="44.6489602" lon="8.7975012"><ele>324.0</ele><time>2026-04-18T10:12:43.019Z</time></trkpt><trkpt lat="44.6490356" lon="8.7976672"><ele>321.0</ele><time>2026-04-18T10:12:44.019Z</time></trkpt><trkpt lat="44.6491088" lon="8.7978402"><ele>318.0</ele><time>2026-04-18T10:12:45.018Z</time></trkpt><trkpt lat="44.6491745" lon="8.7980302"><ele>315.0</ele><time>2026-04-18T10:12:46.019Z</time></trkpt><trkpt lat="44.6492284" lon="8.7982275"><ele>312.0</ele><time>2026-04-18T10:12:47.019Z</time></trkpt><trkpt lat="44.6492579" lon="8.7984252"><ele>311.5</ele><time>2026-04-18T10:12:48.018Z</time></trkpt><trkpt lat="44.6492569" lon="8.7986262"><ele>311.0</ele><time>2026-04-18T10:12:49.019Z</time></trkpt><trkpt lat="44.6492253" lon="8.7988307"><ele>310.5</ele><time>2026-04-18T10:12:50.018Z</time></trkpt><trkpt lat="44.6491671" lon="8.7990192"><ele>310.0</ele><time>2026-04-18T10:12:51.019Z</time></trkpt><trkpt lat="44.6491055" lon="8.7992037"><ele>309.25</ele><time>2026-04-18T10:12:52.019Z</time></trkpt><trkpt lat="44.6490812" lon="8.7994089"><ele>308.5</ele><time>2026-04-18T10:12:53.019Z</time></trkpt><trkpt lat="44.649086" lon="8.7996121"><ele>307.75</ele><time>2026-04-18T10:12:54.018Z</time></trkpt><trkpt lat="44.6491307" lon="8.7998194"><ele>307.0</ele><time>2026-04-18T10:12:55.018Z</time></trkpt><trkpt lat="44.6492017" lon="8.8000326"><ele>308.3333333333333</ele><time>2026-04-18T10:12:56.018Z</time></trkpt><trkpt lat="44.649286" lon="8.8002436"><ele>309.6666666666667</ele><time>2026-04-18T10:12:57.018Z</time></trkpt><trkpt lat="44.6493696" lon="8.8004448"><ele>311.0</ele><time>2026-04-18T10:12:58.019Z</time></trkpt><trkpt lat="44.64946" lon="8.8006418"><ele>311.0</ele><time>2026-04-18T10:12:59.018Z</time></trkpt><trkpt lat="44.649562" lon="8.8008256"><ele>311.0</ele><time>2026-04-18T10:13:00.019Z</time></trkpt><trkpt lat="44.6496737" lon="8.8010009"><ele>311.0</ele><time>2026-04-18T10:13:01.019Z</time></trkpt><trkpt lat="44.6497905" lon="8.8011723"><ele>308.33333333333337</ele><time>2026-04-18T10:13:02.019Z</time></trkpt><trkpt lat="44.6499029" lon="8.8013331"><ele>305.6666666666667</ele><time>2026-04-18T10:13:03.019Z</time></trkpt><trkpt lat="44.6500079" lon="8.8014839"><ele>303.0</ele><time>2026-04-18T10:13:04.018Z</time></trkpt><trkpt lat="44.650104" lon="8.8016284"><ele>303.0</ele><time>2026-04-18T10:13:05.018Z</time></trkpt><trkpt lat="44.6501937" lon="8.801766"><ele>303.0</ele><time>2026-04-18T10:13:06.018Z</time></trkpt><trkpt lat="44.6502811" lon="8.8018907"><ele>303.0</ele><time>2026-04-18T10:13:07.018Z</time></trkpt><trkpt lat="44.6503759" lon="8.801993"><ele>303.0</ele><time>2026-04-18T10:13:08.018Z</time></trkpt><trkpt lat="44.6504841" lon="8.8020648"><ele>302.75</ele><time>2026-04-18T10:13:09.019Z</time></trkpt><trkpt lat="44.6506108" lon="8.8021063"><ele>302.5</ele><time>2026-04-18T10:13:10.019Z</time></trkpt><trkpt lat="44.6507497" lon="8.8021324"><ele>302.25</ele><time>2026-04-18T10:13:11.019Z</time></trkpt><trkpt lat="44.650888" lon="8.8021578"><ele>302.0</ele><time>2026-04-18T10:13:12.019Z</time></trkpt><trkpt lat="44.6510167" lon="8.8021994"><ele>299.75</ele><time>2026-04-18T10:13:13.019Z</time></trkpt><trkpt lat="44.6511357" lon="8.8022763"><ele>297.5</ele><time>2026-04-18T10:13:14.018Z</time></trkpt><trkpt lat="44.6512486" lon="8.8023816"><ele>295.25</ele><time>2026-04-18T10:13:15.019Z</time></trkpt><trkpt lat="44.6513575" lon="8.8025026"><ele>293.0</ele><time>2026-04-18T10:13:16.018Z</time></trkpt><trkpt lat="44.651464" lon="8.8026225"><ele>291.75</ele><time>2026-04-18T10:13:17.018Z</time></trkpt><trkpt lat="44.6515777" lon="8.802728"><ele>290.5</ele><time>2026-04-18T10:13:18.019Z</time></trkpt><trkpt lat="44.6516924" lon="8.8028143"><ele>289.25</ele><time>2026-04-18T10:13:19.019Z</time></trkpt><trkpt lat="44.6518015" lon="8.8028728"><ele>288.0</ele><time>2026-04-18T10:13:20.018Z</time></trkpt><trkpt lat="44.6518943" lon="8.8029062"><ele>287.3333333333333</ele><time>2026-04-18T10:13:21.018Z</time></trkpt><trkpt lat="44.6519733" lon="8.8029237"><ele>286.6666666666667</ele><time>2026-04-18T10:13:22.018Z</time></trkpt><trkpt lat="44.6520728" lon="8.8029356"><ele>286.0</ele><time>2026-04-18T10:13:24.018Z</time></trkpt><trkpt lat="44.6521542" lon="8.8029457"><ele>285.33333333333337</ele><time>2026-04-18T10:13:26.019Z</time></trkpt><trkpt lat="44.652212" lon="8.802998"><ele>284.6666666666667</ele><time>2026-04-18T10:13:28.018Z</time></trkpt><trkpt lat="44.6522139" lon="8.8031003"><ele>284.0</ele><time>2026-04-18T10:13:30.019Z</time></trkpt><trkpt lat="44.6521953" lon="8.8032289"><ele>284.0</ele><time>2026-04-18T10:13:32.019Z</time></trkpt><trkpt lat="44.6521819" lon="8.8033743"><ele>284.0</ele><time>2026-04-18T10:13:34.017Z</time></trkpt><trkpt lat="44.6521702" lon="8.803503"><ele>284.0</ele><time>2026-04-18T10:13:36.019Z</time></trkpt><trkpt lat="44.6521888" lon="8.8035944"><ele>284.0</ele><time>2026-04-18T10:13:38.018Z</time></trkpt><trkpt lat="44.6522503" lon="8.8036587"><ele>284.0</ele><time>2026-04-18T10:13:41.019Z</time></trkpt><trkpt lat="44.6523534" lon="8.803746"><ele>285.0</ele><time>2026-04-18T10:13:48.018Z</time></trkpt><trkpt lat="44.6524132" lon="8.8038248"><ele>286.0</ele><time>2026-04-18T10:13:49.017Z</time></trkpt><trkpt lat="44.6524548" lon="8.8039187"><ele>287.0</ele><time>2026-04-18T10:13:50.018Z</time></trkpt><trkpt lat="44.6524775" lon="8.8040369"><ele>288.0</ele><time>2026-04-18T10:13:51.018Z</time></trkpt><trkpt lat="44.6524854" lon="8.8041697"><ele>289.0</ele><time>2026-04-18T10:13:52.019Z</time></trkpt><trkpt lat="44.6524958" lon="8.804307"><ele>290.0</ele><time>2026-04-18T10:13:53.019Z</time></trkpt><trkpt lat="44.6525307" lon="8.8044434"><ele>291.75</ele><time>2026-04-18T10:13:54.019Z</time></trkpt><trkpt lat="44.6526021" lon="8.8045707"><ele>293.5</ele><time>2026-04-18T10:13:55.019Z</time></trkpt><trkpt lat="44.6527044" lon="8.8046918"><ele>295.25</ele><time>2026-04-18T10:13:56.019Z</time></trkpt><trkpt lat="44.6528211" lon="8.8048111"><ele>297.0</ele><time>2026-04-18T10:13:57.019Z</time></trkpt><trkpt lat="44.6529284" lon="8.8049282"><ele>297.0</ele><time>2026-04-18T10:13:58.019Z</time></trkpt><trkpt lat="44.653021" lon="8.8050329"><ele>297.0</ele><time>2026-04-18T10:13:59.019Z</time></trkpt><trkpt lat="44.6531003" lon="8.8051317"><ele>297.0</ele><time>2026-04-18T10:14:00.019Z</time></trkpt><trkpt lat="44.6531626" lon="8.8052312"><ele>297.0</ele><time>2026-04-18T10:14:01.019Z</time></trkpt><trkpt lat="44.6532273" lon="8.8053267"><ele>297.0</ele><time>2026-04-18T10:14:02.019Z</time></trkpt><trkpt lat="44.6533056" lon="8.8053944"><ele>297.75</ele><time>2026-04-18T10:14:03.015Z</time></trkpt><trkpt lat="44.6534012" lon="8.8054179"><ele>298.5</ele><time>2026-04-18T10:14:04.019Z</time></trkpt><trkpt lat="44.6535104" lon="8.8054037"><ele>299.25</ele><time>2026-04-18T10:14:05.019Z</time></trkpt><trkpt lat="44.6536281" lon="8.8053564"><ele>300.0</ele><time>2026-04-18T10:14:06.018Z</time></trkpt><trkpt lat="44.6537442" lon="8.8052767"><ele>300.0</ele><time>2026-04-18T10:14:07.019Z</time></trkpt><trkpt lat="44.6538498" lon="8.8051743"><ele>300.0</ele><time>2026-04-18T10:14:08.018Z</time></trkpt><trkpt lat="44.6539402" lon="8.8050742"><ele>300.0</ele><time>2026-04-18T10:14:09.019Z</time></trkpt><trkpt lat="44.6540176" lon="8.8049992"><ele>300.0</ele><time>2026-04-18T10:14:10.019Z</time></trkpt><trkpt lat="44.6540917" lon="8.804955"><ele>300.0</ele><time>2026-04-18T10:14:11.019Z</time></trkpt><trkpt lat="44.6541588" lon="8.804968"><ele>300.0</ele><time>2026-04-18T10:14:12.019Z</time></trkpt><trkpt lat="44.6542178" lon="8.8050264"><ele>300.0</ele><time>2026-04-18T10:14:13.019Z</time></trkpt><trkpt lat="44.6542624" lon="8.8051276"><ele>300.0</ele><time>2026-04-18T10:14:14.019Z</time></trkpt><trkpt lat="44.654277" lon="8.8052436"><ele>300.0</ele><time>2026-04-18T10:14:15.019Z</time></trkpt><trkpt lat="44.6542536" lon="8.8053421"><ele>300.0</ele><time>2026-04-18T10:14:16.018Z</time></trkpt><trkpt lat="44.6541997" lon="8.8054101"><ele>300.0</ele><time>2026-04-18T10:14:17.018Z</time></trkpt><trkpt lat="44.654112" lon="8.8054751"><ele>300.0</ele><time>2026-04-18T10:14:18.019Z</time></trkpt><trkpt lat="44.6539957" lon="8.8055503"><ele>300.0</ele><time>2026-04-18T10:14:19.019Z</time></trkpt><trkpt lat="44.6538652" lon="8.8056598"><ele>300.0</ele><time>2026-04-18T10:14:20.018Z</time></trkpt><trkpt lat="44.6537366" lon="8.8057989"><ele>300.0</ele><time>2026-04-18T10:14:21.018Z</time></trkpt><trkpt lat="44.6536092" lon="8.8059489"><ele>302.6666666666667</ele><time>2026-04-18T10:14:22.019Z</time></trkpt><trkpt lat="44.6534875" lon="8.8060996"><ele>305.33333333333337</ele><time>2026-04-18T10:14:23.018Z</time></trkpt><trkpt lat="44.653374" lon="8.8062549"><ele>308.0</ele><time>2026-04-18T10:14:24.019Z</time></trkpt><trkpt lat="44.6532663" lon="8.8064176"><ele>308.0</ele><time>2026-04-18T10:14:25.018Z</time></trkpt><trkpt lat="44.6531637" lon="8.8065576"><ele>308.0</ele><time>2026-04-18T10:14:26.018Z</time></trkpt><trkpt lat="44.6530581" lon="8.806659"><ele>308.0</ele><time>2026-04-18T10:14:27.018Z</time></trkpt><trkpt lat="44.6529461" lon="8.8067208"><ele>308.0</ele><time>2026-04-18T10:14:28.019Z</time></trkpt><trkpt lat="44.6528241" lon="8.8067786"><ele>310.0</ele><time>2026-04-18T10:14:29.019Z</time></trkpt><trkpt lat="44.652716" lon="8.80689"><ele>312.0</ele><time>2026-04-18T10:14:30.018Z</time></trkpt><trkpt lat="44.6526105" lon="8.8070294"><ele>314.0</ele><time>2026-04-18T10:14:31.019Z</time></trkpt><trkpt lat="44.6524908" lon="8.8071501"><ele>316.0</ele><time>2026-04-18T10:14:32.018Z</time></trkpt><trkpt lat="44.6523688" lon="8.8072365"><ele>316.0</ele><time>2026-04-18T10:14:33.019Z</time></trkpt><trkpt lat="44.6522558" lon="8.8073188"><ele>316.0</ele><time>2026-04-18T10:14:34.019Z</time></trkpt><trkpt lat="44.6521715" lon="8.8074247"><ele>316.0</ele><time>2026-04-18T10:14:35.018Z</time></trkpt><trkpt lat="44.6521296" lon="8.8075544"><ele>316.0</ele><time>2026-04-18T10:14:36.019Z</time></trkpt><trkpt lat="44.6521257" lon="8.8076803"><ele>316.0</ele><time>2026-04-18T10:14:37.019Z</time></trkpt><trkpt lat="44.6521473" lon="8.8078231"><ele>313.2</ele><time>2026-04-18T10:14:38.018Z</time></trkpt><trkpt lat="44.6521592" lon="8.8079599"><ele>310.40000000000003</ele><time>2026-04-18T10:14:39.019Z</time></trkpt><trkpt lat="44.6521526" lon="8.808088"><ele>307.6</ele><time>2026-04-18T10:14:40.019Z</time></trkpt><trkpt lat="44.6521152" lon="8.8082172"><ele>304.8</ele><time>2026-04-18T10:14:41.019Z</time></trkpt><trkpt lat="44.6520426" lon="8.8083516"><ele>302.0</ele><time>2026-04-18T10:14:42.019Z</time></trkpt><trkpt lat="44.651953" lon="8.8084795"><ele>308.6666666666667</ele><time>2026-04-18T10:14:43.018Z</time></trkpt><trkpt lat="44.6518364" lon="8.8085918"><ele>315.3333333333333</ele><time>2026-04-18T10:14:44.018Z</time></trkpt><trkpt lat="44.6517061" lon="8.8086998"><ele>322.0</ele><time>2026-04-18T10:14:45.018Z</time></trkpt><trkpt lat="44.6515705" lon="8.8088252"><ele>322.0</ele><time>2026-04-18T10:14:46.019Z</time></trkpt><trkpt lat="44.6514342" lon="8.8089464"><ele>322.0</ele><time>2026-04-18T10:14:47.018Z</time></trkpt><trkpt lat="44.6512936" lon="8.8090457"><ele>322.0</ele><time>2026-04-18T10:14:48.018Z</time></trkpt><trkpt lat="44.6511646" lon="8.8091271"><ele>325.25</ele><time>2026-04-18T10:14:49.018Z</time></trkpt><trkpt lat="44.6510605" lon="8.8092132"><ele>328.5</ele><time>2026-04-18T10:14:50.019Z</time></trkpt><trkpt lat="44.6509885" lon="8.8093314"><ele>331.75</ele><time>2026-04-18T10:14:51.019Z</time></trkpt><trkpt lat="44.6509473" lon="8.8094964"><ele>335.0</ele><time>2026-04-18T10:14:52.018Z</time></trkpt><trkpt lat="44.6509201" lon="8.8096871"><ele>335.0</ele><time>2026-04-18T10:14:53.018Z</time></trkpt><trkpt lat="44.6508708" lon="8.8098632"><ele>335.0</ele><time>2026-04-18T10:14:54.018Z</time></trkpt><trkpt lat="44.6507901" lon="8.8100173"><ele>335.0</ele><time>2026-04-18T10:14:55.019Z</time></trkpt><trkpt lat="44.6506838" lon="8.8101271"><ele>335.0</ele><time>2026-04-18T10:14:56.019Z</time></trkpt><trkpt lat="44.6505526" lon="8.8102015"><ele>337.75</ele><time>2026-04-18T10:14:57.018Z</time></trkpt><trkpt lat="44.6504022" lon="8.8102588"><ele>340.5</ele><time>2026-04-18T10:14:58.018Z</time></trkpt><trkpt lat="44.6502588" lon="8.8102777"><ele>343.25</ele><time>2026-04-18T10:14:59.018Z</time></trkpt><trkpt lat="44.6501339" lon="8.8102542"><ele>346.0</ele><time>2026-04-18T10:15:00.019Z</time></trkpt><trkpt lat="44.650019" lon="8.8101849"><ele>345.5</ele><time>2026-04-18T10:15:01.018Z</time></trkpt><trkpt lat="44.649916" lon="8.8100873"><ele>345.0</ele><time>2026-04-18T10:15:02.019Z</time></trkpt><trkpt lat="44.6498102" lon="8.8099948"><ele>344.5</ele><time>2026-04-18T10:15:03.019Z</time></trkpt><trkpt lat="44.6496994" lon="8.8099225"><ele>344.0</ele><time>2026-04-18T10:15:04.018Z</time></trkpt><trkpt lat="44.6496074" lon="8.8098478"><ele>344.0</ele><time>2026-04-18T10:15:05.018Z</time></trkpt><trkpt lat="44.64953" lon="8.809782"><ele>344.0</ele><time>2026-04-18T10:15:06.019Z</time></trkpt><trkpt lat="44.6494618" lon="8.8097581"><ele>344.0</ele><time>2026-04-18T10:15:07.018Z</time></trkpt><trkpt lat="44.6493983" lon="8.8097837"><ele>344.0</ele><time>2026-04-18T10:15:08.019Z</time></trkpt><trkpt lat="44.6493766" lon="8.8099463"><ele>344.0</ele><time>2026-04-18T10:15:10.019Z</time></trkpt><trkpt lat="44.6494186" lon="8.8100692"><ele>344.0</ele><time>2026-04-18T10:15:11.018Z</time></trkpt><trkpt lat="44.6494676" lon="8.8102205"><ele>347.25</ele><time>2026-04-18T10:15:12.019Z</time></trkpt><trkpt lat="44.649504" lon="8.8103832"><ele>350.5</ele><time>2026-04-18T10:15:13.019Z</time></trkpt><trkpt lat="44.6495352" lon="8.8105646"><ele>353.75</ele><time>2026-04-18T10:15:14.018Z</time></trkpt><trkpt lat="44.64955" lon="8.8107401"><ele>357.0</ele><time>2026-04-18T10:15:15.018Z</time></trkpt><trkpt lat="44.6495464" lon="8.8109057"><ele>357.5</ele><time>2026-04-18T10:15:16.019Z</time></trkpt><trkpt lat="44.6495104" lon="8.8110476"><ele>358.0</ele><time>2026-04-18T10:15:17.019Z</time></trkpt><trkpt lat="44.6494705" lon="8.8111907"><ele>358.5</ele><time>2026-04-18T10:15:18.019Z</time></trkpt><trkpt lat="44.6494449" lon="8.8113519"><ele>359.0</ele><time>2026-04-18T10:15:19.019Z</time></trkpt><trkpt lat="44.6494414" lon="8.8115291"><ele>359.0</ele><time>2026-04-18T10:15:20.019Z</time></trkpt><trkpt lat="44.6494574" lon="8.8117155"><ele>359.0</ele><time>2026-04-18T10:15:21.018Z</time></trkpt><trkpt lat="44.6494898" lon="8.8119038"><ele>359.0</ele><time>2026-04-18T10:15:22.018Z</time></trkpt><trkpt lat="44.64952" lon="8.8120799"><ele>359.0</ele><time>2026-04-18T10:15:23.018Z</time></trkpt><trkpt lat="44.6495487" lon="8.8122404"><ele>359.0</ele><time>2026-04-18T10:15:24.018Z</time></trkpt><trkpt lat="44.6495711" lon="8.812397"><ele>359.0</ele><time>2026-04-18T10:15:25.019Z</time></trkpt><trkpt lat="44.6495898" lon="8.8125611"><ele>359.0</ele><time>2026-04-18T10:15:26.019Z</time></trkpt><trkpt lat="44.6496078" lon="8.8127415"><ele>359.0</ele><time>2026-04-18T10:15:27.018Z</time></trkpt><trkpt lat="44.6496266" lon="8.8129381"><ele>358.25</ele><time>2026-04-18T10:15:28.019Z</time></trkpt><trkpt lat="44.6496489" lon="8.8131434"><ele>357.5</ele><time>2026-04-18T10:15:29.019Z</time></trkpt><trkpt lat="44.6496678" lon="8.8133476"><ele>356.75</ele><time>2026-04-18T10:15:30.018Z</time></trkpt><trkpt lat="44.6496838" lon="8.8135454"><ele>356.0</ele><time>2026-04-18T10:15:31.018Z</time></trkpt><trkpt lat="44.6496958" lon="8.8137353"><ele>355.25</ele><time>2026-04-18T10:15:32.018Z</time></trkpt><trkpt lat="44.6496997" lon="8.8139174"><ele>354.5</ele><time>2026-04-18T10:15:33.019Z</time></trkpt><trkpt lat="44.6496914" lon="8.8140924"><ele>353.75</ele><time>2026-04-18T10:15:34.018Z</time></trkpt><trkpt lat="44.6496612" lon="8.8142687"><ele>353.0</ele><time>2026-04-18T10:15:35.018Z</time></trkpt><trkpt lat="44.6496105" lon="8.8144574"><ele>352.33333333333337</ele><time>2026-04-18T10:15:36.019Z</time></trkpt><trkpt lat="44.6495563" lon="8.8146572"><ele>351.6666666666667</ele><time>2026-04-18T10:15:37.018Z</time></trkpt><trkpt lat="44.6495023" lon="8.8148673"><ele>351.0</ele><time>2026-04-18T10:15:38.019Z</time></trkpt><trkpt lat="44.649448" lon="8.815077"><ele>354.5</ele><time>2026-04-18T10:15:39.018Z</time></trkpt><trkpt lat="44.6493909" lon="8.815269"><ele>358.0</ele><time>2026-04-18T10:15:40.019Z</time></trkpt><trkpt lat="44.6493301" lon="8.8154384"><ele>361.5</ele><time>2026-04-18T10:15:41.019Z</time></trkpt><trkpt lat="44.6492672" lon="8.8155951"><ele>365.0</ele><time>2026-04-18T10:15:42.019Z</time></trkpt><trkpt lat="44.6492159" lon="8.8157417"><ele>365.0</ele><time>2026-04-18T10:15:43.019Z</time></trkpt><trkpt lat="44.6491912" lon="8.8158944"><ele>365.0</ele><time>2026-04-18T10:15:44.018Z</time></trkpt><trkpt lat="44.6491967" lon="8.8160541"><ele>365.0</ele><time>2026-04-18T10:15:45.019Z</time></trkpt><trkpt lat="44.6492224" lon="8.8162058"><ele>365.0</ele><time>2026-04-18T10:15:46.019Z</time></trkpt><trkpt lat="44.6492611" lon="8.8163348"><ele>365.0</ele><time>2026-04-18T10:15:47.019Z</time></trkpt><trkpt lat="44.6493152" lon="8.8164209"><ele>366.0</ele><time>2026-04-18T10:15:48.019Z</time></trkpt><trkpt lat="44.6493824" lon="8.8164595"><ele>367.0</ele><time>2026-04-18T10:15:49.019Z</time></trkpt><trkpt lat="44.6494566" lon="8.8164463"><ele>368.0</ele><time>2026-04-18T10:15:50.019Z</time></trkpt><trkpt lat="44.6495445" lon="8.8163904"><ele>369.0</ele><time>2026-04-18T10:15:51.018Z</time></trkpt><trkpt lat="44.6496428" lon="8.8163202"><ele>370.0</ele><time>2026-04-18T10:15:52.018Z</time></trkpt><trkpt lat="44.6497424" lon="8.8162589"><ele>370.4</ele><time>2026-04-18T10:15:53.018Z</time></trkpt><trkpt lat="44.6498405" lon="8.816242"><ele>370.8</ele><time>2026-04-18T10:15:54.019Z</time></trkpt><trkpt lat="44.6499377" lon="8.8162667"><ele>371.20000000000005</ele><time>2026-04-18T10:15:55.019Z</time></trkpt><trkpt lat="44.6500366" lon="8.8163329"><ele>371.6</ele><time>2026-04-18T10:15:56.019Z</time></trkpt><trkpt lat="44.6501286" lon="8.8164305"><ele>372.0</ele><time>2026-04-18T10:15:57.019Z</time></trkpt><trkpt lat="44.6502139" lon="8.8165584"><ele>369.25</ele><time>2026-04-18T10:15:58.019Z</time></trkpt><trkpt lat="44.6502937" lon="8.8166861"><ele>366.5</ele><time>2026-04-18T10:15:59.019Z</time></trkpt><trkpt lat="44.6503844" lon="8.8167797"><ele>363.75</ele><time>2026-04-18T10:16:00.019Z</time></trkpt><trkpt lat="44.6504919" lon="8.816837"><ele>361.0</ele><time>2026-04-18T10:16:01.019Z</time></trkpt><trkpt lat="44.6506131" lon="8.8168639"><ele>361.0</ele><time>2026-04-18T10:16:02.019Z</time></trkpt><trkpt lat="44.6507396" lon="8.8168666"><ele>361.0</ele><time>2026-04-18T10:16:03.019Z</time></trkpt><trkpt lat="44.650874" lon="8.8168427"><ele>361.0</ele><time>2026-04-18T10:16:04.018Z</time></trkpt><trkpt lat="44.6510123" lon="8.8168077"><ele>361.0</ele><time>2026-04-18T10:16:05.018Z</time></trkpt><trkpt lat="44.6511575" lon="8.8167657"><ele>361.0</ele><time>2026-04-18T10:16:06.019Z</time></trkpt><trkpt lat="44.651296" lon="8.8167324"><ele>361.0</ele><time>2026-04-18T10:16:07.018Z</time></trkpt><trkpt lat="44.6514244" lon="8.816726"><ele>361.0</ele><time>2026-04-18T10:16:08.018Z</time></trkpt><trkpt lat="44.6515372" lon="8.8167621"><ele>361.0</ele><time>2026-04-18T10:16:09.019Z</time></trkpt><trkpt lat="44.6516358" lon="8.816842"><ele>359.0</ele><time>2026-04-18T10:16:10.018Z</time></trkpt><trkpt lat="44.6517266" lon="8.8169402"><ele>357.0</ele><time>2026-04-18T10:16:11.019Z</time></trkpt><trkpt lat="44.6518177" lon="8.8170201"><ele>355.0</ele><time>2026-04-18T10:16:12.019Z</time></trkpt><trkpt lat="44.6519158" lon="8.8170579"><ele>353.0</ele><time>2026-04-18T10:16:13.019Z</time></trkpt><trkpt lat="44.6520161" lon="8.8170504"><ele>351.0</ele><time>2026-04-18T10:16:14.019Z</time></trkpt><trkpt lat="44.6521161" lon="8.8170037"><ele>352.0</ele><time>2026-04-18T10:16:15.019Z</time></trkpt><trkpt lat="44.652204" lon="8.8169123"><ele>353.0</ele><time>2026-04-18T10:16:16.019Z</time></trkpt><trkpt lat="44.6522817" lon="8.8167863"><ele>354.0</ele><time>2026-04-18T10:16:17.019Z</time></trkpt><trkpt lat="44.6523836" lon="8.8166702"><ele>355.0</ele><time>2026-04-18T10:16:18.018Z</time></trkpt><trkpt lat="44.6525167" lon="8.8165771"><ele>355.0</ele><time>2026-04-18T10:16:19.019Z</time></trkpt><trkpt lat="44.6526674" lon="8.8164797"><ele>355.0</ele><time>2026-04-18T10:16:20.019Z</time></trkpt><trkpt lat="44.6528227" lon="8.8163543"><ele>355.0</ele><time>2026-04-18T10:16:21.019Z</time></trkpt><trkpt lat="44.6529714" lon="8.8162146"><ele>354.3333333333333</ele><time>2026-04-18T10:16:22.018Z</time></trkpt><trkpt lat="44.6531036" lon="8.8160755"><ele>353.6666666666667</ele><time>2026-04-18T10:16:23.018Z</time></trkpt><trkpt lat="44.6532305" lon="8.8159419"><ele>353.0</ele><time>2026-04-18T10:16:24.018Z</time></trkpt><trkpt lat="44.6533597" lon="8.8158268"><ele>353.0</ele><time>2026-04-18T10:16:25.018Z</time></trkpt><trkpt lat="44.6534935" lon="8.8157369"><ele>353.0</ele><time>2026-04-18T10:16:26.019Z</time></trkpt><trkpt lat="44.6536333" lon="8.8156744"><ele>353.0</ele><time>2026-04-18T10:16:27.018Z</time></trkpt><trkpt lat="44.6537681" lon="8.8156419"><ele>353.0</ele><time>2026-04-18T10:16:28.018Z</time></trkpt><trkpt lat="44.6538962" lon="8.8156423"><ele>353.25</ele><time>2026-04-18T10:16:29.019Z</time></trkpt><trkpt lat="44.6540161" lon="8.8156783"><ele>353.5</ele><time>2026-04-18T10:16:30.019Z</time></trkpt><trkpt lat="44.6541178" lon="8.815754"><ele>353.75</ele><time>2026-04-18T10:16:31.019Z</time></trkpt><trkpt lat="44.6542068" lon="8.8158682"><ele>354.0</ele><time>2026-04-18T10:16:32.019Z</time></trkpt><trkpt lat="44.6542828" lon="8.8160178"><ele>351.79999999999995</ele><time>2026-04-18T10:16:33.019Z</time></trkpt><trkpt lat="44.6543398" lon="8.8161682"><ele>349.59999999999997</ele><time>2026-04-18T10:16:34.019Z</time></trkpt><trkpt lat="44.6543721" lon="8.8163157"><ele>347.4</ele><time>2026-04-18T10:16:35.019Z</time></trkpt><trkpt lat="44.6543654" lon="8.8164659"><ele>345.2</ele><time>2026-04-18T10:16:36.019Z</time></trkpt><trkpt lat="44.6543337" lon="8.8166112"><ele>343.0</ele><time>2026-04-18T10:16:37.019Z</time></trkpt><trkpt lat="44.6542905" lon="8.8167544"><ele>341.79999999999995</ele><time>2026-04-18T10:16:38.018Z</time></trkpt><trkpt lat="44.6542702" lon="8.8168893"><ele>340.6</ele><time>2026-04-18T10:16:39.018Z</time></trkpt><trkpt lat="44.6542738" lon="8.8170187"><ele>339.4</ele><time>2026-04-18T10:16:40.018Z</time></trkpt><trkpt lat="44.6543101" lon="8.8171504"><ele>338.20000000000005</ele><time>2026-04-18T10:16:41.018Z</time></trkpt><trkpt lat="44.6543752" lon="8.817268"><ele>337.0</ele><time>2026-04-18T10:16:42.019Z</time></trkpt><trkpt lat="44.6544378" lon="8.8173823"><ele>336.20000000000005</ele><time>2026-04-18T10:16:43.019Z</time></trkpt><trkpt lat="44.6544804" lon="8.817515"><ele>335.4</ele><time>2026-04-18T10:16:44.019Z</time></trkpt><trkpt lat="44.6544902" lon="8.8176573"><ele>334.6</ele><time>2026-04-18T10:16:45.019Z</time></trkpt><trkpt lat="44.6544615" lon="8.8177946"><ele>333.79999999999995</ele><time>2026-04-18T10:16:46.019Z</time></trkpt><trkpt lat="44.6544084" lon="8.8179311"><ele>333.0</ele><time>2026-04-18T10:16:47.018Z</time></trkpt><trkpt lat="44.6543451" lon="8.8180721"><ele>333.0</ele><time>2026-04-18T10:16:48.019Z</time></trkpt><trkpt lat="44.6542751" lon="8.8182058"><ele>333.0</ele><time>2026-04-18T10:16:49.018Z</time></trkpt><trkpt lat="44.6541982" lon="8.8183295"><ele>333.0</ele><time>2026-04-18T10:16:50.018Z</time></trkpt><trkpt lat="44.6541106" lon="8.8184353"><ele>333.0</ele><time>2026-04-18T10:16:51.019Z</time></trkpt><trkpt lat="44.6540142" lon="8.8185211"><ele>332.4</ele><time>2026-04-18T10:16:52.019Z</time></trkpt><trkpt lat="44.6539083" lon="8.8185777"><ele>331.79999999999995</ele><time>2026-04-18T10:16:53.018Z</time></trkpt><trkpt lat="44.6537987" lon="8.8186261"><ele>331.2</ele><time>2026-04-18T10:16:54.018Z</time></trkpt><trkpt lat="44.6537071" lon="8.8186957"><ele>330.6</ele><time>2026-04-18T10:16:55.018Z</time></trkpt><trkpt lat="44.6536389" lon="8.818806"><ele>330.0</ele><time>2026-04-18T10:16:56.019Z</time></trkpt><trkpt lat="44.6535988" lon="8.8189429"><ele>329.5</ele><time>2026-04-18T10:16:57.019Z</time></trkpt><trkpt lat="44.6535895" lon="8.8191047"><ele>329.0</ele><time>2026-04-18T10:16:58.019Z</time></trkpt><trkpt lat="44.6536068" lon="8.8192862"><ele>328.5</ele><time>2026-04-18T10:16:59.019Z</time></trkpt><trkpt lat="44.653639" lon="8.8194806"><ele>328.0</ele><time>2026-04-18T10:17:00.019Z</time></trkpt><trkpt lat="44.6536767" lon="8.8196883"><ele>327.66666666666663</ele><time>2026-04-18T10:17:01.019Z</time></trkpt><trkpt lat="44.6537123" lon="8.8199055"><ele>327.3333333333333</ele><time>2026-04-18T10:17:02.019Z</time></trkpt><trkpt lat="44.6537428" lon="8.8201213"><ele>327.0</ele><time>2026-04-18T10:17:03.019Z</time></trkpt><trkpt lat="44.653767" lon="8.820331"><ele>324.75</ele><time>2026-04-18T10:17:04.019Z</time></trkpt><trkpt lat="44.6537932" lon="8.8205344"><ele>322.5</ele><time>2026-04-18T10:17:05.019Z</time></trkpt><trkpt lat="44.6538358" lon="8.8207226"><ele>320.25</ele><time>2026-04-18T10:17:06.019Z</time></trkpt><trkpt lat="44.6539027" lon="8.820904"><ele>318.0</ele><time>2026-04-18T10:17:07.019Z</time></trkpt><trkpt lat="44.6539994" lon="8.8210894"><ele>316.0</ele><time>2026-04-18T10:17:08.018Z</time></trkpt><trkpt lat="44.6541108" lon="8.8212802"><ele>314.0</ele><time>2026-04-18T10:17:09.019Z</time></trkpt><trkpt lat="44.6542306" lon="8.8214733"><ele>312.0</ele><time>2026-04-18T10:17:10.019Z</time></trkpt><trkpt lat="44.6543556" lon="8.8216645"><ele>311.0</ele><time>2026-04-18T10:17:11.018Z</time></trkpt><trkpt lat="44.6544764" lon="8.8218512"><ele>310.0</ele><time>2026-04-18T10:17:12.018Z</time></trkpt><trkpt lat="44.654596" lon="8.822039"><ele>309.0</ele><time>2026-04-18T10:17:13.019Z</time></trkpt><trkpt lat="44.654714" lon="8.8222259"><ele>309.0</ele><time>2026-04-18T10:17:14.018Z</time></trkpt><trkpt lat="44.65483" lon="8.8224184"><ele>309.0</ele><time>2026-04-18T10:17:15.018Z</time></trkpt><trkpt lat="44.6549421" lon="8.8226118"><ele>309.0</ele><time>2026-04-18T10:17:16.019Z</time></trkpt><trkpt lat="44.6550558" lon="8.8228042"><ele>308.0</ele><time>2026-04-18T10:17:17.018Z</time></trkpt><trkpt lat="44.655174" lon="8.8229906"><ele>307.0</ele><time>2026-04-18T10:17:18.019Z</time></trkpt><trkpt lat="44.6552904" lon="8.8231719"><ele>306.0</ele><time>2026-04-18T10:17:19.018Z</time></trkpt><trkpt lat="44.6553948" lon="8.8233532"><ele>303.3333333333333</ele><time>2026-04-18T10:17:20.018Z</time></trkpt><trkpt lat="44.6554995" lon="8.8235247"><ele>300.66666666666663</ele><time>2026-04-18T10:17:21.019Z</time></trkpt><trkpt lat="44.6556038" lon="8.8236858"><ele>298.0</ele><time>2026-04-18T10:17:22.019Z</time></trkpt><trkpt lat="44.6557016" lon="8.8238504"><ele>298.0</ele><time>2026-04-18T10:17:23.018Z</time></trkpt><trkpt lat="44.6557899" lon="8.824022"><ele>298.0</ele><time>2026-04-18T10:17:24.018Z</time></trkpt><trkpt lat="44.6558584" lon="8.8242007"><ele>298.0</ele><time>2026-04-18T10:17:25.019Z</time></trkpt><trkpt lat="44.6559086" lon="8.8243979"><ele>298.0</ele><time>2026-04-18T10:17:26.018Z</time></trkpt><trkpt lat="44.655944" lon="8.8246194"><ele>297.0</ele><time>2026-04-18T10:17:27.018Z</time></trkpt><trkpt lat="44.6559708" lon="8.8248438"><ele>296.0</ele><time>2026-04-18T10:17:28.019Z</time></trkpt><trkpt lat="44.6559946" lon="8.8250574"><ele>295.0</ele><time>2026-04-18T10:17:29.018Z</time></trkpt><trkpt lat="44.6560273" lon="8.8252584"><ele>295.0</ele><time>2026-04-18T10:17:30.018Z</time></trkpt><trkpt lat="44.6560701" lon="8.8254394"><ele>295.0</ele><time>2026-04-18T10:17:31.019Z</time></trkpt><trkpt lat="44.656135" lon="8.8255948"><ele>295.0</ele><time>2026-04-18T10:17:32.019Z</time></trkpt><trkpt lat="44.6562277" lon="8.8257438"><ele>295.0</ele><time>2026-04-18T10:17:33.018Z</time></trkpt><trkpt lat="44.6563416" lon="8.8258904"><ele>294.66666666666663</ele><time>2026-04-18T10:17:34.019Z</time></trkpt><trkpt lat="44.6564568" lon="8.8260396"><ele>294.3333333333333</ele><time>2026-04-18T10:17:35.018Z</time></trkpt><trkpt lat="44.6565535" lon="8.8262043"><ele>294.0</ele><time>2026-04-18T10:17:36.018Z</time></trkpt><trkpt lat="44.6566563" lon="8.8263639"><ele>294.0</ele><time>2026-04-18T10:17:37.019Z</time></trkpt><trkpt lat="44.6567749" lon="8.8264982"><ele>294.0</ele><time>2026-04-18T10:17:38.018Z</time></trkpt><trkpt lat="44.6568938" lon="8.8266033"><ele>294.0</ele><time>2026-04-18T10:17:39.019Z</time></trkpt><trkpt lat="44.6570094" lon="8.8266899"><ele>294.0</ele><time>2026-04-18T10:17:40.019Z</time></trkpt><trkpt lat="44.6571068" lon="8.826765"><ele>293.5</ele><time>2026-04-18T10:17:41.019Z</time></trkpt><trkpt lat="44.6571704" lon="8.8268439"><ele>293.0</ele><time>2026-04-18T10:17:42.019Z</time></trkpt><trkpt lat="44.6572116" lon="8.8269483"><ele>292.5</ele><time>2026-04-18T10:17:43.018Z</time></trkpt><trkpt lat="44.6572432" lon="8.8270678"><ele>292.0</ele><time>2026-04-18T10:17:44.018Z</time></trkpt><trkpt lat="44.6572795" lon="8.8271833"><ele>291.5</ele><time>2026-04-18T10:17:45.018Z</time></trkpt><trkpt lat="44.6573126" lon="8.8273004"><ele>291.0</ele><time>2026-04-18T10:17:46.019Z</time></trkpt><trkpt lat="44.6573384" lon="8.8274212"><ele>291.0</ele><time>2026-04-18T10:17:47.019Z</time></trkpt><trkpt lat="44.657348" lon="8.8275483"><ele>291.0</ele><time>2026-04-18T10:17:48.018Z</time></trkpt><trkpt lat="44.6573396" lon="8.827677"><ele>291.0</ele><time>2026-04-18T10:17:49.018Z</time></trkpt><trkpt lat="44.6573173" lon="8.8278095"><ele>291.0</ele><time>2026-04-18T10:17:50.018Z</time></trkpt><trkpt lat="44.6572893" lon="8.8279454"><ele>291.0</ele><time>2026-04-18T10:17:51.018Z</time></trkpt><trkpt lat="44.6572595" lon="8.8280729"><ele>290.57142857142856</ele><time>2026-04-18T10:17:52.019Z</time></trkpt><trkpt lat="44.6572276" lon="8.8281825"><ele>290.1428571428571</ele><time>2026-04-18T10:17:53.018Z</time></trkpt><trkpt lat="44.6571985" lon="8.8282869"><ele>289.7142857142857</ele><time>2026-04-18T10:17:54.019Z</time></trkpt><trkpt lat="44.6571709" lon="8.8283783"><ele>289.2857142857143</ele><time>2026-04-18T10:17:55.018Z</time></trkpt><trkpt lat="44.6571438" lon="8.8284606"><ele>288.8571428571429</ele><time>2026-04-18T10:17:56.019Z</time></trkpt><trkpt lat="44.6571103" lon="8.8285411"><ele>288.42857142857144</ele><time>2026-04-18T10:17:57.019Z</time></trkpt><trkpt lat="44.6570793" lon="8.8286326"><ele>288.0</ele><time>2026-04-18T10:17:58.018Z</time></trkpt><trkpt lat="44.6570555" lon="8.82874"><ele>288.0</ele><time>2026-04-18T10:17:59.018Z</time></trkpt><trkpt lat="44.6570453" lon="8.8288448"><ele>288.0</ele><time>2026-04-18T10:18:00.018Z</time></trkpt><trkpt lat="44.6570449" lon="8.8289481"><ele>288.0</ele><time>2026-04-18T10:18:01.019Z</time></trkpt><trkpt lat="44.6570419" lon="8.8290421"><ele>288.0</ele><time>2026-04-18T10:18:02.019Z</time></trkpt><trkpt lat="44.6570374" lon="8.8292114"><ele>288.0</ele><time>2026-04-18T10:18:04.018Z</time></trkpt><trkpt lat="44.6570325" lon="8.8293661"><ele>288.0</ele><time>2026-04-18T10:18:06.018Z</time></trkpt><trkpt lat="44.6570489" lon="8.829515"><ele>287.6666666666667</ele><time>2026-04-18T10:18:08.019Z</time></trkpt><trkpt lat="44.6570821" lon="8.8295987"><ele>287.3333333333333</ele><time>2026-04-18T10:18:09.018Z</time></trkpt><trkpt lat="44.657127" lon="8.8296826"><ele>287.0</ele><time>2026-04-18T10:18:10.019Z</time></trkpt><trkpt lat="44.6571786" lon="8.8297607"><ele>286.66666666666663</ele><time>2026-04-18T10:18:11.018Z</time></trkpt><trkpt lat="44.6572331" lon="8.8298435"><ele>286.3333333333333</ele><time>2026-04-18T10:18:12.019Z</time></trkpt><trkpt lat="44.6572906" lon="8.8299291"><ele>286.0</ele><time>2026-04-18T10:18:13.018Z</time></trkpt><trkpt lat="44.6573508" lon="8.8300085"><ele>286.0</ele><time>2026-04-18T10:18:14.019Z</time></trkpt><trkpt lat="44.6574159" lon="8.8300802"><ele>286.0</ele><time>2026-04-18T10:18:15.019Z</time></trkpt><trkpt lat="44.6574814" lon="8.8301491"><ele>286.0</ele><time>2026-04-18T10:18:16.019Z</time></trkpt><trkpt lat="44.6575492" lon="8.8302144"><ele>286.0</ele><time>2026-04-18T10:18:17.019Z</time></trkpt><trkpt lat="44.6576127" lon="8.8302732"><ele>286.0</ele><time>2026-04-18T10:18:18.019Z</time></trkpt><trkpt lat="44.6576717" lon="8.8303243"><ele>286.0</ele><time>2026-04-18T10:18:19.019Z</time></trkpt><trkpt lat="44.657731" lon="8.8303601"><ele>283.66666666666663</ele><time>2026-04-18T10:18:20.018Z</time></trkpt><trkpt lat="44.6577955" lon="8.8303799"><ele>281.3333333333333</ele><time>2026-04-18T10:18:21.019Z</time></trkpt><trkpt lat="44.6578613" lon="8.8303893"><ele>279.0</ele><time>2026-04-18T10:18:22.018Z</time></trkpt><trkpt lat="44.6579719" lon="8.8303371"><ele>276.6666666666667</ele><time>2026-04-18T10:18:24.019Z</time></trkpt><trkpt lat="44.6580456" lon="8.8302614"><ele>274.33333333333337</ele><time>2026-04-18T10:18:26.019Z</time></trkpt><trkpt lat="44.6581118" lon="8.8302814"><ele>272.0</ele><time>2026-04-18T10:18:28.018Z</time></trkpt><trkpt lat="44.6581252" lon="8.8303822"><ele>272.0</ele><time>2026-04-18T10:18:30.019Z</time></trkpt><trkpt lat="44.6580852" lon="8.8304856"><ele>272.0</ele><time>2026-04-18T10:18:32.018Z</time></trkpt><trkpt lat="44.6580225" lon="8.8305562"><ele>272.0</ele><time>2026-04-18T10:18:34.018Z</time></trkpt><trkpt lat="44.6579242" lon="8.830593"><ele>272.0</ele><time>2026-04-18T10:18:36.018Z</time></trkpt><trkpt lat="44.6578022" lon="8.8305583"><ele>272.0</ele><time>2026-04-18T10:18:38.019Z</time></trkpt><trkpt lat="44.6577217" lon="8.830523"><ele>273.25</ele><time>2026-04-18T10:18:39.019Z</time></trkpt><trkpt lat="44.6576176" lon="8.8304782"><ele>274.5</ele><time>2026-04-18T10:18:40.019Z</time></trkpt><trkpt lat="44.6575141" lon="8.8304234"><ele>275.75</ele><time>2026-04-18T10:18:41.019Z</time></trkpt><trkpt lat="44.6574039" lon="8.8303691"><ele>277.0</ele><time>2026-04-18T10:18:42.019Z</time></trkpt><trkpt lat="44.6572903" lon="8.83032"><ele>277.0</ele><time>2026-04-18T10:18:43.019Z</time></trkpt><trkpt lat="44.6571792" lon="8.8302914"><ele>277.0</ele><time>2026-04-18T10:18:44.018Z</time></trkpt><trkpt lat="44.657068" lon="8.8302917"><ele>277.0</ele><time>2026-04-18T10:18:45.019Z</time></trkpt><trkpt lat="44.6569569" lon="8.830303"><ele>277.0</ele><time>2026-04-18T10:18:46.019Z</time></trkpt><trkpt lat="44.6568457" lon="8.8303141"><ele>277.0</ele><time>2026-04-18T10:18:47.019Z</time></trkpt><trkpt lat="44.6567371" lon="8.8303217"><ele>276.8</ele><time>2026-04-18T10:18:48.019Z</time></trkpt><trkpt lat="44.6566308" lon="8.8303301"><ele>276.6</ele><time>2026-04-18T10:18:49.018Z</time></trkpt><trkpt lat="44.656529" lon="8.8303395"><ele>276.40000000000003</ele><time>2026-04-18T10:18:50.018Z</time></trkpt><trkpt lat="44.656428" lon="8.8303519"><ele>276.2</ele><time>2026-04-18T10:18:51.019Z</time></trkpt><trkpt lat="44.6563315" lon="8.8303668"><ele>276.0</ele><time>2026-04-18T10:18:52.019Z</time></trkpt><trkpt lat="44.6562373" lon="8.8303799"><ele>276.0</ele><time>2026-04-18T10:18:53.019Z</time></trkpt><trkpt lat="44.6561403" lon="8.8303922"><ele>276.0</ele><time>2026-04-18T10:18:54.018Z</time></trkpt><trkpt lat="44.6560412" lon="8.8304026"><ele>276.0</ele><time>2026-04-18T10:18:55.018Z</time></trkpt><trkpt lat="44.6559367" lon="8.8304098"><ele>276.0</ele><time>2026-04-18T10:18:56.019Z</time></trkpt><trkpt lat="44.6558314" lon="8.830415"><ele>276.0</ele><time>2026-04-18T10:18:57.018Z</time></trkpt><trkpt lat="44.6557209" lon="8.8304211"><ele>276.25</ele><time>2026-04-18T10:18:58.019Z</time></trkpt><trkpt lat="44.6556096" lon="8.8304261"><ele>276.5</ele><time>2026-04-18T10:18:59.018Z</time></trkpt><trkpt lat="44.655495" lon="8.8304314"><ele>276.75</ele><time>2026-04-18T10:19:00.018Z</time></trkpt><trkpt lat="44.6553744" lon="8.8304362"><ele>277.0</ele><time>2026-04-18T10:19:01.019Z</time></trkpt><trkpt lat="44.6552467" lon="8.8304369"><ele>277.0</ele><time>2026-04-18T10:19:02.019Z</time></trkpt><trkpt lat="44.6551229" lon="8.8304384"><ele>277.0</ele><time>2026-04-18T10:19:03.019Z</time></trkpt><trkpt lat="44.6550065" lon="8.8304414"><ele>277.0</ele><time>2026-04-18T10:19:04.019Z</time></trkpt><trkpt lat="44.6548923" lon="8.8304443"><ele>277.0</ele><time>2026-04-18T10:19:05.018Z</time></trkpt><trkpt lat="44.6547782" lon="8.8304463"><ele>277.0</ele><time>2026-04-18T10:19:06.019Z</time></trkpt><trkpt lat="44.6546606" lon="8.8304503"><ele>277.0</ele><time>2026-04-18T10:19:07.019Z</time></trkpt><trkpt lat="44.6545447" lon="8.8304549"><ele>277.0</ele><time>2026-04-18T10:19:08.018Z</time></trkpt><trkpt lat="44.6544345" lon="8.8304565"><ele>277.0</ele><time>2026-04-18T10:19:09.019Z</time></trkpt><trkpt lat="44.6543218" lon="8.8304653"><ele>278.0</ele><time>2026-04-18T10:19:10.019Z</time></trkpt><trkpt lat="44.6542016" lon="8.8304733"><ele>279.0</ele><time>2026-04-18T10:19:11.018Z</time></trkpt><trkpt lat="44.6540693" lon="8.8304777"><ele>280.0</ele><time>2026-04-18T10:19:12.019Z</time></trkpt><trkpt lat="44.6539239" lon="8.8304803"><ele>281.0</ele><time>2026-04-18T10:19:13.019Z</time></trkpt><trkpt lat="44.6537739" lon="8.8304863"><ele>281.0</ele><time>2026-04-18T10:19:14.019Z</time></trkpt><trkpt lat="44.6536233" lon="8.8304935"><ele>281.0</ele><time>2026-04-18T10:19:15.018Z</time></trkpt><trkpt lat="44.6534781" lon="8.8305024"><ele>281.0</ele><time>2026-04-18T10:19:16.019Z</time></trkpt><trkpt lat="44.6533314" lon="8.8304985"><ele>281.0</ele><time>2026-04-18T10:19:17.019Z</time></trkpt><trkpt lat="44.6531857" lon="8.8304695"><ele>280.25</ele><time>2026-04-18T10:19:18.019Z</time></trkpt><trkpt lat="44.6530476" lon="8.8304048"><ele>279.5</ele><time>2026-04-18T10:19:19.018Z</time></trkpt><trkpt lat="44.6529182" lon="8.8303317"><ele>278.75</ele><time>2026-04-18T10:19:20.018Z</time></trkpt><trkpt lat="44.6527809" lon="8.8302864"><ele>278.0</ele><time>2026-04-18T10:19:21.019Z</time></trkpt><trkpt lat="44.6526316" lon="8.8302841"><ele>276.0</ele><time>2026-04-18T10:19:22.018Z</time></trkpt><trkpt lat="44.65248" lon="8.830309"><ele>274.0</ele><time>2026-04-18T10:19:23.019Z</time></trkpt><trkpt lat="44.6523282" lon="8.830332"><ele>272.0</ele><time>2026-04-18T10:19:24.018Z</time></trkpt><trkpt lat="44.6521744" lon="8.830361"><ele>272.0</ele><time>2026-04-18T10:19:25.018Z</time></trkpt><trkpt lat="44.6520229" lon="8.8304292"><ele>272.0</ele><time>2026-04-18T10:19:26.019Z</time></trkpt><trkpt lat="44.6518711" lon="8.8305172"><ele>272.0</ele><time>2026-04-18T10:19:27.018Z</time></trkpt><trkpt lat="44.6517199" lon="8.8306075"><ele>273.6666666666667</ele><time>2026-04-18T10:19:28.018Z</time></trkpt><trkpt lat="44.651572" lon="8.8307103"><ele>275.3333333333333</ele><time>2026-04-18T10:19:29.019Z</time></trkpt><trkpt lat="44.6514333" lon="8.8308388"><ele>277.0</ele><time>2026-04-18T10:19:30.019Z</time></trkpt><trkpt lat="44.6513" lon="8.8309779"><ele>275.0</ele><time>2026-04-18T10:19:31.019Z</time></trkpt><trkpt lat="44.6511545" lon="8.8311011"><ele>273.0</ele><time>2026-04-18T10:19:32.019Z</time></trkpt><trkpt lat="44.6509929" lon="8.8312151"><ele>271.0</ele><time>2026-04-18T10:19:33.019Z</time></trkpt><trkpt lat="44.6508164" lon="8.8313225"><ele>271.0</ele><time>2026-04-18T10:19:34.018Z</time></trkpt><trkpt lat="44.6506295" lon="8.8314314"><ele>271.0</ele><time>2026-04-18T10:19:35.019Z</time></trkpt><trkpt lat="44.6504434" lon="8.8315431"><ele>271.0</ele><time>2026-04-18T10:19:36.018Z</time></trkpt><trkpt lat="44.6502554" lon="8.8316523"><ele>270.0</ele><time>2026-04-18T10:19:37.018Z</time></trkpt><trkpt lat="44.6500685" lon="8.8317621"><ele>269.0</ele><time>2026-04-18T10:19:38.019Z</time></trkpt><trkpt lat="44.6498861" lon="8.8318765"><ele>268.0</ele><time>2026-04-18T10:19:39.019Z</time></trkpt><trkpt lat="44.6497181" lon="8.8319901"><ele>268.0</ele><time>2026-04-18T10:19:40.018Z</time></trkpt><trkpt lat="44.649565" lon="8.8320963"><ele>268.0</ele><time>2026-04-18T10:19:41.018Z</time></trkpt><trkpt lat="44.6494335" lon="8.8321873"><ele>268.0</ele><time>2026-04-18T10:19:42.019Z</time></trkpt><trkpt lat="44.6493079" lon="8.8322516"><ele>270.5</ele><time>2026-04-18T10:19:43.018Z</time></trkpt><trkpt lat="44.6491808" lon="8.8322735"><ele>273.0</ele><time>2026-04-18T10:19:44.019Z</time></trkpt><trkpt lat="44.6490614" lon="8.8322452"><ele>275.5</ele><time>2026-04-18T10:19:45.019Z</time></trkpt><trkpt lat="44.6489608" lon="8.832154"><ele>278.0</ele><time>2026-04-18T10:19:46.018Z</time></trkpt><trkpt lat="44.648871" lon="8.8320122"><ele>278.0</ele><time>2026-04-18T10:19:47.018Z</time></trkpt><trkpt lat="44.6487925" lon="8.8318513"><ele>278.0</ele><time>2026-04-18T10:19:48.018Z</time></trkpt><trkpt lat="44.648709" lon="8.8317061"><ele>278.0</ele><time>2026-04-18T10:19:49.019Z</time></trkpt><trkpt lat="44.6485982" lon="8.8316083"><ele>278.0</ele><time>2026-04-18T10:19:50.019Z</time></trkpt><trkpt lat="44.6484622" lon="8.8315346"><ele>279.33333333333337</ele><time>2026-04-18T10:19:51.019Z</time></trkpt><trkpt lat="44.6483018" lon="8.8314921"><ele>280.6666666666667</ele><time>2026-04-18T10:19:52.019Z</time></trkpt><trkpt lat="44.6481263" lon="8.8314622"><ele>282.0</ele><time>2026-04-18T10:19:53.019Z</time></trkpt><trkpt lat="44.6479394" lon="8.8314339"><ele>278.6666666666667</ele><time>2026-04-18T10:19:54.019Z</time></trkpt><trkpt lat="44.6477472" lon="8.8314171"><ele>275.33333333333337</ele><time>2026-04-18T10:19:55.019Z</time></trkpt><trkpt lat="44.6475494" lon="8.8314414"><ele>272.0</ele><time>2026-04-18T10:19:56.018Z</time></trkpt><trkpt lat="44.6473502" lon="8.8315117"><ele>272.0</ele><time>2026-04-18T10:19:57.019Z</time></trkpt><trkpt lat="44.647145" lon="8.8316142"><ele>272.0</ele><time>2026-04-18T10:19:58.019Z</time></trkpt><trkpt lat="44.6469328" lon="8.8317181"><ele>272.0</ele><time>2026-04-18T10:19:59.018Z</time></trkpt><trkpt lat="44.646711" lon="8.8318051"><ele>271.0</ele><time>2026-04-18T10:20:00.019Z</time></trkpt><trkpt lat="44.6464793" lon="8.8318717"><ele>270.0</ele><time>2026-04-18T10:20:01.019Z</time></trkpt><trkpt lat="44.6462399" lon="8.8319256"><ele>274.0</ele><time>2026-04-18T10:20:02.018Z</time></trkpt><trkpt lat="44.6460005" lon="8.831994"><ele>278.0</ele><time>2026-04-18T10:20:03.019Z</time></trkpt><trkpt lat="44.645762" lon="8.8320843"><ele>278.0</ele><time>2026-04-18T10:20:04.019Z</time></trkpt><trkpt lat="44.6455271" lon="8.832197"><ele>278.0</ele><time>2026-04-18T10:20:05.019Z</time></trkpt><trkpt lat="44.6452996" lon="8.8323284"><ele>279.5</ele><time>2026-04-18T10:20:06.018Z</time></trkpt><trkpt lat="44.6450814" lon="8.8324692"><ele>281.0</ele><time>2026-04-18T10:20:07.019Z</time></trkpt><trkpt lat="44.6448744" lon="8.8326077"><ele>281.33333333333337</ele><time>2026-04-18T10:20:08.019Z</time></trkpt><trkpt lat="44.6446793" lon="8.8327324"><ele>281.6666666666667</ele><time>2026-04-18T10:20:09.018Z</time></trkpt><trkpt lat="44.6444919" lon="8.8328325"><ele>282.0</ele><time>2026-04-18T10:20:10.018Z</time></trkpt><trkpt lat="44.6443049" lon="8.8329092"><ele>284.0</ele><time>2026-04-18T10:20:11.019Z</time></trkpt><trkpt lat="44.644112" lon="8.8329704"><ele>286.0</ele><time>2026-04-18T10:20:12.018Z</time></trkpt><trkpt lat="44.6439115" lon="8.8330271"><ele>288.0</ele><time>2026-04-18T10:20:13.019Z</time></trkpt><trkpt lat="44.6437049" lon="8.833093"><ele>290.6666666666667</ele><time>2026-04-18T10:20:14.019Z</time></trkpt><trkpt lat="44.6434964" lon="8.8331645"><ele>293.33333333333337</ele><time>2026-04-18T10:20:15.019Z</time></trkpt><trkpt lat="44.6432923" lon="8.8332375"><ele>296.0</ele><time>2026-04-18T10:20:16.019Z</time></trkpt><trkpt lat="44.6430925" lon="8.833315"><ele>296.0</ele><time>2026-04-18T10:20:17.018Z</time></trkpt><trkpt lat="44.6428949" lon="8.8333937"><ele>296.0</ele><time>2026-04-18T10:20:18.019Z</time></trkpt><trkpt lat="44.6426986" lon="8.8334739"><ele>296.0</ele><time>2026-04-18T10:20:19.019Z</time></trkpt><trkpt lat="44.6425042" lon="8.833567"><ele>296.33333333333337</ele><time>2026-04-18T10:20:20.019Z</time></trkpt><trkpt lat="44.642309" lon="8.8336825"><ele>296.6666666666667</ele><time>2026-04-18T10:20:21.019Z</time></trkpt><trkpt lat="44.6421116" lon="8.8338137"><ele>297.0</ele><time>2026-04-18T10:20:22.019Z</time></trkpt><trkpt lat="44.64191" lon="8.8339472"><ele>300.0</ele><time>2026-04-18T10:20:23.019Z</time></trkpt><trkpt lat="44.6417072" lon="8.8340803"><ele>303.0</ele><time>2026-04-18T10:20:24.019Z</time></trkpt><trkpt lat="44.6415063" lon="8.8341948"><ele>306.0</ele><time>2026-04-18T10:20:25.019Z</time></trkpt><trkpt lat="44.6413143" lon="8.8342979"><ele>301.6666666666667</ele><time>2026-04-18T10:20:26.018Z</time></trkpt><trkpt lat="44.6411309" lon="8.8343894"><ele>297.33333333333337</ele><time>2026-04-18T10:20:27.019Z</time></trkpt><trkpt lat="44.6409519" lon="8.8344515"><ele>293.0</ele><time>2026-04-18T10:20:28.019Z</time></trkpt><trkpt lat="44.6407809" lon="8.8344668"><ele>293.0</ele><time>2026-04-18T10:20:29.019Z</time></trkpt><trkpt lat="44.6406172" lon="8.8344303"><ele>293.0</ele><time>2026-04-18T10:20:30.018Z</time></trkpt><trkpt lat="44.6404669" lon="8.8343589"><ele>293.0</ele><time>2026-04-18T10:20:31.019Z</time></trkpt><trkpt lat="44.6403194" lon="8.8342996"><ele>295.33333333333337</ele><time>2026-04-18T10:20:32.018Z</time></trkpt><trkpt lat="44.6401664" lon="8.8343121"><ele>297.6666666666667</ele><time>2026-04-18T10:20:33.019Z</time></trkpt><trkpt lat="44.6400079" lon="8.834348"><ele>300.0</ele><time>2026-04-18T10:20:34.019Z</time></trkpt><trkpt lat="44.6398632" lon="8.8343991"><ele>300.0</ele><time>2026-04-18T10:20:35.016Z</time></trkpt><trkpt lat="44.6397352" lon="8.8344909"><ele>300.0</ele><time>2026-04-18T10:20:36.019Z</time></trkpt><trkpt lat="44.6396286" lon="8.8346306"><ele>300.0</ele><time>2026-04-18T10:20:37.018Z</time></trkpt><trkpt lat="44.639527" lon="8.8347982"><ele>300.0</ele><time>2026-04-18T10:20:38.019Z</time></trkpt><trkpt lat="44.639404" lon="8.8349569"><ele>305.0</ele><time>2026-04-18T10:20:39.018Z</time></trkpt><trkpt lat="44.6392534" lon="8.8350822"><ele>310.0</ele><time>2026-04-18T10:20:40.019Z</time></trkpt><trkpt lat="44.6390859" lon="8.8351801"><ele>315.0</ele><time>2026-04-18T10:20:41.018Z</time></trkpt><trkpt lat="44.6389227" lon="8.8352568"><ele>315.0</ele><time>2026-04-18T10:20:42.018Z</time></trkpt><trkpt lat="44.638772" lon="8.8353256"><ele>315.0</ele><time>2026-04-18T10:20:43.018Z</time></trkpt><trkpt lat="44.6386506" lon="8.8354098"><ele>315.0</ele><time>2026-04-18T10:20:44.018Z</time></trkpt><trkpt lat="44.6385515" lon="8.835525"><ele>315.0</ele><time>2026-04-18T10:20:45.019Z</time></trkpt><trkpt lat="44.6384943" lon="8.8356782"><ele>317.0</ele><time>2026-04-18T10:20:46.016Z</time></trkpt><trkpt lat="44.6384641" lon="8.8358656"><ele>319.0</ele><time>2026-04-18T10:20:47.019Z</time></trkpt><trkpt lat="44.6384389" lon="8.8360816"><ele>321.0</ele><time>2026-04-18T10:20:48.019Z</time></trkpt><trkpt lat="44.6383885" lon="8.8363092"><ele>321.0</ele><time>2026-04-18T10:20:49.019Z</time></trkpt><trkpt lat="44.6383105" lon="8.8365416"><ele>321.0</ele><time>2026-04-18T10:20:50.014Z</time></trkpt><trkpt lat="44.6382188" lon="8.8367864"><ele>321.0</ele><time>2026-04-18T10:20:51.017Z</time></trkpt><trkpt lat="44.6381198" lon="8.8370427"><ele>318.0</ele><time>2026-04-18T10:20:52.018Z</time></trkpt><trkpt lat="44.638019" lon="8.8373094"><ele>315.0</ele><time>2026-04-18T10:20:53.018Z</time></trkpt><trkpt lat="44.6379144" lon="8.8375757"><ele>312.0</ele><time>2026-04-18T10:20:54.018Z</time></trkpt><trkpt lat="44.6378036" lon="8.8378306"><ele>313.6666666666667</ele><time>2026-04-18T10:20:55.019Z</time></trkpt><trkpt lat="44.6376905" lon="8.8380687"><ele>315.33333333333337</ele><time>2026-04-18T10:20:56.019Z</time></trkpt><trkpt lat="44.6375971" lon="8.8383042"><ele>317.0</ele><time>2026-04-18T10:20:57.018Z</time></trkpt><trkpt lat="44.6375222" lon="8.8385391"><ele>317.0</ele><time>2026-04-18T10:20:58.018Z</time></trkpt><trkpt lat="44.6374618" lon="8.8387637"><ele>317.0</ele><time>2026-04-18T10:20:59.019Z</time></trkpt><trkpt lat="44.6373951" lon="8.8389701"><ele>317.0</ele><time>2026-04-18T10:21:00.018Z</time></trkpt><trkpt lat="44.637297" lon="8.8391493"><ele>315.33333333333337</ele><time>2026-04-18T10:21:01.018Z</time></trkpt><trkpt lat="44.637171" lon="8.8393326"><ele>313.6666666666667</ele><time>2026-04-18T10:21:02.019Z</time></trkpt><trkpt lat="44.6370302" lon="8.8395221"><ele>312.0</ele><time>2026-04-18T10:21:03.018Z</time></trkpt><trkpt lat="44.6368826" lon="8.839727"><ele>312.6666666666667</ele><time>2026-04-18T10:21:04.019Z</time></trkpt><trkpt lat="44.6367279" lon="8.8399436"><ele>313.33333333333337</ele><time>2026-04-18T10:21:05.018Z</time></trkpt><trkpt lat="44.6365712" lon="8.8401637"><ele>314.0</ele><time>2026-04-18T10:21:06.019Z</time></trkpt><trkpt lat="44.6364182" lon="8.8403777"><ele>314.0</ele><time>2026-04-18T10:21:07.019Z</time></trkpt><trkpt lat="44.6362676" lon="8.8405867"><ele>314.0</ele><time>2026-04-18T10:21:08.019Z</time></trkpt><trkpt lat="44.6361213" lon="8.8407988"><ele>314.0</ele><time>2026-04-18T10:21:09.018Z</time></trkpt><trkpt lat="44.6359853" lon="8.8410239"><ele>316.33333333333337</ele><time>2026-04-18T10:21:10.019Z</time></trkpt><trkpt lat="44.6358663" lon="8.8412522"><ele>318.6666666666667</ele><time>2026-04-18T10:21:11.014Z</time></trkpt><trkpt lat="44.6357618" lon="8.8414721"><ele>321.0</ele><time>2026-04-18T10:21:12.019Z</time></trkpt><trkpt lat="44.6356629" lon="8.8416787"><ele>315.6666666666667</ele><time>2026-04-18T10:21:13.019Z</time></trkpt><trkpt lat="44.635572" lon="8.8418729"><ele>310.33333333333337</ele><time>2026-04-18T10:21:14.018Z</time></trkpt><trkpt lat="44.6354836" lon="8.8420541"><ele>305.0</ele><time>2026-04-18T10:21:15.019Z</time></trkpt><trkpt lat="44.6353932" lon="8.8422124"><ele>309.25</ele><time>2026-04-18T10:21:16.018Z</time></trkpt><trkpt lat="44.6352886" lon="8.8423363"><ele>313.5</ele><time>2026-04-18T10:21:17.018Z</time></trkpt><trkpt lat="44.6351602" lon="8.8424168"><ele>317.75</ele><time>2026-04-18T10:21:18.019Z</time></trkpt><trkpt lat="44.6350045" lon="8.8424582"><ele>322.0</ele><time>2026-04-18T10:21:19.018Z</time></trkpt><trkpt lat="44.6348294" lon="8.8424864"><ele>322.0</ele><time>2026-04-18T10:21:20.019Z</time></trkpt><trkpt lat="44.6346426" lon="8.8425576"><ele>322.0</ele><time>2026-04-18T10:21:21.018Z</time></trkpt><trkpt lat="44.6344549" lon="8.8426398"><ele>322.0</ele><time>2026-04-18T10:21:22.019Z</time></trkpt><trkpt lat="44.634259" lon="8.8427093"><ele>316.66666666666663</ele><time>2026-04-18T10:21:23.019Z</time></trkpt><trkpt lat="44.6340579" lon="8.8427668"><ele>311.3333333333333</ele><time>2026-04-18T10:21:24.017Z</time></trkpt><trkpt lat="44.6338579" lon="8.8427998"><ele>306.0</ele><time>2026-04-18T10:21:25.018Z</time></trkpt><trkpt lat="44.6336683" lon="8.8428053"><ele>309.0</ele><time>2026-04-18T10:21:26.019Z</time></trkpt><trkpt lat="44.6334903" lon="8.8428136"><ele>312.0</ele><time>2026-04-18T10:21:27.018Z</time></trkpt><trkpt lat="44.6333236" lon="8.8428562"><ele>315.0</ele><time>2026-04-18T10:21:28.019Z</time></trkpt><trkpt lat="44.6331674" lon="8.8429329"><ele>315.0</ele><time>2026-04-18T10:21:29.018Z</time></trkpt><trkpt lat="44.6330211" lon="8.8430276"><ele>315.0</ele><time>2026-04-18T10:21:30.019Z</time></trkpt><trkpt lat="44.6328723" lon="8.8430835"><ele>315.0</ele><time>2026-04-18T10:21:31.019Z</time></trkpt><trkpt lat="44.6327432" lon="8.8430796"><ele>315.0</ele><time>2026-04-18T10:21:32.018Z</time></trkpt><trkpt lat="44.6326365" lon="8.8430372"><ele>315.25</ele><time>2026-04-18T10:21:33.019Z</time></trkpt><trkpt lat="44.6325558" lon="8.8429331"><ele>315.5</ele><time>2026-04-18T10:21:34.019Z</time></trkpt><trkpt lat="44.6325048" lon="8.8427887"><ele>315.75</ele><time>2026-04-18T10:21:35.016Z</time></trkpt><trkpt lat="44.6324866" lon="8.842627"><ele>316.0</ele><time>2026-04-18T10:21:36.019Z</time></trkpt><trkpt lat="44.6324966" lon="8.8424578"><ele>318.5</ele><time>2026-04-18T10:21:37.016Z</time></trkpt><trkpt lat="44.6325076" lon="8.8422851"><ele>321.0</ele><time>2026-04-18T10:21:38.018Z</time></trkpt><trkpt lat="44.6324744" lon="8.8421216"><ele>323.5</ele><time>2026-04-18T10:21:39.019Z</time></trkpt><trkpt lat="44.6324135" lon="8.8419778"><ele>326.0</ele><time>2026-04-18T10:21:40.018Z</time></trkpt><trkpt lat="44.6323334" lon="8.8418608"><ele>327.75</ele><time>2026-04-18T10:21:41.018Z</time></trkpt><trkpt lat="44.6322415" lon="8.8417715"><ele>329.5</ele><time>2026-04-18T10:21:42.019Z</time></trkpt><trkpt lat="44.6321289" lon="8.8417049"><ele>331.25</ele><time>2026-04-18T10:21:43.018Z</time></trkpt><trkpt lat="44.6319937" lon="8.8416768"><ele>333.0</ele><time>2026-04-18T10:21:44.019Z</time></trkpt><trkpt lat="44.6318501" lon="8.8416963"><ele>333.0</ele><time>2026-04-18T10:21:45.019Z</time></trkpt><trkpt lat="44.631695" lon="8.8417559"><ele>333.0</ele><time>2026-04-18T10:21:46.018Z</time></trkpt><trkpt lat="44.6315283" lon="8.8418298"><ele>333.0</ele><time>2026-04-18T10:21:47.018Z</time></trkpt><trkpt lat="44.631352" lon="8.8419076"><ele>325.6666666666667</ele><time>2026-04-18T10:21:48.019Z</time></trkpt><trkpt lat="44.63118" lon="8.8419884"><ele>318.33333333333337</ele><time>2026-04-18T10:21:49.019Z</time></trkpt><trkpt lat="44.6310184" lon="8.8420607"><ele>311.0</ele><time>2026-04-18T10:21:50.019Z</time></trkpt><trkpt lat="44.6308629" lon="8.8421"><ele>310.75</ele><time>2026-04-18T10:21:51.018Z</time></trkpt><trkpt lat="44.6307158" lon="8.8421011"><ele>310.5</ele><time>2026-04-18T10:21:52.018Z</time></trkpt><trkpt lat="44.6305757" lon="8.842069"><ele>310.25</ele><time>2026-04-18T10:21:53.018Z</time></trkpt><trkpt lat="44.6304364" lon="8.8420126"><ele>310.0</ele><time>2026-04-18T10:21:54.019Z</time></trkpt><trkpt lat="44.6302906" lon="8.841974"><ele>311.25</ele><time>2026-04-18T10:21:55.018Z</time></trkpt><trkpt lat="44.6301545" lon="8.8419947"><ele>312.5</ele><time>2026-04-18T10:21:56.019Z</time></trkpt><trkpt lat="44.6300317" lon="8.8420562"><ele>313.75</ele><time>2026-04-18T10:21:57.018Z</time></trkpt><trkpt lat="44.6299006" lon="8.8421409"><ele>315.0</ele><time>2026-04-18T10:21:58.018Z</time></trkpt><trkpt lat="44.6297725" lon="8.8422228"><ele>315.0</ele><time>2026-04-18T10:21:59.019Z</time></trkpt><trkpt lat="44.6296491" lon="8.8423062"><ele>315.0</ele><time>2026-04-18T10:22:00.019Z</time></trkpt><trkpt lat="44.6295282" lon="8.8423896"><ele>315.0</ele><time>2026-04-18T10:22:01.018Z</time></trkpt><trkpt lat="44.629408" lon="8.8424713"><ele>315.0</ele><time>2026-04-18T10:22:02.019Z</time></trkpt><trkpt lat="44.6292757" lon="8.8425541"><ele>315.0</ele><time>2026-04-18T10:22:03.018Z</time></trkpt><trkpt lat="44.6291297" lon="8.8426287"><ele>315.0</ele><time>2026-04-18T10:22:04.018Z</time></trkpt><trkpt lat="44.6289727" lon="8.8426773"><ele>315.0</ele><time>2026-04-18T10:22:05.019Z</time></trkpt><trkpt lat="44.6288113" lon="8.8426942"><ele>315.0</ele><time>2026-04-18T10:22:06.019Z</time></trkpt><trkpt lat="44.6286482" lon="8.8426989"><ele>315.0</ele><time>2026-04-18T10:22:07.018Z</time></trkpt><trkpt lat="44.6284845" lon="8.8427008"><ele>315.0</ele><time>2026-04-18T10:22:08.018Z</time></trkpt><trkpt lat="44.6283218" lon="8.8427096"><ele>316.3333333333333</ele><time>2026-04-18T10:22:09.019Z</time></trkpt><trkpt lat="44.6281605" lon="8.8427293"><ele>317.66666666666663</ele><time>2026-04-18T10:22:10.019Z</time></trkpt><trkpt lat="44.6280016" lon="8.8427546"><ele>319.0</ele><time>2026-04-18T10:22:11.019Z</time></trkpt><trkpt lat="44.6278425" lon="8.8427806"><ele>321.3333333333333</ele><time>2026-04-18T10:22:12.019Z</time></trkpt><trkpt lat="44.6276838" lon="8.8428074"><ele>323.6666666666667</ele><time>2026-04-18T10:22:13.018Z</time></trkpt><trkpt lat="44.6275294" lon="8.842836"><ele>326.0</ele><time>2026-04-18T10:22:14.019Z</time></trkpt><trkpt lat="44.6273761" lon="8.8428715"><ele>326.0</ele><time>2026-04-18T10:22:15.018Z</time></trkpt><trkpt lat="44.6272308" lon="8.8429103"><ele>326.0</ele><time>2026-04-18T10:22:16.018Z</time></trkpt><trkpt lat="44.6270934" lon="8.842955"><ele>326.0</ele><time>2026-04-18T10:22:17.012Z</time></trkpt><trkpt lat="44.6269648" lon="8.8430043"><ele>326.0</ele><time>2026-04-18T10:22:18.018Z</time></trkpt><trkpt lat="44.6268415" lon="8.8430513"><ele>326.20000000000005</ele><time>2026-04-18T10:22:19.018Z</time></trkpt><trkpt lat="44.6267299" lon="8.8431027"><ele>326.40000000000003</ele><time>2026-04-18T10:22:20.019Z</time></trkpt><trkpt lat="44.6266301" lon="8.8431573"><ele>326.6</ele><time>2026-04-18T10:22:21.019Z</time></trkpt><trkpt lat="44.6265415" lon="8.8432061"><ele>326.8</ele><time>2026-04-18T10:22:22.019Z</time></trkpt><trkpt lat="44.6264697" lon="8.8432429"><ele>327.0</ele><time>2026-04-18T10:22:23.019Z</time></trkpt><trkpt lat="44.6263939" lon="8.8432993"><ele>327.0</ele><time>2026-04-18T10:22:25.017Z</time></trkpt><trkpt lat="44.6263621" lon="8.843398"><ele>327.0</ele><time>2026-04-18T10:38:30.018Z</time></trkpt><trkpt lat="44.6262814" lon="8.8434935"><ele>327.0</ele><time>2026-04-18T10:38:32.019Z</time></trkpt><trkpt lat="44.6261912" lon="8.8435677"><ele>327.0</ele><time>2026-04-18T10:38:34.019Z</time></trkpt><trkpt lat="44.6261409" lon="8.8436335"><ele>327.0</ele><time>2026-04-18T10:38:35.019Z</time></trkpt><trkpt lat="44.6260756" lon="8.8437266"><ele>327.0</ele><time>2026-04-18T10:38:36.018Z</time></trkpt><trkpt lat="44.6259946" lon="8.8438344"><ele>327.0</ele><time>2026-04-18T10:38:37.019Z</time></trkpt><trkpt lat="44.6259072" lon="8.8439455"><ele>327.0</ele><time>2026-04-18T10:38:38.019Z</time></trkpt><trkpt lat="44.6258116" lon="8.8440643"><ele>327.0</ele><time>2026-04-18T10:38:39.019Z</time></trkpt><trkpt lat="44.6257107" lon="8.8441926"><ele>327.0</ele><time>2026-04-18T10:38:40.019Z</time></trkpt><trkpt lat="44.6256138" lon="8.8443129"><ele>327.0</ele><time>2026-04-18T10:38:41.019Z</time></trkpt><trkpt lat="44.6255201" lon="8.8444356"><ele>327.0</ele><time>2026-04-18T10:38:42.018Z</time></trkpt><trkpt lat="44.6254237" lon="8.8445581"><ele>327.0</ele><time>2026-04-18T10:38:43.018Z</time></trkpt><trkpt lat="44.6253233" lon="8.8446829"><ele>327.0</ele><time>2026-04-18T10:38:44.019Z</time></trkpt><trkpt lat="44.6252223" lon="8.8448107"><ele>326.0</ele><time>2026-04-18T10:38:45.018Z</time></trkpt><trkpt lat="44.6251185" lon="8.8449468"><ele>325.0</ele><time>2026-04-18T10:38:46.019Z</time></trkpt><trkpt lat="44.6250111" lon="8.8450852"><ele>324.0</ele><time>2026-04-18T10:38:47.019Z</time></trkpt><trkpt lat="44.6248993" lon="8.8452246"><ele>323.0</ele><time>2026-04-18T10:38:48.019Z</time></trkpt><trkpt lat="44.6247917" lon="8.8453664"><ele>323.0</ele><time>2026-04-18T10:38:49.019Z</time></trkpt><trkpt lat="44.6246845" lon="8.8455086"><ele>323.0</ele><time>2026-04-18T10:38:50.019Z</time></trkpt><trkpt lat="44.624576" lon="8.8456516"><ele>323.0</ele><time>2026-04-18T10:38:51.018Z</time></trkpt><trkpt lat="44.6244644" lon="8.8457966"><ele>323.0</ele><time>2026-04-18T10:38:52.019Z</time></trkpt><trkpt lat="44.6243472" lon="8.8459445"><ele>322.75</ele><time>2026-04-18T10:38:53.019Z</time></trkpt><trkpt lat="44.6242368" lon="8.8460852"><ele>322.5</ele><time>2026-04-18T10:38:54.019Z</time></trkpt><trkpt lat="44.6241228" lon="8.8462213"><ele>322.25</ele><time>2026-04-18T10:38:55.019Z</time></trkpt><trkpt lat="44.6239993" lon="8.8463387"><ele>322.0</ele><time>2026-04-18T10:38:56.018Z</time></trkpt><trkpt lat="44.6238698" lon="8.8464417"><ele>322.0</ele><time>2026-04-18T10:38:57.019Z</time></trkpt><trkpt lat="44.6237261" lon="8.8465168"><ele>322.0</ele><time>2026-04-18T10:38:58.018Z</time></trkpt><trkpt lat="44.6235728" lon="8.8465636"><ele>322.0</ele><time>2026-04-18T10:38:59.019Z</time></trkpt><trkpt lat="44.623416" lon="8.8465869"><ele>322.0</ele><time>2026-04-18T10:39:00.019Z</time></trkpt><trkpt lat="44.6232591" lon="8.8465832"><ele>322.0</ele><time>2026-04-18T10:39:01.019Z</time></trkpt><trkpt lat="44.6231087" lon="8.8465528"><ele>322.0</ele><time>2026-04-18T10:39:02.019Z</time></trkpt><trkpt lat="44.6229572" lon="8.8464945"><ele>319.3333333333333</ele><time>2026-04-18T10:39:03.019Z</time></trkpt><trkpt lat="44.6228021" lon="8.8464071"><ele>316.6666666666667</ele><time>2026-04-18T10:39:04.018Z</time></trkpt><trkpt lat="44.6226471" lon="8.8462995"><ele>314.0</ele><time>2026-04-18T10:39:05.019Z</time></trkpt><trkpt lat="44.6224895" lon="8.8461885"><ele>314.0</ele><time>2026-04-18T10:39:06.018Z</time></trkpt><trkpt lat="44.6223275" lon="8.8460771"><ele>314.0</ele><time>2026-04-18T10:39:07.019Z</time></trkpt><trkpt lat="44.6221671" lon="8.8459688"><ele>314.0</ele><time>2026-04-18T10:39:08.019Z</time></trkpt><trkpt lat="44.6220078" lon="8.845862"><ele>313.6666666666667</ele><time>2026-04-18T10:39:09.019Z</time></trkpt><trkpt lat="44.6218455" lon="8.8457562"><ele>313.3333333333333</ele><time>2026-04-18T10:39:10.018Z</time></trkpt><trkpt lat="44.6216808" lon="8.8456554"><ele>313.0</ele><time>2026-04-18T10:39:11.019Z</time></trkpt><trkpt lat="44.6215117" lon="8.8455616"><ele>313.0</ele><time>2026-04-18T10:39:12.019Z</time></trkpt><trkpt lat="44.6213424" lon="8.8454816"><ele>313.0</ele><time>2026-04-18T10:39:13.019Z</time></trkpt><trkpt lat="44.6211698" lon="8.8454104"><ele>313.0</ele><time>2026-04-18T10:39:14.018Z</time></trkpt><trkpt lat="44.6209993" lon="8.845341"><ele>313.3333333333333</ele><time>2026-04-18T10:39:15.018Z</time></trkpt><trkpt lat="44.6208283" lon="8.8452724"><ele>313.6666666666667</ele><time>2026-04-18T10:39:16.017Z</time></trkpt><trkpt lat="44.6206549" lon="8.8452023"><ele>314.0</ele><time>2026-04-18T10:39:17.013Z</time></trkpt><trkpt lat="44.6204842" lon="8.8451294"><ele>316.0</ele><time>2026-04-18T10:39:18.018Z</time></trkpt><trkpt lat="44.6203078" lon="8.8450605"><ele>318.0</ele><time>2026-04-18T10:39:19.012Z</time></trkpt><trkpt lat="44.6201316" lon="8.8449896"><ele>320.0</ele><time>2026-04-18T10:39:20.019Z</time></trkpt><trkpt lat="44.6199489" lon="8.844917"><ele>320.0</ele><time>2026-04-18T10:39:21.019Z</time></trkpt><trkpt lat="44.6197661" lon="8.8448439"><ele>320.0</ele><time>2026-04-18T10:39:22.018Z</time></trkpt><trkpt lat="44.6195955" lon="8.8447725"><ele>320.0</ele><time>2026-04-18T10:39:23.019Z</time></trkpt><trkpt lat="44.619436" lon="8.8447115"><ele>323.25</ele><time>2026-04-18T10:39:24.018Z</time></trkpt><trkpt lat="44.6192873" lon="8.8446572"><ele>326.5</ele><time>2026-04-18T10:39:25.011Z</time></trkpt><trkpt lat="44.6191446" lon="8.8446131"><ele>329.75</ele><time>2026-04-18T10:39:26.018Z</time></trkpt><trkpt lat="44.6190084" lon="8.8445928"><ele>333.0</ele><time>2026-04-18T10:39:27.019Z</time></trkpt><trkpt lat="44.6188723" lon="8.8446021"><ele>333.0</ele><time>2026-04-18T10:39:28.014Z</time></trkpt><trkpt lat="44.6187344" lon="8.8446426"><ele>333.0</ele><time>2026-04-18T10:39:29.014Z</time></trkpt><trkpt lat="44.6185967" lon="8.8447196"><ele>333.0</ele><time>2026-04-18T10:39:30.015Z</time></trkpt><trkpt lat="44.6184678" lon="8.8448263"><ele>333.0</ele><time>2026-04-18T10:39:31.018Z</time></trkpt><trkpt lat="44.6183429" lon="8.844969"><ele>332.3333333333333</ele><time>2026-04-18T10:39:32.019Z</time></trkpt><trkpt lat="44.6182134" lon="8.8451039"><ele>331.66666666666663</ele><time>2026-04-18T10:39:33.019Z</time></trkpt><trkpt lat="44.6180724" lon="8.845206"><ele>331.0</ele><time>2026-04-18T10:39:34.018Z</time></trkpt><trkpt lat="44.6179312" lon="8.8452735"><ele>336.0</ele><time>2026-04-18T10:39:35.018Z</time></trkpt><trkpt lat="44.6177892" lon="8.8452965"><ele>341.0</ele><time>2026-04-18T10:39:36.018Z</time></trkpt><trkpt lat="44.6176422" lon="8.8452914"><ele>346.0</ele><time>2026-04-18T10:39:37.019Z</time></trkpt><trkpt lat="44.6174989" lon="8.8452586"><ele>351.0</ele><time>2026-04-18T10:39:38.018Z</time></trkpt><trkpt lat="44.6173584" lon="8.8451997"><ele>351.0</ele><time>2026-04-18T10:39:39.019Z</time></trkpt><trkpt lat="44.6172107" lon="8.8451301"><ele>351.0</ele><time>2026-04-18T10:39:40.019Z</time></trkpt><trkpt lat="44.6170556" lon="8.8450516"><ele>351.0</ele><time>2026-04-18T10:39:41.019Z</time></trkpt><trkpt lat="44.6168941" lon="8.844973"><ele>348.3333333333333</ele><time>2026-04-18T10:39:42.019Z</time></trkpt><trkpt lat="44.6167311" lon="8.844891"><ele>345.66666666666663</ele><time>2026-04-18T10:39:43.019Z</time></trkpt><trkpt lat="44.616571" lon="8.8448138"><ele>343.0</ele><time>2026-04-18T10:39:44.018Z</time></trkpt><trkpt lat="44.6164145" lon="8.844741"><ele>343.0</ele><time>2026-04-18T10:39:45.019Z</time></trkpt><trkpt lat="44.6162616" lon="8.8446961"><ele>343.0</ele><time>2026-04-18T10:39:46.017Z</time></trkpt><trkpt lat="44.6161184" lon="8.8446725"><ele>343.0</ele><time>2026-04-18T10:39:47.019Z</time></trkpt><trkpt lat="44.6159903" lon="8.8446749"><ele>343.0</ele><time>2026-04-18T10:39:48.018Z</time></trkpt><trkpt lat="44.6158851" lon="8.8446898"><ele>343.16666666666663</ele><time>2026-04-18T10:39:49.019Z</time></trkpt><trkpt lat="44.6157957" lon="8.8447015"><ele>343.3333333333333</ele><time>2026-04-18T10:39:50.014Z</time></trkpt><trkpt lat="44.6157239" lon="8.8447148"><ele>343.5</ele><time>2026-04-18T10:39:51.011Z</time></trkpt><trkpt lat="44.6156561" lon="8.8447239"><ele>343.6666666666667</ele><time>2026-04-18T10:39:52.018Z</time></trkpt><trkpt lat="44.6155881" lon="8.8447146"><ele>343.83333333333337</ele><time>2026-04-18T10:39:53.017Z</time></trkpt><trkpt lat="44.6155169" lon="8.8446811"><ele>344.0</ele><time>2026-04-18T10:39:54.008Z</time></trkpt><trkpt lat="44.6154473" lon="8.8446313"><ele>344.0</ele><time>2026-04-18T10:39:55.01Z</time></trkpt><trkpt lat="44.6153749" lon="8.8445722"><ele>344.0</ele><time>2026-04-18T10:39:56.013Z</time></trkpt><trkpt lat="44.6152963" lon="8.8445042"><ele>344.0</ele><time>2026-04-18T10:39:57.009Z</time></trkpt><trkpt lat="44.6152126" lon="8.8444364"><ele>344.0</ele><time>2026-04-18T10:39:58.015Z</time></trkpt><trkpt lat="44.6151339" lon="8.8443727"><ele>344.0</ele><time>2026-04-18T10:39:59.014Z</time></trkpt><trkpt lat="44.6150677" lon="8.8443034"><ele>344.0</ele><time>2026-04-18T10:40:00.018Z</time></trkpt><trkpt lat="44.6150254" lon="8.8442282"><ele>343.33333333333337</ele><time>2026-04-18T10:40:01.019Z</time></trkpt><trkpt lat="44.6150096" lon="8.8441415"><ele>342.6666666666667</ele><time>2026-04-18T10:40:02.011Z</time></trkpt><trkpt lat="44.6150207" lon="8.8440431"><ele>342.0</ele><time>2026-04-18T10:40:03.008Z</time></trkpt><trkpt lat="44.6150382" lon="8.843933"><ele>341.3333333333333</ele><time>2026-04-18T10:40:04.015Z</time></trkpt><trkpt lat="44.6150628" lon="8.8438229"><ele>340.66666666666663</ele><time>2026-04-18T10:40:05.01Z</time></trkpt><trkpt lat="44.6151018" lon="8.8437166"><ele>340.0</ele><time>2026-04-18T10:40:06.017Z</time></trkpt><trkpt lat="44.6151615" lon="8.8436219"><ele>340.0</ele><time>2026-04-18T10:40:07.011Z</time></trkpt><trkpt lat="44.6152393" lon="8.8435359"><ele>340.0</ele><time>2026-04-18T10:40:08.016Z</time></trkpt><trkpt lat="44.6153388" lon="8.8434611"><ele>340.0</ele><time>2026-04-18T10:40:09.014Z</time></trkpt><trkpt lat="44.6154478" lon="8.8433829"><ele>340.0</ele><time>2026-04-18T10:40:10.01Z</time></trkpt><trkpt lat="44.6155633" lon="8.8433011"><ele>339.75</ele><time>2026-04-18T10:40:11.019Z</time></trkpt><trkpt lat="44.6156901" lon="8.843203"><ele>339.5</ele><time>2026-04-18T10:40:12.018Z</time></trkpt><trkpt lat="44.615815" lon="8.843103"><ele>339.25</ele><time>2026-04-18T10:40:13.019Z</time></trkpt><trkpt lat="44.6159439" lon="8.8430062"><ele>339.0</ele><time>2026-04-18T10:40:14.019Z</time></trkpt><trkpt lat="44.6160677" lon="8.8429124"><ele>338.5</ele><time>2026-04-18T10:40:15.018Z</time></trkpt><trkpt lat="44.6161869" lon="8.8428235"><ele>338.0</ele><time>2026-04-18T10:40:16.018Z</time></trkpt><trkpt lat="44.6163" lon="8.842741"><ele>337.5</ele><time>2026-04-18T10:40:17.019Z</time></trkpt><trkpt lat="44.6164127" lon="8.8426595"><ele>337.0</ele><time>2026-04-18T10:40:18.014Z</time></trkpt><trkpt lat="44.6165235" lon="8.8425868"><ele>337.0</ele><time>2026-04-18T10:40:19.018Z</time></trkpt><trkpt lat="44.6166326" lon="8.8425311"><ele>337.0</ele><time>2026-04-18T10:40:20.018Z</time></trkpt><trkpt lat="44.6167391" lon="8.8424905"><ele>337.0</ele><time>2026-04-18T10:40:21.019Z</time></trkpt><trkpt lat="44.6168383" lon="8.8424633"><ele>337.0</ele><time>2026-04-18T10:40:22.011Z</time></trkpt><trkpt lat="44.616932" lon="8.8424337"><ele>337.0</ele><time>2026-04-18T10:40:23.013Z</time></trkpt><trkpt lat="44.6170128" lon="8.842407"><ele>338.66666666666663</ele><time>2026-04-18T10:40:24.018Z</time></trkpt><trkpt lat="44.6170893" lon="8.8423786"><ele>340.3333333333333</ele><time>2026-04-18T10:40:25.019Z</time></trkpt><trkpt lat="44.6172083" lon="8.8423418"><ele>342.0</ele><time>2026-04-18T10:40:27.011Z</time></trkpt><trkpt lat="44.6173228" lon="8.842313"><ele>343.6666666666667</ele><time>2026-04-18T10:40:29.014Z</time></trkpt><trkpt lat="44.6173894" lon="8.8423172"><ele>345.33333333333337</ele><time>2026-04-18T10:40:30.013Z</time></trkpt><trkpt lat="44.6174539" lon="8.8423295"><ele>347.0</ele><time>2026-04-18T10:40:31.018Z</time></trkpt><trkpt lat="44.6175772" lon="8.8423449"><ele>347.0</ele><time>2026-04-18T10:40:33.019Z</time></trkpt><trkpt lat="44.6176689" lon="8.8423397"><ele>347.0</ele><time>2026-04-18T10:40:35.019Z</time></trkpt><trkpt lat="44.6177394" lon="8.8423317"><ele>347.0</ele><time>2026-04-18T10:40:36.018Z</time></trkpt><trkpt lat="44.6178245" lon="8.8423262"><ele>347.0</ele><time>2026-04-18T10:40:37.017Z</time></trkpt><trkpt lat="44.6179044" lon="8.8423334"><ele>347.0</ele><time>2026-04-18T10:40:38.018Z</time></trkpt><trkpt lat="44.6179808" lon="8.8423247"><ele>347.0</ele><time>2026-04-18T10:40:39.01Z</time></trkpt><trkpt lat="44.6180581" lon="8.8423287"><ele>346.1666666666667</ele><time>2026-04-18T10:40:40.019Z</time></trkpt><trkpt lat="44.6181362" lon="8.8423352"><ele>345.33333333333337</ele><time>2026-04-18T10:40:41.018Z</time></trkpt><trkpt lat="44.618212" lon="8.8423391"><ele>344.5</ele><time>2026-04-18T10:40:42.006Z</time></trkpt><trkpt lat="44.6182837" lon="8.8423303"><ele>343.6666666666667</ele><time>2026-04-18T10:40:43.018Z</time></trkpt><trkpt lat="44.618358" lon="8.8423196"><ele>342.8333333333333</ele><time>2026-04-18T10:40:44.019Z</time></trkpt><trkpt lat="44.6184313" lon="8.8423191"><ele>342.0</ele><time>2026-04-18T10:40:45.011Z</time></trkpt><trkpt lat="44.6185109" lon="8.8423263"><ele>342.0</ele><time>2026-04-18T10:40:46.019Z</time></trkpt><trkpt lat="44.6185866" lon="8.8423235"><ele>342.0</ele><time>2026-04-18T10:40:47.018Z</time></trkpt><trkpt lat="44.6186808" lon="8.8423365"><ele>342.0</ele><time>2026-04-18T10:40:49.014Z</time></trkpt><trkpt lat="44.6187905" lon="8.8423531"><ele>342.0</ele><time>2026-04-18T10:40:51.019Z</time></trkpt><trkpt lat="44.6188919" lon="8.8423548"><ele>342.0</ele><time>2026-04-18T10:40:53.018Z</time></trkpt><trkpt lat="44.618989" lon="8.8423588"><ele>341.6</ele><time>2026-04-18T10:40:55.019Z</time></trkpt><trkpt lat="44.619091" lon="8.8423612"><ele>341.20000000000005</ele><time>2026-04-18T10:40:57.019Z</time></trkpt><trkpt lat="44.6191942" lon="8.8423519"><ele>340.8</ele><time>2026-04-18T10:40:59.018Z</time></trkpt><trkpt lat="44.6193037" lon="8.842319"><ele>340.4</ele><time>2026-04-18T10:41:01.014Z</time></trkpt><trkpt lat="44.6194206" lon="8.842289"><ele>340.0</ele><time>2026-04-18T10:41:03.019Z</time></trkpt><trkpt lat="44.6195321" lon="8.8422994"><ele>340.8</ele><time>2026-04-18T10:41:05.019Z</time></trkpt><trkpt lat="44.6195981" lon="8.8423253"><ele>341.6</ele><time>2026-04-18T10:41:06.019Z</time></trkpt><trkpt lat="44.6196596" lon="8.8423462"><ele>342.4</ele><time>2026-04-18T10:41:07.01Z</time></trkpt><trkpt lat="44.6197886" lon="8.8423916"><ele>343.2</ele><time>2026-04-18T10:41:09.012Z</time></trkpt><trkpt lat="44.6198948" lon="8.8424197"><ele>344.0</ele><time>2026-04-18T10:41:11.015Z</time></trkpt><trkpt lat="44.6200026" lon="8.8424509"><ele>344.0</ele><time>2026-04-18T10:41:13.012Z</time></trkpt><trkpt lat="44.620107" lon="8.8424722"><ele>344.0</ele><time>2026-04-18T10:41:15.018Z</time></trkpt><trkpt lat="44.6201927" lon="8.8425357"><ele>344.0</ele><time>2026-04-18T10:41:17.012Z</time></trkpt><trkpt lat="44.6202721" lon="8.842633"><ele>344.0</ele><time>2026-04-18T10:41:19.019Z</time></trkpt><trkpt lat="44.6203293" lon="8.8427487"><ele>344.0</ele><time>2026-04-18T10:41:21.019Z</time></trkpt><trkpt lat="44.6203817" lon="8.8428654"><ele>341.6</ele><time>2026-04-18T10:41:23.013Z</time></trkpt><trkpt lat="44.6204462" lon="8.8429868"><ele>339.2</ele><time>2026-04-18T10:41:25.019Z</time></trkpt><trkpt lat="44.6205152" lon="8.8431097"><ele>336.8</ele><time>2026-04-18T10:41:27.019Z</time></trkpt><trkpt lat="44.6205737" lon="8.8432398"><ele>334.40000000000003</ele><time>2026-04-18T10:41:29.018Z</time></trkpt><trkpt lat="44.6206281" lon="8.8433516"><ele>332.0</ele><time>2026-04-18T10:41:31.013Z</time></trkpt><trkpt lat="44.6206936" lon="8.8435569"><ele>329.83333333333337</ele><time>2026-04-18T10:41:34.011Z</time></trkpt><trkpt lat="44.6207503" lon="8.8436516"><ele>327.6666666666667</ele><time>2026-04-18T10:41:36.018Z</time></trkpt><trkpt lat="44.6208193" lon="8.8436748"><ele>325.5</ele><time>2026-04-18T10:41:38.019Z</time></trkpt><trkpt lat="44.6208927" lon="8.8436224"><ele>323.3333333333333</ele><time>2026-04-18T10:41:40.018Z</time></trkpt><trkpt lat="44.6209988" lon="8.8435563"><ele>321.16666666666663</ele><time>2026-04-18T10:41:42.019Z</time></trkpt><trkpt lat="44.6210598" lon="8.8435295"><ele>319.0</ele><time>2026-04-18T10:41:43.019Z</time></trkpt><trkpt lat="44.6211291" lon="8.8434921"><ele>319.3333333333333</ele><time>2026-04-18T10:41:44.019Z</time></trkpt><trkpt lat="44.6211939" lon="8.8434448"><ele>319.66666666666663</ele><time>2026-04-18T10:41:45.019Z</time></trkpt><trkpt lat="44.6212539" lon="8.8433884"><ele>320.0</ele><time>2026-04-18T10:41:46.019Z</time></trkpt><trkpt lat="44.621321" lon="8.8433225"><ele>320.3333333333333</ele><time>2026-04-18T10:41:47.019Z</time></trkpt><trkpt lat="44.6213838" lon="8.84326"><ele>320.6666666666667</ele><time>2026-04-18T10:41:48.019Z</time></trkpt><trkpt lat="44.6214433" lon="8.8432038"><ele>321.0</ele><time>2026-04-18T10:41:49.017Z</time></trkpt><trkpt lat="44.6215308" lon="8.8431221"><ele>321.0</ele><time>2026-04-18T10:41:51.018Z</time></trkpt><trkpt lat="44.6216294" lon="8.8430749"><ele>321.0</ele><time>2026-04-18T10:41:53.018Z</time></trkpt><trkpt lat="44.6217185" lon="8.8430471"><ele>321.0</ele><time>2026-04-18T10:41:55.018Z</time></trkpt><trkpt lat="44.6217902" lon="8.8430682"><ele>321.0</ele><time>2026-04-18T10:41:57.019Z</time></trkpt><trkpt lat="44.6218449" lon="8.843141"><ele>321.0</ele><time>2026-04-18T10:41:59.019Z</time></trkpt><trkpt lat="44.6218947" lon="8.8432432"><ele>321.0</ele><time>2026-04-18T10:42:01.017Z</time></trkpt><trkpt lat="44.6219559" lon="8.8433684"><ele>321.71428571428567</ele><time>2026-04-18T10:42:03.019Z</time></trkpt><trkpt lat="44.6219912" lon="8.8434502"><ele>322.42857142857144</ele><time>2026-04-18T10:42:04.009Z</time></trkpt><trkpt lat="44.6220316" lon="8.8435385"><ele>323.1428571428571</ele><time>2026-04-18T10:42:05.019Z</time></trkpt><trkpt lat="44.6220725" lon="8.8436239"><ele>323.85714285714283</ele><time>2026-04-18T10:42:06.018Z</time></trkpt><trkpt lat="44.6221105" lon="8.8437043"><ele>324.57142857142856</ele><time>2026-04-18T10:42:07.018Z</time></trkpt><trkpt lat="44.6221468" lon="8.8437776"><ele>325.2857142857143</ele><time>2026-04-18T10:42:08.018Z</time></trkpt><trkpt lat="44.6222347" lon="8.843841"><ele>326.0</ele><time>2026-04-18T10:42:10.016Z</time></trkpt><trkpt lat="44.622298" lon="8.8438676"><ele>326.8</ele><time>2026-04-18T10:42:11.018Z</time></trkpt><trkpt lat="44.6224352" lon="8.8437931"><ele>327.6</ele><time>2026-04-18T10:42:13.019Z</time></trkpt><trkpt lat="44.6225105" lon="8.8437305"><ele>328.4</ele><time>2026-04-18T10:42:14.008Z</time></trkpt><trkpt lat="44.6226037" lon="8.8436687"><ele>329.2</ele><time>2026-04-18T10:42:15.015Z</time></trkpt><trkpt lat="44.6227034" lon="8.8436084"><ele>330.0</ele><time>2026-04-18T10:42:16.019Z</time></trkpt><trkpt lat="44.6228073" lon="8.8435546"><ele>330.5</ele><time>2026-04-18T10:42:17.019Z</time></trkpt><trkpt lat="44.622911" lon="8.8435016"><ele>331.0</ele><time>2026-04-18T10:42:18.019Z</time></trkpt><trkpt lat="44.6230111" lon="8.8434794"><ele>331.5</ele><time>2026-04-18T10:42:19.018Z</time></trkpt><trkpt lat="44.6231277" lon="8.8434565"><ele>332.0</ele><time>2026-04-18T10:42:20.018Z</time></trkpt><trkpt lat="44.6232476" lon="8.843446"><ele>332.0</ele><time>2026-04-18T10:42:21.018Z</time></trkpt><trkpt lat="44.6233754" lon="8.8434379"><ele>332.0</ele><time>2026-04-18T10:42:22.019Z</time></trkpt><trkpt lat="44.623511" lon="8.8434318"><ele>332.0</ele><time>2026-04-18T10:42:23.018Z</time></trkpt><trkpt lat="44.6236483" lon="8.8434225"><ele>332.0</ele><time>2026-04-18T10:42:24.019Z</time></trkpt><trkpt lat="44.6237858" lon="8.8434112"><ele>332.25</ele><time>2026-04-18T10:42:25.019Z</time></trkpt><trkpt lat="44.6239211" lon="8.8433999"><ele>332.5</ele><time>2026-04-18T10:42:26.019Z</time></trkpt><trkpt lat="44.6240602" lon="8.8433882"><ele>332.75</ele><time>2026-04-18T10:42:27.019Z</time></trkpt><trkpt lat="44.6241961" lon="8.8433737"><ele>333.0</ele><time>2026-04-18T10:42:28.019Z</time></trkpt><trkpt lat="44.6243297" lon="8.8433583"><ele>333.0</ele><time>2026-04-18T10:42:29.018Z</time></trkpt><trkpt lat="44.624462" lon="8.8433508"><ele>333.0</ele><time>2026-04-18T10:42:30.019Z</time></trkpt><trkpt lat="44.624593" lon="8.8433419"><ele>333.0</ele><time>2026-04-18T10:42:31.018Z</time></trkpt><trkpt lat="44.6247224" lon="8.8433339"><ele>333.0</ele><time>2026-04-18T10:42:32.011Z</time></trkpt><trkpt lat="44.6248478" lon="8.8433216"><ele>333.25</ele><time>2026-04-18T10:42:33.019Z</time></trkpt><trkpt lat="44.6249724" lon="8.8433099"><ele>333.5</ele><time>2026-04-18T10:42:34.018Z</time></trkpt><trkpt lat="44.6250908" lon="8.8432991"><ele>333.75</ele><time>2026-04-18T10:42:35.019Z</time></trkpt><trkpt lat="44.6251995" lon="8.8432849"><ele>334.0</ele><time>2026-04-18T10:42:36.019Z</time></trkpt><trkpt lat="44.6252981" lon="8.843274"><ele>333.0</ele><time>2026-04-18T10:42:37.018Z</time></trkpt><trkpt lat="44.6253894" lon="8.8432689"><ele>332.0</ele><time>2026-04-18T10:42:38.017Z</time></trkpt><trkpt lat="44.6254778" lon="8.8432569"><ele>331.0</ele><time>2026-04-18T10:42:39.018Z</time></trkpt><trkpt lat="44.6255766" lon="8.8432421"><ele>330.0</ele><time>2026-04-18T10:42:40.016Z</time></trkpt><trkpt lat="44.6256837" lon="8.8432197"><ele>329.0</ele><time>2026-04-18T10:42:41.019Z</time></trkpt><trkpt lat="44.6257981" lon="8.843197"><ele>329.0</ele><time>2026-04-18T10:42:42.017Z</time></trkpt><trkpt lat="44.6259212" lon="8.8431737"><ele>329.0</ele><time>2026-04-18T10:42:43.019Z</time></trkpt><trkpt lat="44.6260425" lon="8.8431492"><ele>329.0</ele><time>2026-04-18T10:42:44.018Z</time></trkpt><trkpt lat="44.6261524" lon="8.8431364"><ele>329.0</ele><time>2026-04-18T10:42:45.018Z</time></trkpt><trkpt lat="44.6262468" lon="8.8431444"><ele>328.6</ele><time>2026-04-18T10:42:46.011Z</time></trkpt><trkpt lat="44.6263211" lon="8.8431703"><ele>328.2</ele><time>2026-04-18T10:42:47.018Z</time></trkpt><trkpt lat="44.6264092" lon="8.8432285"><ele>327.8</ele><time>2026-04-18T10:42:49.019Z</time></trkpt><trkpt lat="44.6264984" lon="8.8432532"><ele>327.40000000000003</ele><time>2026-04-18T10:42:51.016Z</time></trkpt><trkpt lat="44.6266293" lon="8.8432101"><ele>327.0</ele><time>2026-04-18T10:42:53.019Z</time></trkpt><trkpt lat="44.6267254" lon="8.8431547"><ele>327.0</ele><time>2026-04-18T10:42:54.019Z</time></trkpt><trkpt lat="44.6268377" lon="8.843094"><ele>327.0</ele><time>2026-04-18T10:42:55.019Z</time></trkpt><trkpt lat="44.6269624" lon="8.8430412"><ele>327.0</ele><time>2026-04-18T10:42:56.016Z</time></trkpt><trkpt lat="44.6270978" lon="8.8429904"><ele>327.0</ele><time>2026-04-18T10:42:57.007Z</time></trkpt><trkpt lat="44.6272438" lon="8.8429473"><ele>326.6666666666667</ele><time>2026-04-18T10:42:58.019Z</time></trkpt><trkpt lat="44.6274031" lon="8.8429135"><ele>326.33333333333337</ele><time>2026-04-18T10:42:59.018Z</time></trkpt><trkpt lat="44.6275728" lon="8.8428779"><ele>326.0</ele><time>2026-04-18T10:43:00.019Z</time></trkpt><trkpt lat="44.6277557" lon="8.8428422"><ele>323.6666666666667</ele><time>2026-04-18T10:43:01.018Z</time></trkpt><trkpt lat="44.6279431" lon="8.8428044"><ele>321.3333333333333</ele><time>2026-04-18T10:43:02.019Z</time></trkpt><trkpt lat="44.6281299" lon="8.842776"><ele>319.0</ele><time>2026-04-18T10:43:03.019Z</time></trkpt><trkpt lat="44.6283199" lon="8.8427552"><ele>319.0</ele><time>2026-04-18T10:43:04.019Z</time></trkpt><trkpt lat="44.6285119" lon="8.8427519"><ele>319.0</ele><time>2026-04-18T10:43:05.019Z</time></trkpt><trkpt lat="44.6286998" lon="8.8427498"><ele>319.0</ele><time>2026-04-18T10:43:06.012Z</time></trkpt><trkpt lat="44.6288821" lon="8.8427362"><ele>320.0</ele><time>2026-04-18T10:43:07.019Z</time></trkpt><trkpt lat="44.6290572" lon="8.8426979"><ele>321.0</ele><time>2026-04-18T10:43:08.019Z</time></trkpt><trkpt lat="44.6292232" lon="8.8426243"><ele>322.0</ele><time>2026-04-18T10:43:09.019Z</time></trkpt><trkpt lat="44.6293894" lon="8.8425273"><ele>319.66666666666663</ele><time>2026-04-18T10:43:10.015Z</time></trkpt><trkpt lat="44.6295565" lon="8.8424131"><ele>317.3333333333333</ele><time>2026-04-18T10:43:11.018Z</time></trkpt><trkpt lat="44.6297133" lon="8.8423007"><ele>315.0</ele><time>2026-04-18T10:43:12.019Z</time></trkpt><trkpt lat="44.6298546" lon="8.8422023"><ele>315.0</ele><time>2026-04-18T10:43:13.018Z</time></trkpt><trkpt lat="44.6299839" lon="8.8421188"><ele>315.0</ele><time>2026-04-18T10:43:14.018Z</time></trkpt><trkpt lat="44.6301109" lon="8.8420513"><ele>315.0</ele><time>2026-04-18T10:43:15.018Z</time></trkpt><trkpt lat="44.6302413" lon="8.8420201"><ele>315.0</ele><time>2026-04-18T10:43:16.018Z</time></trkpt><trkpt lat="44.63037" lon="8.8420341"><ele>313.75</ele><time>2026-04-18T10:43:17.019Z</time></trkpt><trkpt lat="44.6304907" lon="8.8420822"><ele>312.5</ele><time>2026-04-18T10:43:18.017Z</time></trkpt><trkpt lat="44.6306171" lon="8.8421264"><ele>311.25</ele><time>2026-04-18T10:43:19.015Z</time></trkpt><trkpt lat="44.6307526" lon="8.8421436"><ele>310.0</ele><time>2026-04-18T10:43:20.012Z</time></trkpt><trkpt lat="44.6309022" lon="8.8421192"><ele>310.0</ele><time>2026-04-18T10:43:21.016Z</time></trkpt><trkpt lat="44.6310652" lon="8.8420654"><ele>310.0</ele><time>2026-04-18T10:43:22.014Z</time></trkpt><trkpt lat="44.6312367" lon="8.8419936"><ele>310.0</ele><time>2026-04-18T10:43:23.018Z</time></trkpt><trkpt lat="44.6314034" lon="8.8419147"><ele>310.3333333333333</ele><time>2026-04-18T10:43:24.017Z</time></trkpt><trkpt lat="44.6315686" lon="8.8418411"><ele>310.6666666666667</ele><time>2026-04-18T10:43:25.008Z</time></trkpt><trkpt lat="44.6317269" lon="8.8417749"><ele>311.0</ele><time>2026-04-18T10:43:26.016Z</time></trkpt><trkpt lat="44.631875" lon="8.8417259"><ele>314.75</ele><time>2026-04-18T10:43:27.018Z</time></trkpt><trkpt lat="44.6320194" lon="8.8417165"><ele>318.5</ele><time>2026-04-18T10:43:28.018Z</time></trkpt><trkpt lat="44.6321509" lon="8.8417616"><ele>322.25</ele><time>2026-04-18T10:43:29.016Z</time></trkpt><trkpt lat="44.6322616" lon="8.8418454"><ele>326.0</ele><time>2026-04-18T10:43:30.004Z</time></trkpt><trkpt lat="44.6323605" lon="8.8419541"><ele>326.0</ele><time>2026-04-18T10:43:31.015Z</time></trkpt><trkpt lat="44.6324357" lon="8.8420975"><ele>326.0</ele><time>2026-04-18T10:43:32.018Z</time></trkpt><trkpt lat="44.6324729" lon="8.8422605"><ele>326.0</ele><time>2026-04-18T10:43:33.019Z</time></trkpt><trkpt lat="44.6324786" lon="8.8424385"><ele>326.0</ele><time>2026-04-18T10:43:34.019Z</time></trkpt><trkpt lat="44.6324651" lon="8.8426106"><ele>324.0</ele><time>2026-04-18T10:43:35.019Z</time></trkpt><trkpt lat="44.6324747" lon="8.8427639"><ele>322.0</ele><time>2026-04-18T10:43:36.018Z</time></trkpt><trkpt lat="44.6325188" lon="8.8429089"><ele>320.0</ele><time>2026-04-18T10:43:37.014Z</time></trkpt><trkpt lat="44.632596" lon="8.8430252"><ele>318.0</ele><time>2026-04-18T10:43:38.013Z</time></trkpt><trkpt lat="44.6326898" lon="8.8431025"><ele>316.0</ele><time>2026-04-18T10:43:39.013Z</time></trkpt><trkpt lat="44.6327963" lon="8.8431322"><ele>315.75</ele><time>2026-04-18T10:43:40.015Z</time></trkpt><trkpt lat="44.6329147" lon="8.8431144"><ele>315.5</ele><time>2026-04-18T10:43:41.015Z</time></trkpt><trkpt lat="44.6330474" lon="8.8430412"><ele>315.25</ele><time>2026-04-18T10:43:42.019Z</time></trkpt><trkpt lat="44.6331936" lon="8.8429498"><ele>315.0</ele><time>2026-04-18T10:43:43.019Z</time></trkpt><trkpt lat="44.6333582" lon="8.8428862"><ele>315.0</ele><time>2026-04-18T10:43:44.012Z</time></trkpt><trkpt lat="44.6335448" lon="8.8428736"><ele>315.0</ele><time>2026-04-18T10:43:45.019Z</time></trkpt><trkpt lat="44.633739" lon="8.84287"><ele>315.0</ele><time>2026-04-18T10:43:46.012Z</time></trkpt><trkpt lat="44.6339404" lon="8.8428456"><ele>312.0</ele><time>2026-04-18T10:43:47.019Z</time></trkpt><trkpt lat="44.6341344" lon="8.8427967"><ele>309.0</ele><time>2026-04-18T10:43:48.019Z</time></trkpt><trkpt lat="44.6343264" lon="8.8427311"><ele>306.0</ele><time>2026-04-18T10:43:49.012Z</time></trkpt><trkpt lat="44.6345066" lon="8.8426518"><ele>311.3333333333333</ele><time>2026-04-18T10:43:50.017Z</time></trkpt><trkpt lat="44.6346821" lon="8.8425749"><ele>316.66666666666663</ele><time>2026-04-18T10:43:51.019Z</time></trkpt><trkpt lat="44.634852" lon="8.8425231"><ele>322.0</ele><time>2026-04-18T10:43:52.017Z</time></trkpt><trkpt lat="44.6350153" lon="8.8424959"><ele>322.0</ele><time>2026-04-18T10:43:53.019Z</time></trkpt><trkpt lat="44.6351668" lon="8.8424443"><ele>322.0</ele><time>2026-04-18T10:43:54.019Z</time></trkpt><trkpt lat="44.635301" lon="8.8423577"><ele>322.0</ele><time>2026-04-18T10:43:55.018Z</time></trkpt><trkpt lat="44.6354136" lon="8.8422156"><ele>321.66666666666663</ele><time>2026-04-18T10:43:56.019Z</time></trkpt><trkpt lat="44.6355136" lon="8.8420368"><ele>321.3333333333333</ele><time>2026-04-18T10:43:57.018Z</time></trkpt><trkpt lat="44.63561" lon="8.8418393"><ele>321.0</ele><time>2026-04-18T10:43:58.019Z</time></trkpt><trkpt lat="44.6357097" lon="8.8416294"><ele>321.0</ele><time>2026-04-18T10:43:59.017Z</time></trkpt><trkpt lat="44.6358109" lon="8.8414105"><ele>321.0</ele><time>2026-04-18T10:44:00.018Z</time></trkpt><trkpt lat="44.6359186" lon="8.8411856"><ele>321.0</ele><time>2026-04-18T10:44:01.019Z</time></trkpt><trkpt lat="44.6360407" lon="8.8409573"><ele>317.5</ele><time>2026-04-18T10:44:02.015Z</time></trkpt><trkpt lat="44.6361797" lon="8.840726"><ele>314.0</ele><time>2026-04-18T10:44:03.015Z</time></trkpt><trkpt lat="44.6363542" lon="8.8404991"><ele>314.0</ele><time>2026-04-18T10:44:04.018Z</time></trkpt><trkpt lat="44.6365296" lon="8.8402685"><ele>314.0</ele><time>2026-04-18T10:44:05.018Z</time></trkpt><trkpt lat="44.6367029" lon="8.8400349"><ele>313.33333333333337</ele><time>2026-04-18T10:44:06.018Z</time></trkpt><trkpt lat="44.6368691" lon="8.8398103"><ele>312.6666666666667</ele><time>2026-04-18T10:44:07.019Z</time></trkpt><trkpt lat="44.6370262" lon="8.839597"><ele>312.0</ele><time>2026-04-18T10:44:08.019Z</time></trkpt><trkpt lat="44.6371748" lon="8.8393947"><ele>313.6666666666667</ele><time>2026-04-18T10:44:09.018Z</time></trkpt><trkpt lat="44.6373013" lon="8.8392022"><ele>315.33333333333337</ele><time>2026-04-18T10:44:10.014Z</time></trkpt><trkpt lat="44.6374027" lon="8.8389991"><ele>317.0</ele><time>2026-04-18T10:44:11.013Z</time></trkpt><trkpt lat="44.6374843" lon="8.8387589"><ele>317.0</ele><time>2026-04-18T10:44:12.013Z</time></trkpt><trkpt lat="44.6375583" lon="8.8384998"><ele>317.0</ele><time>2026-04-18T10:44:13.019Z</time></trkpt><trkpt lat="44.6376434" lon="8.8382451"><ele>317.0</ele><time>2026-04-18T10:44:14.018Z</time></trkpt><trkpt lat="44.6377434" lon="8.8380008"><ele>315.33333333333337</ele><time>2026-04-18T10:44:15.018Z</time></trkpt><trkpt lat="44.6378516" lon="8.8377646"><ele>313.6666666666667</ele><time>2026-04-18T10:44:16.019Z</time></trkpt><trkpt lat="44.6379609" lon="8.8375169"><ele>312.0</ele><time>2026-04-18T10:44:17.019Z</time></trkpt><trkpt lat="44.6380646" lon="8.8372587"><ele>312.0</ele><time>2026-04-18T10:44:18.016Z</time></trkpt><trkpt lat="44.6381683" lon="8.8370068"><ele>312.0</ele><time>2026-04-18T10:44:19.019Z</time></trkpt><trkpt lat="44.6382621" lon="8.8367695"><ele>312.0</ele><time>2026-04-18T10:44:20.012Z</time></trkpt><trkpt lat="44.6383477" lon="8.8365378"><ele>315.0</ele><time>2026-04-18T10:44:21.017Z</time></trkpt><trkpt lat="44.6384188" lon="8.8363124"><ele>318.0</ele><time>2026-04-18T10:44:22.007Z</time></trkpt><trkpt lat="44.6384634" lon="8.836094"><ele>321.0</ele><time>2026-04-18T10:44:23.015Z</time></trkpt><trkpt lat="44.6384898" lon="8.8358841"><ele>321.25</ele><time>2026-04-18T10:44:24.013Z</time></trkpt><trkpt lat="44.6385176" lon="8.8357187"><ele>321.5</ele><time>2026-04-18T10:44:25.014Z</time></trkpt><trkpt lat="44.6385737" lon="8.8355717"><ele>321.75</ele><time>2026-04-18T10:44:26.014Z</time></trkpt><trkpt lat="44.6386448" lon="8.8354505"><ele>322.0</ele><time>2026-04-18T10:44:27.019Z</time></trkpt><trkpt lat="44.6387555" lon="8.8353648"><ele>323.0</ele><time>2026-04-18T10:44:28.013Z</time></trkpt><trkpt lat="44.6389264" lon="8.8353023"><ele>324.0</ele><time>2026-04-18T10:44:29.018Z</time></trkpt><trkpt lat="44.6390905" lon="8.8352242"><ele>325.0</ele><time>2026-04-18T10:44:30.019Z</time></trkpt><trkpt lat="44.6392495" lon="8.8351275"><ele>325.0</ele><time>2026-04-18T10:44:31.019Z</time></trkpt><trkpt lat="44.6393931" lon="8.8350055"><ele>325.0</ele><time>2026-04-18T10:44:32.01Z</time></trkpt><trkpt lat="44.6395068" lon="8.834844"><ele>325.0</ele><time>2026-04-18T10:44:33.018Z</time></trkpt><trkpt lat="44.6396049" lon="8.8346885"><ele>316.66666666666663</ele><time>2026-04-18T10:44:34.013Z</time></trkpt><trkpt lat="44.6397194" lon="8.8345502"><ele>308.3333333333333</ele><time>2026-04-18T10:44:35.006Z</time></trkpt><trkpt lat="44.6398565" lon="8.8344449"><ele>300.0</ele><time>2026-04-18T10:44:36.011Z</time></trkpt><trkpt lat="44.640005" lon="8.8343853"><ele>300.0</ele><time>2026-04-18T10:44:37.014Z</time></trkpt><trkpt lat="44.6401573" lon="8.8343567"><ele>300.0</ele><time>2026-04-18T10:44:38.013Z</time></trkpt><trkpt lat="44.6403071" lon="8.834358"><ele>300.0</ele><time>2026-04-18T10:44:39.017Z</time></trkpt><trkpt lat="44.6404587" lon="8.8344061"><ele>297.6666666666667</ele><time>2026-04-18T10:44:40.006Z</time></trkpt><trkpt lat="44.6406097" lon="8.8344653"><ele>295.33333333333337</ele><time>2026-04-18T10:44:41.011Z</time></trkpt><trkpt lat="44.6407628" lon="8.834501"><ele>293.0</ele><time>2026-04-18T10:44:42.018Z</time></trkpt><trkpt lat="44.6409294" lon="8.8344877"><ele>293.0</ele><time>2026-04-18T10:44:43.019Z</time></trkpt><trkpt lat="44.6411103" lon="8.8344276"><ele>293.0</ele><time>2026-04-18T10:44:44.019Z</time></trkpt><trkpt lat="44.6412969" lon="8.8343405"><ele>293.0</ele><time>2026-04-18T10:44:45.018Z</time></trkpt><trkpt lat="44.641493" lon="8.8342378"><ele>294.33333333333337</ele><time>2026-04-18T10:44:46.018Z</time></trkpt><trkpt lat="44.6416927" lon="8.8341188"><ele>295.6666666666667</ele><time>2026-04-18T10:44:47.019Z</time></trkpt><trkpt lat="44.6418954" lon="8.8339903"><ele>297.0</ele><time>2026-04-18T10:44:48.009Z</time></trkpt><trkpt lat="44.642097" lon="8.8338584"><ele>297.0</ele><time>2026-04-18T10:44:49.019Z</time></trkpt><trkpt lat="44.6422981" lon="8.8337319"><ele>297.0</ele><time>2026-04-18T10:44:50.018Z</time></trkpt><trkpt lat="44.6425046" lon="8.833617"><ele>297.0</ele><time>2026-04-18T10:44:51.015Z</time></trkpt><trkpt lat="44.6427157" lon="8.8335214"><ele>296.5</ele><time>2026-04-18T10:44:52.017Z</time></trkpt><trkpt lat="44.6429304" lon="8.8334285"><ele>296.0</ele><time>2026-04-18T10:44:53.018Z</time></trkpt><trkpt lat="44.6431487" lon="8.8333404"><ele>296.0</ele><time>2026-04-18T10:44:54.011Z</time></trkpt><trkpt lat="44.6433697" lon="8.8332606"><ele>296.0</ele><time>2026-04-18T10:44:55.012Z</time></trkpt><trkpt lat="44.6435921" lon="8.8331868"><ele>293.33333333333337</ele><time>2026-04-18T10:44:56.01Z</time></trkpt><trkpt lat="44.6438061" lon="8.8331196"><ele>290.6666666666667</ele><time>2026-04-18T10:44:57.014Z</time></trkpt><trkpt lat="44.6440083" lon="8.8330513"><ele>288.0</ele><time>2026-04-18T10:44:58.007Z</time></trkpt><trkpt lat="44.6442036" lon="8.8329877"><ele>288.0</ele><time>2026-04-18T10:44:59.006Z</time></trkpt><trkpt lat="44.6443891" lon="8.8329179"><ele>288.0</ele><time>2026-04-18T10:45:00.015Z</time></trkpt><trkpt lat="44.644569" lon="8.8328261"><ele>288.0</ele><time>2026-04-18T10:45:01.018Z</time></trkpt><trkpt lat="44.644743" lon="8.8327235"><ele>285.6666666666667</ele><time>2026-04-18T10:45:02.008Z</time></trkpt><trkpt lat="44.6449194" lon="8.8326067"><ele>283.33333333333337</ele><time>2026-04-18T10:45:03.019Z</time></trkpt><trkpt lat="44.6450999" lon="8.8324887"><ele>281.0</ele><time>2026-04-18T10:45:04.019Z</time></trkpt><trkpt lat="44.645286" lon="8.8323698"><ele>280.0</ele><time>2026-04-18T10:45:05.014Z</time></trkpt><trkpt lat="44.6454797" lon="8.8322686"><ele>279.0</ele><time>2026-04-18T10:45:06.013Z</time></trkpt><trkpt lat="44.6456723" lon="8.8321765"><ele>278.0</ele><time>2026-04-18T10:45:07.018Z</time></trkpt><trkpt lat="44.6458625" lon="8.8320933"><ele>278.0</ele><time>2026-04-18T10:45:08.018Z</time></trkpt><trkpt lat="44.6460565" lon="8.8320203"><ele>278.0</ele><time>2026-04-18T10:45:09.018Z</time></trkpt><trkpt lat="44.6462516" lon="8.8319641"><ele>278.0</ele><time>2026-04-18T10:45:10.019Z</time></trkpt><trkpt lat="44.6464462" lon="8.8319158"><ele>276.0</ele><time>2026-04-18T10:45:11.019Z</time></trkpt><trkpt lat="44.6466413" lon="8.8318586"><ele>274.0</ele><time>2026-04-18T10:45:12.018Z</time></trkpt><trkpt lat="44.6468375" lon="8.8317742"><ele>272.0</ele><time>2026-04-18T10:45:13.019Z</time></trkpt><trkpt lat="44.6470349" lon="8.8316737"><ele>272.0</ele><time>2026-04-18T10:45:14.019Z</time></trkpt><trkpt lat="44.6472341" lon="8.831576"><ele>272.0</ele><time>2026-04-18T10:45:15.018Z</time></trkpt><trkpt lat="44.6474396" lon="8.8315054"><ele>272.0</ele><time>2026-04-18T10:45:16.019Z</time></trkpt><trkpt lat="44.6476501" lon="8.8314724"><ele>275.33333333333337</ele><time>2026-04-18T10:45:17.019Z</time></trkpt><trkpt lat="44.6478608" lon="8.8314704"><ele>278.6666666666667</ele><time>2026-04-18T10:45:18.019Z</time></trkpt><trkpt lat="44.6480573" lon="8.8314844"><ele>282.0</ele><time>2026-04-18T10:45:19.014Z</time></trkpt><trkpt lat="44.6482362" lon="8.8315076"><ele>282.0</ele><time>2026-04-18T10:45:20.01Z</time></trkpt><trkpt lat="44.6484028" lon="8.8315467"><ele>282.0</ele><time>2026-04-18T10:45:21.019Z</time></trkpt><trkpt lat="44.6485494" lon="8.8316198"><ele>282.0</ele><time>2026-04-18T10:45:22.019Z</time></trkpt><trkpt lat="44.6486708" lon="8.8317308"><ele>281.0</ele><time>2026-04-18T10:45:23.014Z</time></trkpt><trkpt lat="44.6487598" lon="8.8318725"><ele>280.0</ele><time>2026-04-18T10:45:24.013Z</time></trkpt><trkpt lat="44.6488309" lon="8.8320165"><ele>279.0</ele><time>2026-04-18T10:45:25.007Z</time></trkpt><trkpt lat="44.6489154" lon="8.8321508"><ele>278.0</ele><time>2026-04-18T10:45:26.018Z</time></trkpt><trkpt lat="44.6490201" lon="8.8322566"><ele>278.0</ele><time>2026-04-18T10:45:27.011Z</time></trkpt><trkpt lat="44.6491436" lon="8.8323157"><ele>278.0</ele><time>2026-04-18T10:45:28.011Z</time></trkpt><trkpt lat="44.6492704" lon="8.8323158"><ele>278.0</ele><time>2026-04-18T10:45:29.013Z</time></trkpt><trkpt lat="44.6493967" lon="8.8322643"><ele>278.0</ele><time>2026-04-18T10:45:30.019Z</time></trkpt><trkpt lat="44.6495395" lon="8.8321604"><ele>274.6666666666667</ele><time>2026-04-18T10:45:31.018Z</time></trkpt><trkpt lat="44.6496989" lon="8.8320433"><ele>271.3333333333333</ele><time>2026-04-18T10:45:32.017Z</time></trkpt><trkpt lat="44.6498683" lon="8.8319255"><ele>268.0</ele><time>2026-04-18T10:45:33.012Z</time></trkpt><trkpt lat="44.6500611" lon="8.8318152"><ele>269.0</ele><time>2026-04-18T10:45:34.014Z</time></trkpt><trkpt lat="44.6502473" lon="8.8317049"><ele>270.0</ele><time>2026-04-18T10:45:35.007Z</time></trkpt><trkpt lat="44.6504388" lon="8.8315946"><ele>271.0</ele><time>2026-04-18T10:45:36.014Z</time></trkpt><trkpt lat="44.6506227" lon="8.8314869"><ele>271.0</ele><time>2026-04-18T10:45:37.019Z</time></trkpt><trkpt lat="44.6508037" lon="8.8313825"><ele>271.0</ele><time>2026-04-18T10:45:38.019Z</time></trkpt><trkpt lat="44.6509816" lon="8.8312684"><ele>271.0</ele><time>2026-04-18T10:45:39.016Z</time></trkpt><trkpt lat="44.6511439" lon="8.8311396"><ele>273.0</ele><time>2026-04-18T10:45:40.016Z</time></trkpt><trkpt lat="44.651302" lon="8.8310046"><ele>275.0</ele><time>2026-04-18T10:45:41.012Z</time></trkpt><trkpt lat="44.6514451" lon="8.83087"><ele>277.0</ele><time>2026-04-18T10:45:42.015Z</time></trkpt><trkpt lat="44.6515918" lon="8.8307518"><ele>277.0</ele><time>2026-04-18T10:45:43.018Z</time></trkpt><trkpt lat="44.6517365" lon="8.8306467"><ele>277.0</ele><time>2026-04-18T10:45:44.018Z</time></trkpt><trkpt lat="44.6518814" lon="8.8305479"><ele>277.0</ele><time>2026-04-18T10:45:45.018Z</time></trkpt><trkpt lat="44.652019" lon="8.8304666"><ele>275.75</ele><time>2026-04-18T10:45:46.009Z</time></trkpt><trkpt lat="44.6521523" lon="8.8304061"><ele>274.5</ele><time>2026-04-18T10:45:47.018Z</time></trkpt><trkpt lat="44.6522793" lon="8.8303709"><ele>273.25</ele><time>2026-04-18T10:45:48.015Z</time></trkpt><trkpt lat="44.6524007" lon="8.8303439"><ele>272.0</ele><time>2026-04-18T10:45:49.011Z</time></trkpt><trkpt lat="44.6525166" lon="8.8303226"><ele>272.0</ele><time>2026-04-18T10:45:50.008Z</time></trkpt><trkpt lat="44.6526343" lon="8.8303074"><ele>272.0</ele><time>2026-04-18T10:45:51.016Z</time></trkpt><trkpt lat="44.6527547" lon="8.8303169"><ele>272.0</ele><time>2026-04-18T10:45:52.017Z</time></trkpt><trkpt lat="44.6528626" lon="8.8303554"><ele>272.0</ele><time>2026-04-18T10:45:53.012Z</time></trkpt><trkpt lat="44.6529571" lon="8.8304063"><ele>273.2</ele><time>2026-04-18T10:45:54.016Z</time></trkpt><trkpt lat="44.653051" lon="8.8304574"><ele>274.4</ele><time>2026-04-18T10:45:55.018Z</time></trkpt><trkpt lat="44.6531466" lon="8.8305017"><ele>275.6</ele><time>2026-04-18T10:45:56.013Z</time></trkpt><trkpt lat="44.6532641" lon="8.8305213"><ele>276.8</ele><time>2026-04-18T10:45:57.017Z</time></trkpt><trkpt lat="44.6533921" lon="8.8305286"><ele>278.0</ele><time>2026-04-18T10:45:58.013Z</time></trkpt><trkpt lat="44.6535338" lon="8.8305201"><ele>278.75</ele><time>2026-04-18T10:45:59.01Z</time></trkpt><trkpt lat="44.6536765" lon="8.8305163"><ele>279.5</ele><time>2026-04-18T10:46:00.018Z</time></trkpt><trkpt lat="44.6538123" lon="8.8305154"><ele>280.25</ele><time>2026-04-18T10:46:01.015Z</time></trkpt><trkpt lat="44.6539416" lon="8.8305178"><ele>281.0</ele><time>2026-04-18T10:46:02.009Z</time></trkpt><trkpt lat="44.654064" lon="8.8305192"><ele>281.0</ele><time>2026-04-18T10:46:03.013Z</time></trkpt><trkpt lat="44.6541853" lon="8.8305167"><ele>281.0</ele><time>2026-04-18T10:46:04.019Z</time></trkpt><trkpt lat="44.6543062" lon="8.8305121"><ele>281.0</ele><time>2026-04-18T10:46:05.018Z</time></trkpt><trkpt lat="44.6544298" lon="8.830508"><ele>281.0</ele><time>2026-04-18T10:46:06.007Z</time></trkpt><trkpt lat="44.6545489" lon="8.8305061"><ele>280.0</ele><time>2026-04-18T10:46:07.018Z</time></trkpt><trkpt lat="44.6546758" lon="8.8305081"><ele>279.0</ele><time>2026-04-18T10:46:08.018Z</time></trkpt><trkpt lat="44.6548012" lon="8.830505"><ele>278.0</ele><time>2026-04-18T10:46:09.017Z</time></trkpt><trkpt lat="44.6549268" lon="8.8305033"><ele>277.0</ele><time>2026-04-18T10:46:10.009Z</time></trkpt><trkpt lat="44.6550538" lon="8.8304997"><ele>277.0</ele><time>2026-04-18T10:46:11.017Z</time></trkpt><trkpt lat="44.6551882" lon="8.8304939"><ele>277.0</ele><time>2026-04-18T10:46:12.011Z</time></trkpt><trkpt lat="44.6553342" lon="8.8304926"><ele>277.0</ele><time>2026-04-18T10:46:13.01Z</time></trkpt><trkpt lat="44.6554881" lon="8.8304886"><ele>277.0</ele><time>2026-04-18T10:46:14.014Z</time></trkpt><trkpt lat="44.6556535" lon="8.8304757"><ele>277.0</ele><time>2026-04-18T10:46:15.014Z</time></trkpt><trkpt lat="44.6558224" lon="8.8304601"><ele>277.0</ele><time>2026-04-18T10:46:16.017Z</time></trkpt><trkpt lat="44.6559959" lon="8.830441"><ele>277.0</ele><time>2026-04-18T10:46:17.01Z</time></trkpt><trkpt lat="44.6561752" lon="8.8304145"><ele>276.66666666666663</ele><time>2026-04-18T10:46:18.01Z</time></trkpt><trkpt lat="44.6563563" lon="8.8303864"><ele>276.3333333333333</ele><time>2026-04-18T10:46:19.016Z</time></trkpt><trkpt lat="44.6565351" lon="8.8303587"><ele>276.0</ele><time>2026-04-18T10:46:20.011Z</time></trkpt><trkpt lat="44.6567094" lon="8.8303331"><ele>276.0</ele><time>2026-04-18T10:46:21.011Z</time></trkpt><trkpt lat="44.6568718" lon="8.8303136"><ele>276.0</ele><time>2026-04-18T10:46:22.017Z</time></trkpt><trkpt lat="44.6570294" lon="8.8303003"><ele>276.0</ele><time>2026-04-18T10:46:23.013Z</time></trkpt><trkpt lat="44.6571806" lon="8.8303192"><ele>276.3333333333333</ele><time>2026-04-18T10:46:24.014Z</time></trkpt><trkpt lat="44.6573264" lon="8.8303701"><ele>276.66666666666663</ele><time>2026-04-18T10:46:25.012Z</time></trkpt><trkpt lat="44.6574766" lon="8.8304367"><ele>277.0</ele><time>2026-04-18T10:46:26.007Z</time></trkpt><trkpt lat="44.6576283" lon="8.830507"><ele>277.0</ele><time>2026-04-18T10:46:27.01Z</time></trkpt><trkpt lat="44.6577847" lon="8.8305731"><ele>277.0</ele><time>2026-04-18T10:46:28.012Z</time></trkpt><trkpt lat="44.6579405" lon="8.8306386"><ele>277.0</ele><time>2026-04-18T10:46:29.016Z</time></trkpt><trkpt lat="44.6580904" lon="8.8307042"><ele>275.3333333333333</ele><time>2026-04-18T10:46:30.019Z</time></trkpt><trkpt lat="44.6582354" lon="8.8307719"><ele>273.6666666666667</ele><time>2026-04-18T10:46:31.012Z</time></trkpt><trkpt lat="44.6583791" lon="8.8308448"><ele>272.0</ele><time>2026-04-18T10:46:32.015Z</time></trkpt><trkpt lat="44.6585257" lon="8.8309224"><ele>269.33333333333337</ele><time>2026-04-18T10:46:33.011Z</time></trkpt><trkpt lat="44.6586742" lon="8.8310207"><ele>266.6666666666667</ele><time>2026-04-18T10:46:34.015Z</time></trkpt><trkpt lat="44.6588165" lon="8.8311237"><ele>264.0</ele><time>2026-04-18T10:46:35.015Z</time></trkpt><trkpt lat="44.6589476" lon="8.8312308"><ele>264.0</ele><time>2026-04-18T10:46:36.012Z</time></trkpt><trkpt lat="44.6590741" lon="8.8313331"><ele>264.0</ele><time>2026-04-18T10:46:37.017Z</time></trkpt><trkpt lat="44.6592025" lon="8.831418"><ele>264.0</ele><time>2026-04-18T10:46:38.015Z</time></trkpt><trkpt lat="44.6593307" lon="8.8314787"><ele>264.0</ele><time>2026-04-18T10:46:39.019Z</time></trkpt><trkpt lat="44.6594671" lon="8.831506"><ele>262.5</ele><time>2026-04-18T10:46:40.012Z</time></trkpt><trkpt lat="44.6596" lon="8.8314714"><ele>261.0</ele><time>2026-04-18T10:46:41.013Z</time></trkpt><trkpt lat="44.6597262" lon="8.8313925"><ele>259.5</ele><time>2026-04-18T10:46:42.018Z</time></trkpt><trkpt lat="44.6598516" lon="8.831275"><ele>258.0</ele><time>2026-04-18T10:46:43.014Z</time></trkpt><trkpt lat="44.6599784" lon="8.8311301"><ele>256.3333333333333</ele><time>2026-04-18T10:46:44.017Z</time></trkpt><trkpt lat="44.6601156" lon="8.8309619"><ele>254.66666666666666</ele><time>2026-04-18T10:46:45.01Z</time></trkpt><trkpt lat="44.6602614" lon="8.8307882"><ele>253.0</ele><time>2026-04-18T10:46:46.014Z</time></trkpt><trkpt lat="44.6604153" lon="8.8306068"><ele>252.66666666666666</ele><time>2026-04-18T10:46:47.008Z</time></trkpt><trkpt lat="44.6605756" lon="8.8304214"><ele>252.33333333333331</ele><time>2026-04-18T10:46:48.019Z</time></trkpt><trkpt lat="44.6607346" lon="8.8302339"><ele>252.0</ele><time>2026-04-18T10:46:49.017Z</time></trkpt><trkpt lat="44.6608896" lon="8.8300504"><ele>252.0</ele><time>2026-04-18T10:46:50.01Z</time></trkpt><trkpt lat="44.6610385" lon="8.8298702"><ele>252.0</ele><time>2026-04-18T10:46:51.007Z</time></trkpt><trkpt lat="44.6611673" lon="8.8296802"><ele>252.0</ele><time>2026-04-18T10:46:52.012Z</time></trkpt><trkpt lat="44.6612824" lon="8.8294793"><ele>252.0</ele><time>2026-04-18T10:46:53.013Z</time></trkpt><trkpt lat="44.6613845" lon="8.8292576"><ele>252.0</ele><time>2026-04-18T10:46:54.011Z</time></trkpt><trkpt lat="44.6614794" lon="8.8290168"><ele>252.0</ele><time>2026-04-18T10:46:55.019Z</time></trkpt><trkpt lat="44.6615763" lon="8.8287705"><ele>252.0</ele><time>2026-04-18T10:46:56.019Z</time></trkpt><trkpt lat="44.6616702" lon="8.8285318"><ele>252.0</ele><time>2026-04-18T10:46:57.016Z</time></trkpt><trkpt lat="44.6617538" lon="8.8283157"><ele>252.0</ele><time>2026-04-18T10:46:58.014Z</time></trkpt><trkpt lat="44.6618329" lon="8.8281111"><ele>251.33333333333331</ele><time>2026-04-18T10:46:59.01Z</time></trkpt><trkpt lat="44.6619168" lon="8.8279018"><ele>250.66666666666666</ele><time>2026-04-18T10:47:00.013Z</time></trkpt><trkpt lat="44.6620042" lon="8.8276796"><ele>250.0</ele><time>2026-04-18T10:47:01.018Z</time></trkpt><trkpt lat="44.6620961" lon="8.8274414"><ele>249.33333333333331</ele><time>2026-04-18T10:47:02.019Z</time></trkpt><trkpt lat="44.6621933" lon="8.8271933"><ele>248.66666666666669</ele><time>2026-04-18T10:47:03.019Z</time></trkpt><trkpt lat="44.6622908" lon="8.8269443"><ele>248.0</ele><time>2026-04-18T10:47:04.006Z</time></trkpt><trkpt lat="44.6623907" lon="8.8266931"><ele>248.0</ele><time>2026-04-18T10:47:05.011Z</time></trkpt><trkpt lat="44.6624979" lon="8.8264556"><ele>248.0</ele><time>2026-04-18T10:47:06.009Z</time></trkpt><trkpt lat="44.6626154" lon="8.8262442"><ele>248.0</ele><time>2026-04-18T10:47:07.015Z</time></trkpt><trkpt lat="44.6627422" lon="8.8260554"><ele>250.0</ele><time>2026-04-18T10:47:08.013Z</time></trkpt><trkpt lat="44.662882" lon="8.8258819"><ele>252.0</ele><time>2026-04-18T10:47:09.018Z</time></trkpt><trkpt lat="44.6630316" lon="8.8257416"><ele>254.0</ele><time>2026-04-18T10:47:10.013Z</time></trkpt><trkpt lat="44.6631851" lon="8.8256256"><ele>254.0</ele><time>2026-04-18T10:47:11.007Z</time></trkpt><trkpt lat="44.6633327" lon="8.8255262"><ele>254.0</ele><time>2026-04-18T10:47:12.007Z</time></trkpt><trkpt lat="44.6634821" lon="8.8254285"><ele>254.0</ele><time>2026-04-18T10:47:13.011Z</time></trkpt><trkpt lat="44.6636257" lon="8.8253367"><ele>254.25</ele><time>2026-04-18T10:47:14.019Z</time></trkpt><trkpt lat="44.6637656" lon="8.8252456"><ele>254.5</ele><time>2026-04-18T10:47:15.012Z</time></trkpt><trkpt lat="44.6638993" lon="8.8251562"><ele>254.75</ele><time>2026-04-18T10:47:16.015Z</time></trkpt><trkpt lat="44.6640278" lon="8.8250752"><ele>255.0</ele><time>2026-04-18T10:47:17.012Z</time></trkpt><trkpt lat="44.6641625" lon="8.8249959"><ele>256.0</ele><time>2026-04-18T10:47:18.019Z</time></trkpt><trkpt lat="44.6643056" lon="8.824907"><ele>257.0</ele><time>2026-04-18T10:47:19.011Z</time></trkpt><trkpt lat="44.6644621" lon="8.8248046"><ele>258.0</ele><time>2026-04-18T10:47:20.009Z</time></trkpt><trkpt lat="44.6646251" lon="8.8247044"><ele>258.0</ele><time>2026-04-18T10:47:21.017Z</time></trkpt><trkpt lat="44.6647949" lon="8.8245946"><ele>258.0</ele><time>2026-04-18T10:47:22.007Z</time></trkpt><trkpt lat="44.6649679" lon="8.8244757"><ele>258.0</ele><time>2026-04-18T10:47:23.009Z</time></trkpt><trkpt lat="44.6651471" lon="8.8243473"><ele>256.6666666666667</ele><time>2026-04-18T10:47:24.011Z</time></trkpt><trkpt lat="44.6653264" lon="8.8242137"><ele>255.33333333333334</ele><time>2026-04-18T10:47:25.018Z</time></trkpt><trkpt lat="44.6655017" lon="8.8240748"><ele>254.0</ele><time>2026-04-18T10:47:26.018Z</time></trkpt><trkpt lat="44.6656753" lon="8.8239379"><ele>254.0</ele><time>2026-04-18T10:47:27.016Z</time></trkpt><trkpt lat="44.6658492" lon="8.823803"><ele>254.0</ele><time>2026-04-18T10:47:28.008Z</time></trkpt><trkpt lat="44.6660153" lon="8.823654"><ele>254.0</ele><time>2026-04-18T10:47:29.019Z</time></trkpt><trkpt lat="44.666169" lon="8.8234731"><ele>254.66666666666669</ele><time>2026-04-18T10:47:30.017Z</time></trkpt><trkpt lat="44.6663103" lon="8.8232661"><ele>255.33333333333331</ele><time>2026-04-18T10:47:31.011Z</time></trkpt><trkpt lat="44.6664579" lon="8.8230481"><ele>256.0</ele><time>2026-04-18T10:47:32.019Z</time></trkpt><trkpt lat="44.6666197" lon="8.8228414"><ele>256.0</ele><time>2026-04-18T10:47:33.019Z</time></trkpt><trkpt lat="44.666797" lon="8.8226483"><ele>256.0</ele><time>2026-04-18T10:47:34.016Z</time></trkpt><trkpt lat="44.6669842" lon="8.8224685"><ele>255.0</ele><time>2026-04-18T10:47:35.013Z</time></trkpt><trkpt lat="44.6671764" lon="8.8222953"><ele>254.0</ele><time>2026-04-18T10:47:36.012Z</time></trkpt><trkpt lat="44.6673742" lon="8.8221256"><ele>254.0</ele><time>2026-04-18T10:47:37.008Z</time></trkpt><trkpt lat="44.6675722" lon="8.8219659"><ele>254.0</ele><time>2026-04-18T10:47:38.018Z</time></trkpt><trkpt lat="44.6677703" lon="8.8218061"><ele>253.0</ele><time>2026-04-18T10:47:39.013Z</time></trkpt><trkpt lat="44.6679608" lon="8.8216433"><ele>252.0</ele><time>2026-04-18T10:47:40.009Z</time></trkpt><trkpt lat="44.6681414" lon="8.8214697"><ele>251.0</ele><time>2026-04-18T10:47:41.014Z</time></trkpt><trkpt lat="44.6683166" lon="8.8212887"><ele>251.0</ele><time>2026-04-18T10:47:42.011Z</time></trkpt><trkpt lat="44.6684937" lon="8.8211136"><ele>251.0</ele><time>2026-04-18T10:47:43.005Z</time></trkpt><trkpt lat="44.668675" lon="8.8209487"><ele>251.0</ele><time>2026-04-18T10:47:44.019Z</time></trkpt><trkpt lat="44.6688622" lon="8.8207963"><ele>250.66666666666669</ele><time>2026-04-18T10:47:45.012Z</time></trkpt><trkpt lat="44.6690554" lon="8.8206569"><ele>250.33333333333331</ele><time>2026-04-18T10:47:46.015Z</time></trkpt><trkpt lat="44.6692519" lon="8.8205344"><ele>250.0</ele><time>2026-04-18T10:47:47.016Z</time></trkpt><trkpt lat="44.6694562" lon="8.8204239"><ele>249.66666666666666</ele><time>2026-04-18T10:47:48.009Z</time></trkpt><trkpt lat="44.6696659" lon="8.8203346"><ele>249.33333333333331</ele><time>2026-04-18T10:47:49.01Z</time></trkpt><trkpt lat="44.6698815" lon="8.82026"><ele>249.0</ele><time>2026-04-18T10:47:50.017Z</time></trkpt><trkpt lat="44.6700999" lon="8.8201917"><ele>250.0</ele><time>2026-04-18T10:47:51.015Z</time></trkpt><trkpt lat="44.6703258" lon="8.8201292"><ele>251.0</ele><time>2026-04-18T10:47:52.006Z</time></trkpt><trkpt lat="44.6705542" lon="8.8200633"><ele>251.0</ele><time>2026-04-18T10:47:53.01Z</time></trkpt><trkpt lat="44.6707826" lon="8.8199986"><ele>251.0</ele><time>2026-04-18T10:47:54.011Z</time></trkpt><trkpt lat="44.6710141" lon="8.8199333"><ele>247.0</ele><time>2026-04-18T10:47:55.006Z</time></trkpt><trkpt lat="44.6712405" lon="8.8198653"><ele>243.0</ele><time>2026-04-18T10:47:56.016Z</time></trkpt><trkpt lat="44.6714624" lon="8.8198005"><ele>243.0</ele><time>2026-04-18T10:47:57.005Z</time></trkpt><trkpt lat="44.6716817" lon="8.819735"><ele>243.0</ele><time>2026-04-18T10:47:58.007Z</time></trkpt><trkpt lat="44.6719008" lon="8.81967"><ele>243.0</ele><time>2026-04-18T10:47:59.011Z</time></trkpt><trkpt lat="44.6721145" lon="8.8196076"><ele>241.66666666666669</ele><time>2026-04-18T10:48:00.01Z</time></trkpt><trkpt lat="44.6723239" lon="8.8195454"><ele>240.33333333333334</ele><time>2026-04-18T10:48:01.011Z</time></trkpt><trkpt lat="44.6725328" lon="8.8194887"><ele>239.0</ele><time>2026-04-18T10:48:02.008Z</time></trkpt><trkpt lat="44.6727472" lon="8.8194302"><ele>239.33333333333334</ele><time>2026-04-18T10:48:03.019Z</time></trkpt><trkpt lat="44.6729597" lon="8.8193724"><ele>239.66666666666669</ele><time>2026-04-18T10:48:04.008Z</time></trkpt><trkpt lat="44.673176" lon="8.8193039"><ele>240.0</ele><time>2026-04-18T10:48:05.018Z</time></trkpt><trkpt lat="44.6733919" lon="8.819221"><ele>237.5</ele><time>2026-04-18T10:48:06.005Z</time></trkpt><trkpt lat="44.6736067" lon="8.819114"><ele>235.0</ele><time>2026-04-18T10:48:07.014Z</time></trkpt><trkpt lat="44.6738175" lon="8.8189861"><ele>235.0</ele><time>2026-04-18T10:48:08.012Z</time></trkpt><trkpt lat="44.6740169" lon="8.818832"><ele>235.0</ele><time>2026-04-18T10:48:09.019Z</time></trkpt><trkpt lat="44.6742071" lon="8.8186553"><ele>236.5</ele><time>2026-04-18T10:48:10.008Z</time></trkpt><trkpt lat="44.6743815" lon="8.8184547"><ele>238.0</ele><time>2026-04-18T10:48:11.015Z</time></trkpt><trkpt lat="44.6745452" lon="8.8182383"><ele>238.33333333333331</ele><time>2026-04-18T10:48:12.013Z</time></trkpt><trkpt lat="44.6746991" lon="8.8180101"><ele>238.66666666666669</ele><time>2026-04-18T10:48:13.014Z</time></trkpt><trkpt lat="44.6748471" lon="8.8177758"><ele>239.0</ele><time>2026-04-18T10:48:14.013Z</time></trkpt><trkpt lat="44.6749935" lon="8.8175467"><ele>238.0</ele><time>2026-04-18T10:48:15.012Z</time></trkpt><trkpt lat="44.6751363" lon="8.8173187"><ele>237.0</ele><time>2026-04-18T10:48:16.014Z</time></trkpt><trkpt lat="44.6752802" lon="8.8170914"><ele>236.0</ele><time>2026-04-18T10:48:17.014Z</time></trkpt><trkpt lat="44.6754281" lon="8.8168667"><ele>235.0</ele><time>2026-04-18T10:48:18.011Z</time></trkpt><trkpt lat="44.6755737" lon="8.8166517"><ele>234.0</ele><time>2026-04-18T10:48:19.007Z</time></trkpt><trkpt lat="44.6757246" lon="8.8164443"><ele>233.0</ele><time>2026-04-18T10:48:20.012Z</time></trkpt><trkpt lat="44.6758802" lon="8.8162452"><ele>233.0</ele><time>2026-04-18T10:48:21.019Z</time></trkpt><trkpt lat="44.6760399" lon="8.8160593"><ele>233.0</ele><time>2026-04-18T10:48:22.011Z</time></trkpt><trkpt lat="44.6761999" lon="8.8158806"><ele>233.0</ele><time>2026-04-18T10:48:23.015Z</time></trkpt><trkpt lat="44.6763588" lon="8.8157104"><ele>230.33333333333334</ele><time>2026-04-18T10:48:24.018Z</time></trkpt><trkpt lat="44.676513" lon="8.8155448"><ele>227.66666666666669</ele><time>2026-04-18T10:48:25.013Z</time></trkpt><trkpt lat="44.6766641" lon="8.8153834"><ele>225.0</ele><time>2026-04-18T10:48:26.01Z</time></trkpt><trkpt lat="44.6768151" lon="8.8152266"><ele>224.66666666666669</ele><time>2026-04-18T10:48:27.019Z</time></trkpt><trkpt lat="44.6769611" lon="8.8150737"><ele>224.33333333333334</ele><time>2026-04-18T10:48:28.016Z</time></trkpt><trkpt lat="44.6771049" lon="8.8149206"><ele>224.0</ele><time>2026-04-18T10:48:29.017Z</time></trkpt><trkpt lat="44.6772481" lon="8.8147722"><ele>224.0</ele><time>2026-04-18T10:48:30.014Z</time></trkpt><trkpt lat="44.6773906" lon="8.8146242"><ele>224.0</ele><time>2026-04-18T10:48:31.009Z</time></trkpt><trkpt lat="44.6775271" lon="8.8144784"><ele>224.0</ele><time>2026-04-18T10:48:32.016Z</time></trkpt><trkpt lat="44.677659" lon="8.814337"><ele>223.33333333333334</ele><time>2026-04-18T10:48:33.013Z</time></trkpt><trkpt lat="44.6778" lon="8.8142189"><ele>222.66666666666669</ele><time>2026-04-18T10:48:34.01Z</time></trkpt><trkpt lat="44.6779464" lon="8.8141367"><ele>222.0</ele><time>2026-04-18T10:48:35.011Z</time></trkpt><trkpt lat="44.6780943" lon="8.814101"><ele>222.0</ele><time>2026-04-18T10:48:36.006Z</time></trkpt><trkpt lat="44.6782324" lon="8.8141022"><ele>222.0</ele><time>2026-04-18T10:48:37.014Z</time></trkpt><trkpt lat="44.6783583" lon="8.8141316"><ele>222.0</ele><time>2026-04-18T10:48:38.012Z</time></trkpt><trkpt lat="44.6784783" lon="8.8141445"><ele>222.0</ele><time>2026-04-18T10:48:39.008Z</time></trkpt><trkpt lat="44.6785929" lon="8.8141127"><ele>222.25</ele><time>2026-04-18T10:48:40.016Z</time></trkpt><trkpt lat="44.6787108" lon="8.8140479"><ele>222.5</ele><time>2026-04-18T10:48:41.019Z</time></trkpt><trkpt lat="44.6788337" lon="8.8139566"><ele>222.75</ele><time>2026-04-18T10:48:42.019Z</time></trkpt><trkpt lat="44.6789641" lon="8.8138523"><ele>223.0</ele><time>2026-04-18T10:48:43.019Z</time></trkpt><trkpt lat="44.6790998" lon="8.8137355"><ele>223.0</ele><time>2026-04-18T10:48:44.015Z</time></trkpt><trkpt lat="44.6792374" lon="8.8136243"><ele>223.0</ele><time>2026-04-18T10:48:45.019Z</time></trkpt><trkpt lat="44.6793714" lon="8.8135209"><ele>223.0</ele><time>2026-04-18T10:48:46.006Z</time></trkpt><trkpt lat="44.6795003" lon="8.8134167"><ele>224.5</ele><time>2026-04-18T10:48:47.019Z</time></trkpt><trkpt lat="44.6796182" lon="8.8133156"><ele>226.0</ele><time>2026-04-18T10:48:48.01Z</time></trkpt><trkpt lat="44.6797161" lon="8.8132098"><ele>227.5</ele><time>2026-04-18T10:48:49.012Z</time></trkpt><trkpt lat="44.6797979" lon="8.8130948"><ele>229.0</ele><time>2026-04-18T10:48:50.018Z</time></trkpt><trkpt lat="44.6798502" lon="8.8129597"><ele>229.0</ele><time>2026-04-18T10:48:51.005Z</time></trkpt><trkpt lat="44.6798923" lon="8.8128117"><ele>229.0</ele><time>2026-04-18T10:48:52.019Z</time></trkpt><trkpt lat="44.6799271" lon="8.8126546"><ele>229.0</ele><time>2026-04-18T10:48:53.012Z</time></trkpt><trkpt lat="44.6799703" lon="8.8125079"><ele>229.0</ele><time>2026-04-18T10:48:54.018Z</time></trkpt><trkpt lat="44.6800226" lon="8.8123691"><ele>228.6</ele><time>2026-04-18T10:48:55.011Z</time></trkpt><trkpt lat="44.680081" lon="8.8122422"><ele>228.2</ele><time>2026-04-18T10:48:56.014Z</time></trkpt><trkpt lat="44.6801425" lon="8.8121364"><ele>227.79999999999998</ele><time>2026-04-18T10:48:57.011Z</time></trkpt><trkpt lat="44.680203" lon="8.8120682"><ele>227.39999999999998</ele><time>2026-04-18T10:48:58.018Z</time></trkpt><trkpt lat="44.6802633" lon="8.8120278"><ele>227.0</ele><time>2026-04-18T10:48:59.009Z</time></trkpt><trkpt lat="44.6803764" lon="8.8120178"><ele>227.0</ele><time>2026-04-18T10:49:01.008Z</time></trkpt><trkpt lat="44.6804631" lon="8.8120607"><ele>227.0</ele><time>2026-04-18T10:49:03.016Z</time></trkpt><trkpt lat="44.6805381" lon="8.8121342"><ele>227.0</ele><time>2026-04-18T10:49:05.007Z</time></trkpt><trkpt lat="44.6806049" lon="8.8122274"><ele>227.0</ele><time>2026-04-18T10:49:07.009Z</time></trkpt><trkpt lat="44.6806516" lon="8.812346"><ele>227.0</ele><time>2026-04-18T10:49:09.006Z</time></trkpt><trkpt lat="44.6806902" lon="8.8124529"><ele>227.00000000000003</ele><time>2026-04-18T10:49:11.008Z</time></trkpt><trkpt lat="44.6807205" lon="8.8125391"><ele>227.0</ele><time>2026-04-18T10:49:13.018Z</time></trkpt><trkpt lat="44.6807668" lon="8.8126417"><ele>227.0</ele><time>2026-04-18T10:49:16.012Z</time></trkpt><trkpt lat="44.6808044" lon="8.8127318"><ele>227.0</ele><time>2026-04-18T10:49:20.019Z</time></trkpt><trkpt lat="44.6808407" lon="8.8128115"><ele>227.00000000000003</ele><time>2026-04-18T10:50:48.019Z</time></trkpt><trkpt lat="44.6808942" lon="8.8129019"><ele>227.0</ele><time>2026-04-18T10:50:52.019Z</time></trkpt><trkpt lat="44.6809309" lon="8.8129887"><ele>227.66666666666669</ele><time>2026-04-18T10:50:53.019Z</time></trkpt><trkpt lat="44.6809693" lon="8.8130754"><ele>228.33333333333334</ele><time>2026-04-18T10:50:54.019Z</time></trkpt><trkpt lat="44.6810145" lon="8.8131692"><ele>229.0</ele><time>2026-04-18T10:50:55.019Z</time></trkpt><trkpt lat="44.6810631" lon="8.8132699"><ele>229.66666666666669</ele><time>2026-04-18T10:50:56.018Z</time></trkpt><trkpt lat="44.681119" lon="8.8133771"><ele>230.33333333333334</ele><time>2026-04-18T10:50:57.019Z</time></trkpt><trkpt lat="44.6811773" lon="8.813496"><ele>231.0</ele><time>2026-04-18T10:50:58.019Z</time></trkpt><trkpt lat="44.6812415" lon="8.813605"><ele>236.33333333333331</ele><time>2026-04-18T10:50:59.018Z</time></trkpt><trkpt lat="44.6813069" lon="8.8137113"><ele>241.66666666666666</ele><time>2026-04-18T10:51:00.019Z</time></trkpt><trkpt lat="44.6813731" lon="8.8138167"><ele>247.0</ele><time>2026-04-18T10:51:01.019Z</time></trkpt><trkpt lat="44.6850675" lon="8.8172749"><ele>252.0</ele><time>2026-04-18T10:51:28.018Z</time></trkpt><trkpt lat="44.6852138" lon="8.8174049"><ele>257.0</ele><time>2026-04-18T10:51:29.019Z</time></trkpt><trkpt lat="44.6853643" lon="8.8175332"><ele>262.0</ele><time>2026-04-18T10:51:30.019Z</time></trkpt><trkpt lat="44.6855141" lon="8.8176606"><ele>262.3333333333333</ele><time>2026-04-18T10:51:31.018Z</time></trkpt><trkpt lat="44.6856628" lon="8.8177886"><ele>262.6666666666667</ele><time>2026-04-18T10:51:32.019Z</time></trkpt><trkpt lat="44.6858159" lon="8.8179159"><ele>263.0</ele><time>2026-04-18T10:51:33.019Z</time></trkpt><trkpt lat="44.6859729" lon="8.8180329"><ele>260.0</ele><time>2026-04-18T10:51:34.019Z</time></trkpt><trkpt lat="44.6861358" lon="8.8181409"><ele>257.0</ele><time>2026-04-18T10:51:35.019Z</time></trkpt><trkpt lat="44.6863064" lon="8.8182423"><ele>254.0</ele><time>2026-04-18T10:51:36.019Z</time></trkpt><trkpt lat="44.6864846" lon="8.8183349"><ele>254.0</ele><time>2026-04-18T10:51:37.019Z</time></trkpt><trkpt lat="44.6866661" lon="8.8184189"><ele>254.0</ele><time>2026-04-18T10:51:38.019Z</time></trkpt><trkpt lat="44.6868498" lon="8.8184914"><ele>254.0</ele><time>2026-04-18T10:51:39.018Z</time></trkpt><trkpt lat="44.6870366" lon="8.8185507"><ele>256.6666666666667</ele><time>2026-04-18T10:51:40.018Z</time></trkpt><trkpt lat="44.6872269" lon="8.8185942"><ele>259.3333333333333</ele><time>2026-04-18T10:51:41.018Z</time></trkpt><trkpt lat="44.6874151" lon="8.8186202"><ele>262.0</ele><time>2026-04-18T10:51:42.018Z</time></trkpt><trkpt lat="44.6876002" lon="8.8186317"><ele>259.0</ele><time>2026-04-18T10:51:43.019Z</time></trkpt><trkpt lat="44.6877844" lon="8.8186328"><ele>256.0</ele><time>2026-04-18T10:51:44.018Z</time></trkpt><trkpt lat="44.6879682" lon="8.8186249"><ele>253.0</ele><time>2026-04-18T10:51:45.018Z</time></trkpt><trkpt lat="44.688152" lon="8.8186054"><ele>253.0</ele><time>2026-04-18T10:51:46.018Z</time></trkpt><trkpt lat="44.6883377" lon="8.8185875"><ele>253.0</ele><time>2026-04-18T10:51:47.018Z</time></trkpt><trkpt lat="44.6885261" lon="8.8185676"><ele>253.0</ele><time>2026-04-18T10:51:48.012Z</time></trkpt><trkpt lat="44.6887142" lon="8.8185474"><ele>251.0</ele><time>2026-04-18T10:51:49.019Z</time></trkpt><trkpt lat="44.6888977" lon="8.8185259"><ele>249.0</ele><time>2026-04-18T10:51:50.019Z</time></trkpt><trkpt lat="44.6890773" lon="8.8185056"><ele>247.0</ele><time>2026-04-18T10:51:51.012Z</time></trkpt><trkpt lat="44.6892504" lon="8.8184857"><ele>247.0</ele><time>2026-04-18T10:51:52.018Z</time></trkpt><trkpt lat="44.6894119" lon="8.8184683"><ele>247.0</ele><time>2026-04-18T10:51:53.015Z</time></trkpt><trkpt lat="44.6895676" lon="8.8184512"><ele>247.0</ele><time>2026-04-18T10:51:54.019Z</time></trkpt><trkpt lat="44.6897092" lon="8.818438"><ele>246.2</ele><time>2026-04-18T10:51:55.018Z</time></trkpt><trkpt lat="44.6898401" lon="8.8184289"><ele>245.39999999999998</ele><time>2026-04-18T10:51:56.019Z</time></trkpt><trkpt lat="44.6899551" lon="8.8184282"><ele>244.60000000000002</ele><time>2026-04-18T10:51:57.014Z</time></trkpt><trkpt lat="44.6900536" lon="8.8184407"><ele>243.8</ele><time>2026-04-18T10:51:58.006Z</time></trkpt><trkpt lat="44.6901414" lon="8.8184752"><ele>243.0</ele><time>2026-04-18T10:51:59.01Z</time></trkpt><trkpt lat="44.6902208" lon="8.8185247"><ele>242.16666666666666</ele><time>2026-04-18T10:52:00.019Z</time></trkpt><trkpt lat="44.6902918" lon="8.8185934"><ele>241.33333333333331</ele><time>2026-04-18T10:52:01.019Z</time></trkpt><trkpt lat="44.6903514" lon="8.8186864"><ele>240.5</ele><time>2026-04-18T10:52:02.019Z</time></trkpt><trkpt lat="44.6904025" lon="8.818789"><ele>239.66666666666666</ele><time>2026-04-18T10:52:03.019Z</time></trkpt><trkpt lat="44.6904446" lon="8.8188907"><ele>238.83333333333331</ele><time>2026-04-18T10:52:04.019Z</time></trkpt><trkpt lat="44.6904784" lon="8.8189867"><ele>238.0</ele><time>2026-04-18T10:52:05.018Z</time></trkpt><trkpt lat="44.6905035" lon="8.8190785"><ele>237.99999999999997</ele><time>2026-04-18T10:52:06.019Z</time></trkpt><trkpt lat="44.690517" lon="8.8191651"><ele>238.0</ele><time>2026-04-18T10:52:07.018Z</time></trkpt><trkpt lat="44.6905038" lon="8.8193067"><ele>238.0</ele><time>2026-04-18T10:52:09.01Z</time></trkpt><trkpt lat="44.6904725" lon="8.8194287"><ele>238.0</ele><time>2026-04-18T10:52:11.017Z</time></trkpt><trkpt lat="44.6904524" lon="8.8195386"><ele>237.99999999999997</ele><time>2026-04-18T10:52:13.015Z</time></trkpt><trkpt lat="44.690471" lon="8.8196256"><ele>238.0</ele><time>2026-04-18T10:53:21.018Z</time></trkpt><trkpt lat="44.6904663" lon="8.8197189"><ele>238.16666666666666</ele><time>2026-04-18T10:53:25.018Z</time></trkpt><trkpt lat="44.6904661" lon="8.8198237"><ele>238.33333333333331</ele><time>2026-04-18T11:10:45.019Z</time></trkpt><trkpt lat="44.6904921" lon="8.8199145"><ele>238.5</ele><time>2026-04-18T11:15:28.013Z</time></trkpt><trkpt lat="44.6905637" lon="8.8199639"><ele>238.66666666666669</ele><time>2026-04-18T11:15:32.016Z</time></trkpt><trkpt lat="44.6906025" lon="8.8200783"><ele>238.83333333333334</ele><time>2026-04-18T11:15:36.013Z</time></trkpt><trkpt lat="44.6906218" lon="8.820186"><ele>239.0</ele><time>2026-04-18T11:15:38.014Z</time></trkpt><trkpt lat="44.6906482" lon="8.8203523"><ele>239.0</ele><time>2026-04-18T11:15:40.018Z</time></trkpt><trkpt lat="44.6906606" lon="8.8204551"><ele>238.99999999999997</ele><time>2026-04-18T11:15:41.019Z</time></trkpt><trkpt lat="44.690675" lon="8.8205709"><ele>238.99999999999997</ele><time>2026-04-18T11:15:42.019Z</time></trkpt><trkpt lat="44.6906929" lon="8.8207042"><ele>239.0</ele><time>2026-04-18T11:15:43.019Z</time></trkpt><trkpt lat="44.6907133" lon="8.8208532"><ele>239.0</ele><time>2026-04-18T11:15:44.019Z</time></trkpt><trkpt lat="44.6907356" lon="8.8210158"><ele>238.5</ele><time>2026-04-18T11:15:45.019Z</time></trkpt><trkpt lat="44.6907571" lon="8.8211731"><ele>238.0</ele><time>2026-04-18T11:15:46.018Z</time></trkpt><trkpt lat="44.6907782" lon="8.821335"><ele>237.5</ele><time>2026-04-18T11:15:47.018Z</time></trkpt><trkpt lat="44.6908016" lon="8.8215025"><ele>237.0</ele><time>2026-04-18T11:15:48.018Z</time></trkpt><trkpt lat="44.6908274" lon="8.8216741"><ele>238.0</ele><time>2026-04-18T11:15:49.019Z</time></trkpt><trkpt lat="44.6908515" lon="8.8218483"><ele>239.0</ele><time>2026-04-18T11:15:50.019Z</time></trkpt><trkpt lat="44.6908774" lon="8.8220303"><ele>240.0</ele><time>2026-04-18T11:15:51.018Z</time></trkpt><trkpt lat="44.6909031" lon="8.8222188"><ele>241.0</ele><time>2026-04-18T11:15:52.019Z</time></trkpt><trkpt lat="44.690929" lon="8.8224032"><ele>241.0</ele><time>2026-04-18T11:15:53.019Z</time></trkpt><trkpt lat="44.6909546" lon="8.8225772"><ele>241.0</ele><time>2026-04-18T11:15:54.019Z</time></trkpt><trkpt lat="44.690979" lon="8.822743"><ele>241.0</ele><time>2026-04-18T11:15:55.018Z</time></trkpt><trkpt lat="44.6910021" lon="8.8229015"><ele>241.0</ele><time>2026-04-18T11:15:56.018Z</time></trkpt><trkpt lat="44.6910229" lon="8.8230515"><ele>241.0</ele><time>2026-04-18T11:15:57.019Z</time></trkpt><trkpt lat="44.6910443" lon="8.8231984"><ele>241.00000000000003</ele><time>2026-04-18T11:15:58.019Z</time></trkpt><trkpt lat="44.6910659" lon="8.823339"><ele>241.00000000000003</ele><time>2026-04-18T11:15:59.018Z</time></trkpt><trkpt lat="44.6910879" lon="8.8234728"><ele>241.0</ele><time>2026-04-18T11:16:00.018Z</time></trkpt><trkpt lat="44.6911097" lon="8.8235955"><ele>241.0</ele><time>2026-04-18T11:16:01.019Z</time></trkpt><trkpt lat="44.6911273" lon="8.8237144"><ele>240.4</ele><time>2026-04-18T11:16:02.018Z</time></trkpt><trkpt lat="44.691141" lon="8.8238209"><ele>239.8</ele><time>2026-04-18T11:16:03.019Z</time></trkpt><trkpt lat="44.6911634" lon="8.8239779"><ele>239.20000000000002</ele><time>2026-04-18T11:16:05.019Z</time></trkpt><trkpt lat="44.6911856" lon="8.8241168"><ele>238.60000000000002</ele><time>2026-04-18T11:16:07.018Z</time></trkpt><trkpt lat="44.691204" lon="8.8242469"><ele>238.0</ele><time>2026-04-18T11:16:09.019Z</time></trkpt><trkpt lat="44.6912148" lon="8.8243551"><ele>237.99999999999997</ele><time>2026-04-18T11:16:11.019Z</time></trkpt><trkpt lat="44.6912023" lon="8.8244762"><ele>238.0</ele><time>2026-04-18T11:16:13.018Z</time></trkpt><trkpt lat="44.6911563" lon="8.8246283"><ele>238.0</ele><time>2026-04-18T11:16:15.019Z</time></trkpt><trkpt lat="44.691146" lon="8.8247161"><ele>238.0</ele><time>2026-04-18T11:16:16.019Z</time></trkpt><trkpt lat="44.6911586" lon="8.8248099"><ele>237.99999999999997</ele><time>2026-04-18T11:16:17.018Z</time></trkpt><trkpt lat="44.6911964" lon="8.824896"><ele>238.0</ele><time>2026-04-18T11:16:18.019Z</time></trkpt><trkpt lat="44.691255" lon="8.8249855"><ele>238.0</ele><time>2026-04-18T11:16:19.019Z</time></trkpt><trkpt lat="44.6913132" lon="8.8250968"><ele>238.0</ele><time>2026-04-18T11:16:20.019Z</time></trkpt><trkpt lat="44.6913546" lon="8.8252464"><ele>238.0</ele><time>2026-04-18T11:16:21.018Z</time></trkpt><trkpt lat="44.6913848" lon="8.8254109"><ele>238.0</ele><time>2026-04-18T11:16:22.019Z</time></trkpt><trkpt lat="44.6914144" lon="8.8255908"><ele>238.25</ele><time>2026-04-18T11:16:23.018Z</time></trkpt><trkpt lat="44.6914451" lon="8.8257778"><ele>238.5</ele><time>2026-04-18T11:16:24.019Z</time></trkpt><trkpt lat="44.6914735" lon="8.8259619"><ele>238.75</ele><time>2026-04-18T11:16:25.018Z</time></trkpt><trkpt lat="44.6915007" lon="8.8261533"><ele>239.0</ele><time>2026-04-18T11:16:26.018Z</time></trkpt><trkpt lat="44.6915281" lon="8.8263455"><ele>239.0</ele><time>2026-04-18T11:16:27.018Z</time></trkpt><trkpt lat="44.6915582" lon="8.8265404"><ele>239.0</ele><time>2026-04-18T11:16:28.019Z</time></trkpt><trkpt lat="44.6915931" lon="8.8267407"><ele>239.0</ele><time>2026-04-18T11:16:29.019Z</time></trkpt><trkpt lat="44.6916306" lon="8.8269522"><ele>239.0</ele><time>2026-04-18T11:16:30.019Z</time></trkpt><trkpt lat="44.6916693" lon="8.8271738"><ele>239.66666666666669</ele><time>2026-04-18T11:16:31.019Z</time></trkpt><trkpt lat="44.6917039" lon="8.8274059"><ele>240.33333333333331</ele><time>2026-04-18T11:16:32.018Z</time></trkpt><trkpt lat="44.6917294" lon="8.8276493"><ele>241.0</ele><time>2026-04-18T11:16:33.019Z</time></trkpt><trkpt lat="44.6917507" lon="8.8278967"><ele>241.33333333333331</ele><time>2026-04-18T11:16:34.018Z</time></trkpt><trkpt lat="44.6917678" lon="8.8281402"><ele>241.66666666666669</ele><time>2026-04-18T11:16:35.019Z</time></trkpt><trkpt lat="44.6917853" lon="8.8283832"><ele>242.0</ele><time>2026-04-18T11:16:36.018Z</time></trkpt><trkpt lat="44.6918038" lon="8.8286225"><ele>241.33333333333334</ele><time>2026-04-18T11:16:37.019Z</time></trkpt><trkpt lat="44.6918232" lon="8.8288712"><ele>240.66666666666669</ele><time>2026-04-18T11:16:38.019Z</time></trkpt><trkpt lat="44.6918448" lon="8.8291248"><ele>240.0</ele><time>2026-04-18T11:16:39.018Z</time></trkpt><trkpt lat="44.6918673" lon="8.8293817"><ele>240.0</ele><time>2026-04-18T11:16:40.018Z</time></trkpt><trkpt lat="44.6918902" lon="8.8296342"><ele>240.0</ele><time>2026-04-18T11:16:41.018Z</time></trkpt><trkpt lat="44.6919154" lon="8.8298775"><ele>240.0</ele><time>2026-04-18T11:16:42.019Z</time></trkpt><trkpt lat="44.6919422" lon="8.8301123"><ele>239.66666666666669</ele><time>2026-04-18T11:16:43.018Z</time></trkpt><trkpt lat="44.6919738" lon="8.8303393"><ele>239.33333333333334</ele><time>2026-04-18T11:16:44.019Z</time></trkpt><trkpt lat="44.692007" lon="8.8305631"><ele>239.0</ele><time>2026-04-18T11:16:45.018Z</time></trkpt><trkpt lat="44.6920432" lon="8.8307802"><ele>239.66666666666669</ele><time>2026-04-18T11:16:46.018Z</time></trkpt><trkpt lat="44.6920848" lon="8.831003"><ele>240.33333333333331</ele><time>2026-04-18T11:16:47.018Z</time></trkpt><trkpt lat="44.6921336" lon="8.8312421"><ele>241.0</ele><time>2026-04-18T11:16:48.018Z</time></trkpt><trkpt lat="44.6921825" lon="8.8315002"><ele>241.0</ele><time>2026-04-18T11:16:49.019Z</time></trkpt><trkpt lat="44.6922258" lon="8.8317689"><ele>241.0</ele><time>2026-04-18T11:16:50.019Z</time></trkpt><trkpt lat="44.6922634" lon="8.8320461"><ele>241.0</ele><time>2026-04-18T11:16:51.018Z</time></trkpt><trkpt lat="44.6923002" lon="8.8323219"><ele>241.66666666666666</ele><time>2026-04-18T11:16:52.018Z</time></trkpt><trkpt lat="44.692339" lon="8.8325902"><ele>242.33333333333331</ele><time>2026-04-18T11:16:53.019Z</time></trkpt><trkpt lat="44.6923803" lon="8.8328543"><ele>243.0</ele><time>2026-04-18T11:16:54.019Z</time></trkpt><trkpt lat="44.6924241" lon="8.8331122"><ele>243.0</ele><time>2026-04-18T11:16:55.019Z</time></trkpt><trkpt lat="44.692467" lon="8.8333621"><ele>243.0</ele><time>2026-04-18T11:16:56.018Z</time></trkpt><trkpt lat="44.6925074" lon="8.8336043"><ele>243.0</ele><time>2026-04-18T11:16:57.019Z</time></trkpt><trkpt lat="44.6925445" lon="8.8338359"><ele>243.33333333333331</ele><time>2026-04-18T11:16:58.018Z</time></trkpt><trkpt lat="44.6925804" lon="8.8340601"><ele>243.66666666666666</ele><time>2026-04-18T11:16:59.019Z</time></trkpt><trkpt lat="44.6926158" lon="8.83428"><ele>244.0</ele><time>2026-04-18T11:17:00.019Z</time></trkpt><trkpt lat="44.6926502" lon="8.8344883"><ele>244.0</ele><time>2026-04-18T11:17:01.018Z</time></trkpt><trkpt lat="44.6926845" lon="8.8346885"><ele>244.0</ele><time>2026-04-18T11:17:02.018Z</time></trkpt><trkpt lat="44.6927147" lon="8.8348725"><ele>244.0</ele><time>2026-04-18T11:17:03.019Z</time></trkpt><trkpt lat="44.6927413" lon="8.8350394"><ele>244.0</ele><time>2026-04-18T11:17:04.018Z</time></trkpt><trkpt lat="44.6927655" lon="8.8351919"><ele>243.79999999999998</ele><time>2026-04-18T11:17:05.018Z</time></trkpt><trkpt lat="44.692789" lon="8.8353415"><ele>243.59999999999997</ele><time>2026-04-18T11:17:06.018Z</time></trkpt><trkpt lat="44.6928134" lon="8.8354857"><ele>243.4</ele><time>2026-04-18T11:17:07.019Z</time></trkpt><trkpt lat="44.6928388" lon="8.8356294"><ele>243.2</ele><time>2026-04-18T11:17:08.019Z</time></trkpt><trkpt lat="44.6928625" lon="8.8357825"><ele>243.0</ele><time>2026-04-18T11:17:09.019Z</time></trkpt><trkpt lat="44.6928872" lon="8.8359443"><ele>243.25</ele><time>2026-04-18T11:17:10.019Z</time></trkpt><trkpt lat="44.6929134" lon="8.8361141"><ele>243.5</ele><time>2026-04-18T11:17:11.019Z</time></trkpt><trkpt lat="44.692942" lon="8.836292"><ele>243.75</ele><time>2026-04-18T11:17:12.018Z</time></trkpt><trkpt lat="44.6929731" lon="8.8364724"><ele>244.0</ele><time>2026-04-18T11:17:13.019Z</time></trkpt><trkpt lat="44.6930039" lon="8.8366513"><ele>244.0</ele><time>2026-04-18T11:17:14.019Z</time></trkpt><trkpt lat="44.6930321" lon="8.8368192"><ele>244.0</ele><time>2026-04-18T11:17:15.018Z</time></trkpt><trkpt lat="44.6930601" lon="8.8369822"><ele>244.0</ele><time>2026-04-18T11:17:16.018Z</time></trkpt><trkpt lat="44.6930909" lon="8.837138"><ele>244.0</ele><time>2026-04-18T11:17:17.019Z</time></trkpt><trkpt lat="44.6931238" lon="8.8372986"><ele>244.0</ele><time>2026-04-18T11:17:18.019Z</time></trkpt><trkpt lat="44.6931608" lon="8.8374652"><ele>244.0</ele><time>2026-04-18T11:17:19.019Z</time></trkpt><trkpt lat="44.6932039" lon="8.8376312"><ele>244.0</ele><time>2026-04-18T11:17:20.018Z</time></trkpt><trkpt lat="44.6932574" lon="8.8377894"><ele>244.0</ele><time>2026-04-18T11:17:21.019Z</time></trkpt><trkpt lat="44.6933242" lon="8.8379336"><ele>244.39999999999998</ele><time>2026-04-18T11:17:22.019Z</time></trkpt><trkpt lat="44.6933994" lon="8.8380636"><ele>244.79999999999998</ele><time>2026-04-18T11:17:23.019Z</time></trkpt><trkpt lat="44.6934783" lon="8.8381817"><ele>245.20000000000002</ele><time>2026-04-18T11:17:24.019Z</time></trkpt><trkpt lat="44.6935514" lon="8.8382823"><ele>245.60000000000002</ele><time>2026-04-18T11:17:25.019Z</time></trkpt><trkpt lat="44.6936238" lon="8.8383722"><ele>246.0</ele><time>2026-04-18T11:17:26.018Z</time></trkpt><trkpt lat="44.6936984" lon="8.8384619"><ele>245.5</ele><time>2026-04-18T11:17:27.019Z</time></trkpt><trkpt lat="44.6937813" lon="8.8385533"><ele>245.0</ele><time>2026-04-18T11:17:28.019Z</time></trkpt><trkpt lat="44.6938708" lon="8.8386548"><ele>244.5</ele><time>2026-04-18T11:17:29.018Z</time></trkpt><trkpt lat="44.6939672" lon="8.8387626"><ele>244.0</ele><time>2026-04-18T11:17:30.019Z</time></trkpt><trkpt lat="44.6940692" lon="8.8388781"><ele>244.0</ele><time>2026-04-18T11:17:31.019Z</time></trkpt><trkpt lat="44.6941751" lon="8.8389995"><ele>244.0</ele><time>2026-04-18T11:17:32.019Z</time></trkpt><trkpt lat="44.6942825" lon="8.8391209"><ele>244.0</ele><time>2026-04-18T11:17:33.019Z</time></trkpt><trkpt lat="44.6943883" lon="8.839243"><ele>244.0</ele><time>2026-04-18T11:17:34.018Z</time></trkpt><trkpt lat="44.6944912" lon="8.8393629"><ele>244.75</ele><time>2026-04-18T11:17:35.019Z</time></trkpt><trkpt lat="44.6945905" lon="8.8394804"><ele>245.5</ele><time>2026-04-18T11:17:36.019Z</time></trkpt><trkpt lat="44.6946845" lon="8.8395926"><ele>246.25</ele><time>2026-04-18T11:17:37.019Z</time></trkpt><trkpt lat="44.6947769" lon="8.8397009"><ele>247.0</ele><time>2026-04-18T11:17:38.018Z</time></trkpt><trkpt lat="44.6948681" lon="8.8398085"><ele>247.0</ele><time>2026-04-18T11:17:39.019Z</time></trkpt><trkpt lat="44.6949563" lon="8.8399151"><ele>247.0</ele><time>2026-04-18T11:17:40.019Z</time></trkpt><trkpt lat="44.6950481" lon="8.8400229"><ele>247.0</ele><time>2026-04-18T11:17:41.019Z</time></trkpt><trkpt lat="44.6951443" lon="8.8401346"><ele>247.0</ele><time>2026-04-18T11:17:42.018Z</time></trkpt><trkpt lat="44.695245" lon="8.8402523"><ele>248.25</ele><time>2026-04-18T11:17:43.018Z</time></trkpt><trkpt lat="44.6953498" lon="8.8403759"><ele>249.5</ele><time>2026-04-18T11:17:44.019Z</time></trkpt><trkpt lat="44.6954532" lon="8.8405021"><ele>250.75</ele><time>2026-04-18T11:17:45.019Z</time></trkpt><trkpt lat="44.6955537" lon="8.8406249"><ele>252.0</ele><time>2026-04-18T11:17:46.019Z</time></trkpt><trkpt lat="44.6956469" lon="8.8407467"><ele>252.0</ele><time>2026-04-18T11:17:47.019Z</time></trkpt><trkpt lat="44.6957371" lon="8.8408685"><ele>252.0</ele><time>2026-04-18T11:17:48.019Z</time></trkpt><trkpt lat="44.6958214" lon="8.8409876"><ele>252.0</ele><time>2026-04-18T11:17:49.019Z</time></trkpt><trkpt lat="44.6959016" lon="8.8411029"><ele>252.0</ele><time>2026-04-18T11:17:50.018Z</time></trkpt><trkpt lat="44.6959803" lon="8.8412226"><ele>251.5</ele><time>2026-04-18T11:17:51.019Z</time></trkpt><trkpt lat="44.6960589" lon="8.8413427"><ele>251.0</ele><time>2026-04-18T11:17:52.019Z</time></trkpt><trkpt lat="44.6961403" lon="8.8414693"><ele>250.5</ele><time>2026-04-18T11:17:53.018Z</time></trkpt><trkpt lat="44.6962248" lon="8.841605"><ele>250.0</ele><time>2026-04-18T11:17:54.019Z</time></trkpt><trkpt lat="44.6963089" lon="8.8417437"><ele>251.5</ele><time>2026-04-18T11:17:55.019Z</time></trkpt><trkpt lat="44.6963928" lon="8.8418824"><ele>253.0</ele><time>2026-04-18T11:17:56.019Z</time></trkpt><trkpt lat="44.696477" lon="8.8420206"><ele>254.5</ele><time>2026-04-18T11:17:57.019Z</time></trkpt><trkpt lat="44.6965607" lon="8.8421531"><ele>256.0</ele><time>2026-04-18T11:17:58.019Z</time></trkpt><trkpt lat="44.6966475" lon="8.842289"><ele>256.0</ele><time>2026-04-18T11:17:59.019Z</time></trkpt><trkpt lat="44.6967323" lon="8.8424234"><ele>256.0</ele><time>2026-04-18T11:18:00.018Z</time></trkpt><trkpt lat="44.696813" lon="8.8425564"><ele>256.0</ele><time>2026-04-18T11:18:01.019Z</time></trkpt><trkpt lat="44.6968941" lon="8.8426893"><ele>256.0</ele><time>2026-04-18T11:18:02.019Z</time></trkpt><trkpt lat="44.6969768" lon="8.8428228"><ele>259.25</ele><time>2026-04-18T11:18:03.018Z</time></trkpt><trkpt lat="44.6970605" lon="8.842959"><ele>262.5</ele><time>2026-04-18T11:18:04.019Z</time></trkpt><trkpt lat="44.6971457" lon="8.8430993"><ele>265.75</ele><time>2026-04-18T11:18:05.018Z</time></trkpt><trkpt lat="44.6972326" lon="8.8432421"><ele>269.0</ele><time>2026-04-18T11:18:06.019Z</time></trkpt><trkpt lat="44.6973242" lon="8.8433869"><ele>266.75</ele><time>2026-04-18T11:18:07.018Z</time></trkpt><trkpt lat="44.6974183" lon="8.8435369"><ele>264.5</ele><time>2026-04-18T11:18:08.019Z</time></trkpt><trkpt lat="44.6975161" lon="8.8436974"><ele>262.25</ele><time>2026-04-18T11:18:09.018Z</time></trkpt><trkpt lat="44.6976158" lon="8.8438636"><ele>260.0</ele><time>2026-04-18T11:18:10.019Z</time></trkpt><trkpt lat="44.6977178" lon="8.8440394"><ele>261.0</ele><time>2026-04-18T11:18:11.019Z</time></trkpt><trkpt lat="44.6978064" lon="8.8442269"><ele>262.0</ele><time>2026-04-18T11:18:12.018Z</time></trkpt><trkpt lat="44.6978729" lon="8.8444268"><ele>263.0</ele><time>2026-04-18T11:18:13.018Z</time></trkpt><trkpt lat="44.6979166" lon="8.8446373"><ele>263.25</ele><time>2026-04-18T11:18:14.019Z</time></trkpt><trkpt lat="44.6979453" lon="8.8448511"><ele>263.5</ele><time>2026-04-18T11:18:15.018Z</time></trkpt><trkpt lat="44.6979672" lon="8.8450579"><ele>263.75</ele><time>2026-04-18T11:18:16.019Z</time></trkpt><trkpt lat="44.6979958" lon="8.8452581"><ele>264.0</ele><time>2026-04-18T11:18:17.018Z</time></trkpt><trkpt lat="44.698038" lon="8.8454541"><ele>264.3333333333333</ele><time>2026-04-18T11:18:18.018Z</time></trkpt><trkpt lat="44.6980927" lon="8.8456482"><ele>264.66666666666663</ele><time>2026-04-18T11:18:19.019Z</time></trkpt><trkpt lat="44.6981628" lon="8.8458419"><ele>265.0</ele><time>2026-04-18T11:18:20.018Z</time></trkpt><trkpt lat="44.6982436" lon="8.8460358"><ele>265.0</ele><time>2026-04-18T11:18:21.018Z</time></trkpt><trkpt lat="44.6983316" lon="8.8462323"><ele>265.0</ele><time>2026-04-18T11:18:22.019Z</time></trkpt><trkpt lat="44.6984232" lon="8.8464298"><ele>265.0</ele><time>2026-04-18T11:18:23.019Z</time></trkpt><trkpt lat="44.6985171" lon="8.846621"><ele>267.66666666666663</ele><time>2026-04-18T11:18:24.018Z</time></trkpt><trkpt lat="44.698608" lon="8.8467993"><ele>270.3333333333333</ele><time>2026-04-18T11:18:25.018Z</time></trkpt><trkpt lat="44.6986977" lon="8.8469688"><ele>273.0</ele><time>2026-04-18T11:18:26.018Z</time></trkpt><trkpt lat="44.698792" lon="8.8471322"><ele>273.0</ele><time>2026-04-18T11:18:27.019Z</time></trkpt><trkpt lat="44.6988937" lon="8.8472829"><ele>273.0</ele><time>2026-04-18T11:18:28.019Z</time></trkpt><trkpt lat="44.6990055" lon="8.8474221"><ele>273.0</ele><time>2026-04-18T11:18:29.018Z</time></trkpt><trkpt lat="44.6991236" lon="8.8475595"><ele>272.0</ele><time>2026-04-18T11:18:30.019Z</time></trkpt><trkpt lat="44.6992415" lon="8.8477072"><ele>271.0</ele><time>2026-04-18T11:18:31.018Z</time></trkpt><trkpt lat="44.6993547" lon="8.8478738"><ele>270.0</ele><time>2026-04-18T11:18:32.019Z</time></trkpt><trkpt lat="44.6994591" lon="8.8480631"><ele>272.6666666666667</ele><time>2026-04-18T11:18:33.018Z</time></trkpt><trkpt lat="44.6995518" lon="8.8482703"><ele>275.33333333333337</ele><time>2026-04-18T11:18:34.018Z</time></trkpt><trkpt lat="44.6996314" lon="8.8484966"><ele>278.0</ele><time>2026-04-18T11:18:35.018Z</time></trkpt><trkpt lat="44.6996982" lon="8.8487431"><ele>278.0</ele><time>2026-04-18T11:18:36.019Z</time></trkpt><trkpt lat="44.6997559" lon="8.8489912"><ele>278.0</ele><time>2026-04-18T11:18:37.019Z</time></trkpt><trkpt lat="44.699814" lon="8.8492401"><ele>278.0</ele><time>2026-04-18T11:18:38.018Z</time></trkpt><trkpt lat="44.6998729" lon="8.8494874"><ele>277.6666666666667</ele><time>2026-04-18T11:18:39.018Z</time></trkpt><trkpt lat="44.6999273" lon="8.8497297"><ele>277.3333333333333</ele><time>2026-04-18T11:18:40.019Z</time></trkpt><trkpt lat="44.699977" lon="8.8499654"><ele>277.0</ele><time>2026-04-18T11:18:41.019Z</time></trkpt><trkpt lat="44.7000129" lon="8.8501922"><ele>278.66666666666663</ele><time>2026-04-18T11:18:42.019Z</time></trkpt><trkpt lat="44.7000341" lon="8.8504155"><ele>280.3333333333333</ele><time>2026-04-18T11:18:43.019Z</time></trkpt><trkpt lat="44.7000469" lon="8.8506312"><ele>282.0</ele><time>2026-04-18T11:18:44.019Z</time></trkpt><trkpt lat="44.7000635" lon="8.8508473"><ele>283.3333333333333</ele><time>2026-04-18T11:18:45.018Z</time></trkpt><trkpt lat="44.7000888" lon="8.8510628"><ele>284.66666666666663</ele><time>2026-04-18T11:18:46.018Z</time></trkpt><trkpt lat="44.7001201" lon="8.8512733"><ele>286.0</ele><time>2026-04-18T11:18:47.019Z</time></trkpt><trkpt lat="44.7001554" lon="8.8514732"><ele>286.0</ele><time>2026-04-18T11:18:48.019Z</time></trkpt><trkpt lat="44.7002094" lon="8.8516535"><ele>286.0</ele><time>2026-04-18T11:18:49.019Z</time></trkpt><trkpt lat="44.7002906" lon="8.8518115"><ele>286.0</ele><time>2026-04-18T11:18:50.019Z</time></trkpt><trkpt lat="44.7004002" lon="8.8519414"><ele>286.0</ele><time>2026-04-18T11:18:51.019Z</time></trkpt><trkpt lat="44.7005078" lon="8.852069"><ele>280.3333333333333</ele><time>2026-04-18T11:18:52.019Z</time></trkpt><trkpt lat="44.700615" lon="8.8521969"><ele>274.6666666666667</ele><time>2026-04-18T11:18:53.019Z</time></trkpt><trkpt lat="44.7007222" lon="8.8523248"><ele>269.0</ele><time>2026-04-18T11:18:54.019Z</time></trkpt><trkpt lat="44.701951" lon="8.8535129"><ele>269.0</ele><time>2026-04-18T11:19:01.019Z</time></trkpt><trkpt lat="44.702227" lon="8.8536425"><ele>269.0</ele><time>2026-04-18T11:19:02.018Z</time></trkpt><trkpt lat="44.7023404" lon="8.8538505"><ele>266.5</ele><time>2026-04-18T11:19:03.019Z</time></trkpt><trkpt lat="44.7025074" lon="8.8543294"><ele>264.0</ele><time>2026-04-18T11:19:05.018Z</time></trkpt><trkpt lat="44.7025858" lon="8.8545914"><ele>264.0</ele><time>2026-04-18T11:19:06.019Z</time></trkpt><trkpt lat="44.7026624" lon="8.8548544"><ele>264.0</ele><time>2026-04-18T11:19:07.018Z</time></trkpt><trkpt lat="44.7027333" lon="8.8551005"><ele>264.0</ele><time>2026-04-18T11:19:08.019Z</time></trkpt><trkpt lat="44.7027996" lon="8.8553184"><ele>263.75</ele><time>2026-04-18T11:19:09.019Z</time></trkpt><trkpt lat="44.7028692" lon="8.8555009"><ele>263.5</ele><time>2026-04-18T11:19:10.018Z</time></trkpt><trkpt lat="44.7029592" lon="8.8556506"><ele>263.25</ele><time>2026-04-18T11:19:11.016Z</time></trkpt><trkpt lat="44.7030719" lon="8.8557678"><ele>263.0</ele><time>2026-04-18T11:19:12.019Z</time></trkpt><trkpt lat="44.7032119" lon="8.8558538"><ele>263.0</ele><time>2026-04-18T11:19:13.018Z</time></trkpt><trkpt lat="44.7033688" lon="8.8559216"><ele>263.0</ele><time>2026-04-18T11:19:14.019Z</time></trkpt><trkpt lat="44.7035432" lon="8.8559855"><ele>263.0</ele><time>2026-04-18T11:19:15.019Z</time></trkpt><trkpt lat="44.7037244" lon="8.8560489"><ele>258.33333333333337</ele><time>2026-04-18T11:19:16.016Z</time></trkpt><trkpt lat="44.7039139" lon="8.8561084"><ele>253.66666666666669</ele><time>2026-04-18T11:19:17.019Z</time></trkpt><trkpt lat="44.7041058" lon="8.8561604"><ele>249.0</ele><time>2026-04-18T11:19:18.018Z</time></trkpt><trkpt lat="44.7042948" lon="8.8562153"><ele>250.33333333333331</ele><time>2026-04-18T11:19:19.019Z</time></trkpt><trkpt lat="44.7044807" lon="8.8562848"><ele>251.66666666666666</ele><time>2026-04-18T11:19:20.019Z</time></trkpt><trkpt lat="44.704672" lon="8.8563806"><ele>253.0</ele><time>2026-04-18T11:19:21.018Z</time></trkpt><trkpt lat="44.7048608" lon="8.8565047"><ele>253.0</ele><time>2026-04-18T11:19:22.018Z</time></trkpt><trkpt lat="44.7050536" lon="8.8566574"><ele>253.0</ele><time>2026-04-18T11:19:23.019Z</time></trkpt><trkpt lat="44.7052444" lon="8.8568291"><ele>253.0</ele><time>2026-04-18T11:19:24.019Z</time></trkpt><trkpt lat="44.7054357" lon="8.8570089"><ele>250.0</ele><time>2026-04-18T11:19:25.014Z</time></trkpt><trkpt lat="44.7056377" lon="8.8571726"><ele>247.0</ele><time>2026-04-18T11:19:26.018Z</time></trkpt><trkpt lat="44.7058448" lon="8.8573221"><ele>247.0</ele><time>2026-04-18T11:19:27.018Z</time></trkpt><trkpt lat="44.7060473" lon="8.8574633"><ele>247.0</ele><time>2026-04-18T11:19:28.019Z</time></trkpt><trkpt lat="44.7062472" lon="8.8575953"><ele>247.0</ele><time>2026-04-18T11:19:29.019Z</time></trkpt><trkpt lat="44.7064495" lon="8.8577291"><ele>243.5</ele><time>2026-04-18T11:19:30.019Z</time></trkpt><trkpt lat="44.7066532" lon="8.8578641"><ele>240.0</ele><time>2026-04-18T11:19:31.019Z</time></trkpt><trkpt lat="44.706858" lon="8.8579997"><ele>245.5</ele><time>2026-04-18T11:19:32.018Z</time></trkpt><trkpt lat="44.7070633" lon="8.8581348"><ele>251.0</ele><time>2026-04-18T11:19:33.018Z</time></trkpt><trkpt lat="44.7072666" lon="8.8582683"><ele>251.0</ele><time>2026-04-18T11:19:34.019Z</time></trkpt><trkpt lat="44.7074633" lon="8.8583965"><ele>251.0</ele><time>2026-04-18T11:19:35.018Z</time></trkpt><trkpt lat="44.7076521" lon="8.8585172"><ele>251.0</ele><time>2026-04-18T11:19:36.019Z</time></trkpt><trkpt lat="44.7078365" lon="8.8586325"><ele>246.66666666666669</ele><time>2026-04-18T11:19:37.018Z</time></trkpt><trkpt lat="44.7080172" lon="8.8587413"><ele>242.33333333333331</ele><time>2026-04-18T11:19:38.015Z</time></trkpt><trkpt lat="44.7081936" lon="8.8588411"><ele>238.0</ele><time>2026-04-18T11:19:39.019Z</time></trkpt><trkpt lat="44.7083666" lon="8.8589379"><ele>238.0</ele><time>2026-04-18T11:19:40.019Z</time></trkpt><trkpt lat="44.7085343" lon="8.8590333"><ele>238.0</ele><time>2026-04-18T11:19:41.014Z</time></trkpt><trkpt lat="44.7087016" lon="8.8591255"><ele>238.0</ele><time>2026-04-18T11:19:42.016Z</time></trkpt><trkpt lat="44.7088669" lon="8.8592177"><ele>233.66666666666666</ele><time>2026-04-18T11:19:43.018Z</time></trkpt><trkpt lat="44.7090335" lon="8.85931"><ele>229.33333333333331</ele><time>2026-04-18T11:19:44.019Z</time></trkpt><trkpt lat="44.7092034" lon="8.859403"><ele>225.0</ele><time>2026-04-18T11:19:45.019Z</time></trkpt><trkpt lat="44.7093739" lon="8.8595009"><ele>227.0</ele><time>2026-04-18T11:19:46.019Z</time></trkpt><trkpt lat="44.7095428" lon="8.859596"><ele>229.0</ele><time>2026-04-18T11:19:47.018Z</time></trkpt><trkpt lat="44.709707" lon="8.8596866"><ele>231.0</ele><time>2026-04-18T11:19:48.019Z</time></trkpt><trkpt lat="44.7098668" lon="8.8597805"><ele>231.0</ele><time>2026-04-18T11:19:49.018Z</time></trkpt><trkpt lat="44.7100168" lon="8.859876"><ele>231.0</ele><time>2026-04-18T11:19:50.018Z</time></trkpt><trkpt lat="44.7101546" lon="8.8599734"><ele>231.0</ele><time>2026-04-18T11:19:51.018Z</time></trkpt><trkpt lat="44.7102819" lon="8.860072"><ele>229.0</ele><time>2026-04-18T11:19:52.018Z</time></trkpt><trkpt lat="44.710399" lon="8.8601649"><ele>227.0</ele><time>2026-04-18T11:19:53.018Z</time></trkpt><trkpt lat="44.7105028" lon="8.8602477"><ele>225.0</ele><time>2026-04-18T11:19:54.019Z</time></trkpt><trkpt lat="44.7106007" lon="8.8603208"><ele>223.0</ele><time>2026-04-18T11:19:55.018Z</time></trkpt><trkpt lat="44.7106826" lon="8.8603793"><ele>223.0</ele><time>2026-04-18T11:19:56.018Z</time></trkpt><trkpt lat="44.7107487" lon="8.8604226"><ele>223.0</ele><time>2026-04-18T11:19:57.018Z</time></trkpt><trkpt lat="44.7108589" lon="8.8604876"><ele>223.0</ele><time>2026-04-18T11:19:59.018Z</time></trkpt><trkpt lat="44.7109751" lon="8.860537"><ele>223.0</ele><time>2026-04-18T11:20:01.018Z</time></trkpt><trkpt lat="44.7110669" lon="8.8606007"><ele>223.0</ele><time>2026-04-18T11:20:03.019Z</time></trkpt><trkpt lat="44.7110826" lon="8.8607146"><ele>223.0</ele><time>2026-04-18T11:20:05.017Z</time></trkpt><trkpt lat="44.7110114" lon="8.86081"><ele>223.0</ele><time>2026-04-18T11:20:07.018Z</time></trkpt><trkpt lat="44.7109454" lon="8.8608433"><ele>223.0</ele><time>2026-04-18T11:20:08.019Z</time></trkpt><trkpt lat="44.7108592" lon="8.8608728"><ele>223.0</ele><time>2026-04-18T11:20:09.013Z</time></trkpt><trkpt lat="44.7107555" lon="8.8609088"><ele>223.0</ele><time>2026-04-18T11:20:10.019Z</time></trkpt><trkpt lat="44.7106397" lon="8.8609506"><ele>222.25</ele><time>2026-04-18T11:20:11.018Z</time></trkpt><trkpt lat="44.7105093" lon="8.860998"><ele>221.5</ele><time>2026-04-18T11:20:12.019Z</time></trkpt><trkpt lat="44.7103712" lon="8.8610484"><ele>220.75</ele><time>2026-04-18T11:20:13.018Z</time></trkpt><trkpt lat="44.7102256" lon="8.8611063"><ele>220.0</ele><time>2026-04-18T11:20:14.018Z</time></trkpt><trkpt lat="44.7100772" lon="8.8611643"><ele>220.0</ele><time>2026-04-18T11:20:15.019Z</time></trkpt><trkpt lat="44.7099285" lon="8.8612222"><ele>220.0</ele><time>2026-04-18T11:20:16.013Z</time></trkpt><trkpt lat="44.7097805" lon="8.861283"><ele>220.0</ele><time>2026-04-18T11:20:17.019Z</time></trkpt><trkpt lat="44.709634" lon="8.8613441"><ele>220.0</ele><time>2026-04-18T11:20:18.019Z</time></trkpt><trkpt lat="44.7094918" lon="8.861399"><ele>220.0</ele><time>2026-04-18T11:20:19.016Z</time></trkpt><trkpt lat="44.7093516" lon="8.8614545"><ele>220.0</ele><time>2026-04-18T11:20:20.015Z</time></trkpt><trkpt lat="44.7092122" lon="8.8615101"><ele>220.0</ele><time>2026-04-18T11:20:21.018Z</time></trkpt><trkpt lat="44.7090737" lon="8.8615609"><ele>220.25</ele><time>2026-04-18T11:20:22.013Z</time></trkpt><trkpt lat="44.7089454" lon="8.8616165"><ele>220.5</ele><time>2026-04-18T11:20:23.018Z</time></trkpt><trkpt lat="44.7088262" lon="8.8616714"><ele>220.75</ele><time>2026-04-18T11:20:24.019Z</time></trkpt><trkpt lat="44.7087172" lon="8.8617184"><ele>221.0</ele><time>2026-04-18T11:20:25.019Z</time></trkpt><trkpt lat="44.7086251" lon="8.8617501"><ele>221.16666666666669</ele><time>2026-04-18T11:20:26.019Z</time></trkpt><trkpt lat="44.7085387" lon="8.8617556"><ele>221.33333333333334</ele><time>2026-04-18T11:20:27.019Z</time></trkpt><trkpt lat="44.7084603" lon="8.8617342"><ele>221.5</ele><time>2026-04-18T11:20:28.018Z</time></trkpt><trkpt lat="44.7083904" lon="8.8616882"><ele>221.66666666666669</ele><time>2026-04-18T11:20:29.019Z</time></trkpt><trkpt lat="44.7083265" lon="8.8616459"><ele>221.83333333333334</ele><time>2026-04-18T11:20:30.018Z</time></trkpt><trkpt lat="44.7082551" lon="8.8616393"><ele>222.0</ele><time>2026-04-18T11:20:31.019Z</time></trkpt><trkpt lat="44.7081872" lon="8.8616735"><ele>222.0</ele><time>2026-04-18T11:20:32.019Z</time></trkpt><trkpt lat="44.7081385" lon="8.8617449"><ele>222.0</ele><time>2026-04-18T11:20:33.018Z</time></trkpt><trkpt lat="44.7081198" lon="8.8618419"><ele>222.0</ele><time>2026-04-18T11:20:34.018Z</time></trkpt><trkpt lat="44.7081232" lon="8.8619553"><ele>222.0</ele><time>2026-04-18T11:20:35.014Z</time></trkpt><trkpt lat="44.7081217" lon="8.8620838"><ele>222.0</ele><time>2026-04-18T11:20:36.019Z</time></trkpt><trkpt lat="44.7080845" lon="8.8621977"><ele>222.0</ele><time>2026-04-18T11:20:37.018Z</time></trkpt><trkpt lat="44.7080176" lon="8.8623033"><ele>221.75</ele><time>2026-04-18T11:20:38.019Z</time></trkpt><trkpt lat="44.7079222" lon="8.8624134"><ele>221.5</ele><time>2026-04-18T11:20:39.019Z</time></trkpt><trkpt lat="44.7078046" lon="8.8625314"><ele>221.25</ele><time>2026-04-18T11:20:40.018Z</time></trkpt><trkpt lat="44.7076793" lon="8.8626598"><ele>221.0</ele><time>2026-04-18T11:20:41.016Z</time></trkpt><trkpt lat="44.7075452" lon="8.8627981"><ele>221.0</ele><time>2026-04-18T11:20:42.014Z</time></trkpt><trkpt lat="44.707406" lon="8.8629408"><ele>221.0</ele><time>2026-04-18T11:20:43.018Z</time></trkpt><trkpt lat="44.7072651" lon="8.8630887"><ele>221.0</ele><time>2026-04-18T11:20:44.019Z</time></trkpt><trkpt lat="44.7071199" lon="8.8632411"><ele>221.0</ele><time>2026-04-18T11:20:45.017Z</time></trkpt><trkpt lat="44.7069717" lon="8.8633977"><ele>221.0</ele><time>2026-04-18T11:20:46.019Z</time></trkpt><trkpt lat="44.7068186" lon="8.8635562"><ele>221.0</ele><time>2026-04-18T11:20:47.018Z</time></trkpt><trkpt lat="44.7066678" lon="8.863711"><ele>221.66666666666669</ele><time>2026-04-18T11:20:48.004Z</time></trkpt><trkpt lat="44.7065144" lon="8.8638699"><ele>222.33333333333331</ele><time>2026-04-18T11:20:49.018Z</time></trkpt><trkpt lat="44.7063598" lon="8.8640309"><ele>223.0</ele><time>2026-04-18T11:20:50.018Z</time></trkpt><trkpt lat="44.7062011" lon="8.8641907"><ele>223.66666666666666</ele><time>2026-04-18T11:20:51.019Z</time></trkpt><trkpt lat="44.7060401" lon="8.8643566"><ele>224.33333333333331</ele><time>2026-04-18T11:20:52.019Z</time></trkpt><trkpt lat="44.7058776" lon="8.864527"><ele>225.0</ele><time>2026-04-18T11:20:53.019Z</time></trkpt><trkpt lat="44.7057145" lon="8.8646942"><ele>225.0</ele><time>2026-04-18T11:20:54.019Z</time></trkpt><trkpt lat="44.705554" lon="8.8648578"><ele>225.0</ele><time>2026-04-18T11:20:55.019Z</time></trkpt><trkpt lat="44.7053955" lon="8.8650177"><ele>225.0</ele><time>2026-04-18T11:20:56.018Z</time></trkpt><trkpt lat="44.7052434" lon="8.8651717"><ele>226.0</ele><time>2026-04-18T11:20:57.019Z</time></trkpt><trkpt lat="44.7051008" lon="8.8653152"><ele>227.0</ele><time>2026-04-18T11:20:58.019Z</time></trkpt><trkpt lat="44.7049691" lon="8.8654495"><ele>228.0</ele><time>2026-04-18T11:20:59.013Z</time></trkpt><trkpt lat="44.7048494" lon="8.8655747"><ele>228.0</ele><time>2026-04-18T11:21:00.018Z</time></trkpt><trkpt lat="44.7047376" lon="8.8656909"><ele>228.0</ele><time>2026-04-18T11:21:01.018Z</time></trkpt><trkpt lat="44.7046306" lon="8.8658033"><ele>228.0</ele><time>2026-04-18T11:21:02.019Z</time></trkpt><trkpt lat="44.7045224" lon="8.8659148"><ele>228.0</ele><time>2026-04-18T11:21:03.019Z</time></trkpt><trkpt lat="44.7044126" lon="8.8660273"><ele>228.0</ele><time>2026-04-18T11:21:04.019Z</time></trkpt><trkpt lat="44.7042982" lon="8.8661458"><ele>228.0</ele><time>2026-04-18T11:21:05.019Z</time></trkpt><trkpt lat="44.7041794" lon="8.8662701"><ele>228.0</ele><time>2026-04-18T11:21:06.018Z</time></trkpt><trkpt lat="44.7040574" lon="8.8663962"><ele>228.0</ele><time>2026-04-18T11:21:07.019Z</time></trkpt><trkpt lat="44.703932" lon="8.8665275"><ele>228.0</ele><time>2026-04-18T11:21:08.019Z</time></trkpt><trkpt lat="44.703803" lon="8.866661"><ele>228.0</ele><time>2026-04-18T11:21:09.009Z</time></trkpt><trkpt lat="44.7036685" lon="8.8667988"><ele>228.0</ele><time>2026-04-18T11:21:10.018Z</time></trkpt><trkpt lat="44.7035316" lon="8.8669394"><ele>228.66666666666669</ele><time>2026-04-18T11:21:11.014Z</time></trkpt><trkpt lat="44.7033931" lon="8.8670804"><ele>229.33333333333334</ele><time>2026-04-18T11:21:12.019Z</time></trkpt><trkpt lat="44.7032568" lon="8.8672223"><ele>230.0</ele><time>2026-04-18T11:21:13.017Z</time></trkpt><trkpt lat="44.7031206" lon="8.8673647"><ele>230.0</ele><time>2026-04-18T11:21:14.018Z</time></trkpt><trkpt lat="44.7029783" lon="8.8675103"><ele>230.0</ele><time>2026-04-18T11:21:15.019Z</time></trkpt><trkpt lat="44.7028354" lon="8.8676611"><ele>230.0</ele><time>2026-04-18T11:21:16.018Z</time></trkpt><trkpt lat="44.7026983" lon="8.8678062"><ele>229.33333333333334</ele><time>2026-04-18T11:21:17.019Z</time></trkpt><trkpt lat="44.7025617" lon="8.8679489"><ele>228.66666666666669</ele><time>2026-04-18T11:21:18.018Z</time></trkpt><trkpt lat="44.7024236" lon="8.8680891"><ele>228.0</ele><time>2026-04-18T11:21:19.019Z</time></trkpt><trkpt lat="44.7022863" lon="8.8682299"><ele>228.0</ele><time>2026-04-18T11:21:20.019Z</time></trkpt><trkpt lat="44.7021461" lon="8.868373"><ele>228.0</ele><time>2026-04-18T11:21:21.019Z</time></trkpt><trkpt lat="44.7020079" lon="8.8685181"><ele>228.0</ele><time>2026-04-18T11:21:22.019Z</time></trkpt><trkpt lat="44.701872" lon="8.8686578"><ele>228.33333333333331</ele><time>2026-04-18T11:21:23.018Z</time></trkpt><trkpt lat="44.7017378" lon="8.8687982"><ele>228.66666666666666</ele><time>2026-04-18T11:21:24.019Z</time></trkpt><trkpt lat="44.7016031" lon="8.8689381"><ele>229.0</ele><time>2026-04-18T11:21:25.018Z</time></trkpt><trkpt lat="44.7014668" lon="8.8690759"><ele>229.0</ele><time>2026-04-18T11:21:26.019Z</time></trkpt><trkpt lat="44.7013327" lon="8.8692168"><ele>229.0</ele><time>2026-04-18T11:21:27.018Z</time></trkpt><trkpt lat="44.7011967" lon="8.8693569"><ele>229.0</ele><time>2026-04-18T11:21:28.018Z</time></trkpt><trkpt lat="44.7010607" lon="8.8694985"><ele>229.0</ele><time>2026-04-18T11:21:29.019Z</time></trkpt><trkpt lat="44.7009212" lon="8.8696435"><ele>229.0</ele><time>2026-04-18T11:21:30.018Z</time></trkpt><trkpt lat="44.7007794" lon="8.8697885"><ele>229.0</ele><time>2026-04-18T11:21:31.019Z</time></trkpt><trkpt lat="44.7006379" lon="8.8699332"><ele>229.0</ele><time>2026-04-18T11:21:32.019Z</time></trkpt><trkpt lat="44.7004961" lon="8.870081"><ele>229.0</ele><time>2026-04-18T11:21:33.018Z</time></trkpt><trkpt lat="44.7003536" lon="8.8702279"><ele>229.0</ele><time>2026-04-18T11:21:34.019Z</time></trkpt><trkpt lat="44.7002161" lon="8.8703689"><ele>230.0</ele><time>2026-04-18T11:21:35.018Z</time></trkpt><trkpt lat="44.7000857" lon="8.8705041"><ele>231.0</ele><time>2026-04-18T11:21:36.018Z</time></trkpt><trkpt lat="44.6999629" lon="8.8706316"><ele>232.0</ele><time>2026-04-18T11:21:37.018Z</time></trkpt><trkpt lat="44.6998507" lon="8.8707485"><ele>232.0</ele><time>2026-04-18T11:21:38.019Z</time></trkpt><trkpt lat="44.6997439" lon="8.8708586"><ele>232.0</ele><time>2026-04-18T11:21:39.019Z</time></trkpt><trkpt lat="44.6996506" lon="8.8709543"><ele>232.0</ele><time>2026-04-18T11:21:40.019Z</time></trkpt><trkpt lat="44.6995743" lon="8.8710385"><ele>232.0</ele><time>2026-04-18T11:21:41.018Z</time></trkpt><trkpt lat="44.6995141" lon="8.871103"><ele>232.0</ele><time>2026-04-18T11:21:42.018Z</time></trkpt><trkpt lat="44.6994583" lon="8.8711563"><ele>232.39999999999998</ele><time>2026-04-18T11:21:43.019Z</time></trkpt><trkpt lat="44.6993942" lon="8.8711934"><ele>232.79999999999998</ele><time>2026-04-18T11:21:44.019Z</time></trkpt><trkpt lat="44.6993194" lon="8.8712265"><ele>233.2</ele><time>2026-04-18T11:21:45.018Z</time></trkpt><trkpt lat="44.6992476" lon="8.8712917"><ele>233.6</ele><time>2026-04-18T11:21:46.019Z</time></trkpt><trkpt lat="44.6991785" lon="8.8713977"><ele>234.0</ele><time>2026-04-18T11:21:47.019Z</time></trkpt><trkpt lat="44.6990892" lon="8.8715219"><ele>234.0</ele><time>2026-04-18T11:21:48.018Z</time></trkpt><trkpt lat="44.6989676" lon="8.8716485"><ele>234.0</ele><time>2026-04-18T11:21:49.018Z</time></trkpt><trkpt lat="44.6988261" lon="8.8717876"><ele>234.0</ele><time>2026-04-18T11:21:50.018Z</time></trkpt><trkpt lat="44.698676" lon="8.8719529"><ele>234.66666666666669</ele><time>2026-04-18T11:21:51.018Z</time></trkpt><trkpt lat="44.6985313" lon="8.8721288"><ele>235.33333333333334</ele><time>2026-04-18T11:21:52.018Z</time></trkpt><trkpt lat="44.698385" lon="8.8723127"><ele>236.0</ele><time>2026-04-18T11:21:53.019Z</time></trkpt><trkpt lat="44.6982324" lon="8.8725094"><ele>236.0</ele><time>2026-04-18T11:21:54.019Z</time></trkpt><trkpt lat="44.6980735" lon="8.8727136"><ele>236.0</ele><time>2026-04-18T11:21:55.019Z</time></trkpt><trkpt lat="44.697912" lon="8.8729237"><ele>236.0</ele><time>2026-04-18T11:21:56.018Z</time></trkpt><trkpt lat="44.6977457" lon="8.8731366"><ele>236.0</ele><time>2026-04-18T11:21:57.019Z</time></trkpt><trkpt lat="44.6975752" lon="8.8733533"><ele>236.0</ele><time>2026-04-18T11:21:58.019Z</time></trkpt><trkpt lat="44.6974042" lon="8.873573"><ele>236.0</ele><time>2026-04-18T11:21:59.019Z</time></trkpt><trkpt lat="44.6972324" lon="8.8737947"><ele>236.0</ele><time>2026-04-18T11:22:00.019Z</time></trkpt><trkpt lat="44.6970592" lon="8.8740143"><ele>236.0</ele><time>2026-04-18T11:22:01.018Z</time></trkpt><trkpt lat="44.6968858" lon="8.8742398"><ele>236.0</ele><time>2026-04-18T11:22:02.019Z</time></trkpt><trkpt lat="44.6967124" lon="8.8744656"><ele>236.0</ele><time>2026-04-18T11:22:03.019Z</time></trkpt><trkpt lat="44.696537" lon="8.8746925"><ele>236.0</ele><time>2026-04-18T11:22:04.019Z</time></trkpt><trkpt lat="44.6963623" lon="8.874919"><ele>236.0</ele><time>2026-04-18T11:22:05.019Z</time></trkpt><trkpt lat="44.6961881" lon="8.875145"><ele>236.0</ele><time>2026-04-18T11:22:06.018Z</time></trkpt><trkpt lat="44.6960165" lon="8.8753664"><ele>236.5</ele><time>2026-04-18T11:22:07.019Z</time></trkpt><trkpt lat="44.6958446" lon="8.8755878"><ele>237.0</ele><time>2026-04-18T11:22:08.019Z</time></trkpt><trkpt lat="44.6956727" lon="8.8758054"><ele>236.5</ele><time>2026-04-18T11:22:09.019Z</time></trkpt><trkpt lat="44.6955047" lon="8.8760238"><ele>236.0</ele><time>2026-04-18T11:22:10.019Z</time></trkpt><trkpt lat="44.6953416" lon="8.8762401"><ele>236.33333333333334</ele><time>2026-04-18T11:22:11.018Z</time></trkpt><trkpt lat="44.6951828" lon="8.8764474"><ele>236.66666666666669</ele><time>2026-04-18T11:22:12.019Z</time></trkpt><trkpt lat="44.6950319" lon="8.8766437"><ele>237.0</ele><time>2026-04-18T11:22:13.018Z</time></trkpt><trkpt lat="44.6948893" lon="8.876827"><ele>237.66666666666669</ele><time>2026-04-18T11:22:14.017Z</time></trkpt><trkpt lat="44.6947541" lon="8.8770016"><ele>238.33333333333334</ele><time>2026-04-18T11:22:15.011Z</time></trkpt><trkpt lat="44.6946223" lon="8.8771693"><ele>239.0</ele><time>2026-04-18T11:22:16.017Z</time></trkpt><trkpt lat="44.6944953" lon="8.8773332"><ele>239.0</ele><time>2026-04-18T11:22:17.015Z</time></trkpt><trkpt lat="44.6943726" lon="8.8774905"><ele>239.0</ele><time>2026-04-18T11:22:18.008Z</time></trkpt><trkpt lat="44.6942467" lon="8.8776517"><ele>239.0</ele><time>2026-04-18T11:22:19.019Z</time></trkpt><trkpt lat="44.6941166" lon="8.8778202"><ele>239.0</ele><time>2026-04-18T11:22:20.011Z</time></trkpt><trkpt lat="44.6939813" lon="8.8779958"><ele>239.0</ele><time>2026-04-18T11:22:21.008Z</time></trkpt><trkpt lat="44.6938418" lon="8.8781761"><ele>239.0</ele><time>2026-04-18T11:22:22.007Z</time></trkpt><trkpt lat="44.6937042" lon="8.8783615"><ele>239.66666666666669</ele><time>2026-04-18T11:22:23.006Z</time></trkpt><trkpt lat="44.6935622" lon="8.8785442"><ele>240.33333333333331</ele><time>2026-04-18T11:22:24.012Z</time></trkpt><trkpt lat="44.6934229" lon="8.878723"><ele>241.0</ele><time>2026-04-18T11:22:25.019Z</time></trkpt><trkpt lat="44.6932885" lon="8.8788985"><ele>241.0</ele><time>2026-04-18T11:22:26.005Z</time></trkpt><trkpt lat="44.6931585" lon="8.8790633"><ele>241.0</ele><time>2026-04-18T11:22:27.012Z</time></trkpt><trkpt lat="44.6930355" lon="8.8792227"><ele>241.0</ele><time>2026-04-18T11:22:28.014Z</time></trkpt><trkpt lat="44.6929202" lon="8.8793751"><ele>240.75</ele><time>2026-04-18T11:22:29.009Z</time></trkpt><trkpt lat="44.6928141" lon="8.8795134"><ele>240.5</ele><time>2026-04-18T11:22:30.009Z</time></trkpt><trkpt lat="44.6927219" lon="8.879636"><ele>240.25</ele><time>2026-04-18T11:22:31.01Z</time></trkpt><trkpt lat="44.692653" lon="8.8797505"><ele>240.0</ele><time>2026-04-18T11:22:32.007Z</time></trkpt><trkpt lat="44.6926138" lon="8.8798605"><ele>240.0</ele><time>2026-04-18T11:22:33.014Z</time></trkpt><trkpt lat="44.692608" lon="8.8799605"><ele>240.0</ele><time>2026-04-18T11:22:34.019Z</time></trkpt><trkpt lat="44.6926314" lon="8.8800494"><ele>240.0</ele><time>2026-04-18T11:22:35.012Z</time></trkpt><trkpt lat="44.6926755" lon="8.8801281"><ele>240.0</ele><time>2026-04-18T11:22:36.019Z</time></trkpt><trkpt lat="44.6927351" lon="8.8802072"><ele>240.0</ele><time>2026-04-18T11:22:37.019Z</time></trkpt><trkpt lat="44.6927954" lon="8.8802968"><ele>240.0</ele><time>2026-04-18T11:22:38.017Z</time></trkpt><trkpt lat="44.6928468" lon="8.8803852"><ele>239.71428571428572</ele><time>2026-04-18T11:22:39.001Z</time></trkpt><trkpt lat="44.6928855" lon="8.880482"><ele>239.42857142857142</ele><time>2026-04-18T11:22:40.014Z</time></trkpt><trkpt lat="44.6929016" lon="8.8805839"><ele>239.14285714285714</ele><time>2026-04-18T11:22:41.016Z</time></trkpt><trkpt lat="44.6929032" lon="8.8806862"><ele>238.85714285714286</ele><time>2026-04-18T11:22:42.016Z</time></trkpt><trkpt lat="44.69291" lon="8.8807823"><ele>238.57142857142856</ele><time>2026-04-18T11:22:43.003Z</time></trkpt><trkpt lat="44.6929342" lon="8.8808686"><ele>238.28571428571428</ele><time>2026-04-18T11:22:44.017Z</time></trkpt><trkpt lat="44.692982" lon="8.8809312"><ele>238.0</ele><time>2026-04-18T11:22:45.012Z</time></trkpt><trkpt lat="44.6930439" lon="8.8809691"><ele>237.99999999999997</ele><time>2026-04-18T11:22:46.015Z</time></trkpt><trkpt lat="44.693116" lon="8.8809644"><ele>238.0</ele><time>2026-04-18T11:22:47.004Z</time></trkpt><trkpt lat="44.6931872" lon="8.8809229"><ele>238.0</ele><time>2026-04-18T11:22:48.019Z</time></trkpt><trkpt lat="44.6932632" lon="8.8808902"><ele>238.0</ele><time>2026-04-18T11:22:49.002Z</time></trkpt><trkpt lat="44.6933481" lon="8.880905"><ele>237.99999999999997</ele><time>2026-04-18T11:22:50.018Z</time></trkpt><trkpt lat="44.6934378" lon="8.8809476"><ele>238.0</ele><time>2026-04-18T11:22:51.007Z</time></trkpt><trkpt lat="44.6935288" lon="8.8810093"><ele>237.8</ele><time>2026-04-18T11:22:52.005Z</time></trkpt><trkpt lat="44.6936174" lon="8.8810882"><ele>237.60000000000002</ele><time>2026-04-18T11:22:53.009Z</time></trkpt><trkpt lat="44.6937005" lon="8.8811762"><ele>237.39999999999998</ele><time>2026-04-18T11:22:54.014Z</time></trkpt><trkpt lat="44.6937836" lon="8.8812666"><ele>237.2</ele><time>2026-04-18T11:22:55.005Z</time></trkpt><trkpt lat="44.6938675" lon="8.8813536"><ele>237.0</ele><time>2026-04-18T11:22:56.007Z</time></trkpt><trkpt lat="44.6939506" lon="8.8814397"><ele>237.0</ele><time>2026-04-18T11:22:57.006Z</time></trkpt><trkpt lat="44.694032" lon="8.8815257"><ele>237.0</ele><time>2026-04-18T11:22:58.013Z</time></trkpt><trkpt lat="44.6941109" lon="8.881611"><ele>237.0</ele><time>2026-04-18T11:22:59.019Z</time></trkpt><trkpt lat="44.6941906" lon="8.8816972"><ele>237.0</ele><time>2026-04-18T11:23:00.008Z</time></trkpt><trkpt lat="44.6942622" lon="8.8817867"><ele>237.0</ele><time>2026-04-18T11:23:01.01Z</time></trkpt><trkpt lat="44.6943372" lon="8.8818742"><ele>236.75</ele><time>2026-04-18T11:23:02.01Z</time></trkpt><trkpt lat="44.6944199" lon="8.8819654"><ele>236.5</ele><time>2026-04-18T11:23:03.016Z</time></trkpt><trkpt lat="44.6945011" lon="8.8820585"><ele>236.25</ele><time>2026-04-18T11:23:04.013Z</time></trkpt><trkpt lat="44.6945952" lon="8.8821568"><ele>236.0</ele><time>2026-04-18T11:23:05.009Z</time></trkpt><trkpt lat="44.6947265" lon="8.8822813"><ele>233.66666666666669</ele><time>2026-04-18T11:23:06.006Z</time></trkpt><trkpt lat="44.6948512" lon="8.8823842"><ele>231.33333333333331</ele><time>2026-04-18T11:23:07.002Z</time></trkpt><trkpt lat="44.694982" lon="8.882484"><ele>229.0</ele><time>2026-04-18T11:23:08.006Z</time></trkpt><trkpt lat="44.6951218" lon="8.8825843"><ele>227.0</ele><time>2026-04-18T11:23:09.019Z</time></trkpt><trkpt lat="44.695267" lon="8.8826782"><ele>225.0</ele><time>2026-04-18T11:23:10.008Z</time></trkpt><trkpt lat="44.695412" lon="8.882765"><ele>223.0</ele><time>2026-04-18T11:23:11.018Z</time></trkpt><trkpt lat="44.6955561" lon="8.8828484"><ele>223.0</ele><time>2026-04-18T11:23:12.014Z</time></trkpt><trkpt lat="44.6957063" lon="8.8829357"><ele>223.0</ele><time>2026-04-18T11:23:13.001Z</time></trkpt><trkpt lat="44.6958632" lon="8.8830261"><ele>223.0</ele><time>2026-04-18T11:23:14.015Z</time></trkpt><trkpt lat="44.6960252" lon="8.8831227"><ele>222.0</ele><time>2026-04-18T11:23:15.014Z</time></trkpt><trkpt lat="44.6961869" lon="8.883219"><ele>221.0</ele><time>2026-04-18T11:23:16.007Z</time></trkpt><trkpt lat="44.6963513" lon="8.8833187"><ele>220.0</ele><time>2026-04-18T11:23:17.005Z</time></trkpt><trkpt lat="44.6965168" lon="8.8834168"><ele>219.33333333333331</ele><time>2026-04-18T11:23:18.019Z</time></trkpt><trkpt lat="44.6966788" lon="8.8835107"><ele>218.66666666666669</ele><time>2026-04-18T11:23:19.005Z</time></trkpt><trkpt lat="44.6968392" lon="8.8836054"><ele>218.0</ele><time>2026-04-18T11:23:20.019Z</time></trkpt><trkpt lat="44.6969995" lon="8.8837027"><ele>217.0</ele><time>2026-04-18T11:23:21.008Z</time></trkpt><trkpt lat="44.6971636" lon="8.883802"><ele>216.0</ele><time>2026-04-18T11:23:22.018Z</time></trkpt><trkpt lat="44.6973346" lon="8.8839031"><ele>215.0</ele><time>2026-04-18T11:23:23.003Z</time></trkpt><trkpt lat="44.6975087" lon="8.884002"><ele>215.0</ele><time>2026-04-18T11:23:24.007Z</time></trkpt><trkpt lat="44.697682" lon="8.884102"><ele>215.0</ele><time>2026-04-18T11:23:25.008Z</time></trkpt><trkpt lat="44.6978532" lon="8.8841995"><ele>215.0</ele><time>2026-04-18T11:23:26.004Z</time></trkpt><trkpt lat="44.6980177" lon="8.8842959"><ele>215.33333333333334</ele><time>2026-04-18T11:23:27.018Z</time></trkpt><trkpt lat="44.6981798" lon="8.8843916"><ele>215.66666666666669</ele><time>2026-04-18T11:23:28.003Z</time></trkpt><trkpt lat="44.698344" lon="8.8844861"><ele>216.0</ele><time>2026-04-18T11:23:29.019Z</time></trkpt><trkpt lat="44.698508" lon="8.8845801"><ele>215.0</ele><time>2026-04-18T11:23:30.015Z</time></trkpt><trkpt lat="44.6986707" lon="8.8846715"><ele>214.0</ele><time>2026-04-18T11:23:31.019Z</time></trkpt><trkpt lat="44.6988326" lon="8.8847695"><ele>213.0</ele><time>2026-04-18T11:23:32.016Z</time></trkpt><trkpt lat="44.6989908" lon="8.884862"><ele>213.0</ele><time>2026-04-18T11:23:33.011Z</time></trkpt><trkpt lat="44.6991495" lon="8.8849533"><ele>213.0</ele><time>2026-04-18T11:23:34.009Z</time></trkpt><trkpt lat="44.6993093" lon="8.8850452"><ele>213.0</ele><time>2026-04-18T11:23:35.008Z</time></trkpt><trkpt lat="44.699471" lon="8.8851375"><ele>213.33333333333331</ele><time>2026-04-18T11:23:36.008Z</time></trkpt><trkpt lat="44.6996379" lon="8.8852337"><ele>213.66666666666666</ele><time>2026-04-18T11:23:37.009Z</time></trkpt><trkpt lat="44.69981" lon="8.8853329"><ele>214.0</ele><time>2026-04-18T11:23:38.009Z</time></trkpt><trkpt lat="44.6999831" lon="8.8854338"><ele>214.0</ele><time>2026-04-18T11:23:39.016Z</time></trkpt><trkpt lat="44.7001588" lon="8.8855363"><ele>214.0</ele><time>2026-04-18T11:23:40.009Z</time></trkpt><trkpt lat="44.7003348" lon="8.8856336"><ele>214.0</ele><time>2026-04-18T11:23:41.013Z</time></trkpt><trkpt lat="44.7005087" lon="8.8857291"><ele>214.0</ele><time>2026-04-18T11:23:42.012Z</time></trkpt><trkpt lat="44.7006804" lon="8.8858281"><ele>214.0</ele><time>2026-04-18T11:23:43.012Z</time></trkpt><trkpt lat="44.7008469" lon="8.8859261"><ele>214.0</ele><time>2026-04-18T11:23:44.017Z</time></trkpt><trkpt lat="44.7010071" lon="8.8860195"><ele>212.66666666666666</ele><time>2026-04-18T11:23:45.019Z</time></trkpt><trkpt lat="44.701165" lon="8.8861118"><ele>211.33333333333331</ele><time>2026-04-18T11:23:46.017Z</time></trkpt><trkpt lat="44.7013244" lon="8.886204"><ele>210.0</ele><time>2026-04-18T11:23:47.014Z</time></trkpt><trkpt lat="44.7014874" lon="8.8862996"><ele>210.0</ele><time>2026-04-18T11:23:48.004Z</time></trkpt><trkpt lat="44.701653" lon="8.8864011"><ele>210.0</ele><time>2026-04-18T11:23:49.017Z</time></trkpt><trkpt lat="44.7018177" lon="8.8865008"><ele>210.0</ele><time>2026-04-18T11:23:50.013Z</time></trkpt><trkpt lat="44.7019856" lon="8.886598"><ele>213.33333333333331</ele><time>2026-04-18T11:23:51.001Z</time></trkpt><trkpt lat="44.7021546" lon="8.8866957"><ele>216.66666666666666</ele><time>2026-04-18T11:23:52.008Z</time></trkpt><trkpt lat="44.7023258" lon="8.886792"><ele>220.0</ele><time>2026-04-18T11:23:53.004Z</time></trkpt><trkpt lat="44.7024984" lon="8.8868888"><ele>221.33333333333331</ele><time>2026-04-18T11:23:54.007Z</time></trkpt><trkpt lat="44.7026689" lon="8.8869875"><ele>222.66666666666669</ele><time>2026-04-18T11:23:55.009Z</time></trkpt><trkpt lat="44.7028429" lon="8.8870899"><ele>224.0</ele><time>2026-04-18T11:23:56.018Z</time></trkpt><trkpt lat="44.7029985" lon="8.8871937"><ele>227.66666666666669</ele><time>2026-04-18T11:23:57.019Z</time></trkpt><trkpt lat="44.7031543" lon="8.8873019"><ele>231.33333333333331</ele><time>2026-04-18T11:23:58.005Z</time></trkpt><trkpt lat="44.7032982" lon="8.8874026"><ele>235.0</ele><time>2026-04-18T11:23:59.01Z</time></trkpt><trkpt lat="44.7034338" lon="8.8875038"><ele>235.0</ele><time>2026-04-18T11:24:00.002Z</time></trkpt><trkpt lat="44.7035586" lon="8.8875962"><ele>235.0</ele><time>2026-04-18T11:24:01.003Z</time></trkpt><trkpt lat="44.7036759" lon="8.887689"><ele>235.0</ele><time>2026-04-18T11:24:02.004Z</time></trkpt><trkpt lat="44.7037909" lon="8.8877877"><ele>235.0</ele><time>2026-04-18T11:24:03.007Z</time></trkpt><trkpt lat="44.7039026" lon="8.887895"><ele>236.0</ele><time>2026-04-18T11:24:04.018Z</time></trkpt><trkpt lat="44.7040136" lon="8.8880129"><ele>237.0</ele><time>2026-04-18T11:24:05.013Z</time></trkpt><trkpt lat="44.7041238" lon="8.8881412"><ele>238.0</ele><time>2026-04-18T11:24:06.005Z</time></trkpt><trkpt lat="44.7042346" lon="8.8882772"><ele>239.0</ele><time>2026-04-18T11:24:07.007Z</time></trkpt><trkpt lat="44.7043453" lon="8.8884188"><ele>239.75</ele><time>2026-04-18T11:24:08.002Z</time></trkpt><trkpt lat="44.7044482" lon="8.8885644"><ele>240.5</ele><time>2026-04-18T11:24:09.007Z</time></trkpt><trkpt lat="44.7045426" lon="8.8887047"><ele>241.25</ele><time>2026-04-18T11:24:10.002Z</time></trkpt><trkpt lat="44.7046317" lon="8.888842"><ele>242.0</ele><time>2026-04-18T11:24:11.002Z</time></trkpt><trkpt lat="44.7047137" lon="8.8889772"><ele>242.0</ele><time>2026-04-18T11:24:12.01Z</time></trkpt><trkpt lat="44.7047861" lon="8.8891112"><ele>242.0</ele><time>2026-04-18T11:24:13.008Z</time></trkpt><trkpt lat="44.7048524" lon="8.8892445"><ele>242.0</ele><time>2026-04-18T11:24:14.003Z</time></trkpt><trkpt lat="44.7049161" lon="8.8893789"><ele>242.0</ele><time>2026-04-18T11:24:15.01Z</time></trkpt><trkpt lat="44.7049822" lon="8.8895195"><ele>242.0</ele><time>2026-04-18T11:24:16.014Z</time></trkpt><trkpt lat="44.70505" lon="8.8896665"><ele>242.0</ele><time>2026-04-18T11:24:17.011Z</time></trkpt><trkpt lat="44.7051243" lon="8.8898206"><ele>242.0</ele><time>2026-04-18T11:24:18.004Z</time></trkpt><trkpt lat="44.7052022" lon="8.8899853"><ele>242.0</ele><time>2026-04-18T11:24:19.018Z</time></trkpt><trkpt lat="44.7052815" lon="8.8901586"><ele>242.75</ele><time>2026-04-18T11:24:20.019Z</time></trkpt><trkpt lat="44.7053631" lon="8.890333"><ele>243.5</ele><time>2026-04-18T11:24:21.015Z</time></trkpt><trkpt lat="44.7054419" lon="8.8905043"><ele>244.25</ele><time>2026-04-18T11:24:22.007Z</time></trkpt><trkpt lat="44.7055222" lon="8.8906679"><ele>245.0</ele><time>2026-04-18T11:24:23.006Z</time></trkpt><trkpt lat="44.7055991" lon="8.8908246"><ele>244.8</ele><time>2026-04-18T11:24:24.015Z</time></trkpt><trkpt lat="44.7056712" lon="8.8909743"><ele>244.6</ele><time>2026-04-18T11:24:25.019Z</time></trkpt><trkpt lat="44.7057339" lon="8.8911086"><ele>244.39999999999998</ele><time>2026-04-18T11:24:26.017Z</time></trkpt><trkpt lat="44.7057873" lon="8.8912284"><ele>244.2</ele><time>2026-04-18T11:24:27.004Z</time></trkpt><trkpt lat="44.7058356" lon="8.891334"><ele>244.0</ele><time>2026-04-18T11:24:28.006Z</time></trkpt><trkpt lat="44.7058813" lon="8.8914294"><ele>243.99999999999997</ele><time>2026-04-18T11:24:29.019Z</time></trkpt><trkpt lat="44.7059234" lon="8.891519"><ele>244.0</ele><time>2026-04-18T11:24:30.019Z</time></trkpt><trkpt lat="44.7059615" lon="8.8916025"><ele>244.0</ele><time>2026-04-18T11:24:31.019Z</time></trkpt><trkpt lat="44.7059962" lon="8.8916797"><ele>244.0</ele><time>2026-04-18T11:24:32.017Z</time></trkpt><trkpt lat="44.7060574" lon="8.8918128"><ele>243.99999999999997</ele><time>2026-04-18T11:24:34.007Z</time></trkpt><trkpt lat="44.7061049" lon="8.8919127"><ele>244.0</ele><time>2026-04-18T11:24:36.019Z</time></trkpt><trkpt lat="44.7061449" lon="8.8920063"><ele>244.4285714285714</ele><time>2026-04-18T11:24:39.008Z</time></trkpt><trkpt lat="44.7061872" lon="8.8920752"><ele>244.85714285714283</ele><time>2026-04-18T11:25:05.018Z</time></trkpt><trkpt lat="44.7062113" lon="8.8921624"><ele>245.28571428571428</ele><time>2026-04-18T11:25:07.018Z</time></trkpt><trkpt lat="44.7062464" lon="8.8922438"><ele>245.7142857142857</ele><time>2026-04-18T11:25:10.018Z</time></trkpt><trkpt lat="44.7062808" lon="8.8923354"><ele>246.1428571428571</ele><time>2026-04-18T11:25:39.016Z</time></trkpt><trkpt lat="44.7062711" lon="8.8924387"><ele>246.57142857142858</ele><time>2026-04-18T11:25:41.01Z</time></trkpt><trkpt lat="44.706312" lon="8.8925334"><ele>247.0</ele><time>2026-04-18T11:25:44.018Z</time></trkpt><trkpt lat="44.7062948" lon="8.8924389"><ele>247.0</ele><time>2026-04-18T11:26:38.01Z</time></trkpt><trkpt lat="44.7062719" lon="8.8923464"><ele>247.0</ele><time>2026-04-18T11:26:44.019Z</time></trkpt><trkpt lat="44.7062766" lon="8.8922553"><ele>247.0</ele><time>2026-04-18T11:26:50.017Z</time></trkpt><trkpt lat="44.7063143" lon="8.8921795"><ele>247.0</ele><time>2026-04-18T11:26:55.013Z</time></trkpt><trkpt lat="44.7063616" lon="8.8921142"><ele>247.0</ele><time>2026-04-18T11:26:59.977Z</time></trkpt><trkpt lat="44.7063892" lon="8.8920242"><ele>247.0</ele><time>2026-04-18T11:27:04.963Z</time></trkpt><trkpt lat="44.7064442" lon="8.8919625"><ele>247.0</ele><time>2026-04-18T11:27:11.986Z</time></trkpt><trkpt lat="44.70651" lon="8.8919411"><ele>247.0</ele><time>2026-04-18T11:27:16.984Z</time></trkpt><trkpt lat="44.706438" lon="8.8919298"><ele>247.0</ele><time>2026-04-18T11:27:25.981Z</time></trkpt><trkpt lat="44.7063864" lon="8.8919946"><ele>247.0</ele><time>2026-04-18T11:27:30.983Z</time></trkpt><trkpt lat="44.7063581" lon="8.8920965"><ele>247.0</ele><time>2026-04-18T11:27:36.988Z</time></trkpt><trkpt lat="44.7063105" lon="8.8921714"><ele>247.0</ele><time>2026-04-18T11:27:42.984Z</time></trkpt><trkpt lat="44.7062608" lon="8.8922406"><ele>247.0</ele><time>2026-04-18T11:27:47.982Z</time></trkpt><trkpt lat="44.7062714" lon="8.8923409"><ele>247.0</ele><time>2026-04-18T11:27:52.984Z</time></trkpt><trkpt lat="44.7062909" lon="8.8924318"><ele>247.0</ele><time>2026-04-18T11:27:58.977Z</time></trkpt><trkpt lat="44.7063146" lon="8.8925328"><ele>247.0</ele><time>2026-04-18T11:28:05.979Z</time></trkpt><trkpt lat="44.7063518" lon="8.8926209"><ele>247.0</ele><time>2026-04-18T11:28:10.992Z</time></trkpt><trkpt lat="44.7064008" lon="8.8926874"><ele>247.0</ele><time>2026-04-18T11:28:45.987Z</time></trkpt><trkpt lat="44.7064387" lon="8.8925973"><ele>247.0</ele><time>2026-04-18T11:28:52.984Z</time></trkpt><trkpt lat="44.7062781" lon="8.892499"><ele>246.0</ele><time>2026-04-18T11:29:18.979Z</time></trkpt><trkpt lat="44.706172" lon="8.8927871"><ele>245.0</ele><time>2026-04-18T11:29:19.992Z</time></trkpt><trkpt lat="44.7060896" lon="8.8930785"><ele>247.0</ele><time>2026-04-18T11:29:20.978Z</time></trkpt><trkpt lat="44.7061256" lon="8.8922604"><ele>246.33333333333331</ele><time>2026-04-18T11:29:21.984Z</time></trkpt><trkpt lat="44.7060781" lon="8.8918893"><ele>245.66666666666669</ele><time>2026-04-18T11:29:22.979Z</time></trkpt><trkpt lat="44.7060043" lon="8.8916635"><ele>245.0</ele><time>2026-04-18T11:29:23.982Z</time></trkpt><trkpt lat="44.7059216" lon="8.8914683"><ele>245.0</ele><time>2026-04-18T11:29:24.982Z</time></trkpt><trkpt lat="44.7058371" lon="8.8912881"><ele>245.0</ele><time>2026-04-18T11:29:25.988Z</time></trkpt><trkpt lat="44.7057566" lon="8.8911129"><ele>245.0</ele><time>2026-04-18T11:29:26.984Z</time></trkpt><trkpt lat="44.7056751" lon="8.8909407"><ele>245.0</ele><time>2026-04-18T11:29:27.98Z</time></trkpt><trkpt lat="44.7055947" lon="8.8907678"><ele>245.0</ele><time>2026-04-18T11:29:28.983Z</time></trkpt><trkpt lat="44.7055123" lon="8.8905937"><ele>245.0</ele><time>2026-04-18T11:29:29.971Z</time></trkpt><trkpt lat="44.7054243" lon="8.8904159"><ele>245.0</ele><time>2026-04-18T11:29:30.989Z</time></trkpt><trkpt lat="44.7053411" lon="8.8902409"><ele>245.0</ele><time>2026-04-18T11:29:31.979Z</time></trkpt><trkpt lat="44.7052574" lon="8.8900647"><ele>245.0</ele><time>2026-04-18T11:29:32.986Z</time></trkpt><trkpt lat="44.7051703" lon="8.8898807"><ele>245.0</ele><time>2026-04-18T11:29:33.979Z</time></trkpt><trkpt lat="44.7050872" lon="8.8896982"><ele>244.0</ele><time>2026-04-18T11:29:34.983Z</time></trkpt><trkpt lat="44.7050042" lon="8.8895163"><ele>243.0</ele><time>2026-04-18T11:29:35.981Z</time></trkpt><trkpt lat="44.704916" lon="8.8893315"><ele>242.0</ele><time>2026-04-18T11:29:36.976Z</time></trkpt><trkpt lat="44.7048208" lon="8.8891504"><ele>242.0</ele><time>2026-04-18T11:29:37.974Z</time></trkpt><trkpt lat="44.7047206" lon="8.8889722"><ele>242.0</ele><time>2026-04-18T11:29:38.984Z</time></trkpt><trkpt lat="44.7046162" lon="8.8887958"><ele>242.0</ele><time>2026-04-18T11:29:39.983Z</time></trkpt><trkpt lat="44.7045119" lon="8.8886272"><ele>241.5</ele><time>2026-04-18T11:29:40.981Z</time></trkpt><trkpt lat="44.7044082" lon="8.8884756"><ele>241.0</ele><time>2026-04-18T11:29:41.989Z</time></trkpt><trkpt lat="44.7043071" lon="8.8883392"><ele>240.5</ele><time>2026-04-18T11:29:42.981Z</time></trkpt><trkpt lat="44.704207" lon="8.8882023"><ele>240.0</ele><time>2026-04-18T11:29:43.978Z</time></trkpt><trkpt lat="44.7041058" lon="8.8880808"><ele>239.75</ele><time>2026-04-18T11:29:44.987Z</time></trkpt><trkpt lat="44.7040032" lon="8.8879589"><ele>239.5</ele><time>2026-04-18T11:29:45.983Z</time></trkpt><trkpt lat="44.7039002" lon="8.887844"><ele>239.25</ele><time>2026-04-18T11:29:46.982Z</time></trkpt><trkpt lat="44.7037984" lon="8.8877337"><ele>239.0</ele><time>2026-04-18T11:29:47.992Z</time></trkpt><trkpt lat="44.703681" lon="8.887633"><ele>237.66666666666669</ele><time>2026-04-18T11:29:48.99Z</time></trkpt><trkpt lat="44.7035484" lon="8.8875282"><ele>236.33333333333331</ele><time>2026-04-18T11:29:49.98Z</time></trkpt><trkpt lat="44.7034047" lon="8.8874255"><ele>235.0</ele><time>2026-04-18T11:29:50.981Z</time></trkpt><trkpt lat="44.7032604" lon="8.887326"><ele>235.0</ele><time>2026-04-18T11:29:51.986Z</time></trkpt><trkpt lat="44.7031167" lon="8.887232"><ele>235.0</ele><time>2026-04-18T11:29:52.978Z</time></trkpt><trkpt lat="44.7029742" lon="8.8871418"><ele>235.0</ele><time>2026-04-18T11:29:53.984Z</time></trkpt><trkpt lat="44.7028263" lon="8.8870545"><ele>231.33333333333331</ele><time>2026-04-18T11:29:54.983Z</time></trkpt><trkpt lat="44.7026764" lon="8.8869683"><ele>227.66666666666669</ele><time>2026-04-18T11:29:55.992Z</time></trkpt><trkpt lat="44.702531" lon="8.8868921"><ele>224.0</ele><time>2026-04-18T11:29:56.981Z</time></trkpt><trkpt lat="44.7023739" lon="8.8867965"><ele>222.66666666666669</ele><time>2026-04-18T11:29:57.98Z</time></trkpt><trkpt lat="44.7022172" lon="8.8867039"><ele>221.33333333333331</ele><time>2026-04-18T11:29:58.977Z</time></trkpt><trkpt lat="44.7020633" lon="8.8866108"><ele>220.0</ele><time>2026-04-18T11:29:59.975Z</time></trkpt><trkpt lat="44.701905" lon="8.8865164"><ele>216.66666666666666</ele><time>2026-04-18T11:30:00.977Z</time></trkpt><trkpt lat="44.7017439" lon="8.8864203"><ele>213.33333333333331</ele><time>2026-04-18T11:30:01.98Z</time></trkpt><trkpt lat="44.7015829" lon="8.8863228"><ele>210.0</ele><time>2026-04-18T11:30:02.97Z</time></trkpt><trkpt lat="44.7014157" lon="8.886225"><ele>210.0</ele><time>2026-04-18T11:30:03.973Z</time></trkpt><trkpt lat="44.7012497" lon="8.8861303"><ele>210.0</ele><time>2026-04-18T11:30:04.981Z</time></trkpt><trkpt lat="44.7010862" lon="8.8860335"><ele>210.0</ele><time>2026-04-18T11:30:05.974Z</time></trkpt><trkpt lat="44.7009223" lon="8.8859354"><ele>211.33333333333331</ele><time>2026-04-18T11:30:06.984Z</time></trkpt><trkpt lat="44.7007547" lon="8.8858389"><ele>212.66666666666666</ele><time>2026-04-18T11:30:07.984Z</time></trkpt><trkpt lat="44.7005785" lon="8.88574"><ele>214.0</ele><time>2026-04-18T11:30:08.971Z</time></trkpt><trkpt lat="44.7004004" lon="8.885636"><ele>214.0</ele><time>2026-04-18T11:30:09.977Z</time></trkpt><trkpt lat="44.7002179" lon="8.8855292"><ele>214.0</ele><time>2026-04-18T11:30:10.98Z</time></trkpt><trkpt lat="44.7000377" lon="8.8854263"><ele>214.0</ele><time>2026-04-18T11:30:11.983Z</time></trkpt><trkpt lat="44.6998583" lon="8.8853201"><ele>214.0</ele><time>2026-04-18T11:30:12.98Z</time></trkpt><trkpt lat="44.6996807" lon="8.8852192"><ele>214.0</ele><time>2026-04-18T11:30:13.985Z</time></trkpt><trkpt lat="44.6995081" lon="8.8851184"><ele>214.0</ele><time>2026-04-18T11:30:14.976Z</time></trkpt><trkpt lat="44.6993398" lon="8.8850193"><ele>213.66666666666666</ele><time>2026-04-18T11:30:15.979Z</time></trkpt><trkpt lat="44.6991732" lon="8.8849238"><ele>213.33333333333331</ele><time>2026-04-18T11:30:16.982Z</time></trkpt><trkpt lat="44.6990036" lon="8.8848287"><ele>213.0</ele><time>2026-04-18T11:30:17.977Z</time></trkpt><trkpt lat="44.6988329" lon="8.8847293"><ele>213.0</ele><time>2026-04-18T11:30:18.982Z</time></trkpt><trkpt lat="44.698661" lon="8.8846305"><ele>213.0</ele><time>2026-04-18T11:30:19.984Z</time></trkpt><trkpt lat="44.6984925" lon="8.8845293"><ele>213.0</ele><time>2026-04-18T11:30:20.974Z</time></trkpt><trkpt lat="44.6983229" lon="8.8844288"><ele>214.0</ele><time>2026-04-18T11:30:21.983Z</time></trkpt><trkpt lat="44.6981529" lon="8.8843288"><ele>215.0</ele><time>2026-04-18T11:30:22.976Z</time></trkpt><trkpt lat="44.6979835" lon="8.8842279"><ele>216.0</ele><time>2026-04-18T11:30:23.985Z</time></trkpt><trkpt lat="44.697816" lon="8.8841269"><ele>215.66666666666669</ele><time>2026-04-18T11:30:24.987Z</time></trkpt><trkpt lat="44.6976562" lon="8.8840297"><ele>215.33333333333334</ele><time>2026-04-18T11:30:25.992Z</time></trkpt><trkpt lat="44.6975025" lon="8.8839395"><ele>215.0</ele><time>2026-04-18T11:30:26.982Z</time></trkpt><trkpt lat="44.6973451" lon="8.8838525"><ele>215.0</ele><time>2026-04-18T11:30:27.985Z</time></trkpt><trkpt lat="44.6971957" lon="8.8837618"><ele>215.0</ele><time>2026-04-18T11:30:28.987Z</time></trkpt><trkpt lat="44.6970471" lon="8.8836788"><ele>215.0</ele><time>2026-04-18T11:30:29.984Z</time></trkpt><trkpt lat="44.6969005" lon="8.8835944"><ele>216.0</ele><time>2026-04-18T11:30:30.983Z</time></trkpt><trkpt lat="44.6967561" lon="8.8835105"><ele>217.0</ele><time>2026-04-18T11:30:31.977Z</time></trkpt><trkpt lat="44.6966141" lon="8.8834272"><ele>218.0</ele><time>2026-04-18T11:30:32.972Z</time></trkpt><trkpt lat="44.6964695" lon="8.8833402"><ele>218.66666666666669</ele><time>2026-04-18T11:30:33.985Z</time></trkpt><trkpt lat="44.6963262" lon="8.8832549"><ele>219.33333333333331</ele><time>2026-04-18T11:30:34.983Z</time></trkpt><trkpt lat="44.6961803" lon="8.8831727"><ele>220.0</ele><time>2026-04-18T11:30:35.977Z</time></trkpt><trkpt lat="44.6960353" lon="8.8830866"><ele>221.0</ele><time>2026-04-18T11:30:36.99Z</time></trkpt><trkpt lat="44.6958927" lon="8.8829982"><ele>222.0</ele><time>2026-04-18T11:30:37.977Z</time></trkpt><trkpt lat="44.6957465" lon="8.88291"><ele>223.0</ele><time>2026-04-18T11:30:38.993Z</time></trkpt><trkpt lat="44.6956022" lon="8.8828196"><ele>223.0</ele><time>2026-04-18T11:30:39.974Z</time></trkpt><trkpt lat="44.6954602" lon="8.882733"><ele>223.0</ele><time>2026-04-18T11:30:40.979Z</time></trkpt><trkpt lat="44.6953262" lon="8.8826519"><ele>223.0</ele><time>2026-04-18T11:30:41.977Z</time></trkpt><trkpt lat="44.6951966" lon="8.8825682"><ele>223.0</ele><time>2026-04-18T11:30:42.978Z</time></trkpt><trkpt lat="44.695065" lon="8.8824832"><ele>224.5</ele><time>2026-04-18T11:30:43.974Z</time></trkpt><trkpt lat="44.6949412" lon="8.8823902"><ele>226.0</ele><time>2026-04-18T11:30:44.986Z</time></trkpt><trkpt lat="44.6948241" lon="8.8822998"><ele>227.5</ele><time>2026-04-18T11:30:45.981Z</time></trkpt><trkpt lat="44.6947157" lon="8.8822098"><ele>229.0</ele><time>2026-04-18T11:30:46.987Z</time></trkpt><trkpt lat="44.694604" lon="8.8821093"><ele>229.0</ele><time>2026-04-18T11:30:47.982Z</time></trkpt><trkpt lat="44.6944952" lon="8.8820039"><ele>229.0</ele><time>2026-04-18T11:30:48.99Z</time></trkpt><trkpt lat="44.6943877" lon="8.8818969"><ele>229.0</ele><time>2026-04-18T11:30:49.985Z</time></trkpt><trkpt lat="44.694282" lon="8.8817873"><ele>229.0</ele><time>2026-04-18T11:30:50.974Z</time></trkpt><trkpt lat="44.693962" lon="8.88141"><ele>231.0</ele><time>2026-04-18T11:30:53.984Z</time></trkpt><trkpt lat="44.6938632" lon="8.8812964"><ele>233.0</ele><time>2026-04-18T11:30:54.978Z</time></trkpt><trkpt lat="44.6937655" lon="8.881193"><ele>235.0</ele><time>2026-04-18T11:30:55.985Z</time></trkpt><trkpt lat="44.6936747" lon="8.8810974"><ele>237.0</ele><time>2026-04-18T11:30:56.973Z</time></trkpt><trkpt lat="44.6935839" lon="8.8810104"><ele>237.0</ele><time>2026-04-18T11:30:57.978Z</time></trkpt><trkpt lat="44.693494" lon="8.8809333"><ele>237.0</ele><time>2026-04-18T11:30:58.984Z</time></trkpt><trkpt lat="44.6934151" lon="8.8808735"><ele>237.0</ele><time>2026-04-18T11:30:59.976Z</time></trkpt><trkpt lat="44.6933414" lon="8.8808319"><ele>237.0</ele><time>2026-04-18T11:31:00.976Z</time></trkpt><trkpt lat="44.6932472" lon="8.8807535"><ele>237.0</ele><time>2026-04-18T11:31:02.988Z</time></trkpt><trkpt lat="44.6931807" lon="8.8806528"><ele>237.2</ele><time>2026-04-18T11:31:04.986Z</time></trkpt><trkpt lat="44.693113" lon="8.8805666"><ele>237.39999999999998</ele><time>2026-04-18T11:31:06.977Z</time></trkpt><trkpt lat="44.6930377" lon="8.8805439"><ele>237.60000000000002</ele><time>2026-04-18T11:31:08.982Z</time></trkpt><trkpt lat="44.6929497" lon="8.8806188"><ele>237.8</ele><time>2026-04-18T11:31:10.99Z</time></trkpt><trkpt lat="44.6929119" lon="8.8807752"><ele>238.0</ele><time>2026-04-18T11:31:12.982Z</time></trkpt><trkpt lat="44.6929625" lon="8.8809185"><ele>237.99999999999997</ele><time>2026-04-18T11:31:14.982Z</time></trkpt><trkpt lat="44.6930634" lon="8.8809633"><ele>238.0</ele><time>2026-04-18T11:31:16.972Z</time></trkpt><trkpt lat="44.6931557" lon="8.8808705"><ele>238.0</ele><time>2026-04-18T11:31:18.986Z</time></trkpt><trkpt lat="44.6931795" lon="8.880782"><ele>238.0</ele><time>2026-04-18T11:31:19.99Z</time></trkpt><trkpt lat="44.6931911" lon="8.8806792"><ele>237.99999999999997</ele><time>2026-04-18T11:31:20.994Z</time></trkpt><trkpt lat="44.6932068" lon="8.8805723"><ele>238.0</ele><time>2026-04-18T11:31:21.984Z</time></trkpt><trkpt lat="44.6932435" lon="8.8804633"><ele>238.0</ele><time>2026-04-18T11:31:22.983Z</time></trkpt><trkpt lat="44.6933037" lon="8.8803562"><ele>238.0</ele><time>2026-04-18T11:31:23.974Z</time></trkpt><trkpt lat="44.6933758" lon="8.8802525"><ele>238.0</ele><time>2026-04-18T11:31:24.988Z</time></trkpt><trkpt lat="44.6934449" lon="8.8801596"><ele>238.0</ele><time>2026-04-18T11:31:25.974Z</time></trkpt><trkpt lat="44.6934997" lon="8.8800784"><ele>238.0</ele><time>2026-04-18T11:31:26.986Z</time></trkpt><trkpt lat="44.6935741" lon="8.8799767"><ele>237.83333333333331</ele><time>2026-04-18T11:31:28.977Z</time></trkpt><trkpt lat="44.693591" lon="8.8798491"><ele>237.66666666666666</ele><time>2026-04-18T11:31:30.981Z</time></trkpt><trkpt lat="44.6935304" lon="8.8797525"><ele>237.5</ele><time>2026-04-18T11:31:32.982Z</time></trkpt><trkpt lat="44.6934478" lon="8.8797397"><ele>237.33333333333331</ele><time>2026-04-18T11:31:34.986Z</time></trkpt><trkpt lat="44.6933646" lon="8.8797263"><ele>237.16666666666666</ele><time>2026-04-18T11:31:36.979Z</time></trkpt><trkpt lat="44.6932731" lon="8.8797633"><ele>237.0</ele><time>2026-04-18T11:31:38.992Z</time></trkpt><trkpt lat="44.6931858" lon="8.8798926"><ele>237.16666666666666</ele><time>2026-04-18T11:31:40.981Z</time></trkpt><trkpt lat="44.6931343" lon="8.8799558"><ele>237.33333333333331</ele><time>2026-04-18T11:31:41.986Z</time></trkpt><trkpt lat="44.6930843" lon="8.8800115"><ele>237.5</ele><time>2026-04-18T11:31:42.986Z</time></trkpt><trkpt lat="44.6929861" lon="8.8801146"><ele>237.66666666666666</ele><time>2026-04-18T11:31:44.983Z</time></trkpt><trkpt lat="44.692915" lon="8.8801681"><ele>237.83333333333331</ele><time>2026-04-18T11:31:46.991Z</time></trkpt><trkpt lat="44.6928802" lon="8.8800904"><ele>238.0</ele><time>2026-04-18T11:31:48.987Z</time></trkpt><trkpt lat="44.6929557" lon="8.8800851"><ele>238.33333333333331</ele><time>2026-04-18T11:32:24.975Z</time></trkpt><trkpt lat="44.6929404" lon="8.8799327"><ele>238.66666666666666</ele><time>2026-04-18T11:32:42.974Z</time></trkpt><trkpt lat="44.6929944" lon="8.8799941"><ele>239.0</ele><time>2026-04-18T11:32:55.21Z</time></trkpt><trkpt lat="44.6930559" lon="8.8799501"><ele>239.33333333333331</ele><time>2026-04-18T11:33:00.751Z</time></trkpt><trkpt lat="44.6931235" lon="8.8799287"><ele>239.66666666666666</ele><time>2026-04-18T11:33:05.974Z</time></trkpt><trkpt lat="44.6931707" lon="8.8798654"><ele>240.0</ele><time>2026-04-18T11:33:36.97Z</time></trkpt><trkpt lat="44.6931673" lon="8.8797464"><ele>240.0</ele><time>2026-04-18T11:33:39.975Z</time></trkpt><trkpt lat="44.6931393" lon="8.8796587"><ele>240.0</ele><time>2026-04-18T11:33:46.006Z</time></trkpt><trkpt lat="44.6931508" lon="8.8795546"><ele>240.0</ele><time>2026-04-18T11:33:51.953Z</time></trkpt><trkpt lat="44.6931844" lon="8.8794675"><ele>240.0</ele><time>2026-04-18T11:33:57.43Z</time></trkpt><trkpt lat="44.6932391" lon="8.8794091"><ele>240.0</ele><time>2026-04-18T11:34:03.65Z</time></trkpt><trkpt lat="44.693189" lon="8.879477"><ele>240.0</ele><time>2026-04-18T11:34:17.75Z</time></trkpt><trkpt lat="44.6931462" lon="8.8795607"><ele>240.0</ele><time>2026-04-18T11:34:23.289Z</time></trkpt><trkpt lat="44.6931025" lon="8.8796397"><ele>240.0</ele><time>2026-04-18T11:34:28.851Z</time></trkpt><trkpt lat="44.6930394" lon="8.8796446"><ele>240.0</ele><time>2026-04-18T11:34:35.911Z</time></trkpt><trkpt lat="44.6929776" lon="8.8796024"><ele>240.0</ele><time>2026-04-18T11:34:45.976Z</time></trkpt><trkpt lat="44.693026" lon="8.8795341"><ele>240.0</ele><time>2026-04-18T11:34:49.975Z</time></trkpt><trkpt lat="44.6930953" lon="8.8795238"><ele>240.0</ele><time>2026-04-18T11:35:05.716Z</time></trkpt><trkpt lat="44.6930267" lon="8.8795478"><ele>240.0</ele><time>2026-04-18T11:35:13.975Z</time></trkpt><trkpt lat="44.6929614" lon="8.8795867"><ele>240.0</ele><time>2026-04-18T11:35:19.974Z</time></trkpt><trkpt lat="44.6929092" lon="8.8796586"><ele>240.0</ele><time>2026-04-18T11:35:25.57Z</time></trkpt><trkpt lat="44.692867" lon="8.8797333"><ele>240.0</ele><time>2026-04-18T11:35:34.031Z</time></trkpt><trkpt lat="44.692906" lon="8.8798212"><ele>240.0</ele><time>2026-04-18T11:35:38.59Z</time></trkpt><trkpt lat="44.6929534" lon="8.8797535"><ele>240.0</ele><time>2026-04-18T11:35:43.975Z</time></trkpt><trkpt lat="44.6930046" lon="8.8796951"><ele>240.0</ele><time>2026-04-18T11:35:49.991Z</time></trkpt><trkpt lat="44.6930675" lon="8.8796588"><ele>240.0</ele><time>2026-04-18T11:35:59.429Z</time></trkpt><trkpt lat="44.6930313" lon="8.8797326"><ele>240.0</ele><time>2026-04-18T11:36:21.33Z</time></trkpt><trkpt lat="44.6929708" lon="8.8797848"><ele>240.0</ele><time>2026-04-18T11:36:27.975Z</time></trkpt><trkpt lat="44.6929081" lon="8.8798238"><ele>240.0</ele><time>2026-04-18T11:36:33.974Z</time></trkpt><trkpt lat="44.6928489" lon="8.8797863"><ele>240.0</ele><time>2026-04-18T11:36:54.955Z</time></trkpt><trkpt lat="44.6929022" lon="8.8797236"><ele>240.0</ele><time>2026-04-18T11:37:01.977Z</time></trkpt><trkpt lat="44.6929639" lon="8.8796762"><ele>240.0</ele><time>2026-04-18T11:37:07.974Z</time></trkpt><trkpt lat="44.6930309" lon="8.8796736"><ele>240.0</ele><time>2026-04-18T11:37:13.995Z</time></trkpt><trkpt lat="44.6930944" lon="8.8796211"><ele>240.0</ele><time>2026-04-18T11:37:18.911Z</time></trkpt><trkpt lat="44.693042" lon="8.8796861"><ele>240.0</ele><time>2026-04-18T11:37:43.979Z</time></trkpt><trkpt lat="44.693" lon="8.8797552"><ele>240.0</ele><time>2026-04-18T11:37:48.976Z</time></trkpt><trkpt lat="44.6929299" lon="8.8797886"><ele>240.0</ele><time>2026-04-18T11:38:05.309Z</time></trkpt><trkpt lat="44.6928879" lon="8.8798594"><ele>240.0</ele><time>2026-04-18T11:38:10.969Z</time></trkpt><trkpt lat="44.6929516" lon="8.8798195"><ele>240.0</ele><time>2026-04-18T11:38:19.975Z</time></trkpt><trkpt lat="44.6929988" lon="8.8797417"><ele>240.0</ele><time>2026-04-18T11:38:23.975Z</time></trkpt><trkpt lat="44.6930261" lon="8.879659"><ele>240.0</ele><time>2026-04-18T11:38:29.975Z</time></trkpt><trkpt lat="44.6929581" lon="8.8796895"><ele>240.0</ele><time>2026-04-18T11:39:01.912Z</time></trkpt><trkpt lat="44.6929364" lon="8.8797856"><ele>240.0</ele><time>2026-04-18T11:39:09.592Z</time></trkpt><trkpt lat="44.6929467" lon="8.8798787"><ele>240.0</ele><time>2026-04-18T11:39:27.971Z</time></trkpt><trkpt lat="44.6929461" lon="8.8797823"><ele>240.0</ele><time>2026-04-18T11:39:40.975Z</time></trkpt><trkpt lat="44.6929317" lon="8.8798787"><ele>240.0</ele><time>2026-04-18T11:43:10.974Z</time></trkpt><trkpt lat="44.6928916" lon="8.8799521"><ele>240.0</ele><time>2026-04-18T11:43:21.974Z</time></trkpt><trkpt lat="44.6929377" lon="8.8800196"><ele>240.0</ele><time>2026-04-18T11:43:24.985Z</time></trkpt><trkpt lat="44.6928724" lon="8.880006"><ele>240.0</ele><time>2026-04-18T11:43:35.974Z</time></trkpt><trkpt lat="44.6929056" lon="8.8801082"><ele>240.0</ele><time>2026-04-18T11:46:43.974Z</time></trkpt><trkpt lat="44.6929554" lon="8.8801777"><ele>240.0</ele><time>2026-04-18T11:46:45.975Z</time></trkpt><trkpt lat="44.6930357" lon="8.8801614"><ele>240.0</ele><time>2026-04-18T11:46:47.974Z</time></trkpt><trkpt lat="44.6930687" lon="8.8800781"><ele>240.0</ele><time>2026-04-18T11:46:48.974Z</time></trkpt><trkpt lat="44.6931163" lon="8.8799999"><ele>240.0</ele><time>2026-04-18T11:46:49.974Z</time></trkpt><trkpt lat="44.6931661" lon="8.8799251"><ele>240.0</ele><time>2026-04-18T11:46:50.975Z</time></trkpt><trkpt lat="44.6932231" lon="8.8798475"><ele>240.0</ele><time>2026-04-18T11:46:51.974Z</time></trkpt><trkpt lat="44.6932734" lon="8.8797828"><ele>240.0</ele><time>2026-04-18T11:46:52.975Z</time></trkpt><trkpt lat="44.6933676" lon="8.8797285"><ele>240.0</ele><time>2026-04-18T11:46:54.975Z</time></trkpt><trkpt lat="44.6934631" lon="8.8797591"><ele>240.0</ele><time>2026-04-18T11:46:56.974Z</time></trkpt><trkpt lat="44.6935279" lon="8.8798339"><ele>240.0</ele><time>2026-04-18T11:46:58.975Z</time></trkpt><trkpt lat="44.6935402" lon="8.8799488"><ele>240.0</ele><time>2026-04-18T11:47:00.975Z</time></trkpt><trkpt lat="44.6934821" lon="8.8800901"><ele>239.66666666666666</ele><time>2026-04-18T11:47:02.975Z</time></trkpt><trkpt lat="44.6934279" lon="8.8801644"><ele>239.33333333333331</ele><time>2026-04-18T11:47:03.975Z</time></trkpt><trkpt lat="44.693364" lon="8.8802461"><ele>239.0</ele><time>2026-04-18T11:47:04.975Z</time></trkpt><trkpt lat="44.6932976" lon="8.8803348"><ele>238.66666666666666</ele><time>2026-04-18T11:47:05.975Z</time></trkpt><trkpt lat="44.6932357" lon="8.880418"><ele>238.33333333333331</ele><time>2026-04-18T11:47:06.974Z</time></trkpt><trkpt lat="44.6931777" lon="8.8804873"><ele>238.0</ele><time>2026-04-18T11:47:07.975Z</time></trkpt><trkpt lat="44.6931203" lon="8.8805389"><ele>238.0</ele><time>2026-04-18T11:47:08.975Z</time></trkpt><trkpt lat="44.6930029" lon="8.8805989"><ele>238.0</ele><time>2026-04-18T11:47:10.974Z</time></trkpt><trkpt lat="44.692921" lon="8.8807207"><ele>238.0</ele><time>2026-04-18T11:47:12.975Z</time></trkpt><trkpt lat="44.6929269" lon="8.8808637"><ele>238.0</ele><time>2026-04-18T11:47:14.975Z</time></trkpt><trkpt lat="44.6930211" lon="8.8809582"><ele>237.99999999999997</ele><time>2026-04-18T11:47:16.975Z</time></trkpt><trkpt lat="44.6930859" lon="8.8809642"><ele>238.0</ele><time>2026-04-18T11:47:17.974Z</time></trkpt><trkpt lat="44.6931533" lon="8.8809391"><ele>238.0</ele><time>2026-04-18T11:47:18.974Z</time></trkpt><trkpt lat="44.6932234" lon="8.8809105"><ele>238.0</ele><time>2026-04-18T11:47:19.975Z</time></trkpt><trkpt lat="44.6933081" lon="8.8809045"><ele>237.99999999999997</ele><time>2026-04-18T11:47:20.974Z</time></trkpt><trkpt lat="44.6934041" lon="8.8809386"><ele>238.0</ele><time>2026-04-18T11:47:21.974Z</time></trkpt><trkpt lat="44.6935049" lon="8.8810034"><ele>237.75</ele><time>2026-04-18T11:47:22.975Z</time></trkpt><trkpt lat="44.6936072" lon="8.8810992"><ele>237.5</ele><time>2026-04-18T11:47:23.975Z</time></trkpt><trkpt lat="44.6937165" lon="8.8812096"><ele>237.25</ele><time>2026-04-18T11:47:24.974Z</time></trkpt><trkpt lat="44.6938349" lon="8.8813268"><ele>237.0</ele><time>2026-04-18T11:47:25.975Z</time></trkpt><trkpt lat="44.6939544" lon="8.8814461"><ele>237.0</ele><time>2026-04-18T11:47:26.975Z</time></trkpt><trkpt lat="44.6940696" lon="8.8815695"><ele>237.0</ele><time>2026-04-18T11:47:27.974Z</time></trkpt><trkpt lat="44.6941829" lon="8.881689"><ele>237.0</ele><time>2026-04-18T11:47:28.975Z</time></trkpt><trkpt lat="44.6942879" lon="8.8818048"><ele>237.0</ele><time>2026-04-18T11:47:29.975Z</time></trkpt><trkpt lat="44.6943947" lon="8.8819189"><ele>235.0</ele><time>2026-04-18T11:47:30.974Z</time></trkpt><trkpt lat="44.6944962" lon="8.8820372"><ele>233.0</ele><time>2026-04-18T11:47:31.974Z</time></trkpt><trkpt lat="44.694606" lon="8.8821676"><ele>231.0</ele><time>2026-04-18T11:47:32.974Z</time></trkpt><trkpt lat="44.6947112" lon="8.8822697"><ele>229.0</ele><time>2026-04-18T11:47:33.974Z</time></trkpt><trkpt lat="44.6948291" lon="8.8823766"><ele>229.0</ele><time>2026-04-18T11:47:34.975Z</time></trkpt><trkpt lat="44.6949639" lon="8.8824814"><ele>229.0</ele><time>2026-04-18T11:47:35.975Z</time></trkpt><trkpt lat="44.6951039" lon="8.8825809"><ele>229.0</ele><time>2026-04-18T11:47:36.974Z</time></trkpt><trkpt lat="44.695249" lon="8.8826703"><ele>227.0</ele><time>2026-04-18T11:47:37.974Z</time></trkpt><trkpt lat="44.6953887" lon="8.8827534"><ele>225.0</ele><time>2026-04-18T11:47:38.975Z</time></trkpt><trkpt lat="44.6955253" lon="8.8828347"><ele>223.0</ele><time>2026-04-18T11:47:39.975Z</time></trkpt><trkpt lat="44.6956632" lon="8.8829166"><ele>223.0</ele><time>2026-04-18T11:47:40.975Z</time></trkpt><trkpt lat="44.6958001" lon="8.8830006"><ele>223.0</ele><time>2026-04-18T11:47:41.975Z</time></trkpt><trkpt lat="44.6959333" lon="8.8830787"><ele>223.0</ele><time>2026-04-18T11:47:42.975Z</time></trkpt><trkpt lat="44.6960501" lon="8.8831476"><ele>223.0</ele><time>2026-04-18T11:47:43.975Z</time></trkpt><trkpt lat="44.6961643" lon="8.883215"><ele>222.25</ele><time>2026-04-18T11:47:44.974Z</time></trkpt><trkpt lat="44.69628" lon="8.8832847"><ele>221.5</ele><time>2026-04-18T11:47:45.974Z</time></trkpt><trkpt lat="44.696406" lon="8.8833606"><ele>220.75</ele><time>2026-04-18T11:47:46.975Z</time></trkpt><trkpt lat="44.6965411" lon="8.8834388"><ele>220.0</ele><time>2026-04-18T11:47:47.975Z</time></trkpt><trkpt lat="44.6966835" lon="8.8835196"><ele>219.33333333333331</ele><time>2026-04-18T11:47:48.975Z</time></trkpt><trkpt lat="44.6968303" lon="8.8836055"><ele>218.66666666666669</ele><time>2026-04-18T11:47:49.974Z</time></trkpt><trkpt lat="44.6969816" lon="8.8836938"><ele>218.0</ele><time>2026-04-18T11:47:50.975Z</time></trkpt><trkpt lat="44.6971328" lon="8.883783"><ele>217.0</ele><time>2026-04-18T11:47:51.975Z</time></trkpt><trkpt lat="44.6972862" lon="8.8838748"><ele>216.0</ele><time>2026-04-18T11:47:52.975Z</time></trkpt><trkpt lat="44.6974426" lon="8.8839685"><ele>215.0</ele><time>2026-04-18T11:47:53.974Z</time></trkpt><trkpt lat="44.6975979" lon="8.8840614"><ele>215.33333333333334</ele><time>2026-04-18T11:47:54.975Z</time></trkpt><trkpt lat="44.6977532" lon="8.8841519"><ele>215.66666666666669</ele><time>2026-04-18T11:47:55.975Z</time></trkpt><trkpt lat="44.6979113" lon="8.8842444"><ele>216.0</ele><time>2026-04-18T11:47:56.974Z</time></trkpt><trkpt lat="44.6980716" lon="8.8843346"><ele>216.0</ele><time>2026-04-18T11:47:57.974Z</time></trkpt><trkpt lat="44.6982294" lon="8.8844247"><ele>216.0</ele><time>2026-04-18T11:47:58.975Z</time></trkpt><trkpt lat="44.6983832" lon="8.8845151"><ele>216.0</ele><time>2026-04-18T11:47:59.974Z</time></trkpt><trkpt lat="44.6985394" lon="8.8846042"><ele>215.0</ele><time>2026-04-18T11:48:00.974Z</time></trkpt><trkpt lat="44.6987142" lon="8.8846996"><ele>214.0</ele><time>2026-04-18T11:48:01.975Z</time></trkpt><trkpt lat="44.6989122" lon="8.8848004"><ele>213.0</ele><time>2026-04-18T11:48:02.975Z</time></trkpt><trkpt lat="44.6991284" lon="8.884912"><ele>213.0</ele><time>2026-04-18T11:48:03.974Z</time></trkpt><trkpt lat="44.6993489" lon="8.8850352"><ele>213.0</ele><time>2026-04-18T11:48:04.974Z</time></trkpt><trkpt lat="44.6995556" lon="8.8851609"><ele>213.33333333333331</ele><time>2026-04-18T11:48:05.975Z</time></trkpt><trkpt lat="44.6997552" lon="8.8852881"><ele>213.66666666666666</ele><time>2026-04-18T11:48:06.974Z</time></trkpt><trkpt lat="44.699959" lon="8.885413"><ele>214.0</ele><time>2026-04-18T11:48:07.975Z</time></trkpt><trkpt lat="44.7001637" lon="8.8855347"><ele>214.0</ele><time>2026-04-18T11:48:08.975Z</time></trkpt><trkpt lat="44.7003731" lon="8.8856553"><ele>214.0</ele><time>2026-04-18T11:48:09.975Z</time></trkpt><trkpt lat="44.7005859" lon="8.8857724"><ele>214.0</ele><time>2026-04-18T11:48:10.974Z</time></trkpt><trkpt lat="44.7007929" lon="8.8858876"><ele>214.0</ele><time>2026-04-18T11:48:11.975Z</time></trkpt><trkpt lat="44.7009877" lon="8.8860004"><ele>214.0</ele><time>2026-04-18T11:48:12.974Z</time></trkpt><trkpt lat="44.7011902" lon="8.886114"><ele>212.0</ele><time>2026-04-18T11:48:13.975Z</time></trkpt><trkpt lat="44.7014146" lon="8.8862342"><ele>210.0</ele><time>2026-04-18T11:48:14.975Z</time></trkpt><trkpt lat="44.7016551" lon="8.8863696"><ele>210.0</ele><time>2026-04-18T11:48:15.974Z</time></trkpt><trkpt lat="44.7018982" lon="8.886518"><ele>210.0</ele><time>2026-04-18T11:48:16.975Z</time></trkpt><trkpt lat="44.7021238" lon="8.8866619"><ele>217.0</ele><time>2026-04-18T11:48:17.974Z</time></trkpt><trkpt lat="44.7023419" lon="8.8867985"><ele>224.0</ele><time>2026-04-18T11:48:18.974Z</time></trkpt><trkpt lat="44.7025507" lon="8.8869208"><ele>227.66666666666669</ele><time>2026-04-18T11:48:19.974Z</time></trkpt><trkpt lat="44.7027502" lon="8.8870342"><ele>231.33333333333331</ele><time>2026-04-18T11:48:20.975Z</time></trkpt><trkpt lat="44.7029441" lon="8.8871463"><ele>235.0</ele><time>2026-04-18T11:48:21.975Z</time></trkpt><trkpt lat="44.7031069" lon="8.8872588"><ele>235.0</ele><time>2026-04-18T11:48:22.975Z</time></trkpt><trkpt lat="44.703276" lon="8.8873765"><ele>235.0</ele><time>2026-04-18T11:48:23.975Z</time></trkpt><trkpt lat="44.7034353" lon="8.8874944"><ele>235.0</ele><time>2026-04-18T11:48:24.975Z</time></trkpt><trkpt lat="44.7035706" lon="8.8875987"><ele>236.0</ele><time>2026-04-18T11:48:25.974Z</time></trkpt><trkpt lat="44.7036936" lon="8.8877029"><ele>237.0</ele><time>2026-04-18T11:48:26.975Z</time></trkpt><trkpt lat="44.7038068" lon="8.8878086"><ele>238.0</ele><time>2026-04-18T11:48:27.975Z</time></trkpt><trkpt lat="44.703913" lon="8.8879172"><ele>239.0</ele><time>2026-04-18T11:48:28.974Z</time></trkpt><trkpt lat="44.7040172" lon="8.8880286"><ele>239.0</ele><time>2026-04-18T11:48:29.974Z</time></trkpt><trkpt lat="44.7041185" lon="8.8881453"><ele>239.0</ele><time>2026-04-18T11:48:30.974Z</time></trkpt><trkpt lat="44.7042175" lon="8.8882668"><ele>239.0</ele><time>2026-04-18T11:48:31.975Z</time></trkpt><trkpt lat="44.7043153" lon="8.8883927"><ele>239.0</ele><time>2026-04-18T11:48:32.974Z</time></trkpt><trkpt lat="44.7044121" lon="8.8885261"><ele>239.75</ele><time>2026-04-18T11:48:33.975Z</time></trkpt><trkpt lat="44.7045085" lon="8.8886671"><ele>240.5</ele><time>2026-04-18T11:48:34.974Z</time></trkpt><trkpt lat="44.704605" lon="8.8888164"><ele>241.25</ele><time>2026-04-18T11:48:35.974Z</time></trkpt><trkpt lat="44.7047007" lon="8.8889754"><ele>242.0</ele><time>2026-04-18T11:48:36.974Z</time></trkpt><trkpt lat="44.7047941" lon="8.8891424"><ele>242.0</ele><time>2026-04-18T11:48:37.975Z</time></trkpt><trkpt lat="44.7048835" lon="8.8893165"><ele>242.0</ele><time>2026-04-18T11:48:38.975Z</time></trkpt><trkpt lat="44.7049698" lon="8.8894963"><ele>242.0</ele><time>2026-04-18T11:48:39.975Z</time></trkpt><trkpt lat="44.7050546" lon="8.8896798"><ele>242.0</ele><time>2026-04-18T11:48:40.975Z</time></trkpt><trkpt lat="44.7051412" lon="8.8898646"><ele>242.0</ele><time>2026-04-18T11:48:41.975Z</time></trkpt><trkpt lat="44.7052299" lon="8.8900488"><ele>242.0</ele><time>2026-04-18T11:48:42.975Z</time></trkpt><trkpt lat="44.7053194" lon="8.8902332"><ele>243.0</ele><time>2026-04-18T11:48:43.974Z</time></trkpt><trkpt lat="44.7054085" lon="8.8904187"><ele>244.0</ele><time>2026-04-18T11:48:44.975Z</time></trkpt><trkpt lat="44.7054985" lon="8.8906031"><ele>245.0</ele><time>2026-04-18T11:48:45.975Z</time></trkpt><trkpt lat="44.7055847" lon="8.8907844"><ele>244.75</ele><time>2026-04-18T11:48:46.974Z</time></trkpt><trkpt lat="44.7056658" lon="8.8909612"><ele>244.5</ele><time>2026-04-18T11:48:47.974Z</time></trkpt><trkpt lat="44.7057453" lon="8.891132"><ele>244.25</ele><time>2026-04-18T11:48:48.974Z</time></trkpt><trkpt lat="44.7058225" lon="8.8913009"><ele>244.0</ele><time>2026-04-18T11:48:49.975Z</time></trkpt><trkpt lat="44.7058986" lon="8.8914681"><ele>244.0</ele><time>2026-04-18T11:48:50.974Z</time></trkpt><trkpt lat="44.7059747" lon="8.8916354"><ele>244.0</ele><time>2026-04-18T11:48:51.975Z</time></trkpt><trkpt lat="44.7060466" lon="8.8917955"><ele>244.0</ele><time>2026-04-18T11:48:52.974Z</time></trkpt><trkpt lat="44.7061166" lon="8.8919385"><ele>244.0</ele><time>2026-04-18T11:48:53.975Z</time></trkpt><trkpt lat="44.7061749" lon="8.8920636"><ele>244.16666666666666</ele><time>2026-04-18T11:48:54.975Z</time></trkpt><trkpt lat="44.7062346" lon="8.8921604"><ele>244.33333333333331</ele><time>2026-04-18T11:48:56.975Z</time></trkpt><trkpt lat="44.706289" lon="8.8922667"><ele>244.5</ele><time>2026-04-18T11:49:21.974Z</time></trkpt><trkpt lat="44.7063183" lon="8.8923462"><ele>244.66666666666669</ele><time>2026-04-18T11:49:22.975Z</time></trkpt><trkpt lat="44.7063606" lon="8.8924422"><ele>244.83333333333334</ele><time>2026-04-18T11:49:23.975Z</time></trkpt><trkpt lat="44.7064152" lon="8.8925507"><ele>245.0</ele><time>2026-04-18T11:49:24.975Z</time></trkpt><trkpt lat="44.7064771" lon="8.8926815"><ele>245.0</ele><time>2026-04-18T11:49:25.974Z</time></trkpt><trkpt lat="44.7065431" lon="8.8928209"><ele>245.0</ele><time>2026-04-18T11:49:26.974Z</time></trkpt><trkpt lat="44.7066089" lon="8.8929621"><ele>245.0</ele><time>2026-04-18T11:49:27.975Z</time></trkpt><trkpt lat="44.7066798" lon="8.8931187"><ele>245.0</ele><time>2026-04-18T11:49:28.975Z</time></trkpt><trkpt lat="44.7067582" lon="8.8932862"><ele>245.0</ele><time>2026-04-18T11:49:29.975Z</time></trkpt><trkpt lat="44.7068416" lon="8.8934674"><ele>245.0</ele><time>2026-04-18T11:49:30.975Z</time></trkpt><trkpt lat="44.7069313" lon="8.8936576"><ele>245.0</ele><time>2026-04-18T11:49:31.974Z</time></trkpt><trkpt lat="44.7070263" lon="8.8938601"><ele>245.0</ele><time>2026-04-18T11:49:32.975Z</time></trkpt><trkpt lat="44.7071296" lon="8.8940775"><ele>245.0</ele><time>2026-04-18T11:49:33.975Z</time></trkpt><trkpt lat="44.7072345" lon="8.8943009"><ele>245.0</ele><time>2026-04-18T11:49:34.975Z</time></trkpt><trkpt lat="44.7073409" lon="8.8945309"><ele>245.0</ele><time>2026-04-18T11:49:35.974Z</time></trkpt><trkpt lat="44.7074521" lon="8.8947704"><ele>245.0</ele><time>2026-04-18T11:49:36.974Z</time></trkpt><trkpt lat="44.7075689" lon="8.8950163"><ele>245.0</ele><time>2026-04-18T11:49:37.975Z</time></trkpt><trkpt lat="44.7076898" lon="8.8952679"><ele>245.33333333333334</ele><time>2026-04-18T11:49:38.974Z</time></trkpt><trkpt lat="44.7078132" lon="8.8955279"><ele>245.66666666666669</ele><time>2026-04-18T11:49:39.975Z</time></trkpt><trkpt lat="44.7079352" lon="8.8957894"><ele>246.0</ele><time>2026-04-18T11:49:40.974Z</time></trkpt><trkpt lat="44.7080564" lon="8.8960506"><ele>246.0</ele><time>2026-04-18T11:49:41.974Z</time></trkpt><trkpt lat="44.7081778" lon="8.8963112"><ele>246.0</ele><time>2026-04-18T11:49:42.974Z</time></trkpt><trkpt lat="44.708301" lon="8.8965747"><ele>246.0</ele><time>2026-04-18T11:49:43.974Z</time></trkpt><trkpt lat="44.7084245" lon="8.8968371"><ele>246.33333333333331</ele><time>2026-04-18T11:49:44.974Z</time></trkpt><trkpt lat="44.7085448" lon="8.8970926"><ele>246.66666666666666</ele><time>2026-04-18T11:49:45.974Z</time></trkpt><trkpt lat="44.7086631" lon="8.8973412"><ele>247.0</ele><time>2026-04-18T11:49:46.975Z</time></trkpt><trkpt lat="44.7087803" lon="8.8975893"><ele>247.33333333333331</ele><time>2026-04-18T11:49:47.975Z</time></trkpt><trkpt lat="44.7088989" lon="8.897842"><ele>247.66666666666669</ele><time>2026-04-18T11:49:48.975Z</time></trkpt><trkpt lat="44.7090193" lon="8.8980962"><ele>248.0</ele><time>2026-04-18T11:49:49.975Z</time></trkpt><trkpt lat="44.7091395" lon="8.898351"><ele>247.66666666666669</ele><time>2026-04-18T11:49:50.975Z</time></trkpt><trkpt lat="44.7092609" lon="8.8986073"><ele>247.33333333333331</ele><time>2026-04-18T11:49:51.975Z</time></trkpt><trkpt lat="44.7093805" lon="8.8988643"><ele>247.0</ele><time>2026-04-18T11:49:52.975Z</time></trkpt><trkpt lat="44.7094999" lon="8.8991208"><ele>248.33333333333331</ele><time>2026-04-18T11:49:53.975Z</time></trkpt><trkpt lat="44.709619" lon="8.8993755"><ele>249.66666666666669</ele><time>2026-04-18T11:49:54.974Z</time></trkpt><trkpt lat="44.7097376" lon="8.8996268"><ele>251.0</ele><time>2026-04-18T11:49:55.975Z</time></trkpt><trkpt lat="44.7098555" lon="8.8998757"><ele>250.66666666666669</ele><time>2026-04-18T11:49:56.974Z</time></trkpt><trkpt lat="44.7099719" lon="8.9001227"><ele>250.33333333333331</ele><time>2026-04-18T11:49:57.974Z</time></trkpt><trkpt lat="44.7100882" lon="8.900367"><ele>250.0</ele><time>2026-04-18T11:49:58.975Z</time></trkpt><trkpt lat="44.7102028" lon="8.900609"><ele>249.66666666666666</ele><time>2026-04-18T11:49:59.975Z</time></trkpt><trkpt lat="44.710317" lon="8.9008487"><ele>249.33333333333331</ele><time>2026-04-18T11:50:00.974Z</time></trkpt><trkpt lat="44.7104315" lon="8.9010875"><ele>249.0</ele><time>2026-04-18T11:50:01.974Z</time></trkpt><trkpt lat="44.7105445" lon="8.9013257"><ele>249.66666666666669</ele><time>2026-04-18T11:50:02.974Z</time></trkpt><trkpt lat="44.710656" lon="8.9015627"><ele>250.33333333333334</ele><time>2026-04-18T11:50:03.975Z</time></trkpt><trkpt lat="44.7107673" lon="8.9018007"><ele>251.0</ele><time>2026-04-18T11:50:04.974Z</time></trkpt><trkpt lat="44.7108795" lon="8.9020427"><ele>251.66666666666669</ele><time>2026-04-18T11:50:05.975Z</time></trkpt><trkpt lat="44.7109945" lon="8.9022901"><ele>252.33333333333331</ele><time>2026-04-18T11:50:06.975Z</time></trkpt><trkpt lat="44.7111145" lon="8.9025433"><ele>253.0</ele><time>2026-04-18T11:50:07.975Z</time></trkpt><trkpt lat="44.711237" lon="8.9027996"><ele>253.0</ele><time>2026-04-18T11:50:08.975Z</time></trkpt><trkpt lat="44.7113602" lon="8.9030586"><ele>253.0</ele><time>2026-04-18T11:50:09.975Z</time></trkpt><trkpt lat="44.7114832" lon="8.9033171"><ele>253.0</ele><time>2026-04-18T11:50:10.974Z</time></trkpt><trkpt lat="44.7116042" lon="8.9035723"><ele>253.0</ele><time>2026-04-18T11:50:11.975Z</time></trkpt><trkpt lat="44.7117217" lon="8.9038212"><ele>253.0</ele><time>2026-04-18T11:50:12.974Z</time></trkpt><trkpt lat="44.7118365" lon="8.9040646"><ele>253.0</ele><time>2026-04-18T11:50:13.974Z</time></trkpt><trkpt lat="44.7119507" lon="8.9043057"><ele>253.33333333333331</ele><time>2026-04-18T11:50:14.974Z</time></trkpt><trkpt lat="44.7120668" lon="8.904548"><ele>253.66666666666669</ele><time>2026-04-18T11:50:15.974Z</time></trkpt><trkpt lat="44.7121837" lon="8.9047962"><ele>254.0</ele><time>2026-04-18T11:50:16.974Z</time></trkpt><trkpt lat="44.712303" lon="8.9050476"><ele>254.33333333333334</ele><time>2026-04-18T11:50:17.974Z</time></trkpt><trkpt lat="44.7124259" lon="8.905305"><ele>254.66666666666669</ele><time>2026-04-18T11:50:18.974Z</time></trkpt><trkpt lat="44.7125528" lon="8.9055653"><ele>255.0</ele><time>2026-04-18T11:50:19.975Z</time></trkpt><trkpt lat="44.7126821" lon="8.9058329"><ele>255.0</ele><time>2026-04-18T11:50:20.974Z</time></trkpt><trkpt lat="44.7128154" lon="8.9061052"><ele>255.0</ele><time>2026-04-18T11:50:21.975Z</time></trkpt><trkpt lat="44.7129485" lon="8.9063813"><ele>255.0</ele><time>2026-04-18T11:50:22.975Z</time></trkpt><trkpt lat="44.7130788" lon="8.9066607"><ele>255.0</ele><time>2026-04-18T11:50:23.975Z</time></trkpt><trkpt lat="44.7132052" lon="8.9069424"><ele>255.5</ele><time>2026-04-18T11:50:24.975Z</time></trkpt><trkpt lat="44.7133212" lon="8.9072368"><ele>256.0</ele><time>2026-04-18T11:50:25.975Z</time></trkpt><trkpt lat="44.7134144" lon="8.907545"><ele>256.5</ele><time>2026-04-18T11:50:26.974Z</time></trkpt><trkpt lat="44.7134836" lon="8.9078618"><ele>257.0</ele><time>2026-04-18T11:50:27.974Z</time></trkpt><trkpt lat="44.713538" lon="8.9081827"><ele>256.5</ele><time>2026-04-18T11:50:28.975Z</time></trkpt><trkpt lat="44.713593" lon="8.9085009"><ele>256.0</ele><time>2026-04-18T11:50:29.975Z</time></trkpt><trkpt lat="44.713651" lon="8.9088142"><ele>256.0</ele><time>2026-04-18T11:50:30.975Z</time></trkpt><trkpt lat="44.7137062" lon="8.9091128"><ele>256.0</ele><time>2026-04-18T11:50:31.975Z</time></trkpt><trkpt lat="44.7137601" lon="8.9094001"><ele>256.0</ele><time>2026-04-18T11:50:32.975Z</time></trkpt><trkpt lat="44.7138097" lon="8.9096755"><ele>257.3333333333333</ele><time>2026-04-18T11:50:33.975Z</time></trkpt><trkpt lat="44.7138594" lon="8.9099371"><ele>258.6666666666667</ele><time>2026-04-18T11:50:34.975Z</time></trkpt><trkpt lat="44.713918" lon="8.9101859"><ele>260.0</ele><time>2026-04-18T11:50:35.975Z</time></trkpt><trkpt lat="44.7139902" lon="8.9104158"><ele>260.6666666666667</ele><time>2026-04-18T11:50:36.975Z</time></trkpt><trkpt lat="44.714081" lon="8.9106311"><ele>261.3333333333333</ele><time>2026-04-18T11:50:37.974Z</time></trkpt><trkpt lat="44.7141871" lon="8.9108398"><ele>262.0</ele><time>2026-04-18T11:50:38.974Z</time></trkpt><trkpt lat="44.7143036" lon="8.9110493"><ele>262.0</ele><time>2026-04-18T11:50:39.975Z</time></trkpt><trkpt lat="44.7144251" lon="8.9112686"><ele>262.0</ele><time>2026-04-18T11:50:40.975Z</time></trkpt><trkpt lat="44.714549" lon="8.9114925"><ele>262.0</ele><time>2026-04-18T11:50:41.975Z</time></trkpt><trkpt lat="44.7146759" lon="8.9117175"><ele>261.66666666666663</ele><time>2026-04-18T11:50:42.974Z</time></trkpt><trkpt lat="44.7148015" lon="8.9119386"><ele>261.3333333333333</ele><time>2026-04-18T11:50:43.974Z</time></trkpt><trkpt lat="44.7149201" lon="8.9121514"><ele>261.0</ele><time>2026-04-18T11:50:44.974Z</time></trkpt><trkpt lat="44.7150344" lon="8.9123634"><ele>261.0</ele><time>2026-04-18T11:50:45.974Z</time></trkpt><trkpt lat="44.7151491" lon="8.912563"><ele>261.0</ele><time>2026-04-18T11:50:46.974Z</time></trkpt><trkpt lat="44.7152749" lon="8.9127477"><ele>261.0</ele><time>2026-04-18T11:50:47.975Z</time></trkpt><trkpt lat="44.7154166" lon="8.9129106"><ele>262.3333333333333</ele><time>2026-04-18T11:50:48.974Z</time></trkpt><trkpt lat="44.715574" lon="8.9130514"><ele>263.66666666666663</ele><time>2026-04-18T11:50:49.975Z</time></trkpt><trkpt lat="44.7157443" lon="8.9131805"><ele>265.0</ele><time>2026-04-18T11:50:50.974Z</time></trkpt><trkpt lat="44.7159206" lon="8.9133128"><ele>265.66666666666663</ele><time>2026-04-18T11:50:51.975Z</time></trkpt><trkpt lat="44.7160943" lon="8.9134625"><ele>266.3333333333333</ele><time>2026-04-18T11:50:52.975Z</time></trkpt><trkpt lat="44.716264" lon="8.9136221"><ele>267.0</ele><time>2026-04-18T11:50:53.975Z</time></trkpt><trkpt lat="44.7164303" lon="8.9137899"><ele>267.0</ele><time>2026-04-18T11:50:54.975Z</time></trkpt><trkpt lat="44.7165926" lon="8.9139712"><ele>267.0</ele><time>2026-04-18T11:50:55.974Z</time></trkpt><trkpt lat="44.7167552" lon="8.9141648"><ele>267.0</ele><time>2026-04-18T11:50:56.975Z</time></trkpt><trkpt lat="44.7169188" lon="8.9143646"><ele>266.6666666666667</ele><time>2026-04-18T11:50:57.974Z</time></trkpt><trkpt lat="44.717079" lon="8.9145686"><ele>266.33333333333337</ele><time>2026-04-18T11:50:58.974Z</time></trkpt><trkpt lat="44.7172371" lon="8.9147775"><ele>266.0</ele><time>2026-04-18T11:50:59.974Z</time></trkpt><trkpt lat="44.7173891" lon="8.9149955"><ele>266.33333333333337</ele><time>2026-04-18T11:51:00.975Z</time></trkpt><trkpt lat="44.7175312" lon="8.9152243"><ele>266.6666666666667</ele><time>2026-04-18T11:51:01.975Z</time></trkpt><trkpt lat="44.717661" lon="8.9154618"><ele>267.0</ele><time>2026-04-18T11:51:02.974Z</time></trkpt><trkpt lat="44.7177851" lon="8.915705"><ele>267.0</ele><time>2026-04-18T11:51:03.975Z</time></trkpt><trkpt lat="44.7179105" lon="8.9159482"><ele>267.0</ele><time>2026-04-18T11:51:04.975Z</time></trkpt><trkpt lat="44.7180395" lon="8.9161862"><ele>267.0</ele><time>2026-04-18T11:51:05.974Z</time></trkpt><trkpt lat="44.7181737" lon="8.9164131"><ele>267.0</ele><time>2026-04-18T11:51:06.975Z</time></trkpt><trkpt lat="44.7183124" lon="8.9166359"><ele>267.0</ele><time>2026-04-18T11:51:07.975Z</time></trkpt><trkpt lat="44.7184502" lon="8.9168596"><ele>267.0</ele><time>2026-04-18T11:51:08.975Z</time></trkpt><trkpt lat="44.7185886" lon="8.9170811"><ele>268.0</ele><time>2026-04-18T11:51:09.974Z</time></trkpt><trkpt lat="44.7187266" lon="8.9173043"><ele>269.0</ele><time>2026-04-18T11:51:10.975Z</time></trkpt><trkpt lat="44.7188659" lon="8.9175234"><ele>270.0</ele><time>2026-04-18T11:51:11.975Z</time></trkpt><trkpt lat="44.7190028" lon="8.9177442"><ele>271.0</ele><time>2026-04-18T11:51:12.975Z</time></trkpt><trkpt lat="44.7191364" lon="8.9179655"><ele>272.0</ele><time>2026-04-18T11:51:13.975Z</time></trkpt><trkpt lat="44.7192625" lon="8.9181904"><ele>273.0</ele><time>2026-04-18T11:51:14.975Z</time></trkpt><trkpt lat="44.7193768" lon="8.9184105"><ele>272.6666666666667</ele><time>2026-04-18T11:51:15.974Z</time></trkpt><trkpt lat="44.7194782" lon="8.9186222"><ele>272.33333333333337</ele><time>2026-04-18T11:51:16.975Z</time></trkpt><trkpt lat="44.7195656" lon="8.9188273"><ele>272.0</ele><time>2026-04-18T11:51:17.975Z</time></trkpt><trkpt lat="44.7196422" lon="8.9190267"><ele>272.0</ele><time>2026-04-18T11:51:18.974Z</time></trkpt><trkpt lat="44.7197082" lon="8.9192152"><ele>272.0</ele><time>2026-04-18T11:51:19.974Z</time></trkpt><trkpt lat="44.7197694" lon="8.9193958"><ele>272.0</ele><time>2026-04-18T11:51:20.974Z</time></trkpt><trkpt lat="44.7198268" lon="8.9195703"><ele>272.0</ele><time>2026-04-18T11:51:21.975Z</time></trkpt><trkpt lat="44.7198834" lon="8.9197433"><ele>272.5</ele><time>2026-04-18T11:51:22.974Z</time></trkpt><trkpt lat="44.7199377" lon="8.9199168"><ele>273.0</ele><time>2026-04-18T11:51:23.974Z</time></trkpt><trkpt lat="44.7199862" lon="8.9200935"><ele>273.5</ele><time>2026-04-18T11:51:24.975Z</time></trkpt><trkpt lat="44.7200309" lon="8.9202695"><ele>274.0</ele><time>2026-04-18T11:51:25.974Z</time></trkpt><trkpt lat="44.7200731" lon="8.9204465"><ele>274.0</ele><time>2026-04-18T11:51:26.974Z</time></trkpt><trkpt lat="44.7201105" lon="8.9206228"><ele>274.0</ele><time>2026-04-18T11:51:27.974Z</time></trkpt><trkpt lat="44.720146" lon="8.9208004"><ele>274.0</ele><time>2026-04-18T11:51:28.974Z</time></trkpt><trkpt lat="44.7201912" lon="8.9209731"><ele>274.0</ele><time>2026-04-18T11:51:29.975Z</time></trkpt><trkpt lat="44.7202541" lon="8.9211272"><ele>272.5</ele><time>2026-04-18T11:51:30.974Z</time></trkpt><trkpt lat="44.7203386" lon="8.9212639"><ele>271.0</ele><time>2026-04-18T11:51:31.974Z</time></trkpt><trkpt lat="44.720437" lon="8.9213785"><ele>269.5</ele><time>2026-04-18T11:51:32.974Z</time></trkpt><trkpt lat="44.7205431" lon="8.9214798"><ele>268.0</ele><time>2026-04-18T11:51:33.975Z</time></trkpt><trkpt lat="44.720656" lon="8.9215779"><ele>268.0</ele><time>2026-04-18T11:51:34.974Z</time></trkpt><trkpt lat="44.7207784" lon="8.9216851"><ele>268.0</ele><time>2026-04-18T11:51:35.975Z</time></trkpt><trkpt lat="44.7209143" lon="8.921807"><ele>268.0</ele><time>2026-04-18T11:51:36.974Z</time></trkpt><trkpt lat="44.7210622" lon="8.9219432"><ele>265.66666666666663</ele><time>2026-04-18T11:51:37.975Z</time></trkpt><trkpt lat="44.7212124" lon="8.9220953"><ele>263.3333333333333</ele><time>2026-04-18T11:51:38.974Z</time></trkpt><trkpt lat="44.7213553" lon="8.922262"><ele>261.0</ele><time>2026-04-18T11:51:39.974Z</time></trkpt><trkpt lat="44.7214934" lon="8.9224615"><ele>263.0</ele><time>2026-04-18T11:51:40.975Z</time></trkpt><trkpt lat="44.7216205" lon="8.9226896"><ele>265.0</ele><time>2026-04-18T11:51:41.975Z</time></trkpt><trkpt lat="44.7217314" lon="8.9229368"><ele>267.0</ele><time>2026-04-18T11:51:42.974Z</time></trkpt><trkpt lat="44.7218374" lon="8.9231863"><ele>261.6666666666667</ele><time>2026-04-18T11:51:43.974Z</time></trkpt><trkpt lat="44.7219356" lon="8.9234351"><ele>256.33333333333337</ele><time>2026-04-18T11:51:44.974Z</time></trkpt><trkpt lat="44.7220253" lon="8.9236737"><ele>251.0</ele><time>2026-04-18T11:51:45.975Z</time></trkpt><trkpt lat="44.7221006" lon="8.9238995"><ele>251.0</ele><time>2026-04-18T11:51:46.975Z</time></trkpt><trkpt lat="44.7221517" lon="8.9241195"><ele>251.0</ele><time>2026-04-18T11:51:47.974Z</time></trkpt><trkpt lat="44.7221782" lon="8.9243215"><ele>251.0</ele><time>2026-04-18T11:51:48.975Z</time></trkpt><trkpt lat="44.7221825" lon="8.9244898"><ele>251.0</ele><time>2026-04-18T11:51:49.974Z</time></trkpt><trkpt lat="44.7221878" lon="8.9246217"><ele>250.8</ele><time>2026-04-18T11:51:50.974Z</time></trkpt><trkpt lat="44.7222128" lon="8.9247337"><ele>250.60000000000002</ele><time>2026-04-18T11:51:51.975Z</time></trkpt><trkpt lat="44.7222582" lon="8.9248371"><ele>250.4</ele><time>2026-04-18T11:51:52.975Z</time></trkpt><trkpt lat="44.7223211" lon="8.924951"><ele>250.2</ele><time>2026-04-18T11:51:53.975Z</time></trkpt><trkpt lat="44.7223994" lon="8.9250849"><ele>250.0</ele><time>2026-04-18T11:51:54.974Z</time></trkpt><trkpt lat="44.7224894" lon="8.9252374"><ele>250.0</ele><time>2026-04-18T11:51:55.974Z</time></trkpt><trkpt lat="44.7225884" lon="8.9254074"><ele>250.0</ele><time>2026-04-18T11:51:56.975Z</time></trkpt><trkpt lat="44.722696" lon="8.9255895"><ele>250.0</ele><time>2026-04-18T11:51:57.974Z</time></trkpt><trkpt lat="44.7228054" lon="8.9257704"><ele>249.33333333333331</ele><time>2026-04-18T11:51:58.974Z</time></trkpt><trkpt lat="44.7229087" lon="8.9259438"><ele>248.66666666666669</ele><time>2026-04-18T11:51:59.975Z</time></trkpt><trkpt lat="44.7230008" lon="8.9261232"><ele>248.0</ele><time>2026-04-18T11:52:00.975Z</time></trkpt><trkpt lat="44.7230805" lon="8.9263185"><ele>248.0</ele><time>2026-04-18T11:52:01.975Z</time></trkpt><trkpt lat="44.7231481" lon="8.9265341"><ele>248.0</ele><time>2026-04-18T11:52:02.975Z</time></trkpt><trkpt lat="44.7232032" lon="8.9267698"><ele>248.0</ele><time>2026-04-18T11:52:03.975Z</time></trkpt><trkpt lat="44.7232476" lon="8.9270203"><ele>248.66666666666669</ele><time>2026-04-18T11:52:04.975Z</time></trkpt><trkpt lat="44.7232905" lon="8.9272833"><ele>249.33333333333331</ele><time>2026-04-18T11:52:05.974Z</time></trkpt><trkpt lat="44.7233323" lon="8.9275503"><ele>250.0</ele><time>2026-04-18T11:52:06.975Z</time></trkpt><trkpt lat="44.7233718" lon="8.9278145"><ele>250.66666666666666</ele><time>2026-04-18T11:52:07.974Z</time></trkpt><trkpt lat="44.7234092" lon="8.9280739"><ele>251.33333333333331</ele><time>2026-04-18T11:52:08.975Z</time></trkpt><trkpt lat="44.723447" lon="8.9283244"><ele>252.0</ele><time>2026-04-18T11:52:09.975Z</time></trkpt><trkpt lat="44.7234828" lon="8.9285609"><ele>253.25</ele><time>2026-04-18T11:52:10.975Z</time></trkpt><trkpt lat="44.7235226" lon="8.9287774"><ele>254.5</ele><time>2026-04-18T11:52:11.975Z</time></trkpt><trkpt lat="44.7235792" lon="8.9289641"><ele>255.75</ele><time>2026-04-18T11:52:12.974Z</time></trkpt><trkpt lat="44.7236568" lon="8.9291207"><ele>257.0</ele><time>2026-04-18T11:52:13.975Z</time></trkpt><trkpt lat="44.7237559" lon="8.9292404"><ele>258.75</ele><time>2026-04-18T11:52:14.975Z</time></trkpt><trkpt lat="44.7238754" lon="8.9293105"><ele>260.5</ele><time>2026-04-18T11:52:15.974Z</time></trkpt><trkpt lat="44.7240105" lon="8.9293391"><ele>262.25</ele><time>2026-04-18T11:52:16.975Z</time></trkpt><trkpt lat="44.724163" lon="8.929346"><ele>264.0</ele><time>2026-04-18T11:52:17.974Z</time></trkpt><trkpt lat="44.7243268" lon="8.9293555"><ele>263.6666666666667</ele><time>2026-04-18T11:52:18.975Z</time></trkpt><trkpt lat="44.7244879" lon="8.9293362"><ele>263.33333333333337</ele><time>2026-04-18T11:52:19.975Z</time></trkpt><trkpt lat="44.724636" lon="8.9292739"><ele>263.0</ele><time>2026-04-18T11:52:20.975Z</time></trkpt><trkpt lat="44.7247766" lon="8.9291828"><ele>261.33333333333337</ele><time>2026-04-18T11:52:21.974Z</time></trkpt><trkpt lat="44.7249129" lon="8.9290944"><ele>259.6666666666667</ele><time>2026-04-18T11:52:22.975Z</time></trkpt><trkpt lat="44.7250629" lon="8.9290462"><ele>258.0</ele><time>2026-04-18T11:52:23.975Z</time></trkpt><trkpt lat="44.7252203" lon="8.9290351"><ele>260.0</ele><time>2026-04-18T11:52:24.975Z</time></trkpt><trkpt lat="44.7253843" lon="8.9290671"><ele>262.0</ele><time>2026-04-18T11:52:25.974Z</time></trkpt><trkpt lat="44.7255543" lon="8.9291329"><ele>264.0</ele><time>2026-04-18T11:52:26.974Z</time></trkpt><trkpt lat="44.7257339" lon="8.9292094"><ele>265.0</ele><time>2026-04-18T11:52:27.974Z</time></trkpt><trkpt lat="44.7259138" lon="8.9292858"><ele>266.0</ele><time>2026-04-18T11:52:28.975Z</time></trkpt><trkpt lat="44.7260833" lon="8.9293738"><ele>267.0</ele><time>2026-04-18T11:52:29.975Z</time></trkpt><trkpt lat="44.7262374" lon="8.9294855"><ele>268.6666666666667</ele><time>2026-04-18T11:52:30.974Z</time></trkpt><trkpt lat="44.7263733" lon="8.9296228"><ele>270.33333333333337</ele><time>2026-04-18T11:52:31.975Z</time></trkpt><trkpt lat="44.726491" lon="8.929797"><ele>272.0</ele><time>2026-04-18T11:52:32.974Z</time></trkpt><trkpt lat="44.7265984" lon="8.9300046"><ele>272.0</ele><time>2026-04-18T11:52:33.975Z</time></trkpt><trkpt lat="44.7267071" lon="8.9302303"><ele>272.0</ele><time>2026-04-18T11:52:34.974Z</time></trkpt><trkpt lat="44.7268165" lon="8.9304723"><ele>272.0</ele><time>2026-04-18T11:52:35.975Z</time></trkpt><trkpt lat="44.7269187" lon="8.9307319"><ele>274.33333333333337</ele><time>2026-04-18T11:52:36.974Z</time></trkpt><trkpt lat="44.7270036" lon="8.9310048"><ele>276.6666666666667</ele><time>2026-04-18T11:52:37.975Z</time></trkpt><trkpt lat="44.7270728" lon="8.9312859"><ele>279.0</ele><time>2026-04-18T11:52:38.974Z</time></trkpt><trkpt lat="44.7271261" lon="8.9315641"><ele>279.0</ele><time>2026-04-18T11:52:39.974Z</time></trkpt><trkpt lat="44.727169" lon="8.9318382"><ele>279.0</ele><time>2026-04-18T11:52:40.975Z</time></trkpt><trkpt lat="44.7272132" lon="8.9321118"><ele>279.0</ele><time>2026-04-18T11:52:41.974Z</time></trkpt><trkpt lat="44.7272704" lon="8.9323855"><ele>279.3333333333333</ele><time>2026-04-18T11:52:42.975Z</time></trkpt><trkpt lat="44.7273449" lon="8.9326608"><ele>279.66666666666663</ele><time>2026-04-18T11:52:43.974Z</time></trkpt><trkpt lat="44.7274339" lon="8.932933"><ele>280.0</ele><time>2026-04-18T11:52:44.974Z</time></trkpt><trkpt lat="44.7275359" lon="8.9332061"><ele>280.3333333333333</ele><time>2026-04-18T11:52:45.975Z</time></trkpt><trkpt lat="44.727655" lon="8.9334728"><ele>280.6666666666667</ele><time>2026-04-18T11:52:46.974Z</time></trkpt><trkpt lat="44.7277785" lon="8.9337217"><ele>281.0</ele><time>2026-04-18T11:52:47.974Z</time></trkpt><trkpt lat="44.7278979" lon="8.9339549"><ele>282.0</ele><time>2026-04-18T11:52:48.975Z</time></trkpt><trkpt lat="44.7280106" lon="8.9341755"><ele>283.0</ele><time>2026-04-18T11:52:49.974Z</time></trkpt><trkpt lat="44.728116" lon="8.9343861"><ele>284.0</ele><time>2026-04-18T11:52:50.974Z</time></trkpt><trkpt lat="44.7282176" lon="8.9345852"><ele>284.33333333333337</ele><time>2026-04-18T11:52:51.975Z</time></trkpt><trkpt lat="44.7283189" lon="8.9347747"><ele>284.6666666666667</ele><time>2026-04-18T11:52:52.975Z</time></trkpt><trkpt lat="44.7284156" lon="8.9349521"><ele>285.0</ele><time>2026-04-18T11:52:53.974Z</time></trkpt><trkpt lat="44.7285061" lon="8.9351216"><ele>284.75</ele><time>2026-04-18T11:52:54.974Z</time></trkpt><trkpt lat="44.7285913" lon="8.9352843"><ele>284.5</ele><time>2026-04-18T11:52:55.975Z</time></trkpt><trkpt lat="44.7286714" lon="8.9354401"><ele>284.25</ele><time>2026-04-18T11:52:56.975Z</time></trkpt><trkpt lat="44.7287483" lon="8.9355882"><ele>284.0</ele><time>2026-04-18T11:52:57.974Z</time></trkpt><trkpt lat="44.7288237" lon="8.9357277"><ele>284.0</ele><time>2026-04-18T11:52:58.975Z</time></trkpt><trkpt lat="44.7289009" lon="8.9358689"><ele>284.0</ele><time>2026-04-18T11:52:59.975Z</time></trkpt><trkpt lat="44.7289826" lon="8.9360246"><ele>284.0</ele><time>2026-04-18T11:53:00.975Z</time></trkpt><trkpt lat="44.7290678" lon="8.9361875"><ele>284.0</ele><time>2026-04-18T11:53:01.975Z</time></trkpt><trkpt lat="44.7291578" lon="8.936357"><ele>284.33333333333337</ele><time>2026-04-18T11:53:02.975Z</time></trkpt><trkpt lat="44.7292521" lon="8.936535"><ele>284.6666666666667</ele><time>2026-04-18T11:53:03.975Z</time></trkpt><trkpt lat="44.7293477" lon="8.9367178"><ele>285.0</ele><time>2026-04-18T11:53:04.974Z</time></trkpt><trkpt lat="44.7294459" lon="8.9369036"><ele>285.0</ele><time>2026-04-18T11:53:05.975Z</time></trkpt><trkpt lat="44.7295485" lon="8.9370981"><ele>285.0</ele><time>2026-04-18T11:53:06.975Z</time></trkpt><trkpt lat="44.7296535" lon="8.9373003"><ele>285.0</ele><time>2026-04-18T11:53:07.975Z</time></trkpt><trkpt lat="44.7297625" lon="8.9375088"><ele>285.3333333333333</ele><time>2026-04-18T11:53:08.975Z</time></trkpt><trkpt lat="44.7298768" lon="8.93772"><ele>285.66666666666663</ele><time>2026-04-18T11:53:09.974Z</time></trkpt><trkpt lat="44.7299875" lon="8.9379253"><ele>286.0</ele><time>2026-04-18T11:53:10.975Z</time></trkpt><trkpt lat="44.7300904" lon="8.9381252"><ele>286.0</ele><time>2026-04-18T11:53:11.975Z</time></trkpt><trkpt lat="44.7301878" lon="8.9383195"><ele>286.0</ele><time>2026-04-18T11:53:12.974Z</time></trkpt><trkpt lat="44.7302867" lon="8.9385186"><ele>286.0</ele><time>2026-04-18T11:53:13.975Z</time></trkpt><trkpt lat="44.7303917" lon="8.9387289"><ele>287.0</ele><time>2026-04-18T11:53:14.975Z</time></trkpt><trkpt lat="44.7305013" lon="8.9389467"><ele>288.0</ele><time>2026-04-18T11:53:15.974Z</time></trkpt><trkpt lat="44.7306142" lon="8.9391702"><ele>289.0</ele><time>2026-04-18T11:53:16.975Z</time></trkpt><trkpt lat="44.7307268" lon="8.9393933"><ele>289.0</ele><time>2026-04-18T11:53:17.975Z</time></trkpt><trkpt lat="44.7308355" lon="8.9396114"><ele>289.0</ele><time>2026-04-18T11:53:18.975Z</time></trkpt><trkpt lat="44.7309411" lon="8.9398233"><ele>289.0</ele><time>2026-04-18T11:53:19.974Z</time></trkpt><trkpt lat="44.7310456" lon="8.9400299"><ele>288.66666666666663</ele><time>2026-04-18T11:53:20.974Z</time></trkpt><trkpt lat="44.7311523" lon="8.9402432"><ele>288.3333333333333</ele><time>2026-04-18T11:53:21.974Z</time></trkpt><trkpt lat="44.7312562" lon="8.9404589"><ele>288.0</ele><time>2026-04-18T11:53:22.975Z</time></trkpt><trkpt lat="44.7313528" lon="8.9406684"><ele>288.0</ele><time>2026-04-18T11:53:23.975Z</time></trkpt><trkpt lat="44.7314457" lon="8.9408681"><ele>288.0</ele><time>2026-04-18T11:53:24.974Z</time></trkpt><trkpt lat="44.7315351" lon="8.9410559"><ele>288.0</ele><time>2026-04-18T11:53:25.974Z</time></trkpt><trkpt lat="44.7316216" lon="8.941236"><ele>288.5</ele><time>2026-04-18T11:53:26.974Z</time></trkpt><trkpt lat="44.7317004" lon="8.941406"><ele>289.0</ele><time>2026-04-18T11:53:27.975Z</time></trkpt><trkpt lat="44.7317767" lon="8.9415788"><ele>289.5</ele><time>2026-04-18T11:53:28.975Z</time></trkpt><trkpt lat="44.7318555" lon="8.9417544"><ele>290.0</ele><time>2026-04-18T11:53:29.975Z</time></trkpt><trkpt lat="44.7319361" lon="8.941934"><ele>290.0</ele><time>2026-04-18T11:53:30.975Z</time></trkpt><trkpt lat="44.7320185" lon="8.9421206"><ele>290.0</ele><time>2026-04-18T11:53:31.974Z</time></trkpt><trkpt lat="44.7321008" lon="8.9423083"><ele>290.0</ele><time>2026-04-18T11:53:32.975Z</time></trkpt><trkpt lat="44.7321799" lon="8.9424896"><ele>291.6666666666667</ele><time>2026-04-18T11:53:33.975Z</time></trkpt><trkpt lat="44.7322633" lon="8.9426768"><ele>293.3333333333333</ele><time>2026-04-18T11:53:34.975Z</time></trkpt><trkpt lat="44.7323496" lon="8.9428705"><ele>295.0</ele><time>2026-04-18T11:53:35.975Z</time></trkpt><trkpt lat="44.7324382" lon="8.9430733"><ele>295.0</ele><time>2026-04-18T11:53:36.974Z</time></trkpt><trkpt lat="44.7325284" lon="8.9432813"><ele>295.0</ele><time>2026-04-18T11:53:37.975Z</time></trkpt><trkpt lat="44.7326193" lon="8.9434955"><ele>295.0</ele><time>2026-04-18T11:53:38.974Z</time></trkpt><trkpt lat="44.7327051" lon="8.9437182"><ele>294.66666666666663</ele><time>2026-04-18T11:53:39.974Z</time></trkpt><trkpt lat="44.7327845" lon="8.9439515"><ele>294.3333333333333</ele><time>2026-04-18T11:53:40.975Z</time></trkpt><trkpt lat="44.7328564" lon="8.9441921"><ele>294.0</ele><time>2026-04-18T11:53:41.975Z</time></trkpt><trkpt lat="44.7329206" lon="8.9444329"><ele>294.0</ele><time>2026-04-18T11:53:42.975Z</time></trkpt><trkpt lat="44.7329754" lon="8.9446608"><ele>294.0</ele><time>2026-04-18T11:53:43.975Z</time></trkpt><trkpt lat="44.7330177" lon="8.9448661"><ele>294.0</ele><time>2026-04-18T11:53:44.974Z</time></trkpt><trkpt lat="44.7330513" lon="8.9450635"><ele>294.75</ele><time>2026-04-18T11:53:45.974Z</time></trkpt><trkpt lat="44.733079" lon="8.9452512"><ele>295.5</ele><time>2026-04-18T11:53:46.974Z</time></trkpt><trkpt lat="44.7331034" lon="8.9454328"><ele>296.25</ele><time>2026-04-18T11:53:47.975Z</time></trkpt><trkpt lat="44.7331234" lon="8.9456131"><ele>297.0</ele><time>2026-04-18T11:53:48.974Z</time></trkpt><trkpt lat="44.7331365" lon="8.9457956"><ele>297.0</ele><time>2026-04-18T11:53:49.975Z</time></trkpt><trkpt lat="44.7331455" lon="8.9459818"><ele>297.0</ele><time>2026-04-18T11:53:50.974Z</time></trkpt><trkpt lat="44.7331528" lon="8.9461714"><ele>297.0</ele><time>2026-04-18T11:53:51.974Z</time></trkpt><trkpt lat="44.733157" lon="8.946363"><ele>297.0</ele><time>2026-04-18T11:53:52.974Z</time></trkpt><trkpt lat="44.733159" lon="8.9465554"><ele>297.0</ele><time>2026-04-18T11:53:53.975Z</time></trkpt><trkpt lat="44.7331577" lon="8.9467489"><ele>297.0</ele><time>2026-04-18T11:53:54.975Z</time></trkpt><trkpt lat="44.7331539" lon="8.946942"><ele>297.0</ele><time>2026-04-18T11:53:55.974Z</time></trkpt><trkpt lat="44.7331492" lon="8.9471322"><ele>297.0</ele><time>2026-04-18T11:53:56.975Z</time></trkpt><trkpt lat="44.7331439" lon="8.9473166"><ele>297.0</ele><time>2026-04-18T11:53:57.974Z</time></trkpt><trkpt lat="44.7331431" lon="8.9474988"><ele>297.0</ele><time>2026-04-18T11:53:58.975Z</time></trkpt><trkpt lat="44.7331457" lon="8.9476902"><ele>297.0</ele><time>2026-04-18T11:53:59.974Z</time></trkpt><trkpt lat="44.7331483" lon="8.9478875"><ele>297.0</ele><time>2026-04-18T11:54:00.974Z</time></trkpt><trkpt lat="44.7331524" lon="8.9480946"><ele>297.6666666666667</ele><time>2026-04-18T11:54:01.974Z</time></trkpt><trkpt lat="44.733159" lon="8.948308"><ele>298.33333333333337</ele><time>2026-04-18T11:54:02.974Z</time></trkpt><trkpt lat="44.7331644" lon="8.9485271"><ele>299.0</ele><time>2026-04-18T11:54:03.975Z</time></trkpt><trkpt lat="44.7331688" lon="8.9487488"><ele>299.25</ele><time>2026-04-18T11:54:04.974Z</time></trkpt><trkpt lat="44.733174" lon="8.9489672"><ele>299.5</ele><time>2026-04-18T11:54:05.975Z</time></trkpt><trkpt lat="44.7331802" lon="8.9491772"><ele>299.75</ele><time>2026-04-18T11:54:06.974Z</time></trkpt><trkpt lat="44.7331869" lon="8.949377"><ele>300.0</ele><time>2026-04-18T11:54:07.974Z</time></trkpt><trkpt lat="44.733192" lon="8.9495796"><ele>300.0</ele><time>2026-04-18T11:54:08.974Z</time></trkpt><trkpt lat="44.7331966" lon="8.9497834"><ele>300.0</ele><time>2026-04-18T11:54:09.975Z</time></trkpt><trkpt lat="44.7332032" lon="8.9499885"><ele>300.0</ele><time>2026-04-18T11:54:10.974Z</time></trkpt><trkpt lat="44.7332082" lon="8.9501896"><ele>300.0</ele><time>2026-04-18T11:54:11.974Z</time></trkpt><trkpt lat="44.7332143" lon="8.9503871"><ele>300.3333333333333</ele><time>2026-04-18T11:54:12.975Z</time></trkpt><trkpt lat="44.7332216" lon="8.9505867"><ele>300.66666666666663</ele><time>2026-04-18T11:54:13.974Z</time></trkpt><trkpt lat="44.7332277" lon="8.9507974"><ele>301.0</ele><time>2026-04-18T11:54:14.975Z</time></trkpt><trkpt lat="44.7332371" lon="8.95102"><ele>301.0</ele><time>2026-04-18T11:54:15.975Z</time></trkpt><trkpt lat="44.7332466" lon="8.9512555"><ele>301.0</ele><time>2026-04-18T11:54:16.974Z</time></trkpt><trkpt lat="44.733255" lon="8.9515033"><ele>301.0</ele><time>2026-04-18T11:54:17.975Z</time></trkpt><trkpt lat="44.7332619" lon="8.9517668"><ele>301.0</ele><time>2026-04-18T11:54:18.974Z</time></trkpt><trkpt lat="44.7332683" lon="8.9520421"><ele>301.0</ele><time>2026-04-18T11:54:19.974Z</time></trkpt><trkpt lat="44.7332739" lon="8.9523284"><ele>301.0</ele><time>2026-04-18T11:54:20.975Z</time></trkpt><trkpt lat="44.7332796" lon="8.952625"><ele>301.3333333333333</ele><time>2026-04-18T11:54:21.975Z</time></trkpt><trkpt lat="44.7332857" lon="8.9529331"><ele>301.6666666666667</ele><time>2026-04-18T11:54:22.975Z</time></trkpt><trkpt lat="44.7332925" lon="8.9532495"><ele>302.0</ele><time>2026-04-18T11:54:23.974Z</time></trkpt><trkpt lat="44.7332998" lon="8.953577"><ele>303.0</ele><time>2026-04-18T11:54:24.975Z</time></trkpt><trkpt lat="44.7333058" lon="8.9539133"><ele>304.0</ele><time>2026-04-18T11:54:25.975Z</time></trkpt><trkpt lat="44.7333106" lon="8.9542577"><ele>304.5</ele><time>2026-04-18T11:54:26.975Z</time></trkpt><trkpt lat="44.7333165" lon="8.9546095"><ele>305.0</ele><time>2026-04-18T11:54:27.975Z</time></trkpt><trkpt lat="44.7333219" lon="8.9549689"><ele>304.5</ele><time>2026-04-18T11:54:28.975Z</time></trkpt><trkpt lat="44.7333273" lon="8.9553319"><ele>304.0</ele><time>2026-04-18T11:54:29.975Z</time></trkpt><trkpt lat="44.7333318" lon="8.9557001"><ele>304.5</ele><time>2026-04-18T11:54:30.975Z</time></trkpt><trkpt lat="44.7333366" lon="8.9560688"><ele>305.0</ele><time>2026-04-18T11:54:31.975Z</time></trkpt><trkpt lat="44.733343" lon="8.9564392"><ele>305.0</ele><time>2026-04-18T11:54:32.975Z</time></trkpt><trkpt lat="44.7333514" lon="8.9568113"><ele>305.0</ele><time>2026-04-18T11:54:33.975Z</time></trkpt><trkpt lat="44.733359" lon="8.957181"><ele>305.5</ele><time>2026-04-18T11:54:34.975Z</time></trkpt><trkpt lat="44.733364" lon="8.9575439"><ele>306.0</ele><time>2026-04-18T11:54:35.975Z</time></trkpt><trkpt lat="44.7333649" lon="8.9579018"><ele>306.0</ele><time>2026-04-18T11:54:36.975Z</time></trkpt><trkpt lat="44.7333618" lon="8.9582521"><ele>306.0</ele><time>2026-04-18T11:54:37.974Z</time></trkpt><trkpt lat="44.7333527" lon="8.958589"><ele>306.5</ele><time>2026-04-18T11:54:38.975Z</time></trkpt><trkpt lat="44.7333382" lon="8.9589146"><ele>307.0</ele><time>2026-04-18T11:54:39.974Z</time></trkpt><trkpt lat="44.7333195" lon="8.9592387"><ele>307.5</ele><time>2026-04-18T11:54:40.975Z</time></trkpt><trkpt lat="44.7332979" lon="8.959563"><ele>308.0</ele><time>2026-04-18T11:54:41.975Z</time></trkpt><trkpt lat="44.7332748" lon="8.9598882"><ele>308.0</ele><time>2026-04-18T11:54:42.975Z</time></trkpt><trkpt lat="44.7332512" lon="8.9602035"><ele>308.0</ele><time>2026-04-18T11:54:43.975Z</time></trkpt><trkpt lat="44.7332273" lon="8.9605023"><ele>308.0</ele><time>2026-04-18T11:54:44.975Z</time></trkpt><trkpt lat="44.7332066" lon="8.9607853"><ele>308.33333333333337</ele><time>2026-04-18T11:54:45.974Z</time></trkpt><trkpt lat="44.7331922" lon="8.9610503"><ele>308.6666666666667</ele><time>2026-04-18T11:54:46.974Z</time></trkpt><trkpt lat="44.7331788" lon="8.9613055"><ele>309.0</ele><time>2026-04-18T11:54:47.975Z</time></trkpt><trkpt lat="44.7331637" lon="8.9615595"><ele>309.3333333333333</ele><time>2026-04-18T11:54:48.974Z</time></trkpt><trkpt lat="44.7331455" lon="8.9618181"><ele>309.66666666666663</ele><time>2026-04-18T11:54:49.974Z</time></trkpt><trkpt lat="44.7331257" lon="8.9620831"><ele>310.0</ele><time>2026-04-18T11:54:50.974Z</time></trkpt><trkpt lat="44.7331073" lon="8.9623507"><ele>311.3333333333333</ele><time>2026-04-18T11:54:51.975Z</time></trkpt><trkpt lat="44.7330865" lon="8.9626192"><ele>312.6666666666667</ele><time>2026-04-18T11:54:52.975Z</time></trkpt><trkpt lat="44.7330589" lon="8.9628764"><ele>314.0</ele><time>2026-04-18T11:54:53.975Z</time></trkpt><trkpt lat="44.7330246" lon="8.963123"><ele>314.6666666666667</ele><time>2026-04-18T11:54:54.975Z</time></trkpt><trkpt lat="44.7329849" lon="8.9633693"><ele>315.3333333333333</ele><time>2026-04-18T11:54:55.975Z</time></trkpt><trkpt lat="44.732936" lon="8.9636237"><ele>316.0</ele><time>2026-04-18T11:54:56.975Z</time></trkpt><trkpt lat="44.7328764" lon="8.9638863"><ele>316.0</ele><time>2026-04-18T11:54:57.974Z</time></trkpt><trkpt lat="44.7328002" lon="8.9641505"><ele>316.0</ele><time>2026-04-18T11:54:58.975Z</time></trkpt><trkpt lat="44.7327083" lon="8.9644107"><ele>316.0</ele><time>2026-04-18T11:54:59.975Z</time></trkpt><trkpt lat="44.7326082" lon="8.9646699"><ele>315.3333333333333</ele><time>2026-04-18T11:55:00.974Z</time></trkpt><trkpt lat="44.7325039" lon="8.9649248"><ele>314.6666666666667</ele><time>2026-04-18T11:55:01.974Z</time></trkpt><trkpt lat="44.7323952" lon="8.9651716"><ele>314.0</ele><time>2026-04-18T11:55:02.974Z</time></trkpt><trkpt lat="44.7322815" lon="8.9654103"><ele>314.0</ele><time>2026-04-18T11:55:03.975Z</time></trkpt><trkpt lat="44.732157" lon="8.9656358"><ele>314.0</ele><time>2026-04-18T11:55:04.974Z</time></trkpt><trkpt lat="44.7320301" lon="8.9658498"><ele>314.0</ele><time>2026-04-18T11:55:05.975Z</time></trkpt><trkpt lat="44.7318982" lon="8.9660614"><ele>314.6666666666667</ele><time>2026-04-18T11:55:06.975Z</time></trkpt><trkpt lat="44.7317644" lon="8.9662623"><ele>315.3333333333333</ele><time>2026-04-18T11:55:07.975Z</time></trkpt><trkpt lat="44.731635" lon="8.9664557"><ele>316.0</ele><time>2026-04-18T11:55:08.974Z</time></trkpt><trkpt lat="44.7315034" lon="8.9666549"><ele>316.0</ele><time>2026-04-18T11:55:09.975Z</time></trkpt><trkpt lat="44.731372" lon="8.96686"><ele>316.0</ele><time>2026-04-18T11:55:10.974Z</time></trkpt><trkpt lat="44.7312463" lon="8.967074"><ele>316.0</ele><time>2026-04-18T11:55:11.974Z</time></trkpt><trkpt lat="44.7311335" lon="8.9673025"><ele>316.3333333333333</ele><time>2026-04-18T11:55:12.974Z</time></trkpt><trkpt lat="44.7310345" lon="8.96754"><ele>316.6666666666667</ele><time>2026-04-18T11:55:13.974Z</time></trkpt><trkpt lat="44.7309468" lon="8.9677782"><ele>317.0</ele><time>2026-04-18T11:55:14.975Z</time></trkpt><trkpt lat="44.7308722" lon="8.9680075"><ele>317.0</ele><time>2026-04-18T11:55:15.975Z</time></trkpt><trkpt lat="44.7308109" lon="8.9682171"><ele>317.0</ele><time>2026-04-18T11:55:16.975Z</time></trkpt><trkpt lat="44.7307575" lon="8.9683923"><ele>317.0</ele><time>2026-04-18T11:55:17.974Z</time></trkpt><trkpt lat="44.7307034" lon="8.9685423"><ele>317.0</ele><time>2026-04-18T11:55:18.975Z</time></trkpt><trkpt lat="44.730635" lon="8.9686594"><ele>317.6</ele><time>2026-04-18T11:55:19.974Z</time></trkpt><trkpt lat="44.7305484" lon="8.9687458"><ele>318.2</ele><time>2026-04-18T11:55:20.974Z</time></trkpt><trkpt lat="44.7304459" lon="8.968797"><ele>318.8</ele><time>2026-04-18T11:55:21.975Z</time></trkpt><trkpt lat="44.7303344" lon="8.9688229"><ele>319.4</ele><time>2026-04-18T11:55:22.974Z</time></trkpt><trkpt lat="44.7302167" lon="8.968822"><ele>320.0</ele><time>2026-04-18T11:55:23.974Z</time></trkpt><trkpt lat="44.7300928" lon="8.9688144"><ele>320.0</ele><time>2026-04-18T11:55:24.975Z</time></trkpt><trkpt lat="44.7299754" lon="8.9688102"><ele>320.0</ele><time>2026-04-18T11:55:25.975Z</time></trkpt><trkpt lat="44.7298645" lon="8.968813"><ele>320.0</ele><time>2026-04-18T11:55:26.975Z</time></trkpt><trkpt lat="44.7297602" lon="8.9688163"><ele>320.0</ele><time>2026-04-18T11:55:27.974Z</time></trkpt><trkpt lat="44.7296639" lon="8.9688236"><ele>320.0</ele><time>2026-04-18T11:55:28.975Z</time></trkpt><trkpt lat="44.7295811" lon="8.9688434"><ele>320.0</ele><time>2026-04-18T11:55:29.974Z</time></trkpt><trkpt lat="44.7295093" lon="8.9688814"><ele>320.0</ele><time>2026-04-18T11:55:30.975Z</time></trkpt><trkpt lat="44.7294462" lon="8.9689404"><ele>320.0</ele><time>2026-04-18T11:55:31.974Z</time></trkpt><trkpt lat="44.7293912" lon="8.9690214"><ele>320.0</ele><time>2026-04-18T11:55:32.975Z</time></trkpt><trkpt lat="44.7293429" lon="8.9691251"><ele>320.0</ele><time>2026-04-18T11:55:33.975Z</time></trkpt><trkpt lat="44.7292958" lon="8.9692409"><ele>320.0</ele><time>2026-04-18T11:55:34.974Z</time></trkpt><trkpt lat="44.7292481" lon="8.9693627"><ele>319.6666666666667</ele><time>2026-04-18T11:55:35.975Z</time></trkpt><trkpt lat="44.7292007" lon="8.9694808"><ele>319.33333333333337</ele><time>2026-04-18T11:55:36.974Z</time></trkpt><trkpt lat="44.7291539" lon="8.9695894"><ele>319.0</ele><time>2026-04-18T11:55:37.974Z</time></trkpt><trkpt lat="44.7291092" lon="8.9696919"><ele>318.6666666666667</ele><time>2026-04-18T11:55:38.974Z</time></trkpt><trkpt lat="44.7290654" lon="8.9697907"><ele>318.3333333333333</ele><time>2026-04-18T11:55:39.974Z</time></trkpt><trkpt lat="44.7290269" lon="8.9698836"><ele>318.0</ele><time>2026-04-18T11:55:40.975Z</time></trkpt><trkpt lat="44.7289903" lon="8.9699753"><ele>318.1666666666667</ele><time>2026-04-18T11:55:41.975Z</time></trkpt><trkpt lat="44.7289529" lon="8.9700736"><ele>318.3333333333333</ele><time>2026-04-18T11:55:42.975Z</time></trkpt><trkpt lat="44.7289109" lon="8.9701707"><ele>318.5</ele><time>2026-04-18T11:55:43.974Z</time></trkpt><trkpt lat="44.7288621" lon="8.9702698"><ele>318.66666666666663</ele><time>2026-04-18T11:55:44.974Z</time></trkpt><trkpt lat="44.7288145" lon="8.9703709"><ele>318.8333333333333</ele><time>2026-04-18T11:55:45.974Z</time></trkpt><trkpt lat="44.7287655" lon="8.9704768"><ele>319.0</ele><time>2026-04-18T11:55:46.975Z</time></trkpt><trkpt lat="44.7287149" lon="8.9705852"><ele>319.0</ele><time>2026-04-18T11:55:47.974Z</time></trkpt><trkpt lat="44.7286632" lon="8.9706974"><ele>319.0</ele><time>2026-04-18T11:55:48.975Z</time></trkpt><trkpt lat="44.7286127" lon="8.9708155"><ele>319.0</ele><time>2026-04-18T11:55:49.974Z</time></trkpt><trkpt lat="44.728565" lon="8.9709371"><ele>319.0</ele><time>2026-04-18T11:55:50.975Z</time></trkpt><trkpt lat="44.7285263" lon="8.97106"><ele>319.0</ele><time>2026-04-18T11:55:51.975Z</time></trkpt><trkpt lat="44.7284992" lon="8.9711765"><ele>319.0</ele><time>2026-04-18T11:55:52.975Z</time></trkpt><trkpt lat="44.7284925" lon="8.9712937"><ele>319.0</ele><time>2026-04-18T11:55:53.975Z</time></trkpt><trkpt lat="44.7285099" lon="8.9714105"><ele>319.0</ele><time>2026-04-18T11:55:54.974Z</time></trkpt><trkpt lat="44.7285418" lon="8.9715303"><ele>319.0</ele><time>2026-04-18T11:55:55.975Z</time></trkpt><trkpt lat="44.728575" lon="8.9716578"><ele>319.0</ele><time>2026-04-18T11:55:56.975Z</time></trkpt><trkpt lat="44.7286075" lon="8.9717974"><ele>319.0</ele><time>2026-04-18T11:55:57.974Z</time></trkpt><trkpt lat="44.7286341" lon="8.9719464"><ele>319.0</ele><time>2026-04-18T11:55:58.975Z</time></trkpt><trkpt lat="44.7286466" lon="8.972097"><ele>319.0</ele><time>2026-04-18T11:55:59.975Z</time></trkpt><trkpt lat="44.728653" lon="8.9722483"><ele>319.0</ele><time>2026-04-18T11:56:00.975Z</time></trkpt><trkpt lat="44.7286656" lon="8.9723969"><ele>319.0</ele><time>2026-04-18T11:56:01.975Z</time></trkpt><trkpt lat="44.7286855" lon="8.9725445"><ele>316.59999999999997</ele><time>2026-04-18T11:56:02.975Z</time></trkpt><trkpt lat="44.728709" lon="8.9726937"><ele>314.2</ele><time>2026-04-18T11:56:03.975Z</time></trkpt><trkpt lat="44.7287358" lon="8.9728386"><ele>311.79999999999995</ele><time>2026-04-18T11:56:04.974Z</time></trkpt><trkpt lat="44.7287688" lon="8.9729608"><ele>309.4</ele><time>2026-04-18T11:56:05.974Z</time></trkpt><trkpt lat="44.7288215" lon="8.9730574"><ele>307.0</ele><time>2026-04-18T11:56:06.975Z</time></trkpt><trkpt lat="44.728898" lon="8.9731177"><ele>307.0</ele><time>2026-04-18T11:56:07.974Z</time></trkpt><trkpt lat="44.7289939" lon="8.9731528"><ele>307.0</ele><time>2026-04-18T11:56:08.974Z</time></trkpt><trkpt lat="44.7290798" lon="8.9732143"><ele>307.0</ele><time>2026-04-18T11:56:09.974Z</time></trkpt><trkpt lat="44.7291521" lon="8.9733104"><ele>307.0</ele><time>2026-04-18T11:56:10.974Z</time></trkpt><trkpt lat="44.7291986" lon="8.9734396"><ele>307.0</ele><time>2026-04-18T11:56:11.975Z</time></trkpt><trkpt lat="44.7292201" lon="8.9736009"><ele>307.5</ele><time>2026-04-18T11:56:12.975Z</time></trkpt><trkpt lat="44.7292152" lon="8.973789"><ele>308.0</ele><time>2026-04-18T11:56:13.975Z</time></trkpt><trkpt lat="44.7291815" lon="8.9739903"><ele>308.5</ele><time>2026-04-18T11:56:14.975Z</time></trkpt><trkpt lat="44.7291337" lon="8.9741873"><ele>309.0</ele><time>2026-04-18T11:56:15.974Z</time></trkpt><trkpt lat="44.7290795" lon="8.9743787"><ele>309.3333333333333</ele><time>2026-04-18T11:56:16.975Z</time></trkpt><trkpt lat="44.7290053" lon="8.9745776"><ele>309.66666666666663</ele><time>2026-04-18T11:56:17.975Z</time></trkpt><trkpt lat="44.7289055" lon="8.9747721"><ele>310.0</ele><time>2026-04-18T11:56:18.975Z</time></trkpt><trkpt lat="44.7287974" lon="8.9749641"><ele>309.3333333333333</ele><time>2026-04-18T11:56:19.974Z</time></trkpt><trkpt lat="44.7286879" lon="8.975143"><ele>308.6666666666667</ele><time>2026-04-18T11:56:20.974Z</time></trkpt><trkpt lat="44.7285857" lon="8.9753105"><ele>308.0</ele><time>2026-04-18T11:56:21.973Z</time></trkpt><trkpt lat="44.728489" lon="8.9754618"><ele>309.0</ele><time>2026-04-18T11:56:22.974Z</time></trkpt><trkpt lat="44.7283856" lon="8.9755837"><ele>310.0</ele><time>2026-04-18T11:56:23.975Z</time></trkpt><trkpt lat="44.7282677" lon="8.9756677"><ele>311.0</ele><time>2026-04-18T11:56:24.974Z</time></trkpt><trkpt lat="44.7281364" lon="8.9757068"><ele>312.0</ele><time>2026-04-18T11:56:25.975Z</time></trkpt><trkpt lat="44.7279983" lon="8.975689"><ele>312.0</ele><time>2026-04-18T11:56:26.975Z</time></trkpt><trkpt lat="44.7278677" lon="8.9756322"><ele>312.0</ele><time>2026-04-18T11:56:27.974Z</time></trkpt><trkpt lat="44.727752" lon="8.9755885"><ele>312.0</ele><time>2026-04-18T11:56:28.975Z</time></trkpt><trkpt lat="44.7276419" lon="8.9756082"><ele>312.0</ele><time>2026-04-18T11:56:29.975Z</time></trkpt><trkpt lat="44.7275486" lon="8.9756799"><ele>311.25</ele><time>2026-04-18T11:56:30.974Z</time></trkpt><trkpt lat="44.7274734" lon="8.9758069"><ele>310.5</ele><time>2026-04-18T11:56:31.975Z</time></trkpt><trkpt lat="44.7274211" lon="8.9759785"><ele>309.75</ele><time>2026-04-18T11:56:32.975Z</time></trkpt><trkpt lat="44.7273807" lon="8.9761908"><ele>309.0</ele><time>2026-04-18T11:56:33.974Z</time></trkpt><trkpt lat="44.7273306" lon="8.9764239"><ele>311.0</ele><time>2026-04-18T11:56:34.975Z</time></trkpt><trkpt lat="44.7272816" lon="8.9766555"><ele>313.0</ele><time>2026-04-18T11:56:35.974Z</time></trkpt><trkpt lat="44.7272518" lon="8.9768729"><ele>315.0</ele><time>2026-04-18T11:56:36.975Z</time></trkpt><trkpt lat="44.7272484" lon="8.9770793"><ele>315.6666666666667</ele><time>2026-04-18T11:56:37.974Z</time></trkpt><trkpt lat="44.7272722" lon="8.9773006"><ele>316.33333333333337</ele><time>2026-04-18T11:56:38.974Z</time></trkpt><trkpt lat="44.7273094" lon="8.9775583"><ele>317.0</ele><time>2026-04-18T11:56:39.975Z</time></trkpt><trkpt lat="44.7273492" lon="8.9778414"><ele>317.0</ele><time>2026-04-18T11:56:40.974Z</time></trkpt><trkpt lat="44.7273969" lon="8.9781401"><ele>317.0</ele><time>2026-04-18T11:56:41.974Z</time></trkpt><trkpt lat="44.7274443" lon="8.9784469"><ele>317.0</ele><time>2026-04-18T11:56:42.974Z</time></trkpt><trkpt lat="44.7274888" lon="8.9787459"><ele>317.33333333333337</ele><time>2026-04-18T11:56:43.975Z</time></trkpt><trkpt lat="44.727533" lon="8.9790263"><ele>317.6666666666667</ele><time>2026-04-18T11:56:44.975Z</time></trkpt><trkpt lat="44.7275716" lon="8.9792874"><ele>318.0</ele><time>2026-04-18T11:56:45.975Z</time></trkpt><trkpt lat="44.7275904" lon="8.9795274"><ele>319.0</ele><time>2026-04-18T11:56:46.974Z</time></trkpt><trkpt lat="44.7275817" lon="8.9797469"><ele>320.0</ele><time>2026-04-18T11:56:47.975Z</time></trkpt><trkpt lat="44.7275331" lon="8.9799569"><ele>321.0</ele><time>2026-04-18T11:56:48.975Z</time></trkpt><trkpt lat="44.727448" lon="8.9801751"><ele>323.0</ele><time>2026-04-18T11:56:49.975Z</time></trkpt><trkpt lat="44.7273443" lon="8.9804043"><ele>325.0</ele><time>2026-04-18T11:56:50.975Z</time></trkpt><trkpt lat="44.7272336" lon="8.9806448"><ele>327.0</ele><time>2026-04-18T11:56:51.974Z</time></trkpt><trkpt lat="44.7271301" lon="8.9808727"><ele>326.0</ele><time>2026-04-18T11:56:52.975Z</time></trkpt><trkpt lat="44.7270291" lon="8.981094"><ele>325.0</ele><time>2026-04-18T11:56:53.975Z</time></trkpt><trkpt lat="44.7269208" lon="8.9812976"><ele>324.0</ele><time>2026-04-18T11:56:54.975Z</time></trkpt><trkpt lat="44.7267898" lon="8.9814826"><ele>324.0</ele><time>2026-04-18T11:56:55.975Z</time></trkpt><trkpt lat="44.7266344" lon="8.9816353"><ele>324.0</ele><time>2026-04-18T11:56:56.975Z</time></trkpt><trkpt lat="44.7264651" lon="8.9817652"><ele>324.0</ele><time>2026-04-18T11:56:57.974Z</time></trkpt><trkpt lat="44.7263094" lon="8.9818922"><ele>323.3333333333333</ele><time>2026-04-18T11:56:58.974Z</time></trkpt><trkpt lat="44.7261626" lon="8.9820559"><ele>322.66666666666663</ele><time>2026-04-18T11:56:59.975Z</time></trkpt><trkpt lat="44.7260244" lon="8.9822637"><ele>322.0</ele><time>2026-04-18T11:57:00.975Z</time></trkpt><trkpt lat="44.7258892" lon="8.9825062"><ele>329.5</ele><time>2026-04-18T11:57:01.974Z</time></trkpt><trkpt lat="44.7257523" lon="8.9827682"><ele>337.0</ele><time>2026-04-18T11:57:02.974Z</time></trkpt><trkpt lat="44.7256077" lon="8.9830425"><ele>337.0</ele><time>2026-04-18T11:57:03.975Z</time></trkpt><trkpt lat="44.7254671" lon="8.9833342"><ele>337.0</ele><time>2026-04-18T11:57:04.975Z</time></trkpt><trkpt lat="44.7253354" lon="8.9836425"><ele>334.5</ele><time>2026-04-18T11:57:05.975Z</time></trkpt><trkpt lat="44.7252163" lon="8.9839457"><ele>332.0</ele><time>2026-04-18T11:57:06.974Z</time></trkpt><trkpt lat="44.7251063" lon="8.9842481"><ele>338.0</ele><time>2026-04-18T11:57:07.975Z</time></trkpt><trkpt lat="44.725005" lon="8.9845604"><ele>344.0</ele><time>2026-04-18T11:57:08.975Z</time></trkpt><trkpt lat="44.7249187" lon="8.9848753"><ele>351.5</ele><time>2026-04-18T11:57:09.975Z</time></trkpt><trkpt lat="44.7248378" lon="8.9852006"><ele>359.0</ele><time>2026-04-18T11:57:10.975Z</time></trkpt><trkpt lat="44.7247659" lon="8.985507"><ele>359.0</ele><time>2026-04-18T11:57:11.974Z</time></trkpt><trkpt lat="44.7246993" lon="8.9857767"><ele>359.0</ele><time>2026-04-18T11:57:12.974Z</time></trkpt><trkpt lat="44.7246372" lon="8.9860009"><ele>359.0</ele><time>2026-04-18T11:57:13.975Z</time></trkpt><trkpt lat="44.7245654" lon="8.9861825"><ele>353.33333333333337</ele><time>2026-04-18T11:57:14.975Z</time></trkpt><trkpt lat="44.7244708" lon="8.9863422"><ele>347.6666666666667</ele><time>2026-04-18T11:57:15.975Z</time></trkpt><trkpt lat="44.7243409" lon="8.9864664"><ele>342.0</ele><time>2026-04-18T11:57:16.975Z</time></trkpt><trkpt lat="44.7241927" lon="8.9865583"><ele>342.0</ele><time>2026-04-18T11:57:17.975Z</time></trkpt><trkpt lat="44.724062" lon="8.9866776"><ele>342.0</ele><time>2026-04-18T11:57:18.974Z</time></trkpt><trkpt lat="44.7239538" lon="8.986855"><ele>342.0</ele><time>2026-04-18T11:57:19.974Z</time></trkpt><trkpt lat="44.7238671" lon="8.9870876"><ele>346.6666666666667</ele><time>2026-04-18T11:57:20.974Z</time></trkpt><trkpt lat="44.7237975" lon="8.9873594"><ele>351.33333333333337</ele><time>2026-04-18T11:57:21.975Z</time></trkpt><trkpt lat="44.7237314" lon="8.987661"><ele>356.0</ele><time>2026-04-18T11:57:22.975Z</time></trkpt><trkpt lat="44.7236589" lon="8.987977"><ele>363.0</ele><time>2026-04-18T11:57:23.975Z</time></trkpt><trkpt lat="44.7235826" lon="8.9883032"><ele>370.0</ele><time>2026-04-18T11:57:24.975Z</time></trkpt><trkpt lat="44.7235091" lon="8.9886384"><ele>357.5</ele><time>2026-04-18T11:57:25.974Z</time></trkpt><trkpt lat="44.7234362" lon="8.9889735"><ele>345.0</ele><time>2026-04-18T11:57:26.975Z</time></trkpt><trkpt lat="44.7233662" lon="8.9892973"><ele>345.0</ele><time>2026-04-18T11:57:27.974Z</time></trkpt><trkpt lat="44.7233059" lon="8.9896161"><ele>345.0</ele><time>2026-04-18T11:57:28.975Z</time></trkpt><trkpt lat="44.7232615" lon="8.9899237"><ele>347.0</ele><time>2026-04-18T11:57:29.974Z</time></trkpt><trkpt lat="44.723224" lon="8.9902167"><ele>349.0</ele><time>2026-04-18T11:57:30.975Z</time></trkpt><trkpt lat="44.723171" lon="8.990483"><ele>351.0</ele><time>2026-04-18T11:57:31.975Z</time></trkpt><trkpt lat="44.7230952" lon="8.9907212"><ele>356.6666666666667</ele><time>2026-04-18T11:57:32.975Z</time></trkpt><trkpt lat="44.7229997" lon="8.9909222"><ele>362.33333333333337</ele><time>2026-04-18T11:57:33.975Z</time></trkpt><trkpt lat="44.7229066" lon="8.9911082"><ele>368.0</ele><time>2026-04-18T11:57:34.974Z</time></trkpt><trkpt lat="44.7228396" lon="8.9913216"><ele>368.0</ele><time>2026-04-18T11:57:35.975Z</time></trkpt><trkpt lat="44.7227892" lon="8.9915724"><ele>368.0</ele><time>2026-04-18T11:57:36.975Z</time></trkpt><trkpt lat="44.7227618" lon="8.9918174"><ele>368.0</ele><time>2026-04-18T11:57:37.975Z</time></trkpt><trkpt lat="44.7227496" lon="8.99205"><ele>368.25</ele><time>2026-04-18T11:57:38.974Z</time></trkpt><trkpt lat="44.7227639" lon="8.992266"><ele>368.5</ele><time>2026-04-18T11:57:39.974Z</time></trkpt><trkpt lat="44.7228113" lon="8.9924562"><ele>368.75</ele><time>2026-04-18T11:57:40.974Z</time></trkpt><trkpt lat="44.7228908" lon="8.9926177"><ele>369.0</ele><time>2026-04-18T11:57:41.974Z</time></trkpt><trkpt lat="44.7229981" lon="8.992773"><ele>364.6666666666667</ele><time>2026-04-18T11:57:42.975Z</time></trkpt><trkpt lat="44.7231086" lon="8.9929369"><ele>360.33333333333337</ele><time>2026-04-18T11:57:43.975Z</time></trkpt><trkpt lat="44.7231988" lon="8.9931107"><ele>356.0</ele><time>2026-04-18T11:57:44.974Z</time></trkpt><trkpt lat="44.7232751" lon="8.9932815"><ele>354.8</ele><time>2026-04-18T11:57:45.974Z</time></trkpt><trkpt lat="44.7233349" lon="8.9934295"><ele>353.6</ele><time>2026-04-18T11:57:46.974Z</time></trkpt><trkpt lat="44.7233744" lon="8.9935488"><ele>352.4</ele><time>2026-04-18T11:57:47.975Z</time></trkpt><trkpt lat="44.7233923" lon="8.9936702"><ele>351.2</ele><time>2026-04-18T11:57:48.975Z</time></trkpt><trkpt lat="44.7233695" lon="8.9937778"><ele>350.0</ele><time>2026-04-18T11:57:49.975Z</time></trkpt><trkpt lat="44.7233133" lon="8.9938657"><ele>350.0</ele><time>2026-04-18T11:57:50.975Z</time></trkpt><trkpt lat="44.7232397" lon="8.9939235"><ele>350.0</ele><time>2026-04-18T11:57:51.974Z</time></trkpt><trkpt lat="44.7231548" lon="8.9939749"><ele>350.0</ele><time>2026-04-18T11:57:52.974Z</time></trkpt><trkpt lat="44.7230603" lon="8.9940326"><ele>350.0</ele><time>2026-04-18T11:57:53.975Z</time></trkpt><trkpt lat="44.722961" lon="8.9941018"><ele>350.0</ele><time>2026-04-18T11:57:54.975Z</time></trkpt><trkpt lat="44.7228562" lon="8.9941705"><ele>348.6666666666667</ele><time>2026-04-18T11:57:55.975Z</time></trkpt><trkpt lat="44.7227541" lon="8.9942234"><ele>347.33333333333337</ele><time>2026-04-18T11:57:56.974Z</time></trkpt><trkpt lat="44.7226729" lon="8.9942557"><ele>346.0</ele><time>2026-04-18T11:57:57.974Z</time></trkpt><trkpt lat="44.7225827" lon="8.9942746"><ele>344.6666666666667</ele><time>2026-04-18T11:57:59.975Z</time></trkpt><trkpt lat="44.722519" lon="8.9942714"><ele>343.3333333333333</ele><time>2026-04-18T11:58:01.975Z</time></trkpt><trkpt lat="44.7224927" lon="8.9941735"><ele>342.0</ele><time>2026-04-18T11:58:10.975Z</time></trkpt><trkpt lat="44.7224699" lon="8.9940471"><ele>341.99999999999994</ele><time>2026-04-18T11:58:13.974Z</time></trkpt><trkpt lat="44.7224142" lon="8.9940006"><ele>342.0</ele><time>2026-04-18T11:58:16.975Z</time></trkpt><trkpt lat="44.7223866" lon="8.9940821"><ele>342.0</ele><time>2026-04-18T12:00:16.974Z</time></trkpt><trkpt lat="44.7223464" lon="8.9941535"><ele>342.0</ele><time>2026-04-18T12:00:23.974Z</time></trkpt><trkpt lat="44.7222967" lon="8.9942204"><ele>342.0</ele><time>2026-04-18T12:00:30.925Z</time></trkpt><trkpt lat="44.7222197" lon="8.9942227"><ele>341.99999999999994</ele><time>2026-04-18T12:00:36.927Z</time></trkpt><trkpt lat="44.7221516" lon="8.9941958"><ele>342.0</ele><time>2026-04-18T12:00:50.006Z</time></trkpt><trkpt lat="44.7220895" lon="8.9942378"><ele>341.99999999999994</ele><time>2026-04-18T12:00:56.975Z</time></trkpt><trkpt lat="44.7220272" lon="8.9942571"><ele>342.0</ele><time>2026-04-18T12:01:54.946Z</time></trkpt><trkpt lat="44.7219738" lon="8.9943078"><ele>342.0</ele><time>2026-04-18T12:29:33.975Z</time></trkpt><trkpt lat="44.7220187" lon="8.9942377"><ele>342.0</ele><time>2026-04-18T12:29:59.974Z</time></trkpt><trkpt lat="44.7219908" lon="8.9943223"><ele>342.0</ele><time>2026-04-18T13:06:37.993Z</time></trkpt><trkpt lat="44.7220178" lon="8.994225"><ele>341.99999999999994</ele><time>2026-04-18T13:06:51.975Z</time></trkpt><trkpt lat="44.722065" lon="8.9941599"><ele>342.0</ele><time>2026-04-18T13:06:55.929Z</time></trkpt><trkpt lat="44.7221188" lon="8.9940866"><ele>341.99999999999994</ele><time>2026-04-18T13:07:00.975Z</time></trkpt><trkpt lat="44.7221764" lon="8.9940356"><ele>342.0</ele><time>2026-04-18T13:07:07.978Z</time></trkpt><trkpt lat="44.7221209" lon="8.9940981"><ele>342.0</ele><time>2026-04-18T13:07:21.949Z</time></trkpt><trkpt lat="44.7220689" lon="8.9941645"><ele>342.0</ele><time>2026-04-18T13:07:27.974Z</time></trkpt><trkpt lat="44.7220232" lon="8.9940996"><ele>342.0</ele><time>2026-04-18T13:07:55.975Z</time></trkpt><trkpt lat="44.7219862" lon="8.9940126"><ele>341.99999999999994</ele><time>2026-04-18T13:08:01.975Z</time></trkpt><trkpt lat="44.7219914" lon="8.9939147"><ele>342.0</ele><time>2026-04-18T13:08:07.975Z</time></trkpt><trkpt lat="44.7219784" lon="8.9938062"><ele>341.99999999999994</ele><time>2026-04-18T13:08:13.95Z</time></trkpt><trkpt lat="44.721916" lon="8.9937566"><ele>342.0</ele><time>2026-04-18T13:08:19.928Z</time></trkpt><trkpt lat="44.7219112" lon="8.9936632"><ele>342.0</ele><time>2026-04-18T13:08:29.974Z</time></trkpt><trkpt lat="44.7219397" lon="8.9937509"><ele>342.0</ele><time>2026-04-18T13:09:23.971Z</time></trkpt><trkpt lat="44.7219143" lon="8.9938376"><ele>342.0</ele><time>2026-04-18T13:09:28.974Z</time></trkpt><trkpt lat="44.7219125" lon="8.9939404"><ele>341.99999999999994</ele><time>2026-04-18T13:09:34.949Z</time></trkpt><trkpt lat="44.7219131" lon="8.9940317"><ele>342.0</ele><time>2026-04-18T13:09:43.989Z</time></trkpt><trkpt lat="44.721897" lon="8.9941178"><ele>344.4285714285714</ele><time>2026-04-18T13:09:48.974Z</time></trkpt><trkpt lat="44.7219538" lon="8.9941742"><ele>346.85714285714283</ele><time>2026-04-18T13:10:02.975Z</time></trkpt><trkpt lat="44.7220193" lon="8.9942055"><ele>349.2857142857143</ele><time>2026-04-18T13:10:07.975Z</time></trkpt><trkpt lat="44.7220822" lon="8.9942511"><ele>351.71428571428567</ele><time>2026-04-18T13:10:36.949Z</time></trkpt><trkpt lat="44.7221529" lon="8.9942198"><ele>354.14285714285717</ele><time>2026-04-18T13:10:40.975Z</time></trkpt><trkpt lat="44.722219" lon="8.9942159"><ele>356.57142857142856</ele><time>2026-04-18T13:10:44.974Z</time></trkpt><trkpt lat="44.7222856" lon="8.9942614"><ele>359.0</ele><time>2026-04-18T13:10:54.995Z</time></trkpt><trkpt lat="44.7223464" lon="8.9942263"><ele>359.0</ele><time>2026-04-18T13:11:00.975Z</time></trkpt><trkpt lat="44.7223829" lon="8.9941338"><ele>359.0</ele><time>2026-04-18T13:11:06.948Z</time></trkpt><trkpt lat="44.7224114" lon="8.9940528"><ele>359.0</ele><time>2026-04-18T13:11:11.974Z</time></trkpt><trkpt lat="44.7223984" lon="8.9939653"><ele>359.0</ele><time>2026-04-18T13:11:22.928Z</time></trkpt><trkpt lat="44.7224501" lon="8.994026"><ele>359.0</ele><time>2026-04-18T13:14:58.974Z</time></trkpt><trkpt lat="44.7223892" lon="8.9940702"><ele>359.0</ele><time>2026-04-18T13:18:03.974Z</time></trkpt><trkpt lat="44.7224441" lon="8.9941457"><ele>359.0</ele><time>2026-04-18T13:18:50.975Z</time></trkpt><trkpt lat="44.7225043" lon="8.9941791"><ele>359.0</ele><time>2026-04-18T13:18:59.975Z</time></trkpt><trkpt lat="44.7225275" lon="8.9942727"><ele>359.0</ele><time>2026-04-18T13:19:05.974Z</time></trkpt><trkpt lat="44.7225777" lon="8.9943306"><ele>359.0</ele><time>2026-04-18T13:19:07.974Z</time></trkpt><trkpt lat="44.7226735" lon="8.9943165"><ele>359.0</ele><time>2026-04-18T13:19:09.975Z</time></trkpt><trkpt lat="44.7227438" lon="8.9942764"><ele>359.0</ele><time>2026-04-18T13:19:10.975Z</time></trkpt><trkpt lat="44.7228057" lon="8.9942474"><ele>359.0</ele><time>2026-04-18T13:19:11.974Z</time></trkpt><trkpt lat="44.7228707" lon="8.9942073"><ele>359.0</ele><time>2026-04-18T13:19:12.975Z</time></trkpt><trkpt lat="44.7229349" lon="8.9941614"><ele>357.2</ele><time>2026-04-18T13:19:13.975Z</time></trkpt><trkpt lat="44.7229975" lon="8.9941201"><ele>355.4</ele><time>2026-04-18T13:19:14.975Z</time></trkpt><trkpt lat="44.723057" lon="8.9940804"><ele>353.6</ele><time>2026-04-18T13:19:15.975Z</time></trkpt><trkpt lat="44.7231665" lon="8.9939996"><ele>351.8</ele><time>2026-04-18T13:19:17.974Z</time></trkpt><trkpt lat="44.7232622" lon="8.9939264"><ele>350.0</ele><time>2026-04-18T13:19:19.974Z</time></trkpt><trkpt lat="44.7233565" lon="8.9938285"><ele>350.0</ele><time>2026-04-18T13:19:21.974Z</time></trkpt><trkpt lat="44.7233894" lon="8.9937507"><ele>350.0</ele><time>2026-04-18T13:19:22.974Z</time></trkpt><trkpt lat="44.7234021" lon="8.9936533"><ele>350.0</ele><time>2026-04-18T13:19:23.974Z</time></trkpt><trkpt lat="44.7233885" lon="8.9935546"><ele>350.0</ele><time>2026-04-18T13:19:24.975Z</time></trkpt><trkpt lat="44.7233561" lon="8.9934591"><ele>350.0</ele><time>2026-04-18T13:19:25.975Z</time></trkpt><trkpt lat="44.7233149" lon="8.9933636"><ele>350.0</ele><time>2026-04-18T13:19:26.974Z</time></trkpt><trkpt lat="44.7232719" lon="8.9932697"><ele>350.0</ele><time>2026-04-18T13:19:27.974Z</time></trkpt><trkpt lat="44.7232291" lon="8.9931734"><ele>351.0</ele><time>2026-04-18T13:19:28.974Z</time></trkpt><trkpt lat="44.7231812" lon="8.9930712"><ele>352.0</ele><time>2026-04-18T13:19:29.975Z</time></trkpt><trkpt lat="44.7231284" lon="8.9929728"><ele>353.0</ele><time>2026-04-18T13:19:30.974Z</time></trkpt><trkpt lat="44.7230712" lon="8.9928822"><ele>354.0</ele><time>2026-04-18T13:19:31.975Z</time></trkpt><trkpt lat="44.7230138" lon="8.9927914"><ele>355.0</ele><time>2026-04-18T13:19:32.975Z</time></trkpt><trkpt lat="44.722953" lon="8.9926994"><ele>356.0</ele><time>2026-04-18T13:19:33.975Z</time></trkpt><trkpt lat="44.7228921" lon="8.9926054"><ele>358.6</ele><time>2026-04-18T13:19:34.974Z</time></trkpt><trkpt lat="44.7228368" lon="8.992497"><ele>361.20000000000005</ele><time>2026-04-18T13:19:35.975Z</time></trkpt><trkpt lat="44.7227929" lon="8.9923729"><ele>363.79999999999995</ele><time>2026-04-18T13:19:36.974Z</time></trkpt><trkpt lat="44.7227624" lon="8.9922283"><ele>366.4</ele><time>2026-04-18T13:19:37.975Z</time></trkpt><trkpt lat="44.722754" lon="8.9920706"><ele>369.0</ele><time>2026-04-18T13:19:38.974Z</time></trkpt><trkpt lat="44.722762" lon="8.9918979"><ele>369.0</ele><time>2026-04-18T13:19:39.975Z</time></trkpt><trkpt lat="44.7227762" lon="8.9917163"><ele>369.0</ele><time>2026-04-18T13:19:40.974Z</time></trkpt><trkpt lat="44.7227987" lon="8.9915374"><ele>369.0</ele><time>2026-04-18T13:19:41.975Z</time></trkpt><trkpt lat="44.7228365" lon="8.991364"><ele>369.0</ele><time>2026-04-18T13:19:42.975Z</time></trkpt><trkpt lat="44.7228919" lon="8.9912035"><ele>368.75</ele><time>2026-04-18T13:19:43.975Z</time></trkpt><trkpt lat="44.7229556" lon="8.9910565"><ele>368.5</ele><time>2026-04-18T13:19:44.974Z</time></trkpt><trkpt lat="44.7230232" lon="8.9909196"><ele>368.25</ele><time>2026-04-18T13:19:45.975Z</time></trkpt><trkpt lat="44.7230908" lon="8.9907836"><ele>368.0</ele><time>2026-04-18T13:19:46.975Z</time></trkpt><trkpt lat="44.7231452" lon="8.990625"><ele>363.75</ele><time>2026-04-18T13:19:47.975Z</time></trkpt><trkpt lat="44.7231868" lon="8.9904461"><ele>359.5</ele><time>2026-04-18T13:19:48.975Z</time></trkpt><trkpt lat="44.7232155" lon="8.9902515"><ele>355.25</ele><time>2026-04-18T13:19:49.975Z</time></trkpt><trkpt lat="44.7232409" lon="8.990045"><ele>351.0</ele><time>2026-04-18T13:19:50.975Z</time></trkpt><trkpt lat="44.7232687" lon="8.9898324"><ele>349.0</ele><time>2026-04-18T13:19:51.975Z</time></trkpt><trkpt lat="44.7233046" lon="8.989622"><ele>347.0</ele><time>2026-04-18T13:19:52.975Z</time></trkpt><trkpt lat="44.7233455" lon="8.9894131"><ele>345.0</ele><time>2026-04-18T13:19:53.974Z</time></trkpt><trkpt lat="44.7233913" lon="8.9892048"><ele>343.6666666666667</ele><time>2026-04-18T13:19:54.975Z</time></trkpt><trkpt lat="44.7234399" lon="8.9889951"><ele>342.33333333333337</ele><time>2026-04-18T13:19:55.975Z</time></trkpt><trkpt lat="44.7234876" lon="8.9887815"><ele>341.0</ele><time>2026-04-18T13:19:56.975Z</time></trkpt><trkpt lat="44.7235352" lon="8.9885669"><ele>348.25</ele><time>2026-04-18T13:19:57.974Z</time></trkpt><trkpt lat="44.723583" lon="8.9883561"><ele>355.5</ele><time>2026-04-18T13:19:58.974Z</time></trkpt><trkpt lat="44.7236274" lon="8.9881626"><ele>362.75</ele><time>2026-04-18T13:19:59.974Z</time></trkpt><trkpt lat="44.7236668" lon="8.9879834"><ele>370.0</ele><time>2026-04-18T13:20:00.974Z</time></trkpt><trkpt lat="44.7237029" lon="8.9878227"><ele>370.0</ele><time>2026-04-18T13:20:01.975Z</time></trkpt><trkpt lat="44.7237369" lon="8.987673"><ele>370.0</ele><time>2026-04-18T13:20:02.975Z</time></trkpt><trkpt lat="44.7237704" lon="8.9875243"><ele>370.0</ele><time>2026-04-18T13:20:03.974Z</time></trkpt><trkpt lat="44.7238063" lon="8.9873662"><ele>370.0</ele><time>2026-04-18T13:20:04.974Z</time></trkpt><trkpt lat="44.7238444" lon="8.9871988"><ele>366.5</ele><time>2026-04-18T13:20:05.975Z</time></trkpt><trkpt lat="44.7238881" lon="8.9870259"><ele>363.0</ele><time>2026-04-18T13:20:06.975Z</time></trkpt><trkpt lat="44.7239517" lon="8.9868625"><ele>359.5</ele><time>2026-04-18T13:20:07.975Z</time></trkpt><trkpt lat="44.7240379" lon="8.9867309"><ele>356.0</ele><time>2026-04-18T13:20:08.975Z</time></trkpt><trkpt lat="44.7241383" lon="8.986625"><ele>352.5</ele><time>2026-04-18T13:20:09.974Z</time></trkpt><trkpt lat="44.7242529" lon="8.9865533"><ele>349.0</ele><time>2026-04-18T13:20:10.974Z</time></trkpt><trkpt lat="44.7243716" lon="8.9864828"><ele>345.5</ele><time>2026-04-18T13:20:11.974Z</time></trkpt><trkpt lat="44.724474" lon="8.9863672"><ele>342.0</ele><time>2026-04-18T13:20:12.975Z</time></trkpt><trkpt lat="44.7245593" lon="8.9862188"><ele>346.25</ele><time>2026-04-18T13:20:13.975Z</time></trkpt><trkpt lat="44.7246224" lon="8.9860463"><ele>350.5</ele><time>2026-04-18T13:20:14.975Z</time></trkpt><trkpt lat="44.7246745" lon="8.9858637"><ele>354.75</ele><time>2026-04-18T13:20:15.975Z</time></trkpt><trkpt lat="44.7247227" lon="8.9856778"><ele>359.0</ele><time>2026-04-18T13:20:16.975Z</time></trkpt><trkpt lat="44.7247711" lon="8.9854873"><ele>359.0</ele><time>2026-04-18T13:20:17.974Z</time></trkpt><trkpt lat="44.7248176" lon="8.9853028"><ele>359.0</ele><time>2026-04-18T13:20:18.974Z</time></trkpt><trkpt lat="44.7248621" lon="8.9851288"><ele>359.0</ele><time>2026-04-18T13:20:19.975Z</time></trkpt><trkpt lat="44.7249029" lon="8.9849621"><ele>359.0</ele><time>2026-04-18T13:20:20.974Z</time></trkpt><trkpt lat="44.7249458" lon="8.9848017"><ele>355.25</ele><time>2026-04-18T13:20:21.975Z</time></trkpt><trkpt lat="44.7249916" lon="8.9846382"><ele>351.5</ele><time>2026-04-18T13:20:22.975Z</time></trkpt><trkpt lat="44.7250444" lon="8.9844699"><ele>347.75</ele><time>2026-04-18T13:20:23.975Z</time></trkpt><trkpt lat="44.7251035" lon="8.984298"><ele>344.0</ele><time>2026-04-18T13:20:24.974Z</time></trkpt><trkpt lat="44.7251655" lon="8.9841219"><ele>347.6666666666667</ele><time>2026-04-18T13:20:25.974Z</time></trkpt><trkpt lat="44.7252347" lon="8.9839325"><ele>351.3333333333333</ele><time>2026-04-18T13:20:26.975Z</time></trkpt><trkpt lat="44.7253118" lon="8.9837334"><ele>355.0</ele><time>2026-04-18T13:20:27.974Z</time></trkpt><trkpt lat="44.7253949" lon="8.983526"><ele>349.0</ele><time>2026-04-18T13:20:28.975Z</time></trkpt><trkpt lat="44.725483" lon="8.9833186"><ele>343.0</ele><time>2026-04-18T13:20:29.975Z</time></trkpt><trkpt lat="44.7255732" lon="8.9831272"><ele>337.0</ele><time>2026-04-18T13:20:30.975Z</time></trkpt><trkpt lat="44.7256634" lon="8.9829464"><ele>337.0</ele><time>2026-04-18T13:20:31.974Z</time></trkpt><trkpt lat="44.7257532" lon="8.9827756"><ele>337.0</ele><time>2026-04-18T13:20:32.975Z</time></trkpt><trkpt lat="44.7258395" lon="8.9826101"><ele>337.0</ele><time>2026-04-18T13:20:33.975Z</time></trkpt><trkpt lat="44.7259249" lon="8.982449"><ele>337.0</ele><time>2026-04-18T13:20:34.975Z</time></trkpt><trkpt lat="44.7260137" lon="8.982289"><ele>338.0</ele><time>2026-04-18T13:20:35.975Z</time></trkpt><trkpt lat="44.72611" lon="8.9821353"><ele>339.0</ele><time>2026-04-18T13:20:36.974Z</time></trkpt><trkpt lat="44.7262237" lon="8.9820012"><ele>340.0</ele><time>2026-04-18T13:20:37.975Z</time></trkpt><trkpt lat="44.7263487" lon="8.9818879"><ele>341.0</ele><time>2026-04-18T13:20:38.975Z</time></trkpt><trkpt lat="44.7264787" lon="8.9817916"><ele>341.0</ele><time>2026-04-18T13:20:39.975Z</time></trkpt><trkpt lat="44.726606" lon="8.9816941"><ele>341.0</ele><time>2026-04-18T13:20:40.975Z</time></trkpt><trkpt lat="44.7267218" lon="8.9815924"><ele>341.0</ele><time>2026-04-18T13:20:41.975Z</time></trkpt><trkpt lat="44.7268239" lon="8.9814776"><ele>341.0</ele><time>2026-04-18T13:20:42.975Z</time></trkpt><trkpt lat="44.7269145" lon="8.9813466"><ele>340.25</ele><time>2026-04-18T13:20:43.975Z</time></trkpt><trkpt lat="44.7269961" lon="8.9811944"><ele>339.5</ele><time>2026-04-18T13:20:44.974Z</time></trkpt><trkpt lat="44.7270739" lon="8.9810316"><ele>338.75</ele><time>2026-04-18T13:20:45.974Z</time></trkpt><trkpt lat="44.7271566" lon="8.98086"><ele>338.0</ele><time>2026-04-18T13:20:46.975Z</time></trkpt><trkpt lat="44.7272424" lon="8.980681"><ele>334.33333333333337</ele><time>2026-04-18T13:20:47.974Z</time></trkpt><trkpt lat="44.7273298" lon="8.9804973"><ele>330.6666666666667</ele><time>2026-04-18T13:20:48.974Z</time></trkpt><trkpt lat="44.727418" lon="8.9803104"><ele>327.0</ele><time>2026-04-18T13:20:49.975Z</time></trkpt><trkpt lat="44.7275048" lon="8.9801302"><ele>325.5</ele><time>2026-04-18T13:20:50.975Z</time></trkpt><trkpt lat="44.7275729" lon="8.9799466"><ele>324.0</ele><time>2026-04-18T13:20:51.974Z</time></trkpt><trkpt lat="44.7276043" lon="8.9797532"><ele>322.5</ele><time>2026-04-18T13:20:52.975Z</time></trkpt><trkpt lat="44.7276068" lon="8.9795553"><ele>321.0</ele><time>2026-04-18T13:20:53.975Z</time></trkpt><trkpt lat="44.7275874" lon="8.979358"><ele>320.25</ele><time>2026-04-18T13:20:54.975Z</time></trkpt><trkpt lat="44.7275611" lon="8.9791565"><ele>319.5</ele><time>2026-04-18T13:20:55.974Z</time></trkpt><trkpt lat="44.7275315" lon="8.9789507"><ele>318.75</ele><time>2026-04-18T13:20:56.975Z</time></trkpt><trkpt lat="44.7274997" lon="8.9787403"><ele>318.0</ele><time>2026-04-18T13:20:57.975Z</time></trkpt><trkpt lat="44.7274679" lon="8.9785261"><ele>317.75</ele><time>2026-04-18T13:20:58.975Z</time></trkpt><trkpt lat="44.7274354" lon="8.9783143"><ele>317.5</ele><time>2026-04-18T13:20:59.975Z</time></trkpt><trkpt lat="44.7274051" lon="8.9781215"><ele>317.25</ele><time>2026-04-18T13:21:00.975Z</time></trkpt><trkpt lat="44.7273806" lon="8.977956"><ele>317.0</ele><time>2026-04-18T13:21:01.974Z</time></trkpt><trkpt lat="44.7273609" lon="8.9778109"><ele>317.0</ele><time>2026-04-18T13:21:02.974Z</time></trkpt><trkpt lat="44.72734" lon="8.9776685"><ele>317.0</ele><time>2026-04-18T13:21:03.974Z</time></trkpt><trkpt lat="44.7273192" lon="8.9775329"><ele>317.0</ele><time>2026-04-18T13:21:04.975Z</time></trkpt><trkpt lat="44.7272983" lon="8.977399"><ele>317.0</ele><time>2026-04-18T13:21:05.974Z</time></trkpt><trkpt lat="44.7272778" lon="8.9772576"><ele>317.0</ele><time>2026-04-18T13:21:06.974Z</time></trkpt><trkpt lat="44.727262" lon="8.9771057"><ele>317.0</ele><time>2026-04-18T13:21:07.974Z</time></trkpt><trkpt lat="44.7272596" lon="8.9769401"><ele>317.0</ele><time>2026-04-18T13:21:08.974Z</time></trkpt><trkpt lat="44.72728" lon="8.9767638"><ele>317.0</ele><time>2026-04-18T13:21:09.975Z</time></trkpt><trkpt lat="44.727315" lon="8.9765855"><ele>317.0</ele><time>2026-04-18T13:21:10.975Z</time></trkpt><trkpt lat="44.7273488" lon="8.9764184"><ele>316.6</ele><time>2026-04-18T13:21:11.974Z</time></trkpt><trkpt lat="44.727379" lon="8.9762632"><ele>316.2</ele><time>2026-04-18T13:21:12.975Z</time></trkpt><trkpt lat="44.7274048" lon="8.9761215"><ele>315.8</ele><time>2026-04-18T13:21:13.974Z</time></trkpt><trkpt lat="44.7274323" lon="8.9759923"><ele>315.4</ele><time>2026-04-18T13:21:14.975Z</time></trkpt><trkpt lat="44.7274667" lon="8.9758641"><ele>315.0</ele><time>2026-04-18T13:21:15.975Z</time></trkpt><trkpt lat="44.7275221" lon="8.9757468"><ele>314.4</ele><time>2026-04-18T13:21:16.975Z</time></trkpt><trkpt lat="44.7276011" lon="8.9756631"><ele>313.8</ele><time>2026-04-18T13:21:17.975Z</time></trkpt><trkpt lat="44.7276947" lon="8.9756247"><ele>313.2</ele><time>2026-04-18T13:21:18.974Z</time></trkpt><trkpt lat="44.7277949" lon="8.9756358"><ele>312.6</ele><time>2026-04-18T13:21:19.975Z</time></trkpt><trkpt lat="44.7279028" lon="8.9756832"><ele>312.0</ele><time>2026-04-18T13:21:20.975Z</time></trkpt><trkpt lat="44.728021" lon="8.9757373"><ele>312.0</ele><time>2026-04-18T13:21:21.975Z</time></trkpt><trkpt lat="44.7281519" lon="8.9757403"><ele>312.0</ele><time>2026-04-18T13:21:22.974Z</time></trkpt><trkpt lat="44.728279" lon="8.9756964"><ele>312.0</ele><time>2026-04-18T13:21:23.974Z</time></trkpt><trkpt lat="44.7283968" lon="8.9756091"><ele>312.0</ele><time>2026-04-18T13:21:24.975Z</time></trkpt><trkpt lat="44.7284984" lon="8.9754859"><ele>311.5</ele><time>2026-04-18T13:21:25.975Z</time></trkpt><trkpt lat="44.7285905" lon="8.975334"><ele>311.0</ele><time>2026-04-18T13:21:26.975Z</time></trkpt><trkpt lat="44.7286837" lon="8.9751766"><ele>310.5</ele><time>2026-04-18T13:21:27.975Z</time></trkpt><trkpt lat="44.7287758" lon="8.9750184"><ele>310.0</ele><time>2026-04-18T13:21:28.974Z</time></trkpt><trkpt lat="44.7288658" lon="8.9748723"><ele>310.0</ele><time>2026-04-18T13:21:29.974Z</time></trkpt><trkpt lat="44.7289483" lon="8.974731"><ele>310.0</ele><time>2026-04-18T13:21:30.975Z</time></trkpt><trkpt lat="44.7290194" lon="8.9745884"><ele>310.0</ele><time>2026-04-18T13:21:31.975Z</time></trkpt><trkpt lat="44.7290747" lon="8.974446"><ele>310.0</ele><time>2026-04-18T13:21:32.975Z</time></trkpt><trkpt lat="44.7291222" lon="8.9743098"><ele>309.8</ele><time>2026-04-18T13:21:33.975Z</time></trkpt><trkpt lat="44.7291612" lon="8.9741815"><ele>309.6</ele><time>2026-04-18T13:21:34.974Z</time></trkpt><trkpt lat="44.7291985" lon="8.9740605"><ele>309.4</ele><time>2026-04-18T13:21:35.974Z</time></trkpt><trkpt lat="44.7292273" lon="8.9739438"><ele>309.2</ele><time>2026-04-18T13:21:36.975Z</time></trkpt><trkpt lat="44.7292455" lon="8.9738247"><ele>309.0</ele><time>2026-04-18T13:21:37.974Z</time></trkpt><trkpt lat="44.729253" lon="8.9736979"><ele>309.0</ele><time>2026-04-18T13:21:38.974Z</time></trkpt><trkpt lat="44.7292454" lon="8.9735615"><ele>309.0</ele><time>2026-04-18T13:21:39.975Z</time></trkpt><trkpt lat="44.7292219" lon="8.9734199"><ele>309.0</ele><time>2026-04-18T13:21:40.975Z</time></trkpt><trkpt lat="44.7291746" lon="8.9732946"><ele>309.0</ele><time>2026-04-18T13:21:41.975Z</time></trkpt><trkpt lat="44.7291024" lon="8.9732114"><ele>309.0</ele><time>2026-04-18T13:21:42.975Z</time></trkpt><trkpt lat="44.729012" lon="8.9731639"><ele>308.6666666666667</ele><time>2026-04-18T13:21:43.974Z</time></trkpt><trkpt lat="44.7289149" lon="8.9731252"><ele>308.3333333333333</ele><time>2026-04-18T13:21:44.974Z</time></trkpt><trkpt lat="44.7288427" lon="8.9730563"><ele>308.0</ele><time>2026-04-18T13:21:45.975Z</time></trkpt><trkpt lat="44.7287885" lon="8.972974"><ele>307.66666666666663</ele><time>2026-04-18T13:21:46.975Z</time></trkpt><trkpt lat="44.7287533" lon="8.9728755"><ele>307.3333333333333</ele><time>2026-04-18T13:21:47.975Z</time></trkpt><trkpt lat="44.7287285" lon="8.9727701"><ele>307.0</ele><time>2026-04-18T13:21:48.975Z</time></trkpt><trkpt lat="44.7287103" lon="8.9726703"><ele>307.0</ele><time>2026-04-18T13:21:49.975Z</time></trkpt><trkpt lat="44.7286959" lon="8.9725734"><ele>307.0</ele><time>2026-04-18T13:21:50.975Z</time></trkpt><trkpt lat="44.7286819" lon="8.9724639"><ele>307.0</ele><time>2026-04-18T13:21:51.975Z</time></trkpt><trkpt lat="44.7286677" lon="8.9723448"><ele>307.0</ele><time>2026-04-18T13:21:52.975Z</time></trkpt><trkpt lat="44.7286626" lon="8.972224"><ele>307.0</ele><time>2026-04-18T13:21:53.974Z</time></trkpt><trkpt lat="44.7286579" lon="8.9721066"><ele>307.0</ele><time>2026-04-18T13:21:54.975Z</time></trkpt><trkpt lat="44.728648" lon="8.9719858"><ele>307.16666666666663</ele><time>2026-04-18T13:21:55.975Z</time></trkpt><trkpt lat="44.7286289" lon="8.9718683"><ele>307.3333333333333</ele><time>2026-04-18T13:21:56.974Z</time></trkpt><trkpt lat="44.7285992" lon="8.9717551"><ele>307.5</ele><time>2026-04-18T13:21:57.974Z</time></trkpt><trkpt lat="44.72857" lon="8.971644"><ele>307.6666666666667</ele><time>2026-04-18T13:21:58.975Z</time></trkpt><trkpt lat="44.7285412" lon="8.9715382"><ele>307.83333333333337</ele><time>2026-04-18T13:21:59.974Z</time></trkpt><trkpt lat="44.7285177" lon="8.971432"><ele>308.0</ele><time>2026-04-18T13:22:00.975Z</time></trkpt><trkpt lat="44.7285038" lon="8.9713205"><ele>308.0</ele><time>2026-04-18T13:22:01.975Z</time></trkpt><trkpt lat="44.7285095" lon="8.9712002"><ele>308.0</ele><time>2026-04-18T13:22:02.975Z</time></trkpt><trkpt lat="44.7285369" lon="8.9710794"><ele>308.0</ele><time>2026-04-18T13:22:03.974Z</time></trkpt><trkpt lat="44.7285795" lon="8.9709549"><ele>308.0</ele><time>2026-04-18T13:22:04.974Z</time></trkpt><trkpt lat="44.7286285" lon="8.9708324"><ele>308.0</ele><time>2026-04-18T13:22:05.975Z</time></trkpt><trkpt lat="44.7286781" lon="8.9707047"><ele>310.2</ele><time>2026-04-18T13:22:06.975Z</time></trkpt><trkpt lat="44.7287304" lon="8.9705735"><ele>312.4</ele><time>2026-04-18T13:22:07.974Z</time></trkpt><trkpt lat="44.728786" lon="8.9704409"><ele>314.59999999999997</ele><time>2026-04-18T13:22:08.974Z</time></trkpt><trkpt lat="44.7288448" lon="8.970306"><ele>316.8</ele><time>2026-04-18T13:22:09.975Z</time></trkpt><trkpt lat="44.7289051" lon="8.9701666"><ele>319.0</ele><time>2026-04-18T13:22:10.974Z</time></trkpt><trkpt lat="44.7289685" lon="8.9700318"><ele>318.75</ele><time>2026-04-18T13:22:11.975Z</time></trkpt><trkpt lat="44.7290296" lon="8.9698944"><ele>318.5</ele><time>2026-04-18T13:22:12.975Z</time></trkpt><trkpt lat="44.7290944" lon="8.969758"><ele>318.25</ele><time>2026-04-18T13:22:13.974Z</time></trkpt><trkpt lat="44.7291554" lon="8.9696227"><ele>318.0</ele><time>2026-04-18T13:22:14.975Z</time></trkpt><trkpt lat="44.7292109" lon="8.969494"><ele>318.0</ele><time>2026-04-18T13:22:15.974Z</time></trkpt><trkpt lat="44.7292619" lon="8.9693717"><ele>318.0</ele><time>2026-04-18T13:22:16.975Z</time></trkpt><trkpt lat="44.7293119" lon="8.9692518"><ele>318.0</ele><time>2026-04-18T13:22:17.975Z</time></trkpt><trkpt lat="44.7293579" lon="8.9691358"><ele>318.0</ele><time>2026-04-18T13:22:18.974Z</time></trkpt><trkpt lat="44.729405" lon="8.9690332"><ele>318.0</ele><time>2026-04-18T13:22:19.975Z</time></trkpt><trkpt lat="44.729463" lon="8.9689535"><ele>318.4</ele><time>2026-04-18T13:22:20.974Z</time></trkpt><trkpt lat="44.7295319" lon="8.9688947"><ele>318.8</ele><time>2026-04-18T13:22:21.975Z</time></trkpt><trkpt lat="44.729613" lon="8.9688619"><ele>319.2</ele><time>2026-04-18T13:22:22.975Z</time></trkpt><trkpt lat="44.7297043" lon="8.9688444"><ele>319.6</ele><time>2026-04-18T13:22:23.975Z</time></trkpt><trkpt lat="44.7298066" lon="8.9688333"><ele>320.0</ele><time>2026-04-18T13:22:24.974Z</time></trkpt><trkpt lat="44.7299169" lon="8.9688255"><ele>320.0</ele><time>2026-04-18T13:22:25.975Z</time></trkpt><trkpt lat="44.7300339" lon="8.968826"><ele>320.0</ele><time>2026-04-18T13:22:26.975Z</time></trkpt><trkpt lat="44.7301541" lon="8.9688282"><ele>320.0</ele><time>2026-04-18T13:22:27.974Z</time></trkpt><trkpt lat="44.7302773" lon="8.9688329"><ele>320.0</ele><time>2026-04-18T13:22:28.975Z</time></trkpt><trkpt lat="44.730398" lon="8.9688262"><ele>320.25</ele><time>2026-04-18T13:22:29.974Z</time></trkpt><trkpt lat="44.7305132" lon="8.9687933"><ele>320.5</ele><time>2026-04-18T13:22:30.974Z</time></trkpt><trkpt lat="44.7306145" lon="8.9687187"><ele>320.75</ele><time>2026-04-18T13:22:31.974Z</time></trkpt><trkpt lat="44.7306939" lon="8.9686032"><ele>321.0</ele><time>2026-04-18T13:22:32.974Z</time></trkpt><trkpt lat="44.7307574" lon="8.9684529"><ele>320.0</ele><time>2026-04-18T13:22:33.975Z</time></trkpt><trkpt lat="44.7308142" lon="8.9682834"><ele>319.0</ele><time>2026-04-18T13:22:34.974Z</time></trkpt><trkpt lat="44.7308702" lon="8.9680957"><ele>318.0</ele><time>2026-04-18T13:22:35.974Z</time></trkpt><trkpt lat="44.7309335" lon="8.967898"><ele>317.0</ele><time>2026-04-18T13:22:36.974Z</time></trkpt><trkpt lat="44.7310057" lon="8.9676922"><ele>316.6666666666667</ele><time>2026-04-18T13:22:37.975Z</time></trkpt><trkpt lat="44.7310877" lon="8.9674777"><ele>316.3333333333333</ele><time>2026-04-18T13:22:38.974Z</time></trkpt><trkpt lat="44.7311811" lon="8.9672637"><ele>316.0</ele><time>2026-04-18T13:22:39.975Z</time></trkpt><trkpt lat="44.7312886" lon="8.9670545"><ele>316.0</ele><time>2026-04-18T13:22:40.974Z</time></trkpt><trkpt lat="44.7314072" lon="8.9668508"><ele>316.0</ele><time>2026-04-18T13:22:41.975Z</time></trkpt><trkpt lat="44.7315292" lon="8.9666566"><ele>316.0</ele><time>2026-04-18T13:22:42.974Z</time></trkpt><trkpt lat="44.7316499" lon="8.9664732"><ele>316.0</ele><time>2026-04-18T13:22:43.975Z</time></trkpt><trkpt lat="44.7317682" lon="8.9662952"><ele>316.0</ele><time>2026-04-18T13:22:44.975Z</time></trkpt><trkpt lat="44.7318814" lon="8.9661166"><ele>316.0</ele><time>2026-04-18T13:22:45.974Z</time></trkpt><trkpt lat="44.7319933" lon="8.9659409"><ele>315.3333333333333</ele><time>2026-04-18T13:22:46.974Z</time></trkpt><trkpt lat="44.7321022" lon="8.9657628"><ele>314.6666666666667</ele><time>2026-04-18T13:22:47.974Z</time></trkpt><trkpt lat="44.7322065" lon="8.9655833"><ele>314.0</ele><time>2026-04-18T13:22:48.974Z</time></trkpt><trkpt lat="44.7323055" lon="8.9653988"><ele>314.0</ele><time>2026-04-18T13:22:49.975Z</time></trkpt><trkpt lat="44.7324013" lon="8.9652086"><ele>314.0</ele><time>2026-04-18T13:22:50.975Z</time></trkpt><trkpt lat="44.7324916" lon="8.9650087"><ele>314.0</ele><time>2026-04-18T13:22:51.975Z</time></trkpt><trkpt lat="44.732576" lon="8.9648009"><ele>314.0</ele><time>2026-04-18T13:22:52.975Z</time></trkpt><trkpt lat="44.7326594" lon="8.9645869"><ele>314.0</ele><time>2026-04-18T13:22:53.975Z</time></trkpt><trkpt lat="44.7327393" lon="8.9643629"><ele>314.0</ele><time>2026-04-18T13:22:54.975Z</time></trkpt><trkpt lat="44.7328126" lon="8.9641343"><ele>314.6666666666667</ele><time>2026-04-18T13:22:55.975Z</time></trkpt><trkpt lat="44.7328778" lon="8.9638974"><ele>315.3333333333333</ele><time>2026-04-18T13:22:56.975Z</time></trkpt><trkpt lat="44.7329358" lon="8.9636576"><ele>316.0</ele><time>2026-04-18T13:22:57.975Z</time></trkpt><trkpt lat="44.7329881" lon="8.9634141"><ele>315.3333333333333</ele><time>2026-04-18T13:22:58.975Z</time></trkpt><trkpt lat="44.7330338" lon="8.9631704"><ele>314.6666666666667</ele><time>2026-04-18T13:22:59.975Z</time></trkpt><trkpt lat="44.7330698" lon="8.9629244"><ele>314.0</ele><time>2026-04-18T13:23:00.975Z</time></trkpt><trkpt lat="44.7330989" lon="8.9626794"><ele>312.6666666666667</ele><time>2026-04-18T13:23:01.975Z</time></trkpt><trkpt lat="44.7331203" lon="8.9624398"><ele>311.3333333333333</ele><time>2026-04-18T13:23:02.974Z</time></trkpt><trkpt lat="44.7331374" lon="8.9622084"><ele>310.0</ele><time>2026-04-18T13:23:03.974Z</time></trkpt><trkpt lat="44.7331521" lon="8.9619828"><ele>310.0</ele><time>2026-04-18T13:23:04.974Z</time></trkpt><trkpt lat="44.73317" lon="8.9617526"><ele>310.0</ele><time>2026-04-18T13:23:05.975Z</time></trkpt><trkpt lat="44.7331862" lon="8.9615189"><ele>310.0</ele><time>2026-04-18T13:23:06.975Z</time></trkpt><trkpt lat="44.733204" lon="8.961279"><ele>309.66666666666663</ele><time>2026-04-18T13:23:07.975Z</time></trkpt><trkpt lat="44.7332203" lon="8.9610345"><ele>309.3333333333333</ele><time>2026-04-18T13:23:08.975Z</time></trkpt><trkpt lat="44.7332379" lon="8.9607882"><ele>309.0</ele><time>2026-04-18T13:23:09.975Z</time></trkpt><trkpt lat="44.733254" lon="8.9605376"><ele>308.6666666666667</ele><time>2026-04-18T13:23:10.974Z</time></trkpt><trkpt lat="44.7332696" lon="8.9602885"><ele>308.33333333333337</ele><time>2026-04-18T13:23:11.975Z</time></trkpt><trkpt lat="44.7332854" lon="8.9600387"><ele>308.0</ele><time>2026-04-18T13:23:12.974Z</time></trkpt><trkpt lat="44.7333018" lon="8.9597877"><ele>308.0</ele><time>2026-04-18T13:23:13.975Z</time></trkpt><trkpt lat="44.7333198" lon="8.9595438"><ele>308.0</ele><time>2026-04-18T13:23:14.975Z</time></trkpt><trkpt lat="44.733336" lon="8.959304"><ele>308.0</ele><time>2026-04-18T13:23:15.975Z</time></trkpt><trkpt lat="44.7333509" lon="8.9590665"><ele>307.6666666666667</ele><time>2026-04-18T13:23:16.974Z</time></trkpt><trkpt lat="44.7333638" lon="8.958833"><ele>307.3333333333333</ele><time>2026-04-18T13:23:17.975Z</time></trkpt><trkpt lat="44.7333728" lon="8.9586014"><ele>307.0</ele><time>2026-04-18T13:23:18.975Z</time></trkpt><trkpt lat="44.7333788" lon="8.9583707"><ele>306.66666666666663</ele><time>2026-04-18T13:23:19.975Z</time></trkpt><trkpt lat="44.7333821" lon="8.9581418"><ele>306.3333333333333</ele><time>2026-04-18T13:23:20.975Z</time></trkpt><trkpt lat="44.7333819" lon="8.9579113"><ele>306.0</ele><time>2026-04-18T13:23:21.974Z</time></trkpt><trkpt lat="44.7333796" lon="8.957678"><ele>305.6666666666667</ele><time>2026-04-18T13:23:22.975Z</time></trkpt><trkpt lat="44.7333767" lon="8.9574393"><ele>305.33333333333337</ele><time>2026-04-18T13:23:23.974Z</time></trkpt><trkpt lat="44.7333733" lon="8.957196"><ele>305.0</ele><time>2026-04-18T13:23:24.975Z</time></trkpt><trkpt lat="44.7333693" lon="8.9569486"><ele>305.0</ele><time>2026-04-18T13:23:25.974Z</time></trkpt><trkpt lat="44.733365" lon="8.9567006"><ele>305.0</ele><time>2026-04-18T13:23:26.975Z</time></trkpt><trkpt lat="44.7333608" lon="8.9564475"><ele>305.0</ele><time>2026-04-18T13:23:27.975Z</time></trkpt><trkpt lat="44.7333559" lon="8.956195"><ele>305.0</ele><time>2026-04-18T13:23:28.975Z</time></trkpt><trkpt lat="44.7333522" lon="8.9559429"><ele>305.0</ele><time>2026-04-18T13:23:29.975Z</time></trkpt><trkpt lat="44.7333491" lon="8.9556901"><ele>305.0</ele><time>2026-04-18T13:23:30.974Z</time></trkpt><trkpt lat="44.7333451" lon="8.9554409"><ele>305.0</ele><time>2026-04-18T13:23:31.975Z</time></trkpt><trkpt lat="44.7333403" lon="8.9551887"><ele>305.0</ele><time>2026-04-18T13:23:32.975Z</time></trkpt><trkpt lat="44.733338" lon="8.9549374"><ele>305.0</ele><time>2026-04-18T13:23:33.974Z</time></trkpt><trkpt lat="44.7333366" lon="8.954688"><ele>305.0</ele><time>2026-04-18T13:23:34.974Z</time></trkpt><trkpt lat="44.7333355" lon="8.9544355"><ele>305.0</ele><time>2026-04-18T13:23:35.975Z</time></trkpt><trkpt lat="44.733333" lon="8.9541864"><ele>305.0</ele><time>2026-04-18T13:23:36.975Z</time></trkpt><trkpt lat="44.73333" lon="8.9539456"><ele>304.6666666666667</ele><time>2026-04-18T13:23:37.974Z</time></trkpt><trkpt lat="44.7333279" lon="8.9536994"><ele>304.3333333333333</ele><time>2026-04-18T13:23:38.974Z</time></trkpt><trkpt lat="44.733324" lon="8.9534519"><ele>304.0</ele><time>2026-04-18T13:23:39.975Z</time></trkpt><trkpt lat="44.7333198" lon="8.953207"><ele>303.3333333333333</ele><time>2026-04-18T13:23:40.975Z</time></trkpt><trkpt lat="44.7333142" lon="8.9529613"><ele>302.6666666666667</ele><time>2026-04-18T13:23:41.975Z</time></trkpt><trkpt lat="44.7333078" lon="8.9527158"><ele>302.0</ele><time>2026-04-18T13:23:42.975Z</time></trkpt><trkpt lat="44.7333028" lon="8.9524687"><ele>301.6666666666667</ele><time>2026-04-18T13:23:43.974Z</time></trkpt><trkpt lat="44.7332975" lon="8.9522253"><ele>301.3333333333333</ele><time>2026-04-18T13:23:44.975Z</time></trkpt><trkpt lat="44.733292" lon="8.9519839"><ele>301.0</ele><time>2026-04-18T13:23:45.975Z</time></trkpt><trkpt lat="44.7332845" lon="8.9517453"><ele>301.3333333333333</ele><time>2026-04-18T13:23:46.975Z</time></trkpt><trkpt lat="44.7332779" lon="8.9515203"><ele>301.6666666666667</ele><time>2026-04-18T13:23:47.975Z</time></trkpt><trkpt lat="44.7332707" lon="8.951305"><ele>302.0</ele><time>2026-04-18T13:23:48.975Z</time></trkpt><trkpt lat="44.7332637" lon="8.9510876"><ele>301.6666666666667</ele><time>2026-04-18T13:23:49.975Z</time></trkpt><trkpt lat="44.7332563" lon="8.9508694"><ele>301.3333333333333</ele><time>2026-04-18T13:23:50.975Z</time></trkpt><trkpt lat="44.7332484" lon="8.9506543"><ele>301.0</ele><time>2026-04-18T13:23:51.975Z</time></trkpt><trkpt lat="44.7332395" lon="8.9504503"><ele>301.0</ele><time>2026-04-18T13:23:52.974Z</time></trkpt><trkpt lat="44.7332329" lon="8.9502539"><ele>301.0</ele><time>2026-04-18T13:23:53.974Z</time></trkpt><trkpt lat="44.733227" lon="8.9500658"><ele>301.0</ele><time>2026-04-18T13:23:54.974Z</time></trkpt><trkpt lat="44.7332215" lon="8.9498826"><ele>301.0</ele><time>2026-04-18T13:23:55.975Z</time></trkpt><trkpt lat="44.7332164" lon="8.9497051"><ele>300.75</ele><time>2026-04-18T13:23:56.975Z</time></trkpt><trkpt lat="44.7332108" lon="8.9495319"><ele>300.5</ele><time>2026-04-18T13:23:57.975Z</time></trkpt><trkpt lat="44.7332046" lon="8.9493559"><ele>300.25</ele><time>2026-04-18T13:23:58.975Z</time></trkpt><trkpt lat="44.7331986" lon="8.9491782"><ele>300.0</ele><time>2026-04-18T13:23:59.974Z</time></trkpt><trkpt lat="44.7331931" lon="8.9489967"><ele>300.0</ele><time>2026-04-18T13:24:00.975Z</time></trkpt><trkpt lat="44.7331865" lon="8.9488067"><ele>300.0</ele><time>2026-04-18T13:24:01.974Z</time></trkpt><trkpt lat="44.733181" lon="8.9486211"><ele>300.0</ele><time>2026-04-18T13:24:02.975Z</time></trkpt><trkpt lat="44.7331762" lon="8.9484417"><ele>300.0</ele><time>2026-04-18T13:24:03.974Z</time></trkpt><trkpt lat="44.7331716" lon="8.9482707"><ele>299.75</ele><time>2026-04-18T13:24:04.974Z</time></trkpt><trkpt lat="44.7331674" lon="8.9480986"><ele>299.5</ele><time>2026-04-18T13:24:05.974Z</time></trkpt><trkpt lat="44.7331641" lon="8.9479212"><ele>299.25</ele><time>2026-04-18T13:24:06.974Z</time></trkpt><trkpt lat="44.7331604" lon="8.9477564"><ele>299.0</ele><time>2026-04-18T13:24:07.975Z</time></trkpt><trkpt lat="44.7331587" lon="8.9475977"><ele>298.5</ele><time>2026-04-18T13:24:08.974Z</time></trkpt><trkpt lat="44.733157" lon="8.9474328"><ele>298.0</ele><time>2026-04-18T13:24:09.975Z</time></trkpt><trkpt lat="44.7331588" lon="8.9472598"><ele>297.5</ele><time>2026-04-18T13:24:10.974Z</time></trkpt><trkpt lat="44.7331634" lon="8.9470798"><ele>297.0</ele><time>2026-04-18T13:24:11.975Z</time></trkpt><trkpt lat="44.7331668" lon="8.9469043"><ele>297.0</ele><time>2026-04-18T13:24:12.975Z</time></trkpt><trkpt lat="44.7331706" lon="8.9467292"><ele>297.0</ele><time>2026-04-18T13:24:13.974Z</time></trkpt><trkpt lat="44.733171" lon="8.9465522"><ele>297.0</ele><time>2026-04-18T13:24:14.974Z</time></trkpt><trkpt lat="44.7331687" lon="8.9463714"><ele>297.0</ele><time>2026-04-18T13:24:15.975Z</time></trkpt><trkpt lat="44.7331655" lon="8.9461868"><ele>297.0</ele><time>2026-04-18T13:24:16.975Z</time></trkpt><trkpt lat="44.7331586" lon="8.9459998"><ele>297.0</ele><time>2026-04-18T13:24:17.975Z</time></trkpt><trkpt lat="44.7331495" lon="8.9458116"><ele>297.0</ele><time>2026-04-18T13:24:18.974Z</time></trkpt><trkpt lat="44.7331358" lon="8.9456287"><ele>297.0</ele><time>2026-04-18T13:24:19.974Z</time></trkpt><trkpt lat="44.7331186" lon="8.9454495"><ele>297.0</ele><time>2026-04-18T13:24:20.975Z</time></trkpt><trkpt lat="44.7330953" lon="8.9452752"><ele>297.0</ele><time>2026-04-18T13:24:21.975Z</time></trkpt><trkpt lat="44.7330693" lon="8.9451034"><ele>297.0</ele><time>2026-04-18T13:24:22.975Z</time></trkpt><trkpt lat="44.7330416" lon="8.9449393"><ele>297.0</ele><time>2026-04-18T13:24:23.975Z</time></trkpt><trkpt lat="44.7330128" lon="8.9447779"><ele>296.25</ele><time>2026-04-18T13:24:24.975Z</time></trkpt><trkpt lat="44.7329791" lon="8.9446186"><ele>295.5</ele><time>2026-04-18T13:24:25.975Z</time></trkpt><trkpt lat="44.7329433" lon="8.9444668"><ele>294.75</ele><time>2026-04-18T13:24:26.975Z</time></trkpt><trkpt lat="44.7329034" lon="8.9443134"><ele>294.0</ele><time>2026-04-18T13:24:27.975Z</time></trkpt><trkpt lat="44.7328586" lon="8.9441519"><ele>293.75</ele><time>2026-04-18T13:24:28.975Z</time></trkpt><trkpt lat="44.7328096" lon="8.943986"><ele>293.5</ele><time>2026-04-18T13:24:29.975Z</time></trkpt><trkpt lat="44.7327553" lon="8.9438156"><ele>293.25</ele><time>2026-04-18T13:24:30.974Z</time></trkpt><trkpt lat="44.7326962" lon="8.9436495"><ele>293.0</ele><time>2026-04-18T13:24:31.975Z</time></trkpt><trkpt lat="44.7326297" lon="8.9434819"><ele>293.6666666666667</ele><time>2026-04-18T13:24:32.975Z</time></trkpt><trkpt lat="44.7325501" lon="8.9433069"><ele>294.3333333333333</ele><time>2026-04-18T13:24:33.975Z</time></trkpt><trkpt lat="44.7324687" lon="8.9431278"><ele>295.0</ele><time>2026-04-18T13:24:34.975Z</time></trkpt><trkpt lat="44.7323868" lon="8.9429469"><ele>295.0</ele><time>2026-04-18T13:24:35.975Z</time></trkpt><trkpt lat="44.7323092" lon="8.9427712"><ele>295.0</ele><time>2026-04-18T13:24:36.974Z</time></trkpt><trkpt lat="44.7322355" lon="8.9426024"><ele>295.0</ele><time>2026-04-18T13:24:37.975Z</time></trkpt><trkpt lat="44.7321632" lon="8.9424322"><ele>295.0</ele><time>2026-04-18T13:24:38.975Z</time></trkpt><trkpt lat="44.7320917" lon="8.9422686"><ele>294.5</ele><time>2026-04-18T13:24:39.975Z</time></trkpt><trkpt lat="44.7320208" lon="8.9421083"><ele>294.0</ele><time>2026-04-18T13:24:40.975Z</time></trkpt><trkpt lat="44.7319513" lon="8.9419515"><ele>293.5</ele><time>2026-04-18T13:24:41.974Z</time></trkpt><trkpt lat="44.7318828" lon="8.9417956"><ele>293.0</ele><time>2026-04-18T13:24:42.974Z</time></trkpt><trkpt lat="44.7318097" lon="8.9416363"><ele>292.5</ele><time>2026-04-18T13:24:43.975Z</time></trkpt><trkpt lat="44.7317284" lon="8.9414696"><ele>292.0</ele><time>2026-04-18T13:24:44.975Z</time></trkpt><trkpt lat="44.7316471" lon="8.9412924"><ele>291.5</ele><time>2026-04-18T13:24:45.975Z</time></trkpt><trkpt lat="44.7315674" lon="8.9411114"><ele>291.0</ele><time>2026-04-18T13:24:46.975Z</time></trkpt><trkpt lat="44.731493" lon="8.9409419"><ele>290.25</ele><time>2026-04-18T13:24:47.974Z</time></trkpt><trkpt lat="44.7314228" lon="8.9407817"><ele>289.5</ele><time>2026-04-18T13:24:48.974Z</time></trkpt><trkpt lat="44.7313523" lon="8.9406319"><ele>288.75</ele><time>2026-04-18T13:24:49.974Z</time></trkpt><trkpt lat="44.7312819" lon="8.9404818"><ele>288.0</ele><time>2026-04-18T13:24:50.975Z</time></trkpt><trkpt lat="44.7312104" lon="8.9403334"><ele>288.0</ele><time>2026-04-18T13:24:51.975Z</time></trkpt><trkpt lat="44.7311403" lon="8.940196"><ele>288.0</ele><time>2026-04-18T13:24:52.974Z</time></trkpt><trkpt lat="44.731071" lon="8.940062"><ele>288.0</ele><time>2026-04-18T13:24:53.975Z</time></trkpt><trkpt lat="44.7309992" lon="8.9399297"><ele>288.0</ele><time>2026-04-18T13:24:54.974Z</time></trkpt><trkpt lat="44.730931" lon="8.9397968"><ele>288.2</ele><time>2026-04-18T13:24:55.975Z</time></trkpt><trkpt lat="44.730866" lon="8.9396692"><ele>288.4</ele><time>2026-04-18T13:24:56.974Z</time></trkpt><trkpt lat="44.7308054" lon="8.9395418"><ele>288.59999999999997</ele><time>2026-04-18T13:24:57.975Z</time></trkpt><trkpt lat="44.7307456" lon="8.9394167"><ele>288.8</ele><time>2026-04-18T13:24:58.974Z</time></trkpt><trkpt lat="44.7306824" lon="8.9392889"><ele>289.0</ele><time>2026-04-18T13:24:59.974Z</time></trkpt><trkpt lat="44.7306163" lon="8.9391579"><ele>287.25</ele><time>2026-04-18T13:25:00.974Z</time></trkpt><trkpt lat="44.7305468" lon="8.9390201"><ele>285.5</ele><time>2026-04-18T13:25:01.974Z</time></trkpt><trkpt lat="44.7304782" lon="8.9388772"><ele>283.75</ele><time>2026-04-18T13:25:02.975Z</time></trkpt><trkpt lat="44.7304091" lon="8.9387356"><ele>282.0</ele><time>2026-04-18T13:25:03.975Z</time></trkpt><trkpt lat="44.7303373" lon="8.9385888"><ele>282.0</ele><time>2026-04-18T13:25:04.975Z</time></trkpt><trkpt lat="44.7302651" lon="8.9384358"><ele>282.0</ele><time>2026-04-18T13:25:05.975Z</time></trkpt><trkpt lat="44.7301927" lon="8.9382818"><ele>282.0</ele><time>2026-04-18T13:25:06.975Z</time></trkpt><trkpt lat="44.7301215" lon="8.9381315"><ele>282.0</ele><time>2026-04-18T13:25:07.975Z</time></trkpt><trkpt lat="44.7300458" lon="8.9379829"><ele>282.75</ele><time>2026-04-18T13:25:08.974Z</time></trkpt><trkpt lat="44.729971" lon="8.9378357"><ele>283.5</ele><time>2026-04-18T13:25:09.975Z</time></trkpt><trkpt lat="44.7298926" lon="8.9376866"><ele>284.25</ele><time>2026-04-18T13:25:10.974Z</time></trkpt><trkpt lat="44.7298117" lon="8.9375397"><ele>285.0</ele><time>2026-04-18T13:25:11.975Z</time></trkpt><trkpt lat="44.729733" lon="8.9373902"><ele>285.0</ele><time>2026-04-18T13:25:12.975Z</time></trkpt><trkpt lat="44.7296533" lon="8.9372384"><ele>285.0</ele><time>2026-04-18T13:25:13.975Z</time></trkpt><trkpt lat="44.7295751" lon="8.9370921"><ele>285.0</ele><time>2026-04-18T13:25:14.975Z</time></trkpt><trkpt lat="44.7295036" lon="8.9369548"><ele>285.0</ele><time>2026-04-18T13:25:15.975Z</time></trkpt><trkpt lat="44.7294318" lon="8.9368151"><ele>285.25</ele><time>2026-04-18T13:25:16.975Z</time></trkpt><trkpt lat="44.7293545" lon="8.936665"><ele>285.5</ele><time>2026-04-18T13:25:17.975Z</time></trkpt><trkpt lat="44.729272" lon="8.9365107"><ele>285.75</ele><time>2026-04-18T13:25:18.975Z</time></trkpt><trkpt lat="44.729185" lon="8.9363457"><ele>286.0</ele><time>2026-04-18T13:25:19.974Z</time></trkpt><trkpt lat="44.7290935" lon="8.9361751"><ele>286.0</ele><time>2026-04-18T13:25:20.975Z</time></trkpt><trkpt lat="44.7289974" lon="8.9359938"><ele>286.0</ele><time>2026-04-18T13:25:21.974Z</time></trkpt><trkpt lat="44.7288968" lon="8.9358008"><ele>286.0</ele><time>2026-04-18T13:25:22.975Z</time></trkpt><trkpt lat="44.7287913" lon="8.9356017"><ele>285.66666666666663</ele><time>2026-04-18T13:25:23.975Z</time></trkpt><trkpt lat="44.7286827" lon="8.9353992"><ele>285.3333333333333</ele><time>2026-04-18T13:25:24.974Z</time></trkpt><trkpt lat="44.7285773" lon="8.9352001"><ele>285.0</ele><time>2026-04-18T13:25:25.974Z</time></trkpt><trkpt lat="44.72847" lon="8.9349957"><ele>285.0</ele><time>2026-04-18T13:25:26.975Z</time></trkpt><trkpt lat="44.7283564" lon="8.9347843"><ele>285.0</ele><time>2026-04-18T13:25:27.974Z</time></trkpt><trkpt lat="44.7282356" lon="8.9345676"><ele>285.0</ele><time>2026-04-18T13:25:28.974Z</time></trkpt><trkpt lat="44.7281172" lon="8.9343415"><ele>284.6666666666667</ele><time>2026-04-18T13:25:29.974Z</time></trkpt><trkpt lat="44.7280086" lon="8.9341171"><ele>284.33333333333337</ele><time>2026-04-18T13:25:30.974Z</time></trkpt><trkpt lat="44.7279001" lon="8.9338936"><ele>284.0</ele><time>2026-04-18T13:25:31.975Z</time></trkpt><trkpt lat="44.7277915" lon="8.9336722"><ele>283.0</ele><time>2026-04-18T13:25:32.975Z</time></trkpt><trkpt lat="44.7276827" lon="8.9334482"><ele>282.0</ele><time>2026-04-18T13:25:33.975Z</time></trkpt><trkpt lat="44.7275799" lon="8.9332193"><ele>281.0</ele><time>2026-04-18T13:25:34.974Z</time></trkpt><trkpt lat="44.7274861" lon="8.932979"><ele>280.6666666666667</ele><time>2026-04-18T13:25:35.974Z</time></trkpt><trkpt lat="44.7274041" lon="8.932728"><ele>280.3333333333333</ele><time>2026-04-18T13:25:36.975Z</time></trkpt><trkpt lat="44.7273334" lon="8.9324676"><ele>280.0</ele><time>2026-04-18T13:25:37.974Z</time></trkpt><trkpt lat="44.7272754" lon="8.9321983"><ele>279.66666666666663</ele><time>2026-04-18T13:25:38.975Z</time></trkpt><trkpt lat="44.7272273" lon="8.9319235"><ele>279.3333333333333</ele><time>2026-04-18T13:25:39.975Z</time></trkpt><trkpt lat="44.7271782" lon="8.9316483"><ele>279.0</ele><time>2026-04-18T13:25:40.975Z</time></trkpt><trkpt lat="44.7271223" lon="8.9313787"><ele>279.0</ele><time>2026-04-18T13:25:41.975Z</time></trkpt><trkpt lat="44.727058" lon="8.9311104"><ele>279.0</ele><time>2026-04-18T13:25:42.974Z</time></trkpt><trkpt lat="44.7269777" lon="8.9308474"><ele>279.0</ele><time>2026-04-18T13:25:43.974Z</time></trkpt><trkpt lat="44.7268824" lon="8.9305938"><ele>276.6666666666667</ele><time>2026-04-18T13:25:44.975Z</time></trkpt><trkpt lat="44.7267808" lon="8.9303514"><ele>274.33333333333337</ele><time>2026-04-18T13:25:45.975Z</time></trkpt><trkpt lat="44.7266809" lon="8.9301188"><ele>272.0</ele><time>2026-04-18T13:25:46.975Z</time></trkpt><trkpt lat="44.7265856" lon="8.9299033"><ele>272.0</ele><time>2026-04-18T13:25:47.974Z</time></trkpt><trkpt lat="44.7264818" lon="8.9297189"><ele>272.0</ele><time>2026-04-18T13:25:48.974Z</time></trkpt><trkpt lat="44.7263598" lon="8.9295611"><ele>272.0</ele><time>2026-04-18T13:25:49.975Z</time></trkpt><trkpt lat="44.7262223" lon="8.9294361"><ele>272.0</ele><time>2026-04-18T13:25:50.974Z</time></trkpt><trkpt lat="44.7260647" lon="8.9293377"><ele>272.0</ele><time>2026-04-18T13:25:51.974Z</time></trkpt><trkpt lat="44.7258961" lon="8.9292527"><ele>272.0</ele><time>2026-04-18T13:25:52.974Z</time></trkpt><trkpt lat="44.7257295" lon="8.9291725"><ele>269.33333333333337</ele><time>2026-04-18T13:25:53.975Z</time></trkpt><trkpt lat="44.7255698" lon="8.9290897"><ele>266.6666666666667</ele><time>2026-04-18T13:25:54.974Z</time></trkpt><trkpt lat="44.725415" lon="8.9290223"><ele>264.0</ele><time>2026-04-18T13:25:55.975Z</time></trkpt><trkpt lat="44.7252654" lon="8.9289911"><ele>262.5</ele><time>2026-04-18T13:25:56.975Z</time></trkpt><trkpt lat="44.7251158" lon="8.9290017"><ele>261.0</ele><time>2026-04-18T13:25:57.974Z</time></trkpt><trkpt lat="44.7249741" lon="8.9290467"><ele>259.5</ele><time>2026-04-18T13:25:58.975Z</time></trkpt><trkpt lat="44.7248414" lon="8.9291209"><ele>258.0</ele><time>2026-04-18T13:25:59.974Z</time></trkpt><trkpt lat="44.7247198" lon="8.9292008"><ele>259.25</ele><time>2026-04-18T13:26:00.975Z</time></trkpt><trkpt lat="44.7246036" lon="8.9292639"><ele>260.5</ele><time>2026-04-18T13:26:01.974Z</time></trkpt><trkpt lat="44.7244869" lon="8.9293101"><ele>261.75</ele><time>2026-04-18T13:26:02.975Z</time></trkpt><trkpt lat="44.7243679" lon="8.9293296"><ele>263.0</ele><time>2026-04-18T13:26:03.975Z</time></trkpt><trkpt lat="44.7242521" lon="8.9293272"><ele>263.2</ele><time>2026-04-18T13:26:04.974Z</time></trkpt><trkpt lat="44.724136" lon="8.9293221"><ele>263.4</ele><time>2026-04-18T13:26:05.974Z</time></trkpt><trkpt lat="44.7240195" lon="8.9293108"><ele>263.59999999999997</ele><time>2026-04-18T13:26:06.974Z</time></trkpt><trkpt lat="44.7239088" lon="8.9292879"><ele>263.8</ele><time>2026-04-18T13:26:07.975Z</time></trkpt><trkpt lat="44.7238092" lon="8.9292468"><ele>264.0</ele><time>2026-04-18T13:26:08.975Z</time></trkpt><trkpt lat="44.7237224" lon="8.9291757"><ele>262.75</ele><time>2026-04-18T13:26:09.974Z</time></trkpt><trkpt lat="44.7236485" lon="8.9290702"><ele>261.5</ele><time>2026-04-18T13:26:10.974Z</time></trkpt><trkpt lat="44.7235868" lon="8.9289372"><ele>260.25</ele><time>2026-04-18T13:26:11.975Z</time></trkpt><trkpt lat="44.7235466" lon="8.9287725"><ele>259.0</ele><time>2026-04-18T13:26:12.975Z</time></trkpt><trkpt lat="44.7235173" lon="8.9285911"><ele>258.5</ele><time>2026-04-18T13:26:13.975Z</time></trkpt><trkpt lat="44.7234864" lon="8.9284041"><ele>258.0</ele><time>2026-04-18T13:26:14.975Z</time></trkpt><trkpt lat="44.7234579" lon="8.9282263"><ele>257.5</ele><time>2026-04-18T13:26:15.975Z</time></trkpt><trkpt lat="44.7234289" lon="8.9280489"><ele>257.0</ele><time>2026-04-18T13:26:16.974Z</time></trkpt><trkpt lat="44.7234007" lon="8.9278735"><ele>255.75</ele><time>2026-04-18T13:26:17.975Z</time></trkpt><trkpt lat="44.7233731" lon="8.9276965"><ele>254.5</ele><time>2026-04-18T13:26:18.975Z</time></trkpt><trkpt lat="44.723339" lon="8.9275071"><ele>253.25</ele><time>2026-04-18T13:26:19.974Z</time></trkpt><trkpt lat="44.7232954" lon="8.9273025"><ele>252.0</ele><time>2026-04-18T13:26:20.975Z</time></trkpt><trkpt lat="44.723251" lon="8.9270438"><ele>251.33333333333331</ele><time>2026-04-18T13:26:21.974Z</time></trkpt><trkpt lat="44.7232176" lon="8.9267865"><ele>250.66666666666666</ele><time>2026-04-18T13:26:22.974Z</time></trkpt><trkpt lat="44.7231702" lon="8.9265359"><ele>250.0</ele><time>2026-04-18T13:26:23.974Z</time></trkpt><trkpt lat="44.7231009" lon="8.9262967"><ele>249.66666666666666</ele><time>2026-04-18T13:26:24.975Z</time></trkpt><trkpt lat="44.7230073" lon="8.9260764"><ele>249.33333333333331</ele><time>2026-04-18T13:26:25.975Z</time></trkpt><trkpt lat="44.722891" lon="8.9258668"><ele>249.0</ele><time>2026-04-18T13:26:26.975Z</time></trkpt><trkpt lat="44.7227667" lon="8.9256626"><ele>249.33333333333331</ele><time>2026-04-18T13:26:27.974Z</time></trkpt><trkpt lat="44.7226399" lon="8.9254565"><ele>249.66666666666666</ele><time>2026-04-18T13:26:28.975Z</time></trkpt><trkpt lat="44.7225181" lon="8.9252568"><ele>250.0</ele><time>2026-04-18T13:26:29.975Z</time></trkpt><trkpt lat="44.7224024" lon="8.9250716"><ele>249.5</ele><time>2026-04-18T13:26:30.974Z</time></trkpt><trkpt lat="44.722307" lon="8.9249061"><ele>249.0</ele><time>2026-04-18T13:26:31.975Z</time></trkpt><trkpt lat="44.7222437" lon="8.9247427"><ele>248.5</ele><time>2026-04-18T13:26:32.975Z</time></trkpt><trkpt lat="44.7222177" lon="8.9245594"><ele>248.0</ele><time>2026-04-18T13:26:33.975Z</time></trkpt><trkpt lat="44.722212" lon="8.9243618"><ele>249.0</ele><time>2026-04-18T13:26:34.974Z</time></trkpt><trkpt lat="44.7221929" lon="8.9241553"><ele>250.0</ele><time>2026-04-18T13:26:35.974Z</time></trkpt><trkpt lat="44.7221375" lon="8.923935"><ele>251.0</ele><time>2026-04-18T13:26:36.975Z</time></trkpt><trkpt lat="44.7220602" lon="8.923701"><ele>251.0</ele><time>2026-04-18T13:26:37.975Z</time></trkpt><trkpt lat="44.7219688" lon="8.9234542"><ele>251.0</ele><time>2026-04-18T13:26:38.974Z</time></trkpt><trkpt lat="44.721873" lon="8.9231961"><ele>251.0</ele><time>2026-04-18T13:26:39.974Z</time></trkpt><trkpt lat="44.7217692" lon="8.9229321"><ele>254.33333333333334</ele><time>2026-04-18T13:26:40.975Z</time></trkpt><trkpt lat="44.7216531" lon="8.9226788"><ele>257.6666666666667</ele><time>2026-04-18T13:26:41.975Z</time></trkpt><trkpt lat="44.7215228" lon="8.9224431"><ele>261.0</ele><time>2026-04-18T13:26:42.974Z</time></trkpt><trkpt lat="44.7213794" lon="8.9222314"><ele>261.0</ele><time>2026-04-18T13:26:43.974Z</time></trkpt><trkpt lat="44.7212181" lon="8.9220477"><ele>261.0</ele><time>2026-04-18T13:26:44.975Z</time></trkpt><trkpt lat="44.7210431" lon="8.9218833"><ele>261.0</ele><time>2026-04-18T13:26:45.975Z</time></trkpt><trkpt lat="44.7208644" lon="8.9217329"><ele>263.3333333333333</ele><time>2026-04-18T13:26:46.975Z</time></trkpt><trkpt lat="44.7206946" lon="8.9215925"><ele>265.66666666666663</ele><time>2026-04-18T13:26:47.974Z</time></trkpt><trkpt lat="44.7205376" lon="8.9214482"><ele>268.0</ele><time>2026-04-18T13:26:48.975Z</time></trkpt><trkpt lat="44.7204002" lon="8.9212886"><ele>268.0</ele><time>2026-04-18T13:26:49.974Z</time></trkpt><trkpt lat="44.7202904" lon="8.9211093"><ele>268.0</ele><time>2026-04-18T13:26:50.975Z</time></trkpt><trkpt lat="44.7202089" lon="8.9209089"><ele>268.0</ele><time>2026-04-18T13:26:51.975Z</time></trkpt><trkpt lat="44.7201536" lon="8.9206931"><ele>270.0</ele><time>2026-04-18T13:26:52.974Z</time></trkpt><trkpt lat="44.7201051" lon="8.9204693"><ele>272.0</ele><time>2026-04-18T13:26:53.974Z</time></trkpt><trkpt lat="44.7200523" lon="8.9202358"><ele>274.0</ele><time>2026-04-18T13:26:54.974Z</time></trkpt><trkpt lat="44.7199884" lon="8.9199999"><ele>274.0</ele><time>2026-04-18T13:26:55.975Z</time></trkpt><trkpt lat="44.7199153" lon="8.9197599"><ele>274.0</ele><time>2026-04-18T13:26:56.975Z</time></trkpt><trkpt lat="44.7198348" lon="8.9195147"><ele>274.0</ele><time>2026-04-18T13:26:57.974Z</time></trkpt><trkpt lat="44.7197502" lon="8.9192633"><ele>273.3333333333333</ele><time>2026-04-18T13:26:58.975Z</time></trkpt><trkpt lat="44.7196591" lon="8.919007"><ele>272.6666666666667</ele><time>2026-04-18T13:26:59.975Z</time></trkpt><trkpt lat="44.7195589" lon="8.9187507"><ele>272.0</ele><time>2026-04-18T13:27:00.975Z</time></trkpt><trkpt lat="44.7194488" lon="8.9184978"><ele>272.33333333333337</ele><time>2026-04-18T13:27:01.974Z</time></trkpt><trkpt lat="44.7193312" lon="8.9182493"><ele>272.6666666666667</ele><time>2026-04-18T13:27:02.974Z</time></trkpt><trkpt lat="44.7192021" lon="8.9180125"><ele>273.0</ele><time>2026-04-18T13:27:03.975Z</time></trkpt><trkpt lat="44.7190655" lon="8.917786"><ele>272.0</ele><time>2026-04-18T13:27:04.974Z</time></trkpt><trkpt lat="44.7189232" lon="8.9175606"><ele>271.0</ele><time>2026-04-18T13:27:05.974Z</time></trkpt><trkpt lat="44.7187795" lon="8.9173323"><ele>270.0</ele><time>2026-04-18T13:27:06.974Z</time></trkpt><trkpt lat="44.7186329" lon="8.9171026"><ele>270.3333333333333</ele><time>2026-04-18T13:27:07.974Z</time></trkpt><trkpt lat="44.7184861" lon="8.9168701"><ele>270.66666666666663</ele><time>2026-04-18T13:27:08.974Z</time></trkpt><trkpt lat="44.7183395" lon="8.9166347"><ele>271.0</ele><time>2026-04-18T13:27:09.974Z</time></trkpt><trkpt lat="44.7181935" lon="8.9163965"><ele>269.66666666666663</ele><time>2026-04-18T13:27:10.975Z</time></trkpt><trkpt lat="44.7180525" lon="8.9161553"><ele>268.3333333333333</ele><time>2026-04-18T13:27:11.974Z</time></trkpt><trkpt lat="44.7179191" lon="8.9159128"><ele>267.0</ele><time>2026-04-18T13:27:12.974Z</time></trkpt><trkpt lat="44.7177917" lon="8.91567"><ele>267.3333333333333</ele><time>2026-04-18T13:27:13.974Z</time></trkpt><trkpt lat="44.7176676" lon="8.9154299"><ele>267.66666666666663</ele><time>2026-04-18T13:27:14.974Z</time></trkpt><trkpt lat="44.7175404" lon="8.9151979"><ele>268.0</ele><time>2026-04-18T13:27:15.975Z</time></trkpt><trkpt lat="44.7174035" lon="8.9149753"><ele>267.3333333333333</ele><time>2026-04-18T13:27:16.975Z</time></trkpt><trkpt lat="44.7172568" lon="8.914762"><ele>266.6666666666667</ele><time>2026-04-18T13:27:17.974Z</time></trkpt><trkpt lat="44.7171043" lon="8.914557"><ele>266.0</ele><time>2026-04-18T13:27:18.974Z</time></trkpt><trkpt lat="44.7169509" lon="8.9143578"><ele>266.33333333333337</ele><time>2026-04-18T13:27:19.975Z</time></trkpt><trkpt lat="44.7167972" lon="8.9141647"><ele>266.6666666666667</ele><time>2026-04-18T13:27:20.974Z</time></trkpt><trkpt lat="44.7166469" lon="8.9139802"><ele>267.0</ele><time>2026-04-18T13:27:21.974Z</time></trkpt><trkpt lat="44.7164982" lon="8.913812"><ele>267.0</ele><time>2026-04-18T13:27:22.974Z</time></trkpt><trkpt lat="44.716356" lon="8.913666"><ele>267.0</ele><time>2026-04-18T13:27:23.974Z</time></trkpt><trkpt lat="44.7162223" lon="8.9135419"><ele>267.0</ele><time>2026-04-18T13:27:24.974Z</time></trkpt><trkpt lat="44.7160923" lon="8.9134323"><ele>266.5</ele><time>2026-04-18T13:27:25.974Z</time></trkpt><trkpt lat="44.7159675" lon="8.9133323"><ele>266.0</ele><time>2026-04-18T13:27:26.975Z</time></trkpt><trkpt lat="44.7158449" lon="8.9132345"><ele>265.5</ele><time>2026-04-18T13:27:27.974Z</time></trkpt><trkpt lat="44.7157335" lon="8.9131441"><ele>265.0</ele><time>2026-04-18T13:27:28.975Z</time></trkpt><trkpt lat="44.7156482" lon="8.9130737"><ele>265.0</ele><time>2026-04-18T13:27:29.975Z</time></trkpt><trkpt lat="44.7155913" lon="8.9130273"><ele>265.0</ele><time>2026-04-18T13:27:30.975Z</time></trkpt><trkpt lat="44.7154995" lon="8.9129593"><ele>265.0</ele><time>2026-04-18T13:27:32.974Z</time></trkpt><trkpt lat="44.7154366" lon="8.9129739"><ele>265.0</ele><time>2026-04-18T13:27:34.974Z</time></trkpt><trkpt lat="44.715426" lon="8.9130631"><ele>265.0</ele><time>2026-04-18T13:27:37.974Z</time></trkpt><trkpt lat="44.7154925" lon="8.9130973"><ele>265.0</ele><time>2026-04-18T13:28:17.975Z</time></trkpt><trkpt lat="44.7156009" lon="8.9131432"><ele>265.0</ele><time>2026-04-18T13:28:19.975Z</time></trkpt><trkpt lat="44.7157281" lon="8.9132035"><ele>265.0</ele><time>2026-04-18T13:28:21.974Z</time></trkpt><trkpt lat="44.7158034" lon="8.9132581"><ele>265.0</ele><time>2026-04-18T13:28:22.974Z</time></trkpt><trkpt lat="44.7158899" lon="8.9133228"><ele>265.0</ele><time>2026-04-18T13:28:23.975Z</time></trkpt><trkpt lat="44.7159865" lon="8.9133938"><ele>265.0</ele><time>2026-04-18T13:28:24.975Z</time></trkpt><trkpt lat="44.7160797" lon="8.9134655"><ele>265.5</ele><time>2026-04-18T13:28:25.975Z</time></trkpt><trkpt lat="44.7161778" lon="8.9135481"><ele>266.0</ele><time>2026-04-18T13:28:26.974Z</time></trkpt><trkpt lat="44.7162792" lon="8.913643"><ele>266.5</ele><time>2026-04-18T13:28:27.975Z</time></trkpt><trkpt lat="44.7163872" lon="8.9137509"><ele>267.0</ele><time>2026-04-18T13:28:28.974Z</time></trkpt><trkpt lat="44.7165019" lon="8.9138718"><ele>267.0</ele><time>2026-04-18T13:28:29.974Z</time></trkpt><trkpt lat="44.7166223" lon="8.9140103"><ele>267.0</ele><time>2026-04-18T13:28:30.974Z</time></trkpt><trkpt lat="44.7167494" lon="8.9141648"><ele>267.0</ele><time>2026-04-18T13:28:31.975Z</time></trkpt><trkpt lat="44.7168722" lon="8.9143175"><ele>266.6666666666667</ele><time>2026-04-18T13:28:32.974Z</time></trkpt><trkpt lat="44.7169985" lon="8.9144764"><ele>266.33333333333337</ele><time>2026-04-18T13:28:33.974Z</time></trkpt><trkpt lat="44.7171244" lon="8.9146373"><ele>266.0</ele><time>2026-04-18T13:28:34.975Z</time></trkpt><trkpt lat="44.7172501" lon="8.9148037"><ele>266.0</ele><time>2026-04-18T13:28:35.975Z</time></trkpt><trkpt lat="44.717375" lon="8.9149764"><ele>266.0</ele><time>2026-04-18T13:28:36.974Z</time></trkpt><trkpt lat="44.717494" lon="8.9151638"><ele>266.0</ele><time>2026-04-18T13:28:37.974Z</time></trkpt><trkpt lat="44.717608" lon="8.9153638"><ele>266.33333333333337</ele><time>2026-04-18T13:28:38.975Z</time></trkpt><trkpt lat="44.7177158" lon="8.9155758"><ele>266.6666666666667</ele><time>2026-04-18T13:28:39.974Z</time></trkpt><trkpt lat="44.7178251" lon="8.9157959"><ele>267.0</ele><time>2026-04-18T13:28:40.975Z</time></trkpt><trkpt lat="44.7179452" lon="8.9160204"><ele>267.0</ele><time>2026-04-18T13:28:41.975Z</time></trkpt><trkpt lat="44.7180734" lon="8.9162496"><ele>267.0</ele><time>2026-04-18T13:28:42.975Z</time></trkpt><trkpt lat="44.7182084" lon="8.9164769"><ele>267.0</ele><time>2026-04-18T13:28:43.975Z</time></trkpt><trkpt lat="44.7183469" lon="8.9167014"><ele>268.0</ele><time>2026-04-18T13:28:44.975Z</time></trkpt><trkpt lat="44.7184843" lon="8.916924"><ele>269.0</ele><time>2026-04-18T13:28:45.975Z</time></trkpt><trkpt lat="44.7186209" lon="8.917144"><ele>270.0</ele><time>2026-04-18T13:28:46.974Z</time></trkpt><trkpt lat="44.7187549" lon="8.9173568"><ele>270.0</ele><time>2026-04-18T13:28:47.975Z</time></trkpt><trkpt lat="44.7188869" lon="8.917567"><ele>270.0</ele><time>2026-04-18T13:28:48.974Z</time></trkpt><trkpt lat="44.7190178" lon="8.9177721"><ele>270.0</ele><time>2026-04-18T13:28:49.974Z</time></trkpt><trkpt lat="44.719144" lon="8.9179804"><ele>270.6666666666667</ele><time>2026-04-18T13:28:50.975Z</time></trkpt><trkpt lat="44.7192632" lon="8.918192"><ele>271.33333333333337</ele><time>2026-04-18T13:28:51.975Z</time></trkpt><trkpt lat="44.719376" lon="8.9184074"><ele>272.0</ele><time>2026-04-18T13:28:52.975Z</time></trkpt><trkpt lat="44.7194828" lon="8.9186346"><ele>272.0</ele><time>2026-04-18T13:28:53.975Z</time></trkpt><trkpt lat="44.71958" lon="8.9188723"><ele>272.0</ele><time>2026-04-18T13:28:54.975Z</time></trkpt><trkpt lat="44.7196702" lon="8.9191169"><ele>272.0</ele><time>2026-04-18T13:28:55.975Z</time></trkpt><trkpt lat="44.7197574" lon="8.9193655"><ele>272.6666666666667</ele><time>2026-04-18T13:28:56.974Z</time></trkpt><trkpt lat="44.7198425" lon="8.9196149"><ele>273.3333333333333</ele><time>2026-04-18T13:28:57.975Z</time></trkpt><trkpt lat="44.71992" lon="8.9198541"><ele>274.0</ele><time>2026-04-18T13:28:58.975Z</time></trkpt><trkpt lat="44.7199848" lon="8.9200865"><ele>274.0</ele><time>2026-04-18T13:28:59.975Z</time></trkpt><trkpt lat="44.7200384" lon="8.9203029"><ele>274.0</ele><time>2026-04-18T13:29:00.975Z</time></trkpt><trkpt lat="44.7200864" lon="8.9205135"><ele>274.0</ele><time>2026-04-18T13:29:01.975Z</time></trkpt><trkpt lat="44.7201316" lon="8.9207214"><ele>274.0</ele><time>2026-04-18T13:29:02.975Z</time></trkpt><trkpt lat="44.72018" lon="8.9209167"><ele>274.0</ele><time>2026-04-18T13:29:03.975Z</time></trkpt><trkpt lat="44.7202464" lon="8.9210995"><ele>274.0</ele><time>2026-04-18T13:29:04.974Z</time></trkpt><trkpt lat="44.7203422" lon="8.9212714"><ele>274.0</ele><time>2026-04-18T13:29:05.975Z</time></trkpt><trkpt lat="44.7204665" lon="8.9214223"><ele>273.66666666666663</ele><time>2026-04-18T13:29:06.975Z</time></trkpt><trkpt lat="44.7206156" lon="8.921559"><ele>273.3333333333333</ele><time>2026-04-18T13:29:07.974Z</time></trkpt><trkpt lat="44.7207765" lon="8.9216969"><ele>273.0</ele><time>2026-04-18T13:29:08.975Z</time></trkpt><trkpt lat="44.7209397" lon="8.9218366"><ele>269.0</ele><time>2026-04-18T13:29:09.974Z</time></trkpt><trkpt lat="44.7210988" lon="8.9219773"><ele>265.0</ele><time>2026-04-18T13:29:10.975Z</time></trkpt><trkpt lat="44.7212498" lon="8.9221287"><ele>261.0</ele><time>2026-04-18T13:29:11.974Z</time></trkpt><trkpt lat="44.7213857" lon="8.9222975"><ele>261.0</ele><time>2026-04-18T13:29:12.974Z</time></trkpt><trkpt lat="44.72151" lon="8.9224875"><ele>261.0</ele><time>2026-04-18T13:29:13.974Z</time></trkpt><trkpt lat="44.7216257" lon="8.9227013"><ele>261.0</ele><time>2026-04-18T13:29:14.974Z</time></trkpt><trkpt lat="44.7217302" lon="8.9229331"><ele>263.0</ele><time>2026-04-18T13:29:15.974Z</time></trkpt><trkpt lat="44.7218296" lon="8.9231712"><ele>265.0</ele><time>2026-04-18T13:29:16.974Z</time></trkpt><trkpt lat="44.7219258" lon="8.9234067"><ele>267.0</ele><time>2026-04-18T13:29:17.975Z</time></trkpt><trkpt lat="44.7220166" lon="8.9236373"><ele>261.6666666666667</ele><time>2026-04-18T13:29:18.974Z</time></trkpt><trkpt lat="44.7220949" lon="8.9238648"><ele>256.33333333333337</ele><time>2026-04-18T13:29:19.974Z</time></trkpt><trkpt lat="44.7221511" lon="8.9241006"><ele>251.0</ele><time>2026-04-18T13:29:20.974Z</time></trkpt><trkpt lat="44.7221755" lon="8.924322"><ele>250.25</ele><time>2026-04-18T13:29:21.975Z</time></trkpt><trkpt lat="44.7221753" lon="8.9245148"><ele>249.5</ele><time>2026-04-18T13:29:22.975Z</time></trkpt><trkpt lat="44.7221876" lon="8.9246674"><ele>248.75</ele><time>2026-04-18T13:29:23.975Z</time></trkpt><trkpt lat="44.7222352" lon="8.9248085"><ele>248.0</ele><time>2026-04-18T13:29:24.974Z</time></trkpt><trkpt lat="44.722314" lon="8.9249606"><ele>248.66666666666669</ele><time>2026-04-18T13:29:25.975Z</time></trkpt><trkpt lat="44.722417" lon="8.9251281"><ele>249.33333333333331</ele><time>2026-04-18T13:29:26.975Z</time></trkpt><trkpt lat="44.7225297" lon="8.9253148"><ele>250.0</ele><time>2026-04-18T13:29:27.974Z</time></trkpt><trkpt lat="44.7226486" lon="8.9255148"><ele>249.66666666666666</ele><time>2026-04-18T13:29:28.975Z</time></trkpt><trkpt lat="44.7227733" lon="8.9257166"><ele>249.33333333333331</ele><time>2026-04-18T13:29:29.974Z</time></trkpt><trkpt lat="44.7228916" lon="8.9259138"><ele>249.0</ele><time>2026-04-18T13:29:30.974Z</time></trkpt><trkpt lat="44.7230019" lon="8.9261354"><ele>248.66666666666669</ele><time>2026-04-18T13:29:31.974Z</time></trkpt><trkpt lat="44.7230981" lon="8.9263798"><ele>248.33333333333334</ele><time>2026-04-18T13:29:32.974Z</time></trkpt><trkpt lat="44.7231732" lon="8.9266479"><ele>248.0</ele><time>2026-04-18T13:29:33.974Z</time></trkpt><trkpt lat="44.7232318" lon="8.926928"><ele>248.66666666666669</ele><time>2026-04-18T13:29:34.974Z</time></trkpt><trkpt lat="44.7232781" lon="8.9272192"><ele>249.33333333333331</ele><time>2026-04-18T13:29:35.975Z</time></trkpt><trkpt lat="44.7233209" lon="8.9275042"><ele>250.0</ele><time>2026-04-18T13:29:36.975Z</time></trkpt><trkpt lat="44.7233641" lon="8.9277828"><ele>250.66666666666666</ele><time>2026-04-18T13:29:37.975Z</time></trkpt><trkpt lat="44.723405" lon="8.9280496"><ele>251.33333333333331</ele><time>2026-04-18T13:29:38.974Z</time></trkpt><trkpt lat="44.7234411" lon="8.9283022"><ele>252.0</ele><time>2026-04-18T13:29:39.974Z</time></trkpt><trkpt lat="44.7234755" lon="8.9285406"><ele>253.25</ele><time>2026-04-18T13:29:40.974Z</time></trkpt><trkpt lat="44.7235148" lon="8.9287603"><ele>254.5</ele><time>2026-04-18T13:29:41.975Z</time></trkpt><trkpt lat="44.7235711" lon="8.9289507"><ele>255.75</ele><time>2026-04-18T13:29:42.974Z</time></trkpt><trkpt lat="44.723649" lon="8.9291084"><ele>257.0</ele><time>2026-04-18T13:29:43.975Z</time></trkpt><trkpt lat="44.7237478" lon="8.9292305"><ele>258.75</ele><time>2026-04-18T13:29:44.975Z</time></trkpt><trkpt lat="44.7238609" lon="8.9293045"><ele>260.5</ele><time>2026-04-18T13:29:45.975Z</time></trkpt><trkpt lat="44.7239823" lon="8.9293414"><ele>262.25</ele><time>2026-04-18T13:29:46.975Z</time></trkpt><trkpt lat="44.7241089" lon="8.9293551"><ele>264.0</ele><time>2026-04-18T13:29:47.974Z</time></trkpt><trkpt lat="44.7242364" lon="8.9293602"><ele>264.0</ele><time>2026-04-18T13:29:48.975Z</time></trkpt><trkpt lat="44.7243579" lon="8.9293595"><ele>264.0</ele><time>2026-04-18T13:29:49.975Z</time></trkpt><trkpt lat="44.7244758" lon="8.9293465"><ele>264.0</ele><time>2026-04-18T13:29:50.975Z</time></trkpt><trkpt lat="44.7245912" lon="8.9293101"><ele>264.0</ele><time>2026-04-18T13:29:51.975Z</time></trkpt><trkpt lat="44.7246982" lon="8.929245"><ele>262.5</ele><time>2026-04-18T13:29:52.974Z</time></trkpt><trkpt lat="44.7248035" lon="8.9291769"><ele>261.0</ele><time>2026-04-18T13:29:53.975Z</time></trkpt><trkpt lat="44.7249097" lon="8.9291154"><ele>259.5</ele><time>2026-04-18T13:29:54.975Z</time></trkpt><trkpt lat="44.725022" lon="8.9290664"><ele>258.0</ele><time>2026-04-18T13:29:55.974Z</time></trkpt><trkpt lat="44.7251415" lon="8.9290428"><ele>259.5</ele><time>2026-04-18T13:29:56.975Z</time></trkpt><trkpt lat="44.725263" lon="8.9290391"><ele>261.0</ele><time>2026-04-18T13:29:57.974Z</time></trkpt><trkpt lat="44.7253818" lon="8.9290643"><ele>262.5</ele><time>2026-04-18T13:29:58.975Z</time></trkpt><trkpt lat="44.7254983" lon="8.9291115"><ele>264.0</ele><time>2026-04-18T13:29:59.974Z</time></trkpt><trkpt lat="44.7256157" lon="8.9291593"><ele>264.0</ele><time>2026-04-18T13:30:00.975Z</time></trkpt><trkpt lat="44.7257339" lon="8.9292109"><ele>264.0</ele><time>2026-04-18T13:30:01.975Z</time></trkpt><trkpt lat="44.7258525" lon="8.9292689"><ele>264.0</ele><time>2026-04-18T13:30:02.975Z</time></trkpt><trkpt lat="44.7259725" lon="8.9293281"><ele>264.0</ele><time>2026-04-18T13:30:03.975Z</time></trkpt><trkpt lat="44.7260925" lon="8.9293919"><ele>266.0</ele><time>2026-04-18T13:30:04.974Z</time></trkpt><trkpt lat="44.7262111" lon="8.9294681"><ele>268.0</ele><time>2026-04-18T13:30:05.975Z</time></trkpt><trkpt lat="44.7263232" lon="8.9295639"><ele>270.0</ele><time>2026-04-18T13:30:06.974Z</time></trkpt><trkpt lat="44.7264256" lon="8.9296834"><ele>272.0</ele><time>2026-04-18T13:30:07.975Z</time></trkpt><trkpt lat="44.726515" lon="8.9298222"><ele>272.0</ele><time>2026-04-18T13:30:08.975Z</time></trkpt><trkpt lat="44.7265938" lon="8.9299798"><ele>272.0</ele><time>2026-04-18T13:30:09.974Z</time></trkpt><trkpt lat="44.7266698" lon="8.9301488"><ele>272.0</ele><time>2026-04-18T13:30:10.974Z</time></trkpt><trkpt lat="44.726748" lon="8.9303203"><ele>272.0</ele><time>2026-04-18T13:30:11.975Z</time></trkpt><trkpt lat="44.7268235" lon="8.9304962"><ele>273.5</ele><time>2026-04-18T13:30:12.974Z</time></trkpt><trkpt lat="44.7268965" lon="8.9306783"><ele>275.0</ele><time>2026-04-18T13:30:13.975Z</time></trkpt><trkpt lat="44.7269623" lon="8.9308665"><ele>276.5</ele><time>2026-04-18T13:30:14.974Z</time></trkpt><trkpt lat="44.7270213" lon="8.9310583"><ele>278.0</ele><time>2026-04-18T13:30:15.975Z</time></trkpt><trkpt lat="44.7270701" lon="8.9312551"><ele>278.33333333333337</ele><time>2026-04-18T13:30:16.974Z</time></trkpt><trkpt lat="44.7271065" lon="8.9314598"><ele>278.6666666666667</ele><time>2026-04-18T13:30:17.975Z</time></trkpt><trkpt lat="44.7271433" lon="8.9316651"><ele>279.0</ele><time>2026-04-18T13:30:18.974Z</time></trkpt><trkpt lat="44.7271789" lon="8.9318718"><ele>279.0</ele><time>2026-04-18T13:30:19.974Z</time></trkpt><trkpt lat="44.7272142" lon="8.9320769"><ele>279.0</ele><time>2026-04-18T13:30:20.974Z</time></trkpt><trkpt lat="44.7272525" lon="8.9322792"><ele>279.0</ele><time>2026-04-18T13:30:21.975Z</time></trkpt><trkpt lat="44.7272963" lon="8.9324801"><ele>279.0</ele><time>2026-04-18T13:30:22.975Z</time></trkpt><trkpt lat="44.7273485" lon="8.9326788"><ele>279.3333333333333</ele><time>2026-04-18T13:30:23.975Z</time></trkpt><trkpt lat="44.7274098" lon="8.9328765"><ele>279.66666666666663</ele><time>2026-04-18T13:30:24.974Z</time></trkpt><trkpt lat="44.7274787" lon="8.9330742"><ele>280.0</ele><time>2026-04-18T13:30:25.975Z</time></trkpt><trkpt lat="44.7275559" lon="8.93327"><ele>280.3333333333333</ele><time>2026-04-18T13:30:26.975Z</time></trkpt><trkpt lat="44.7276436" lon="8.9334619"><ele>280.6666666666667</ele><time>2026-04-18T13:30:27.975Z</time></trkpt><trkpt lat="44.727739" lon="8.9336513"><ele>281.0</ele><time>2026-04-18T13:30:28.974Z</time></trkpt><trkpt lat="44.7278406" lon="8.9338417"><ele>282.0</ele><time>2026-04-18T13:30:29.974Z</time></trkpt><trkpt lat="44.727947" lon="8.9340442"><ele>283.0</ele><time>2026-04-18T13:30:30.975Z</time></trkpt><trkpt lat="44.7280564" lon="8.9342576"><ele>284.0</ele><time>2026-04-18T13:30:31.975Z</time></trkpt><trkpt lat="44.7281731" lon="8.9344796"><ele>284.33333333333337</ele><time>2026-04-18T13:30:32.975Z</time></trkpt><trkpt lat="44.728293" lon="8.9347091"><ele>284.6666666666667</ele><time>2026-04-18T13:30:33.974Z</time></trkpt><trkpt lat="44.7284079" lon="8.9349305"><ele>285.0</ele><time>2026-04-18T13:30:34.975Z</time></trkpt><trkpt lat="44.7285155" lon="8.9351378"><ele>284.6666666666667</ele><time>2026-04-18T13:30:35.974Z</time></trkpt><trkpt lat="44.7286168" lon="8.935334"><ele>284.33333333333337</ele><time>2026-04-18T13:30:36.975Z</time></trkpt><trkpt lat="44.7287162" lon="8.9355231"><ele>284.0</ele><time>2026-04-18T13:30:37.975Z</time></trkpt><trkpt lat="44.7288177" lon="8.9357174"><ele>284.6666666666667</ele><time>2026-04-18T13:30:38.974Z</time></trkpt><trkpt lat="44.7289197" lon="8.9359149"><ele>285.3333333333333</ele><time>2026-04-18T13:30:39.974Z</time></trkpt><trkpt lat="44.729023" lon="8.936114"><ele>286.0</ele><time>2026-04-18T13:30:40.974Z</time></trkpt><trkpt lat="44.7291289" lon="8.9363151"><ele>286.0</ele><time>2026-04-18T13:30:41.974Z</time></trkpt><trkpt lat="44.729236" lon="8.9365162"><ele>286.0</ele><time>2026-04-18T13:30:42.974Z</time></trkpt><trkpt lat="44.7293412" lon="8.936716"><ele>286.0</ele><time>2026-04-18T13:30:43.975Z</time></trkpt><trkpt lat="44.7294508" lon="8.9369221"><ele>286.0</ele><time>2026-04-18T13:30:44.974Z</time></trkpt><trkpt lat="44.7295627" lon="8.9371335"><ele>286.0</ele><time>2026-04-18T13:30:45.975Z</time></trkpt><trkpt lat="44.7296761" lon="8.9373488"><ele>286.0</ele><time>2026-04-18T13:30:46.975Z</time></trkpt><trkpt lat="44.7297906" lon="8.9375638"><ele>286.0</ele><time>2026-04-18T13:30:47.974Z</time></trkpt><trkpt lat="44.7299055" lon="8.9377792"><ele>286.0</ele><time>2026-04-18T13:30:48.975Z</time></trkpt><trkpt lat="44.7300126" lon="8.9379849"><ele>286.0</ele><time>2026-04-18T13:30:49.975Z</time></trkpt><trkpt lat="44.7301159" lon="8.9381844"><ele>286.0</ele><time>2026-04-18T13:30:50.975Z</time></trkpt><trkpt lat="44.7302157" lon="8.9383788"><ele>286.0</ele><time>2026-04-18T13:30:51.974Z</time></trkpt><trkpt lat="44.7303139" lon="8.9385719"><ele>286.0</ele><time>2026-04-18T13:30:52.974Z</time></trkpt><trkpt lat="44.7304138" lon="8.9387721"><ele>287.0</ele><time>2026-04-18T13:30:53.975Z</time></trkpt><trkpt lat="44.7305155" lon="8.9389794"><ele>288.0</ele><time>2026-04-18T13:30:54.975Z</time></trkpt><trkpt lat="44.7306225" lon="8.9391954"><ele>289.0</ele><time>2026-04-18T13:30:55.975Z</time></trkpt><trkpt lat="44.7307329" lon="8.9394184"><ele>289.0</ele><time>2026-04-18T13:30:56.974Z</time></trkpt><trkpt lat="44.7308461" lon="8.9396463"><ele>289.0</ele><time>2026-04-18T13:30:57.975Z</time></trkpt><trkpt lat="44.7309591" lon="8.939871"><ele>289.0</ele><time>2026-04-18T13:30:58.974Z</time></trkpt><trkpt lat="44.7310731" lon="8.9401027"><ele>288.66666666666663</ele><time>2026-04-18T13:30:59.974Z</time></trkpt><trkpt lat="44.7311885" lon="8.9403398"><ele>288.3333333333333</ele><time>2026-04-18T13:31:00.974Z</time></trkpt><trkpt lat="44.7313042" lon="8.9405796"><ele>288.0</ele><time>2026-04-18T13:31:01.974Z</time></trkpt><trkpt lat="44.7314199" lon="8.940825"><ele>289.0</ele><time>2026-04-18T13:31:02.975Z</time></trkpt><trkpt lat="44.7315359" lon="8.9410702"><ele>290.0</ele><time>2026-04-18T13:31:03.974Z</time></trkpt><trkpt lat="44.7316508" lon="8.9413163"><ele>291.0</ele><time>2026-04-18T13:31:04.975Z</time></trkpt><trkpt lat="44.7317644" lon="8.9415648"><ele>290.6666666666667</ele><time>2026-04-18T13:31:05.975Z</time></trkpt><trkpt lat="44.7318735" lon="8.9418112"><ele>290.33333333333337</ele><time>2026-04-18T13:31:06.975Z</time></trkpt><trkpt lat="44.7319826" lon="8.9420536"><ele>290.0</ele><time>2026-04-18T13:31:07.974Z</time></trkpt><trkpt lat="44.7320929" lon="8.9423009"><ele>291.6666666666667</ele><time>2026-04-18T13:31:08.975Z</time></trkpt><trkpt lat="44.732203" lon="8.9425513"><ele>293.3333333333333</ele><time>2026-04-18T13:31:09.975Z</time></trkpt><trkpt lat="44.7323152" lon="8.9428058"><ele>295.0</ele><time>2026-04-18T13:31:10.975Z</time></trkpt><trkpt lat="44.7324271" lon="8.9430593"><ele>295.0</ele><time>2026-04-18T13:31:11.975Z</time></trkpt><trkpt lat="44.7325323" lon="8.9433032"><ele>295.0</ele><time>2026-04-18T13:31:12.975Z</time></trkpt><trkpt lat="44.7326295" lon="8.9435434"><ele>295.0</ele><time>2026-04-18T13:31:13.975Z</time></trkpt><trkpt lat="44.7327191" lon="8.9437929"><ele>294.66666666666663</ele><time>2026-04-18T13:31:14.974Z</time></trkpt><trkpt lat="44.7327999" lon="8.9440513"><ele>294.3333333333333</ele><time>2026-04-18T13:31:15.975Z</time></trkpt><trkpt lat="44.7328761" lon="8.9443162"><ele>294.0</ele><time>2026-04-18T13:31:16.975Z</time></trkpt><trkpt lat="44.7329459" lon="8.9445804"><ele>294.0</ele><time>2026-04-18T13:31:17.974Z</time></trkpt><trkpt lat="44.7330004" lon="8.9448348"><ele>294.0</ele><time>2026-04-18T13:31:18.975Z</time></trkpt><trkpt lat="44.7330449" lon="8.9450836"><ele>294.0</ele><time>2026-04-18T13:31:19.975Z</time></trkpt><trkpt lat="44.7330801" lon="8.9453303"><ele>295.0</ele><time>2026-04-18T13:31:20.974Z</time></trkpt><trkpt lat="44.7331091" lon="8.9455749"><ele>296.0</ele><time>2026-04-18T13:31:21.975Z</time></trkpt><trkpt lat="44.7331301" lon="8.9458147"><ele>297.0</ele><time>2026-04-18T13:31:22.975Z</time></trkpt><trkpt lat="44.7331422" lon="8.946043"><ele>297.0</ele><time>2026-04-18T13:31:23.975Z</time></trkpt><trkpt lat="44.7331504" lon="8.9462649"><ele>297.0</ele><time>2026-04-18T13:31:24.975Z</time></trkpt><trkpt lat="44.7331528" lon="8.9464925"><ele>297.0</ele><time>2026-04-18T13:31:25.975Z</time></trkpt><trkpt lat="44.7331512" lon="8.9467252"><ele>297.0</ele><time>2026-04-18T13:31:26.974Z</time></trkpt><trkpt lat="44.7331459" lon="8.946965"><ele>297.0</ele><time>2026-04-18T13:31:27.974Z</time></trkpt><trkpt lat="44.7331399" lon="8.9472111"><ele>297.0</ele><time>2026-04-18T13:31:28.974Z</time></trkpt><trkpt lat="44.7331391" lon="8.9474607"><ele>297.6666666666667</ele><time>2026-04-18T13:31:29.974Z</time></trkpt><trkpt lat="44.7331429" lon="8.9477134"><ele>298.33333333333337</ele><time>2026-04-18T13:31:30.975Z</time></trkpt><trkpt lat="44.7331461" lon="8.9479697"><ele>299.0</ele><time>2026-04-18T13:31:31.975Z</time></trkpt><trkpt lat="44.733151" lon="8.9482291"><ele>299.33333333333337</ele><time>2026-04-18T13:31:32.975Z</time></trkpt><trkpt lat="44.7331559" lon="8.9484887"><ele>299.6666666666667</ele><time>2026-04-18T13:31:33.975Z</time></trkpt><trkpt lat="44.7331625" lon="8.948741"><ele>300.0</ele><time>2026-04-18T13:31:34.975Z</time></trkpt><trkpt lat="44.7331689" lon="8.9489883"><ele>300.0</ele><time>2026-04-18T13:31:35.974Z</time></trkpt><trkpt lat="44.7331782" lon="8.9492273"><ele>300.0</ele><time>2026-04-18T13:31:36.975Z</time></trkpt><trkpt lat="44.7331851" lon="8.949451"><ele>300.0</ele><time>2026-04-18T13:31:37.974Z</time></trkpt><trkpt lat="44.7331907" lon="8.9496554"><ele>300.0</ele><time>2026-04-18T13:31:38.974Z</time></trkpt><trkpt lat="44.7331954" lon="8.9498477"><ele>300.0</ele><time>2026-04-18T13:31:39.975Z</time></trkpt><trkpt lat="44.733201" lon="8.9500374"><ele>300.0</ele><time>2026-04-18T13:31:40.974Z</time></trkpt><trkpt lat="44.7332091" lon="8.9502343"><ele>300.0</ele><time>2026-04-18T13:31:41.974Z</time></trkpt><trkpt lat="44.7332172" lon="8.9504394"><ele>300.3333333333333</ele><time>2026-04-18T13:31:42.975Z</time></trkpt><trkpt lat="44.7332244" lon="8.950652"><ele>300.66666666666663</ele><time>2026-04-18T13:31:43.975Z</time></trkpt><trkpt lat="44.7332306" lon="8.9508731"><ele>301.0</ele><time>2026-04-18T13:31:44.974Z</time></trkpt><trkpt lat="44.7332364" lon="8.9511038"><ele>301.0</ele><time>2026-04-18T13:31:45.975Z</time></trkpt><trkpt lat="44.7332432" lon="8.9513419"><ele>301.0</ele><time>2026-04-18T13:31:46.975Z</time></trkpt><trkpt lat="44.7332507" lon="8.9515872"><ele>301.0</ele><time>2026-04-18T13:31:47.974Z</time></trkpt><trkpt lat="44.7332578" lon="8.9518385"><ele>301.0</ele><time>2026-04-18T13:31:48.974Z</time></trkpt><trkpt lat="44.7332636" lon="8.9520962"><ele>301.0</ele><time>2026-04-18T13:31:49.974Z</time></trkpt><trkpt lat="44.7332709" lon="8.9523614"><ele>301.0</ele><time>2026-04-18T13:31:50.974Z</time></trkpt><trkpt lat="44.7332771" lon="8.9526297"><ele>301.3333333333333</ele><time>2026-04-18T13:31:51.975Z</time></trkpt><trkpt lat="44.7332828" lon="8.9529013"><ele>301.6666666666667</ele><time>2026-04-18T13:31:52.974Z</time></trkpt><trkpt lat="44.7332863" lon="8.9531726"><ele>302.0</ele><time>2026-04-18T13:31:53.975Z</time></trkpt><trkpt lat="44.7332887" lon="8.9534478"><ele>302.6666666666667</ele><time>2026-04-18T13:31:54.975Z</time></trkpt><trkpt lat="44.7332904" lon="8.953723"><ele>303.3333333333333</ele><time>2026-04-18T13:31:55.974Z</time></trkpt><trkpt lat="44.7332935" lon="8.9540004"><ele>304.0</ele><time>2026-04-18T13:31:56.975Z</time></trkpt><trkpt lat="44.7332992" lon="8.9542772"><ele>304.0</ele><time>2026-04-18T13:31:57.975Z</time></trkpt><trkpt lat="44.7333049" lon="8.9545505"><ele>304.0</ele><time>2026-04-18T13:31:58.975Z</time></trkpt><trkpt lat="44.7333114" lon="8.9548168"><ele>304.0</ele><time>2026-04-18T13:31:59.975Z</time></trkpt><trkpt lat="44.7333158" lon="8.9550791"><ele>304.0</ele><time>2026-04-18T13:32:00.975Z</time></trkpt><trkpt lat="44.7333206" lon="8.955338"><ele>304.0</ele><time>2026-04-18T13:32:01.975Z</time></trkpt><trkpt lat="44.7333244" lon="8.9555982"><ele>304.0</ele><time>2026-04-18T13:32:02.974Z</time></trkpt><trkpt lat="44.7333283" lon="8.9558571"><ele>304.3333333333333</ele><time>2026-04-18T13:32:03.974Z</time></trkpt><trkpt lat="44.7333311" lon="8.956116"><ele>304.6666666666667</ele><time>2026-04-18T13:32:04.975Z</time></trkpt><trkpt lat="44.7333337" lon="8.9563743"><ele>305.0</ele><time>2026-04-18T13:32:05.975Z</time></trkpt><trkpt lat="44.7333396" lon="8.956632"><ele>305.0</ele><time>2026-04-18T13:32:06.975Z</time></trkpt><trkpt lat="44.7333469" lon="8.9568899"><ele>305.0</ele><time>2026-04-18T13:32:07.974Z</time></trkpt><trkpt lat="44.7333529" lon="8.9571475"><ele>305.0</ele><time>2026-04-18T13:32:08.974Z</time></trkpt><trkpt lat="44.733358" lon="8.9574041"><ele>305.33333333333337</ele><time>2026-04-18T13:32:09.975Z</time></trkpt><trkpt lat="44.7333613" lon="8.9576607"><ele>305.6666666666667</ele><time>2026-04-18T13:32:10.974Z</time></trkpt><trkpt lat="44.7333619" lon="8.9579068"><ele>306.0</ele><time>2026-04-18T13:32:11.974Z</time></trkpt><trkpt lat="44.7333606" lon="8.9581477"><ele>306.3333333333333</ele><time>2026-04-18T13:32:12.975Z</time></trkpt><trkpt lat="44.7333575" lon="8.9583885"><ele>306.66666666666663</ele><time>2026-04-18T13:32:13.974Z</time></trkpt><trkpt lat="44.7333494" lon="8.9586323"><ele>307.0</ele><time>2026-04-18T13:32:14.974Z</time></trkpt><trkpt lat="44.733338" lon="8.958877"><ele>307.0</ele><time>2026-04-18T13:32:15.974Z</time></trkpt><trkpt lat="44.7333253" lon="8.9591225"><ele>307.0</ele><time>2026-04-18T13:32:16.975Z</time></trkpt><trkpt lat="44.7333097" lon="8.9593694"><ele>307.0</ele><time>2026-04-18T13:32:17.975Z</time></trkpt><trkpt lat="44.7332938" lon="8.9596084"><ele>307.3333333333333</ele><time>2026-04-18T13:32:18.974Z</time></trkpt><trkpt lat="44.7332779" lon="8.9598335"><ele>307.6666666666667</ele><time>2026-04-18T13:32:19.974Z</time></trkpt><trkpt lat="44.7332641" lon="8.9600429"><ele>308.0</ele><time>2026-04-18T13:32:20.975Z</time></trkpt><trkpt lat="44.7332513" lon="8.9602425"><ele>308.0</ele><time>2026-04-18T13:32:21.975Z</time></trkpt><trkpt lat="44.7332384" lon="8.9604301"><ele>308.0</ele><time>2026-04-18T13:32:22.974Z</time></trkpt><trkpt lat="44.7332263" lon="8.9606083"><ele>308.0</ele><time>2026-04-18T13:32:23.974Z</time></trkpt><trkpt lat="44.7332154" lon="8.9607791"><ele>308.0</ele><time>2026-04-18T13:32:24.974Z</time></trkpt><trkpt lat="44.7332043" lon="8.9609425"><ele>308.2</ele><time>2026-04-18T13:32:25.974Z</time></trkpt><trkpt lat="44.7331922" lon="8.9611038"><ele>308.4</ele><time>2026-04-18T13:32:26.975Z</time></trkpt><trkpt lat="44.7331802" lon="8.9612608"><ele>308.59999999999997</ele><time>2026-04-18T13:32:27.975Z</time></trkpt><trkpt lat="44.7331706" lon="8.961406"><ele>308.8</ele><time>2026-04-18T13:32:28.974Z</time></trkpt><trkpt lat="44.7331705" lon="8.9615052"><ele>309.0</ele><time>2026-04-18T13:32:29.975Z</time></trkpt><trkpt lat="44.7332048" lon="8.9616132"><ele>309.0</ele><time>2026-04-18T13:32:31.974Z</time></trkpt><trkpt lat="44.733274" lon="8.9616295"><ele>309.0</ele><time>2026-04-18T13:32:33.975Z</time></trkpt><trkpt lat="44.7333937" lon="8.9616093"><ele>309.0</ele><time>2026-04-18T13:32:35.974Z</time></trkpt><trkpt lat="44.7334805" lon="8.9615993"><ele>309.0</ele><time>2026-04-18T13:32:36.974Z</time></trkpt><trkpt lat="44.7335825" lon="8.961594"><ele>309.0</ele><time>2026-04-18T13:32:37.975Z</time></trkpt><trkpt lat="44.7336936" lon="8.9615938"><ele>309.25</ele><time>2026-04-18T13:32:38.974Z</time></trkpt><trkpt lat="44.7338046" lon="8.9616175"><ele>309.5</ele><time>2026-04-18T13:32:39.975Z</time></trkpt><trkpt lat="44.7339212" lon="8.9616759"><ele>309.75</ele><time>2026-04-18T13:32:40.975Z</time></trkpt><trkpt lat="44.7340397" lon="8.9617593"><ele>310.0</ele><time>2026-04-18T13:32:41.974Z</time></trkpt><trkpt lat="44.7341658" lon="8.9618579"><ele>310.0</ele><time>2026-04-18T13:32:42.975Z</time></trkpt><trkpt lat="44.734292" lon="8.9619589"><ele>310.0</ele><time>2026-04-18T13:32:43.975Z</time></trkpt><trkpt lat="44.7344159" lon="8.9620607"><ele>310.0</ele><time>2026-04-18T13:32:44.975Z</time></trkpt><trkpt lat="44.7345471" lon="8.9621679"><ele>310.0</ele><time>2026-04-18T13:32:45.975Z</time></trkpt><trkpt lat="44.7346853" lon="8.9622761"><ele>308.66666666666663</ele><time>2026-04-18T13:32:46.974Z</time></trkpt><trkpt lat="44.7348228" lon="8.9623797"><ele>307.3333333333333</ele><time>2026-04-18T13:32:47.974Z</time></trkpt><trkpt lat="44.7349568" lon="8.9624773"><ele>306.0</ele><time>2026-04-18T13:32:48.975Z</time></trkpt><trkpt lat="44.7350944" lon="8.9625695"><ele>305.0</ele><time>2026-04-18T13:32:49.974Z</time></trkpt><trkpt lat="44.7352408" lon="8.9626331"><ele>304.0</ele><time>2026-04-18T13:32:50.974Z</time></trkpt><trkpt lat="44.7353998" lon="8.9626605"><ele>303.0</ele><time>2026-04-18T13:32:51.974Z</time></trkpt><trkpt lat="44.735566" lon="8.9626553"><ele>303.0</ele><time>2026-04-18T13:32:52.975Z</time></trkpt><trkpt lat="44.7357388" lon="8.9626392"><ele>303.0</ele><time>2026-04-18T13:32:53.974Z</time></trkpt><trkpt lat="44.7359135" lon="8.9626248"><ele>303.0</ele><time>2026-04-18T13:32:54.974Z</time></trkpt><trkpt lat="44.7360855" lon="8.9626074"><ele>303.6666666666667</ele><time>2026-04-18T13:32:55.974Z</time></trkpt><trkpt lat="44.7362506" lon="8.9625939"><ele>304.33333333333337</ele><time>2026-04-18T13:32:56.974Z</time></trkpt><trkpt lat="44.7364056" lon="8.9626048"><ele>305.0</ele><time>2026-04-18T13:32:57.975Z</time></trkpt><trkpt lat="44.7365433" lon="8.9626567"><ele>305.0</ele><time>2026-04-18T13:32:58.974Z</time></trkpt><trkpt lat="44.7366659" lon="8.96275"><ele>305.0</ele><time>2026-04-18T13:32:59.974Z</time></trkpt><trkpt lat="44.7367925" lon="8.9628742"><ele>305.0</ele><time>2026-04-18T13:33:00.974Z</time></trkpt><trkpt lat="44.7369165" lon="8.963035"><ele>307.0</ele><time>2026-04-18T13:33:01.975Z</time></trkpt><trkpt lat="44.7370462" lon="8.9631986"><ele>309.0</ele><time>2026-04-18T13:33:02.975Z</time></trkpt><trkpt lat="44.7371812" lon="8.9633674"><ele>311.0</ele><time>2026-04-18T13:33:03.975Z</time></trkpt><trkpt lat="44.7373191" lon="8.9635435"><ele>311.0</ele><time>2026-04-18T13:33:04.975Z</time></trkpt><trkpt lat="44.7374577" lon="8.9637241"><ele>311.0</ele><time>2026-04-18T13:33:05.974Z</time></trkpt><trkpt lat="44.7375989" lon="8.9639084"><ele>311.0</ele><time>2026-04-18T13:33:06.974Z</time></trkpt><trkpt lat="44.7377424" lon="8.964093"><ele>312.0</ele><time>2026-04-18T13:33:07.975Z</time></trkpt><trkpt lat="44.7378862" lon="8.9642798"><ele>313.0</ele><time>2026-04-18T13:33:08.975Z</time></trkpt><trkpt lat="44.7380311" lon="8.9644684"><ele>314.0</ele><time>2026-04-18T13:33:09.974Z</time></trkpt><trkpt lat="44.7381769" lon="8.9646538"><ele>314.0</ele><time>2026-04-18T13:33:10.974Z</time></trkpt><trkpt lat="44.7383259" lon="8.964836"><ele>314.0</ele><time>2026-04-18T13:33:11.975Z</time></trkpt><trkpt lat="44.7384796" lon="8.9650145"><ele>314.0</ele><time>2026-04-18T13:33:12.974Z</time></trkpt><trkpt lat="44.7386386" lon="8.9651902"><ele>313.6666666666667</ele><time>2026-04-18T13:33:13.975Z</time></trkpt><trkpt lat="44.7388009" lon="8.965368"><ele>313.3333333333333</ele><time>2026-04-18T13:33:14.974Z</time></trkpt><trkpt lat="44.7389628" lon="8.9655497"><ele>313.0</ele><time>2026-04-18T13:33:15.974Z</time></trkpt><trkpt lat="44.7391181" lon="8.965742"><ele>313.66666666666663</ele><time>2026-04-18T13:33:16.975Z</time></trkpt><trkpt lat="44.7392616" lon="8.9659533"><ele>314.3333333333333</ele><time>2026-04-18T13:33:17.975Z</time></trkpt><trkpt lat="44.7393878" lon="8.9661875"><ele>315.0</ele><time>2026-04-18T13:33:18.974Z</time></trkpt><trkpt lat="44.7394965" lon="8.966428"><ele>317.6666666666667</ele><time>2026-04-18T13:33:19.974Z</time></trkpt><trkpt lat="44.7395987" lon="8.9666474"><ele>320.33333333333337</ele><time>2026-04-18T13:33:20.975Z</time></trkpt><trkpt lat="44.739692" lon="8.9668563"><ele>323.0</ele><time>2026-04-18T13:33:21.975Z</time></trkpt><trkpt lat="44.739772" lon="8.9670775"><ele>323.0</ele><time>2026-04-18T13:33:22.975Z</time></trkpt><trkpt lat="44.739827" lon="8.9673085"><ele>323.0</ele><time>2026-04-18T13:33:23.974Z</time></trkpt><trkpt lat="44.7398539" lon="8.9675369"><ele>323.0</ele><time>2026-04-18T13:33:24.974Z</time></trkpt><trkpt lat="44.7398867" lon="8.9677581"><ele>319.33333333333337</ele><time>2026-04-18T13:33:25.975Z</time></trkpt><trkpt lat="44.739947" lon="8.9679732"><ele>315.6666666666667</ele><time>2026-04-18T13:33:26.975Z</time></trkpt><trkpt lat="44.7400348" lon="8.9681898"><ele>312.0</ele><time>2026-04-18T13:33:27.974Z</time></trkpt><trkpt lat="44.740141" lon="8.9684131"><ele>312.6666666666667</ele><time>2026-04-18T13:33:28.974Z</time></trkpt><trkpt lat="44.7402576" lon="8.968643"><ele>313.33333333333337</ele><time>2026-04-18T13:33:29.975Z</time></trkpt><trkpt lat="44.740378" lon="8.9688816"><ele>314.0</ele><time>2026-04-18T13:33:30.975Z</time></trkpt><trkpt lat="44.7404987" lon="8.9691211"><ele>312.6666666666667</ele><time>2026-04-18T13:33:31.974Z</time></trkpt><trkpt lat="44.7406198" lon="8.9693617"><ele>311.3333333333333</ele><time>2026-04-18T13:33:32.975Z</time></trkpt><trkpt lat="44.7407392" lon="8.9696096"><ele>310.0</ele><time>2026-04-18T13:33:33.974Z</time></trkpt><trkpt lat="44.7408518" lon="8.9698662"><ele>310.3333333333333</ele><time>2026-04-18T13:33:34.975Z</time></trkpt><trkpt lat="44.7409596" lon="8.9701297"><ele>310.6666666666667</ele><time>2026-04-18T13:33:35.974Z</time></trkpt><trkpt lat="44.7410671" lon="8.9703956"><ele>311.0</ele><time>2026-04-18T13:33:36.975Z</time></trkpt><trkpt lat="44.7411711" lon="8.9706539"><ele>312.6666666666667</ele><time>2026-04-18T13:33:37.974Z</time></trkpt><trkpt lat="44.7412714" lon="8.9708988"><ele>314.3333333333333</ele><time>2026-04-18T13:33:38.974Z</time></trkpt><trkpt lat="44.7413693" lon="8.9711304"><ele>316.0</ele><time>2026-04-18T13:33:39.975Z</time></trkpt><trkpt lat="44.7414652" lon="8.9713496"><ele>316.0</ele><time>2026-04-18T13:33:40.975Z</time></trkpt><trkpt lat="44.7415621" lon="8.971557"><ele>316.0</ele><time>2026-04-18T13:33:41.974Z</time></trkpt><trkpt lat="44.7416637" lon="8.9717628"><ele>316.0</ele><time>2026-04-18T13:33:42.974Z</time></trkpt><trkpt lat="44.7417756" lon="8.97198"><ele>317.0</ele><time>2026-04-18T13:33:43.975Z</time></trkpt><trkpt lat="44.7418913" lon="8.972202"><ele>318.0</ele><time>2026-04-18T13:33:44.975Z</time></trkpt><trkpt lat="44.7420088" lon="8.972429"><ele>319.0</ele><time>2026-04-18T13:33:45.974Z</time></trkpt><trkpt lat="44.7421256" lon="8.9726575"><ele>319.0</ele><time>2026-04-18T13:33:46.975Z</time></trkpt><trkpt lat="44.7422277" lon="8.9728995"><ele>319.0</ele><time>2026-04-18T13:33:47.975Z</time></trkpt><trkpt lat="44.7423094" lon="8.9731692"><ele>319.0</ele><time>2026-04-18T13:33:48.974Z</time></trkpt><trkpt lat="44.7423775" lon="8.9734564"><ele>318.66666666666663</ele><time>2026-04-18T13:33:49.975Z</time></trkpt><trkpt lat="44.7424387" lon="8.9737536"><ele>318.3333333333333</ele><time>2026-04-18T13:33:50.975Z</time></trkpt><trkpt lat="44.7424994" lon="8.9740547"><ele>318.0</ele><time>2026-04-18T13:33:51.975Z</time></trkpt><trkpt lat="44.7425585" lon="8.9743566"><ele>318.0</ele><time>2026-04-18T13:33:52.975Z</time></trkpt><trkpt lat="44.7426137" lon="8.9746551"><ele>318.0</ele><time>2026-04-18T13:33:53.975Z</time></trkpt><trkpt lat="44.742667" lon="8.9749485"><ele>318.0</ele><time>2026-04-18T13:33:54.974Z</time></trkpt><trkpt lat="44.7427159" lon="8.9752262"><ele>320.3333333333333</ele><time>2026-04-18T13:33:55.975Z</time></trkpt><trkpt lat="44.7427629" lon="8.9754879"><ele>322.66666666666663</ele><time>2026-04-18T13:33:56.974Z</time></trkpt><trkpt lat="44.7428211" lon="8.9757306"><ele>325.0</ele><time>2026-04-18T13:33:57.975Z</time></trkpt><trkpt lat="44.7429024" lon="8.97597"><ele>325.0</ele><time>2026-04-18T13:33:58.975Z</time></trkpt><trkpt lat="44.7429964" lon="8.9762077"><ele>325.0</ele><time>2026-04-18T13:33:59.975Z</time></trkpt><trkpt lat="44.7430969" lon="8.9764487"><ele>325.0</ele><time>2026-04-18T13:34:00.975Z</time></trkpt><trkpt lat="44.7432026" lon="8.9766912"><ele>324.66666666666663</ele><time>2026-04-18T13:34:01.975Z</time></trkpt><trkpt lat="44.7433098" lon="8.9769339"><ele>324.3333333333333</ele><time>2026-04-18T13:34:02.974Z</time></trkpt><trkpt lat="44.7434158" lon="8.9771752"><ele>324.0</ele><time>2026-04-18T13:34:03.975Z</time></trkpt><trkpt lat="44.7435198" lon="8.9774134"><ele>327.3333333333333</ele><time>2026-04-18T13:34:04.974Z</time></trkpt><trkpt lat="44.7436181" lon="8.9776394"><ele>330.66666666666663</ele><time>2026-04-18T13:34:05.975Z</time></trkpt><trkpt lat="44.7437179" lon="8.9778558"><ele>334.0</ele><time>2026-04-18T13:34:06.975Z</time></trkpt><trkpt lat="44.743821" lon="8.9780568"><ele>334.0</ele><time>2026-04-18T13:34:07.975Z</time></trkpt><trkpt lat="44.7439245" lon="8.978233"><ele>334.0</ele><time>2026-04-18T13:34:08.975Z</time></trkpt><trkpt lat="44.7440234" lon="8.9783943"><ele>334.0</ele><time>2026-04-18T13:34:09.975Z</time></trkpt><trkpt lat="44.7441164" lon="8.9785473"><ele>334.75</ele><time>2026-04-18T13:34:10.974Z</time></trkpt><trkpt lat="44.7442066" lon="8.978689"><ele>335.5</ele><time>2026-04-18T13:34:11.974Z</time></trkpt><trkpt lat="44.7442953" lon="8.9788265"><ele>336.25</ele><time>2026-04-18T13:34:12.974Z</time></trkpt><trkpt lat="44.7443822" lon="8.9789613"><ele>337.0</ele><time>2026-04-18T13:34:13.975Z</time></trkpt><trkpt lat="44.7444677" lon="8.9790969"><ele>334.25</ele><time>2026-04-18T13:34:14.974Z</time></trkpt><trkpt lat="44.7445521" lon="8.9792335"><ele>331.5</ele><time>2026-04-18T13:34:15.975Z</time></trkpt><trkpt lat="44.7446371" lon="8.979371"><ele>328.75</ele><time>2026-04-18T13:34:16.975Z</time></trkpt><trkpt lat="44.744725" lon="8.9795101"><ele>326.0</ele><time>2026-04-18T13:34:17.975Z</time></trkpt><trkpt lat="44.7448179" lon="8.979649"><ele>326.0</ele><time>2026-04-18T13:34:18.974Z</time></trkpt><trkpt lat="44.7449158" lon="8.9797951"><ele>326.0</ele><time>2026-04-18T13:34:19.975Z</time></trkpt><trkpt lat="44.7450147" lon="8.9799474"><ele>326.0</ele><time>2026-04-18T13:34:20.974Z</time></trkpt><trkpt lat="44.7451137" lon="8.9801043"><ele>326.0</ele><time>2026-04-18T13:34:21.975Z</time></trkpt><trkpt lat="44.7452116" lon="8.9802589"><ele>327.25</ele><time>2026-04-18T13:34:22.974Z</time></trkpt><trkpt lat="44.7453079" lon="8.98041"><ele>328.5</ele><time>2026-04-18T13:34:23.975Z</time></trkpt><trkpt lat="44.7454054" lon="8.980561"><ele>329.75</ele><time>2026-04-18T13:34:24.975Z</time></trkpt><trkpt lat="44.7455056" lon="8.9807124"><ele>331.0</ele><time>2026-04-18T13:34:25.975Z</time></trkpt><trkpt lat="44.7456043" lon="8.9808692"><ele>331.0</ele><time>2026-04-18T13:34:26.974Z</time></trkpt><trkpt lat="44.7457015" lon="8.9810333"><ele>331.0</ele><time>2026-04-18T13:34:27.974Z</time></trkpt><trkpt lat="44.7457893" lon="8.9812134"><ele>331.0</ele><time>2026-04-18T13:34:28.975Z</time></trkpt><trkpt lat="44.7458635" lon="8.9814097"><ele>331.0</ele><time>2026-04-18T13:34:29.974Z</time></trkpt><trkpt lat="44.7459237" lon="8.9816137"><ele>331.0</ele><time>2026-04-18T13:34:30.975Z</time></trkpt><trkpt lat="44.7459752" lon="8.9818233"><ele>331.0</ele><time>2026-04-18T13:34:31.974Z</time></trkpt><trkpt lat="44.7460239" lon="8.9820311"><ele>332.5</ele><time>2026-04-18T13:34:32.974Z</time></trkpt><trkpt lat="44.7460706" lon="8.9822268"><ele>334.0</ele><time>2026-04-18T13:34:33.975Z</time></trkpt><trkpt lat="44.7461153" lon="8.9824093"><ele>335.5</ele><time>2026-04-18T13:34:34.975Z</time></trkpt><trkpt lat="44.7461541" lon="8.982582"><ele>337.0</ele><time>2026-04-18T13:34:35.975Z</time></trkpt><trkpt lat="44.7461908" lon="8.9827407"><ele>337.0</ele><time>2026-04-18T13:34:36.974Z</time></trkpt><trkpt lat="44.7462369" lon="8.9828885"><ele>337.0</ele><time>2026-04-18T13:34:37.975Z</time></trkpt><trkpt lat="44.746297" lon="8.983033"><ele>337.0</ele><time>2026-04-18T13:34:38.975Z</time></trkpt><trkpt lat="44.7463733" lon="8.9831723"><ele>337.0</ele><time>2026-04-18T13:34:39.975Z</time></trkpt><trkpt lat="44.7464641" lon="8.9832988"><ele>336.75</ele><time>2026-04-18T13:34:40.975Z</time></trkpt><trkpt lat="44.7465612" lon="8.9834292"><ele>336.5</ele><time>2026-04-18T13:34:41.975Z</time></trkpt><trkpt lat="44.7466685" lon="8.9835617"><ele>336.25</ele><time>2026-04-18T13:34:42.974Z</time></trkpt><trkpt lat="44.7467773" lon="8.9837"><ele>336.0</ele><time>2026-04-18T13:34:43.974Z</time></trkpt><trkpt lat="44.7468841" lon="8.9838441"><ele>337.3333333333333</ele><time>2026-04-18T13:34:44.974Z</time></trkpt><trkpt lat="44.7469948" lon="8.9839891"><ele>338.66666666666663</ele><time>2026-04-18T13:34:45.975Z</time></trkpt><trkpt lat="44.7471086" lon="8.9841401"><ele>340.0</ele><time>2026-04-18T13:34:46.974Z</time></trkpt><trkpt lat="44.7472234" lon="8.9842916"><ele>340.0</ele><time>2026-04-18T13:34:47.975Z</time></trkpt><trkpt lat="44.7473377" lon="8.9844503"><ele>340.0</ele><time>2026-04-18T13:34:48.974Z</time></trkpt><trkpt lat="44.7474536" lon="8.9846109"><ele>340.0</ele><time>2026-04-18T13:34:49.975Z</time></trkpt><trkpt lat="44.747569" lon="8.9847645"><ele>340.0</ele><time>2026-04-18T13:34:50.975Z</time></trkpt><trkpt lat="44.7476786" lon="8.9849107"><ele>340.0</ele><time>2026-04-18T13:34:51.974Z</time></trkpt><trkpt lat="44.7477844" lon="8.9850542"><ele>340.0</ele><time>2026-04-18T13:34:52.974Z</time></trkpt><trkpt lat="44.7478966" lon="8.9851952"><ele>340.0</ele><time>2026-04-18T13:34:53.974Z</time></trkpt><trkpt lat="44.7480154" lon="8.9853266"><ele>340.0</ele><time>2026-04-18T13:34:54.975Z</time></trkpt><trkpt lat="44.7481431" lon="8.9854524"><ele>340.0</ele><time>2026-04-18T13:34:55.975Z</time></trkpt><trkpt lat="44.7482781" lon="8.9855836"><ele>340.0</ele><time>2026-04-18T13:34:56.975Z</time></trkpt><trkpt lat="44.7484141" lon="8.9857248"><ele>342.66666666666663</ele><time>2026-04-18T13:34:57.974Z</time></trkpt><trkpt lat="44.7485482" lon="8.9858781"><ele>345.3333333333333</ele><time>2026-04-18T13:34:58.975Z</time></trkpt><trkpt lat="44.7486861" lon="8.9860338"><ele>348.0</ele><time>2026-04-18T13:34:59.975Z</time></trkpt><trkpt lat="44.7488243" lon="8.9861926"><ele>348.0</ele><time>2026-04-18T13:35:00.974Z</time></trkpt><trkpt lat="44.7489609" lon="8.9863618"><ele>348.0</ele><time>2026-04-18T13:35:01.975Z</time></trkpt><trkpt lat="44.7490971" lon="8.9865376"><ele>348.0</ele><time>2026-04-18T13:35:02.975Z</time></trkpt><trkpt lat="44.7492356" lon="8.9867159"><ele>350.0</ele><time>2026-04-18T13:35:03.975Z</time></trkpt><trkpt lat="44.7493793" lon="8.9868959"><ele>352.0</ele><time>2026-04-18T13:35:04.975Z</time></trkpt><trkpt lat="44.7495291" lon="8.9870742"><ele>354.0</ele><time>2026-04-18T13:35:05.975Z</time></trkpt><trkpt lat="44.7496841" lon="8.9872525"><ele>354.0</ele><time>2026-04-18T13:35:06.975Z</time></trkpt><trkpt lat="44.7498426" lon="8.9874347"><ele>354.0</ele><time>2026-04-18T13:35:07.975Z</time></trkpt><trkpt lat="44.7500046" lon="8.9876212"><ele>354.0</ele><time>2026-04-18T13:35:08.975Z</time></trkpt><trkpt lat="44.7501627" lon="8.9878087"><ele>355.6666666666667</ele><time>2026-04-18T13:35:09.975Z</time></trkpt><trkpt lat="44.7503106" lon="8.9879939"><ele>357.33333333333337</ele><time>2026-04-18T13:35:10.975Z</time></trkpt><trkpt lat="44.7504497" lon="8.9881857"><ele>359.0</ele><time>2026-04-18T13:35:11.975Z</time></trkpt><trkpt lat="44.7505681" lon="8.9884037"><ele>355.0</ele><time>2026-04-18T13:35:12.974Z</time></trkpt><trkpt lat="44.750676" lon="8.9886407"><ele>351.0</ele><time>2026-04-18T13:35:13.974Z</time></trkpt><trkpt lat="44.7507858" lon="8.9888813"><ele>347.0</ele><time>2026-04-18T13:35:14.975Z</time></trkpt><trkpt lat="44.7508969" lon="8.9891285"><ele>347.33333333333337</ele><time>2026-04-18T13:35:15.974Z</time></trkpt><trkpt lat="44.7510052" lon="8.9893768"><ele>347.6666666666667</ele><time>2026-04-18T13:35:16.974Z</time></trkpt><trkpt lat="44.7511062" lon="8.9896183"><ele>348.0</ele><time>2026-04-18T13:35:17.975Z</time></trkpt><trkpt lat="44.7512018" lon="8.9898489"><ele>348.6666666666667</ele><time>2026-04-18T13:35:18.974Z</time></trkpt><trkpt lat="44.7513015" lon="8.9900601"><ele>349.33333333333337</ele><time>2026-04-18T13:35:19.974Z</time></trkpt><trkpt lat="44.7514182" lon="8.9902464"><ele>350.0</ele><time>2026-04-18T13:35:20.975Z</time></trkpt><trkpt lat="44.751552" lon="8.9904166"><ele>350.0</ele><time>2026-04-18T13:35:21.975Z</time></trkpt><trkpt lat="44.7516915" lon="8.99058"><ele>350.0</ele><time>2026-04-18T13:35:22.974Z</time></trkpt><trkpt lat="44.7518264" lon="8.9907429"><ele>350.0</ele><time>2026-04-18T13:35:23.974Z</time></trkpt><trkpt lat="44.7519565" lon="8.9909016"><ele>351.33333333333337</ele><time>2026-04-18T13:35:24.975Z</time></trkpt><trkpt lat="44.7520881" lon="8.9910556"><ele>352.6666666666667</ele><time>2026-04-18T13:35:25.974Z</time></trkpt><trkpt lat="44.7522272" lon="8.9911984"><ele>354.0</ele><time>2026-04-18T13:35:26.975Z</time></trkpt><trkpt lat="44.7523733" lon="8.9913241"><ele>354.0</ele><time>2026-04-18T13:35:27.975Z</time></trkpt><trkpt lat="44.7525239" lon="8.9914329"><ele>354.0</ele><time>2026-04-18T13:35:28.974Z</time></trkpt><trkpt lat="44.7526882" lon="8.9915152"><ele>354.0</ele><time>2026-04-18T13:35:29.974Z</time></trkpt><trkpt lat="44.7528759" lon="8.9915821"><ele>355.0</ele><time>2026-04-18T13:35:30.975Z</time></trkpt><trkpt lat="44.7530792" lon="8.9916485"><ele>356.0</ele><time>2026-04-18T13:35:31.975Z</time></trkpt><trkpt lat="44.7532945" lon="8.9917189"><ele>357.0</ele><time>2026-04-18T13:35:32.975Z</time></trkpt><trkpt lat="44.7535234" lon="8.9917934"><ele>358.0</ele><time>2026-04-18T13:35:33.975Z</time></trkpt><trkpt lat="44.7537585" lon="8.9918673"><ele>359.0</ele><time>2026-04-18T13:35:34.974Z</time></trkpt><trkpt lat="44.7539949" lon="8.9919427"><ele>359.0</ele><time>2026-04-18T13:35:35.975Z</time></trkpt><trkpt lat="44.7542319" lon="8.9920197"><ele>359.0</ele><time>2026-04-18T13:35:36.974Z</time></trkpt><trkpt lat="44.7544679" lon="8.9920969"><ele>359.5</ele><time>2026-04-18T13:35:37.975Z</time></trkpt><trkpt lat="44.7547012" lon="8.9921704"><ele>360.0</ele><time>2026-04-18T13:35:38.975Z</time></trkpt><trkpt lat="44.7549307" lon="8.9922417"><ele>360.0</ele><time>2026-04-18T13:35:39.975Z</time></trkpt><trkpt lat="44.7551584" lon="8.9923138"><ele>360.0</ele><time>2026-04-18T13:35:40.975Z</time></trkpt><trkpt lat="44.7553836" lon="8.9923897"><ele>362.0</ele><time>2026-04-18T13:35:41.974Z</time></trkpt><trkpt lat="44.7556073" lon="8.9924626"><ele>364.0</ele><time>2026-04-18T13:35:42.975Z</time></trkpt><trkpt lat="44.7558299" lon="8.9925365"><ele>367.0</ele><time>2026-04-18T13:35:43.975Z</time></trkpt><trkpt lat="44.7560519" lon="8.9926101"><ele>370.0</ele><time>2026-04-18T13:35:44.975Z</time></trkpt><trkpt lat="44.7562721" lon="8.9926814"><ele>370.0</ele><time>2026-04-18T13:35:45.975Z</time></trkpt><trkpt lat="44.7564847" lon="8.9927516"><ele>370.0</ele><time>2026-04-18T13:35:46.975Z</time></trkpt><trkpt lat="44.7566887" lon="8.9928183"><ele>370.0</ele><time>2026-04-18T13:35:47.975Z</time></trkpt><trkpt lat="44.7568868" lon="8.9928843"><ele>370.66666666666663</ele><time>2026-04-18T13:35:48.974Z</time></trkpt><trkpt lat="44.7570787" lon="8.9929499"><ele>371.3333333333333</ele><time>2026-04-18T13:35:49.975Z</time></trkpt><trkpt lat="44.7572625" lon="8.9930145"><ele>372.0</ele><time>2026-04-18T13:35:50.974Z</time></trkpt><trkpt lat="44.7574381" lon="8.9930923"><ele>372.0</ele><time>2026-04-18T13:35:51.974Z</time></trkpt><trkpt lat="44.7576059" lon="8.9932062"><ele>372.0</ele><time>2026-04-18T13:35:52.975Z</time></trkpt><trkpt lat="44.7577555" lon="8.9933583"><ele>372.0</ele><time>2026-04-18T13:35:53.975Z</time></trkpt><trkpt lat="44.7578922" lon="8.993525"><ele>372.0</ele><time>2026-04-18T13:35:54.975Z</time></trkpt><trkpt lat="44.7580164" lon="8.9936834"><ele>372.0</ele><time>2026-04-18T13:35:55.975Z</time></trkpt><trkpt lat="44.758131" lon="8.9938192"><ele>372.0</ele><time>2026-04-18T13:35:56.974Z</time></trkpt><trkpt lat="44.758247" lon="8.9939061"><ele>372.0</ele><time>2026-04-18T13:35:57.975Z</time></trkpt><trkpt lat="44.7583761" lon="8.9939526"><ele>372.0</ele><time>2026-04-18T13:35:58.974Z</time></trkpt><trkpt lat="44.7585246" lon="8.9939577"><ele>372.0</ele><time>2026-04-18T13:35:59.975Z</time></trkpt><trkpt lat="44.7586858" lon="8.9939324"><ele>372.0</ele><time>2026-04-18T13:36:00.975Z</time></trkpt><trkpt lat="44.7588605" lon="8.9939011"><ele>375.0</ele><time>2026-04-18T13:36:01.974Z</time></trkpt><trkpt lat="44.7590486" lon="8.9938731"><ele>378.0</ele><time>2026-04-18T13:36:02.974Z</time></trkpt><trkpt lat="44.7592412" lon="8.9938442"><ele>381.0</ele><time>2026-04-18T13:36:03.974Z</time></trkpt><trkpt lat="44.7594405" lon="8.9938183"><ele>383.0</ele><time>2026-04-18T13:36:04.975Z</time></trkpt><trkpt lat="44.7596488" lon="8.9937917"><ele>385.0</ele><time>2026-04-18T13:36:05.975Z</time></trkpt><trkpt lat="44.7598633" lon="8.9937652"><ele>387.0</ele><time>2026-04-18T13:36:06.975Z</time></trkpt><trkpt lat="44.7600789" lon="8.9937321"><ele>392.0</ele><time>2026-04-18T13:36:07.974Z</time></trkpt><trkpt lat="44.7602945" lon="8.9936795"><ele>397.0</ele><time>2026-04-18T13:36:08.974Z</time></trkpt><trkpt lat="44.7605089" lon="8.9936063"><ele>402.0</ele><time>2026-04-18T13:36:09.975Z</time></trkpt><trkpt lat="44.7607221" lon="8.9935263"><ele>402.0</ele><time>2026-04-18T13:36:10.974Z</time></trkpt><trkpt lat="44.760937" lon="8.9934503"><ele>402.0</ele><time>2026-04-18T13:36:11.975Z</time></trkpt><trkpt lat="44.7611477" lon="8.9933785"><ele>402.0</ele><time>2026-04-18T13:36:12.975Z</time></trkpt><trkpt lat="44.7613529" lon="8.9933096"><ele>402.66666666666663</ele><time>2026-04-18T13:36:13.974Z</time></trkpt><trkpt lat="44.7615484" lon="8.9932455"><ele>403.3333333333333</ele><time>2026-04-18T13:36:14.974Z</time></trkpt><trkpt lat="44.7617294" lon="8.9931868"><ele>404.0</ele><time>2026-04-18T13:36:15.974Z</time></trkpt><trkpt lat="44.7618972" lon="8.993129"><ele>404.0</ele><time>2026-04-18T13:36:16.974Z</time></trkpt><trkpt lat="44.7620621" lon="8.9930679"><ele>404.0</ele><time>2026-04-18T13:36:17.975Z</time></trkpt><trkpt lat="44.7622242" lon="8.9930119"><ele>404.0</ele><time>2026-04-18T13:36:18.974Z</time></trkpt><trkpt lat="44.7623849" lon="8.9929647"><ele>404.0</ele><time>2026-04-18T13:36:19.974Z</time></trkpt><trkpt lat="44.7625343" lon="8.9929024"><ele>404.0</ele><time>2026-04-18T13:36:20.974Z</time></trkpt><trkpt lat="44.7626717" lon="8.9928026"><ele>404.0</ele><time>2026-04-18T13:36:21.975Z</time></trkpt><trkpt lat="44.7628048" lon="8.9926577"><ele>404.0</ele><time>2026-04-18T13:36:22.975Z</time></trkpt><trkpt lat="44.7629413" lon="8.992495"><ele>404.0</ele><time>2026-04-18T13:36:23.975Z</time></trkpt><trkpt lat="44.7630815" lon="8.9923208"><ele>404.0</ele><time>2026-04-18T13:36:24.975Z</time></trkpt><trkpt lat="44.7632251" lon="8.9921307"><ele>404.0</ele><time>2026-04-18T13:36:25.974Z</time></trkpt><trkpt lat="44.7633719" lon="8.9919292"><ele>404.0</ele><time>2026-04-18T13:36:26.975Z</time></trkpt><trkpt lat="44.7635265" lon="8.9917334"><ele>404.0</ele><time>2026-04-18T13:36:27.974Z</time></trkpt><trkpt lat="44.7636917" lon="8.9915485"><ele>411.3333333333333</ele><time>2026-04-18T13:36:28.974Z</time></trkpt><trkpt lat="44.7638636" lon="8.9913696"><ele>418.66666666666663</ele><time>2026-04-18T13:36:29.975Z</time></trkpt><trkpt lat="44.7640347" lon="8.991195"><ele>426.0</ele><time>2026-04-18T13:36:30.975Z</time></trkpt><trkpt lat="44.7642016" lon="8.9910309"><ele>428.66666666666663</ele><time>2026-04-18T13:36:31.975Z</time></trkpt><trkpt lat="44.7643633" lon="8.9908882"><ele>431.3333333333333</ele><time>2026-04-18T13:36:32.975Z</time></trkpt><trkpt lat="44.7645138" lon="8.9907516"><ele>434.0</ele><time>2026-04-18T13:36:33.974Z</time></trkpt><trkpt lat="44.7646569" lon="8.9906062"><ele>434.0</ele><time>2026-04-18T13:36:34.975Z</time></trkpt><trkpt lat="44.7647936" lon="8.9904418"><ele>434.0</ele><time>2026-04-18T13:36:35.975Z</time></trkpt><trkpt lat="44.7649239" lon="8.9902533"><ele>434.0</ele><time>2026-04-18T13:36:36.974Z</time></trkpt><trkpt lat="44.7650437" lon="8.9900448"><ele>436.0</ele><time>2026-04-18T13:36:37.975Z</time></trkpt><trkpt lat="44.7651519" lon="8.9898233"><ele>438.0</ele><time>2026-04-18T13:36:38.975Z</time></trkpt><trkpt lat="44.7652479" lon="8.9896075"><ele>440.0</ele><time>2026-04-18T13:36:39.975Z</time></trkpt><trkpt lat="44.7653297" lon="8.989402"><ele>443.25</ele><time>2026-04-18T13:36:40.974Z</time></trkpt><trkpt lat="44.7653974" lon="8.9892125"><ele>446.5</ele><time>2026-04-18T13:36:41.974Z</time></trkpt><trkpt lat="44.7654615" lon="8.9890457"><ele>449.75</ele><time>2026-04-18T13:36:42.975Z</time></trkpt><trkpt lat="44.7655408" lon="8.9889353"><ele>453.0</ele><time>2026-04-18T13:36:43.974Z</time></trkpt><trkpt lat="44.7656288" lon="8.9888642"><ele>453.0</ele><time>2026-04-18T13:36:44.974Z</time></trkpt><trkpt lat="44.7657294" lon="8.9888166"><ele>453.0</ele><time>2026-04-18T13:36:45.974Z</time></trkpt><trkpt lat="44.7658582" lon="8.9887855"><ele>453.0</ele><time>2026-04-18T13:36:46.974Z</time></trkpt><trkpt lat="44.7659815" lon="8.9887412"><ele>453.0</ele><time>2026-04-18T13:36:47.975Z</time></trkpt><trkpt lat="44.7661095" lon="8.9886982"><ele>435.0</ele><time>2026-04-18T13:36:48.974Z</time></trkpt><trkpt lat="44.7662369" lon="8.9886563"><ele>417.0</ele><time>2026-04-18T13:36:49.974Z</time></trkpt><trkpt lat="44.7688768" lon="8.9883105"><ele>417.0</ele><time>2026-04-18T13:37:04.974Z</time></trkpt><trkpt lat="44.7689152" lon="8.9882268"><ele>417.0</ele><time>2026-04-18T13:37:05.974Z</time></trkpt><trkpt lat="44.7689236" lon="8.988125"><ele>417.0</ele><time>2026-04-18T13:37:06.975Z</time></trkpt><trkpt lat="44.768891" lon="8.9880176"><ele>417.0</ele><time>2026-04-18T13:37:07.974Z</time></trkpt><trkpt lat="44.7688546" lon="8.9879201"><ele>417.0</ele><time>2026-04-18T13:37:08.975Z</time></trkpt><trkpt lat="44.76885" lon="8.9878297"><ele>417.0</ele><time>2026-04-18T13:37:09.974Z</time></trkpt><trkpt lat="44.7689224" lon="8.9877392"><ele>417.0</ele><time>2026-04-18T13:37:11.975Z</time></trkpt><trkpt lat="44.7690022" lon="8.9878547"><ele>417.0</ele><time>2026-04-18T13:37:13.974Z</time></trkpt><trkpt lat="44.7690266" lon="8.9879943"><ele>417.0</ele><time>2026-04-18T13:37:14.975Z</time></trkpt><trkpt lat="44.7690518" lon="8.9881716"><ele>417.0</ele><time>2026-04-18T13:37:15.975Z</time></trkpt><trkpt lat="44.7690852" lon="8.988364"><ele>415.0</ele><time>2026-04-18T13:37:16.975Z</time></trkpt><trkpt lat="44.7691149" lon="8.9885549"><ele>413.0</ele><time>2026-04-18T13:37:17.974Z</time></trkpt><trkpt lat="44.7691325" lon="8.9887677"><ele>411.0</ele><time>2026-04-18T13:37:18.974Z</time></trkpt><trkpt lat="44.7691418" lon="8.9889862"><ele>409.0</ele><time>2026-04-18T13:37:19.975Z</time></trkpt><trkpt lat="44.769143" lon="8.9892047"><ele>409.0</ele><time>2026-04-18T13:37:20.975Z</time></trkpt><trkpt lat="44.7691363" lon="8.9894177"><ele>409.0</ele><time>2026-04-18T13:37:21.974Z</time></trkpt><trkpt lat="44.7691224" lon="8.9896008"><ele>409.0</ele><time>2026-04-18T13:37:22.975Z</time></trkpt><trkpt lat="44.7691122" lon="8.9897517"><ele>409.0</ele><time>2026-04-18T13:37:23.975Z</time></trkpt><trkpt lat="44.7691277" lon="8.9898874"><ele>410.25</ele><time>2026-04-18T13:37:24.975Z</time></trkpt><trkpt lat="44.7691765" lon="8.9900197"><ele>411.5</ele><time>2026-04-18T13:37:25.974Z</time></trkpt><trkpt lat="44.7692628" lon="8.9901424"><ele>412.75</ele><time>2026-04-18T13:37:26.974Z</time></trkpt><trkpt lat="44.7693759" lon="8.9902641"><ele>414.0</ele><time>2026-04-18T13:37:27.974Z</time></trkpt><trkpt lat="44.769499" lon="8.9904073"><ele>408.66666666666663</ele><time>2026-04-18T13:37:28.975Z</time></trkpt><trkpt lat="44.7696289" lon="8.9905658"><ele>403.3333333333333</ele><time>2026-04-18T13:37:29.975Z</time></trkpt><trkpt lat="44.7697655" lon="8.9907249"><ele>398.0</ele><time>2026-04-18T13:37:30.974Z</time></trkpt><trkpt lat="44.7699039" lon="8.9908883"><ele>398.0</ele><time>2026-04-18T13:37:31.975Z</time></trkpt><trkpt lat="44.7700397" lon="8.9910513"><ele>398.0</ele><time>2026-04-18T13:37:32.975Z</time></trkpt><trkpt lat="44.7701665" lon="8.9912127"><ele>398.0</ele><time>2026-04-18T13:37:33.974Z</time></trkpt><trkpt lat="44.7702799" lon="8.9913862"><ele>391.0</ele><time>2026-04-18T13:37:34.974Z</time></trkpt><trkpt lat="44.77038" lon="8.9915624"><ele>384.0</ele><time>2026-04-18T13:37:35.975Z</time></trkpt><trkpt lat="44.7704552" lon="8.991727"><ele>377.0</ele><time>2026-04-18T13:37:36.975Z</time></trkpt><trkpt lat="44.7704979" lon="8.9918874"><ele>370.0</ele><time>2026-04-18T13:37:37.975Z</time></trkpt><trkpt lat="44.7705094" lon="8.9920378"><ele>370.0</ele><time>2026-04-18T13:37:38.974Z</time></trkpt><trkpt lat="44.7704922" lon="8.9921842"><ele>370.0</ele><time>2026-04-18T13:37:39.974Z</time></trkpt><trkpt lat="44.7704462" lon="8.9923224"><ele>370.0</ele><time>2026-04-18T13:37:40.975Z</time></trkpt><trkpt lat="44.7703767" lon="8.9924486"><ele>370.0</ele><time>2026-04-18T13:37:41.974Z</time></trkpt><trkpt lat="44.7703186" lon="8.9925824"><ele>370.0</ele><time>2026-04-18T13:37:42.975Z</time></trkpt><trkpt lat="44.7702953" lon="8.9927349"><ele>370.0</ele><time>2026-04-18T13:37:43.975Z</time></trkpt><trkpt lat="44.7703027" lon="8.9928808"><ele>370.0</ele><time>2026-04-18T13:37:44.974Z</time></trkpt><trkpt lat="44.7703493" lon="8.99301"><ele>370.0</ele><time>2026-04-18T13:37:45.974Z</time></trkpt><trkpt lat="44.7704267" lon="8.9931366"><ele>370.0</ele><time>2026-04-18T13:37:46.975Z</time></trkpt><trkpt lat="44.7705299" lon="8.9932707"><ele>371.66666666666663</ele><time>2026-04-18T13:37:47.975Z</time></trkpt><trkpt lat="44.7706421" lon="8.9934254"><ele>373.3333333333333</ele><time>2026-04-18T13:37:48.975Z</time></trkpt><trkpt lat="44.7707418" lon="8.9935878"><ele>375.0</ele><time>2026-04-18T13:37:49.975Z</time></trkpt><trkpt lat="44.7708383" lon="8.9937383"><ele>375.0</ele><time>2026-04-18T13:37:50.974Z</time></trkpt><trkpt lat="44.7709474" lon="8.9938602"><ele>375.0</ele><time>2026-04-18T13:37:51.974Z</time></trkpt><trkpt lat="44.7710676" lon="8.9939469"><ele>375.0</ele><time>2026-04-18T13:37:52.975Z</time></trkpt><trkpt lat="44.7711955" lon="8.993998"><ele>375.0</ele><time>2026-04-18T13:37:53.974Z</time></trkpt><trkpt lat="44.7713215" lon="8.9940534"><ele>377.25</ele><time>2026-04-18T13:37:54.974Z</time></trkpt><trkpt lat="44.7714247" lon="8.9941525"><ele>379.5</ele><time>2026-04-18T13:37:55.974Z</time></trkpt><trkpt lat="44.7715016" lon="8.9942793"><ele>381.75</ele><time>2026-04-18T13:37:56.974Z</time></trkpt><trkpt lat="44.7715471" lon="8.9944205"><ele>384.0</ele><time>2026-04-18T13:37:57.975Z</time></trkpt><trkpt lat="44.7715855" lon="8.994555"><ele>384.0</ele><time>2026-04-18T13:37:58.974Z</time></trkpt><trkpt lat="44.7716487" lon="8.9946378"><ele>384.0</ele><time>2026-04-18T13:37:59.974Z</time></trkpt><trkpt lat="44.7717221" lon="8.9946698"><ele>384.0</ele><time>2026-04-18T13:38:00.974Z</time></trkpt><trkpt lat="44.7717925" lon="8.9946393"><ele>384.0</ele><time>2026-04-18T13:38:01.974Z</time></trkpt><trkpt lat="44.7718309" lon="8.994562"><ele>384.0</ele><time>2026-04-18T13:38:02.975Z</time></trkpt><trkpt lat="44.771794" lon="8.9943705"><ele>384.0</ele><time>2026-04-18T13:38:04.974Z</time></trkpt><trkpt lat="44.771719" lon="8.9942477"><ele>378.5</ele><time>2026-04-18T13:38:05.975Z</time></trkpt><trkpt lat="44.7716323" lon="8.9941085"><ele>373.0</ele><time>2026-04-18T13:38:06.974Z</time></trkpt><trkpt lat="44.7715397" lon="8.9939665"><ele>367.5</ele><time>2026-04-18T13:38:07.975Z</time></trkpt><trkpt lat="44.771452" lon="8.9938308"><ele>362.0</ele><time>2026-04-18T13:38:08.975Z</time></trkpt><trkpt lat="44.771389" lon="8.9936899"><ele>362.0</ele><time>2026-04-18T13:38:09.975Z</time></trkpt><trkpt lat="44.7713622" lon="8.9935377"><ele>362.0</ele><time>2026-04-18T13:38:10.974Z</time></trkpt><trkpt lat="44.7713674" lon="8.9933804"><ele>362.0</ele><time>2026-04-18T13:38:11.974Z</time></trkpt><trkpt lat="44.7713672" lon="8.9932032"><ele>362.0</ele><time>2026-04-18T13:38:12.975Z</time></trkpt><trkpt lat="44.7713328" lon="8.9930114"><ele>358.33333333333337</ele><time>2026-04-18T13:38:13.974Z</time></trkpt><trkpt lat="44.7712769" lon="8.9928185"><ele>354.6666666666667</ele><time>2026-04-18T13:38:14.975Z</time></trkpt><trkpt lat="44.7712476" lon="8.9926122"><ele>351.0</ele><time>2026-04-18T13:38:15.975Z</time></trkpt><trkpt lat="44.7712374" lon="8.9923797"><ele>347.6666666666667</ele><time>2026-04-18T13:38:16.974Z</time></trkpt><trkpt lat="44.7712444" lon="8.9921389"><ele>344.33333333333337</ele><time>2026-04-18T13:38:17.975Z</time></trkpt><trkpt lat="44.7712394" lon="8.9919179"><ele>341.0</ele><time>2026-04-18T13:38:18.975Z</time></trkpt><trkpt lat="44.7712324" lon="8.9917209"><ele>342.4</ele><time>2026-04-18T13:38:19.975Z</time></trkpt><trkpt lat="44.7712271" lon="8.9915744"><ele>343.8</ele><time>2026-04-18T13:38:20.975Z</time></trkpt><trkpt lat="44.771229" lon="8.9914665"><ele>345.2</ele><time>2026-04-18T13:38:21.974Z</time></trkpt><trkpt lat="44.7712969" lon="8.9913335"><ele>346.59999999999997</ele><time>2026-04-18T13:38:23.974Z</time></trkpt><trkpt lat="44.7714079" lon="8.9913398"><ele>348.0</ele><time>2026-04-18T13:38:25.974Z</time></trkpt><trkpt lat="44.7714511" lon="8.9914151"><ele>348.0</ele><time>2026-04-18T13:38:26.975Z</time></trkpt><trkpt lat="44.771475" lon="8.9915267"><ele>348.0</ele><time>2026-04-18T13:38:27.975Z</time></trkpt><trkpt lat="44.7714973" lon="8.9916622"><ele>348.0</ele><time>2026-04-18T13:38:28.975Z</time></trkpt><trkpt lat="44.7715575" lon="8.9917949"><ele>348.0</ele><time>2026-04-18T13:38:29.974Z</time></trkpt><trkpt lat="44.7716434" lon="8.9918872"><ele>348.0</ele><time>2026-04-18T13:38:30.974Z</time></trkpt><trkpt lat="44.7717542" lon="8.9919383"><ele>346.25</ele><time>2026-04-18T13:38:31.974Z</time></trkpt><trkpt lat="44.7718816" lon="8.9919599"><ele>344.5</ele><time>2026-04-18T13:38:32.975Z</time></trkpt><trkpt lat="44.7720046" lon="8.9920034"><ele>342.75</ele><time>2026-04-18T13:38:33.975Z</time></trkpt><trkpt lat="44.7721105" lon="8.9920932"><ele>341.0</ele><time>2026-04-18T13:38:34.974Z</time></trkpt><trkpt lat="44.7721999" lon="8.9922283"><ele>341.0</ele><time>2026-04-18T13:38:35.974Z</time></trkpt><trkpt lat="44.7722787" lon="8.9923923"><ele>341.0</ele><time>2026-04-18T13:38:36.975Z</time></trkpt><trkpt lat="44.7723661" lon="8.992543"><ele>341.0</ele><time>2026-04-18T13:38:37.975Z</time></trkpt><trkpt lat="44.7724809" lon="8.9926717"><ele>341.0</ele><time>2026-04-18T13:38:38.975Z</time></trkpt><trkpt lat="44.7726199" lon="8.9927873"><ele>338.6666666666667</ele><time>2026-04-18T13:38:39.974Z</time></trkpt><trkpt lat="44.7727693" lon="8.9929041"><ele>336.3333333333333</ele><time>2026-04-18T13:38:40.975Z</time></trkpt><trkpt lat="44.772919" lon="8.993046"><ele>334.0</ele><time>2026-04-18T13:38:41.975Z</time></trkpt><trkpt lat="44.7730664" lon="8.9932092"><ele>330.66666666666663</ele><time>2026-04-18T13:38:42.974Z</time></trkpt><trkpt lat="44.7732207" lon="8.9933737"><ele>327.3333333333333</ele><time>2026-04-18T13:38:43.974Z</time></trkpt><trkpt lat="44.7733822" lon="8.9935314"><ele>324.0</ele><time>2026-04-18T13:38:44.975Z</time></trkpt><trkpt lat="44.7735454" lon="8.9936746"><ele>323.6666666666667</ele><time>2026-04-18T13:38:45.975Z</time></trkpt><trkpt lat="44.7737052" lon="8.9938056"><ele>323.33333333333337</ele><time>2026-04-18T13:38:46.974Z</time></trkpt><trkpt lat="44.7738568" lon="8.9939323"><ele>323.0</ele><time>2026-04-18T13:38:47.975Z</time></trkpt><trkpt lat="44.7739962" lon="8.9940479"><ele>323.0</ele><time>2026-04-18T13:38:48.974Z</time></trkpt><trkpt lat="44.774125" lon="8.9941311"><ele>323.0</ele><time>2026-04-18T13:38:49.975Z</time></trkpt><trkpt lat="44.7742542" lon="8.9941864"><ele>323.0</ele><time>2026-04-18T13:38:50.975Z</time></trkpt><trkpt lat="44.774386" lon="8.9942097"><ele>323.0</ele><time>2026-04-18T13:38:51.975Z</time></trkpt><trkpt lat="44.7745284" lon="8.9941938"><ele>324.0</ele><time>2026-04-18T13:38:52.975Z</time></trkpt><trkpt lat="44.7746791" lon="8.9941534"><ele>325.0</ele><time>2026-04-18T13:38:53.975Z</time></trkpt><trkpt lat="44.7748303" lon="8.9941295"><ele>326.0</ele><time>2026-04-18T13:38:54.974Z</time></trkpt><trkpt lat="44.7749748" lon="8.9941437"><ele>323.25</ele><time>2026-04-18T13:38:55.975Z</time></trkpt><trkpt lat="44.7751016" lon="8.9942124"><ele>320.5</ele><time>2026-04-18T13:38:56.974Z</time></trkpt><trkpt lat="44.7752253" lon="8.9942919"><ele>317.75</ele><time>2026-04-18T13:38:57.975Z</time></trkpt><trkpt lat="44.7753667" lon="8.9943274"><ele>315.0</ele><time>2026-04-18T13:38:58.975Z</time></trkpt><trkpt lat="44.7755221" lon="8.9943354"><ele>313.0</ele><time>2026-04-18T13:38:59.975Z</time></trkpt><trkpt lat="44.7756749" lon="8.994346"><ele>311.0</ele><time>2026-04-18T13:39:00.975Z</time></trkpt><trkpt lat="44.7758261" lon="8.9943543"><ele>309.0</ele><time>2026-04-18T13:39:01.974Z</time></trkpt><trkpt lat="44.7759799" lon="8.9943623"><ele>308.3333333333333</ele><time>2026-04-18T13:39:02.975Z</time></trkpt><trkpt lat="44.7761422" lon="8.9943732"><ele>307.66666666666663</ele><time>2026-04-18T13:39:03.974Z</time></trkpt><trkpt lat="44.7763085" lon="8.9944006"><ele>307.0</ele><time>2026-04-18T13:39:04.975Z</time></trkpt><trkpt lat="44.7764803" lon="8.9944501"><ele>307.0</ele><time>2026-04-18T13:39:05.974Z</time></trkpt><trkpt lat="44.7766545" lon="8.9945174"><ele>307.0</ele><time>2026-04-18T13:39:06.975Z</time></trkpt><trkpt lat="44.7768308" lon="8.9945915"><ele>307.0</ele><time>2026-04-18T13:39:07.975Z</time></trkpt><trkpt lat="44.7770094" lon="8.9946649"><ele>307.0</ele><time>2026-04-18T13:39:08.974Z</time></trkpt><trkpt lat="44.7771856" lon="8.9947376"><ele>307.0</ele><time>2026-04-18T13:39:09.974Z</time></trkpt><trkpt lat="44.7773543" lon="8.9948072"><ele>307.0</ele><time>2026-04-18T13:39:10.975Z</time></trkpt><trkpt lat="44.7775138" lon="8.9948723"><ele>307.0</ele><time>2026-04-18T13:39:11.975Z</time></trkpt><trkpt lat="44.7776669" lon="8.9949354"><ele>307.0</ele><time>2026-04-18T13:39:12.975Z</time></trkpt><trkpt lat="44.7778138" lon="8.9949949"><ele>307.0</ele><time>2026-04-18T13:39:13.975Z</time></trkpt><trkpt lat="44.7779547" lon="8.9950518"><ele>305.25</ele><time>2026-04-18T13:39:14.975Z</time></trkpt><trkpt lat="44.7780892" lon="8.9951082"><ele>303.5</ele><time>2026-04-18T13:39:15.975Z</time></trkpt><trkpt lat="44.7782237" lon="8.9951617"><ele>301.75</ele><time>2026-04-18T13:39:16.975Z</time></trkpt><trkpt lat="44.7783585" lon="8.9952121"><ele>300.0</ele><time>2026-04-18T13:39:17.975Z</time></trkpt><trkpt lat="44.7784939" lon="8.9952659"><ele>298.5</ele><time>2026-04-18T13:39:18.975Z</time></trkpt><trkpt lat="44.7786278" lon="8.9953205"><ele>297.0</ele><time>2026-04-18T13:39:19.975Z</time></trkpt><trkpt lat="44.7787574" lon="8.9953729"><ele>295.5</ele><time>2026-04-18T13:39:20.974Z</time></trkpt><trkpt lat="44.7788805" lon="8.9954251"><ele>294.0</ele><time>2026-04-18T13:39:21.975Z</time></trkpt><trkpt lat="44.7789932" lon="8.9954868"><ele>294.0</ele><time>2026-04-18T13:39:22.974Z</time></trkpt><trkpt lat="44.7791016" lon="8.9955573"><ele>294.0</ele><time>2026-04-18T13:39:23.975Z</time></trkpt><trkpt lat="44.77921" lon="8.9956346"><ele>294.0</ele><time>2026-04-18T13:39:24.975Z</time></trkpt><trkpt lat="44.7793165" lon="8.99572"><ele>294.0</ele><time>2026-04-18T13:39:25.975Z</time></trkpt><trkpt lat="44.7794252" lon="8.995803"><ele>293.75</ele><time>2026-04-18T13:39:26.974Z</time></trkpt><trkpt lat="44.7795375" lon="8.9958895"><ele>293.5</ele><time>2026-04-18T13:39:27.975Z</time></trkpt><trkpt lat="44.7796511" lon="8.9959767"><ele>293.25</ele><time>2026-04-18T13:39:28.974Z</time></trkpt><trkpt lat="44.7797684" lon="8.9960656"><ele>293.0</ele><time>2026-04-18T13:39:29.974Z</time></trkpt><trkpt lat="44.7798916" lon="8.9961515"><ele>293.0</ele><time>2026-04-18T13:39:30.975Z</time></trkpt><trkpt lat="44.780017" lon="8.9962444"><ele>293.0</ele><time>2026-04-18T13:39:31.975Z</time></trkpt><trkpt lat="44.7801463" lon="8.9963425"><ele>293.0</ele><time>2026-04-18T13:39:32.974Z</time></trkpt><trkpt lat="44.7802797" lon="8.996445"><ele>293.0</ele><time>2026-04-18T13:39:33.975Z</time></trkpt><trkpt lat="44.7804171" lon="8.9965524"><ele>292.6666666666667</ele><time>2026-04-18T13:39:34.974Z</time></trkpt><trkpt lat="44.7805584" lon="8.9966582"><ele>292.3333333333333</ele><time>2026-04-18T13:39:35.974Z</time></trkpt><trkpt lat="44.7807003" lon="8.9967648"><ele>292.0</ele><time>2026-04-18T13:39:36.975Z</time></trkpt><trkpt lat="44.7808456" lon="8.9968735"><ele>291.66666666666663</ele><time>2026-04-18T13:39:37.975Z</time></trkpt><trkpt lat="44.7809909" lon="8.9969816"><ele>291.3333333333333</ele><time>2026-04-18T13:39:38.975Z</time></trkpt><trkpt lat="44.7811345" lon="8.9970922"><ele>291.0</ele><time>2026-04-18T13:39:39.974Z</time></trkpt><trkpt lat="44.781277" lon="8.9972009"><ele>290.0</ele><time>2026-04-18T13:39:40.975Z</time></trkpt><trkpt lat="44.7814166" lon="8.997308"><ele>289.0</ele><time>2026-04-18T13:39:41.975Z</time></trkpt><trkpt lat="44.7815537" lon="8.9974176"><ele>288.0</ele><time>2026-04-18T13:39:42.974Z</time></trkpt><trkpt lat="44.7816828" lon="8.9975307"><ele>288.0</ele><time>2026-04-18T13:39:43.974Z</time></trkpt><trkpt lat="44.7818049" lon="8.9976589"><ele>288.0</ele><time>2026-04-18T13:39:44.975Z</time></trkpt><trkpt lat="44.7819181" lon="8.9978086"><ele>288.0</ele><time>2026-04-18T13:39:45.975Z</time></trkpt><trkpt lat="44.7820161" lon="8.9979746"><ele>288.25</ele><time>2026-04-18T13:39:46.975Z</time></trkpt><trkpt lat="44.7820959" lon="8.9981571"><ele>288.5</ele><time>2026-04-18T13:39:47.975Z</time></trkpt><trkpt lat="44.7821566" lon="8.9983361"><ele>288.75</ele><time>2026-04-18T13:39:48.974Z</time></trkpt><trkpt lat="44.7822196" lon="8.9984937"><ele>289.0</ele><time>2026-04-18T13:39:49.975Z</time></trkpt><trkpt lat="44.7823014" lon="8.9986198"><ele>289.25</ele><time>2026-04-18T13:39:50.975Z</time></trkpt><trkpt lat="44.7823991" lon="8.9987128"><ele>289.5</ele><time>2026-04-18T13:39:51.974Z</time></trkpt><trkpt lat="44.7825142" lon="8.9987897"><ele>289.75</ele><time>2026-04-18T13:39:52.975Z</time></trkpt><trkpt lat="44.7826337" lon="8.9988789"><ele>290.0</ele><time>2026-04-18T13:39:53.975Z</time></trkpt><trkpt lat="44.7827567" lon="8.9989891"><ele>290.0</ele><time>2026-04-18T13:39:54.975Z</time></trkpt><trkpt lat="44.7828839" lon="8.9991052"><ele>290.0</ele><time>2026-04-18T13:39:55.974Z</time></trkpt><trkpt lat="44.783013" lon="8.9992224"><ele>290.0</ele><time>2026-04-18T13:39:56.974Z</time></trkpt><trkpt lat="44.7831434" lon="8.9993442"><ele>288.6666666666667</ele><time>2026-04-18T13:39:57.974Z</time></trkpt><trkpt lat="44.7832747" lon="8.999469"><ele>287.3333333333333</ele><time>2026-04-18T13:39:58.975Z</time></trkpt><trkpt lat="44.7834092" lon="8.9995949"><ele>286.0</ele><time>2026-04-18T13:39:59.975Z</time></trkpt><trkpt lat="44.7835459" lon="8.9997187"><ele>286.0</ele><time>2026-04-18T13:40:00.974Z</time></trkpt><trkpt lat="44.7836853" lon="8.999839"><ele>286.0</ele><time>2026-04-18T13:40:01.974Z</time></trkpt><trkpt lat="44.7838257" lon="8.9999571"><ele>286.0</ele><time>2026-04-18T13:40:02.975Z</time></trkpt><trkpt lat="44.7839652" lon="9.0000735"><ele>286.0</ele><time>2026-04-18T13:40:03.974Z</time></trkpt><trkpt lat="44.7841051" lon="9.0001886"><ele>286.0</ele><time>2026-04-18T13:40:04.974Z</time></trkpt><trkpt lat="44.7842446" lon="9.0003031"><ele>286.0</ele><time>2026-04-18T13:40:05.975Z</time></trkpt><trkpt lat="44.7843839" lon="9.0004168"><ele>290.0</ele><time>2026-04-18T13:40:06.974Z</time></trkpt><trkpt lat="44.7845219" lon="9.0005295"><ele>294.0</ele><time>2026-04-18T13:40:07.974Z</time></trkpt><trkpt lat="44.7846596" lon="9.0006413"><ele>298.0</ele><time>2026-04-18T13:40:08.975Z</time></trkpt><trkpt lat="44.784797" lon="9.0007539"><ele>293.0</ele><time>2026-04-18T13:40:09.975Z</time></trkpt><trkpt lat="44.7849348" lon="9.0008699"><ele>288.0</ele><time>2026-04-18T13:40:10.974Z</time></trkpt><trkpt lat="44.7850761" lon="9.0009893"><ele>283.0</ele><time>2026-04-18T13:40:11.975Z</time></trkpt><trkpt lat="44.7852174" lon="9.0011075"><ele>283.0</ele><time>2026-04-18T13:40:12.974Z</time></trkpt><trkpt lat="44.7853668" lon="9.001234"><ele>283.0</ele><time>2026-04-18T13:40:13.975Z</time></trkpt><trkpt lat="44.785523" lon="9.0013641"><ele>283.0</ele><time>2026-04-18T13:40:14.975Z</time></trkpt><trkpt lat="44.7856834" lon="9.0014954"><ele>283.0</ele><time>2026-04-18T13:40:15.974Z</time></trkpt><trkpt lat="44.7858487" lon="9.0016321"><ele>283.0</ele><time>2026-04-18T13:40:16.974Z</time></trkpt><trkpt lat="44.7860118" lon="9.0017671"><ele>283.0</ele><time>2026-04-18T13:40:17.975Z</time></trkpt><trkpt lat="44.786173" lon="9.0019015"><ele>279.66666666666663</ele><time>2026-04-18T13:40:18.975Z</time></trkpt><trkpt lat="44.786332" lon="9.0020359"><ele>276.3333333333333</ele><time>2026-04-18T13:40:19.975Z</time></trkpt><trkpt lat="44.7864852" lon="9.002164"><ele>273.0</ele><time>2026-04-18T13:40:20.975Z</time></trkpt><trkpt lat="44.7866303" lon="9.0022872"><ele>273.0</ele><time>2026-04-18T13:40:21.975Z</time></trkpt><trkpt lat="44.7867688" lon="9.0024052"><ele>273.0</ele><time>2026-04-18T13:40:22.975Z</time></trkpt><trkpt lat="44.7868995" lon="9.002519"><ele>273.0</ele><time>2026-04-18T13:40:23.975Z</time></trkpt><trkpt lat="44.7870265" lon="9.0026246"><ele>272.25</ele><time>2026-04-18T13:40:24.974Z</time></trkpt><trkpt lat="44.7871546" lon="9.0027095"><ele>271.5</ele><time>2026-04-18T13:40:25.975Z</time></trkpt><trkpt lat="44.7872968" lon="9.0027696"><ele>270.75</ele><time>2026-04-18T13:40:26.975Z</time></trkpt><trkpt lat="44.787449" lon="9.0028015"><ele>270.0</ele><time>2026-04-18T13:40:27.974Z</time></trkpt><trkpt lat="44.7876185" lon="9.0028068"><ele>269.3333333333333</ele><time>2026-04-18T13:40:28.975Z</time></trkpt><trkpt lat="44.7877954" lon="9.0028039"><ele>268.66666666666663</ele><time>2026-04-18T13:40:29.975Z</time></trkpt><trkpt lat="44.7879824" lon="9.0027988"><ele>268.0</ele><time>2026-04-18T13:40:30.975Z</time></trkpt><trkpt lat="44.7881795" lon="9.0027942"><ele>268.0</ele><time>2026-04-18T13:40:31.975Z</time></trkpt><trkpt lat="44.7883825" lon="9.002789"><ele>268.0</ele><time>2026-04-18T13:40:32.974Z</time></trkpt><trkpt lat="44.7885893" lon="9.0027826"><ele>268.0</ele><time>2026-04-18T13:40:33.975Z</time></trkpt><trkpt lat="44.7887984" lon="9.0027754"><ele>267.3333333333333</ele><time>2026-04-18T13:40:34.974Z</time></trkpt><trkpt lat="44.7890062" lon="9.0027683"><ele>266.6666666666667</ele><time>2026-04-18T13:40:35.974Z</time></trkpt><trkpt lat="44.7892096" lon="9.0027622"><ele>266.0</ele><time>2026-04-18T13:40:36.975Z</time></trkpt><trkpt lat="44.7894078" lon="9.0027578"><ele>266.0</ele><time>2026-04-18T13:40:37.974Z</time></trkpt><trkpt lat="44.7896068" lon="9.0027416"><ele>266.0</ele><time>2026-04-18T13:40:38.975Z</time></trkpt><trkpt lat="44.7898093" lon="9.0027072"><ele>266.0</ele><time>2026-04-18T13:40:39.974Z</time></trkpt><trkpt lat="44.7900173" lon="9.0026594"><ele>265.0</ele><time>2026-04-18T13:40:40.974Z</time></trkpt><trkpt lat="44.7902302" lon="9.0026095"><ele>264.0</ele><time>2026-04-18T13:40:41.975Z</time></trkpt><trkpt lat="44.7904455" lon="9.0025584"><ele>263.0</ele><time>2026-04-18T13:40:42.974Z</time></trkpt><trkpt lat="44.790657" lon="9.0025061"><ele>264.33333333333337</ele><time>2026-04-18T13:40:43.975Z</time></trkpt><trkpt lat="44.790865" lon="9.0024558"><ele>265.6666666666667</ele><time>2026-04-18T13:40:44.974Z</time></trkpt><trkpt lat="44.7910672" lon="9.0024098"><ele>267.0</ele><time>2026-04-18T13:40:45.975Z</time></trkpt><trkpt lat="44.7912588" lon="9.002365"><ele>267.0</ele><time>2026-04-18T13:40:46.975Z</time></trkpt><trkpt lat="44.7914407" lon="9.0023085"><ele>267.0</ele><time>2026-04-18T13:40:47.975Z</time></trkpt><trkpt lat="44.7916083" lon="9.0022239"><ele>267.0</ele><time>2026-04-18T13:40:48.974Z</time></trkpt><trkpt lat="44.7917731" lon="9.00211"><ele>264.0</ele><time>2026-04-18T13:40:49.975Z</time></trkpt><trkpt lat="44.7919421" lon="9.0019861"><ele>261.0</ele><time>2026-04-18T13:40:50.974Z</time></trkpt><trkpt lat="44.7921177" lon="9.001854"><ele>258.0</ele><time>2026-04-18T13:40:51.974Z</time></trkpt><trkpt lat="44.7922984" lon="9.0017218"><ele>257.3333333333333</ele><time>2026-04-18T13:40:52.975Z</time></trkpt><trkpt lat="44.7924833" lon="9.0015868"><ele>256.66666666666663</ele><time>2026-04-18T13:40:53.974Z</time></trkpt><trkpt lat="44.7926716" lon="9.0014499"><ele>256.0</ele><time>2026-04-18T13:40:54.974Z</time></trkpt><trkpt lat="44.792861" lon="9.001307"><ele>256.0</ele><time>2026-04-18T13:40:55.974Z</time></trkpt><trkpt lat="44.7930514" lon="9.0011657"><ele>256.0</ele><time>2026-04-18T13:40:56.974Z</time></trkpt><trkpt lat="44.7932395" lon="9.0010258"><ele>256.0</ele><time>2026-04-18T13:40:57.975Z</time></trkpt><trkpt lat="44.7934234" lon="9.0008882"><ele>256.66666666666663</ele><time>2026-04-18T13:40:58.974Z</time></trkpt><trkpt lat="44.7936044" lon="9.0007501"><ele>257.3333333333333</ele><time>2026-04-18T13:40:59.975Z</time></trkpt><trkpt lat="44.7937829" lon="9.0006073"><ele>258.0</ele><time>2026-04-18T13:41:00.975Z</time></trkpt><trkpt lat="44.7939593" lon="9.0004549"><ele>258.0</ele><time>2026-04-18T13:41:01.974Z</time></trkpt><trkpt lat="44.7941322" lon="9.0002932"><ele>258.0</ele><time>2026-04-18T13:41:02.974Z</time></trkpt><trkpt lat="44.7943073" lon="9.0001194"><ele>258.0</ele><time>2026-04-18T13:41:03.975Z</time></trkpt><trkpt lat="44.7944869" lon="8.9999426"><ele>257.6666666666667</ele><time>2026-04-18T13:41:04.975Z</time></trkpt><trkpt lat="44.7946694" lon="8.9997664"><ele>257.33333333333337</ele><time>2026-04-18T13:41:05.975Z</time></trkpt><trkpt lat="44.7948527" lon="8.9995854"><ele>257.0</ele><time>2026-04-18T13:41:06.975Z</time></trkpt><trkpt lat="44.795038" lon="8.9994012"><ele>255.5</ele><time>2026-04-18T13:41:07.974Z</time></trkpt><trkpt lat="44.7952256" lon="8.9992157"><ele>254.0</ele><time>2026-04-18T13:41:08.975Z</time></trkpt><trkpt lat="44.7954144" lon="8.9990307"><ele>253.0</ele><time>2026-04-18T13:41:09.975Z</time></trkpt><trkpt lat="44.795604" lon="8.9988481"><ele>252.0</ele><time>2026-04-18T13:41:10.975Z</time></trkpt><trkpt lat="44.7957901" lon="8.9986656"><ele>252.0</ele><time>2026-04-18T13:41:11.975Z</time></trkpt><trkpt lat="44.795972" lon="8.998483"><ele>252.0</ele><time>2026-04-18T13:41:12.974Z</time></trkpt><trkpt lat="44.7961533" lon="8.9983004"><ele>252.0</ele><time>2026-04-18T13:41:13.974Z</time></trkpt><trkpt lat="44.7963323" lon="8.9981239"><ele>252.0</ele><time>2026-04-18T13:41:14.974Z</time></trkpt><trkpt lat="44.7965141" lon="8.9979568"><ele>252.0</ele><time>2026-04-18T13:41:15.975Z</time></trkpt><trkpt lat="44.7967" lon="8.9978156"><ele>252.0</ele><time>2026-04-18T13:41:16.974Z</time></trkpt><trkpt lat="44.796886" lon="8.9977013"><ele>252.0</ele><time>2026-04-18T13:41:17.974Z</time></trkpt><trkpt lat="44.7970666" lon="8.9975941"><ele>252.0</ele><time>2026-04-18T13:41:18.974Z</time></trkpt><trkpt lat="44.7972438" lon="8.9974867"><ele>252.0</ele><time>2026-04-18T13:41:19.975Z</time></trkpt><trkpt lat="44.7974195" lon="8.9973767"><ele>251.66666666666669</ele><time>2026-04-18T13:41:20.975Z</time></trkpt><trkpt lat="44.7975949" lon="8.997262"><ele>251.33333333333334</ele><time>2026-04-18T13:41:21.975Z</time></trkpt><trkpt lat="44.7977714" lon="8.9971415"><ele>251.0</ele><time>2026-04-18T13:41:22.975Z</time></trkpt><trkpt lat="44.7979511" lon="8.9970175"><ele>250.33333333333334</ele><time>2026-04-18T13:41:23.974Z</time></trkpt><trkpt lat="44.7981345" lon="8.996895"><ele>249.66666666666669</ele><time>2026-04-18T13:41:24.974Z</time></trkpt><trkpt lat="44.7983224" lon="8.9967772"><ele>249.0</ele><time>2026-04-18T13:41:25.975Z</time></trkpt><trkpt lat="44.798512" lon="8.9966526"><ele>249.0</ele><time>2026-04-18T13:41:26.974Z</time></trkpt><trkpt lat="44.798703" lon="8.9965162"><ele>249.0</ele><time>2026-04-18T13:41:27.974Z</time></trkpt><trkpt lat="44.7988935" lon="8.9963671"><ele>249.0</ele><time>2026-04-18T13:41:28.974Z</time></trkpt><trkpt lat="44.7990852" lon="8.9962147"><ele>249.0</ele><time>2026-04-18T13:41:29.974Z</time></trkpt><trkpt lat="44.7992782" lon="8.9960602"><ele>249.0</ele><time>2026-04-18T13:41:30.974Z</time></trkpt><trkpt lat="44.7994708" lon="8.995903"><ele>249.0</ele><time>2026-04-18T13:41:31.975Z</time></trkpt><trkpt lat="44.7996599" lon="8.9957493"><ele>248.33333333333331</ele><time>2026-04-18T13:41:32.975Z</time></trkpt><trkpt lat="44.7998455" lon="8.9955995"><ele>247.66666666666666</ele><time>2026-04-18T13:41:33.975Z</time></trkpt><trkpt lat="44.8000284" lon="8.995451"><ele>247.0</ele><time>2026-04-18T13:41:34.974Z</time></trkpt><trkpt lat="44.8002115" lon="8.9953025"><ele>247.0</ele><time>2026-04-18T13:41:35.975Z</time></trkpt><trkpt lat="44.8003957" lon="8.9951529"><ele>247.0</ele><time>2026-04-18T13:41:36.975Z</time></trkpt><trkpt lat="44.8005789" lon="8.9950043"><ele>247.0</ele><time>2026-04-18T13:41:37.975Z</time></trkpt><trkpt lat="44.8007584" lon="8.9948584"><ele>247.33333333333331</ele><time>2026-04-18T13:41:38.975Z</time></trkpt><trkpt lat="44.8009275" lon="8.9947187"><ele>247.66666666666669</ele><time>2026-04-18T13:41:39.974Z</time></trkpt><trkpt lat="44.8010918" lon="8.9945824"><ele>248.0</ele><time>2026-04-18T13:41:40.975Z</time></trkpt><trkpt lat="44.8012534" lon="8.9944524"><ele>248.0</ele><time>2026-04-18T13:41:41.975Z</time></trkpt><trkpt lat="44.8014154" lon="8.9943265"><ele>248.0</ele><time>2026-04-18T13:41:42.974Z</time></trkpt><trkpt lat="44.8015808" lon="8.9941976"><ele>248.0</ele><time>2026-04-18T13:41:43.975Z</time></trkpt><trkpt lat="44.8017456" lon="8.994066"><ele>247.66666666666669</ele><time>2026-04-18T13:41:44.974Z</time></trkpt><trkpt lat="44.801907" lon="8.9939347"><ele>247.33333333333331</ele><time>2026-04-18T13:41:45.975Z</time></trkpt><trkpt lat="44.8020665" lon="8.9938039"><ele>247.0</ele><time>2026-04-18T13:41:46.975Z</time></trkpt><trkpt lat="44.802224" lon="8.9936735"><ele>247.0</ele><time>2026-04-18T13:41:47.974Z</time></trkpt><trkpt lat="44.8023817" lon="8.9935464"><ele>247.0</ele><time>2026-04-18T13:41:48.975Z</time></trkpt><trkpt lat="44.8025393" lon="8.9934195"><ele>247.0</ele><time>2026-04-18T13:41:49.974Z</time></trkpt><trkpt lat="44.8027017" lon="8.9932906"><ele>245.33333333333331</ele><time>2026-04-18T13:41:50.975Z</time></trkpt><trkpt lat="44.8028661" lon="8.9931603"><ele>243.66666666666669</ele><time>2026-04-18T13:41:51.974Z</time></trkpt><trkpt lat="44.8030354" lon="8.9930273"><ele>242.0</ele><time>2026-04-18T13:41:52.975Z</time></trkpt><trkpt lat="44.803211" lon="8.9928922"><ele>242.0</ele><time>2026-04-18T13:41:53.975Z</time></trkpt><trkpt lat="44.8033902" lon="8.9927508"><ele>242.0</ele><time>2026-04-18T13:41:54.975Z</time></trkpt><trkpt lat="44.8035737" lon="8.9926049"><ele>242.0</ele><time>2026-04-18T13:41:55.975Z</time></trkpt><trkpt lat="44.8037604" lon="8.9924568"><ele>241.33333333333334</ele><time>2026-04-18T13:41:56.975Z</time></trkpt><trkpt lat="44.8039481" lon="8.9923054"><ele>240.66666666666669</ele><time>2026-04-18T13:41:57.975Z</time></trkpt><trkpt lat="44.8041374" lon="8.9921516"><ele>240.0</ele><time>2026-04-18T13:41:58.975Z</time></trkpt><trkpt lat="44.8043286" lon="8.9919974"><ele>240.0</ele><time>2026-04-18T13:41:59.975Z</time></trkpt><trkpt lat="44.8045217" lon="8.9918418"><ele>240.0</ele><time>2026-04-18T13:42:00.974Z</time></trkpt><trkpt lat="44.8047158" lon="8.991687"><ele>240.0</ele><time>2026-04-18T13:42:01.974Z</time></trkpt><trkpt lat="44.804912" lon="8.991533"><ele>240.0</ele><time>2026-04-18T13:42:02.975Z</time></trkpt><trkpt lat="44.8051069" lon="8.9913816"><ele>240.0</ele><time>2026-04-18T13:42:03.975Z</time></trkpt><trkpt lat="44.8052973" lon="8.9912293"><ele>240.0</ele><time>2026-04-18T13:42:04.975Z</time></trkpt><trkpt lat="44.8054852" lon="8.9910832"><ele>240.33333333333331</ele><time>2026-04-18T13:42:05.975Z</time></trkpt><trkpt lat="44.8056704" lon="8.9909425"><ele>240.66666666666666</ele><time>2026-04-18T13:42:06.974Z</time></trkpt><trkpt lat="44.8058597" lon="8.9908064"><ele>241.0</ele><time>2026-04-18T13:42:07.975Z</time></trkpt><trkpt lat="44.8060501" lon="8.9906733"><ele>239.66666666666666</ele><time>2026-04-18T13:42:08.974Z</time></trkpt><trkpt lat="44.8062411" lon="8.990542"><ele>238.33333333333331</ele><time>2026-04-18T13:42:09.975Z</time></trkpt><trkpt lat="44.8064322" lon="8.9904116"><ele>237.0</ele><time>2026-04-18T13:42:10.975Z</time></trkpt><trkpt lat="44.8066241" lon="8.9902788"><ele>237.0</ele><time>2026-04-18T13:42:11.975Z</time></trkpt><trkpt lat="44.8068146" lon="8.9901484"><ele>237.0</ele><time>2026-04-18T13:42:12.975Z</time></trkpt><trkpt lat="44.807002" lon="8.9900059"><ele>237.0</ele><time>2026-04-18T13:42:13.975Z</time></trkpt><trkpt lat="44.8071878" lon="8.9898505"><ele>237.66666666666669</ele><time>2026-04-18T13:42:14.975Z</time></trkpt><trkpt lat="44.8073721" lon="8.9896871"><ele>238.33333333333334</ele><time>2026-04-18T13:42:15.975Z</time></trkpt><trkpt lat="44.8075562" lon="8.9895191"><ele>239.0</ele><time>2026-04-18T13:42:16.975Z</time></trkpt><trkpt lat="44.8077408" lon="8.9893514"><ele>237.66666666666669</ele><time>2026-04-18T13:42:17.975Z</time></trkpt><trkpt lat="44.807927" lon="8.989182"><ele>236.33333333333331</ele><time>2026-04-18T13:42:18.974Z</time></trkpt><trkpt lat="44.8081077" lon="8.9890102"><ele>235.0</ele><time>2026-04-18T13:42:19.974Z</time></trkpt><trkpt lat="44.8082852" lon="8.988833"><ele>235.0</ele><time>2026-04-18T13:42:20.975Z</time></trkpt><trkpt lat="44.8084583" lon="8.9886511"><ele>235.0</ele><time>2026-04-18T13:42:21.975Z</time></trkpt><trkpt lat="44.808629" lon="8.9884649"><ele>235.0</ele><time>2026-04-18T13:42:22.974Z</time></trkpt><trkpt lat="44.8088043" lon="8.9882809"><ele>234.66666666666666</ele><time>2026-04-18T13:42:23.974Z</time></trkpt><trkpt lat="44.8089793" lon="8.9881035"><ele>234.33333333333331</ele><time>2026-04-18T13:42:24.975Z</time></trkpt><trkpt lat="44.8091542" lon="8.9879301"><ele>234.0</ele><time>2026-04-18T13:42:25.975Z</time></trkpt><trkpt lat="44.8093277" lon="8.9877545"><ele>232.33333333333331</ele><time>2026-04-18T13:42:26.974Z</time></trkpt><trkpt lat="44.8095028" lon="8.9875772"><ele>230.66666666666666</ele><time>2026-04-18T13:42:27.975Z</time></trkpt><trkpt lat="44.8096807" lon="8.9873989"><ele>229.0</ele><time>2026-04-18T13:42:28.975Z</time></trkpt><trkpt lat="44.8098616" lon="8.9872188"><ele>228.66666666666666</ele><time>2026-04-18T13:42:29.975Z</time></trkpt><trkpt lat="44.8100425" lon="8.9870402"><ele>228.33333333333331</ele><time>2026-04-18T13:42:30.975Z</time></trkpt><trkpt lat="44.8102229" lon="8.9868627"><ele>228.0</ele><time>2026-04-18T13:42:31.975Z</time></trkpt><trkpt lat="44.8104021" lon="8.9866875"><ele>228.0</ele><time>2026-04-18T13:42:32.975Z</time></trkpt><trkpt lat="44.8105777" lon="8.9865167"><ele>228.0</ele><time>2026-04-18T13:42:33.974Z</time></trkpt><trkpt lat="44.8107502" lon="8.9863483"><ele>228.0</ele><time>2026-04-18T13:42:34.975Z</time></trkpt><trkpt lat="44.8109199" lon="8.9861838"><ele>228.0</ele><time>2026-04-18T13:42:35.975Z</time></trkpt><trkpt lat="44.8110881" lon="8.9860216"><ele>228.0</ele><time>2026-04-18T13:42:36.974Z</time></trkpt><trkpt lat="44.8112547" lon="8.9858607"><ele>228.0</ele><time>2026-04-18T13:42:37.974Z</time></trkpt><trkpt lat="44.8114203" lon="8.9857004"><ele>228.0</ele><time>2026-04-18T13:42:38.974Z</time></trkpt><trkpt lat="44.8115831" lon="8.9855422"><ele>228.0</ele><time>2026-04-18T13:42:39.975Z</time></trkpt><trkpt lat="44.8117392" lon="8.9853908"><ele>228.0</ele><time>2026-04-18T13:42:40.974Z</time></trkpt><trkpt lat="44.8118883" lon="8.985249"><ele>227.66666666666669</ele><time>2026-04-18T13:42:41.975Z</time></trkpt><trkpt lat="44.8120281" lon="8.9851121"><ele>227.33333333333334</ele><time>2026-04-18T13:42:42.974Z</time></trkpt><trkpt lat="44.8121606" lon="8.9849833"><ele>227.0</ele><time>2026-04-18T13:42:43.975Z</time></trkpt><trkpt lat="44.8122841" lon="8.9848574"><ele>227.0</ele><time>2026-04-18T13:42:44.974Z</time></trkpt><trkpt lat="44.8124033" lon="8.9847353"><ele>227.0</ele><time>2026-04-18T13:42:45.975Z</time></trkpt><trkpt lat="44.8125149" lon="8.9846262"><ele>227.0</ele><time>2026-04-18T13:42:46.975Z</time></trkpt><trkpt lat="44.8126175" lon="8.9845294"><ele>227.0</ele><time>2026-04-18T13:42:47.975Z</time></trkpt><trkpt lat="44.8127122" lon="8.9844384"><ele>227.16666666666669</ele><time>2026-04-18T13:42:48.975Z</time></trkpt><trkpt lat="44.8127984" lon="8.984358"><ele>227.33333333333334</ele><time>2026-04-18T13:42:49.975Z</time></trkpt><trkpt lat="44.8128814" lon="8.9842794"><ele>227.5</ele><time>2026-04-18T13:42:50.975Z</time></trkpt><trkpt lat="44.8129568" lon="8.9842044"><ele>227.66666666666669</ele><time>2026-04-18T13:42:51.974Z</time></trkpt><trkpt lat="44.8130253" lon="8.9841351"><ele>227.83333333333334</ele><time>2026-04-18T13:42:52.975Z</time></trkpt><trkpt lat="44.8130745" lon="8.9840758"><ele>228.0</ele><time>2026-04-18T13:42:53.974Z</time></trkpt><trkpt lat="44.8130802" lon="8.9839836"><ele>228.0</ele><time>2026-04-18T13:42:55.975Z</time></trkpt><trkpt lat="44.8130069" lon="8.9838771"><ele>228.0</ele><time>2026-04-18T13:42:57.974Z</time></trkpt><trkpt lat="44.8129375" lon="8.9837987"><ele>228.0</ele><time>2026-04-18T13:42:58.975Z</time></trkpt><trkpt lat="44.8128546" lon="8.9836944"><ele>228.0</ele><time>2026-04-18T13:42:59.974Z</time></trkpt><trkpt lat="44.8127689" lon="8.9835706"><ele>228.0</ele><time>2026-04-18T13:43:00.975Z</time></trkpt><trkpt lat="44.8126925" lon="8.9834268"><ele>228.5</ele><time>2026-04-18T13:43:01.974Z</time></trkpt><trkpt lat="44.8126264" lon="8.9832639"><ele>229.0</ele><time>2026-04-18T13:43:02.975Z</time></trkpt><trkpt lat="44.8125758" lon="8.9830684"><ele>229.5</ele><time>2026-04-18T13:43:03.975Z</time></trkpt><trkpt lat="44.8125385" lon="8.9828399"><ele>230.0</ele><time>2026-04-18T13:43:04.975Z</time></trkpt><trkpt lat="44.8125073" lon="8.9826074"><ele>230.66666666666669</ele><time>2026-04-18T13:43:05.975Z</time></trkpt><trkpt lat="44.8124724" lon="8.9823671"><ele>231.33333333333331</ele><time>2026-04-18T13:43:06.974Z</time></trkpt><trkpt lat="44.8124375" lon="8.9821199"><ele>232.0</ele><time>2026-04-18T13:43:07.974Z</time></trkpt><trkpt lat="44.812409" lon="8.9818676"><ele>232.0</ele><time>2026-04-18T13:43:08.974Z</time></trkpt><trkpt lat="44.8123887" lon="8.9816061"><ele>232.0</ele><time>2026-04-18T13:43:09.975Z</time></trkpt><trkpt lat="44.8123763" lon="8.9813425"><ele>232.0</ele><time>2026-04-18T13:43:10.975Z</time></trkpt><trkpt lat="44.8123682" lon="8.9810835"><ele>232.33333333333331</ele><time>2026-04-18T13:43:11.975Z</time></trkpt><trkpt lat="44.8123649" lon="8.9808353"><ele>232.66666666666669</ele><time>2026-04-18T13:43:12.975Z</time></trkpt><trkpt lat="44.8123625" lon="8.9805964"><ele>233.0</ele><time>2026-04-18T13:43:13.975Z</time></trkpt><trkpt lat="44.8123534" lon="8.9803641"><ele>233.0</ele><time>2026-04-18T13:43:14.975Z</time></trkpt><trkpt lat="44.8123378" lon="8.9801348"><ele>233.0</ele><time>2026-04-18T13:43:15.975Z</time></trkpt><trkpt lat="44.8123221" lon="8.9799068"><ele>233.0</ele><time>2026-04-18T13:43:16.974Z</time></trkpt><trkpt lat="44.812303" lon="8.979679"><ele>234.0</ele><time>2026-04-18T13:43:17.974Z</time></trkpt><trkpt lat="44.8122801" lon="8.9794556"><ele>235.0</ele><time>2026-04-18T13:43:18.974Z</time></trkpt><trkpt lat="44.8122602" lon="8.9792287"><ele>236.0</ele><time>2026-04-18T13:43:19.975Z</time></trkpt><trkpt lat="44.8122377" lon="8.9790035"><ele>237.66666666666669</ele><time>2026-04-18T13:43:20.974Z</time></trkpt><trkpt lat="44.8122168" lon="8.9787757"><ele>239.33333333333331</ele><time>2026-04-18T13:43:21.975Z</time></trkpt><trkpt lat="44.8121949" lon="8.9785461"><ele>241.0</ele><time>2026-04-18T13:43:22.974Z</time></trkpt><trkpt lat="44.8121735" lon="8.9783218"><ele>241.75</ele><time>2026-04-18T13:43:23.974Z</time></trkpt><trkpt lat="44.8121532" lon="8.9781091"><ele>242.5</ele><time>2026-04-18T13:43:24.975Z</time></trkpt><trkpt lat="44.8121342" lon="8.9779121"><ele>243.25</ele><time>2026-04-18T13:43:25.975Z</time></trkpt><trkpt lat="44.8121127" lon="8.9777173"><ele>244.0</ele><time>2026-04-18T13:43:26.975Z</time></trkpt><trkpt lat="44.8120747" lon="8.9775245"><ele>245.0</ele><time>2026-04-18T13:43:27.975Z</time></trkpt><trkpt lat="44.8120174" lon="8.9773283"><ele>246.0</ele><time>2026-04-18T13:43:28.975Z</time></trkpt><trkpt lat="44.8119444" lon="8.9771292"><ele>247.0</ele><time>2026-04-18T13:43:29.974Z</time></trkpt><trkpt lat="44.811867" lon="8.97692"><ele>245.0</ele><time>2026-04-18T13:43:30.975Z</time></trkpt><trkpt lat="44.8117875" lon="8.9766992"><ele>243.0</ele><time>2026-04-18T13:43:31.974Z</time></trkpt><trkpt lat="44.8117064" lon="8.9764731"><ele>241.0</ele><time>2026-04-18T13:43:32.975Z</time></trkpt><trkpt lat="44.8116262" lon="8.9762418"><ele>241.0</ele><time>2026-04-18T13:43:33.974Z</time></trkpt><trkpt lat="44.811545" lon="8.9760177"><ele>241.0</ele><time>2026-04-18T13:43:34.975Z</time></trkpt><trkpt lat="44.8114629" lon="8.9757968"><ele>241.0</ele><time>2026-04-18T13:43:35.974Z</time></trkpt><trkpt lat="44.8113819" lon="8.9755813"><ele>243.0</ele><time>2026-04-18T13:43:36.975Z</time></trkpt><trkpt lat="44.8113083" lon="8.9753731"><ele>245.0</ele><time>2026-04-18T13:43:37.974Z</time></trkpt><trkpt lat="44.8112432" lon="8.9751597"><ele>247.0</ele><time>2026-04-18T13:43:38.975Z</time></trkpt><trkpt lat="44.8111875" lon="8.9749374"><ele>249.66666666666666</ele><time>2026-04-18T13:43:39.974Z</time></trkpt><trkpt lat="44.8111367" lon="8.9747106"><ele>252.33333333333331</ele><time>2026-04-18T13:43:40.974Z</time></trkpt><trkpt lat="44.8110824" lon="8.9744862"><ele>255.0</ele><time>2026-04-18T13:43:41.974Z</time></trkpt><trkpt lat="44.8110234" lon="8.9742645"><ele>252.33333333333331</ele><time>2026-04-18T13:43:42.975Z</time></trkpt><trkpt lat="44.8109608" lon="8.9740472"><ele>249.66666666666666</ele><time>2026-04-18T13:43:43.975Z</time></trkpt><trkpt lat="44.8109013" lon="8.9738343"><ele>247.0</ele><time>2026-04-18T13:43:44.974Z</time></trkpt><trkpt lat="44.8108535" lon="8.9736137"><ele>247.0</ele><time>2026-04-18T13:43:45.975Z</time></trkpt><trkpt lat="44.8108194" lon="8.973395"><ele>247.0</ele><time>2026-04-18T13:43:46.975Z</time></trkpt><trkpt lat="44.8107971" lon="8.9731821"><ele>247.0</ele><time>2026-04-18T13:43:47.975Z</time></trkpt><trkpt lat="44.8107822" lon="8.9729797"><ele>247.25</ele><time>2026-04-18T13:43:48.975Z</time></trkpt><trkpt lat="44.8107671" lon="8.9727955"><ele>247.5</ele><time>2026-04-18T13:43:49.974Z</time></trkpt><trkpt lat="44.8107432" lon="8.9726188"><ele>247.75</ele><time>2026-04-18T13:43:50.974Z</time></trkpt><trkpt lat="44.8107007" lon="8.972447"><ele>248.0</ele><time>2026-04-18T13:43:51.975Z</time></trkpt><trkpt lat="44.8106337" lon="8.9722757"><ele>249.0</ele><time>2026-04-18T13:43:52.975Z</time></trkpt><trkpt lat="44.8105461" lon="8.9721009"><ele>250.0</ele><time>2026-04-18T13:43:53.975Z</time></trkpt><trkpt lat="44.8104464" lon="8.9719219"><ele>251.0</ele><time>2026-04-18T13:43:54.974Z</time></trkpt><trkpt lat="44.8103511" lon="8.9717542"><ele>251.4</ele><time>2026-04-18T13:43:55.974Z</time></trkpt><trkpt lat="44.8102678" lon="8.9716076"><ele>251.8</ele><time>2026-04-18T13:43:56.975Z</time></trkpt><trkpt lat="44.8101949" lon="8.9714942"><ele>252.20000000000002</ele><time>2026-04-18T13:43:57.974Z</time></trkpt><trkpt lat="44.81012" lon="8.9714195"><ele>252.60000000000002</ele><time>2026-04-18T13:43:58.975Z</time></trkpt><trkpt lat="44.8100389" lon="8.9713873"><ele>253.0</ele><time>2026-04-18T13:43:59.974Z</time></trkpt><trkpt lat="44.8099495" lon="8.9713956"><ele>253.0</ele><time>2026-04-18T13:44:00.974Z</time></trkpt><trkpt lat="44.8098571" lon="8.9714392"><ele>253.0</ele><time>2026-04-18T13:44:01.974Z</time></trkpt><trkpt lat="44.8097639" lon="8.9714973"><ele>253.0</ele><time>2026-04-18T13:44:02.974Z</time></trkpt><trkpt lat="44.8096707" lon="8.9715588"><ele>253.0</ele><time>2026-04-18T13:44:03.975Z</time></trkpt><trkpt lat="44.809583" lon="8.9715928"><ele>253.0</ele><time>2026-04-18T13:44:04.975Z</time></trkpt><trkpt lat="44.8094976" lon="8.9715997"><ele>252.99999999999997</ele><time>2026-04-18T13:44:05.974Z</time></trkpt><trkpt lat="44.8094251" lon="8.9715703"><ele>253.0</ele><time>2026-04-18T13:44:06.974Z</time></trkpt><trkpt lat="44.8093724" lon="8.9715116"><ele>253.0</ele><time>2026-04-18T13:44:07.975Z</time></trkpt><trkpt lat="44.8093434" lon="8.9714201"><ele>253.0</ele><time>2026-04-18T13:44:08.975Z</time></trkpt><trkpt lat="44.8093369" lon="8.9713017"><ele>252.99999999999997</ele><time>2026-04-18T13:44:09.975Z</time></trkpt><trkpt lat="44.8093531" lon="8.9711578"><ele>253.0</ele><time>2026-04-18T13:44:10.974Z</time></trkpt><trkpt lat="44.8093833" lon="8.9709817"><ele>253.75</ele><time>2026-04-18T13:44:11.974Z</time></trkpt><trkpt lat="44.8094123" lon="8.9708039"><ele>254.5</ele><time>2026-04-18T13:44:12.975Z</time></trkpt><trkpt lat="44.8094409" lon="8.9706073"><ele>255.25</ele><time>2026-04-18T13:44:13.975Z</time></trkpt><trkpt lat="44.8094706" lon="8.9704011"><ele>256.0</ele><time>2026-04-18T13:44:14.975Z</time></trkpt><trkpt lat="44.8094999" lon="8.9701994"><ele>256.75</ele><time>2026-04-18T13:44:15.975Z</time></trkpt><trkpt lat="44.8095284" lon="8.9700115"><ele>257.5</ele><time>2026-04-18T13:44:16.975Z</time></trkpt><trkpt lat="44.8095508" lon="8.969839"><ele>258.25</ele><time>2026-04-18T13:44:17.975Z</time></trkpt><trkpt lat="44.8095636" lon="8.9696874"><ele>259.0</ele><time>2026-04-18T13:44:18.975Z</time></trkpt><trkpt lat="44.809559" lon="8.969568"><ele>259.0</ele><time>2026-04-18T13:44:19.975Z</time></trkpt><trkpt lat="44.8095306" lon="8.9694734"><ele>259.0</ele><time>2026-04-18T13:44:20.974Z</time></trkpt><trkpt lat="44.8094265" lon="8.9694151"><ele>259.0</ele><time>2026-04-18T13:44:22.974Z</time></trkpt><trkpt lat="44.8093357" lon="8.9695491"><ele>259.0</ele><time>2026-04-18T13:44:24.975Z</time></trkpt><trkpt lat="44.8093026" lon="8.9696758"><ele>259.0</ele><time>2026-04-18T13:44:25.975Z</time></trkpt><trkpt lat="44.8092644" lon="8.9698206"><ele>260.8</ele><time>2026-04-18T13:44:26.975Z</time></trkpt><trkpt lat="44.8092182" lon="8.9699698"><ele>262.59999999999997</ele><time>2026-04-18T13:44:27.974Z</time></trkpt><trkpt lat="44.8091684" lon="8.9701115"><ele>264.4</ele><time>2026-04-18T13:44:28.975Z</time></trkpt><trkpt lat="44.8091189" lon="8.9702423"><ele>266.2</ele><time>2026-04-18T13:44:29.974Z</time></trkpt><trkpt lat="44.8090697" lon="8.9703672"><ele>268.0</ele><time>2026-04-18T13:44:30.975Z</time></trkpt><trkpt lat="44.8090273" lon="8.9704806"><ele>268.0</ele><time>2026-04-18T13:44:31.975Z</time></trkpt><trkpt lat="44.8089897" lon="8.9705734"><ele>268.0</ele><time>2026-04-18T13:44:32.975Z</time></trkpt><trkpt lat="44.8089032" lon="8.9706774"><ele>268.0</ele><time>2026-04-18T13:44:34.974Z</time></trkpt><trkpt lat="44.8088041" lon="8.9706197"><ele>268.0</ele><time>2026-04-18T13:44:36.975Z</time></trkpt><trkpt lat="44.8087902" lon="8.9705293"><ele>268.0</ele><time>2026-04-18T13:44:37.975Z</time></trkpt><trkpt lat="44.8088006" lon="8.9704069"><ele>268.0</ele><time>2026-04-18T13:44:38.975Z</time></trkpt><trkpt lat="44.8088296" lon="8.9702627"><ele>268.0</ele><time>2026-04-18T13:44:39.974Z</time></trkpt><trkpt lat="44.8088651" lon="8.9701177"><ele>268.0</ele><time>2026-04-18T13:44:40.974Z</time></trkpt><trkpt lat="44.8089057" lon="8.9699814"><ele>268.0</ele><time>2026-04-18T13:44:41.974Z</time></trkpt><trkpt lat="44.8089415" lon="8.9698475"><ele>268.0</ele><time>2026-04-18T13:44:42.974Z</time></trkpt><trkpt lat="44.8089445" lon="8.9697253"><ele>269.16666666666663</ele><time>2026-04-18T13:44:43.975Z</time></trkpt><trkpt lat="44.8089215" lon="8.9696306"><ele>270.3333333333333</ele><time>2026-04-18T13:44:44.975Z</time></trkpt><trkpt lat="44.8088123" lon="8.9695784"><ele>271.5</ele><time>2026-04-18T13:44:46.974Z</time></trkpt><trkpt lat="44.8087547" lon="8.9696296"><ele>272.6666666666667</ele><time>2026-04-18T13:44:47.974Z</time></trkpt><trkpt lat="44.8087186" lon="8.9697223"><ele>273.83333333333337</ele><time>2026-04-18T13:44:48.974Z</time></trkpt><trkpt lat="44.8086938" lon="8.9698516"><ele>275.0</ele><time>2026-04-18T13:44:49.974Z</time></trkpt><trkpt lat="44.8086705" lon="8.97"><ele>273.6</ele><time>2026-04-18T13:44:50.975Z</time></trkpt><trkpt lat="44.8086471" lon="8.9701291"><ele>272.2</ele><time>2026-04-18T13:44:51.974Z</time></trkpt><trkpt lat="44.8086168" lon="8.9702479"><ele>270.8</ele><time>2026-04-18T13:44:52.974Z</time></trkpt><trkpt lat="44.8085707" lon="8.9703573"><ele>269.4</ele><time>2026-04-18T13:44:53.974Z</time></trkpt><trkpt lat="44.8085079" lon="8.9704572"><ele>268.0</ele><time>2026-04-18T13:44:54.975Z</time></trkpt><trkpt lat="44.8084403" lon="8.9705369"><ele>271.2</ele><time>2026-04-18T13:44:55.975Z</time></trkpt><trkpt lat="44.8083651" lon="8.9705842"><ele>274.4</ele><time>2026-04-18T13:44:56.974Z</time></trkpt><trkpt lat="44.8082958" lon="8.9705821"><ele>277.59999999999997</ele><time>2026-04-18T13:44:57.975Z</time></trkpt><trkpt lat="44.8082374" lon="8.9704556"><ele>280.8</ele><time>2026-04-18T13:44:59.975Z</time></trkpt><trkpt lat="44.80832" lon="8.9703046"><ele>284.0</ele><time>2026-04-18T13:45:01.975Z</time></trkpt><trkpt lat="44.808391" lon="8.9702358"><ele>284.0</ele><time>2026-04-18T13:45:02.975Z</time></trkpt><trkpt lat="44.8084351" lon="8.9701569"><ele>284.0</ele><time>2026-04-18T13:45:03.975Z</time></trkpt><trkpt lat="44.8084495" lon="8.9700649"><ele>284.0</ele><time>2026-04-18T13:45:04.975Z</time></trkpt><trkpt lat="44.8083727" lon="8.9699402"><ele>284.0</ele><time>2026-04-18T13:45:06.974Z</time></trkpt><trkpt lat="44.8082977" lon="8.9699342"><ele>284.0</ele><time>2026-04-18T13:45:07.975Z</time></trkpt><trkpt lat="44.8082023" lon="8.9699569"><ele>284.0</ele><time>2026-04-18T13:45:08.975Z</time></trkpt><trkpt lat="44.8080898" lon="8.9700037"><ele>284.0</ele><time>2026-04-18T13:45:09.975Z</time></trkpt><trkpt lat="44.807981" lon="8.9700471"><ele>284.0</ele><time>2026-04-18T13:45:10.975Z</time></trkpt><trkpt lat="44.8078763" lon="8.9700947"><ele>284.0</ele><time>2026-04-18T13:45:11.975Z</time></trkpt><trkpt lat="44.8077874" lon="8.9701387"><ele>284.0</ele><time>2026-04-18T13:45:12.974Z</time></trkpt><trkpt lat="44.8077063" lon="8.9701661"><ele>284.0</ele><time>2026-04-18T13:45:13.974Z</time></trkpt><trkpt lat="44.8076338" lon="8.9701593"><ele>283.83333333333337</ele><time>2026-04-18T13:45:14.974Z</time></trkpt><trkpt lat="44.8075663" lon="8.9701056"><ele>283.6666666666667</ele><time>2026-04-18T13:45:15.975Z</time></trkpt><trkpt lat="44.8075204" lon="8.9700103"><ele>283.5</ele><time>2026-04-18T13:45:16.975Z</time></trkpt><trkpt lat="44.8074974" lon="8.9698834"><ele>283.3333333333333</ele><time>2026-04-18T13:45:17.975Z</time></trkpt><trkpt lat="44.8074925" lon="8.9697406"><ele>283.16666666666663</ele><time>2026-04-18T13:45:18.975Z</time></trkpt><trkpt lat="44.8074729" lon="8.9696131"><ele>283.0</ele><time>2026-04-18T13:45:19.975Z</time></trkpt><trkpt lat="44.8074225" lon="8.9694744"><ele>287.5</ele><time>2026-04-18T13:45:20.975Z</time></trkpt><trkpt lat="44.8073456" lon="8.9693394"><ele>292.0</ele><time>2026-04-18T13:45:21.974Z</time></trkpt><trkpt lat="44.8072592" lon="8.9692059"><ele>296.5</ele><time>2026-04-18T13:45:22.975Z</time></trkpt><trkpt lat="44.8071763" lon="8.9690709"><ele>301.0</ele><time>2026-04-18T13:45:23.974Z</time></trkpt><trkpt lat="44.8070964" lon="8.9689519"><ele>303.6</ele><time>2026-04-18T13:45:24.975Z</time></trkpt><trkpt lat="44.807006" lon="8.968852"><ele>306.20000000000005</ele><time>2026-04-18T13:45:25.975Z</time></trkpt><trkpt lat="44.8069088" lon="8.9687851"><ele>308.79999999999995</ele><time>2026-04-18T13:45:26.975Z</time></trkpt><trkpt lat="44.8068081" lon="8.9687432"><ele>311.4</ele><time>2026-04-18T13:45:27.974Z</time></trkpt><trkpt lat="44.8067412" lon="8.9687258"><ele>314.0</ele><time>2026-04-18T13:45:28.974Z</time></trkpt><trkpt lat="44.8066663" lon="8.9687296"><ele>314.0</ele><time>2026-04-18T13:45:29.975Z</time></trkpt><trkpt lat="44.8065834" lon="8.9687398"><ele>314.0</ele><time>2026-04-18T13:45:30.975Z</time></trkpt><trkpt lat="44.806493" lon="8.9687471"><ele>314.0</ele><time>2026-04-18T13:45:31.975Z</time></trkpt><trkpt lat="44.8063971" lon="8.9687433"><ele>314.0</ele><time>2026-04-18T13:45:32.975Z</time></trkpt><trkpt lat="44.8062963" lon="8.9687298"><ele>314.0</ele><time>2026-04-18T13:45:33.975Z</time></trkpt><trkpt lat="44.8062006" lon="8.9686979"><ele>314.0</ele><time>2026-04-18T13:45:34.975Z</time></trkpt><trkpt lat="44.8061211" lon="8.9686477"><ele>314.0</ele><time>2026-04-18T13:45:35.975Z</time></trkpt><trkpt lat="44.8060745" lon="8.9685722"><ele>314.0</ele><time>2026-04-18T13:45:36.974Z</time></trkpt><trkpt lat="44.8060861" lon="8.968416"><ele>314.0</ele><time>2026-04-18T13:45:38.974Z</time></trkpt><trkpt lat="44.8062034" lon="8.9683763"><ele>314.0</ele><time>2026-04-18T13:45:40.974Z</time></trkpt><trkpt lat="44.8062939" lon="8.9683989"><ele>314.0</ele><time>2026-04-18T13:45:41.974Z</time></trkpt><trkpt lat="44.8063935" lon="8.9684304"><ele>314.0</ele><time>2026-04-18T13:45:42.975Z</time></trkpt><trkpt lat="44.8064895" lon="8.9684503"><ele>314.0</ele><time>2026-04-18T13:45:43.975Z</time></trkpt><trkpt lat="44.8065876" lon="8.9684393"><ele>314.0</ele><time>2026-04-18T13:45:44.975Z</time></trkpt><trkpt lat="44.806685" lon="8.9683928"><ele>314.0</ele><time>2026-04-18T13:45:45.975Z</time></trkpt><trkpt lat="44.8067719" lon="8.9683316"><ele>314.83333333333337</ele><time>2026-04-18T13:45:46.975Z</time></trkpt><trkpt lat="44.8068513" lon="8.9682639"><ele>315.6666666666667</ele><time>2026-04-18T13:45:47.974Z</time></trkpt><trkpt lat="44.8069173" lon="8.9681848"><ele>316.5</ele><time>2026-04-18T13:45:48.975Z</time></trkpt><trkpt lat="44.8069567" lon="8.9680913"><ele>317.3333333333333</ele><time>2026-04-18T13:45:49.974Z</time></trkpt><trkpt lat="44.8069708" lon="8.967988"><ele>318.16666666666663</ele><time>2026-04-18T13:45:50.974Z</time></trkpt><trkpt lat="44.806957" lon="8.9678991"><ele>319.0</ele><time>2026-04-18T13:45:51.974Z</time></trkpt><trkpt lat="44.8068648" lon="8.9678131"><ele>320.79999999999995</ele><time>2026-04-18T13:45:53.975Z</time></trkpt><trkpt lat="44.806802" lon="8.9678417"><ele>322.59999999999997</ele><time>2026-04-18T13:45:54.975Z</time></trkpt><trkpt lat="44.8067352" lon="8.9679135"><ele>324.4</ele><time>2026-04-18T13:45:55.975Z</time></trkpt><trkpt lat="44.8066539" lon="8.9679886"><ele>326.2</ele><time>2026-04-18T13:45:56.975Z</time></trkpt><trkpt lat="44.8065485" lon="8.9680232"><ele>328.0</ele><time>2026-04-18T13:45:57.975Z</time></trkpt><trkpt lat="44.8064392" lon="8.9680247"><ele>328.0</ele><time>2026-04-18T13:45:58.975Z</time></trkpt><trkpt lat="44.8063365" lon="8.9680005"><ele>328.0</ele><time>2026-04-18T13:45:59.974Z</time></trkpt><trkpt lat="44.8062482" lon="8.9679526"><ele>328.0</ele><time>2026-04-18T13:46:00.975Z</time></trkpt><trkpt lat="44.8061835" lon="8.9678793"><ele>328.0</ele><time>2026-04-18T13:46:01.974Z</time></trkpt><trkpt lat="44.8061513" lon="8.9677842"><ele>328.0</ele><time>2026-04-18T13:46:02.975Z</time></trkpt><trkpt lat="44.8061627" lon="8.9676952"><ele>328.0</ele><time>2026-04-18T13:46:03.975Z</time></trkpt><trkpt lat="44.8062085" lon="8.9676302"><ele>328.0</ele><time>2026-04-18T13:46:04.975Z</time></trkpt><trkpt lat="44.8062764" lon="8.9676071"><ele>328.0</ele><time>2026-04-18T13:46:05.975Z</time></trkpt><trkpt lat="44.806352" lon="8.9676297"><ele>328.0</ele><time>2026-04-18T13:46:06.975Z</time></trkpt><trkpt lat="44.8064331" lon="8.9676541"><ele>328.0</ele><time>2026-04-18T13:46:07.974Z</time></trkpt><trkpt lat="44.8065222" lon="8.9676395"><ele>328.0</ele><time>2026-04-18T13:46:08.975Z</time></trkpt><trkpt lat="44.8066045" lon="8.9675923"><ele>328.0</ele><time>2026-04-18T13:46:09.974Z</time></trkpt><trkpt lat="44.8066704" lon="8.9674961"><ele>330.59999999999997</ele><time>2026-04-18T13:46:10.974Z</time></trkpt><trkpt lat="44.8067213" lon="8.9673711"><ele>333.2</ele><time>2026-04-18T13:46:11.975Z</time></trkpt><trkpt lat="44.8067589" lon="8.9672296"><ele>335.8</ele><time>2026-04-18T13:46:12.975Z</time></trkpt><trkpt lat="44.8067721" lon="8.9670766"><ele>338.4</ele><time>2026-04-18T13:46:13.975Z</time></trkpt><trkpt lat="44.80676" lon="8.9669236"><ele>341.0</ele><time>2026-04-18T13:46:14.975Z</time></trkpt><trkpt lat="44.8067497" lon="8.9667782"><ele>339.8</ele><time>2026-04-18T13:46:15.975Z</time></trkpt><trkpt lat="44.8067653" lon="8.9666435"><ele>338.6</ele><time>2026-04-18T13:46:16.975Z</time></trkpt><trkpt lat="44.8068102" lon="8.9665229"><ele>337.4</ele><time>2026-04-18T13:46:17.975Z</time></trkpt><trkpt lat="44.8068835" lon="8.9664277"><ele>336.2</ele><time>2026-04-18T13:46:18.974Z</time></trkpt><trkpt lat="44.8069682" lon="8.9663544"><ele>335.0</ele><time>2026-04-18T13:46:19.975Z</time></trkpt><trkpt lat="44.8070345" lon="8.966275"><ele>335.0</ele><time>2026-04-18T13:46:20.975Z</time></trkpt><trkpt lat="44.8070688" lon="8.9661774"><ele>335.0</ele><time>2026-04-18T13:46:21.975Z</time></trkpt><trkpt lat="44.8070636" lon="8.9660848"><ele>335.0</ele><time>2026-04-18T13:46:22.975Z</time></trkpt><trkpt lat="44.8069698" lon="8.9659797"><ele>335.0</ele><time>2026-04-18T13:46:24.974Z</time></trkpt><trkpt lat="44.8068973" lon="8.9660062"><ele>335.0</ele><time>2026-04-18T13:46:25.975Z</time></trkpt><trkpt lat="44.8068093" lon="8.9660715"><ele>335.0</ele><time>2026-04-18T13:46:26.975Z</time></trkpt><trkpt lat="44.8067127" lon="8.9661558"><ele>338.4</ele><time>2026-04-18T13:46:27.974Z</time></trkpt><trkpt lat="44.8066121" lon="8.9662383"><ele>341.8</ele><time>2026-04-18T13:46:28.975Z</time></trkpt><trkpt lat="44.8065114" lon="8.966312"><ele>345.20000000000005</ele><time>2026-04-18T13:46:29.975Z</time></trkpt><trkpt lat="44.8064124" lon="8.966355"><ele>348.6</ele><time>2026-04-18T13:46:30.974Z</time></trkpt><trkpt lat="44.806304" lon="8.9663693"><ele>352.0</ele><time>2026-04-18T13:46:31.974Z</time></trkpt><trkpt lat="44.806185" lon="8.9663514"><ele>352.0</ele><time>2026-04-18T13:46:32.974Z</time></trkpt><trkpt lat="44.8060518" lon="8.966308"><ele>352.0</ele><time>2026-04-18T13:46:33.974Z</time></trkpt><trkpt lat="44.8059039" lon="8.966253"><ele>352.0</ele><time>2026-04-18T13:46:34.975Z</time></trkpt><trkpt lat="44.805745" lon="8.9661967"><ele>352.0</ele><time>2026-04-18T13:46:35.974Z</time></trkpt><trkpt lat="44.8055808" lon="8.9661466"><ele>352.0</ele><time>2026-04-18T13:46:36.975Z</time></trkpt><trkpt lat="44.8054115" lon="8.9661077"><ele>352.0</ele><time>2026-04-18T13:46:37.975Z</time></trkpt><trkpt lat="44.8052484" lon="8.9660792"><ele>352.3333333333333</ele><time>2026-04-18T13:46:38.975Z</time></trkpt><trkpt lat="44.805091" lon="8.9660586"><ele>352.6666666666667</ele><time>2026-04-18T13:46:39.975Z</time></trkpt><trkpt lat="44.8049355" lon="8.9660637"><ele>353.0</ele><time>2026-04-18T13:46:40.975Z</time></trkpt><trkpt lat="44.804778" lon="8.9660942"><ele>353.0</ele><time>2026-04-18T13:46:41.975Z</time></trkpt><trkpt lat="44.8046191" lon="8.9661329"><ele>353.0</ele><time>2026-04-18T13:46:42.975Z</time></trkpt><trkpt lat="44.8044567" lon="8.9661838"><ele>353.0</ele><time>2026-04-18T13:46:43.975Z</time></trkpt><trkpt lat="44.8042948" lon="8.9662344"><ele>358.33333333333337</ele><time>2026-04-18T13:46:44.974Z</time></trkpt><trkpt lat="44.8041314" lon="8.9662856"><ele>363.6666666666667</ele><time>2026-04-18T13:46:45.975Z</time></trkpt><trkpt lat="44.8039704" lon="8.9663347"><ele>369.0</ele><time>2026-04-18T13:46:46.975Z</time></trkpt><trkpt lat="44.8038152" lon="8.9663821"><ele>369.0</ele><time>2026-04-18T13:46:47.975Z</time></trkpt><trkpt lat="44.8036645" lon="8.9664316"><ele>369.0</ele><time>2026-04-18T13:46:48.975Z</time></trkpt><trkpt lat="44.8035179" lon="8.9664717"><ele>369.0</ele><time>2026-04-18T13:46:49.975Z</time></trkpt><trkpt lat="44.8033747" lon="8.9665062"><ele>369.0</ele><time>2026-04-18T13:46:50.974Z</time></trkpt><trkpt lat="44.8032404" lon="8.9665346"><ele>371.6</ele><time>2026-04-18T13:46:51.975Z</time></trkpt><trkpt lat="44.8031188" lon="8.9665613"><ele>374.2</ele><time>2026-04-18T13:46:52.975Z</time></trkpt><trkpt lat="44.8030151" lon="8.9665833"><ele>376.8</ele><time>2026-04-18T13:46:53.974Z</time></trkpt><trkpt lat="44.802933" lon="8.9665875"><ele>379.40000000000003</ele><time>2026-04-18T13:46:54.974Z</time></trkpt><trkpt lat="44.8028717" lon="8.9665619"><ele>382.0</ele><time>2026-04-18T13:46:55.975Z</time></trkpt><trkpt lat="44.802817" lon="8.9664243"><ele>382.0</ele><time>2026-04-18T13:46:57.974Z</time></trkpt><trkpt lat="44.8029002" lon="8.9663124"><ele>382.0</ele><time>2026-04-18T13:46:59.975Z</time></trkpt><trkpt lat="44.8029809" lon="8.9663019"><ele>382.0</ele><time>2026-04-18T13:47:00.974Z</time></trkpt><trkpt lat="44.803086" lon="8.9663023"><ele>382.0</ele><time>2026-04-18T13:47:01.974Z</time></trkpt><trkpt lat="44.8031948" lon="8.9663065"><ele>382.0</ele><time>2026-04-18T13:47:02.975Z</time></trkpt><trkpt lat="44.8033022" lon="8.9662845"><ele>382.0</ele><time>2026-04-18T13:47:03.974Z</time></trkpt><trkpt lat="44.8034029" lon="8.9662375"><ele>382.0</ele><time>2026-04-18T13:47:04.974Z</time></trkpt><trkpt lat="44.8034991" lon="8.9661599"><ele>382.0</ele><time>2026-04-18T13:47:05.974Z</time></trkpt><trkpt lat="44.8036025" lon="8.9660706"><ele>382.0</ele><time>2026-04-18T13:47:06.975Z</time></trkpt><trkpt lat="44.8037051" lon="8.9659726"><ele>384.75</ele><time>2026-04-18T13:47:07.975Z</time></trkpt><trkpt lat="44.8038096" lon="8.9658749"><ele>387.5</ele><time>2026-04-18T13:47:08.975Z</time></trkpt><trkpt lat="44.8039171" lon="8.9657871"><ele>390.25</ele><time>2026-04-18T13:47:09.975Z</time></trkpt><trkpt lat="44.8040217" lon="8.9657027"><ele>393.0</ele><time>2026-04-18T13:47:10.975Z</time></trkpt><trkpt lat="44.8041223" lon="8.9656325"><ele>393.0</ele><time>2026-04-18T13:47:11.975Z</time></trkpt><trkpt lat="44.8042242" lon="8.9655869"><ele>393.0</ele><time>2026-04-18T13:47:12.974Z</time></trkpt><trkpt lat="44.804326" lon="8.9655589"><ele>393.0</ele><time>2026-04-18T13:47:13.974Z</time></trkpt><trkpt lat="44.8044192" lon="8.965531"><ele>393.0</ele><time>2026-04-18T13:47:14.974Z</time></trkpt><trkpt lat="44.8044894" lon="8.9654903"><ele>393.0</ele><time>2026-04-18T13:47:15.975Z</time></trkpt><trkpt lat="44.8045634" lon="8.9653624"><ele>393.0</ele><time>2026-04-18T13:47:17.974Z</time></trkpt><trkpt lat="44.8045445" lon="8.9651978"><ele>393.0</ele><time>2026-04-18T13:47:19.974Z</time></trkpt><trkpt lat="44.8044383" lon="8.9651378"><ele>393.0</ele><time>2026-04-18T13:47:21.975Z</time></trkpt><trkpt lat="44.804374" lon="8.9651572"><ele>393.0</ele><time>2026-04-18T13:47:22.975Z</time></trkpt><trkpt lat="44.8043043" lon="8.9651891"><ele>393.0</ele><time>2026-04-18T13:47:23.975Z</time></trkpt><trkpt lat="44.8042362" lon="8.9652241"><ele>393.0</ele><time>2026-04-18T13:47:24.974Z</time></trkpt><trkpt lat="44.8041774" lon="8.9652592"><ele>393.0</ele><time>2026-04-18T13:47:25.974Z</time></trkpt><trkpt lat="44.8040821" lon="8.9653328"><ele>393.0</ele><time>2026-04-18T13:47:27.975Z</time></trkpt><trkpt lat="44.8040073" lon="8.9653544"><ele>393.0</ele><time>2026-04-18T13:47:29.975Z</time></trkpt><trkpt lat="44.803995" lon="8.9652357"><ele>393.0</ele><time>2026-04-18T13:47:32.975Z</time></trkpt><trkpt lat="44.8040968" lon="8.9651403"><ele>393.0</ele><time>2026-04-18T13:47:34.975Z</time></trkpt><trkpt lat="44.8041703" lon="8.9650902"><ele>393.0</ele><time>2026-04-18T13:47:35.975Z</time></trkpt><trkpt lat="44.8042605" lon="8.9650317"><ele>393.0</ele><time>2026-04-18T13:47:36.975Z</time></trkpt><trkpt lat="44.8043595" lon="8.9649652"><ele>393.0</ele><time>2026-04-18T13:47:37.975Z</time></trkpt><trkpt lat="44.8044674" lon="8.9649065"><ele>393.0</ele><time>2026-04-18T13:47:38.974Z</time></trkpt><trkpt lat="44.8045865" lon="8.96487"><ele>393.0</ele><time>2026-04-18T13:47:39.974Z</time></trkpt><trkpt lat="44.8047165" lon="8.9648541"><ele>394.0</ele><time>2026-04-18T13:47:40.975Z</time></trkpt><trkpt lat="44.8048349" lon="8.964829"><ele>395.0</ele><time>2026-04-18T13:47:41.975Z</time></trkpt><trkpt lat="44.8049535" lon="8.9647996"><ele>396.0</ele><time>2026-04-18T13:47:42.975Z</time></trkpt><trkpt lat="44.8050689" lon="8.9647617"><ele>397.0</ele><time>2026-04-18T13:47:43.974Z</time></trkpt><trkpt lat="44.8051817" lon="8.9647114"><ele>397.0</ele><time>2026-04-18T13:47:44.974Z</time></trkpt><trkpt lat="44.8052871" lon="8.9646555"><ele>397.0</ele><time>2026-04-18T13:47:45.975Z</time></trkpt><trkpt lat="44.8053851" lon="8.9645965"><ele>397.0</ele><time>2026-04-18T13:47:46.974Z</time></trkpt><trkpt lat="44.8054736" lon="8.9645222"><ele>397.0</ele><time>2026-04-18T13:47:47.975Z</time></trkpt><trkpt lat="44.805547" lon="8.9644239"><ele>397.0</ele><time>2026-04-18T13:47:48.974Z</time></trkpt><trkpt lat="44.8056006" lon="8.9642974"><ele>400.0</ele><time>2026-04-18T13:47:49.975Z</time></trkpt><trkpt lat="44.8056503" lon="8.9641594"><ele>403.0</ele><time>2026-04-18T13:47:50.974Z</time></trkpt><trkpt lat="44.8056988" lon="8.9640105"><ele>406.0</ele><time>2026-04-18T13:47:51.975Z</time></trkpt><trkpt lat="44.8057449" lon="8.9638538"><ele>409.0</ele><time>2026-04-18T13:47:52.974Z</time></trkpt><trkpt lat="44.8057993" lon="8.9636986"><ele>409.0</ele><time>2026-04-18T13:47:53.975Z</time></trkpt><trkpt lat="44.805867" lon="8.9635493"><ele>409.0</ele><time>2026-04-18T13:47:54.975Z</time></trkpt><trkpt lat="44.8059425" lon="8.9634115"><ele>409.0</ele><time>2026-04-18T13:47:55.975Z</time></trkpt><trkpt lat="44.806012" lon="8.9632677"><ele>409.0</ele><time>2026-04-18T13:47:56.975Z</time></trkpt><trkpt lat="44.8060608" lon="8.9630997"><ele>406.0</ele><time>2026-04-18T13:47:57.975Z</time></trkpt><trkpt lat="44.806094" lon="8.9629299"><ele>403.0</ele><time>2026-04-18T13:47:58.975Z</time></trkpt><trkpt lat="44.8061221" lon="8.9627641"><ele>400.0</ele><time>2026-04-18T13:47:59.974Z</time></trkpt><trkpt lat="44.8061648" lon="8.9626156"><ele>397.0</ele><time>2026-04-18T13:48:00.974Z</time></trkpt><trkpt lat="44.8062387" lon="8.9624799"><ele>397.0</ele><time>2026-04-18T13:48:01.974Z</time></trkpt><trkpt lat="44.8063352" lon="8.962348"><ele>397.0</ele><time>2026-04-18T13:48:02.975Z</time></trkpt><trkpt lat="44.8064487" lon="8.9622193"><ele>397.0</ele><time>2026-04-18T13:48:03.974Z</time></trkpt><trkpt lat="44.806568" lon="8.9620896"><ele>397.0</ele><time>2026-04-18T13:48:04.974Z</time></trkpt><trkpt lat="44.8066904" lon="8.9619675"><ele>397.0</ele><time>2026-04-18T13:48:05.975Z</time></trkpt><trkpt lat="44.80681" lon="8.9618431"><ele>397.0</ele><time>2026-04-18T13:48:06.974Z</time></trkpt><trkpt lat="44.8069269" lon="8.9617148"><ele>397.0</ele><time>2026-04-18T13:48:07.975Z</time></trkpt><trkpt lat="44.8070433" lon="8.9615925"><ele>397.0</ele><time>2026-04-18T13:48:08.974Z</time></trkpt><trkpt lat="44.8071592" lon="8.9614721"><ele>394.75</ele><time>2026-04-18T13:48:09.974Z</time></trkpt><trkpt lat="44.8072741" lon="8.9613531"><ele>392.5</ele><time>2026-04-18T13:48:10.974Z</time></trkpt><trkpt lat="44.8073861" lon="8.9612384"><ele>390.25</ele><time>2026-04-18T13:48:11.975Z</time></trkpt><trkpt lat="44.8074964" lon="8.9611271"><ele>388.0</ele><time>2026-04-18T13:48:12.975Z</time></trkpt><trkpt lat="44.8076034" lon="8.9610156"><ele>386.59999999999997</ele><time>2026-04-18T13:48:13.975Z</time></trkpt><trkpt lat="44.8076957" lon="8.9609033"><ele>385.2</ele><time>2026-04-18T13:48:14.975Z</time></trkpt><trkpt lat="44.8077698" lon="8.9607968"><ele>383.8</ele><time>2026-04-18T13:48:15.975Z</time></trkpt><trkpt lat="44.8078292" lon="8.9607148"><ele>382.4</ele><time>2026-04-18T13:48:16.974Z</time></trkpt><trkpt lat="44.8078911" lon="8.9606662"><ele>381.0</ele><time>2026-04-18T13:48:17.974Z</time></trkpt><trkpt lat="44.8079989" lon="8.9607294"><ele>381.0</ele><time>2026-04-18T13:48:19.974Z</time></trkpt><trkpt lat="44.8080272" lon="8.9608309"><ele>381.0</ele><time>2026-04-18T13:48:20.975Z</time></trkpt><trkpt lat="44.8080267" lon="8.9609638"><ele>381.0</ele><time>2026-04-18T13:48:21.974Z</time></trkpt><trkpt lat="44.8080067" lon="8.9611168"><ele>381.0</ele><time>2026-04-18T13:48:22.974Z</time></trkpt><trkpt lat="44.8079846" lon="8.9612878"><ele>381.0</ele><time>2026-04-18T13:48:23.974Z</time></trkpt><trkpt lat="44.8079647" lon="8.9614639"><ele>379.25</ele><time>2026-04-18T13:48:24.975Z</time></trkpt><trkpt lat="44.8079443" lon="8.9616387"><ele>377.5</ele><time>2026-04-18T13:48:25.975Z</time></trkpt><trkpt lat="44.8079236" lon="8.9618127"><ele>375.75</ele><time>2026-04-18T13:48:26.975Z</time></trkpt><trkpt lat="44.8078989" lon="8.9619752"><ele>374.0</ele><time>2026-04-18T13:48:27.975Z</time></trkpt><trkpt lat="44.807877" lon="8.9621154"><ele>373.0</ele><time>2026-04-18T13:48:28.974Z</time></trkpt><trkpt lat="44.8078638" lon="8.9622249"><ele>372.0</ele><time>2026-04-18T13:48:29.975Z</time></trkpt><trkpt lat="44.8078722" lon="8.9623185"><ele>371.0</ele><time>2026-04-18T13:48:30.974Z</time></trkpt><trkpt lat="44.8079704" lon="8.9624056"><ele>370.0</ele><time>2026-04-18T13:48:32.975Z</time></trkpt><trkpt lat="44.8080371" lon="8.9623778"><ele>369.0</ele><time>2026-04-18T13:48:33.975Z</time></trkpt><trkpt lat="44.8080925" lon="8.962294"><ele>368.0</ele><time>2026-04-18T13:48:34.975Z</time></trkpt><trkpt lat="44.8081384" lon="8.9621747"><ele>368.0</ele><time>2026-04-18T13:48:35.974Z</time></trkpt><trkpt lat="44.8081897" lon="8.9620319"><ele>368.0</ele><time>2026-04-18T13:48:36.975Z</time></trkpt><trkpt lat="44.8082468" lon="8.9618755"><ele>368.0</ele><time>2026-04-18T13:48:37.975Z</time></trkpt><trkpt lat="44.8083061" lon="8.9617145"><ele>368.0</ele><time>2026-04-18T13:48:38.974Z</time></trkpt><trkpt lat="44.8083609" lon="8.9615618"><ele>369.0</ele><time>2026-04-18T13:48:39.974Z</time></trkpt><trkpt lat="44.8084073" lon="8.9614391"><ele>370.0</ele><time>2026-04-18T13:48:40.975Z</time></trkpt><trkpt lat="44.8084542" lon="8.961364"><ele>371.0</ele><time>2026-04-18T13:48:41.974Z</time></trkpt><trkpt lat="44.8085119" lon="8.9613243"><ele>372.0</ele><time>2026-04-18T13:48:42.975Z</time></trkpt><trkpt lat="44.8085968" lon="8.9614022"><ele>373.0</ele><time>2026-04-18T13:48:44.974Z</time></trkpt><trkpt lat="44.8086085" lon="8.9614912"><ele>374.0</ele><time>2026-04-18T13:48:45.974Z</time></trkpt><trkpt lat="44.808593" lon="8.9615999"><ele>370.6</ele><time>2026-04-18T13:48:46.974Z</time></trkpt><trkpt lat="44.8085648" lon="8.9617198"><ele>367.2</ele><time>2026-04-18T13:48:47.975Z</time></trkpt><trkpt lat="44.8085401" lon="8.961873"><ele>363.8</ele><time>2026-04-18T13:48:48.975Z</time></trkpt><trkpt lat="44.8085269" lon="8.9620407"><ele>360.40000000000003</ele><time>2026-04-18T13:48:49.975Z</time></trkpt><trkpt lat="44.8085175" lon="8.9622014"><ele>357.0</ele><time>2026-04-18T13:48:50.974Z</time></trkpt><trkpt lat="44.8085109" lon="8.9623474"><ele>357.0</ele><time>2026-04-18T13:48:51.974Z</time></trkpt><trkpt lat="44.8085176" lon="8.9624734"><ele>357.0</ele><time>2026-04-18T13:48:52.975Z</time></trkpt><trkpt lat="44.8085438" lon="8.9625932"><ele>357.0</ele><time>2026-04-18T13:48:53.974Z</time></trkpt><trkpt lat="44.8085979" lon="8.9627015"><ele>357.0</ele><time>2026-04-18T13:48:54.975Z</time></trkpt><trkpt lat="44.8086778" lon="8.962792"><ele>357.0</ele><time>2026-04-18T13:48:55.974Z</time></trkpt><trkpt lat="44.8087769" lon="8.9628598"><ele>355.75</ele><time>2026-04-18T13:48:56.975Z</time></trkpt><trkpt lat="44.8088912" lon="8.962916"><ele>354.5</ele><time>2026-04-18T13:48:57.975Z</time></trkpt><trkpt lat="44.8090184" lon="8.9629633"><ele>353.25</ele><time>2026-04-18T13:48:58.975Z</time></trkpt><trkpt lat="44.8091489" lon="8.9630012"><ele>352.0</ele><time>2026-04-18T13:48:59.975Z</time></trkpt><trkpt lat="44.8092766" lon="8.9630214"><ele>351.75</ele><time>2026-04-18T13:49:00.975Z</time></trkpt><trkpt lat="44.8094068" lon="8.9630135"><ele>351.5</ele><time>2026-04-18T13:49:01.974Z</time></trkpt><trkpt lat="44.8095394" lon="8.9630018"><ele>351.25</ele><time>2026-04-18T13:49:02.975Z</time></trkpt><trkpt lat="44.8096814" lon="8.9630039"><ele>351.0</ele><time>2026-04-18T13:49:03.974Z</time></trkpt><trkpt lat="44.8098351" lon="8.9630173"><ele>351.0</ele><time>2026-04-18T13:49:04.975Z</time></trkpt><trkpt lat="44.8099998" lon="8.9630319"><ele>351.0</ele><time>2026-04-18T13:49:05.975Z</time></trkpt><trkpt lat="44.8101722" lon="8.9630491"><ele>351.0</ele><time>2026-04-18T13:49:06.975Z</time></trkpt><trkpt lat="44.8103495" lon="8.9630674"><ele>348.6666666666667</ele><time>2026-04-18T13:49:07.975Z</time></trkpt><trkpt lat="44.8105258" lon="8.9630832"><ele>346.33333333333337</ele><time>2026-04-18T13:49:08.974Z</time></trkpt><trkpt lat="44.8107027" lon="8.9631"><ele>344.0</ele><time>2026-04-18T13:49:09.975Z</time></trkpt><trkpt lat="44.8108804" lon="8.9631173"><ele>343.6666666666667</ele><time>2026-04-18T13:49:10.975Z</time></trkpt><trkpt lat="44.8110583" lon="8.9631331"><ele>343.3333333333333</ele><time>2026-04-18T13:49:11.975Z</time></trkpt><trkpt lat="44.8112325" lon="8.9631458"><ele>343.0</ele><time>2026-04-18T13:49:12.974Z</time></trkpt><trkpt lat="44.8114037" lon="8.9631545"><ele>343.0</ele><time>2026-04-18T13:49:13.974Z</time></trkpt><trkpt lat="44.8115682" lon="8.9631715"><ele>343.0</ele><time>2026-04-18T13:49:14.975Z</time></trkpt><trkpt lat="44.8117243" lon="8.963206"><ele>343.0</ele><time>2026-04-18T13:49:15.974Z</time></trkpt><trkpt lat="44.8118694" lon="8.9632583"><ele>343.0</ele><time>2026-04-18T13:49:16.975Z</time></trkpt><trkpt lat="44.8120031" lon="8.963325"><ele>343.0</ele><time>2026-04-18T13:49:17.974Z</time></trkpt><trkpt lat="44.8121295" lon="8.9633991"><ele>343.0</ele><time>2026-04-18T13:49:18.974Z</time></trkpt><trkpt lat="44.8122515" lon="8.9634752"><ele>343.0</ele><time>2026-04-18T13:49:19.974Z</time></trkpt><trkpt lat="44.8123665" lon="8.9635527"><ele>343.0</ele><time>2026-04-18T13:49:20.975Z</time></trkpt><trkpt lat="44.8124749" lon="8.9636317"><ele>343.0</ele><time>2026-04-18T13:49:21.975Z</time></trkpt><trkpt lat="44.8125672" lon="8.9637212"><ele>343.0</ele><time>2026-04-18T13:49:22.974Z</time></trkpt><trkpt lat="44.8126308" lon="8.9638215"><ele>343.0</ele><time>2026-04-18T13:49:23.974Z</time></trkpt><trkpt lat="44.81267" lon="8.9639327"><ele>343.0</ele><time>2026-04-18T13:49:24.975Z</time></trkpt><trkpt lat="44.8126878" lon="8.9640626"><ele>342.3333333333333</ele><time>2026-04-18T13:49:25.975Z</time></trkpt><trkpt lat="44.8127053" lon="8.9641864"><ele>341.66666666666663</ele><time>2026-04-18T13:49:26.974Z</time></trkpt><trkpt lat="44.8127406" lon="8.9642986"><ele>341.0</ele><time>2026-04-18T13:49:27.975Z</time></trkpt><trkpt lat="44.8128028" lon="8.9643809"><ele>340.3333333333333</ele><time>2026-04-18T13:49:28.975Z</time></trkpt><trkpt lat="44.8128863" lon="8.9644213"><ele>339.6666666666667</ele><time>2026-04-18T13:49:29.974Z</time></trkpt><trkpt lat="44.8129745" lon="8.964414"><ele>339.0</ele><time>2026-04-18T13:49:30.975Z</time></trkpt><trkpt lat="44.8130596" lon="8.964358"><ele>339.0</ele><time>2026-04-18T13:49:31.975Z</time></trkpt><trkpt lat="44.8131423" lon="8.9642602"><ele>339.0</ele><time>2026-04-18T13:49:32.975Z</time></trkpt><trkpt lat="44.8132337" lon="8.9641636"><ele>339.0</ele><time>2026-04-18T13:49:33.975Z</time></trkpt><trkpt lat="44.8133389" lon="8.9640973"><ele>339.0</ele><time>2026-04-18T13:49:34.975Z</time></trkpt><trkpt lat="44.8134538" lon="8.964079"><ele>343.25</ele><time>2026-04-18T13:49:35.974Z</time></trkpt><trkpt lat="44.8135754" lon="8.9641067"><ele>347.5</ele><time>2026-04-18T13:49:36.975Z</time></trkpt><trkpt lat="44.8136966" lon="8.9641764"><ele>351.75</ele><time>2026-04-18T13:49:37.975Z</time></trkpt><trkpt lat="44.813808" lon="8.9642632"><ele>356.0</ele><time>2026-04-18T13:49:38.975Z</time></trkpt><trkpt lat="44.8139227" lon="8.9643611"><ele>357.0</ele><time>2026-04-18T13:49:39.975Z</time></trkpt><trkpt lat="44.8140395" lon="8.9644551"><ele>358.0</ele><time>2026-04-18T13:49:40.975Z</time></trkpt><trkpt lat="44.8141605" lon="8.9645389"><ele>359.0</ele><time>2026-04-18T13:49:41.974Z</time></trkpt><trkpt lat="44.8142826" lon="8.9646129"><ele>360.0</ele><time>2026-04-18T13:49:42.975Z</time></trkpt><trkpt lat="44.8144058" lon="8.9646699"><ele>363.5</ele><time>2026-04-18T13:49:43.975Z</time></trkpt><trkpt lat="44.8145318" lon="8.9647059"><ele>367.0</ele><time>2026-04-18T13:49:44.975Z</time></trkpt><trkpt lat="44.8146598" lon="8.9647231"><ele>370.5</ele><time>2026-04-18T13:49:45.975Z</time></trkpt><trkpt lat="44.81479" lon="8.9647291"><ele>374.0</ele><time>2026-04-18T13:49:46.975Z</time></trkpt><trkpt lat="44.8149152" lon="8.9647289"><ele>374.0</ele><time>2026-04-18T13:49:47.975Z</time></trkpt><trkpt lat="44.8150343" lon="8.9647198"><ele>374.0</ele><time>2026-04-18T13:49:48.974Z</time></trkpt><trkpt lat="44.8151469" lon="8.9647005"><ele>374.0</ele><time>2026-04-18T13:49:49.975Z</time></trkpt><trkpt lat="44.8152479" lon="8.9646735"><ele>374.0</ele><time>2026-04-18T13:49:50.975Z</time></trkpt><trkpt lat="44.8153223" lon="8.9646474"><ele>374.0</ele><time>2026-04-18T13:49:51.975Z</time></trkpt><trkpt lat="44.8154252" lon="8.9646379"><ele>372.0</ele><time>2026-04-18T13:49:53.974Z</time></trkpt><trkpt lat="44.8154798" lon="8.9646955"><ele>370.0</ele><time>2026-04-18T13:49:55.975Z</time></trkpt><trkpt lat="44.8154792" lon="8.9647947"><ele>368.0</ele><time>2026-04-18T13:49:57.975Z</time></trkpt><trkpt lat="44.8154388" lon="8.9649525"><ele>366.0</ele><time>2026-04-18T13:49:59.975Z</time></trkpt><trkpt lat="44.8154271" lon="8.9650591"><ele>364.0</ele><time>2026-04-18T13:50:00.974Z</time></trkpt><trkpt lat="44.8154329" lon="8.9651789"><ele>362.0</ele><time>2026-04-18T13:50:01.975Z</time></trkpt><trkpt lat="44.815464" lon="8.965298"><ele>361.83333333333337</ele><time>2026-04-18T13:50:02.975Z</time></trkpt><trkpt lat="44.8154983" lon="8.9654104"><ele>361.6666666666667</ele><time>2026-04-18T13:50:03.975Z</time></trkpt><trkpt lat="44.8155149" lon="8.9655184"><ele>361.5</ele><time>2026-04-18T13:50:04.974Z</time></trkpt><trkpt lat="44.8155132" lon="8.9656285"><ele>361.3333333333333</ele><time>2026-04-18T13:50:05.974Z</time></trkpt><trkpt lat="44.8154905" lon="8.965733"><ele>361.16666666666663</ele><time>2026-04-18T13:50:06.975Z</time></trkpt><trkpt lat="44.8154559" lon="8.9658378"><ele>361.0</ele><time>2026-04-18T13:50:07.975Z</time></trkpt><trkpt lat="44.8154182" lon="8.9659375"><ele>359.8333333333333</ele><time>2026-04-18T13:50:08.974Z</time></trkpt><trkpt lat="44.8153769" lon="8.9660332"><ele>358.66666666666663</ele><time>2026-04-18T13:50:09.975Z</time></trkpt><trkpt lat="44.8153391" lon="8.9661166"><ele>357.5</ele><time>2026-04-18T13:50:10.974Z</time></trkpt><trkpt lat="44.8152847" lon="8.9662518"><ele>356.3333333333333</ele><time>2026-04-18T13:50:12.975Z</time></trkpt><trkpt lat="44.8152418" lon="8.9663654"><ele>355.1666666666667</ele><time>2026-04-18T13:50:14.974Z</time></trkpt><trkpt lat="44.8152057" lon="8.9664899"><ele>354.0</ele><time>2026-04-18T13:50:16.974Z</time></trkpt><trkpt lat="44.8151826" lon="8.9666002"><ele>354.0</ele><time>2026-04-18T13:50:18.974Z</time></trkpt><trkpt lat="44.8151768" lon="8.9667093"><ele>354.0</ele><time>2026-04-18T13:50:20.975Z</time></trkpt><trkpt lat="44.8151809" lon="8.9668208"><ele>354.0</ele><time>2026-04-18T13:50:22.975Z</time></trkpt><trkpt lat="44.8151868" lon="8.9669233"><ele>354.0</ele><time>2026-04-18T13:50:24.975Z</time></trkpt><trkpt lat="44.8151927" lon="8.9670127"><ele>354.0</ele><time>2026-04-18T13:50:27.975Z</time></trkpt><trkpt lat="44.8151876" lon="8.9669173"><ele>354.0</ele><time>2026-04-18T13:54:16.974Z</time></trkpt><trkpt lat="44.8151802" lon="8.9668135"><ele>354.0</ele><time>2026-04-18T13:54:18.975Z</time></trkpt><trkpt lat="44.8151813" lon="8.9667206"><ele>354.0</ele><time>2026-04-18T13:54:20.974Z</time></trkpt><trkpt lat="44.8151889" lon="8.9666002"><ele>354.0</ele><time>2026-04-18T13:54:32.975Z</time></trkpt><trkpt lat="44.8152207" lon="8.9664505"><ele>354.0</ele><time>2026-04-18T13:54:34.975Z</time></trkpt><trkpt lat="44.8152802" lon="8.96629"><ele>354.0</ele><time>2026-04-18T13:54:36.974Z</time></trkpt><trkpt lat="44.8153126" lon="8.9662066"><ele>354.0</ele><time>2026-04-18T13:54:37.975Z</time></trkpt><trkpt lat="44.8153437" lon="8.9661283"><ele>354.0</ele><time>2026-04-18T13:54:38.974Z</time></trkpt><trkpt lat="44.8154143" lon="8.9659721"><ele>354.0</ele><time>2026-04-18T13:54:40.974Z</time></trkpt><trkpt lat="44.8154549" lon="8.9658794"><ele>354.0</ele><time>2026-04-18T13:54:41.975Z</time></trkpt><trkpt lat="44.8154889" lon="8.965787"><ele>354.0</ele><time>2026-04-18T13:54:42.975Z</time></trkpt><trkpt lat="44.8155132" lon="8.9656914"><ele>354.0</ele><time>2026-04-18T13:54:43.975Z</time></trkpt><trkpt lat="44.8155252" lon="8.9656021"><ele>354.0</ele><time>2026-04-18T13:54:44.974Z</time></trkpt><trkpt lat="44.8155242" lon="8.9655096"><ele>355.1666666666667</ele><time>2026-04-18T13:54:45.974Z</time></trkpt><trkpt lat="44.8155082" lon="8.965416"><ele>356.3333333333333</ele><time>2026-04-18T13:54:46.975Z</time></trkpt><trkpt lat="44.8154833" lon="8.9653185"><ele>357.5</ele><time>2026-04-18T13:54:47.975Z</time></trkpt><trkpt lat="44.8154572" lon="8.9652204"><ele>358.66666666666663</ele><time>2026-04-18T13:54:48.975Z</time></trkpt><trkpt lat="44.8154396" lon="8.9651201"><ele>359.8333333333333</ele><time>2026-04-18T13:54:49.975Z</time></trkpt><trkpt lat="44.8154428" lon="8.9650254"><ele>361.0</ele><time>2026-04-18T13:54:50.974Z</time></trkpt><trkpt lat="44.8154713" lon="8.964862"><ele>361.16666666666663</ele><time>2026-04-18T13:54:52.975Z</time></trkpt><trkpt lat="44.8155117" lon="8.9647364"><ele>361.3333333333333</ele><time>2026-04-18T13:54:54.974Z</time></trkpt><trkpt lat="44.8155522" lon="8.9646464"><ele>361.5</ele><time>2026-04-18T13:54:56.974Z</time></trkpt><trkpt lat="44.815586" lon="8.9645611"><ele>361.6666666666667</ele><time>2026-04-18T13:54:59.974Z</time></trkpt><trkpt lat="44.8155461" lon="8.9644601"><ele>361.83333333333337</ele><time>2026-04-18T13:55:11.974Z</time></trkpt><trkpt lat="44.8154741" lon="8.9644938"><ele>362.0</ele><time>2026-04-18T13:55:14.975Z</time></trkpt><trkpt lat="44.815425" lon="8.9645528"><ele>362.0</ele><time>2026-04-18T13:57:24.974Z</time></trkpt><trkpt lat="44.8154725" lon="8.9646229"><ele>362.0</ele><time>2026-04-18T13:57:40.975Z</time></trkpt><trkpt lat="44.8154709" lon="8.9647138"><ele>362.0</ele><time>2026-04-18T13:57:46.974Z</time></trkpt><trkpt lat="44.8154141" lon="8.9647598"><ele>362.0</ele><time>2026-04-18T13:57:54.975Z</time></trkpt><trkpt lat="44.8153496" lon="8.9647979"><ele>362.0</ele><time>2026-04-18T13:58:01.974Z</time></trkpt><trkpt lat="44.8152921" lon="8.964842"><ele>362.0</ele><time>2026-04-18T13:58:07.974Z</time></trkpt><trkpt lat="44.8152328" lon="8.9648881"><ele>362.0</ele><time>2026-04-18T13:58:13.994Z</time></trkpt><trkpt lat="44.8151694" lon="8.9649275"><ele>363.7142857142857</ele><time>2026-04-18T13:58:19.974Z</time></trkpt><trkpt lat="44.8151113" lon="8.9649634"><ele>365.42857142857144</ele><time>2026-04-18T13:58:25.975Z</time></trkpt><trkpt lat="44.8150549" lon="8.9650072"><ele>367.1428571428571</ele><time>2026-04-18T13:58:31.975Z</time></trkpt><trkpt lat="44.814994" lon="8.9650519"><ele>368.8571428571429</ele><time>2026-04-18T13:58:38.913Z</time></trkpt><trkpt lat="44.8149935" lon="8.9651428"><ele>370.5714285714286</ele><time>2026-04-18T13:58:46.953Z</time></trkpt><trkpt lat="44.8150051" lon="8.9652361"><ele>372.2857142857143</ele><time>2026-04-18T13:58:55.975Z</time></trkpt><trkpt lat="44.8150211" lon="8.965334"><ele>374.0</ele><time>2026-04-18T13:59:04.998Z</time></trkpt><trkpt lat="44.8150554" lon="8.9654204"><ele>374.2857142857143</ele><time>2026-04-18T13:59:12.974Z</time></trkpt><trkpt lat="44.8150838" lon="8.9654996"><ele>374.5714285714286</ele><time>2026-04-18T13:59:19.975Z</time></trkpt><trkpt lat="44.8150785" lon="8.965601"><ele>374.8571428571429</ele><time>2026-04-18T13:59:27.974Z</time></trkpt><trkpt lat="44.815091" lon="8.9656994"><ele>375.1428571428571</ele><time>2026-04-18T13:59:36.975Z</time></trkpt><trkpt lat="44.8150247" lon="8.9657268"><ele>375.42857142857144</ele><time>2026-04-18T13:59:44.975Z</time></trkpt><trkpt lat="44.8149641" lon="8.9657757"><ele>375.7142857142857</ele><time>2026-04-18T13:59:54.974Z</time></trkpt><trkpt lat="44.8149745" lon="8.9656836"><ele>376.0</ele><time>2026-04-18T14:00:34.974Z</time></trkpt><trkpt lat="44.8150345" lon="8.9657288"><ele>376.0</ele><time>2026-04-18T14:03:37.975Z</time></trkpt><trkpt lat="44.8149984" lon="8.9658213"><ele>376.0</ele><time>2026-04-18T14:03:58.974Z</time></trkpt><trkpt lat="44.814969" lon="8.9657384"><ele>376.0</ele><time>2026-04-18T14:04:08.974Z</time></trkpt><trkpt lat="44.8150536" lon="8.9657175"><ele>376.0</ele><time>2026-04-18T14:04:16.975Z</time></trkpt><trkpt lat="44.8151167" lon="8.9656998"><ele>376.0</ele><time>2026-04-18T14:04:21.974Z</time></trkpt><trkpt lat="44.8150972" lon="8.9656003"><ele>376.0</ele><time>2026-04-18T14:04:26.975Z</time></trkpt><trkpt lat="44.8150988" lon="8.9655097"><ele>376.0</ele><time>2026-04-18T14:04:32.988Z</time></trkpt><trkpt lat="44.8150951" lon="8.9654176"><ele>376.0</ele><time>2026-04-18T14:04:40.975Z</time></trkpt><trkpt lat="44.8150462" lon="8.9653509"><ele>376.0</ele><time>2026-04-18T14:04:48.975Z</time></trkpt><trkpt lat="44.8149897" lon="8.9653061"><ele>376.0</ele><time>2026-04-18T14:04:57.975Z</time></trkpt><trkpt lat="44.8149739" lon="8.965206"><ele>376.0</ele><time>2026-04-18T14:05:11.974Z</time></trkpt><trkpt lat="44.8149934" lon="8.9651023"><ele>376.0</ele><time>2026-04-18T14:05:16.971Z</time></trkpt><trkpt lat="44.8150052" lon="8.9650131"><ele>376.0</ele><time>2026-04-18T14:05:23.975Z</time></trkpt><trkpt lat="44.8150685" lon="8.9649886"><ele>376.0</ele><time>2026-04-18T14:05:28.929Z</time></trkpt><trkpt lat="44.8151338" lon="8.9649644"><ele>374.0</ele><time>2026-04-18T14:05:34.995Z</time></trkpt><trkpt lat="44.8151919" lon="8.9649294"><ele>372.0</ele><time>2026-04-18T14:05:40.974Z</time></trkpt><trkpt lat="44.8152496" lon="8.9648937"><ele>370.0</ele><time>2026-04-18T14:05:46.975Z</time></trkpt><trkpt lat="44.8153098" lon="8.9648396"><ele>368.0</ele><time>2026-04-18T14:05:53.975Z</time></trkpt><trkpt lat="44.8153643" lon="8.9647673"><ele>366.0</ele><time>2026-04-18T14:06:00.949Z</time></trkpt><trkpt lat="44.8154335" lon="8.9647494"><ele>364.0</ele><time>2026-04-18T14:06:06.975Z</time></trkpt><trkpt lat="44.8154795" lon="8.9646878"><ele>362.0</ele><time>2026-04-18T14:06:12.973Z</time></trkpt><trkpt lat="44.8154407" lon="8.9646109"><ele>362.0</ele><time>2026-04-18T14:06:17.975Z</time></trkpt><trkpt lat="44.8153967" lon="8.9645398"><ele>362.0</ele><time>2026-04-18T14:06:24.95Z</time></trkpt><trkpt lat="44.8154575" lon="8.9646081"><ele>362.0</ele><time>2026-04-18T14:10:01.974Z</time></trkpt><trkpt lat="44.8155583" lon="8.964556"><ele>362.0</ele><time>2026-04-18T14:10:04.975Z</time></trkpt><trkpt lat="44.8155893" lon="8.9644735"><ele>362.0</ele><time>2026-04-18T14:10:29.974Z</time></trkpt><trkpt lat="44.8156111" lon="8.9643901"><ele>362.0</ele><time>2026-04-18T14:10:31.975Z</time></trkpt><trkpt lat="44.8156903" lon="8.9642909"><ele>362.33333333333337</ele><time>2026-04-18T14:10:33.974Z</time></trkpt><trkpt lat="44.8157665" lon="8.9641695"><ele>362.6666666666667</ele><time>2026-04-18T14:10:35.975Z</time></trkpt><trkpt lat="44.8158042" lon="8.9640932"><ele>363.0</ele><time>2026-04-18T14:10:36.975Z</time></trkpt><trkpt lat="44.8158451" lon="8.9639973"><ele>363.3333333333333</ele><time>2026-04-18T14:10:37.975Z</time></trkpt><trkpt lat="44.8158883" lon="8.9638963"><ele>363.66666666666663</ele><time>2026-04-18T14:10:38.974Z</time></trkpt><trkpt lat="44.8159255" lon="8.9637908"><ele>364.0</ele><time>2026-04-18T14:10:39.974Z</time></trkpt><trkpt lat="44.815948" lon="8.9636693"><ele>364.0</ele><time>2026-04-18T14:10:40.974Z</time></trkpt><trkpt lat="44.8159624" lon="8.9635423"><ele>364.0</ele><time>2026-04-18T14:10:41.975Z</time></trkpt><trkpt lat="44.8159716" lon="8.96341"><ele>364.0</ele><time>2026-04-18T14:10:42.974Z</time></trkpt><trkpt lat="44.8159734" lon="8.96327"><ele>364.0</ele><time>2026-04-18T14:10:43.974Z</time></trkpt><trkpt lat="44.815973" lon="8.9631224"><ele>364.0</ele><time>2026-04-18T14:10:44.974Z</time></trkpt><trkpt lat="44.8159734" lon="8.9629703"><ele>364.25</ele><time>2026-04-18T14:10:45.975Z</time></trkpt><trkpt lat="44.8159779" lon="8.9628143"><ele>364.5</ele><time>2026-04-18T14:10:46.975Z</time></trkpt><trkpt lat="44.8159885" lon="8.9626525"><ele>364.75</ele><time>2026-04-18T14:10:47.975Z</time></trkpt><trkpt lat="44.8160054" lon="8.962486"><ele>365.0</ele><time>2026-04-18T14:10:48.975Z</time></trkpt><trkpt lat="44.8160396" lon="8.9621427"><ele>363.2</ele><time>2026-04-18T14:10:50.975Z</time></trkpt><trkpt lat="44.8160588" lon="8.9619757"><ele>361.4</ele><time>2026-04-18T14:10:51.975Z</time></trkpt><trkpt lat="44.8160808" lon="8.9618152"><ele>359.6</ele><time>2026-04-18T14:10:52.975Z</time></trkpt><trkpt lat="44.81611" lon="8.9616764"><ele>357.8</ele><time>2026-04-18T14:10:53.974Z</time></trkpt><trkpt lat="44.8161592" lon="8.9615637"><ele>356.0</ele><time>2026-04-18T14:10:54.975Z</time></trkpt><trkpt lat="44.8162323" lon="8.9614804"><ele>355.8</ele><time>2026-04-18T14:10:55.974Z</time></trkpt><trkpt lat="44.8163276" lon="8.9614311"><ele>355.6</ele><time>2026-04-18T14:10:56.974Z</time></trkpt><trkpt lat="44.8164367" lon="8.9614126"><ele>355.4</ele><time>2026-04-18T14:10:57.975Z</time></trkpt><trkpt lat="44.816553" lon="8.9613974"><ele>355.2</ele><time>2026-04-18T14:10:58.975Z</time></trkpt><trkpt lat="44.8166687" lon="8.9613546"><ele>355.0</ele><time>2026-04-18T14:10:59.974Z</time></trkpt><trkpt lat="44.816778" lon="8.9612783"><ele>353.25</ele><time>2026-04-18T14:11:00.974Z</time></trkpt><trkpt lat="44.8168739" lon="8.961167"><ele>351.5</ele><time>2026-04-18T14:11:01.974Z</time></trkpt><trkpt lat="44.8169606" lon="8.9610248"><ele>349.75</ele><time>2026-04-18T14:11:02.974Z</time></trkpt><trkpt lat="44.817049" lon="8.9608716"><ele>348.0</ele><time>2026-04-18T14:11:03.975Z</time></trkpt><trkpt lat="44.8171528" lon="8.9607222"><ele>348.0</ele><time>2026-04-18T14:11:04.974Z</time></trkpt><trkpt lat="44.8172717" lon="8.9605783"><ele>348.0</ele><time>2026-04-18T14:11:05.975Z</time></trkpt><trkpt lat="44.8173904" lon="8.9604291"><ele>348.0</ele><time>2026-04-18T14:11:06.975Z</time></trkpt><trkpt lat="44.8175126" lon="8.960275"><ele>348.0</ele><time>2026-04-18T14:11:07.975Z</time></trkpt><trkpt lat="44.8176319" lon="8.9601148"><ele>348.0</ele><time>2026-04-18T14:11:08.975Z</time></trkpt><trkpt lat="44.8177517" lon="8.959952"><ele>348.0</ele><time>2026-04-18T14:11:09.975Z</time></trkpt><trkpt lat="44.8178659" lon="8.959785"><ele>346.3333333333333</ele><time>2026-04-18T14:11:10.975Z</time></trkpt><trkpt lat="44.8179798" lon="8.9596201"><ele>344.66666666666663</ele><time>2026-04-18T14:11:11.975Z</time></trkpt><trkpt lat="44.8180942" lon="8.9594587"><ele>343.0</ele><time>2026-04-18T14:11:12.975Z</time></trkpt><trkpt lat="44.8182038" lon="8.9593131"><ele>344.0</ele><time>2026-04-18T14:11:13.974Z</time></trkpt><trkpt lat="44.8183084" lon="8.959168"><ele>345.0</ele><time>2026-04-18T14:11:14.974Z</time></trkpt><trkpt lat="44.8184027" lon="8.9590261"><ele>346.0</ele><time>2026-04-18T14:11:15.974Z</time></trkpt><trkpt lat="44.818486" lon="8.9588891"><ele>347.0</ele><time>2026-04-18T14:11:16.975Z</time></trkpt><trkpt lat="44.8185643" lon="8.9587582"><ele>344.5</ele><time>2026-04-18T14:11:17.974Z</time></trkpt><trkpt lat="44.8186393" lon="8.9586338"><ele>342.0</ele><time>2026-04-18T14:11:18.975Z</time></trkpt><trkpt lat="44.818714" lon="8.958512"><ele>339.5</ele><time>2026-04-18T14:11:19.974Z</time></trkpt><trkpt lat="44.8187978" lon="8.9583934"><ele>337.0</ele><time>2026-04-18T14:11:20.975Z</time></trkpt><trkpt lat="44.818888" lon="8.9582841"><ele>337.0</ele><time>2026-04-18T14:11:21.975Z</time></trkpt><trkpt lat="44.81899" lon="8.9581805"><ele>337.0</ele><time>2026-04-18T14:11:22.974Z</time></trkpt><trkpt lat="44.8190959" lon="8.9580799"><ele>337.0</ele><time>2026-04-18T14:11:23.974Z</time></trkpt><trkpt lat="44.8192069" lon="8.9579772"><ele>337.0</ele><time>2026-04-18T14:11:24.974Z</time></trkpt><trkpt lat="44.8193169" lon="8.9578715"><ele>335.0</ele><time>2026-04-18T14:11:25.975Z</time></trkpt><trkpt lat="44.8194344" lon="8.9577688"><ele>333.0</ele><time>2026-04-18T14:11:26.974Z</time></trkpt><trkpt lat="44.8195583" lon="8.9576792"><ele>331.0</ele><time>2026-04-18T14:11:27.975Z</time></trkpt><trkpt lat="44.8196891" lon="8.9576113"><ele>329.0</ele><time>2026-04-18T14:11:28.975Z</time></trkpt><trkpt lat="44.8198279" lon="8.9575621"><ele>329.25</ele><time>2026-04-18T14:11:29.971Z</time></trkpt><trkpt lat="44.8199679" lon="8.9575156"><ele>329.5</ele><time>2026-04-18T14:11:30.975Z</time></trkpt><trkpt lat="44.8201039" lon="8.9574691"><ele>329.75</ele><time>2026-04-18T14:11:31.975Z</time></trkpt><trkpt lat="44.8202419" lon="8.9574207"><ele>330.0</ele><time>2026-04-18T14:11:32.975Z</time></trkpt><trkpt lat="44.8203805" lon="8.9573705"><ele>330.0</ele><time>2026-04-18T14:11:33.972Z</time></trkpt><trkpt lat="44.8205188" lon="8.9573178"><ele>330.0</ele><time>2026-04-18T14:11:34.975Z</time></trkpt><trkpt lat="44.8206558" lon="8.9572669"><ele>330.0</ele><time>2026-04-18T14:11:35.975Z</time></trkpt><trkpt lat="44.8207822" lon="8.9572099"><ele>330.0</ele><time>2026-04-18T14:11:36.974Z</time></trkpt><trkpt lat="44.820885" lon="8.957144"><ele>330.0</ele><time>2026-04-18T14:11:37.974Z</time></trkpt><trkpt lat="44.8209744" lon="8.957049"><ele>330.0</ele><time>2026-04-18T14:11:38.974Z</time></trkpt><trkpt lat="44.8210553" lon="8.9569207"><ele>330.0</ele><time>2026-04-18T14:11:39.972Z</time></trkpt><trkpt lat="44.8211315" lon="8.9567732"><ele>330.0</ele><time>2026-04-18T14:11:40.975Z</time></trkpt><trkpt lat="44.8212103" lon="8.9566168"><ele>328.75</ele><time>2026-04-18T14:11:41.975Z</time></trkpt><trkpt lat="44.8212923" lon="8.9564544"><ele>327.5</ele><time>2026-04-18T14:11:42.974Z</time></trkpt><trkpt lat="44.8213734" lon="8.9562869"><ele>326.25</ele><time>2026-04-18T14:11:43.974Z</time></trkpt><trkpt lat="44.8214582" lon="8.9561165"><ele>325.0</ele><time>2026-04-18T14:11:44.975Z</time></trkpt><trkpt lat="44.8215418" lon="8.9559467"><ele>325.0</ele><time>2026-04-18T14:11:45.975Z</time></trkpt><trkpt lat="44.8216236" lon="8.955775"><ele>325.0</ele><time>2026-04-18T14:11:46.975Z</time></trkpt><trkpt lat="44.8217052" lon="8.9556043"><ele>325.0</ele><time>2026-04-18T14:11:47.975Z</time></trkpt><trkpt lat="44.8217894" lon="8.9554262"><ele>325.0</ele><time>2026-04-18T14:11:48.975Z</time></trkpt><trkpt lat="44.8218754" lon="8.9552388"><ele>326.0</ele><time>2026-04-18T14:11:49.975Z</time></trkpt><trkpt lat="44.8219552" lon="8.9550433"><ele>327.0</ele><time>2026-04-18T14:11:50.974Z</time></trkpt><trkpt lat="44.8220326" lon="8.954848"><ele>328.0</ele><time>2026-04-18T14:11:51.973Z</time></trkpt><trkpt lat="44.8221073" lon="8.9546685"><ele>328.5</ele><time>2026-04-18T14:11:52.975Z</time></trkpt><trkpt lat="44.82218" lon="8.9544985"><ele>329.0</ele><time>2026-04-18T14:11:53.975Z</time></trkpt><trkpt lat="44.8222463" lon="8.9543342"><ele>329.5</ele><time>2026-04-18T14:11:54.975Z</time></trkpt><trkpt lat="44.8222976" lon="8.9541693"><ele>330.0</ele><time>2026-04-18T14:11:55.974Z</time></trkpt><trkpt lat="44.8223325" lon="8.954"><ele>328.5</ele><time>2026-04-18T14:11:56.975Z</time></trkpt><trkpt lat="44.8223561" lon="8.9538199"><ele>327.0</ele><time>2026-04-18T14:11:57.975Z</time></trkpt><trkpt lat="44.8223723" lon="8.953626"><ele>325.5</ele><time>2026-04-18T14:11:58.974Z</time></trkpt><trkpt lat="44.8223815" lon="8.9534357"><ele>324.0</ele><time>2026-04-18T14:11:59.975Z</time></trkpt><trkpt lat="44.8223856" lon="8.9532503"><ele>321.5</ele><time>2026-04-18T14:12:00.975Z</time></trkpt><trkpt lat="44.8223883" lon="8.953061"><ele>319.0</ele><time>2026-04-18T14:12:01.975Z</time></trkpt><trkpt lat="44.8223914" lon="8.9528768"><ele>316.5</ele><time>2026-04-18T14:12:02.974Z</time></trkpt><trkpt lat="44.8223988" lon="8.9527059"><ele>314.0</ele><time>2026-04-18T14:12:03.975Z</time></trkpt><trkpt lat="44.8224217" lon="8.9525528"><ele>312.8</ele><time>2026-04-18T14:12:04.974Z</time></trkpt><trkpt lat="44.8224696" lon="8.9524205"><ele>311.59999999999997</ele><time>2026-04-18T14:12:05.974Z</time></trkpt><trkpt lat="44.8225415" lon="8.9523069"><ele>310.4</ele><time>2026-04-18T14:12:06.975Z</time></trkpt><trkpt lat="44.8226294" lon="8.9522156"><ele>309.2</ele><time>2026-04-18T14:12:07.972Z</time></trkpt><trkpt lat="44.822735" lon="8.9521426"><ele>308.0</ele><time>2026-04-18T14:12:08.974Z</time></trkpt><trkpt lat="44.8228457" lon="8.9520981"><ele>307.5</ele><time>2026-04-18T14:12:09.975Z</time></trkpt><trkpt lat="44.822962" lon="8.9520892"><ele>307.0</ele><time>2026-04-18T14:12:10.975Z</time></trkpt><trkpt lat="44.8230748" lon="8.9521134"><ele>306.5</ele><time>2026-04-18T14:12:11.975Z</time></trkpt><trkpt lat="44.8231883" lon="8.9521489"><ele>306.0</ele><time>2026-04-18T14:12:12.974Z</time></trkpt><trkpt lat="44.8233016" lon="8.9521652"><ele>306.0</ele><time>2026-04-18T14:12:13.974Z</time></trkpt><trkpt lat="44.8234167" lon="8.9521543"><ele>306.0</ele><time>2026-04-18T14:12:14.975Z</time></trkpt><trkpt lat="44.8235372" lon="8.9521207"><ele>306.0</ele><time>2026-04-18T14:12:15.975Z</time></trkpt><trkpt lat="44.8236653" lon="8.9520648"><ele>306.0</ele><time>2026-04-18T14:12:16.974Z</time></trkpt><trkpt lat="44.823796" lon="8.9520002"><ele>303.0</ele><time>2026-04-18T14:12:17.971Z</time></trkpt><trkpt lat="44.823933" lon="8.9519189"><ele>300.0</ele><time>2026-04-18T14:12:18.974Z</time></trkpt><trkpt lat="44.8240681" lon="8.9518102"><ele>297.0</ele><time>2026-04-18T14:12:19.975Z</time></trkpt><trkpt lat="44.8241946" lon="8.9516847"><ele>295.6666666666667</ele><time>2026-04-18T14:12:20.974Z</time></trkpt><trkpt lat="44.8243082" lon="8.9515264"><ele>294.33333333333337</ele><time>2026-04-18T14:12:21.975Z</time></trkpt><trkpt lat="44.8244034" lon="8.9513433"><ele>293.0</ele><time>2026-04-18T14:12:22.975Z</time></trkpt><trkpt lat="44.8244808" lon="8.951138"><ele>290.0</ele><time>2026-04-18T14:12:23.974Z</time></trkpt><trkpt lat="44.8245467" lon="8.9509295"><ele>287.0</ele><time>2026-04-18T14:12:24.975Z</time></trkpt><trkpt lat="44.8246102" lon="8.9507127"><ele>284.0</ele><time>2026-04-18T14:12:25.975Z</time></trkpt><trkpt lat="44.8246718" lon="8.9504921"><ele>284.0</ele><time>2026-04-18T14:12:26.975Z</time></trkpt><trkpt lat="44.8247338" lon="8.9502741"><ele>284.0</ele><time>2026-04-18T14:12:27.974Z</time></trkpt><trkpt lat="44.8247955" lon="8.95005"><ele>284.0</ele><time>2026-04-18T14:12:28.975Z</time></trkpt><trkpt lat="44.8248591" lon="8.9498341"><ele>284.6666666666667</ele><time>2026-04-18T14:12:29.975Z</time></trkpt><trkpt lat="44.8249255" lon="8.9496178"><ele>285.3333333333333</ele><time>2026-04-18T14:12:30.975Z</time></trkpt><trkpt lat="44.8249942" lon="8.9494076"><ele>286.0</ele><time>2026-04-18T14:12:31.975Z</time></trkpt><trkpt lat="44.8250657" lon="8.9492021"><ele>285.66666666666663</ele><time>2026-04-18T14:12:32.975Z</time></trkpt><trkpt lat="44.8251377" lon="8.949002"><ele>285.3333333333333</ele><time>2026-04-18T14:12:33.975Z</time></trkpt><trkpt lat="44.8252135" lon="8.9488085"><ele>285.0</ele><time>2026-04-18T14:12:34.975Z</time></trkpt><trkpt lat="44.8252949" lon="8.9486314"><ele>285.0</ele><time>2026-04-18T14:12:35.975Z</time></trkpt><trkpt lat="44.8253753" lon="8.9484676"><ele>285.0</ele><time>2026-04-18T14:12:36.974Z</time></trkpt><trkpt lat="44.8254541" lon="8.9483196"><ele>285.0</ele><time>2026-04-18T14:12:37.974Z</time></trkpt><trkpt lat="44.8255322" lon="8.9481748"><ele>285.0</ele><time>2026-04-18T14:12:38.974Z</time></trkpt><trkpt lat="44.8256198" lon="8.9480413"><ele>283.5</ele><time>2026-04-18T14:12:39.974Z</time></trkpt><trkpt lat="44.8257194" lon="8.9479231"><ele>282.0</ele><time>2026-04-18T14:12:40.975Z</time></trkpt><trkpt lat="44.8258371" lon="8.9478245"><ele>280.5</ele><time>2026-04-18T14:12:41.975Z</time></trkpt><trkpt lat="44.8259643" lon="8.9477406"><ele>279.0</ele><time>2026-04-18T14:12:42.974Z</time></trkpt><trkpt lat="44.8261021" lon="8.9476694"><ele>279.0</ele><time>2026-04-18T14:12:43.974Z</time></trkpt><trkpt lat="44.8262439" lon="8.947591"><ele>279.0</ele><time>2026-04-18T14:12:44.975Z</time></trkpt><trkpt lat="44.82639" lon="8.9475118"><ele>279.0</ele><time>2026-04-18T14:12:45.974Z</time></trkpt><trkpt lat="44.8265409" lon="8.947431"><ele>279.3333333333333</ele><time>2026-04-18T14:12:46.975Z</time></trkpt><trkpt lat="44.8266898" lon="8.9473607"><ele>279.66666666666663</ele><time>2026-04-18T14:12:47.975Z</time></trkpt><trkpt lat="44.826838" lon="8.9472854"><ele>280.0</ele><time>2026-04-18T14:12:48.975Z</time></trkpt><trkpt lat="44.8269808" lon="8.9472026"><ele>280.0</ele><time>2026-04-18T14:12:49.975Z</time></trkpt><trkpt lat="44.8271152" lon="8.9471065"><ele>280.0</ele><time>2026-04-18T14:12:50.975Z</time></trkpt><trkpt lat="44.8272378" lon="8.9469896"><ele>280.0</ele><time>2026-04-18T14:12:51.974Z</time></trkpt><trkpt lat="44.8273429" lon="8.9468489"><ele>280.0</ele><time>2026-04-18T14:12:52.975Z</time></trkpt><trkpt lat="44.8274312" lon="8.9466906"><ele>282.0</ele><time>2026-04-18T14:12:53.975Z</time></trkpt><trkpt lat="44.8275085" lon="8.9465137"><ele>284.0</ele><time>2026-04-18T14:12:54.975Z</time></trkpt><trkpt lat="44.827582" lon="8.946324"><ele>286.0</ele><time>2026-04-18T14:12:55.974Z</time></trkpt><trkpt lat="44.8276625" lon="8.9461359"><ele>283.3333333333333</ele><time>2026-04-18T14:12:56.974Z</time></trkpt><trkpt lat="44.827746" lon="8.9459415"><ele>280.6666666666667</ele><time>2026-04-18T14:12:57.974Z</time></trkpt><trkpt lat="44.8278317" lon="8.9457435"><ele>278.0</ele><time>2026-04-18T14:12:58.975Z</time></trkpt><trkpt lat="44.827912" lon="8.9455519"><ele>278.0</ele><time>2026-04-18T14:12:59.975Z</time></trkpt><trkpt lat="44.828002" lon="8.9453753"><ele>278.0</ele><time>2026-04-18T14:13:00.974Z</time></trkpt><trkpt lat="44.8280979" lon="8.9452213"><ele>278.0</ele><time>2026-04-18T14:13:01.975Z</time></trkpt><trkpt lat="44.8282079" lon="8.9450909"><ele>278.0</ele><time>2026-04-18T14:13:02.974Z</time></trkpt><trkpt lat="44.8283248" lon="8.9449815"><ele>279.25</ele><time>2026-04-18T14:13:03.975Z</time></trkpt><trkpt lat="44.8284401" lon="8.9448962"><ele>280.5</ele><time>2026-04-18T14:13:04.975Z</time></trkpt><trkpt lat="44.8285401" lon="8.9448058"><ele>281.75</ele><time>2026-04-18T14:13:05.975Z</time></trkpt><trkpt lat="44.8286233" lon="8.9446954"><ele>283.0</ele><time>2026-04-18T14:13:06.975Z</time></trkpt><trkpt lat="44.8286849" lon="8.9445605"><ele>282.0</ele><time>2026-04-18T14:13:07.971Z</time></trkpt><trkpt lat="44.8287315" lon="8.9444019"><ele>281.0</ele><time>2026-04-18T14:13:08.974Z</time></trkpt><trkpt lat="44.8287761" lon="8.944217"><ele>280.0</ele><time>2026-04-18T14:13:09.975Z</time></trkpt><trkpt lat="44.8288298" lon="8.9440257"><ele>279.0</ele><time>2026-04-18T14:13:10.974Z</time></trkpt><trkpt lat="44.8288978" lon="8.943836"><ele>279.0</ele><time>2026-04-18T14:13:11.975Z</time></trkpt><trkpt lat="44.828984" lon="8.9436513"><ele>279.0</ele><time>2026-04-18T14:13:12.975Z</time></trkpt><trkpt lat="44.8290821" lon="8.9434936"><ele>279.0</ele><time>2026-04-18T14:13:13.975Z</time></trkpt><trkpt lat="44.8291892" lon="8.943348"><ele>279.75</ele><time>2026-04-18T14:13:14.975Z</time></trkpt><trkpt lat="44.8293012" lon="8.9432253"><ele>280.5</ele><time>2026-04-18T14:13:15.974Z</time></trkpt><trkpt lat="44.8294174" lon="8.9431132"><ele>281.25</ele><time>2026-04-18T14:13:16.975Z</time></trkpt><trkpt lat="44.8295349" lon="8.9430223"><ele>282.0</ele><time>2026-04-18T14:13:17.975Z</time></trkpt><trkpt lat="44.8296544" lon="8.9429441"><ele>279.75</ele><time>2026-04-18T14:13:18.97Z</time></trkpt><trkpt lat="44.8297674" lon="8.9428707"><ele>277.5</ele><time>2026-04-18T14:13:19.974Z</time></trkpt><trkpt lat="44.8298767" lon="8.9427915"><ele>275.25</ele><time>2026-04-18T14:13:20.974Z</time></trkpt><trkpt lat="44.8299817" lon="8.9427159"><ele>273.0</ele><time>2026-04-18T14:13:21.975Z</time></trkpt><trkpt lat="44.8300826" lon="8.9426563"><ele>272.2</ele><time>2026-04-18T14:13:22.974Z</time></trkpt><trkpt lat="44.830184" lon="8.942655"><ele>271.4</ele><time>2026-04-18T14:13:23.975Z</time></trkpt><trkpt lat="44.8302791" lon="8.9426717"><ele>270.59999999999997</ele><time>2026-04-18T14:13:24.968Z</time></trkpt><trkpt lat="44.8303708" lon="8.9427145"><ele>269.8</ele><time>2026-04-18T14:13:25.975Z</time></trkpt><trkpt lat="44.8304546" lon="8.9427745"><ele>269.0</ele><time>2026-04-18T14:13:26.975Z</time></trkpt><trkpt lat="44.8305308" lon="8.9428613"><ele>269.0</ele><time>2026-04-18T14:13:27.974Z</time></trkpt><trkpt lat="44.8306017" lon="8.9429674"><ele>269.0</ele><time>2026-04-18T14:13:28.975Z</time></trkpt><trkpt lat="44.8306821" lon="8.9430596"><ele>269.0</ele><time>2026-04-18T14:13:29.975Z</time></trkpt><trkpt lat="44.8307707" lon="8.9431271"><ele>269.0</ele><time>2026-04-18T14:13:30.974Z</time></trkpt><trkpt lat="44.8308714" lon="8.9431728"><ele>269.0</ele><time>2026-04-18T14:13:31.975Z</time></trkpt><trkpt lat="44.8309773" lon="8.943191"><ele>267.0</ele><time>2026-04-18T14:13:32.975Z</time></trkpt><trkpt lat="44.8310775" lon="8.9431785"><ele>265.0</ele><time>2026-04-18T14:13:33.974Z</time></trkpt><trkpt lat="44.8311617" lon="8.9431296"><ele>263.0</ele><time>2026-04-18T14:13:34.975Z</time></trkpt><trkpt lat="44.8312268" lon="8.9430426"><ele>261.0</ele><time>2026-04-18T14:13:35.974Z</time></trkpt><trkpt lat="44.8312795" lon="8.9429133"><ele>259.0</ele><time>2026-04-18T14:13:36.974Z</time></trkpt><trkpt lat="44.8313395" lon="8.9427599"><ele>259.0</ele><time>2026-04-18T14:13:37.974Z</time></trkpt><trkpt lat="44.831425" lon="8.94262"><ele>259.0</ele><time>2026-04-18T14:13:38.971Z</time></trkpt><trkpt lat="44.8315239" lon="8.9425052"><ele>259.0</ele><time>2026-04-18T14:13:39.97Z</time></trkpt><trkpt lat="44.8316376" lon="8.9424178"><ele>259.0</ele><time>2026-04-18T14:13:40.974Z</time></trkpt><trkpt lat="44.8317556" lon="8.9423697"><ele>259.0</ele><time>2026-04-18T14:13:41.974Z</time></trkpt><trkpt lat="44.8318817" lon="8.9423486"><ele>259.0</ele><time>2026-04-18T14:13:42.975Z</time></trkpt><trkpt lat="44.8320141" lon="8.9423364"><ele>259.0</ele><time>2026-04-18T14:13:43.974Z</time></trkpt><trkpt lat="44.83215" lon="8.9423243"><ele>259.0</ele><time>2026-04-18T14:13:44.974Z</time></trkpt><trkpt lat="44.8322894" lon="8.9423118"><ele>259.0</ele><time>2026-04-18T14:13:45.975Z</time></trkpt><trkpt lat="44.8324344" lon="8.9422868"><ele>259.0</ele><time>2026-04-18T14:13:46.975Z</time></trkpt><trkpt lat="44.8325806" lon="8.9422502"><ele>259.0</ele><time>2026-04-18T14:13:47.972Z</time></trkpt><trkpt lat="44.83273" lon="8.9422072"><ele>259.0</ele><time>2026-04-18T14:13:48.972Z</time></trkpt><trkpt lat="44.8328813" lon="8.9421636"><ele>257.0</ele><time>2026-04-18T14:13:49.974Z</time></trkpt><trkpt lat="44.8330303" lon="8.942117"><ele>255.0</ele><time>2026-04-18T14:13:50.974Z</time></trkpt><trkpt lat="44.8331786" lon="8.9420573"><ele>253.0</ele><time>2026-04-18T14:13:51.975Z</time></trkpt><trkpt lat="44.8333252" lon="8.9419789"><ele>253.0</ele><time>2026-04-18T14:13:52.974Z</time></trkpt><trkpt lat="44.8334702" lon="8.9418875"><ele>253.0</ele><time>2026-04-18T14:13:53.974Z</time></trkpt><trkpt lat="44.8336099" lon="8.9417916"><ele>253.0</ele><time>2026-04-18T14:13:54.975Z</time></trkpt><trkpt lat="44.8337495" lon="8.941689"><ele>250.66666666666666</ele><time>2026-04-18T14:13:55.975Z</time></trkpt><trkpt lat="44.8338866" lon="8.9415859"><ele>248.33333333333331</ele><time>2026-04-18T14:13:56.975Z</time></trkpt><trkpt lat="44.834033" lon="8.94149"><ele>246.0</ele><time>2026-04-18T14:13:57.974Z</time></trkpt><trkpt lat="44.8341815" lon="8.9413862"><ele>246.0</ele><time>2026-04-18T14:13:58.972Z</time></trkpt><trkpt lat="44.8343353" lon="8.9412823"><ele>246.0</ele><time>2026-04-18T14:13:59.973Z</time></trkpt><trkpt lat="44.8344927" lon="8.9411724"><ele>246.0</ele><time>2026-04-18T14:14:00.974Z</time></trkpt><trkpt lat="44.8346479" lon="8.9410669"><ele>246.0</ele><time>2026-04-18T14:14:01.975Z</time></trkpt><trkpt lat="44.8348044" lon="8.9409603"><ele>246.0</ele><time>2026-04-18T14:14:02.974Z</time></trkpt><trkpt lat="44.8349634" lon="8.9408548"><ele>246.0</ele><time>2026-04-18T14:14:03.975Z</time></trkpt><trkpt lat="44.8351239" lon="8.9407477"><ele>243.66666666666669</ele><time>2026-04-18T14:14:04.975Z</time></trkpt><trkpt lat="44.8352852" lon="8.940648"><ele>241.33333333333334</ele><time>2026-04-18T14:14:05.975Z</time></trkpt><trkpt lat="44.8354429" lon="8.9405646"><ele>239.0</ele><time>2026-04-18T14:14:06.974Z</time></trkpt><trkpt lat="44.8355937" lon="8.9404826"><ele>239.0</ele><time>2026-04-18T14:14:07.974Z</time></trkpt><trkpt lat="44.8357414" lon="8.9403979"><ele>239.0</ele><time>2026-04-18T14:14:08.974Z</time></trkpt><trkpt lat="44.8358782" lon="8.9403023"><ele>239.0</ele><time>2026-04-18T14:14:09.974Z</time></trkpt><trkpt lat="44.8360028" lon="8.9401815"><ele>236.33333333333334</ele><time>2026-04-18T14:14:10.974Z</time></trkpt><trkpt lat="44.8361172" lon="8.9400365"><ele>233.66666666666669</ele><time>2026-04-18T14:14:11.974Z</time></trkpt><trkpt lat="44.8362209" lon="8.9398735"><ele>231.0</ele><time>2026-04-18T14:14:12.975Z</time></trkpt><trkpt lat="44.8363204" lon="8.9396923"><ele>231.0</ele><time>2026-04-18T14:14:13.975Z</time></trkpt><trkpt lat="44.8364211" lon="8.9395037"><ele>231.0</ele><time>2026-04-18T14:14:14.974Z</time></trkpt><trkpt lat="44.8365277" lon="8.9393177"><ele>231.0</ele><time>2026-04-18T14:14:15.974Z</time></trkpt><trkpt lat="44.8366379" lon="8.9391222"><ele>231.66666666666669</ele><time>2026-04-18T14:14:16.975Z</time></trkpt><trkpt lat="44.8367525" lon="8.9389285"><ele>232.33333333333334</ele><time>2026-04-18T14:14:17.975Z</time></trkpt><trkpt lat="44.8368671" lon="8.9387377"><ele>233.0</ele><time>2026-04-18T14:14:18.969Z</time></trkpt><trkpt lat="44.8369844" lon="8.9385463"><ele>232.33333333333334</ele><time>2026-04-18T14:14:19.974Z</time></trkpt><trkpt lat="44.8371058" lon="8.9383587"><ele>231.66666666666669</ele><time>2026-04-18T14:14:20.972Z</time></trkpt><trkpt lat="44.8372248" lon="8.9381703"><ele>231.0</ele><time>2026-04-18T14:14:21.974Z</time></trkpt><trkpt lat="44.8373422" lon="8.9379828"><ele>231.0</ele><time>2026-04-18T14:14:22.974Z</time></trkpt><trkpt lat="44.8374613" lon="8.9377982"><ele>231.0</ele><time>2026-04-18T14:14:23.971Z</time></trkpt><trkpt lat="44.8375808" lon="8.937614"><ele>231.0</ele><time>2026-04-18T14:14:24.975Z</time></trkpt><trkpt lat="44.8376949" lon="8.9374336"><ele>230.66666666666669</ele><time>2026-04-18T14:14:25.974Z</time></trkpt><trkpt lat="44.8378057" lon="8.9372595"><ele>230.33333333333334</ele><time>2026-04-18T14:14:26.974Z</time></trkpt><trkpt lat="44.837914" lon="8.937084"><ele>230.0</ele><time>2026-04-18T14:14:27.975Z</time></trkpt><trkpt lat="44.8380229" lon="8.9369139"><ele>230.0</ele><time>2026-04-18T14:14:28.974Z</time></trkpt><trkpt lat="44.8381327" lon="8.9367432"><ele>230.0</ele><time>2026-04-18T14:14:29.971Z</time></trkpt><trkpt lat="44.8382422" lon="8.9365751"><ele>230.0</ele><time>2026-04-18T14:14:30.97Z</time></trkpt><trkpt lat="44.8383519" lon="8.9364101"><ele>228.33333333333334</ele><time>2026-04-18T14:14:31.974Z</time></trkpt><trkpt lat="44.8384699" lon="8.9362458"><ele>226.66666666666669</ele><time>2026-04-18T14:14:32.973Z</time></trkpt><trkpt lat="44.8385815" lon="8.936087"><ele>225.0</ele><time>2026-04-18T14:14:33.975Z</time></trkpt><trkpt lat="44.8387008" lon="8.9359363"><ele>226.33333333333331</ele><time>2026-04-18T14:14:34.972Z</time></trkpt><trkpt lat="44.8388215" lon="8.9357927"><ele>227.66666666666666</ele><time>2026-04-18T14:14:35.975Z</time></trkpt><trkpt lat="44.8389588" lon="8.935677"><ele>229.0</ele><time>2026-04-18T14:14:36.974Z</time></trkpt><trkpt lat="44.8391038" lon="8.9355728"><ele>229.0</ele><time>2026-04-18T14:14:37.975Z</time></trkpt><trkpt lat="44.8392572" lon="8.9354707"><ele>229.0</ele><time>2026-04-18T14:14:38.974Z</time></trkpt><trkpt lat="44.8394127" lon="8.9353729"><ele>229.0</ele><time>2026-04-18T14:14:39.975Z</time></trkpt><trkpt lat="44.8395705" lon="8.9352739"><ele>229.33333333333331</ele><time>2026-04-18T14:14:40.975Z</time></trkpt><trkpt lat="44.8397345" lon="8.9351689"><ele>229.66666666666669</ele><time>2026-04-18T14:14:41.975Z</time></trkpt><trkpt lat="44.8398957" lon="8.9350567"><ele>230.0</ele><time>2026-04-18T14:14:42.974Z</time></trkpt><trkpt lat="44.8400574" lon="8.9349469"><ele>230.0</ele><time>2026-04-18T14:14:43.975Z</time></trkpt><trkpt lat="44.8402196" lon="8.9348427"><ele>230.0</ele><time>2026-04-18T14:14:44.975Z</time></trkpt><trkpt lat="44.8403808" lon="8.9347424"><ele>230.0</ele><time>2026-04-18T14:14:45.975Z</time></trkpt><trkpt lat="44.8405399" lon="8.9346361"><ele>230.0</ele><time>2026-04-18T14:14:46.974Z</time></trkpt><trkpt lat="44.840694" lon="8.9345166"><ele>230.0</ele><time>2026-04-18T14:14:47.975Z</time></trkpt><trkpt lat="44.8408473" lon="8.9343938"><ele>230.0</ele><time>2026-04-18T14:14:48.974Z</time></trkpt><trkpt lat="44.8409917" lon="8.9342666"><ele>231.25</ele><time>2026-04-18T14:14:49.975Z</time></trkpt><trkpt lat="44.8411276" lon="8.9341416"><ele>232.5</ele><time>2026-04-18T14:14:50.974Z</time></trkpt><trkpt lat="44.8412516" lon="8.9340241"><ele>233.75</ele><time>2026-04-18T14:14:51.974Z</time></trkpt><trkpt lat="44.8413652" lon="8.9339189"><ele>235.0</ele><time>2026-04-18T14:14:52.974Z</time></trkpt><trkpt lat="44.8414737" lon="8.9338201"><ele>235.0</ele><time>2026-04-18T14:14:53.975Z</time></trkpt><trkpt lat="44.8415732" lon="8.9337237"><ele>235.0</ele><time>2026-04-18T14:14:54.975Z</time></trkpt><trkpt lat="44.8416693" lon="8.9336265"><ele>235.0</ele><time>2026-04-18T14:14:55.975Z</time></trkpt><trkpt lat="44.8417644" lon="8.9335292"><ele>235.0</ele><time>2026-04-18T14:14:56.975Z</time></trkpt><trkpt lat="44.84186" lon="8.9334372"><ele>235.25</ele><time>2026-04-18T14:14:57.974Z</time></trkpt><trkpt lat="44.8419608" lon="8.9333461"><ele>235.5</ele><time>2026-04-18T14:14:58.974Z</time></trkpt><trkpt lat="44.8420642" lon="8.9332592"><ele>235.75</ele><time>2026-04-18T14:14:59.975Z</time></trkpt><trkpt lat="44.8421688" lon="8.9331809"><ele>236.0</ele><time>2026-04-18T14:15:00.975Z</time></trkpt><trkpt lat="44.8422733" lon="8.9331112"><ele>236.0</ele><time>2026-04-18T14:15:01.974Z</time></trkpt><trkpt lat="44.8423795" lon="8.9330481"><ele>236.0</ele><time>2026-04-18T14:15:02.975Z</time></trkpt><trkpt lat="44.8424836" lon="8.9329831"><ele>236.0</ele><time>2026-04-18T14:15:03.974Z</time></trkpt><trkpt lat="44.8425885" lon="8.932916"><ele>236.0</ele><time>2026-04-18T14:15:04.975Z</time></trkpt><trkpt lat="44.8426906" lon="8.9328567"><ele>234.5</ele><time>2026-04-18T14:15:05.974Z</time></trkpt><trkpt lat="44.8427956" lon="8.9327982"><ele>233.0</ele><time>2026-04-18T14:15:06.975Z</time></trkpt><trkpt lat="44.8429088" lon="8.9327402"><ele>231.5</ele><time>2026-04-18T14:15:07.975Z</time></trkpt><trkpt lat="44.843035" lon="8.9326757"><ele>230.0</ele><time>2026-04-18T14:15:08.975Z</time></trkpt><trkpt lat="44.8431675" lon="8.9326085"><ele>231.5</ele><time>2026-04-18T14:15:09.974Z</time></trkpt><trkpt lat="44.8433015" lon="8.9325316"><ele>233.0</ele><time>2026-04-18T14:15:10.975Z</time></trkpt><trkpt lat="44.843432" lon="8.9324603"><ele>234.5</ele><time>2026-04-18T14:15:11.974Z</time></trkpt><trkpt lat="44.8435533" lon="8.9324028"><ele>236.0</ele><time>2026-04-18T14:15:12.975Z</time></trkpt><trkpt lat="44.8436663" lon="8.9323596"><ele>236.0</ele><time>2026-04-18T14:15:13.975Z</time></trkpt><trkpt lat="44.8437741" lon="8.9323109"><ele>236.00000000000003</ele><time>2026-04-18T14:15:14.975Z</time></trkpt><trkpt lat="44.8438718" lon="8.9322671"><ele>236.00000000000003</ele><time>2026-04-18T14:15:15.974Z</time></trkpt><trkpt lat="44.8439712" lon="8.9322236"><ele>236.0</ele><time>2026-04-18T14:15:16.975Z</time></trkpt><trkpt lat="44.8440658" lon="8.9321796"><ele>236.0</ele><time>2026-04-18T14:15:17.974Z</time></trkpt><trkpt lat="44.8441596" lon="8.9321296"><ele>236.0</ele><time>2026-04-18T14:15:18.975Z</time></trkpt><trkpt lat="44.8442587" lon="8.9320727"><ele>236.0</ele><time>2026-04-18T14:15:19.97Z</time></trkpt><trkpt lat="44.8443604" lon="8.9320103"><ele>236.0</ele><time>2026-04-18T14:15:20.975Z</time></trkpt><trkpt lat="44.8444737" lon="8.9319463"><ele>236.0</ele><time>2026-04-18T14:15:21.974Z</time></trkpt><trkpt lat="44.8445956" lon="8.9318729"><ele>236.0</ele><time>2026-04-18T14:15:22.975Z</time></trkpt><trkpt lat="44.8447247" lon="8.9317992"><ele>236.0</ele><time>2026-04-18T14:15:23.975Z</time></trkpt><trkpt lat="44.8448573" lon="8.9317204"><ele>236.0</ele><time>2026-04-18T14:15:24.974Z</time></trkpt><trkpt lat="44.8449863" lon="8.931642"><ele>236.0</ele><time>2026-04-18T14:15:25.975Z</time></trkpt><trkpt lat="44.8451162" lon="8.9315611"><ele>233.0</ele><time>2026-04-18T14:15:26.975Z</time></trkpt><trkpt lat="44.8452521" lon="8.9314796"><ele>230.0</ele><time>2026-04-18T14:15:27.975Z</time></trkpt><trkpt lat="44.8453912" lon="8.9313829"><ele>227.0</ele><time>2026-04-18T14:15:28.975Z</time></trkpt><trkpt lat="44.8455331" lon="8.9312754"><ele>227.0</ele><time>2026-04-18T14:15:29.975Z</time></trkpt><trkpt lat="44.8456768" lon="8.9311582"><ele>227.0</ele><time>2026-04-18T14:15:30.974Z</time></trkpt><trkpt lat="44.8458175" lon="8.931038"><ele>227.0</ele><time>2026-04-18T14:15:31.974Z</time></trkpt><trkpt lat="44.8459611" lon="8.9309147"><ele>228.33333333333334</ele><time>2026-04-18T14:15:32.974Z</time></trkpt><trkpt lat="44.8461017" lon="8.9307906"><ele>229.66666666666669</ele><time>2026-04-18T14:15:33.975Z</time></trkpt><trkpt lat="44.8462428" lon="8.9306713"><ele>231.0</ele><time>2026-04-18T14:15:34.975Z</time></trkpt><trkpt lat="44.8463862" lon="8.9305655"><ele>231.0</ele><time>2026-04-18T14:15:35.975Z</time></trkpt><trkpt lat="44.8465349" lon="8.9304681"><ele>231.0</ele><time>2026-04-18T14:15:36.975Z</time></trkpt><trkpt lat="44.8466853" lon="8.9303792"><ele>231.0</ele><time>2026-04-18T14:15:37.974Z</time></trkpt><trkpt lat="44.8468349" lon="8.930289"><ele>232.66666666666669</ele><time>2026-04-18T14:15:38.975Z</time></trkpt><trkpt lat="44.8469834" lon="8.9302046"><ele>234.33333333333334</ele><time>2026-04-18T14:15:39.975Z</time></trkpt><trkpt lat="44.8471288" lon="8.9301239"><ele>236.0</ele><time>2026-04-18T14:15:40.974Z</time></trkpt><trkpt lat="44.8472724" lon="8.9300442"><ele>236.0</ele><time>2026-04-18T14:15:41.971Z</time></trkpt><trkpt lat="44.8474142" lon="8.9299608"><ele>236.0</ele><time>2026-04-18T14:15:42.975Z</time></trkpt><trkpt lat="44.8475538" lon="8.9298777"><ele>236.0</ele><time>2026-04-18T14:15:43.975Z</time></trkpt><trkpt lat="44.8476933" lon="8.9298049"><ele>236.0</ele><time>2026-04-18T14:15:44.975Z</time></trkpt><trkpt lat="44.8478284" lon="8.9297334"><ele>236.0</ele><time>2026-04-18T14:15:45.974Z</time></trkpt><trkpt lat="44.8479578" lon="8.9296679"><ele>236.0</ele><time>2026-04-18T14:15:46.974Z</time></trkpt><trkpt lat="44.8480874" lon="8.9296054"><ele>236.0</ele><time>2026-04-18T14:15:47.974Z</time></trkpt><trkpt lat="44.8482174" lon="8.9295487"><ele>236.0</ele><time>2026-04-18T14:15:48.975Z</time></trkpt><trkpt lat="44.8483488" lon="8.9294937"><ele>236.0</ele><time>2026-04-18T14:15:49.975Z</time></trkpt><trkpt lat="44.8484854" lon="8.9294319"><ele>236.0</ele><time>2026-04-18T14:15:50.975Z</time></trkpt><trkpt lat="44.8486309" lon="8.9293715"><ele>236.0</ele><time>2026-04-18T14:15:51.974Z</time></trkpt><trkpt lat="44.8487776" lon="8.9293069"><ele>237.33333333333334</ele><time>2026-04-18T14:15:52.974Z</time></trkpt><trkpt lat="44.8489119" lon="8.9292195"><ele>238.66666666666669</ele><time>2026-04-18T14:15:53.974Z</time></trkpt><trkpt lat="44.8490378" lon="8.9291026"><ele>240.0</ele><time>2026-04-18T14:15:54.974Z</time></trkpt><trkpt lat="44.849151" lon="8.9289611"><ele>240.0</ele><time>2026-04-18T14:15:55.975Z</time></trkpt><trkpt lat="44.8492581" lon="8.9288025"><ele>240.0</ele><time>2026-04-18T14:15:56.975Z</time></trkpt><trkpt lat="44.8493613" lon="8.9286359"><ele>240.0</ele><time>2026-04-18T14:15:57.974Z</time></trkpt><trkpt lat="44.8494614" lon="8.928465"><ele>241.66666666666669</ele><time>2026-04-18T14:15:58.975Z</time></trkpt><trkpt lat="44.8495567" lon="8.928295"><ele>243.33333333333334</ele><time>2026-04-18T14:15:59.974Z</time></trkpt><trkpt lat="44.8496491" lon="8.9281282"><ele>245.0</ele><time>2026-04-18T14:16:00.974Z</time></trkpt><trkpt lat="44.8497394" lon="8.9279643"><ele>245.0</ele><time>2026-04-18T14:16:01.975Z</time></trkpt><trkpt lat="44.8498253" lon="8.9278048"><ele>245.0</ele><time>2026-04-18T14:16:02.974Z</time></trkpt><trkpt lat="44.849912" lon="8.9276408"><ele>245.0</ele><time>2026-04-18T14:16:03.975Z</time></trkpt><trkpt lat="44.8499969" lon="8.9274769"><ele>245.0</ele><time>2026-04-18T14:16:04.975Z</time></trkpt><trkpt lat="44.8500843" lon="8.927302"><ele>245.0</ele><time>2026-04-18T14:16:05.974Z</time></trkpt><trkpt lat="44.8501757" lon="8.9271165"><ele>245.0</ele><time>2026-04-18T14:16:06.975Z</time></trkpt><trkpt lat="44.8502723" lon="8.9269254"><ele>245.0</ele><time>2026-04-18T14:16:07.974Z</time></trkpt><trkpt lat="44.8503714" lon="8.9267281"><ele>247.0</ele><time>2026-04-18T14:16:08.975Z</time></trkpt><trkpt lat="44.8504745" lon="8.926529"><ele>249.0</ele><time>2026-04-18T14:16:09.975Z</time></trkpt><trkpt lat="44.8505791" lon="8.9263214"><ele>251.0</ele><time>2026-04-18T14:16:10.975Z</time></trkpt><trkpt lat="44.8506806" lon="8.9261113"><ele>251.0</ele><time>2026-04-18T14:16:11.975Z</time></trkpt><trkpt lat="44.8507849" lon="8.9258983"><ele>251.0</ele><time>2026-04-18T14:16:12.974Z</time></trkpt><trkpt lat="44.8508905" lon="8.9256873"><ele>251.0</ele><time>2026-04-18T14:16:13.974Z</time></trkpt><trkpt lat="44.8509963" lon="8.9254764"><ele>251.33333333333334</ele><time>2026-04-18T14:16:14.975Z</time></trkpt><trkpt lat="44.8511037" lon="8.9252644"><ele>251.66666666666669</ele><time>2026-04-18T14:16:15.974Z</time></trkpt><trkpt lat="44.8512098" lon="8.9250486"><ele>252.0</ele><time>2026-04-18T14:16:16.975Z</time></trkpt><trkpt lat="44.8513093" lon="8.9248479"><ele>254.33333333333331</ele><time>2026-04-18T14:16:17.975Z</time></trkpt><trkpt lat="44.8514061" lon="8.924659"><ele>256.66666666666663</ele><time>2026-04-18T14:16:18.974Z</time></trkpt><trkpt lat="44.8515042" lon="8.9244909"><ele>259.0</ele><time>2026-04-18T14:16:19.975Z</time></trkpt><trkpt lat="44.8516182" lon="8.924329"><ele>258.66666666666663</ele><time>2026-04-18T14:16:20.974Z</time></trkpt><trkpt lat="44.8517433" lon="8.9241723"><ele>258.3333333333333</ele><time>2026-04-18T14:16:21.974Z</time></trkpt><trkpt lat="44.8518773" lon="8.9240128"><ele>258.0</ele><time>2026-04-18T14:16:22.975Z</time></trkpt><trkpt lat="44.8520078" lon="8.9238431"><ele>257.3333333333333</ele><time>2026-04-18T14:16:23.975Z</time></trkpt><trkpt lat="44.8521425" lon="8.9236695"><ele>256.66666666666663</ele><time>2026-04-18T14:16:24.975Z</time></trkpt><trkpt lat="44.8522687" lon="8.923495"><ele>256.0</ele><time>2026-04-18T14:16:25.974Z</time></trkpt><trkpt lat="44.8523915" lon="8.9233234"><ele>256.0</ele><time>2026-04-18T14:16:26.975Z</time></trkpt><trkpt lat="44.8525176" lon="8.923149"><ele>256.0</ele><time>2026-04-18T14:16:27.975Z</time></trkpt><trkpt lat="44.8526402" lon="8.9229836"><ele>256.0</ele><time>2026-04-18T14:16:28.975Z</time></trkpt><trkpt lat="44.8527618" lon="8.9228232"><ele>256.66666666666663</ele><time>2026-04-18T14:16:29.975Z</time></trkpt><trkpt lat="44.8528882" lon="8.9226696"><ele>257.3333333333333</ele><time>2026-04-18T14:16:30.974Z</time></trkpt><trkpt lat="44.853027" lon="8.9225269"><ele>258.0</ele><time>2026-04-18T14:16:31.974Z</time></trkpt><trkpt lat="44.8531662" lon="8.9223946"><ele>258.0</ele><time>2026-04-18T14:16:32.975Z</time></trkpt><trkpt lat="44.8533105" lon="8.9222733"><ele>258.0</ele><time>2026-04-18T14:16:33.974Z</time></trkpt><trkpt lat="44.853457" lon="8.9221512"><ele>258.0</ele><time>2026-04-18T14:16:34.974Z</time></trkpt><trkpt lat="44.8536082" lon="8.9220295"><ele>256.6666666666667</ele><time>2026-04-18T14:16:35.974Z</time></trkpt><trkpt lat="44.8537594" lon="8.9219062"><ele>255.33333333333334</ele><time>2026-04-18T14:16:36.975Z</time></trkpt><trkpt lat="44.8539097" lon="8.9217816"><ele>254.0</ele><time>2026-04-18T14:16:37.975Z</time></trkpt><trkpt lat="44.8540545" lon="8.9216576"><ele>255.0</ele><time>2026-04-18T14:16:38.975Z</time></trkpt><trkpt lat="44.8541935" lon="8.9215251"><ele>256.0</ele><time>2026-04-18T14:16:39.975Z</time></trkpt><trkpt lat="44.8543258" lon="8.9213844"><ele>257.0</ele><time>2026-04-18T14:16:40.975Z</time></trkpt><trkpt lat="44.8544516" lon="8.9212411"><ele>257.0</ele><time>2026-04-18T14:16:41.974Z</time></trkpt><trkpt lat="44.8545764" lon="8.921097"><ele>257.0</ele><time>2026-04-18T14:16:42.974Z</time></trkpt><trkpt lat="44.8546961" lon="8.9209519"><ele>257.0</ele><time>2026-04-18T14:16:43.975Z</time></trkpt><trkpt lat="44.8548146" lon="8.9208107"><ele>259.25</ele><time>2026-04-18T14:16:44.974Z</time></trkpt><trkpt lat="44.8549297" lon="8.9206758"><ele>261.5</ele><time>2026-04-18T14:16:45.975Z</time></trkpt><trkpt lat="44.8550391" lon="8.9205408"><ele>263.75</ele><time>2026-04-18T14:16:46.974Z</time></trkpt><trkpt lat="44.8551476" lon="8.9204053"><ele>266.0</ele><time>2026-04-18T14:16:47.973Z</time></trkpt><trkpt lat="44.8552558" lon="8.9202737"><ele>266.0</ele><time>2026-04-18T14:16:48.974Z</time></trkpt><trkpt lat="44.855364" lon="8.920146"><ele>266.0</ele><time>2026-04-18T14:16:49.975Z</time></trkpt><trkpt lat="44.8554724" lon="8.9200164"><ele>266.0</ele><time>2026-04-18T14:16:50.975Z</time></trkpt><trkpt lat="44.8555793" lon="8.9198898"><ele>266.0</ele><time>2026-04-18T14:16:51.975Z</time></trkpt><trkpt lat="44.8556932" lon="8.9197612"><ele>266.5</ele><time>2026-04-18T14:16:52.974Z</time></trkpt><trkpt lat="44.8558066" lon="8.9196329"><ele>267.0</ele><time>2026-04-18T14:16:53.975Z</time></trkpt><trkpt lat="44.85592" lon="8.9195077"><ele>267.5</ele><time>2026-04-18T14:16:54.974Z</time></trkpt><trkpt lat="44.8560312" lon="8.9193797"><ele>268.0</ele><time>2026-04-18T14:16:55.975Z</time></trkpt><trkpt lat="44.8561381" lon="8.9192518"><ele>270.5</ele><time>2026-04-18T14:16:56.975Z</time></trkpt><trkpt lat="44.85624" lon="8.9191167"><ele>273.0</ele><time>2026-04-18T14:16:57.974Z</time></trkpt><trkpt lat="44.8563391" lon="8.9189689"><ele>275.5</ele><time>2026-04-18T14:16:58.974Z</time></trkpt><trkpt lat="44.8564355" lon="8.9188118"><ele>278.0</ele><time>2026-04-18T14:16:59.974Z</time></trkpt><trkpt lat="44.8565367" lon="8.9186519"><ele>278.0</ele><time>2026-04-18T14:17:00.975Z</time></trkpt><trkpt lat="44.8566347" lon="8.9184925"><ele>278.0</ele><time>2026-04-18T14:17:01.974Z</time></trkpt><trkpt lat="44.8567377" lon="8.9183327"><ele>278.0</ele><time>2026-04-18T14:17:02.974Z</time></trkpt><trkpt lat="44.8568358" lon="8.9181688"><ele>281.0</ele><time>2026-04-18T14:17:03.975Z</time></trkpt><trkpt lat="44.856933" lon="8.9179951"><ele>284.0</ele><time>2026-04-18T14:17:04.974Z</time></trkpt><trkpt lat="44.8570203" lon="8.9178169"><ele>287.0</ele><time>2026-04-18T14:17:05.975Z</time></trkpt><trkpt lat="44.8570989" lon="8.9176389"><ele>287.75</ele><time>2026-04-18T14:17:06.975Z</time></trkpt><trkpt lat="44.8571684" lon="8.9174519"><ele>288.5</ele><time>2026-04-18T14:17:07.975Z</time></trkpt><trkpt lat="44.8572308" lon="8.9172694"><ele>289.25</ele><time>2026-04-18T14:17:08.974Z</time></trkpt><trkpt lat="44.8572925" lon="8.9170882"><ele>290.0</ele><time>2026-04-18T14:17:09.975Z</time></trkpt><trkpt lat="44.8573575" lon="8.9169024"><ele>291.6666666666667</ele><time>2026-04-18T14:17:10.975Z</time></trkpt><trkpt lat="44.8574229" lon="8.9167113"><ele>293.3333333333333</ele><time>2026-04-18T14:17:11.975Z</time></trkpt><trkpt lat="44.8574895" lon="8.9165181"><ele>295.0</ele><time>2026-04-18T14:17:12.975Z</time></trkpt><trkpt lat="44.8575556" lon="8.9163243"><ele>295.0</ele><time>2026-04-18T14:17:13.975Z</time></trkpt><trkpt lat="44.8576185" lon="8.9161398"><ele>295.0</ele><time>2026-04-18T14:17:14.974Z</time></trkpt><trkpt lat="44.8576746" lon="8.9159685"><ele>295.0</ele><time>2026-04-18T14:17:15.975Z</time></trkpt><trkpt lat="44.8577332" lon="8.9158016"><ele>295.0</ele><time>2026-04-18T14:17:16.973Z</time></trkpt><trkpt lat="44.8577944" lon="8.9156395"><ele>298.75</ele><time>2026-04-18T14:17:17.975Z</time></trkpt><trkpt lat="44.8578581" lon="8.9154725"><ele>302.5</ele><time>2026-04-18T14:17:18.974Z</time></trkpt><trkpt lat="44.857928" lon="8.9153111"><ele>306.25</ele><time>2026-04-18T14:17:19.975Z</time></trkpt><trkpt lat="44.8580063" lon="8.9151656"><ele>310.0</ele><time>2026-04-18T14:17:20.975Z</time></trkpt><trkpt lat="44.8580879" lon="8.9150275"><ele>310.0</ele><time>2026-04-18T14:17:21.975Z</time></trkpt><trkpt lat="44.858178" lon="8.9148885"><ele>310.0</ele><time>2026-04-18T14:17:22.975Z</time></trkpt><trkpt lat="44.8582768" lon="8.9147593"><ele>310.0</ele><time>2026-04-18T14:17:23.974Z</time></trkpt><trkpt lat="44.8583766" lon="8.9146318"><ele>310.0</ele><time>2026-04-18T14:17:24.974Z</time></trkpt><trkpt lat="44.8584844" lon="8.9145164"><ele>310.25</ele><time>2026-04-18T14:17:25.975Z</time></trkpt><trkpt lat="44.8585927" lon="8.9144106"><ele>310.5</ele><time>2026-04-18T14:17:26.975Z</time></trkpt><trkpt lat="44.8587069" lon="8.9143289"><ele>310.75</ele><time>2026-04-18T14:17:27.975Z</time></trkpt><trkpt lat="44.8588124" lon="8.9142604"><ele>311.0</ele><time>2026-04-18T14:17:28.974Z</time></trkpt><trkpt lat="44.8589139" lon="8.9141995"><ele>310.25</ele><time>2026-04-18T14:17:29.975Z</time></trkpt><trkpt lat="44.8590201" lon="8.9141669"><ele>309.5</ele><time>2026-04-18T14:17:30.974Z</time></trkpt><trkpt lat="44.8591387" lon="8.914138"><ele>308.75</ele><time>2026-04-18T14:17:31.975Z</time></trkpt><trkpt lat="44.8592751" lon="8.9141152"><ele>308.0</ele><time>2026-04-18T14:17:32.974Z</time></trkpt><trkpt lat="44.859422" lon="8.9140904"><ele>308.0</ele><time>2026-04-18T14:17:33.975Z</time></trkpt><trkpt lat="44.8595721" lon="8.9140684"><ele>308.0</ele><time>2026-04-18T14:17:34.975Z</time></trkpt><trkpt lat="44.8597194" lon="8.9140559"><ele>308.0</ele><time>2026-04-18T14:17:35.975Z</time></trkpt><trkpt lat="44.8598596" lon="8.9140631"><ele>308.0</ele><time>2026-04-18T14:17:36.974Z</time></trkpt><trkpt lat="44.8600015" lon="8.9140953"><ele>308.0</ele><time>2026-04-18T14:17:37.975Z</time></trkpt><trkpt lat="44.8601376" lon="8.9141737"><ele>308.0</ele><time>2026-04-18T14:17:38.974Z</time></trkpt><trkpt lat="44.8602624" lon="8.9142883"><ele>308.0</ele><time>2026-04-18T14:17:39.975Z</time></trkpt><trkpt lat="44.860388" lon="8.914434"><ele>308.0</ele><time>2026-04-18T14:17:40.975Z</time></trkpt><trkpt lat="44.8605132" lon="8.9145912"><ele>308.0</ele><time>2026-04-18T14:17:41.974Z</time></trkpt><trkpt lat="44.8606407" lon="8.9147524"><ele>308.0</ele><time>2026-04-18T14:17:42.975Z</time></trkpt><trkpt lat="44.8607651" lon="8.9149117"><ele>308.0</ele><time>2026-04-18T14:17:43.975Z</time></trkpt><trkpt lat="44.8608884" lon="8.9150653"><ele>308.0</ele><time>2026-04-18T14:17:44.975Z</time></trkpt><trkpt lat="44.8610115" lon="8.9151968"><ele>308.0</ele><time>2026-04-18T14:17:45.975Z</time></trkpt><trkpt lat="44.8611365" lon="8.9153098"><ele>309.75</ele><time>2026-04-18T14:17:46.974Z</time></trkpt><trkpt lat="44.8612633" lon="8.9153954"><ele>311.5</ele><time>2026-04-18T14:17:47.975Z</time></trkpt><trkpt lat="44.8613994" lon="8.9154529"><ele>313.25</ele><time>2026-04-18T14:17:48.975Z</time></trkpt><trkpt lat="44.8615398" lon="8.9154853"><ele>315.0</ele><time>2026-04-18T14:17:49.975Z</time></trkpt><trkpt lat="44.8616719" lon="8.9154988"><ele>314.0</ele><time>2026-04-18T14:17:50.974Z</time></trkpt><trkpt lat="44.8617935" lon="8.9154854"><ele>313.0</ele><time>2026-04-18T14:17:51.974Z</time></trkpt><trkpt lat="44.8619086" lon="8.9154392"><ele>312.0</ele><time>2026-04-18T14:17:52.975Z</time></trkpt><trkpt lat="44.8620209" lon="8.9153757"><ele>311.0</ele><time>2026-04-18T14:17:53.975Z</time></trkpt><trkpt lat="44.8621274" lon="8.9152974"><ele>311.0</ele><time>2026-04-18T14:17:54.974Z</time></trkpt><trkpt lat="44.8622241" lon="8.9152072"><ele>311.0</ele><time>2026-04-18T14:17:55.974Z</time></trkpt><trkpt lat="44.8623137" lon="8.9151084"><ele>311.0</ele><time>2026-04-18T14:17:56.975Z</time></trkpt><trkpt lat="44.8624012" lon="8.9149948"><ele>311.0</ele><time>2026-04-18T14:17:57.975Z</time></trkpt><trkpt lat="44.8624844" lon="8.9148642"><ele>311.25</ele><time>2026-04-18T14:17:58.975Z</time></trkpt><trkpt lat="44.8625596" lon="8.9147173"><ele>311.5</ele><time>2026-04-18T14:17:59.974Z</time></trkpt><trkpt lat="44.8626335" lon="8.9145525"><ele>311.75</ele><time>2026-04-18T14:18:00.971Z</time></trkpt><trkpt lat="44.8627092" lon="8.9143812"><ele>312.0</ele><time>2026-04-18T14:18:01.975Z</time></trkpt><trkpt lat="44.8627869" lon="8.9142077"><ele>307.0</ele><time>2026-04-18T14:18:02.975Z</time></trkpt><trkpt lat="44.8628724" lon="8.9140443"><ele>302.0</ele><time>2026-04-18T14:18:03.974Z</time></trkpt><trkpt lat="44.8629629" lon="8.9138902"><ele>297.0</ele><time>2026-04-18T14:18:04.975Z</time></trkpt><trkpt lat="44.8630534" lon="8.9137405"><ele>292.0</ele><time>2026-04-18T14:18:05.974Z</time></trkpt><trkpt lat="44.8631417" lon="8.9135979"><ele>292.0</ele><time>2026-04-18T14:18:06.974Z</time></trkpt><trkpt lat="44.8632311" lon="8.9134593"><ele>292.0</ele><time>2026-04-18T14:18:07.975Z</time></trkpt><trkpt lat="44.863313" lon="8.9133193"><ele>292.0</ele><time>2026-04-18T14:18:08.975Z</time></trkpt><trkpt lat="44.8633789" lon="8.9131727"><ele>292.0</ele><time>2026-04-18T14:18:09.974Z</time></trkpt><trkpt lat="44.8634259" lon="8.9130119"><ele>291.0</ele><time>2026-04-18T14:18:10.974Z</time></trkpt><trkpt lat="44.8634521" lon="8.9128326"><ele>290.0</ele><time>2026-04-18T14:18:11.975Z</time></trkpt><trkpt lat="44.8634652" lon="8.9126397"><ele>289.0</ele><time>2026-04-18T14:18:12.975Z</time></trkpt><trkpt lat="44.8634536" lon="8.9124357"><ele>288.0</ele><time>2026-04-18T14:18:13.974Z</time></trkpt><trkpt lat="44.863422" lon="8.9122334"><ele>291.0</ele><time>2026-04-18T14:18:14.975Z</time></trkpt><trkpt lat="44.8633757" lon="8.9120499"><ele>294.0</ele><time>2026-04-18T14:18:15.975Z</time></trkpt><trkpt lat="44.8633148" lon="8.9118758"><ele>297.0</ele><time>2026-04-18T14:18:16.975Z</time></trkpt><trkpt lat="44.8632599" lon="8.9117046"><ele>300.0</ele><time>2026-04-18T14:18:17.975Z</time></trkpt><trkpt lat="44.86322" lon="8.9115216"><ele>300.0</ele><time>2026-04-18T14:18:18.974Z</time></trkpt><trkpt lat="44.8632306" lon="8.9113375"><ele>300.0</ele><time>2026-04-18T14:18:19.971Z</time></trkpt><trkpt lat="44.8632527" lon="8.9111512"><ele>300.0</ele><time>2026-04-18T14:18:20.975Z</time></trkpt><trkpt lat="44.8633056" lon="8.9109682"><ele>300.0</ele><time>2026-04-18T14:18:21.974Z</time></trkpt><trkpt lat="44.8633856" lon="8.9108073"><ele>296.0</ele><time>2026-04-18T14:18:22.975Z</time></trkpt><trkpt lat="44.8634911" lon="8.9106613"><ele>292.0</ele><time>2026-04-18T14:18:23.975Z</time></trkpt><trkpt lat="44.8636132" lon="8.9105177"><ele>288.0</ele><time>2026-04-18T14:18:24.972Z</time></trkpt><trkpt lat="44.8637412" lon="8.9103754"><ele>288.0</ele><time>2026-04-18T14:18:25.975Z</time></trkpt><trkpt lat="44.8638688" lon="8.9102325"><ele>288.0</ele><time>2026-04-18T14:18:26.974Z</time></trkpt><trkpt lat="44.8639981" lon="8.910092"><ele>288.0</ele><time>2026-04-18T14:18:27.975Z</time></trkpt><trkpt lat="44.8641248" lon="8.9099537"><ele>285.3333333333333</ele><time>2026-04-18T14:18:28.975Z</time></trkpt><trkpt lat="44.864248" lon="8.909816"><ele>282.66666666666663</ele><time>2026-04-18T14:18:29.974Z</time></trkpt><trkpt lat="44.8643707" lon="8.9096807"><ele>280.0</ele><time>2026-04-18T14:18:30.974Z</time></trkpt><trkpt lat="44.8644902" lon="8.9095461"><ele>280.0</ele><time>2026-04-18T14:18:31.974Z</time></trkpt><trkpt lat="44.8646051" lon="8.9094189"><ele>280.0</ele><time>2026-04-18T14:18:32.974Z</time></trkpt><trkpt lat="44.8647177" lon="8.9092943"><ele>280.0</ele><time>2026-04-18T14:18:33.975Z</time></trkpt><trkpt lat="44.8648264" lon="8.9091701"><ele>280.0</ele><time>2026-04-18T14:18:34.975Z</time></trkpt><trkpt lat="44.8649319" lon="8.9090508"><ele>277.25</ele><time>2026-04-18T14:18:35.975Z</time></trkpt><trkpt lat="44.865037" lon="8.9089318"><ele>274.5</ele><time>2026-04-18T14:18:36.975Z</time></trkpt><trkpt lat="44.8651446" lon="8.9088209"><ele>271.75</ele><time>2026-04-18T14:18:37.975Z</time></trkpt><trkpt lat="44.8652589" lon="8.9087213"><ele>269.0</ele><time>2026-04-18T14:18:38.975Z</time></trkpt><trkpt lat="44.8653811" lon="8.9086352"><ele>269.0</ele><time>2026-04-18T14:18:39.974Z</time></trkpt><trkpt lat="44.8655111" lon="8.9085652"><ele>269.0</ele><time>2026-04-18T14:18:40.974Z</time></trkpt><trkpt lat="44.8656439" lon="8.9085091"><ele>269.0</ele><time>2026-04-18T14:18:41.975Z</time></trkpt><trkpt lat="44.8657966" lon="8.9084794"><ele>269.0</ele><time>2026-04-18T14:18:42.975Z</time></trkpt><trkpt lat="44.8659476" lon="8.9084631"><ele>265.6666666666667</ele><time>2026-04-18T14:18:43.974Z</time></trkpt><trkpt lat="44.8661054" lon="8.9084719"><ele>262.3333333333333</ele><time>2026-04-18T14:18:44.975Z</time></trkpt><trkpt lat="44.8662678" lon="8.9085045"><ele>259.0</ele><time>2026-04-18T14:18:45.974Z</time></trkpt><trkpt lat="44.8664348" lon="8.9085508"><ele>259.0</ele><time>2026-04-18T14:18:46.974Z</time></trkpt><trkpt lat="44.8666049" lon="8.9086003"><ele>259.0</ele><time>2026-04-18T14:18:47.975Z</time></trkpt><trkpt lat="44.8667801" lon="8.9086453"><ele>259.0</ele><time>2026-04-18T14:18:48.974Z</time></trkpt><trkpt lat="44.8669582" lon="8.9086912"><ele>256.66666666666663</ele><time>2026-04-18T14:18:49.975Z</time></trkpt><trkpt lat="44.8671373" lon="8.9087307"><ele>254.33333333333331</ele><time>2026-04-18T14:18:50.975Z</time></trkpt><trkpt lat="44.8673175" lon="8.9087614"><ele>252.0</ele><time>2026-04-18T14:18:51.975Z</time></trkpt><trkpt lat="44.8675035" lon="8.9087776"><ele>252.0</ele><time>2026-04-18T14:18:52.974Z</time></trkpt><trkpt lat="44.8676885" lon="8.9087823"><ele>252.0</ele><time>2026-04-18T14:18:53.975Z</time></trkpt><trkpt lat="44.8678748" lon="8.9087693"><ele>252.0</ele><time>2026-04-18T14:18:54.975Z</time></trkpt><trkpt lat="44.8680637" lon="8.9087403"><ele>252.0</ele><time>2026-04-18T14:18:55.975Z</time></trkpt><trkpt lat="44.8682492" lon="8.9086978"><ele>252.0</ele><time>2026-04-18T14:18:56.975Z</time></trkpt><trkpt lat="44.8684344" lon="8.9086431"><ele>252.0</ele><time>2026-04-18T14:18:57.975Z</time></trkpt><trkpt lat="44.8686178" lon="8.9085856"><ele>251.0</ele><time>2026-04-18T14:18:58.974Z</time></trkpt><trkpt lat="44.8687948" lon="8.9085312"><ele>250.0</ele><time>2026-04-18T14:18:59.975Z</time></trkpt><trkpt lat="44.8689685" lon="8.908481"><ele>249.0</ele><time>2026-04-18T14:19:00.975Z</time></trkpt><trkpt lat="44.8691424" lon="8.908429"><ele>247.33333333333331</ele><time>2026-04-18T14:19:01.975Z</time></trkpt><trkpt lat="44.8693117" lon="8.9083831"><ele>245.66666666666666</ele><time>2026-04-18T14:19:02.974Z</time></trkpt><trkpt lat="44.8694771" lon="8.9083357"><ele>244.0</ele><time>2026-04-18T14:19:03.975Z</time></trkpt><trkpt lat="44.8696358" lon="8.9082839"><ele>244.0</ele><time>2026-04-18T14:19:04.975Z</time></trkpt><trkpt lat="44.8697886" lon="8.9082196"><ele>244.0</ele><time>2026-04-18T14:19:05.974Z</time></trkpt><trkpt lat="44.8699316" lon="8.9081387"><ele>244.0</ele><time>2026-04-18T14:19:06.974Z</time></trkpt><trkpt lat="44.8700698" lon="8.9080406"><ele>242.33333333333331</ele><time>2026-04-18T14:19:07.974Z</time></trkpt><trkpt lat="44.8702044" lon="8.9079217"><ele>240.66666666666669</ele><time>2026-04-18T14:19:08.975Z</time></trkpt><trkpt lat="44.8703395" lon="8.907787"><ele>239.0</ele><time>2026-04-18T14:19:09.974Z</time></trkpt><trkpt lat="44.8704706" lon="8.9076452"><ele>240.66666666666669</ele><time>2026-04-18T14:19:10.974Z</time></trkpt><trkpt lat="44.8706005" lon="8.9074962"><ele>242.33333333333331</ele><time>2026-04-18T14:19:11.975Z</time></trkpt><trkpt lat="44.8707359" lon="8.9073466"><ele>244.0</ele><time>2026-04-18T14:19:12.975Z</time></trkpt><trkpt lat="44.8708704" lon="8.9071965"><ele>241.66666666666666</ele><time>2026-04-18T14:19:13.974Z</time></trkpt><trkpt lat="44.8709957" lon="8.9070525"><ele>239.33333333333331</ele><time>2026-04-18T14:19:14.975Z</time></trkpt><trkpt lat="44.8711214" lon="8.9069037"><ele>237.0</ele><time>2026-04-18T14:19:15.975Z</time></trkpt><trkpt lat="44.8712387" lon="8.9067581"><ele>238.75</ele><time>2026-04-18T14:19:16.975Z</time></trkpt><trkpt lat="44.87135" lon="8.9066212"><ele>240.5</ele><time>2026-04-18T14:19:17.975Z</time></trkpt><trkpt lat="44.8714581" lon="8.9064872"><ele>242.25</ele><time>2026-04-18T14:19:18.975Z</time></trkpt><trkpt lat="44.8715721" lon="8.9063483"><ele>244.0</ele><time>2026-04-18T14:19:19.974Z</time></trkpt><trkpt lat="44.8716903" lon="8.9062003"><ele>243.33333333333331</ele><time>2026-04-18T14:19:20.975Z</time></trkpt><trkpt lat="44.8718132" lon="8.9060529"><ele>242.66666666666669</ele><time>2026-04-18T14:19:21.975Z</time></trkpt><trkpt lat="44.8719384" lon="8.9059147"><ele>242.0</ele><time>2026-04-18T14:19:22.975Z</time></trkpt><trkpt lat="44.8720739" lon="8.9057844"><ele>242.0</ele><time>2026-04-18T14:19:23.975Z</time></trkpt><trkpt lat="44.8722187" lon="8.9056729"><ele>242.0</ele><time>2026-04-18T14:19:24.975Z</time></trkpt><trkpt lat="44.8723746" lon="8.9055803"><ele>242.0</ele><time>2026-04-18T14:19:25.974Z</time></trkpt><trkpt lat="44.8725397" lon="8.9055105"><ele>241.0</ele><time>2026-04-18T14:19:26.974Z</time></trkpt><trkpt lat="44.8727073" lon="8.9054607"><ele>240.0</ele><time>2026-04-18T14:19:27.975Z</time></trkpt><trkpt lat="44.8728778" lon="8.9054187"><ele>239.0</ele><time>2026-04-18T14:19:28.974Z</time></trkpt><trkpt lat="44.8730452" lon="8.9053783"><ele>239.0</ele><time>2026-04-18T14:19:29.975Z</time></trkpt><trkpt lat="44.873206" lon="8.9053432"><ele>239.0</ele><time>2026-04-18T14:19:30.974Z</time></trkpt><trkpt lat="44.8733595" lon="8.9053102"><ele>239.0</ele><time>2026-04-18T14:19:31.975Z</time></trkpt><trkpt lat="44.8735065" lon="8.9052662"><ele>240.0</ele><time>2026-04-18T14:19:32.975Z</time></trkpt><trkpt lat="44.8736559" lon="8.9051943"><ele>241.0</ele><time>2026-04-18T14:19:33.975Z</time></trkpt><trkpt lat="44.8737996" lon="8.9050887"><ele>242.0</ele><time>2026-04-18T14:19:34.975Z</time></trkpt><trkpt lat="44.8739336" lon="8.9049394"><ele>242.0</ele><time>2026-04-18T14:19:35.975Z</time></trkpt><trkpt lat="44.8740576" lon="8.9047507"><ele>242.0</ele><time>2026-04-18T14:19:36.974Z</time></trkpt><trkpt lat="44.874181" lon="8.9045422"><ele>242.0</ele><time>2026-04-18T14:19:37.975Z</time></trkpt><trkpt lat="44.8743032" lon="8.9043287"><ele>245.66666666666669</ele><time>2026-04-18T14:19:38.974Z</time></trkpt><trkpt lat="44.8744254" lon="8.9041184"><ele>249.33333333333331</ele><time>2026-04-18T14:19:39.975Z</time></trkpt><trkpt lat="44.8745439" lon="8.9039147"><ele>253.0</ele><time>2026-04-18T14:19:40.975Z</time></trkpt><trkpt lat="44.8746609" lon="8.903717"><ele>253.0</ele><time>2026-04-18T14:19:41.974Z</time></trkpt><trkpt lat="44.8747746" lon="8.9035177"><ele>253.0</ele><time>2026-04-18T14:19:42.975Z</time></trkpt><trkpt lat="44.8748817" lon="8.9033255"><ele>253.0</ele><time>2026-04-18T14:19:43.975Z</time></trkpt><trkpt lat="44.8749898" lon="8.9031521"><ele>253.0</ele><time>2026-04-18T14:19:44.975Z</time></trkpt><trkpt lat="44.8751027" lon="8.9030141"><ele>253.0</ele><time>2026-04-18T14:19:45.974Z</time></trkpt><trkpt lat="44.8752182" lon="8.9029126"><ele>253.0</ele><time>2026-04-18T14:19:46.975Z</time></trkpt><trkpt lat="44.8753361" lon="8.9028325"><ele>253.0</ele><time>2026-04-18T14:19:47.974Z</time></trkpt><trkpt lat="44.8754854" lon="8.9027814"><ele>253.0</ele><time>2026-04-18T14:19:48.975Z</time></trkpt><trkpt lat="44.875635" lon="8.9027245"><ele>253.0</ele><time>2026-04-18T14:19:49.974Z</time></trkpt><trkpt lat="44.8758019" lon="8.9026654"><ele>253.0</ele><time>2026-04-18T14:19:50.975Z</time></trkpt><trkpt lat="44.8759766" lon="8.9025965"><ele>251.0</ele><time>2026-04-18T14:19:51.975Z</time></trkpt><trkpt lat="44.8761573" lon="8.902531"><ele>249.0</ele><time>2026-04-18T14:19:52.975Z</time></trkpt><trkpt lat="44.8763479" lon="8.9024607"><ele>247.0</ele><time>2026-04-18T14:19:53.975Z</time></trkpt><trkpt lat="44.8765416" lon="8.9023925"><ele>247.0</ele><time>2026-04-18T14:19:54.975Z</time></trkpt><trkpt lat="44.8767391" lon="8.9023207"><ele>247.0</ele><time>2026-04-18T14:19:55.975Z</time></trkpt><trkpt lat="44.8769375" lon="8.9022493"><ele>247.0</ele><time>2026-04-18T14:19:56.975Z</time></trkpt><trkpt lat="44.8771411" lon="8.9021801"><ele>245.66666666666666</ele><time>2026-04-18T14:19:57.974Z</time></trkpt><trkpt lat="44.877346" lon="8.9021119"><ele>244.33333333333331</ele><time>2026-04-18T14:19:58.974Z</time></trkpt><trkpt lat="44.8775478" lon="8.9020425"><ele>243.0</ele><time>2026-04-18T14:19:59.975Z</time></trkpt><trkpt lat="44.8777504" lon="8.9019745"><ele>242.66666666666669</ele><time>2026-04-18T14:20:00.975Z</time></trkpt><trkpt lat="44.8779516" lon="8.9019061"><ele>242.33333333333334</ele><time>2026-04-18T14:20:01.975Z</time></trkpt><trkpt lat="44.8781558" lon="8.9018357"><ele>242.0</ele><time>2026-04-18T14:20:02.975Z</time></trkpt><trkpt lat="44.8783573" lon="8.9017616"><ele>243.66666666666669</ele><time>2026-04-18T14:20:03.974Z</time></trkpt><trkpt lat="44.8785582" lon="8.9016858"><ele>245.33333333333331</ele><time>2026-04-18T14:20:04.974Z</time></trkpt><trkpt lat="44.8787592" lon="8.9016095"><ele>247.0</ele><time>2026-04-18T14:20:05.975Z</time></trkpt><trkpt lat="44.8789635" lon="8.9015346"><ele>247.0</ele><time>2026-04-18T14:20:06.975Z</time></trkpt><trkpt lat="44.8791749" lon="8.9014628"><ele>247.0</ele><time>2026-04-18T14:20:07.975Z</time></trkpt><trkpt lat="44.8793818" lon="8.901386"><ele>247.0</ele><time>2026-04-18T14:20:08.975Z</time></trkpt><trkpt lat="44.8795909" lon="8.9013054"><ele>246.33333333333331</ele><time>2026-04-18T14:20:09.975Z</time></trkpt><trkpt lat="44.8797966" lon="8.901216"><ele>245.66666666666669</ele><time>2026-04-18T14:20:10.974Z</time></trkpt><trkpt lat="44.8800061" lon="8.9011279"><ele>245.0</ele><time>2026-04-18T14:20:11.974Z</time></trkpt><trkpt lat="44.8802056" lon="8.9010369"><ele>245.0</ele><time>2026-04-18T14:20:12.974Z</time></trkpt><trkpt lat="44.8803989" lon="8.9009478"><ele>245.0</ele><time>2026-04-18T14:20:13.975Z</time></trkpt><trkpt lat="44.8805947" lon="8.90086"><ele>245.0</ele><time>2026-04-18T14:20:14.974Z</time></trkpt><trkpt lat="44.8807891" lon="8.9007731"><ele>248.33333333333334</ele><time>2026-04-18T14:20:15.975Z</time></trkpt><trkpt lat="44.8809846" lon="8.9006862"><ele>251.66666666666669</ele><time>2026-04-18T14:20:16.975Z</time></trkpt><trkpt lat="44.8811771" lon="8.9006036"><ele>255.0</ele><time>2026-04-18T14:20:17.975Z</time></trkpt><trkpt lat="44.8813653" lon="8.9005202"><ele>255.0</ele><time>2026-04-18T14:20:18.975Z</time></trkpt><trkpt lat="44.8815474" lon="8.9004393"><ele>255.0</ele><time>2026-04-18T14:20:19.975Z</time></trkpt><trkpt lat="44.8817254" lon="8.9003634"><ele>255.0</ele><time>2026-04-18T14:20:20.975Z</time></trkpt><trkpt lat="44.8819036" lon="8.9002869"><ele>255.0</ele><time>2026-04-18T14:20:21.975Z</time></trkpt><trkpt lat="44.8820729" lon="8.9001991"><ele>255.0</ele><time>2026-04-18T14:20:22.975Z</time></trkpt><trkpt lat="44.882234" lon="8.9000942"><ele>255.0</ele><time>2026-04-18T14:20:23.973Z</time></trkpt><trkpt lat="44.8823845" lon="8.8999658"><ele>255.0</ele><time>2026-04-18T14:20:24.974Z</time></trkpt><trkpt lat="44.8825229" lon="8.8998065"><ele>255.0</ele><time>2026-04-18T14:20:25.975Z</time></trkpt><trkpt lat="44.8826426" lon="8.8996135"><ele>255.0</ele><time>2026-04-18T14:20:26.975Z</time></trkpt><trkpt lat="44.8827409" lon="8.8993992"><ele>255.0</ele><time>2026-04-18T14:20:27.974Z</time></trkpt><trkpt lat="44.8828087" lon="8.8991748"><ele>255.0</ele><time>2026-04-18T14:20:28.975Z</time></trkpt><trkpt lat="44.8828543" lon="8.8989417"><ele>255.0</ele><time>2026-04-18T14:20:29.974Z</time></trkpt><trkpt lat="44.8828855" lon="8.8987075"><ele>255.0</ele><time>2026-04-18T14:20:30.974Z</time></trkpt><trkpt lat="44.8829106" lon="8.8984744"><ele>255.0</ele><time>2026-04-18T14:20:31.975Z</time></trkpt><trkpt lat="44.8829371" lon="8.8982451"><ele>255.0</ele><time>2026-04-18T14:20:32.974Z</time></trkpt><trkpt lat="44.8829668" lon="8.8980087"><ele>254.66666666666669</ele><time>2026-04-18T14:20:33.974Z</time></trkpt><trkpt lat="44.8829946" lon="8.897774"><ele>254.33333333333334</ele><time>2026-04-18T14:20:34.974Z</time></trkpt><trkpt lat="44.8830193" lon="8.8975344"><ele>254.0</ele><time>2026-04-18T14:20:35.975Z</time></trkpt><trkpt lat="44.8830445" lon="8.8972855"><ele>252.33333333333334</ele><time>2026-04-18T14:20:36.974Z</time></trkpt><trkpt lat="44.8830685" lon="8.8970285"><ele>250.66666666666669</ele><time>2026-04-18T14:20:37.974Z</time></trkpt><trkpt lat="44.8830989" lon="8.8967582"><ele>249.0</ele><time>2026-04-18T14:20:38.974Z</time></trkpt><trkpt lat="44.883132" lon="8.8964855"><ele>247.0</ele><time>2026-04-18T14:20:39.975Z</time></trkpt><trkpt lat="44.88317" lon="8.896212"><ele>245.0</ele><time>2026-04-18T14:20:40.975Z</time></trkpt><trkpt lat="44.883209" lon="8.8959336"><ele>243.0</ele><time>2026-04-18T14:20:41.975Z</time></trkpt><trkpt lat="44.8832501" lon="8.8956591"><ele>241.33333333333331</ele><time>2026-04-18T14:20:42.974Z</time></trkpt><trkpt lat="44.8832922" lon="8.8953854"><ele>239.66666666666666</ele><time>2026-04-18T14:20:43.975Z</time></trkpt><trkpt lat="44.88333" lon="8.8951135"><ele>238.0</ele><time>2026-04-18T14:20:44.974Z</time></trkpt><trkpt lat="44.8833594" lon="8.894841"><ele>237.0</ele><time>2026-04-18T14:20:45.974Z</time></trkpt><trkpt lat="44.8833796" lon="8.8945663"><ele>236.0</ele><time>2026-04-18T14:20:46.975Z</time></trkpt><trkpt lat="44.883395" lon="8.8942918"><ele>235.0</ele><time>2026-04-18T14:20:47.974Z</time></trkpt><trkpt lat="44.8834082" lon="8.8940157"><ele>234.0</ele><time>2026-04-18T14:20:48.974Z</time></trkpt><trkpt lat="44.8834209" lon="8.8937503"><ele>233.0</ele><time>2026-04-18T14:20:49.975Z</time></trkpt><trkpt lat="44.8834357" lon="8.8934956"><ele>232.0</ele><time>2026-04-18T14:20:50.975Z</time></trkpt><trkpt lat="44.8834492" lon="8.8932453"><ele>230.66666666666666</ele><time>2026-04-18T14:20:51.974Z</time></trkpt><trkpt lat="44.8834609" lon="8.8930094"><ele>229.33333333333331</ele><time>2026-04-18T14:20:52.975Z</time></trkpt><trkpt lat="44.8834746" lon="8.8927667"><ele>228.0</ele><time>2026-04-18T14:20:53.974Z</time></trkpt><trkpt lat="44.8834853" lon="8.8925267"><ele>226.66666666666669</ele><time>2026-04-18T14:20:54.974Z</time></trkpt><trkpt lat="44.883496" lon="8.8922872"><ele>225.33333333333334</ele><time>2026-04-18T14:20:55.975Z</time></trkpt><trkpt lat="44.883509" lon="8.892054"><ele>224.0</ele><time>2026-04-18T14:20:56.975Z</time></trkpt><trkpt lat="44.8835206" lon="8.8918312"><ele>224.25</ele><time>2026-04-18T14:20:57.975Z</time></trkpt><trkpt lat="44.8835347" lon="8.8916117"><ele>224.5</ele><time>2026-04-18T14:20:58.975Z</time></trkpt><trkpt lat="44.8835445" lon="8.8914022"><ele>224.75</ele><time>2026-04-18T14:20:59.975Z</time></trkpt><trkpt lat="44.8835531" lon="8.8912007"><ele>225.0</ele><time>2026-04-18T14:21:00.974Z</time></trkpt><trkpt lat="44.883561" lon="8.8909969"><ele>226.66666666666669</ele><time>2026-04-18T14:21:01.975Z</time></trkpt><trkpt lat="44.8835697" lon="8.8907935"><ele>228.33333333333334</ele><time>2026-04-18T14:21:02.975Z</time></trkpt><trkpt lat="44.8835803" lon="8.8905762"><ele>230.0</ele><time>2026-04-18T14:21:03.975Z</time></trkpt><trkpt lat="44.8835825" lon="8.8903533"><ele>230.0</ele><time>2026-04-18T14:21:04.974Z</time></trkpt><trkpt lat="44.8835739" lon="8.8901176"><ele>230.0</ele><time>2026-04-18T14:21:05.975Z</time></trkpt><trkpt lat="44.8835604" lon="8.8898696"><ele>230.0</ele><time>2026-04-18T14:21:06.974Z</time></trkpt><trkpt lat="44.8835392" lon="8.889606"><ele>229.33333333333334</ele><time>2026-04-18T14:21:07.975Z</time></trkpt><trkpt lat="44.8835207" lon="8.8893288"><ele>228.66666666666669</ele><time>2026-04-18T14:21:08.975Z</time></trkpt><trkpt lat="44.8835132" lon="8.8890589"><ele>228.0</ele><time>2026-04-18T14:21:09.975Z</time></trkpt><trkpt lat="44.8835179" lon="8.8887793"><ele>226.33333333333331</ele><time>2026-04-18T14:21:10.975Z</time></trkpt><trkpt lat="44.8835405" lon="8.888502"><ele>224.66666666666666</ele><time>2026-04-18T14:21:11.974Z</time></trkpt><trkpt lat="44.8835783" lon="8.8882294"><ele>223.0</ele><time>2026-04-18T14:21:12.974Z</time></trkpt><trkpt lat="44.8836347" lon="8.8879721"><ele>223.0</ele><time>2026-04-18T14:21:13.971Z</time></trkpt><trkpt lat="44.8837007" lon="8.8877249"><ele>223.0</ele><time>2026-04-18T14:21:14.975Z</time></trkpt><trkpt lat="44.8837724" lon="8.8874832"><ele>223.0</ele><time>2026-04-18T14:21:15.975Z</time></trkpt><trkpt lat="44.8838427" lon="8.8872485"><ele>224.0</ele><time>2026-04-18T14:21:16.975Z</time></trkpt><trkpt lat="44.8839147" lon="8.8870182"><ele>225.0</ele><time>2026-04-18T14:21:17.975Z</time></trkpt><trkpt lat="44.8839833" lon="8.8867902"><ele>226.0</ele><time>2026-04-18T14:21:18.975Z</time></trkpt><trkpt lat="44.8840514" lon="8.8865652"><ele>227.66666666666666</ele><time>2026-04-18T14:21:19.975Z</time></trkpt><trkpt lat="44.8841182" lon="8.8863434"><ele>229.33333333333331</ele><time>2026-04-18T14:21:20.975Z</time></trkpt><trkpt lat="44.8841877" lon="8.8861213"><ele>231.0</ele><time>2026-04-18T14:21:21.971Z</time></trkpt><trkpt lat="44.8842547" lon="8.8858966"><ele>228.66666666666669</ele><time>2026-04-18T14:21:22.974Z</time></trkpt><trkpt lat="44.884321" lon="8.8856705"><ele>226.33333333333334</ele><time>2026-04-18T14:21:23.974Z</time></trkpt><trkpt lat="44.8843908" lon="8.8854415"><ele>224.0</ele><time>2026-04-18T14:21:24.974Z</time></trkpt><trkpt lat="44.884464" lon="8.8852095"><ele>223.66666666666669</ele><time>2026-04-18T14:21:25.975Z</time></trkpt><trkpt lat="44.8845383" lon="8.8849709"><ele>223.33333333333331</ele><time>2026-04-18T14:21:26.975Z</time></trkpt><trkpt lat="44.8846097" lon="8.8847311"><ele>223.0</ele><time>2026-04-18T14:21:27.97Z</time></trkpt><trkpt lat="44.8846788" lon="8.8844903"><ele>222.0</ele><time>2026-04-18T14:21:28.975Z</time></trkpt><trkpt lat="44.884733" lon="8.8842454"><ele>221.0</ele><time>2026-04-18T14:21:29.975Z</time></trkpt><trkpt lat="44.8847702" lon="8.8839976"><ele>220.0</ele><time>2026-04-18T14:21:30.975Z</time></trkpt><trkpt lat="44.8847875" lon="8.8837502"><ele>220.0</ele><time>2026-04-18T14:21:31.975Z</time></trkpt><trkpt lat="44.8847943" lon="8.8835092"><ele>220.0</ele><time>2026-04-18T14:21:32.975Z</time></trkpt><trkpt lat="44.8847964" lon="8.8832751"><ele>220.0</ele><time>2026-04-18T14:21:33.975Z</time></trkpt><trkpt lat="44.8847966" lon="8.8830581"><ele>219.5</ele><time>2026-04-18T14:21:34.975Z</time></trkpt><trkpt lat="44.8847962" lon="8.8828484"><ele>219.0</ele><time>2026-04-18T14:21:35.974Z</time></trkpt><trkpt lat="44.8847959" lon="8.8826395"><ele>218.5</ele><time>2026-04-18T14:21:36.974Z</time></trkpt><trkpt lat="44.8847961" lon="8.8824433"><ele>218.0</ele><time>2026-04-18T14:21:37.974Z</time></trkpt><trkpt lat="44.8847964" lon="8.8822495"><ele>217.0</ele><time>2026-04-18T14:21:38.974Z</time></trkpt><trkpt lat="44.8847967" lon="8.8820604"><ele>216.0</ele><time>2026-04-18T14:21:39.974Z</time></trkpt><trkpt lat="44.8847978" lon="8.8818794"><ele>215.0</ele><time>2026-04-18T14:21:40.975Z</time></trkpt><trkpt lat="44.8848033" lon="8.881717"><ele>214.0</ele><time>2026-04-18T14:21:41.975Z</time></trkpt><trkpt lat="44.8848098" lon="8.8815775"><ele>213.0</ele><time>2026-04-18T14:21:42.974Z</time></trkpt><trkpt lat="44.8848192" lon="8.8814582"><ele>211.99999999999997</ele><time>2026-04-18T14:21:43.973Z</time></trkpt><trkpt lat="44.8848384" lon="8.8813615"><ele>211.0</ele><time>2026-04-18T14:21:44.975Z</time></trkpt><trkpt lat="44.8849197" lon="8.881228"><ele>210.0</ele><time>2026-04-18T14:21:46.975Z</time></trkpt><trkpt lat="44.8849514" lon="8.881089"><ele>209.0</ele><time>2026-04-18T14:21:48.975Z</time></trkpt><trkpt lat="44.8849673" lon="8.8809084"><ele>208.83333333333334</ele><time>2026-04-18T14:21:50.974Z</time></trkpt><trkpt lat="44.8849898" lon="8.8808033"><ele>208.66666666666669</ele><time>2026-04-18T14:21:51.975Z</time></trkpt><trkpt lat="44.8850162" lon="8.8806911"><ele>208.5</ele><time>2026-04-18T14:21:52.974Z</time></trkpt><trkpt lat="44.8850449" lon="8.8805797"><ele>208.33333333333331</ele><time>2026-04-18T14:21:53.975Z</time></trkpt><trkpt lat="44.8850753" lon="8.8804618"><ele>208.16666666666666</ele><time>2026-04-18T14:21:54.975Z</time></trkpt><trkpt lat="44.8851123" lon="8.8803438"><ele>208.0</ele><time>2026-04-18T14:21:55.975Z</time></trkpt><trkpt lat="44.885154" lon="8.8802224"><ele>205.60000000000002</ele><time>2026-04-18T14:21:56.975Z</time></trkpt><trkpt lat="44.8851958" lon="8.8800969"><ele>203.20000000000002</ele><time>2026-04-18T14:21:57.975Z</time></trkpt><trkpt lat="44.8852357" lon="8.8799744"><ele>200.8</ele><time>2026-04-18T14:21:58.975Z</time></trkpt><trkpt lat="44.8852733" lon="8.879846"><ele>198.4</ele><time>2026-04-18T14:21:59.974Z</time></trkpt><trkpt lat="44.8853148" lon="8.8797128"><ele>196.0</ele><time>2026-04-18T14:22:00.974Z</time></trkpt><trkpt lat="44.8853516" lon="8.8795715"><ele>196.0</ele><time>2026-04-18T14:22:01.975Z</time></trkpt><trkpt lat="44.8853908" lon="8.8794316"><ele>196.0</ele><time>2026-04-18T14:22:02.974Z</time></trkpt><trkpt lat="44.8854338" lon="8.8792831"><ele>196.0</ele><time>2026-04-18T14:22:03.975Z</time></trkpt><trkpt lat="44.8854809" lon="8.8791373"><ele>196.0</ele><time>2026-04-18T14:22:04.975Z</time></trkpt><trkpt lat="44.8855278" lon="8.8789887"><ele>196.0</ele><time>2026-04-18T14:22:05.975Z</time></trkpt><trkpt lat="44.8855774" lon="8.8788341"><ele>197.25</ele><time>2026-04-18T14:22:06.975Z</time></trkpt><trkpt lat="44.8856235" lon="8.8786748"><ele>198.5</ele><time>2026-04-18T14:22:07.975Z</time></trkpt><trkpt lat="44.8856684" lon="8.878515"><ele>199.75</ele><time>2026-04-18T14:22:08.974Z</time></trkpt><trkpt lat="44.8857135" lon="8.8783479"><ele>201.0</ele><time>2026-04-18T14:22:09.975Z</time></trkpt><trkpt lat="44.8857631" lon="8.878171"><ele>201.25</ele><time>2026-04-18T14:22:10.974Z</time></trkpt><trkpt lat="44.8858147" lon="8.8779876"><ele>201.5</ele><time>2026-04-18T14:22:11.975Z</time></trkpt><trkpt lat="44.8858688" lon="8.8777981"><ele>201.75</ele><time>2026-04-18T14:22:12.975Z</time></trkpt><trkpt lat="44.885924" lon="8.8776036"><ele>202.0</ele><time>2026-04-18T14:22:13.974Z</time></trkpt><trkpt lat="44.885977" lon="8.8774077"><ele>205.0</ele><time>2026-04-18T14:22:14.974Z</time></trkpt><trkpt lat="44.8860303" lon="8.8772108"><ele>208.0</ele><time>2026-04-18T14:22:15.974Z</time></trkpt><trkpt lat="44.8860802" lon="8.8770173"><ele>211.0</ele><time>2026-04-18T14:22:16.975Z</time></trkpt><trkpt lat="44.886132" lon="8.8768298"><ele>214.0</ele><time>2026-04-18T14:22:17.975Z</time></trkpt><trkpt lat="44.8861836" lon="8.8766435"><ele>214.0</ele><time>2026-04-18T14:22:18.975Z</time></trkpt><trkpt lat="44.8862342" lon="8.8764624"><ele>214.0</ele><time>2026-04-18T14:22:19.975Z</time></trkpt><trkpt lat="44.8862842" lon="8.8762888"><ele>214.0</ele><time>2026-04-18T14:22:20.974Z</time></trkpt><trkpt lat="44.8863325" lon="8.8761159"><ele>214.0</ele><time>2026-04-18T14:22:21.975Z</time></trkpt><trkpt lat="44.8863797" lon="8.875944"><ele>212.0</ele><time>2026-04-18T14:22:22.974Z</time></trkpt><trkpt lat="44.8864273" lon="8.875771"><ele>210.0</ele><time>2026-04-18T14:22:23.975Z</time></trkpt><trkpt lat="44.8864768" lon="8.8756"><ele>208.0</ele><time>2026-04-18T14:22:24.975Z</time></trkpt><trkpt lat="44.8865273" lon="8.8754354"><ele>206.0</ele><time>2026-04-18T14:22:25.974Z</time></trkpt><trkpt lat="44.8865923" lon="8.8752818"><ele>206.0</ele><time>2026-04-18T14:22:26.975Z</time></trkpt><trkpt lat="44.8866684" lon="8.8751501"><ele>206.0</ele><time>2026-04-18T14:22:27.975Z</time></trkpt><trkpt lat="44.8867544" lon="8.8750384"><ele>206.0</ele><time>2026-04-18T14:22:28.974Z</time></trkpt><trkpt lat="44.8868579" lon="8.8749503"><ele>206.0</ele><time>2026-04-18T14:22:29.975Z</time></trkpt><trkpt lat="44.8869725" lon="8.8748871"><ele>208.5</ele><time>2026-04-18T14:22:30.969Z</time></trkpt><trkpt lat="44.8870937" lon="8.8748275"><ele>211.0</ele><time>2026-04-18T14:22:31.974Z</time></trkpt><trkpt lat="44.8872193" lon="8.8747673"><ele>213.5</ele><time>2026-04-18T14:22:32.975Z</time></trkpt><trkpt lat="44.8873485" lon="8.8747043"><ele>216.0</ele><time>2026-04-18T14:22:33.975Z</time></trkpt><trkpt lat="44.8874795" lon="8.8746236"><ele>216.5</ele><time>2026-04-18T14:22:34.974Z</time></trkpt><trkpt lat="44.8876026" lon="8.8745174"><ele>217.0</ele><time>2026-04-18T14:22:35.968Z</time></trkpt><trkpt lat="44.8877206" lon="8.8743909"><ele>217.5</ele><time>2026-04-18T14:22:36.974Z</time></trkpt><trkpt lat="44.8878241" lon="8.8742366"><ele>218.0</ele><time>2026-04-18T14:22:37.975Z</time></trkpt><trkpt lat="44.8879188" lon="8.8740647"><ele>216.0</ele><time>2026-04-18T14:22:38.975Z</time></trkpt><trkpt lat="44.8880117" lon="8.873874"><ele>214.0</ele><time>2026-04-18T14:22:39.974Z</time></trkpt><trkpt lat="44.8881174" lon="8.8737059"><ele>212.0</ele><time>2026-04-18T14:22:40.975Z</time></trkpt><trkpt lat="44.8882367" lon="8.8735499"><ele>210.66666666666669</ele><time>2026-04-18T14:22:41.975Z</time></trkpt><trkpt lat="44.8883664" lon="8.8734019"><ele>209.33333333333331</ele><time>2026-04-18T14:22:42.975Z</time></trkpt><trkpt lat="44.8884994" lon="8.8732606"><ele>208.0</ele><time>2026-04-18T14:22:43.974Z</time></trkpt><trkpt lat="44.8886209" lon="8.8731025"><ele>208.0</ele><time>2026-04-18T14:22:44.975Z</time></trkpt><trkpt lat="44.8887336" lon="8.872932"><ele>208.0</ele><time>2026-04-18T14:22:45.975Z</time></trkpt><trkpt lat="44.8888378" lon="8.872762"><ele>208.0</ele><time>2026-04-18T14:22:46.975Z</time></trkpt><trkpt lat="44.8889383" lon="8.8726003"><ele>207.25</ele><time>2026-04-18T14:22:47.974Z</time></trkpt><trkpt lat="44.8890369" lon="8.8724416"><ele>206.5</ele><time>2026-04-18T14:22:48.975Z</time></trkpt><trkpt lat="44.8891277" lon="8.8722935"><ele>205.75</ele><time>2026-04-18T14:22:49.974Z</time></trkpt><trkpt lat="44.8892113" lon="8.8721588"><ele>205.0</ele><time>2026-04-18T14:22:50.974Z</time></trkpt><trkpt lat="44.8892849" lon="8.8720358"><ele>205.0</ele><time>2026-04-18T14:22:51.974Z</time></trkpt><trkpt lat="44.8893593" lon="8.8719244"><ele>205.0</ele><time>2026-04-18T14:22:52.975Z</time></trkpt><trkpt lat="44.8894369" lon="8.8718243"><ele>205.0</ele><time>2026-04-18T14:22:53.975Z</time></trkpt><trkpt lat="44.8895223" lon="8.8717445"><ele>205.0</ele><time>2026-04-18T14:22:54.975Z</time></trkpt><trkpt lat="44.8896127" lon="8.8716951"><ele>205.0</ele><time>2026-04-18T14:22:55.975Z</time></trkpt><trkpt lat="44.889703" lon="8.871675"><ele>204.0</ele><time>2026-04-18T14:22:56.974Z</time></trkpt><trkpt lat="44.8898023" lon="8.8716628"><ele>203.0</ele><time>2026-04-18T14:22:57.974Z</time></trkpt><trkpt lat="44.8898933" lon="8.8716563"><ele>202.0</ele><time>2026-04-18T14:22:58.975Z</time></trkpt><trkpt lat="44.889989" lon="8.871655"><ele>201.0</ele><time>2026-04-18T14:22:59.974Z</time></trkpt><trkpt lat="44.8900863" lon="8.8716564"><ele>200.0</ele><time>2026-04-18T14:23:00.975Z</time></trkpt><trkpt lat="44.8901867" lon="8.8716643"><ele>200.0</ele><time>2026-04-18T14:23:01.974Z</time></trkpt><trkpt lat="44.8902815" lon="8.8716707"><ele>200.0</ele><time>2026-04-18T14:23:02.975Z</time></trkpt><trkpt lat="44.8903832" lon="8.8716834"><ele>200.0</ele><time>2026-04-18T14:23:03.974Z</time></trkpt><trkpt lat="44.8904805" lon="8.8716906"><ele>200.0</ele><time>2026-04-18T14:23:04.975Z</time></trkpt><trkpt lat="44.8905811" lon="8.8716765"><ele>200.0</ele><time>2026-04-18T14:23:05.975Z</time></trkpt><trkpt lat="44.8906797" lon="8.8716466"><ele>200.0</ele><time>2026-04-18T14:23:06.975Z</time></trkpt><trkpt lat="44.8907786" lon="8.8716036"><ele>200.0</ele><time>2026-04-18T14:23:07.975Z</time></trkpt><trkpt lat="44.890874" lon="8.8715458"><ele>200.0</ele><time>2026-04-18T14:23:08.974Z</time></trkpt><trkpt lat="44.8909657" lon="8.8714734"><ele>200.0</ele><time>2026-04-18T14:23:09.975Z</time></trkpt><trkpt lat="44.8910576" lon="8.8713835"><ele>200.0</ele><time>2026-04-18T14:23:10.974Z</time></trkpt><trkpt lat="44.8911484" lon="8.8712831"><ele>199.75</ele><time>2026-04-18T14:23:11.974Z</time></trkpt><trkpt lat="44.8912429" lon="8.8711856"><ele>199.5</ele><time>2026-04-18T14:23:12.975Z</time></trkpt><trkpt lat="44.891341" lon="8.8710866"><ele>199.25</ele><time>2026-04-18T14:23:13.974Z</time></trkpt><trkpt lat="44.8914405" lon="8.8709839"><ele>199.0</ele><time>2026-04-18T14:23:14.975Z</time></trkpt><trkpt lat="44.8915448" lon="8.8708805"><ele>197.25</ele><time>2026-04-18T14:23:15.973Z</time></trkpt><trkpt lat="44.8916543" lon="8.8707725"><ele>195.5</ele><time>2026-04-18T14:23:16.975Z</time></trkpt><trkpt lat="44.8917682" lon="8.8706597"><ele>193.75</ele><time>2026-04-18T14:23:17.974Z</time></trkpt><trkpt lat="44.8918836" lon="8.8705472"><ele>192.0</ele><time>2026-04-18T14:23:18.974Z</time></trkpt><trkpt lat="44.8920069" lon="8.8704253"><ele>192.0</ele><time>2026-04-18T14:23:19.975Z</time></trkpt><trkpt lat="44.8921291" lon="8.8703096"><ele>192.0</ele><time>2026-04-18T14:23:20.974Z</time></trkpt><trkpt lat="44.8922487" lon="8.8701932"><ele>192.0</ele><time>2026-04-18T14:23:21.975Z</time></trkpt><trkpt lat="44.8923681" lon="8.8700809"><ele>192.0</ele><time>2026-04-18T14:23:22.975Z</time></trkpt><trkpt lat="44.8924831" lon="8.8699654"><ele>192.5</ele><time>2026-04-18T14:23:23.975Z</time></trkpt><trkpt lat="44.8925878" lon="8.8698376"><ele>193.0</ele><time>2026-04-18T14:23:24.974Z</time></trkpt><trkpt lat="44.8926755" lon="8.8696905"><ele>193.5</ele><time>2026-04-18T14:23:25.975Z</time></trkpt><trkpt lat="44.89275" lon="8.8695176"><ele>194.0</ele><time>2026-04-18T14:23:26.975Z</time></trkpt><trkpt lat="44.8928074" lon="8.8693286"><ele>192.33333333333334</ele><time>2026-04-18T14:23:27.973Z</time></trkpt><trkpt lat="44.892859" lon="8.8691286"><ele>190.66666666666669</ele><time>2026-04-18T14:23:28.974Z</time></trkpt><trkpt lat="44.8929067" lon="8.8689162"><ele>189.0</ele><time>2026-04-18T14:23:29.974Z</time></trkpt><trkpt lat="44.8929585" lon="8.8687038"><ele>189.0</ele><time>2026-04-18T14:23:30.974Z</time></trkpt><trkpt lat="44.8930084" lon="8.8684901"><ele>189.0</ele><time>2026-04-18T14:23:31.975Z</time></trkpt><trkpt lat="44.8930574" lon="8.8682832"><ele>189.0</ele><time>2026-04-18T14:23:32.974Z</time></trkpt><trkpt lat="44.8931041" lon="8.8680821"><ele>186.75</ele><time>2026-04-18T14:23:33.974Z</time></trkpt><trkpt lat="44.8931511" lon="8.8678873"><ele>184.5</ele><time>2026-04-18T14:23:34.975Z</time></trkpt><trkpt lat="44.8932042" lon="8.8676941"><ele>182.25</ele><time>2026-04-18T14:23:35.975Z</time></trkpt><trkpt lat="44.8932646" lon="8.8675103"><ele>180.0</ele><time>2026-04-18T14:23:36.974Z</time></trkpt><trkpt lat="44.8933452" lon="8.8673347"><ele>178.66666666666666</ele><time>2026-04-18T14:23:37.974Z</time></trkpt><trkpt lat="44.8934389" lon="8.8671719"><ele>177.33333333333331</ele><time>2026-04-18T14:23:38.975Z</time></trkpt><trkpt lat="44.8935401" lon="8.8670072"><ele>176.0</ele><time>2026-04-18T14:23:39.974Z</time></trkpt><trkpt lat="44.8936388" lon="8.8668407"><ele>172.0</ele><time>2026-04-18T14:23:40.974Z</time></trkpt><trkpt lat="44.8937423" lon="8.8666872"><ele>168.0</ele><time>2026-04-18T14:23:41.975Z</time></trkpt><trkpt lat="44.8938523" lon="8.866551"><ele>164.0</ele><time>2026-04-18T14:23:42.975Z</time></trkpt><trkpt lat="44.8939732" lon="8.8664411"><ele>160.0</ele><time>2026-04-18T14:23:43.975Z</time></trkpt><trkpt lat="44.8941039" lon="8.8663686"><ele>160.0</ele><time>2026-04-18T14:23:44.975Z</time></trkpt><trkpt lat="44.8942403" lon="8.8663262"><ele>160.0</ele><time>2026-04-18T14:23:45.975Z</time></trkpt><trkpt lat="44.8943792" lon="8.8663096"><ele>160.0</ele><time>2026-04-18T14:23:46.975Z</time></trkpt><trkpt lat="44.8945172" lon="8.8663052"><ele>160.0</ele><time>2026-04-18T14:23:47.975Z</time></trkpt><trkpt lat="44.8946524" lon="8.8663212"><ele>159.6</ele><time>2026-04-18T14:23:48.974Z</time></trkpt><trkpt lat="44.8947843" lon="8.8663469"><ele>159.2</ele><time>2026-04-18T14:23:49.975Z</time></trkpt><trkpt lat="44.894903" lon="8.8663754"><ele>158.8</ele><time>2026-04-18T14:23:50.974Z</time></trkpt><trkpt lat="44.8950014" lon="8.8663785"><ele>158.4</ele><time>2026-04-18T14:23:51.975Z</time></trkpt><trkpt lat="44.8950756" lon="8.8663452"><ele>158.0</ele><time>2026-04-18T14:23:52.975Z</time></trkpt><trkpt lat="44.8951274" lon="8.866273"><ele>158.0</ele><time>2026-04-18T14:23:53.975Z</time></trkpt><trkpt lat="44.8951442" lon="8.8661836"><ele>158.0</ele><time>2026-04-18T14:23:54.975Z</time></trkpt><trkpt lat="44.89512" lon="8.8660902"><ele>158.0</ele><time>2026-04-18T14:23:55.975Z</time></trkpt><trkpt lat="44.8950562" lon="8.8660267"><ele>158.0</ele><time>2026-04-18T14:23:56.974Z</time></trkpt><trkpt lat="44.8949698" lon="8.8659887"><ele>158.0</ele><time>2026-04-18T14:23:57.975Z</time></trkpt><trkpt lat="44.8948693" lon="8.8659767"><ele>158.0</ele><time>2026-04-18T14:23:58.975Z</time></trkpt><trkpt lat="44.8947493" lon="8.8659717"><ele>158.0</ele><time>2026-04-18T14:23:59.974Z</time></trkpt><trkpt lat="44.8946167" lon="8.8659677"><ele>158.0</ele><time>2026-04-18T14:24:00.975Z</time></trkpt><trkpt lat="44.8944747" lon="8.865978"><ele>158.0</ele><time>2026-04-18T14:24:01.974Z</time></trkpt><trkpt lat="44.8943315" lon="8.8659791"><ele>158.0</ele><time>2026-04-18T14:24:02.975Z</time></trkpt><trkpt lat="44.8941884" lon="8.8659922"><ele>158.5</ele><time>2026-04-18T14:24:03.975Z</time></trkpt><trkpt lat="44.8940505" lon="8.8660053"><ele>159.0</ele><time>2026-04-18T14:24:04.975Z</time></trkpt><trkpt lat="44.8939124" lon="8.8660206"><ele>159.5</ele><time>2026-04-18T14:24:05.975Z</time></trkpt><trkpt lat="44.8937769" lon="8.8660356"><ele>160.0</ele><time>2026-04-18T14:24:06.974Z</time></trkpt><trkpt lat="44.8936433" lon="8.8660497"><ele>160.0</ele><time>2026-04-18T14:24:07.975Z</time></trkpt><trkpt lat="44.8935109" lon="8.8660728"><ele>160.0</ele><time>2026-04-18T14:24:08.975Z</time></trkpt><trkpt lat="44.8933887" lon="8.866087"><ele>160.0</ele><time>2026-04-18T14:24:09.974Z</time></trkpt><trkpt lat="44.8932809" lon="8.8660994"><ele>160.0</ele><time>2026-04-18T14:24:10.975Z</time></trkpt><trkpt lat="44.8931812" lon="8.8661197"><ele>158.83333333333334</ele><time>2026-04-18T14:24:11.974Z</time></trkpt><trkpt lat="44.8930956" lon="8.8660864"><ele>157.66666666666669</ele><time>2026-04-18T14:24:12.975Z</time></trkpt><trkpt lat="44.893019" lon="8.866032"><ele>156.5</ele><time>2026-04-18T14:24:13.975Z</time></trkpt><trkpt lat="44.8929871" lon="8.8659267"><ele>155.33333333333334</ele><time>2026-04-18T14:24:14.975Z</time></trkpt><trkpt lat="44.8929908" lon="8.8658063"><ele>154.16666666666666</ele><time>2026-04-18T14:24:15.974Z</time></trkpt><trkpt lat="44.8930034" lon="8.8656903"><ele>153.0</ele><time>2026-04-18T14:24:16.974Z</time></trkpt><trkpt lat="44.8930304" lon="8.8655902"><ele>149.66666666666666</ele><time>2026-04-18T14:24:17.975Z</time></trkpt><trkpt lat="44.8930538" lon="8.8655026"><ele>146.33333333333334</ele><time>2026-04-18T14:24:18.975Z</time></trkpt><trkpt lat="44.8930794" lon="8.8653911"><ele>143.0</ele><time>2026-04-18T14:24:20.975Z</time></trkpt><trkpt lat="44.8930951" lon="8.8652795"><ele>139.66666666666669</ele><time>2026-04-18T14:24:22.975Z</time></trkpt><trkpt lat="44.8930599" lon="8.8651679"><ele>136.33333333333334</ele><time>2026-04-18T14:24:24.974Z</time></trkpt><trkpt lat="44.8929837" lon="8.8651086"><ele>133.0</ele><time>2026-04-18T14:24:26.975Z</time></trkpt><trkpt lat="44.8929021" lon="8.865008"><ele>132.0</ele><time>2026-04-18T14:24:28.975Z</time></trkpt><trkpt lat="44.8928157" lon="8.8648772"><ele>131.0</ele><time>2026-04-18T14:24:30.971Z</time></trkpt><trkpt lat="44.8927712" lon="8.8648064"><ele>130.0</ele><time>2026-04-18T14:24:31.974Z</time></trkpt><trkpt lat="44.8927309" lon="8.864725"><ele>129.0</ele><time>2026-04-18T14:24:32.974Z</time></trkpt><trkpt lat="44.8926884" lon="8.8646395"><ele>128.0</ele><time>2026-04-18T14:24:33.975Z</time></trkpt><trkpt lat="44.8926633" lon="8.864544"><ele>127.0</ele><time>2026-04-18T14:24:34.975Z</time></trkpt><trkpt lat="44.892648" lon="8.8644481"><ele>127.0</ele><time>2026-04-18T14:24:35.974Z</time></trkpt><trkpt lat="44.8926455" lon="8.8643528"><ele>127.0</ele><time>2026-04-18T14:24:36.975Z</time></trkpt><trkpt lat="44.8926478" lon="8.8642616"><ele>127.0</ele><time>2026-04-18T14:24:37.974Z</time></trkpt><trkpt lat="44.8926542" lon="8.8641716"><ele>127.0</ele><time>2026-04-18T14:24:38.974Z</time></trkpt><trkpt lat="44.8926671" lon="8.8640791"><ele>127.0</ele><time>2026-04-18T14:24:39.975Z</time></trkpt><trkpt lat="44.8926814" lon="8.863985"><ele>127.0</ele><time>2026-04-18T14:24:40.971Z</time></trkpt><trkpt lat="44.8926971" lon="8.8638854"><ele>127.0</ele><time>2026-04-18T14:24:41.974Z</time></trkpt><trkpt lat="44.8927164" lon="8.8637792"><ele>127.16666666666667</ele><time>2026-04-18T14:24:42.974Z</time></trkpt><trkpt lat="44.8927365" lon="8.8636738"><ele>127.33333333333334</ele><time>2026-04-18T14:24:43.974Z</time></trkpt><trkpt lat="44.8927559" lon="8.8635661"><ele>127.5</ele><time>2026-04-18T14:24:44.975Z</time></trkpt><trkpt lat="44.8927782" lon="8.8634546"><ele>127.66666666666666</ele><time>2026-04-18T14:24:45.975Z</time></trkpt><trkpt lat="44.8927971" lon="8.8633406"><ele>127.83333333333333</ele><time>2026-04-18T14:24:46.974Z</time></trkpt><trkpt lat="44.8928193" lon="8.863221"><ele>128.0</ele><time>2026-04-18T14:24:47.975Z</time></trkpt><trkpt lat="44.8928427" lon="8.8630967"><ele>127.99999999999999</ele><time>2026-04-18T14:24:48.974Z</time></trkpt><trkpt lat="44.8928619" lon="8.8629695"><ele>128.0</ele><time>2026-04-18T14:24:49.975Z</time></trkpt><trkpt lat="44.8928846" lon="8.8628392"><ele>128.0</ele><time>2026-04-18T14:24:50.975Z</time></trkpt><trkpt lat="44.8929067" lon="8.8627149"><ele>128.0</ele><time>2026-04-18T14:24:51.974Z</time></trkpt><trkpt lat="44.892925" lon="8.8625992"><ele>127.99999999999999</ele><time>2026-04-18T14:24:52.974Z</time></trkpt><trkpt lat="44.8929482" lon="8.8624816"><ele>128.0</ele><time>2026-04-18T14:24:53.974Z</time></trkpt><trkpt lat="44.8929694" lon="8.8623706"><ele>127.83333333333333</ele><time>2026-04-18T14:24:54.975Z</time></trkpt><trkpt lat="44.8929943" lon="8.8622785"><ele>127.66666666666666</ele><time>2026-04-18T14:24:55.975Z</time></trkpt><trkpt lat="44.8930705" lon="8.8621819"><ele>127.5</ele><time>2026-04-18T14:24:57.974Z</time></trkpt><trkpt lat="44.8931188" lon="8.8621013"><ele>127.33333333333334</ele><time>2026-04-18T14:24:59.975Z</time></trkpt><trkpt lat="44.893085" lon="8.8620042"><ele>127.16666666666667</ele><time>2026-04-18T14:25:01.975Z</time></trkpt><trkpt lat="44.8929904" lon="8.8619619"><ele>127.0</ele><time>2026-04-18T14:25:03.975Z</time></trkpt><trkpt lat="44.8928731" lon="8.861914"><ele>127.0</ele><time>2026-04-18T14:25:05.975Z</time></trkpt><trkpt lat="44.8928127" lon="8.8618784"><ele>127.0</ele><time>2026-04-18T14:25:06.975Z</time></trkpt><trkpt lat="44.8927503" lon="8.8618433"><ele>127.0</ele><time>2026-04-18T14:25:07.974Z</time></trkpt><trkpt lat="44.892686" lon="8.8618022"><ele>127.0</ele><time>2026-04-18T14:25:08.974Z</time></trkpt><trkpt lat="44.892627" lon="8.8617657"><ele>127.0</ele><time>2026-04-18T14:25:09.975Z</time></trkpt><trkpt lat="44.8925543" lon="8.8616793"><ele>127.0</ele><time>2026-04-18T14:25:11.975Z</time></trkpt><trkpt lat="44.8925489" lon="8.8615866"><ele>127.0</ele><time>2026-04-18T14:25:13.975Z</time></trkpt><trkpt lat="44.892595" lon="8.861522"><ele>127.0</ele><time>2026-04-18T14:25:15.975Z</time></trkpt><trkpt lat="44.8926787" lon="8.8615034"><ele>126.99999999999999</ele><time>2026-04-18T14:25:17.975Z</time></trkpt><trkpt lat="44.8927819" lon="8.8615069"><ele>126.99999999999999</ele><time>2026-04-18T14:25:19.971Z</time></trkpt><trkpt lat="44.8929078" lon="8.8615072"><ele>127.0</ele><time>2026-04-18T14:25:21.975Z</time></trkpt><trkpt lat="44.8929869" lon="8.8615026"><ele>127.0</ele><time>2026-04-18T14:25:22.974Z</time></trkpt><trkpt lat="44.8930601" lon="8.8614992"><ele>127.0</ele><time>2026-04-18T14:25:23.974Z</time></trkpt><trkpt lat="44.8931275" lon="8.861492"><ele>127.0</ele><time>2026-04-18T14:25:24.974Z</time></trkpt><trkpt lat="44.8931924" lon="8.8614875"><ele>127.0</ele><time>2026-04-18T14:25:25.975Z</time></trkpt><trkpt lat="44.8932622" lon="8.8614874"><ele>127.0</ele><time>2026-04-18T14:25:26.975Z</time></trkpt><trkpt lat="44.8933353" lon="8.8614913"><ele>127.0</ele><time>2026-04-18T14:25:27.975Z</time></trkpt><trkpt lat="44.8934175" lon="8.8614806"><ele>127.0</ele><time>2026-04-18T14:25:28.975Z</time></trkpt><trkpt lat="44.8935074" lon="8.8614742"><ele>127.0</ele><time>2026-04-18T14:25:29.975Z</time></trkpt><trkpt lat="44.893605" lon="8.8614706"><ele>127.8</ele><time>2026-04-18T14:25:30.975Z</time></trkpt><trkpt lat="44.8936992" lon="8.8614674"><ele>128.6</ele><time>2026-04-18T14:25:31.974Z</time></trkpt><trkpt lat="44.8937944" lon="8.8614621"><ele>129.39999999999998</ele><time>2026-04-18T14:25:32.974Z</time></trkpt><trkpt lat="44.8938924" lon="8.8614828"><ele>130.2</ele><time>2026-04-18T14:25:33.975Z</time></trkpt><trkpt lat="44.8939846" lon="8.8614918"><ele>131.0</ele><time>2026-04-18T14:25:34.975Z</time></trkpt><trkpt lat="44.8940825" lon="8.8614884"><ele>131.0</ele><time>2026-04-18T14:25:35.974Z</time></trkpt><trkpt lat="44.8941731" lon="8.8614865"><ele>131.0</ele><time>2026-04-18T14:25:36.975Z</time></trkpt><trkpt lat="44.8942602" lon="8.8614835"><ele>131.0</ele><time>2026-04-18T14:25:37.974Z</time></trkpt><trkpt lat="44.8943399" lon="8.8614776"><ele>131.0</ele><time>2026-04-18T14:25:38.975Z</time></trkpt><trkpt lat="44.8944061" lon="8.8614574"><ele>131.0</ele><time>2026-04-18T14:25:39.975Z</time></trkpt><trkpt lat="44.8944733" lon="8.8614405"><ele>131.0</ele><time>2026-04-18T14:25:40.975Z</time></trkpt><trkpt lat="44.8945399" lon="8.8614297"><ele>130.0</ele><time>2026-04-18T14:25:41.975Z</time></trkpt><trkpt lat="44.8946622" lon="8.861424"><ele>129.0</ele><time>2026-04-18T14:25:43.965Z</time></trkpt><trkpt lat="44.8947715" lon="8.8614202"><ele>128.0</ele><time>2026-04-18T14:25:45.975Z</time></trkpt><trkpt lat="44.8948521" lon="8.8614259"><ele>127.0</ele><time>2026-04-18T14:25:47.975Z</time></trkpt><trkpt lat="44.8949195" lon="8.8614455"><ele>126.0</ele><time>2026-04-18T14:25:53.975Z</time></trkpt><trkpt lat="44.8949869" lon="8.8614683"><ele>126.0</ele><time>2026-04-18T14:26:04.975Z</time></trkpt><trkpt lat="44.8950498" lon="8.8614816"><ele>126.0</ele><time>2026-04-18T14:26:06.974Z</time></trkpt><trkpt lat="44.8951008" lon="8.8614263"><ele>126.0</ele><time>2026-04-18T14:26:08.975Z</time></trkpt><trkpt lat="44.8950838" lon="8.8612871"><ele>126.0</ele><time>2026-04-18T14:26:10.974Z</time></trkpt><trkpt lat="44.8950686" lon="8.8611949"><ele>126.0</ele><time>2026-04-18T14:26:11.975Z</time></trkpt><trkpt lat="44.8950589" lon="8.8610932"><ele>126.0</ele><time>2026-04-18T14:26:12.975Z</time></trkpt><trkpt lat="44.8950535" lon="8.860973"><ele>125.5</ele><time>2026-04-18T14:26:13.974Z</time></trkpt><trkpt lat="44.8950439" lon="8.8608554"><ele>125.0</ele><time>2026-04-18T14:26:14.974Z</time></trkpt><trkpt lat="44.8950478" lon="8.8607419"><ele>124.5</ele><time>2026-04-18T14:26:15.974Z</time></trkpt><trkpt lat="44.8950452" lon="8.860624"><ele>124.0</ele><time>2026-04-18T14:26:16.974Z</time></trkpt><trkpt lat="44.8950419" lon="8.8605079"><ele>123.5</ele><time>2026-04-18T14:26:17.975Z</time></trkpt><trkpt lat="44.895035" lon="8.8603947"><ele>123.0</ele><time>2026-04-18T14:26:18.975Z</time></trkpt><trkpt lat="44.8950269" lon="8.8602852"><ele>123.0</ele><time>2026-04-18T14:26:19.975Z</time></trkpt><trkpt lat="44.8950255" lon="8.8601643"><ele>123.0</ele><time>2026-04-18T14:26:20.974Z</time></trkpt><trkpt lat="44.8950223" lon="8.8600473"><ele>123.0</ele><time>2026-04-18T14:26:21.975Z</time></trkpt><trkpt lat="44.8950235" lon="8.8599211"><ele>123.0</ele><time>2026-04-18T14:26:22.974Z</time></trkpt><trkpt lat="44.8950232" lon="8.8597945"><ele>123.0</ele><time>2026-04-18T14:26:23.975Z</time></trkpt><trkpt lat="44.8950219" lon="8.8596799"><ele>123.0</ele><time>2026-04-18T14:26:24.974Z</time></trkpt><trkpt lat="44.8950198" lon="8.8595751"><ele>123.71428571428572</ele><time>2026-04-18T14:26:25.975Z</time></trkpt><trkpt lat="44.8950192" lon="8.8594797"><ele>124.42857142857143</ele><time>2026-04-18T14:26:26.975Z</time></trkpt><trkpt lat="44.8950194" lon="8.859385"><ele>125.14285714285714</ele><time>2026-04-18T14:26:27.975Z</time></trkpt><trkpt lat="44.895015" lon="8.8592902"><ele>125.85714285714286</ele><time>2026-04-18T14:26:28.975Z</time></trkpt><trkpt lat="44.895013" lon="8.8591849"><ele>126.57142857142856</ele><time>2026-04-18T14:26:29.974Z</time></trkpt><trkpt lat="44.895008" lon="8.859077"><ele>127.28571428571428</ele><time>2026-04-18T14:26:30.975Z</time></trkpt><trkpt lat="44.895005" lon="8.85897"><ele>128.0</ele><time>2026-04-18T14:26:31.974Z</time></trkpt><trkpt lat="44.8950043" lon="8.85887"><ele>127.99999999999999</ele><time>2026-04-18T14:26:32.975Z</time></trkpt><trkpt lat="44.8950024" lon="8.8587726"><ele>128.0</ele><time>2026-04-18T14:26:33.974Z</time></trkpt><trkpt lat="44.8950003" lon="8.8586754"><ele>128.0</ele><time>2026-04-18T14:26:34.974Z</time></trkpt><trkpt lat="44.8949972" lon="8.8585778"><ele>128.0</ele><time>2026-04-18T14:26:35.975Z</time></trkpt><trkpt lat="44.8949974" lon="8.8584657"><ele>127.99999999999999</ele><time>2026-04-18T14:26:36.975Z</time></trkpt><trkpt lat="44.8949971" lon="8.8583518"><ele>128.0</ele><time>2026-04-18T14:26:37.974Z</time></trkpt><trkpt lat="44.8949949" lon="8.858218"><ele>126.99999999999999</ele><time>2026-04-18T14:26:38.975Z</time></trkpt><trkpt lat="44.89499" lon="8.8580902"><ele>126.0</ele><time>2026-04-18T14:26:39.975Z</time></trkpt><trkpt lat="44.8949854" lon="8.8579659"><ele>125.0</ele><time>2026-04-18T14:26:40.974Z</time></trkpt><trkpt lat="44.8949806" lon="8.8578483"><ele>124.0</ele><time>2026-04-18T14:26:41.975Z</time></trkpt><trkpt lat="44.8949828" lon="8.8577403"><ele>122.99999999999999</ele><time>2026-04-18T14:26:42.975Z</time></trkpt><trkpt lat="44.8949863" lon="8.857639"><ele>122.0</ele><time>2026-04-18T14:26:43.975Z</time></trkpt><trkpt lat="44.8949841" lon="8.8575356"><ele>121.99999999999999</ele><time>2026-04-18T14:26:44.974Z</time></trkpt><trkpt lat="44.8949828" lon="8.8574314"><ele>122.0</ele><time>2026-04-18T14:26:45.974Z</time></trkpt><trkpt lat="44.8949826" lon="8.8573154"><ele>122.0</ele><time>2026-04-18T14:26:46.975Z</time></trkpt><trkpt lat="44.8949811" lon="8.8571931"><ele>122.0</ele><time>2026-04-18T14:26:47.974Z</time></trkpt><trkpt lat="44.89498" lon="8.8570604"><ele>121.99999999999999</ele><time>2026-04-18T14:26:48.974Z</time></trkpt><trkpt lat="44.8949801" lon="8.8569224"><ele>122.0</ele><time>2026-04-18T14:26:49.974Z</time></trkpt><trkpt lat="44.8949793" lon="8.8567821"><ele>121.8</ele><time>2026-04-18T14:26:50.974Z</time></trkpt><trkpt lat="44.8949734" lon="8.8566349"><ele>121.6</ele><time>2026-04-18T14:26:51.974Z</time></trkpt><trkpt lat="44.8949695" lon="8.8564889"><ele>121.39999999999999</ele><time>2026-04-18T14:26:52.974Z</time></trkpt><trkpt lat="44.8949602" lon="8.8563466"><ele>121.19999999999999</ele><time>2026-04-18T14:26:53.974Z</time></trkpt><trkpt lat="44.894954" lon="8.856206"><ele>121.0</ele><time>2026-04-18T14:26:54.974Z</time></trkpt><trkpt lat="44.8949532" lon="8.8560739"><ele>121.0</ele><time>2026-04-18T14:26:55.975Z</time></trkpt><trkpt lat="44.8949497" lon="8.855936"><ele>121.0</ele><time>2026-04-18T14:26:56.974Z</time></trkpt><trkpt lat="44.8949497" lon="8.8557959"><ele>121.0</ele><time>2026-04-18T14:26:57.974Z</time></trkpt><trkpt lat="44.8949513" lon="8.8556651"><ele>121.0</ele><time>2026-04-18T14:26:58.972Z</time></trkpt><trkpt lat="44.8949508" lon="8.8555346"><ele>121.0</ele><time>2026-04-18T14:26:59.975Z</time></trkpt><trkpt lat="44.894952" lon="8.8554088"><ele>121.0</ele><time>2026-04-18T14:27:00.974Z</time></trkpt><trkpt lat="44.8949484" lon="8.8552605"><ele>121.0</ele><time>2026-04-18T14:27:01.975Z</time></trkpt><trkpt lat="44.8949446" lon="8.8551025"><ele>121.0</ele><time>2026-04-18T14:27:02.975Z</time></trkpt><trkpt lat="44.8949423" lon="8.8549371"><ele>121.0</ele><time>2026-04-18T14:27:03.975Z</time></trkpt><trkpt lat="44.8949378" lon="8.8547625"><ele>120.5</ele><time>2026-04-18T14:27:04.975Z</time></trkpt><trkpt lat="44.8949332" lon="8.8545923"><ele>120.0</ele><time>2026-04-18T14:27:05.975Z</time></trkpt><trkpt lat="44.8949294" lon="8.8544205"><ele>119.5</ele><time>2026-04-18T14:27:06.975Z</time></trkpt><trkpt lat="44.8949257" lon="8.8542583"><ele>119.0</ele><time>2026-04-18T14:27:07.975Z</time></trkpt><trkpt lat="44.8949227" lon="8.8541079"><ele>119.0</ele><time>2026-04-18T14:27:08.975Z</time></trkpt><trkpt lat="44.89492" lon="8.8539705"><ele>119.0</ele><time>2026-04-18T14:27:09.975Z</time></trkpt><trkpt lat="44.8949208" lon="8.8538339"><ele>119.0</ele><time>2026-04-18T14:27:10.975Z</time></trkpt><trkpt lat="44.8949184" lon="8.853707"><ele>119.0</ele><time>2026-04-18T14:27:11.974Z</time></trkpt><trkpt lat="44.8949124" lon="8.8535692"><ele>119.0</ele><time>2026-04-18T14:27:12.975Z</time></trkpt><trkpt lat="44.8949046" lon="8.8534266"><ele>118.6</ele><time>2026-04-18T14:27:13.975Z</time></trkpt><trkpt lat="44.8949035" lon="8.8532864"><ele>118.2</ele><time>2026-04-18T14:27:14.975Z</time></trkpt><trkpt lat="44.8949011" lon="8.8531591"><ele>117.79999999999998</ele><time>2026-04-18T14:27:15.974Z</time></trkpt><trkpt lat="44.8948989" lon="8.8530612"><ele>117.39999999999999</ele><time>2026-04-18T14:27:16.974Z</time></trkpt><trkpt lat="44.8949089" lon="8.8529332"><ele>117.0</ele><time>2026-04-18T14:27:18.975Z</time></trkpt><trkpt lat="44.8949675" lon="8.8528132"><ele>117.0</ele><time>2026-04-18T14:27:21.975Z</time></trkpt><trkpt lat="44.8949632" lon="8.8526624"><ele>117.0</ele><time>2026-04-18T14:27:23.975Z</time></trkpt><trkpt lat="44.8949453" lon="8.8525705"><ele>117.0</ele><time>2026-04-18T14:27:24.975Z</time></trkpt><trkpt lat="44.8949237" lon="8.8524688"><ele>117.0</ele><time>2026-04-18T14:27:25.975Z</time></trkpt><trkpt lat="44.8949072" lon="8.8523564"><ele>117.0</ele><time>2026-04-18T14:27:26.975Z</time></trkpt><trkpt lat="44.894894" lon="8.852234"><ele>117.0</ele><time>2026-04-18T14:27:27.974Z</time></trkpt><trkpt lat="44.8948888" lon="8.8521201"><ele>117.16666666666667</ele><time>2026-04-18T14:27:28.975Z</time></trkpt><trkpt lat="44.8948866" lon="8.8520006"><ele>117.33333333333334</ele><time>2026-04-18T14:27:29.974Z</time></trkpt><trkpt lat="44.8948886" lon="8.8518764"><ele>117.5</ele><time>2026-04-18T14:27:30.974Z</time></trkpt><trkpt lat="44.8948941" lon="8.8517563"><ele>117.66666666666667</ele><time>2026-04-18T14:27:31.975Z</time></trkpt><trkpt lat="44.8948958" lon="8.8516282"><ele>117.83333333333334</ele><time>2026-04-18T14:27:32.975Z</time></trkpt><trkpt lat="44.8949035" lon="8.8514959"><ele>118.0</ele><time>2026-04-18T14:27:33.974Z</time></trkpt><trkpt lat="44.8949205" lon="8.8513634"><ele>118.0</ele><time>2026-04-18T14:27:34.975Z</time></trkpt><trkpt lat="44.8949462" lon="8.8512414"><ele>118.00000000000001</ele><time>2026-04-18T14:27:35.975Z</time></trkpt><trkpt lat="44.8949647" lon="8.851119"><ele>118.00000000000001</ele><time>2026-04-18T14:27:36.975Z</time></trkpt><trkpt lat="44.8949626" lon="8.850996"><ele>118.0</ele><time>2026-04-18T14:27:37.975Z</time></trkpt><trkpt lat="44.8949436" lon="8.8508779"><ele>118.0</ele><time>2026-04-18T14:27:38.975Z</time></trkpt><trkpt lat="44.8949174" lon="8.8507445"><ele>118.2</ele><time>2026-04-18T14:27:39.974Z</time></trkpt><trkpt lat="44.8948978" lon="8.8506066"><ele>118.4</ele><time>2026-04-18T14:27:40.974Z</time></trkpt><trkpt lat="44.8948882" lon="8.8504513"><ele>118.60000000000001</ele><time>2026-04-18T14:27:41.975Z</time></trkpt><trkpt lat="44.8948788" lon="8.8502876"><ele>118.80000000000001</ele><time>2026-04-18T14:27:42.974Z</time></trkpt><trkpt lat="44.8948692" lon="8.8501196"><ele>119.0</ele><time>2026-04-18T14:27:43.974Z</time></trkpt><trkpt lat="44.8948669" lon="8.8499536"><ele>119.25</ele><time>2026-04-18T14:27:44.975Z</time></trkpt><trkpt lat="44.8948644" lon="8.8497973"><ele>119.5</ele><time>2026-04-18T14:27:45.971Z</time></trkpt><trkpt lat="44.8948604" lon="8.8496412"><ele>119.75</ele><time>2026-04-18T14:27:46.974Z</time></trkpt><trkpt lat="44.8948571" lon="8.8494788"><ele>120.0</ele><time>2026-04-18T14:27:47.975Z</time></trkpt><trkpt lat="44.8948577" lon="8.8493179"><ele>119.5</ele><time>2026-04-18T14:27:48.975Z</time></trkpt><trkpt lat="44.8948524" lon="8.849171"><ele>119.0</ele><time>2026-04-18T14:27:49.975Z</time></trkpt><trkpt lat="44.8948503" lon="8.8490372"><ele>118.5</ele><time>2026-04-18T14:27:50.975Z</time></trkpt><trkpt lat="44.89485" lon="8.8489157"><ele>118.0</ele><time>2026-04-18T14:27:51.975Z</time></trkpt><trkpt lat="44.8948581" lon="8.8488032"><ele>117.5</ele><time>2026-04-18T14:27:52.974Z</time></trkpt><trkpt lat="44.8948797" lon="8.8487042"><ele>117.0</ele><time>2026-04-18T14:27:53.975Z</time></trkpt><trkpt lat="44.8949416" lon="8.8485689"><ele>117.0</ele><time>2026-04-18T14:27:55.975Z</time></trkpt><trkpt lat="44.8949754" lon="8.8484773"><ele>117.0</ele><time>2026-04-18T14:27:57.974Z</time></trkpt><trkpt lat="44.8949783" lon="8.8483731"><ele>117.0</ele><time>2026-04-18T14:33:18.974Z</time></trkpt><trkpt lat="44.8949643" lon="8.8482298"><ele>117.0</ele><time>2026-04-18T14:33:20.974Z</time></trkpt><trkpt lat="44.8949322" lon="8.8481419"><ele>117.0</ele><time>2026-04-18T14:33:22.974Z</time></trkpt><trkpt lat="44.8948827" lon="8.8480708"><ele>117.0</ele><time>2026-04-18T14:34:41.952Z</time></trkpt><trkpt lat="44.8948424" lon="8.847993"><ele>117.0</ele><time>2026-04-18T14:34:48.953Z</time></trkpt><trkpt lat="44.8948195" lon="8.8478558"><ele>117.0</ele><time>2026-04-18T14:34:50.953Z</time></trkpt><trkpt lat="44.8948132" lon="8.8477581"><ele>117.0</ele><time>2026-04-18T14:34:51.953Z</time></trkpt><trkpt lat="44.8948098" lon="8.847648"><ele>117.0</ele><time>2026-04-18T14:34:52.953Z</time></trkpt><trkpt lat="44.8948071" lon="8.8475292"><ele>117.0</ele><time>2026-04-18T14:34:53.952Z</time></trkpt><trkpt lat="44.8948028" lon="8.8473907"><ele>117.0</ele><time>2026-04-18T14:34:54.953Z</time></trkpt><trkpt lat="44.8947993" lon="8.8472595"><ele>117.0</ele><time>2026-04-18T14:34:55.953Z</time></trkpt><trkpt lat="44.8947961" lon="8.8471149"><ele>116.99999999999999</ele><time>2026-04-18T14:34:56.952Z</time></trkpt><trkpt lat="44.8947931" lon="8.8469692"><ele>116.99999999999999</ele><time>2026-04-18T14:34:57.952Z</time></trkpt><trkpt lat="44.8947893" lon="8.846819"><ele>117.0</ele><time>2026-04-18T14:34:58.953Z</time></trkpt><trkpt lat="44.8947863" lon="8.8466654"><ele>117.0</ele><time>2026-04-18T14:34:59.952Z</time></trkpt><trkpt lat="44.8947844" lon="8.846505"><ele>116.5</ele><time>2026-04-18T14:35:00.952Z</time></trkpt><trkpt lat="44.8947824" lon="8.8463396"><ele>116.0</ele><time>2026-04-18T14:35:01.953Z</time></trkpt><trkpt lat="44.8947787" lon="8.846157"><ele>115.5</ele><time>2026-04-18T14:35:02.952Z</time></trkpt><trkpt lat="44.8947748" lon="8.8459929"><ele>115.0</ele><time>2026-04-18T14:35:03.953Z</time></trkpt><trkpt lat="44.8947697" lon="8.8458134"><ele>114.0</ele><time>2026-04-18T14:35:04.952Z</time></trkpt><trkpt lat="44.8947645" lon="8.8456201"><ele>113.0</ele><time>2026-04-18T14:35:05.953Z</time></trkpt><trkpt lat="44.8947617" lon="8.8454421"><ele>112.0</ele><time>2026-04-18T14:35:06.952Z</time></trkpt><trkpt lat="44.8947579" lon="8.8452459"><ele>111.0</ele><time>2026-04-18T14:35:07.952Z</time></trkpt><trkpt lat="44.8947541" lon="8.8450428"><ele>110.75</ele><time>2026-04-18T14:35:08.953Z</time></trkpt><trkpt lat="44.8947507" lon="8.8448404"><ele>110.5</ele><time>2026-04-18T14:35:09.952Z</time></trkpt><trkpt lat="44.8947483" lon="8.8446384"><ele>110.25</ele><time>2026-04-18T14:35:10.953Z</time></trkpt><trkpt lat="44.8947459" lon="8.8444367"><ele>110.0</ele><time>2026-04-18T14:35:11.953Z</time></trkpt><trkpt lat="44.8947437" lon="8.8442327"><ele>110.0</ele><time>2026-04-18T14:35:12.953Z</time></trkpt><trkpt lat="44.8947417" lon="8.8440295"><ele>110.0</ele><time>2026-04-18T14:35:13.953Z</time></trkpt><trkpt lat="44.8947386" lon="8.8438263"><ele>110.0</ele><time>2026-04-18T14:35:14.953Z</time></trkpt><trkpt lat="44.8947355" lon="8.843624"><ele>110.0</ele><time>2026-04-18T14:35:15.952Z</time></trkpt><trkpt lat="44.8947335" lon="8.84342"><ele>111.0</ele><time>2026-04-18T14:35:16.953Z</time></trkpt><trkpt lat="44.8947327" lon="8.8432121"><ele>112.0</ele><time>2026-04-18T14:35:17.952Z</time></trkpt><trkpt lat="44.8947317" lon="8.842989"><ele>113.0</ele><time>2026-04-18T14:35:18.953Z</time></trkpt><trkpt lat="44.89473" lon="8.8427892"><ele>114.0</ele><time>2026-04-18T14:35:19.952Z</time></trkpt><trkpt lat="44.8947264" lon="8.842564"><ele>114.66666666666666</ele><time>2026-04-18T14:35:20.953Z</time></trkpt><trkpt lat="44.894723" lon="8.8423488"><ele>115.33333333333333</ele><time>2026-04-18T14:35:21.953Z</time></trkpt><trkpt lat="44.8947203" lon="8.8421455"><ele>116.0</ele><time>2026-04-18T14:35:22.953Z</time></trkpt><trkpt lat="44.8947198" lon="8.8419134"><ele>116.66666666666666</ele><time>2026-04-18T14:35:23.952Z</time></trkpt><trkpt lat="44.89472" lon="8.8417075"><ele>117.33333333333334</ele><time>2026-04-18T14:35:24.953Z</time></trkpt><trkpt lat="44.8947188" lon="8.8414833"><ele>118.0</ele><time>2026-04-18T14:35:25.952Z</time></trkpt><trkpt lat="44.8947165" lon="8.8412545"><ele>118.0</ele><time>2026-04-18T14:35:26.952Z</time></trkpt><trkpt lat="44.8947122" lon="8.8410585"><ele>118.0</ele><time>2026-04-18T14:35:27.953Z</time></trkpt><trkpt lat="44.8947058" lon="8.8408498"><ele>118.0</ele><time>2026-04-18T14:35:28.953Z</time></trkpt><trkpt lat="44.8946985" lon="8.8406405"><ele>118.0</ele><time>2026-04-18T14:35:29.953Z</time></trkpt><trkpt lat="44.8946901" lon="8.8404284"><ele>118.0</ele><time>2026-04-18T14:35:30.953Z</time></trkpt><trkpt lat="44.8946797" lon="8.840197"><ele>118.0</ele><time>2026-04-18T14:35:31.953Z</time></trkpt><trkpt lat="44.8946709" lon="8.839991"><ele>118.0</ele><time>2026-04-18T14:35:32.952Z</time></trkpt><trkpt lat="44.8946641" lon="8.8397705"><ele>118.0</ele><time>2026-04-18T14:35:33.952Z</time></trkpt><trkpt lat="44.8946601" lon="8.8395343"><ele>118.0</ele><time>2026-04-18T14:35:34.952Z</time></trkpt><trkpt lat="44.8946562" lon="8.8393238"><ele>118.0</ele><time>2026-04-18T14:35:35.952Z</time></trkpt><trkpt lat="44.8946515" lon="8.8390827"><ele>117.33333333333334</ele><time>2026-04-18T14:35:36.952Z</time></trkpt><trkpt lat="44.8946481" lon="8.838849"><ele>116.66666666666666</ele><time>2026-04-18T14:35:37.953Z</time></trkpt><trkpt lat="44.8946449" lon="8.8386265"><ele>116.0</ele><time>2026-04-18T14:35:38.952Z</time></trkpt><trkpt lat="44.8946413" lon="8.8383674"><ele>116.0</ele><time>2026-04-18T14:35:39.952Z</time></trkpt><trkpt lat="44.8946375" lon="8.8381369"><ele>116.0</ele><time>2026-04-18T14:35:40.953Z</time></trkpt><trkpt lat="44.8946331" lon="8.8378852"><ele>116.0</ele><time>2026-04-18T14:35:41.952Z</time></trkpt><trkpt lat="44.8946368" lon="8.8376186"><ele>116.0</ele><time>2026-04-18T14:35:42.974Z</time></trkpt><trkpt lat="44.894631" lon="8.8373622"><ele>116.0</ele><time>2026-04-18T14:35:43.972Z</time></trkpt><trkpt lat="44.8946256" lon="8.8371058"><ele>116.0</ele><time>2026-04-18T14:35:44.975Z</time></trkpt><trkpt lat="44.8946196" lon="8.8368466"><ele>116.33333333333333</ele><time>2026-04-18T14:35:45.974Z</time></trkpt><trkpt lat="44.8946127" lon="8.8365894"><ele>116.66666666666666</ele><time>2026-04-18T14:35:46.975Z</time></trkpt><trkpt lat="44.8946074" lon="8.8363345"><ele>117.0</ele><time>2026-04-18T14:35:47.975Z</time></trkpt><trkpt lat="44.894604" lon="8.8360817"><ele>117.66666666666666</ele><time>2026-04-18T14:35:48.974Z</time></trkpt><trkpt lat="44.8946018" lon="8.8358311"><ele>118.33333333333333</ele><time>2026-04-18T14:35:49.975Z</time></trkpt><trkpt lat="44.8945999" lon="8.8355619"><ele>119.0</ele><time>2026-04-18T14:35:50.948Z</time></trkpt><trkpt lat="44.8945961" lon="8.8353159"><ele>118.66666666666666</ele><time>2026-04-18T14:35:51.938Z</time></trkpt><trkpt lat="44.8945902" lon="8.8350467"><ele>118.33333333333334</ele><time>2026-04-18T14:35:52.949Z</time></trkpt><trkpt lat="44.8945839" lon="8.834751"><ele>118.0</ele><time>2026-04-18T14:35:53.944Z</time></trkpt><trkpt lat="44.8945774" lon="8.8344913"><ele>117.33333333333334</ele><time>2026-04-18T14:35:54.951Z</time></trkpt><trkpt lat="44.894572" lon="8.8341904"><ele>116.66666666666666</ele><time>2026-04-18T14:35:55.95Z</time></trkpt><trkpt lat="44.894567" lon="8.8339239"><ele>116.0</ele><time>2026-04-18T14:35:56.95Z</time></trkpt><trkpt lat="44.8945606" lon="8.833639"><ele>116.0</ele><time>2026-04-18T14:35:57.951Z</time></trkpt><trkpt lat="44.8945527" lon="8.8333466"><ele>116.0</ele><time>2026-04-18T14:35:58.974Z</time></trkpt><trkpt lat="44.8945389" lon="8.8330611"><ele>116.0</ele><time>2026-04-18T14:35:59.975Z</time></trkpt><trkpt lat="44.8945288" lon="8.832777"><ele>116.66666666666666</ele><time>2026-04-18T14:36:00.974Z</time></trkpt><trkpt lat="44.8945212" lon="8.8325004"><ele>117.33333333333334</ele><time>2026-04-18T14:36:01.975Z</time></trkpt><trkpt lat="44.8945157" lon="8.8322379"><ele>118.0</ele><time>2026-04-18T14:36:02.975Z</time></trkpt><trkpt lat="44.8945112" lon="8.8319783"><ele>117.66666666666667</ele><time>2026-04-18T14:36:03.974Z</time></trkpt><trkpt lat="44.8945075" lon="8.8317203"><ele>117.33333333333334</ele><time>2026-04-18T14:36:04.974Z</time></trkpt><trkpt lat="44.894506" lon="8.8314602"><ele>117.0</ele><time>2026-04-18T14:36:05.975Z</time></trkpt><trkpt lat="44.8945053" lon="8.8311949"><ele>117.0</ele><time>2026-04-18T14:36:06.975Z</time></trkpt><trkpt lat="44.8945051" lon="8.8309245"><ele>117.0</ele><time>2026-04-18T14:36:07.974Z</time></trkpt><trkpt lat="44.8945079" lon="8.8306421"><ele>117.0</ele><time>2026-04-18T14:36:08.975Z</time></trkpt><trkpt lat="44.8945149" lon="8.8303449"><ele>116.66666666666666</ele><time>2026-04-18T14:36:09.94Z</time></trkpt><trkpt lat="44.8945175" lon="8.8300718"><ele>116.33333333333333</ele><time>2026-04-18T14:36:10.956Z</time></trkpt><trkpt lat="44.8945172" lon="8.8297598"><ele>116.0</ele><time>2026-04-18T14:36:11.955Z</time></trkpt><trkpt lat="44.8945128" lon="8.8294857"><ele>115.66666666666666</ele><time>2026-04-18T14:36:12.937Z</time></trkpt><trkpt lat="44.8945033" lon="8.8291891"><ele>115.33333333333334</ele><time>2026-04-18T14:36:13.962Z</time></trkpt><trkpt lat="44.89449" lon="8.8288821"><ele>115.0</ele><time>2026-04-18T14:36:14.972Z</time></trkpt><trkpt lat="44.8944759" lon="8.8285887"><ele>115.66666666666667</ele><time>2026-04-18T14:36:15.975Z</time></trkpt><trkpt lat="44.8944655" lon="8.8282998"><ele>116.33333333333334</ele><time>2026-04-18T14:36:16.97Z</time></trkpt><trkpt lat="44.8944594" lon="8.8280144"><ele>117.0</ele><time>2026-04-18T14:36:17.975Z</time></trkpt><trkpt lat="44.8944534" lon="8.8277427"><ele>116.66666666666666</ele><time>2026-04-18T14:36:18.975Z</time></trkpt><trkpt lat="44.8944448" lon="8.8274757"><ele>116.33333333333333</ele><time>2026-04-18T14:36:19.975Z</time></trkpt><trkpt lat="44.8944357" lon="8.8272155"><ele>116.0</ele><time>2026-04-18T14:36:20.971Z</time></trkpt><trkpt lat="44.8944284" lon="8.8269579"><ele>115.0</ele><time>2026-04-18T14:36:21.975Z</time></trkpt><trkpt lat="44.8944217" lon="8.8267"><ele>114.0</ele><time>2026-04-18T14:36:22.975Z</time></trkpt><trkpt lat="44.894419" lon="8.8264364"><ele>113.0</ele><time>2026-04-18T14:36:23.97Z</time></trkpt><trkpt lat="44.8944152" lon="8.8261708"><ele>113.33333333333333</ele><time>2026-04-18T14:36:24.975Z</time></trkpt><trkpt lat="44.8944121" lon="8.8259053"><ele>113.66666666666666</ele><time>2026-04-18T14:36:25.974Z</time></trkpt><trkpt lat="44.8944059" lon="8.825642"><ele>114.0</ele><time>2026-04-18T14:36:26.944Z</time></trkpt><trkpt lat="44.8943982" lon="8.8253567"><ele>114.33333333333334</ele><time>2026-04-18T14:36:27.962Z</time></trkpt><trkpt lat="44.8943918" lon="8.8251068"><ele>114.66666666666667</ele><time>2026-04-18T14:36:28.942Z</time></trkpt><trkpt lat="44.8943858" lon="8.8248417"><ele>115.0</ele><time>2026-04-18T14:36:29.943Z</time></trkpt><trkpt lat="44.8943807" lon="8.8245635"><ele>115.0</ele><time>2026-04-18T14:36:30.974Z</time></trkpt><trkpt lat="44.8943765" lon="8.8243186"><ele>115.0</ele><time>2026-04-18T14:36:31.959Z</time></trkpt><trkpt lat="44.8943724" lon="8.8240586"><ele>115.0</ele><time>2026-04-18T14:36:32.958Z</time></trkpt><trkpt lat="44.8943688" lon="8.8238012"><ele>115.33333333333334</ele><time>2026-04-18T14:36:33.959Z</time></trkpt><trkpt lat="44.8943647" lon="8.8235464"><ele>115.66666666666666</ele><time>2026-04-18T14:36:34.959Z</time></trkpt><trkpt lat="44.8943605" lon="8.8232774"><ele>116.0</ele><time>2026-04-18T14:36:35.959Z</time></trkpt><trkpt lat="44.8943567" lon="8.8230443"><ele>116.0</ele><time>2026-04-18T14:36:36.959Z</time></trkpt><trkpt lat="44.8943526" lon="8.8227927"><ele>116.0</ele><time>2026-04-18T14:36:37.958Z</time></trkpt><trkpt lat="44.8943473" lon="8.8225268"><ele>116.0</ele><time>2026-04-18T14:36:38.958Z</time></trkpt><trkpt lat="44.894342" lon="8.8222941"><ele>115.66666666666666</ele><time>2026-04-18T14:36:39.958Z</time></trkpt><trkpt lat="44.8943359" lon="8.8220443"><ele>115.33333333333334</ele><time>2026-04-18T14:36:40.958Z</time></trkpt><trkpt lat="44.8943287" lon="8.8217804"><ele>115.0</ele><time>2026-04-18T14:36:41.958Z</time></trkpt><trkpt lat="44.8943212" lon="8.8215509"><ele>115.0</ele><time>2026-04-18T14:36:42.959Z</time></trkpt><trkpt lat="44.8943102" lon="8.8212881"><ele>115.0</ele><time>2026-04-18T14:36:43.958Z</time></trkpt><trkpt lat="44.894298" lon="8.8210598"><ele>115.0</ele><time>2026-04-18T14:36:44.959Z</time></trkpt><trkpt lat="44.8942834" lon="8.8208206"><ele>115.33333333333334</ele><time>2026-04-18T14:36:45.958Z</time></trkpt><trkpt lat="44.8942662" lon="8.8205759"><ele>115.66666666666666</ele><time>2026-04-18T14:36:46.959Z</time></trkpt><trkpt lat="44.8942503" lon="8.8203694"><ele>116.0</ele><time>2026-04-18T14:36:47.959Z</time></trkpt><trkpt lat="44.8942317" lon="8.8201453"><ele>116.25</ele><time>2026-04-18T14:36:48.959Z</time></trkpt><trkpt lat="44.8942144" lon="8.8199508"><ele>116.5</ele><time>2026-04-18T14:36:49.958Z</time></trkpt><trkpt lat="44.8941959" lon="8.8197454"><ele>116.75</ele><time>2026-04-18T14:36:50.959Z</time></trkpt><trkpt lat="44.8941767" lon="8.8195321"><ele>117.0</ele><time>2026-04-18T14:36:51.958Z</time></trkpt><trkpt lat="44.8941604" lon="8.8193482"><ele>116.75</ele><time>2026-04-18T14:36:52.959Z</time></trkpt><trkpt lat="44.894143" lon="8.819158"><ele>116.5</ele><time>2026-04-18T14:36:53.959Z</time></trkpt><trkpt lat="44.8941256" lon="8.8189643"><ele>116.25</ele><time>2026-04-18T14:36:54.959Z</time></trkpt><trkpt lat="44.8941112" lon="8.8187993"><ele>116.0</ele><time>2026-04-18T14:36:55.959Z</time></trkpt><trkpt lat="44.8940984" lon="8.8186273"><ele>116.75</ele><time>2026-04-18T14:36:56.958Z</time></trkpt><trkpt lat="44.8940869" lon="8.8184479"><ele>117.5</ele><time>2026-04-18T14:36:57.958Z</time></trkpt><trkpt lat="44.8940775" lon="8.818292"><ele>118.25</ele><time>2026-04-18T14:36:58.959Z</time></trkpt><trkpt lat="44.8940671" lon="8.8181177"><ele>119.0</ele><time>2026-04-18T14:36:59.959Z</time></trkpt><trkpt lat="44.8940597" lon="8.8179639"><ele>119.0</ele><time>2026-04-18T14:37:00.959Z</time></trkpt><trkpt lat="44.8940576" lon="8.8178035"><ele>119.0</ele><time>2026-04-18T14:37:01.959Z</time></trkpt><trkpt lat="44.894065" lon="8.8176412"><ele>119.0</ele><time>2026-04-18T14:37:02.958Z</time></trkpt><trkpt lat="44.8940829" lon="8.8175037"><ele>119.0</ele><time>2026-04-18T14:37:03.959Z</time></trkpt><trkpt lat="44.8941107" lon="8.8173651"><ele>119.0</ele><time>2026-04-18T14:37:04.959Z</time></trkpt><trkpt lat="44.8941306" lon="8.8172381"><ele>118.4</ele><time>2026-04-18T14:37:05.959Z</time></trkpt><trkpt lat="44.8941248" lon="8.8171138"><ele>117.80000000000001</ele><time>2026-04-18T14:37:06.958Z</time></trkpt><trkpt lat="44.8940897" lon="8.8169883"><ele>117.19999999999999</ele><time>2026-04-18T14:37:07.959Z</time></trkpt><trkpt lat="44.8940467" lon="8.8168719"><ele>116.6</ele><time>2026-04-18T14:37:08.959Z</time></trkpt><trkpt lat="44.8940032" lon="8.8167331"><ele>116.0</ele><time>2026-04-18T14:37:09.975Z</time></trkpt><trkpt lat="44.8939635" lon="8.8165712"><ele>116.0</ele><time>2026-04-18T14:37:10.975Z</time></trkpt><trkpt lat="44.8939294" lon="8.8163986"><ele>116.0</ele><time>2026-04-18T14:37:11.974Z</time></trkpt><trkpt lat="44.8938986" lon="8.8162238"><ele>116.0</ele><time>2026-04-18T14:37:12.975Z</time></trkpt><trkpt lat="44.8938723" lon="8.8160433"><ele>116.0</ele><time>2026-04-18T14:37:13.974Z</time></trkpt><trkpt lat="44.8938483" lon="8.8158563"><ele>116.25</ele><time>2026-04-18T14:37:14.975Z</time></trkpt><trkpt lat="44.8938262" lon="8.8156723"><ele>116.5</ele><time>2026-04-18T14:37:15.975Z</time></trkpt><trkpt lat="44.8938063" lon="8.8154938"><ele>116.75</ele><time>2026-04-18T14:37:16.975Z</time></trkpt><trkpt lat="44.8937878" lon="8.8153205"><ele>117.0</ele><time>2026-04-18T14:37:17.974Z</time></trkpt><trkpt lat="44.893771" lon="8.8151514"><ele>117.75</ele><time>2026-04-18T14:37:18.975Z</time></trkpt><trkpt lat="44.8937535" lon="8.8149804"><ele>118.5</ele><time>2026-04-18T14:37:19.975Z</time></trkpt><trkpt lat="44.8937364" lon="8.814807"><ele>119.25</ele><time>2026-04-18T14:37:20.974Z</time></trkpt><trkpt lat="44.8937199" lon="8.8146304"><ele>120.0</ele><time>2026-04-18T14:37:21.971Z</time></trkpt><trkpt lat="44.8937039" lon="8.8144554"><ele>118.75</ele><time>2026-04-18T14:37:22.975Z</time></trkpt><trkpt lat="44.8936859" lon="8.8142796"><ele>117.5</ele><time>2026-04-18T14:37:23.975Z</time></trkpt><trkpt lat="44.8936592" lon="8.8140888"><ele>116.25</ele><time>2026-04-18T14:37:24.975Z</time></trkpt><trkpt lat="44.8936312" lon="8.8138682"><ele>115.0</ele><time>2026-04-18T14:37:25.974Z</time></trkpt><trkpt lat="44.8936073" lon="8.8136245"><ele>114.66666666666667</ele><time>2026-04-18T14:37:26.974Z</time></trkpt><trkpt lat="44.8935862" lon="8.813376"><ele>114.33333333333334</ele><time>2026-04-18T14:37:27.975Z</time></trkpt><trkpt lat="44.8935626" lon="8.8131232"><ele>114.0</ele><time>2026-04-18T14:37:28.975Z</time></trkpt><trkpt lat="44.893542" lon="8.8128628"><ele>114.33333333333334</ele><time>2026-04-18T14:37:29.974Z</time></trkpt><trkpt lat="44.8935258" lon="8.8125896"><ele>114.66666666666667</ele><time>2026-04-18T14:37:30.975Z</time></trkpt><trkpt lat="44.8935104" lon="8.8122992"><ele>115.0</ele><time>2026-04-18T14:37:31.974Z</time></trkpt><trkpt lat="44.8934874" lon="8.8120078"><ele>115.66666666666667</ele><time>2026-04-18T14:37:32.975Z</time></trkpt><trkpt lat="44.8934597" lon="8.8117125"><ele>116.33333333333334</ele><time>2026-04-18T14:37:33.975Z</time></trkpt><trkpt lat="44.8934321" lon="8.8114142"><ele>117.0</ele><time>2026-04-18T14:37:34.975Z</time></trkpt><trkpt lat="44.8934031" lon="8.8111134"><ele>117.33333333333334</ele><time>2026-04-18T14:37:35.975Z</time></trkpt><trkpt lat="44.8933732" lon="8.810809"><ele>117.66666666666667</ele><time>2026-04-18T14:37:36.975Z</time></trkpt><trkpt lat="44.8933454" lon="8.8105021"><ele>118.0</ele><time>2026-04-18T14:37:37.975Z</time></trkpt><trkpt lat="44.8933186" lon="8.8101907"><ele>117.66666666666667</ele><time>2026-04-18T14:37:38.975Z</time></trkpt><trkpt lat="44.8932908" lon="8.809877"><ele>117.33333333333334</ele><time>2026-04-18T14:37:39.975Z</time></trkpt><trkpt lat="44.8932613" lon="8.8095625"><ele>117.0</ele><time>2026-04-18T14:37:40.975Z</time></trkpt><trkpt lat="44.893231" lon="8.8092432"><ele>117.0</ele><time>2026-04-18T14:37:41.971Z</time></trkpt><trkpt lat="44.8932" lon="8.8089199"><ele>117.0</ele><time>2026-04-18T14:37:42.975Z</time></trkpt><trkpt lat="44.8931689" lon="8.8085954"><ele>117.0</ele><time>2026-04-18T14:37:43.975Z</time></trkpt><trkpt lat="44.8931396" lon="8.8082782"><ele>117.0</ele><time>2026-04-18T14:37:44.975Z</time></trkpt><trkpt lat="44.8931097" lon="8.8079602"><ele>116.0</ele><time>2026-04-18T14:37:45.974Z</time></trkpt><trkpt lat="44.8930828" lon="8.8076446"><ele>115.0</ele><time>2026-04-18T14:37:46.975Z</time></trkpt><trkpt lat="44.8930552" lon="8.8073293"><ele>115.0</ele><time>2026-04-18T14:37:47.975Z</time></trkpt><trkpt lat="44.8930234" lon="8.8070198"><ele>115.0</ele><time>2026-04-18T14:37:48.974Z</time></trkpt><trkpt lat="44.8929921" lon="8.806715"><ele>115.0</ele><time>2026-04-18T14:37:49.975Z</time></trkpt><trkpt lat="44.8929632" lon="8.8064099"><ele>115.0</ele><time>2026-04-18T14:37:50.974Z</time></trkpt><trkpt lat="44.8929352" lon="8.8061017"><ele>115.0</ele><time>2026-04-18T14:37:51.974Z</time></trkpt><trkpt lat="44.8929067" lon="8.8057931"><ele>115.0</ele><time>2026-04-18T14:37:52.974Z</time></trkpt><trkpt lat="44.8928777" lon="8.8054842"><ele>115.33333333333334</ele><time>2026-04-18T14:37:53.975Z</time></trkpt><trkpt lat="44.8928482" lon="8.8051765"><ele>115.66666666666666</ele><time>2026-04-18T14:37:54.975Z</time></trkpt><trkpt lat="44.8928205" lon="8.8048761"><ele>116.0</ele><time>2026-04-18T14:37:55.974Z</time></trkpt><trkpt lat="44.8927946" lon="8.8045815"><ele>116.33333333333333</ele><time>2026-04-18T14:37:56.973Z</time></trkpt><trkpt lat="44.8927705" lon="8.8042956"><ele>116.66666666666666</ele><time>2026-04-18T14:37:57.975Z</time></trkpt><trkpt lat="44.8927431" lon="8.8040226"><ele>117.0</ele><time>2026-04-18T14:37:58.974Z</time></trkpt><trkpt lat="44.8927055" lon="8.80376"><ele>117.66666666666666</ele><time>2026-04-18T14:37:59.975Z</time></trkpt><trkpt lat="44.8926537" lon="8.8034962"><ele>118.33333333333333</ele><time>2026-04-18T14:38:00.975Z</time></trkpt><trkpt lat="44.8925947" lon="8.80323"><ele>119.0</ele><time>2026-04-18T14:38:01.975Z</time></trkpt><trkpt lat="44.892541" lon="8.802955"><ele>119.0</ele><time>2026-04-18T14:38:02.974Z</time></trkpt><trkpt lat="44.8925043" lon="8.8026651"><ele>119.0</ele><time>2026-04-18T14:38:03.975Z</time></trkpt><trkpt lat="44.8924795" lon="8.802363"><ele>119.0</ele><time>2026-04-18T14:38:04.974Z</time></trkpt><trkpt lat="44.8924549" lon="8.8020532"><ele>118.5</ele><time>2026-04-18T14:38:05.975Z</time></trkpt><trkpt lat="44.8924305" lon="8.8017348"><ele>118.0</ele><time>2026-04-18T14:38:06.974Z</time></trkpt><trkpt lat="44.8924077" lon="8.8014084"><ele>118.0</ele><time>2026-04-18T14:38:07.974Z</time></trkpt><trkpt lat="44.8923853" lon="8.8010795"><ele>118.0</ele><time>2026-04-18T14:38:08.975Z</time></trkpt><trkpt lat="44.8923627" lon="8.8007498"><ele>118.0</ele><time>2026-04-18T14:38:09.974Z</time></trkpt><trkpt lat="44.8923406" lon="8.8004202"><ele>118.0</ele><time>2026-04-18T14:38:10.975Z</time></trkpt><trkpt lat="44.892318" lon="8.8000896"><ele>118.0</ele><time>2026-04-18T14:38:11.975Z</time></trkpt><trkpt lat="44.8922951" lon="8.7997597"><ele>118.0</ele><time>2026-04-18T14:38:12.974Z</time></trkpt><trkpt lat="44.8922725" lon="8.7994296"><ele>117.0</ele><time>2026-04-18T14:38:13.975Z</time></trkpt><trkpt lat="44.892249" lon="8.799097"><ele>116.0</ele><time>2026-04-18T14:38:14.974Z</time></trkpt><trkpt lat="44.8922256" lon="8.7987637"><ele>115.5</ele><time>2026-04-18T14:38:15.974Z</time></trkpt><trkpt lat="44.8922022" lon="8.7984276"><ele>115.0</ele><time>2026-04-18T14:38:16.967Z</time></trkpt><trkpt lat="44.8921781" lon="8.7980882"><ele>115.0</ele><time>2026-04-18T14:38:17.974Z</time></trkpt><trkpt lat="44.8921523" lon="8.7977464"><ele>115.0</ele><time>2026-04-18T14:38:18.975Z</time></trkpt><trkpt lat="44.8921269" lon="8.7974032"><ele>115.0</ele><time>2026-04-18T14:38:19.975Z</time></trkpt><trkpt lat="44.8921004" lon="8.7970581"><ele>115.0</ele><time>2026-04-18T14:38:20.975Z</time></trkpt><trkpt lat="44.8920728" lon="8.7967126"><ele>113.5</ele><time>2026-04-18T14:38:21.974Z</time></trkpt><trkpt lat="44.8920443" lon="8.796367"><ele>112.0</ele><time>2026-04-18T14:38:22.975Z</time></trkpt><trkpt lat="44.8920157" lon="8.7960199"><ele>112.5</ele><time>2026-04-18T14:38:23.975Z</time></trkpt><trkpt lat="44.8919874" lon="8.7956719"><ele>113.0</ele><time>2026-04-18T14:38:24.974Z</time></trkpt><trkpt lat="44.8919566" lon="8.7953221"><ele>113.5</ele><time>2026-04-18T14:38:25.969Z</time></trkpt><trkpt lat="44.891925" lon="8.7949688"><ele>114.0</ele><time>2026-04-18T14:38:26.974Z</time></trkpt><trkpt lat="44.8918929" lon="8.794616"><ele>114.0</ele><time>2026-04-18T14:38:27.975Z</time></trkpt><trkpt lat="44.8918621" lon="8.79426"><ele>114.0</ele><time>2026-04-18T14:38:28.971Z</time></trkpt><trkpt lat="44.8918328" lon="8.793906"><ele>114.0</ele><time>2026-04-18T14:38:29.972Z</time></trkpt><trkpt lat="44.8918035" lon="8.7935589"><ele>114.0</ele><time>2026-04-18T14:38:30.975Z</time></trkpt><trkpt lat="44.8917755" lon="8.7932183"><ele>114.0</ele><time>2026-04-18T14:38:31.975Z</time></trkpt><trkpt lat="44.8917477" lon="8.7928859"><ele>114.0</ele><time>2026-04-18T14:38:32.972Z</time></trkpt><trkpt lat="44.8917203" lon="8.7925584"><ele>114.0</ele><time>2026-04-18T14:38:33.973Z</time></trkpt><trkpt lat="44.8916927" lon="8.7922402"><ele>114.0</ele><time>2026-04-18T14:38:34.975Z</time></trkpt><trkpt lat="44.8916671" lon="8.7919305"><ele>114.0</ele><time>2026-04-18T14:38:35.974Z</time></trkpt><trkpt lat="44.8916407" lon="8.7916272"><ele>113.66666666666666</ele><time>2026-04-18T14:38:36.967Z</time></trkpt><trkpt lat="44.8916145" lon="8.7913285"><ele>113.33333333333333</ele><time>2026-04-18T14:38:37.969Z</time></trkpt><trkpt lat="44.8915871" lon="8.7910253"><ele>113.0</ele><time>2026-04-18T14:38:38.974Z</time></trkpt><trkpt lat="44.8915613" lon="8.7907254"><ele>113.0</ele><time>2026-04-18T14:38:39.968Z</time></trkpt><trkpt lat="44.891537" lon="8.7904291"><ele>113.0</ele><time>2026-04-18T14:38:40.974Z</time></trkpt><trkpt lat="44.8915119" lon="8.7901341"><ele>113.0</ele><time>2026-04-18T14:38:41.967Z</time></trkpt><trkpt lat="44.8914865" lon="8.7898454"><ele>113.0</ele><time>2026-04-18T14:38:42.974Z</time></trkpt><trkpt lat="44.8914622" lon="8.7895671"><ele>113.0</ele><time>2026-04-18T14:38:43.968Z</time></trkpt><trkpt lat="44.8914377" lon="8.7892937"><ele>113.0</ele><time>2026-04-18T14:38:44.974Z</time></trkpt><trkpt lat="44.8914145" lon="8.7890173"><ele>113.0</ele><time>2026-04-18T14:38:45.973Z</time></trkpt><trkpt lat="44.8913915" lon="8.7887405"><ele>113.0</ele><time>2026-04-18T14:38:46.975Z</time></trkpt><trkpt lat="44.8913685" lon="8.7884754"><ele>113.0</ele><time>2026-04-18T14:38:47.975Z</time></trkpt><trkpt lat="44.8913455" lon="8.7882252"><ele>113.0</ele><time>2026-04-18T14:38:48.975Z</time></trkpt><trkpt lat="44.8913229" lon="8.787992"><ele>113.0</ele><time>2026-04-18T14:38:49.975Z</time></trkpt><trkpt lat="44.8913024" lon="8.7877749"><ele>113.0</ele><time>2026-04-18T14:38:50.975Z</time></trkpt><trkpt lat="44.8912812" lon="8.7875727"><ele>113.0</ele><time>2026-04-18T14:38:51.974Z</time></trkpt><trkpt lat="44.8912603" lon="8.7873788"><ele>113.0</ele><time>2026-04-18T14:38:52.975Z</time></trkpt><trkpt lat="44.8912403" lon="8.787187"><ele>113.0</ele><time>2026-04-18T14:38:53.975Z</time></trkpt><trkpt lat="44.8912217" lon="8.7870015"><ele>113.0</ele><time>2026-04-18T14:38:54.974Z</time></trkpt><trkpt lat="44.8912049" lon="8.7868215"><ele>113.0</ele><time>2026-04-18T14:38:55.974Z</time></trkpt><trkpt lat="44.8911858" lon="8.7866366"><ele>113.0</ele><time>2026-04-18T14:38:56.975Z</time></trkpt><trkpt lat="44.8911681" lon="8.7864484"><ele>113.0</ele><time>2026-04-18T14:38:57.975Z</time></trkpt><trkpt lat="44.8911474" lon="8.7862509"><ele>113.0</ele><time>2026-04-18T14:38:58.964Z</time></trkpt><trkpt lat="44.8911265" lon="8.7860443"><ele>113.33333333333333</ele><time>2026-04-18T14:38:59.975Z</time></trkpt><trkpt lat="44.8911062" lon="8.7858261"><ele>113.66666666666666</ele><time>2026-04-18T14:39:00.975Z</time></trkpt><trkpt lat="44.8910847" lon="8.7855998"><ele>114.0</ele><time>2026-04-18T14:39:01.971Z</time></trkpt><trkpt lat="44.8910613" lon="8.7853617"><ele>114.0</ele><time>2026-04-18T14:39:02.975Z</time></trkpt><trkpt lat="44.8910353" lon="8.7851137"><ele>114.0</ele><time>2026-04-18T14:39:03.975Z</time></trkpt><trkpt lat="44.8910077" lon="8.7848582"><ele>114.0</ele><time>2026-04-18T14:39:04.974Z</time></trkpt><trkpt lat="44.8909765" lon="8.7845902"><ele>114.33333333333334</ele><time>2026-04-18T14:39:05.975Z</time></trkpt><trkpt lat="44.8909486" lon="8.7843142"><ele>114.66666666666667</ele><time>2026-04-18T14:39:06.975Z</time></trkpt><trkpt lat="44.8909192" lon="8.7840319"><ele>115.0</ele><time>2026-04-18T14:39:07.975Z</time></trkpt><trkpt lat="44.8908891" lon="8.7837416"><ele>114.33333333333334</ele><time>2026-04-18T14:39:08.975Z</time></trkpt><trkpt lat="44.89086" lon="8.7834446"><ele>113.66666666666666</ele><time>2026-04-18T14:39:09.971Z</time></trkpt><trkpt lat="44.8908313" lon="8.7831457"><ele>113.0</ele><time>2026-04-18T14:39:10.974Z</time></trkpt><trkpt lat="44.8907989" lon="8.7828397"><ele>112.66666666666666</ele><time>2026-04-18T14:39:11.975Z</time></trkpt><trkpt lat="44.8907669" lon="8.782531"><ele>112.33333333333334</ele><time>2026-04-18T14:39:12.968Z</time></trkpt><trkpt lat="44.8907348" lon="8.7822203"><ele>112.0</ele><time>2026-04-18T14:39:13.974Z</time></trkpt><trkpt lat="44.8907027" lon="8.7819099"><ele>112.33333333333334</ele><time>2026-04-18T14:39:14.975Z</time></trkpt><trkpt lat="44.8906734" lon="8.7816071"><ele>112.66666666666666</ele><time>2026-04-18T14:39:15.975Z</time></trkpt><trkpt lat="44.8906435" lon="8.7813069"><ele>113.0</ele><time>2026-04-18T14:39:16.975Z</time></trkpt><trkpt lat="44.8906155" lon="8.7810117"><ele>113.33333333333333</ele><time>2026-04-18T14:39:17.974Z</time></trkpt><trkpt lat="44.8905877" lon="8.7807253"><ele>113.66666666666666</ele><time>2026-04-18T14:39:18.974Z</time></trkpt><trkpt lat="44.8905587" lon="8.7804433"><ele>114.0</ele><time>2026-04-18T14:39:19.974Z</time></trkpt><trkpt lat="44.8905303" lon="8.7801691"><ele>113.66666666666666</ele><time>2026-04-18T14:39:20.975Z</time></trkpt><trkpt lat="44.8905015" lon="8.7798922"><ele>113.33333333333333</ele><time>2026-04-18T14:39:21.975Z</time></trkpt><trkpt lat="44.8904706" lon="8.7796134"><ele>113.0</ele><time>2026-04-18T14:39:22.975Z</time></trkpt><trkpt lat="44.8904425" lon="8.7793344"><ele>113.0</ele><time>2026-04-18T14:39:23.974Z</time></trkpt><trkpt lat="44.890415" lon="8.7790545"><ele>113.0</ele><time>2026-04-18T14:39:24.973Z</time></trkpt><trkpt lat="44.8903879" lon="8.778775"><ele>113.0</ele><time>2026-04-18T14:39:25.975Z</time></trkpt><trkpt lat="44.8903624" lon="8.7784933"><ele>113.0</ele><time>2026-04-18T14:39:26.974Z</time></trkpt><trkpt lat="44.8903352" lon="8.7782093"><ele>113.0</ele><time>2026-04-18T14:39:27.975Z</time></trkpt><trkpt lat="44.890307" lon="8.7779301"><ele>113.0</ele><time>2026-04-18T14:39:28.975Z</time></trkpt><trkpt lat="44.8902803" lon="8.7776598"><ele>113.0</ele><time>2026-04-18T14:39:29.974Z</time></trkpt><trkpt lat="44.8902541" lon="8.7773956"><ele>113.0</ele><time>2026-04-18T14:39:30.975Z</time></trkpt><trkpt lat="44.8902272" lon="8.7771302"><ele>113.0</ele><time>2026-04-18T14:39:31.975Z</time></trkpt><trkpt lat="44.8902011" lon="8.7768628"><ele>112.66666666666666</ele><time>2026-04-18T14:39:32.974Z</time></trkpt><trkpt lat="44.8901743" lon="8.7765981"><ele>112.33333333333334</ele><time>2026-04-18T14:39:33.975Z</time></trkpt><trkpt lat="44.8901462" lon="8.7763361"><ele>112.0</ele><time>2026-04-18T14:39:34.974Z</time></trkpt><trkpt lat="44.8901197" lon="8.7760778"><ele>112.0</ele><time>2026-04-18T14:39:35.974Z</time></trkpt><trkpt lat="44.8900935" lon="8.7758298"><ele>112.0</ele><time>2026-04-18T14:39:36.968Z</time></trkpt><trkpt lat="44.8900675" lon="8.7755861"><ele>112.0</ele><time>2026-04-18T14:39:37.971Z</time></trkpt><trkpt lat="44.8900425" lon="8.7753458"><ele>112.0</ele><time>2026-04-18T14:39:38.974Z</time></trkpt><trkpt lat="44.8900179" lon="8.7751038"><ele>112.0</ele><time>2026-04-18T14:39:39.965Z</time></trkpt><trkpt lat="44.8899915" lon="8.7748569"><ele>112.0</ele><time>2026-04-18T14:39:40.974Z</time></trkpt><trkpt lat="44.8899654" lon="8.7746074"><ele>112.0</ele><time>2026-04-18T14:39:41.974Z</time></trkpt><trkpt lat="44.8899412" lon="8.7743575"><ele>112.0</ele><time>2026-04-18T14:39:42.97Z</time></trkpt><trkpt lat="44.8899197" lon="8.7741068"><ele>112.0</ele><time>2026-04-18T14:39:43.975Z</time></trkpt><trkpt lat="44.8898986" lon="8.7738607"><ele>112.66666666666667</ele><time>2026-04-18T14:39:44.975Z</time></trkpt><trkpt lat="44.8898779" lon="8.7736298"><ele>113.33333333333334</ele><time>2026-04-18T14:39:45.975Z</time></trkpt><trkpt lat="44.889856" lon="8.7734145"><ele>114.0</ele><time>2026-04-18T14:39:46.973Z</time></trkpt><trkpt lat="44.8898381" lon="8.7732091"><ele>114.0</ele><time>2026-04-18T14:39:47.975Z</time></trkpt><trkpt lat="44.889821" lon="8.7730073"><ele>114.0</ele><time>2026-04-18T14:39:48.975Z</time></trkpt><trkpt lat="44.8898013" lon="8.772801"><ele>114.0</ele><time>2026-04-18T14:39:49.973Z</time></trkpt><trkpt lat="44.8897823" lon="8.7725757"><ele>114.0</ele><time>2026-04-18T14:39:50.975Z</time></trkpt><trkpt lat="44.8897673" lon="8.7723398"><ele>114.0</ele><time>2026-04-18T14:39:51.974Z</time></trkpt><trkpt lat="44.8897517" lon="8.772096"><ele>114.0</ele><time>2026-04-18T14:39:52.975Z</time></trkpt><trkpt lat="44.8897331" lon="8.7718455"><ele>114.0</ele><time>2026-04-18T14:39:53.975Z</time></trkpt><trkpt lat="44.8897142" lon="8.7715882"><ele>114.0</ele><time>2026-04-18T14:39:54.974Z</time></trkpt><trkpt lat="44.8896956" lon="8.7713262"><ele>114.0</ele><time>2026-04-18T14:39:55.975Z</time></trkpt><trkpt lat="44.8896734" lon="8.7710582"><ele>113.66666666666666</ele><time>2026-04-18T14:39:56.97Z</time></trkpt><trkpt lat="44.8896551" lon="8.7707927"><ele>113.33333333333333</ele><time>2026-04-18T14:39:57.969Z</time></trkpt><trkpt lat="44.8896342" lon="8.770525"><ele>113.0</ele><time>2026-04-18T14:39:58.975Z</time></trkpt><trkpt lat="44.8896128" lon="8.7702579"><ele>113.0</ele><time>2026-04-18T14:39:59.975Z</time></trkpt><trkpt lat="44.889593" lon="8.7699895"><ele>113.0</ele><time>2026-04-18T14:40:00.975Z</time></trkpt><trkpt lat="44.8895737" lon="8.7697241"><ele>113.0</ele><time>2026-04-18T14:40:01.975Z</time></trkpt><trkpt lat="44.8895535" lon="8.769459"><ele>112.66666666666666</ele><time>2026-04-18T14:40:02.974Z</time></trkpt><trkpt lat="44.8895336" lon="8.7691966"><ele>112.33333333333334</ele><time>2026-04-18T14:40:03.973Z</time></trkpt><trkpt lat="44.8895135" lon="8.7689374"><ele>112.0</ele><time>2026-04-18T14:40:04.974Z</time></trkpt><trkpt lat="44.8894948" lon="8.7686829"><ele>111.66666666666667</ele><time>2026-04-18T14:40:05.969Z</time></trkpt><trkpt lat="44.8894758" lon="8.7684375"><ele>111.33333333333334</ele><time>2026-04-18T14:40:06.975Z</time></trkpt><trkpt lat="44.8894572" lon="8.7681989"><ele>111.0</ele><time>2026-04-18T14:40:07.975Z</time></trkpt><trkpt lat="44.8894402" lon="8.7679669"><ele>111.0</ele><time>2026-04-18T14:40:08.975Z</time></trkpt><trkpt lat="44.8894233" lon="8.7677404"><ele>111.0</ele><time>2026-04-18T14:40:09.975Z</time></trkpt><trkpt lat="44.889407" lon="8.7675182"><ele>111.0</ele><time>2026-04-18T14:40:10.968Z</time></trkpt><trkpt lat="44.8893912" lon="8.7672942"><ele>111.33333333333334</ele><time>2026-04-18T14:40:11.975Z</time></trkpt><trkpt lat="44.8893736" lon="8.7670726"><ele>111.66666666666667</ele><time>2026-04-18T14:40:12.974Z</time></trkpt><trkpt lat="44.8893564" lon="8.7668543"><ele>112.0</ele><time>2026-04-18T14:40:13.975Z</time></trkpt><trkpt lat="44.8893411" lon="8.7666397"><ele>112.25</ele><time>2026-04-18T14:40:14.974Z</time></trkpt><trkpt lat="44.8893262" lon="8.7664307"><ele>112.5</ele><time>2026-04-18T14:40:15.97Z</time></trkpt><trkpt lat="44.8893119" lon="8.7662246"><ele>112.75</ele><time>2026-04-18T14:40:16.973Z</time></trkpt><trkpt lat="44.889296" lon="8.7660214"><ele>113.0</ele><time>2026-04-18T14:40:17.974Z</time></trkpt><trkpt lat="44.8892778" lon="8.7658179"><ele>113.0</ele><time>2026-04-18T14:40:18.97Z</time></trkpt><trkpt lat="44.8892609" lon="8.7656143"><ele>113.0</ele><time>2026-04-18T14:40:19.975Z</time></trkpt><trkpt lat="44.8892443" lon="8.765409"><ele>113.0</ele><time>2026-04-18T14:40:20.974Z</time></trkpt><trkpt lat="44.889227" lon="8.7652028"><ele>113.0</ele><time>2026-04-18T14:40:21.975Z</time></trkpt><trkpt lat="44.889209" lon="8.7650002"><ele>113.25</ele><time>2026-04-18T14:40:22.975Z</time></trkpt><trkpt lat="44.8891952" lon="8.764812"><ele>113.5</ele><time>2026-04-18T14:40:23.975Z</time></trkpt><trkpt lat="44.8891822" lon="8.7646321"><ele>113.75</ele><time>2026-04-18T14:40:24.969Z</time></trkpt><trkpt lat="44.8891686" lon="8.7644602"><ele>114.0</ele><time>2026-04-18T14:40:25.974Z</time></trkpt><trkpt lat="44.8891553" lon="8.7642981"><ele>114.2</ele><time>2026-04-18T14:40:26.974Z</time></trkpt><trkpt lat="44.8891439" lon="8.7641517"><ele>114.4</ele><time>2026-04-18T14:40:27.975Z</time></trkpt><trkpt lat="44.8891347" lon="8.7640221"><ele>114.6</ele><time>2026-04-18T14:40:28.974Z</time></trkpt><trkpt lat="44.8891266" lon="8.7639163"><ele>114.8</ele><time>2026-04-18T14:40:29.965Z</time></trkpt><trkpt lat="44.8891098" lon="8.7637643"><ele>115.0</ele><time>2026-04-18T14:40:31.974Z</time></trkpt><trkpt lat="44.8891005" lon="8.7635933"><ele>115.0</ele><time>2026-04-18T14:40:33.975Z</time></trkpt><trkpt lat="44.8890935" lon="8.7634842"><ele>115.0</ele><time>2026-04-18T14:40:34.974Z</time></trkpt><trkpt lat="44.8890856" lon="8.7633576"><ele>115.0</ele><time>2026-04-18T14:40:35.975Z</time></trkpt><trkpt lat="44.8890762" lon="8.763209"><ele>115.0</ele><time>2026-04-18T14:40:36.971Z</time></trkpt><trkpt lat="44.889066" lon="8.7630593"><ele>115.0</ele><time>2026-04-18T14:40:37.969Z</time></trkpt><trkpt lat="44.8890535" lon="8.7629061"><ele>115.0</ele><time>2026-04-18T14:40:38.975Z</time></trkpt><trkpt lat="44.8890397" lon="8.7627434"><ele>115.0</ele><time>2026-04-18T14:40:39.974Z</time></trkpt><trkpt lat="44.8890243" lon="8.7625715"><ele>115.0</ele><time>2026-04-18T14:40:40.974Z</time></trkpt><trkpt lat="44.8890115" lon="8.7623899"><ele>115.0</ele><time>2026-04-18T14:40:41.975Z</time></trkpt><trkpt lat="44.8889969" lon="8.7621991"><ele>114.75</ele><time>2026-04-18T14:40:42.975Z</time></trkpt><trkpt lat="44.8889823" lon="8.7620038"><ele>114.5</ele><time>2026-04-18T14:40:43.975Z</time></trkpt><trkpt lat="44.8889683" lon="8.7618153"><ele>114.25</ele><time>2026-04-18T14:40:44.974Z</time></trkpt><trkpt lat="44.8889552" lon="8.7616398"><ele>114.0</ele><time>2026-04-18T14:40:45.974Z</time></trkpt><trkpt lat="44.8889452" lon="8.7614778"><ele>114.0</ele><time>2026-04-18T14:40:46.975Z</time></trkpt><trkpt lat="44.888934" lon="8.761335"><ele>114.0</ele><time>2026-04-18T14:40:47.974Z</time></trkpt><trkpt lat="44.8889241" lon="8.7612073"><ele>114.0</ele><time>2026-04-18T14:40:48.974Z</time></trkpt><trkpt lat="44.8889139" lon="8.761087"><ele>114.0</ele><time>2026-04-18T14:40:49.971Z</time></trkpt><trkpt lat="44.8889039" lon="8.7609713"><ele>114.0</ele><time>2026-04-18T14:40:50.974Z</time></trkpt><trkpt lat="44.8888955" lon="8.7608514"><ele>114.0</ele><time>2026-04-18T14:40:51.974Z</time></trkpt><trkpt lat="44.8888865" lon="8.760725"><ele>114.16666666666667</ele><time>2026-04-18T14:40:52.974Z</time></trkpt><trkpt lat="44.8888767" lon="8.7605979"><ele>114.33333333333334</ele><time>2026-04-18T14:40:53.975Z</time></trkpt><trkpt lat="44.8888657" lon="8.7604767"><ele>114.5</ele><time>2026-04-18T14:40:54.975Z</time></trkpt><trkpt lat="44.8888547" lon="8.7603658"><ele>114.66666666666667</ele><time>2026-04-18T14:40:55.972Z</time></trkpt><trkpt lat="44.888847" lon="8.7602722"><ele>114.83333333333334</ele><time>2026-04-18T14:40:56.975Z</time></trkpt><trkpt lat="44.8888284" lon="8.7601219"><ele>115.0</ele><time>2026-04-18T14:40:58.972Z</time></trkpt><trkpt lat="44.8888218" lon="8.7600145"><ele>115.0</ele><time>2026-04-18T14:41:00.975Z</time></trkpt><trkpt lat="44.8888164" lon="8.7598982"><ele>115.0</ele><time>2026-04-18T14:41:05.975Z</time></trkpt><trkpt lat="44.8888131" lon="8.7598002"><ele>115.0</ele><time>2026-04-18T14:41:06.975Z</time></trkpt><trkpt lat="44.8888086" lon="8.7596643"><ele>115.0</ele><time>2026-04-18T14:41:07.975Z</time></trkpt><trkpt lat="44.8888016" lon="8.7595217"><ele>115.0</ele><time>2026-04-18T14:41:08.975Z</time></trkpt><trkpt lat="44.888793" lon="8.7593569"><ele>114.5</ele><time>2026-04-18T14:41:09.973Z</time></trkpt><trkpt lat="44.8887797" lon="8.7591719"><ele>114.0</ele><time>2026-04-18T14:41:10.974Z</time></trkpt><trkpt lat="44.8887647" lon="8.7589765"><ele>113.5</ele><time>2026-04-18T14:41:11.975Z</time></trkpt><trkpt lat="44.8887507" lon="8.7587753"><ele>113.0</ele><time>2026-04-18T14:41:12.974Z</time></trkpt><trkpt lat="44.8887347" lon="8.7585593"><ele>112.33333333333333</ele><time>2026-04-18T14:41:13.974Z</time></trkpt><trkpt lat="44.8887147" lon="8.7583237"><ele>111.66666666666666</ele><time>2026-04-18T14:41:14.975Z</time></trkpt><trkpt lat="44.8886951" lon="8.758073"><ele>111.0</ele><time>2026-04-18T14:41:15.974Z</time></trkpt><trkpt lat="44.8886745" lon="8.7578037"><ele>111.0</ele><time>2026-04-18T14:41:16.974Z</time></trkpt><trkpt lat="44.8886515" lon="8.7575203"><ele>111.0</ele><time>2026-04-18T14:41:17.975Z</time></trkpt><trkpt lat="44.8886301" lon="8.7572391"><ele>111.0</ele><time>2026-04-18T14:41:18.975Z</time></trkpt><trkpt lat="44.8886047" lon="8.7569489"><ele>111.0</ele><time>2026-04-18T14:41:19.975Z</time></trkpt><trkpt lat="44.8885768" lon="8.756653"><ele>111.0</ele><time>2026-04-18T14:41:20.975Z</time></trkpt><trkpt lat="44.8885491" lon="8.7563506"><ele>111.0</ele><time>2026-04-18T14:41:21.972Z</time></trkpt><trkpt lat="44.8885211" lon="8.7560405"><ele>110.5</ele><time>2026-04-18T14:41:22.974Z</time></trkpt><trkpt lat="44.8884905" lon="8.7557255"><ele>110.0</ele><time>2026-04-18T14:41:23.974Z</time></trkpt><trkpt lat="44.8884592" lon="8.7554056"><ele>110.0</ele><time>2026-04-18T14:41:24.975Z</time></trkpt><trkpt lat="44.8884279" lon="8.7550815"><ele>110.0</ele><time>2026-04-18T14:41:25.974Z</time></trkpt><trkpt lat="44.888397" lon="8.7547527"><ele>111.0</ele><time>2026-04-18T14:41:26.974Z</time></trkpt><trkpt lat="44.8883657" lon="8.7544217"><ele>112.0</ele><time>2026-04-18T14:41:27.974Z</time></trkpt><trkpt lat="44.8883337" lon="8.7540866"><ele>112.0</ele><time>2026-04-18T14:41:28.975Z</time></trkpt><trkpt lat="44.8883012" lon="8.7537491"><ele>112.0</ele><time>2026-04-18T14:41:29.975Z</time></trkpt><trkpt lat="44.8882672" lon="8.753408"><ele>112.0</ele><time>2026-04-18T14:41:30.975Z</time></trkpt><trkpt lat="44.8882336" lon="8.7530647"><ele>112.0</ele><time>2026-04-18T14:41:31.975Z</time></trkpt><trkpt lat="44.8882" lon="8.7527179"><ele>111.5</ele><time>2026-04-18T14:41:32.974Z</time></trkpt><trkpt lat="44.8881674" lon="8.7523694"><ele>111.0</ele><time>2026-04-18T14:41:33.975Z</time></trkpt><trkpt lat="44.8881348" lon="8.7520175"><ele>110.0</ele><time>2026-04-18T14:41:34.974Z</time></trkpt><trkpt lat="44.8881021" lon="8.7516691"><ele>109.0</ele><time>2026-04-18T14:41:35.975Z</time></trkpt><trkpt lat="44.8880691" lon="8.7513202"><ele>108.5</ele><time>2026-04-18T14:41:36.974Z</time></trkpt><trkpt lat="44.888036" lon="8.7509683"><ele>108.0</ele><time>2026-04-18T14:41:37.975Z</time></trkpt><trkpt lat="44.888002" lon="8.7506138"><ele>108.0</ele><time>2026-04-18T14:41:38.974Z</time></trkpt><trkpt lat="44.8879675" lon="8.7502558"><ele>108.0</ele><time>2026-04-18T14:41:39.974Z</time></trkpt><trkpt lat="44.8879324" lon="8.7498972"><ele>108.5</ele><time>2026-04-18T14:41:40.975Z</time></trkpt><trkpt lat="44.8878983" lon="8.7495436"><ele>109.0</ele><time>2026-04-18T14:41:41.975Z</time></trkpt><trkpt lat="44.8878651" lon="8.7491957"><ele>109.0</ele><time>2026-04-18T14:41:42.975Z</time></trkpt><trkpt lat="44.8878322" lon="8.7488521"><ele>109.0</ele><time>2026-04-18T14:41:43.974Z</time></trkpt><trkpt lat="44.8877996" lon="8.7485101"><ele>108.5</ele><time>2026-04-18T14:41:44.975Z</time></trkpt><trkpt lat="44.887767" lon="8.7481693"><ele>108.0</ele><time>2026-04-18T14:41:45.97Z</time></trkpt><trkpt lat="44.8877343" lon="8.7478284"><ele>108.0</ele><time>2026-04-18T14:41:46.975Z</time></trkpt><trkpt lat="44.8877014" lon="8.747489"><ele>108.0</ele><time>2026-04-18T14:41:47.975Z</time></trkpt><trkpt lat="44.8876685" lon="8.7471504"><ele>107.5</ele><time>2026-04-18T14:41:48.975Z</time></trkpt><trkpt lat="44.8876366" lon="8.7468141"><ele>107.0</ele><time>2026-04-18T14:41:49.975Z</time></trkpt><trkpt lat="44.8876052" lon="8.746479"><ele>107.5</ele><time>2026-04-18T14:41:50.975Z</time></trkpt><trkpt lat="44.8875754" lon="8.7461436"><ele>108.0</ele><time>2026-04-18T14:41:51.97Z</time></trkpt><trkpt lat="44.8875445" lon="8.7458051"><ele>108.5</ele><time>2026-04-18T14:41:52.975Z</time></trkpt><trkpt lat="44.8875123" lon="8.7454638"><ele>109.0</ele><time>2026-04-18T14:41:53.974Z</time></trkpt><trkpt lat="44.887482" lon="8.7451178"><ele>109.0</ele><time>2026-04-18T14:41:54.975Z</time></trkpt><trkpt lat="44.8874521" lon="8.744768"><ele>109.0</ele><time>2026-04-18T14:41:55.975Z</time></trkpt><trkpt lat="44.8874225" lon="8.7444147"><ele>109.0</ele><time>2026-04-18T14:41:56.974Z</time></trkpt><trkpt lat="44.8873921" lon="8.7440597"><ele>109.0</ele><time>2026-04-18T14:41:57.974Z</time></trkpt><trkpt lat="44.8873609" lon="8.7437045"><ele>108.5</ele><time>2026-04-18T14:41:58.967Z</time></trkpt><trkpt lat="44.8873295" lon="8.7433477"><ele>108.0</ele><time>2026-04-18T14:41:59.975Z</time></trkpt><trkpt lat="44.8872991" lon="8.7429892"><ele>107.5</ele><time>2026-04-18T14:42:00.975Z</time></trkpt><trkpt lat="44.8872682" lon="8.7426294"><ele>107.0</ele><time>2026-04-18T14:42:01.974Z</time></trkpt><trkpt lat="44.8872366" lon="8.7422694"><ele>107.0</ele><time>2026-04-18T14:42:02.975Z</time></trkpt><trkpt lat="44.8872068" lon="8.7419123"><ele>107.0</ele><time>2026-04-18T14:42:03.975Z</time></trkpt><trkpt lat="44.8871756" lon="8.7415536"><ele>107.0</ele><time>2026-04-18T14:42:04.97Z</time></trkpt><trkpt lat="44.8871417" lon="8.7411895"><ele>107.0</ele><time>2026-04-18T14:42:05.969Z</time></trkpt><trkpt lat="44.8871078" lon="8.740822"><ele>107.0</ele><time>2026-04-18T14:42:06.968Z</time></trkpt><trkpt lat="44.8870757" lon="8.7404537"><ele>107.0</ele><time>2026-04-18T14:42:07.975Z</time></trkpt><trkpt lat="44.8870435" lon="8.7400836"><ele>107.0</ele><time>2026-04-18T14:42:08.975Z</time></trkpt><trkpt lat="44.8870107" lon="8.7397135"><ele>107.0</ele><time>2026-04-18T14:42:09.975Z</time></trkpt><trkpt lat="44.8869781" lon="8.739344"><ele>108.0</ele><time>2026-04-18T14:42:10.975Z</time></trkpt><trkpt lat="44.886946" lon="8.7389756"><ele>109.0</ele><time>2026-04-18T14:42:11.975Z</time></trkpt><trkpt lat="44.8869141" lon="8.7386063"><ele>108.0</ele><time>2026-04-18T14:42:12.97Z</time></trkpt><trkpt lat="44.886882" lon="8.7382369"><ele>107.0</ele><time>2026-04-18T14:42:13.975Z</time></trkpt><trkpt lat="44.8868498" lon="8.7378672"><ele>107.5</ele><time>2026-04-18T14:42:14.975Z</time></trkpt><trkpt lat="44.8868177" lon="8.7374975"><ele>108.0</ele><time>2026-04-18T14:42:15.974Z</time></trkpt><trkpt lat="44.8867859" lon="8.7371283"><ele>108.0</ele><time>2026-04-18T14:42:16.974Z</time></trkpt><trkpt lat="44.8867546" lon="8.7367617"><ele>108.0</ele><time>2026-04-18T14:42:17.974Z</time></trkpt><trkpt lat="44.8867235" lon="8.7363943"><ele>108.0</ele><time>2026-04-18T14:42:18.975Z</time></trkpt><trkpt lat="44.8866918" lon="8.736027"><ele>108.0</ele><time>2026-04-18T14:42:19.975Z</time></trkpt><trkpt lat="44.8866596" lon="8.7356583"><ele>108.0</ele><time>2026-04-18T14:42:20.975Z</time></trkpt><trkpt lat="44.8866272" lon="8.7352897"><ele>108.0</ele><time>2026-04-18T14:42:21.975Z</time></trkpt><trkpt lat="44.8865954" lon="8.7349235"><ele>107.5</ele><time>2026-04-18T14:42:22.974Z</time></trkpt><trkpt lat="44.886563" lon="8.7345566"><ele>107.0</ele><time>2026-04-18T14:42:23.975Z</time></trkpt><trkpt lat="44.8865307" lon="8.7341906"><ele>107.0</ele><time>2026-04-18T14:42:24.974Z</time></trkpt><trkpt lat="44.8864983" lon="8.7338251"><ele>107.0</ele><time>2026-04-18T14:42:25.975Z</time></trkpt><trkpt lat="44.8864659" lon="8.7334594"><ele>107.5</ele><time>2026-04-18T14:42:26.974Z</time></trkpt><trkpt lat="44.8864331" lon="8.7330936"><ele>108.0</ele><time>2026-04-18T14:42:27.974Z</time></trkpt><trkpt lat="44.8864011" lon="8.7327268"><ele>107.5</ele><time>2026-04-18T14:42:28.975Z</time></trkpt><trkpt lat="44.8863688" lon="8.7323576"><ele>107.0</ele><time>2026-04-18T14:42:29.974Z</time></trkpt><trkpt lat="44.8863368" lon="8.7319857"><ele>107.0</ele><time>2026-04-18T14:42:30.975Z</time></trkpt><trkpt lat="44.8863037" lon="8.7316148"><ele>107.0</ele><time>2026-04-18T14:42:31.975Z</time></trkpt><trkpt lat="44.88627" lon="8.7312471"><ele>106.0</ele><time>2026-04-18T14:42:32.975Z</time></trkpt><trkpt lat="44.8862382" lon="8.7308815"><ele>105.0</ele><time>2026-04-18T14:42:33.973Z</time></trkpt><trkpt lat="44.8862055" lon="8.7305139"><ele>105.0</ele><time>2026-04-18T14:42:34.969Z</time></trkpt><trkpt lat="44.886174" lon="8.7301477"><ele>105.0</ele><time>2026-04-18T14:42:35.975Z</time></trkpt><trkpt lat="44.8861419" lon="8.7297808"><ele>105.0</ele><time>2026-04-18T14:42:36.974Z</time></trkpt><trkpt lat="44.8861087" lon="8.7294144"><ele>105.0</ele><time>2026-04-18T14:42:37.974Z</time></trkpt><trkpt lat="44.8860776" lon="8.729048"><ele>106.0</ele><time>2026-04-18T14:42:38.975Z</time></trkpt><trkpt lat="44.8860467" lon="8.7286818"><ele>107.0</ele><time>2026-04-18T14:42:39.975Z</time></trkpt><trkpt lat="44.886015" lon="8.7283161"><ele>107.5</ele><time>2026-04-18T14:42:40.975Z</time></trkpt><trkpt lat="44.8859825" lon="8.7279499"><ele>108.0</ele><time>2026-04-18T14:42:41.974Z</time></trkpt><trkpt lat="44.8859493" lon="8.7275849"><ele>107.0</ele><time>2026-04-18T14:42:42.975Z</time></trkpt><trkpt lat="44.8859173" lon="8.7272237"><ele>106.0</ele><time>2026-04-18T14:42:43.975Z</time></trkpt><trkpt lat="44.8858858" lon="8.7268651"><ele>106.0</ele><time>2026-04-18T14:42:44.974Z</time></trkpt><trkpt lat="44.8858543" lon="8.7265083"><ele>106.0</ele><time>2026-04-18T14:42:45.974Z</time></trkpt><trkpt lat="44.8858233" lon="8.7261538"><ele>106.5</ele><time>2026-04-18T14:42:46.975Z</time></trkpt><trkpt lat="44.8857921" lon="8.7258147"><ele>107.0</ele><time>2026-04-18T14:42:47.968Z</time></trkpt><trkpt lat="44.8857615" lon="8.7254958"><ele>106.33333333333333</ele><time>2026-04-18T14:42:48.974Z</time></trkpt><trkpt lat="44.8857357" lon="8.7251987"><ele>105.66666666666666</ele><time>2026-04-18T14:42:49.975Z</time></trkpt><trkpt lat="44.8857117" lon="8.7249222"><ele>105.0</ele><time>2026-04-18T14:42:50.975Z</time></trkpt><trkpt lat="44.8856903" lon="8.7246668"><ele>105.0</ele><time>2026-04-18T14:42:51.974Z</time></trkpt><trkpt lat="44.8856703" lon="8.724427"><ele>105.0</ele><time>2026-04-18T14:42:52.974Z</time></trkpt><trkpt lat="44.8856504" lon="8.7241955"><ele>105.0</ele><time>2026-04-18T14:42:53.974Z</time></trkpt><trkpt lat="44.8856311" lon="8.7239731"><ele>105.0</ele><time>2026-04-18T14:42:54.974Z</time></trkpt><trkpt lat="44.8856117" lon="8.7237601"><ele>105.0</ele><time>2026-04-18T14:42:55.974Z</time></trkpt><trkpt lat="44.8855952" lon="8.7235604"><ele>105.0</ele><time>2026-04-18T14:42:56.974Z</time></trkpt><trkpt lat="44.885581" lon="8.7233731"><ele>105.0</ele><time>2026-04-18T14:42:57.975Z</time></trkpt><trkpt lat="44.8855662" lon="8.7232024"><ele>105.0</ele><time>2026-04-18T14:42:58.975Z</time></trkpt><trkpt lat="44.8855508" lon="8.7230501"><ele>105.0</ele><time>2026-04-18T14:42:59.972Z</time></trkpt><trkpt lat="44.8855386" lon="8.7229193"><ele>105.0</ele><time>2026-04-18T14:43:00.975Z</time></trkpt><trkpt lat="44.8855291" lon="8.7228132"><ele>105.0</ele><time>2026-04-18T14:43:01.974Z</time></trkpt><trkpt lat="44.8855187" lon="8.7226808"><ele>105.0</ele><time>2026-04-18T14:43:03.974Z</time></trkpt><trkpt lat="44.8854987" lon="8.7225145"><ele>105.0</ele><time>2026-04-18T14:43:17.975Z</time></trkpt><trkpt lat="44.8854886" lon="8.7224241"><ele>105.0</ele><time>2026-04-18T14:43:18.974Z</time></trkpt><trkpt lat="44.8854784" lon="8.72232"><ele>105.0</ele><time>2026-04-18T14:43:19.975Z</time></trkpt><trkpt lat="44.8854674" lon="8.7222022"><ele>105.0</ele><time>2026-04-18T14:43:20.971Z</time></trkpt><trkpt lat="44.8854568" lon="8.7220677"><ele>105.0</ele><time>2026-04-18T14:43:21.975Z</time></trkpt><trkpt lat="44.8854463" lon="8.7219305"><ele>105.0</ele><time>2026-04-18T14:43:22.969Z</time></trkpt><trkpt lat="44.8854338" lon="8.7217831"><ele>105.0</ele><time>2026-04-18T14:43:23.973Z</time></trkpt><trkpt lat="44.885419" lon="8.7216191"><ele>105.0</ele><time>2026-04-18T14:43:24.975Z</time></trkpt><trkpt lat="44.8854026" lon="8.7214248"><ele>105.0</ele><time>2026-04-18T14:43:25.942Z</time></trkpt><trkpt lat="44.8853844" lon="8.7212097"><ele>105.0</ele><time>2026-04-18T14:43:26.946Z</time></trkpt><trkpt lat="44.8853673" lon="8.7210042"><ele>105.0</ele><time>2026-04-18T14:43:27.944Z</time></trkpt><trkpt lat="44.8853473" lon="8.7207754"><ele>105.0</ele><time>2026-04-18T14:43:28.95Z</time></trkpt><trkpt lat="44.8853261" lon="8.7205349"><ele>105.0</ele><time>2026-04-18T14:43:29.942Z</time></trkpt><trkpt lat="44.8853059" lon="8.7202945"><ele>105.33333333333334</ele><time>2026-04-18T14:43:30.952Z</time></trkpt><trkpt lat="44.8852856" lon="8.7200504"><ele>105.66666666666667</ele><time>2026-04-18T14:43:31.952Z</time></trkpt><trkpt lat="44.8852662" lon="8.719799"><ele>106.0</ele><time>2026-04-18T14:43:32.975Z</time></trkpt><trkpt lat="44.8852456" lon="8.7195398"><ele>106.0</ele><time>2026-04-18T14:43:33.975Z</time></trkpt><trkpt lat="44.8852205" lon="8.7192751"><ele>106.0</ele><time>2026-04-18T14:43:34.974Z</time></trkpt><trkpt lat="44.8851956" lon="8.7190042"><ele>106.0</ele><time>2026-04-18T14:43:35.975Z</time></trkpt><trkpt lat="44.8851696" lon="8.7187281"><ele>106.0</ele><time>2026-04-18T14:43:36.968Z</time></trkpt><trkpt lat="44.8851439" lon="8.7184469"><ele>106.0</ele><time>2026-04-18T14:43:37.975Z</time></trkpt><trkpt lat="44.8851171" lon="8.7181589"><ele>106.0</ele><time>2026-04-18T14:43:38.975Z</time></trkpt><trkpt lat="44.8850913" lon="8.7178681"><ele>106.0</ele><time>2026-04-18T14:43:39.971Z</time></trkpt><trkpt lat="44.8850658" lon="8.7175744"><ele>106.0</ele><time>2026-04-18T14:43:40.971Z</time></trkpt><trkpt lat="44.8850418" lon="8.7172828"><ele>106.0</ele><time>2026-04-18T14:43:41.945Z</time></trkpt><trkpt lat="44.8850144" lon="8.7169613"><ele>106.0</ele><time>2026-04-18T14:43:42.948Z</time></trkpt><trkpt lat="44.8849887" lon="8.7166726"><ele>106.0</ele><time>2026-04-18T14:43:43.944Z</time></trkpt><trkpt lat="44.8849616" lon="8.7163564"><ele>106.0</ele><time>2026-04-18T14:43:44.936Z</time></trkpt><trkpt lat="44.8849354" lon="8.7160334"><ele>106.0</ele><time>2026-04-18T14:43:45.941Z</time></trkpt><trkpt lat="44.8849082" lon="8.7157065"><ele>106.0</ele><time>2026-04-18T14:43:46.935Z</time></trkpt><trkpt lat="44.8848772" lon="8.7153497"><ele>105.5</ele><time>2026-04-18T14:43:47.936Z</time></trkpt><trkpt lat="44.8848487" lon="8.715034"><ele>105.0</ele><time>2026-04-18T14:43:48.936Z</time></trkpt><trkpt lat="44.8848193" lon="8.7146975"><ele>105.5</ele><time>2026-04-18T14:43:49.936Z</time></trkpt><trkpt lat="44.8847878" lon="8.7143433"><ele>106.0</ele><time>2026-04-18T14:43:50.936Z</time></trkpt><trkpt lat="44.8847609" lon="8.714034"><ele>106.0</ele><time>2026-04-18T14:43:51.971Z</time></trkpt><trkpt lat="44.8847313" lon="8.713708"><ele>106.0</ele><time>2026-04-18T14:43:52.97Z</time></trkpt><trkpt lat="44.8847016" lon="8.7133871"><ele>106.33333333333334</ele><time>2026-04-18T14:43:53.975Z</time></trkpt><trkpt lat="44.88467" lon="8.713073"><ele>106.66666666666666</ele><time>2026-04-18T14:43:54.971Z</time></trkpt><trkpt lat="44.8846378" lon="8.7127637"><ele>107.0</ele><time>2026-04-18T14:43:55.975Z</time></trkpt><trkpt lat="44.8846059" lon="8.7124571"><ele>106.0</ele><time>2026-04-18T14:43:56.974Z</time></trkpt><trkpt lat="44.8845732" lon="8.7121545"><ele>105.0</ele><time>2026-04-18T14:43:57.968Z</time></trkpt><trkpt lat="44.8845398" lon="8.7118568"><ele>104.0</ele><time>2026-04-18T14:43:58.969Z</time></trkpt><trkpt lat="44.8845059" lon="8.7115593"><ele>104.0</ele><time>2026-04-18T14:43:59.938Z</time></trkpt><trkpt lat="44.8844713" lon="8.7112531"><ele>104.0</ele><time>2026-04-18T14:44:00.941Z</time></trkpt><trkpt lat="44.8844373" lon="8.7109496"><ele>104.0</ele><time>2026-04-18T14:44:01.946Z</time></trkpt><trkpt lat="44.8844027" lon="8.7106396"><ele>104.33333333333333</ele><time>2026-04-18T14:44:02.939Z</time></trkpt><trkpt lat="44.8843695" lon="8.710339"><ele>104.66666666666666</ele><time>2026-04-18T14:44:03.946Z</time></trkpt><trkpt lat="44.8843374" lon="8.7100456"><ele>105.0</ele><time>2026-04-18T14:44:04.951Z</time></trkpt><trkpt lat="44.8843064" lon="8.709759"><ele>105.0</ele><time>2026-04-18T14:44:05.95Z</time></trkpt><trkpt lat="44.8842747" lon="8.7094635"><ele>105.0</ele><time>2026-04-18T14:44:06.951Z</time></trkpt><trkpt lat="44.8842475" lon="8.7092062"><ele>105.0</ele><time>2026-04-18T14:44:07.95Z</time></trkpt><trkpt lat="44.8842176" lon="8.708936"><ele>105.0</ele><time>2026-04-18T14:44:08.951Z</time></trkpt><trkpt lat="44.8841845" lon="8.7086479"><ele>105.0</ele><time>2026-04-18T14:44:09.95Z</time></trkpt><trkpt lat="44.8841549" lon="8.708393"><ele>105.0</ele><time>2026-04-18T14:44:10.95Z</time></trkpt><trkpt lat="44.8841241" lon="8.7081135"><ele>105.0</ele><time>2026-04-18T14:44:11.951Z</time></trkpt><trkpt lat="44.8840925" lon="8.7078322"><ele>105.0</ele><time>2026-04-18T14:44:12.951Z</time></trkpt><trkpt lat="44.8840598" lon="8.7075303"><ele>105.0</ele><time>2026-04-18T14:44:13.95Z</time></trkpt><trkpt lat="44.8840247" lon="8.7072031"><ele>105.33333333333334</ele><time>2026-04-18T14:44:14.95Z</time></trkpt><trkpt lat="44.8839922" lon="8.7069079"><ele>105.66666666666667</ele><time>2026-04-18T14:44:15.95Z</time></trkpt><trkpt lat="44.8839569" lon="8.7065897"><ele>106.0</ele><time>2026-04-18T14:44:16.95Z</time></trkpt><trkpt lat="44.8839173" lon="8.7062764"><ele>105.33333333333334</ele><time>2026-04-18T14:44:17.951Z</time></trkpt><trkpt lat="44.8838676" lon="8.7059711"><ele>104.66666666666666</ele><time>2026-04-18T14:44:18.951Z</time></trkpt><trkpt lat="44.8838105" lon="8.7056771"><ele>104.0</ele><time>2026-04-18T14:44:19.973Z</time></trkpt><trkpt lat="44.8837374" lon="8.7054022"><ele>103.66666666666666</ele><time>2026-04-18T14:44:20.975Z</time></trkpt><trkpt lat="44.883654" lon="8.7051314"><ele>103.33333333333334</ele><time>2026-04-18T14:44:21.974Z</time></trkpt><trkpt lat="44.8835575" lon="8.7048714"><ele>103.0</ele><time>2026-04-18T14:44:22.975Z</time></trkpt><trkpt lat="44.8834518" lon="8.7046222"><ele>102.33333333333334</ele><time>2026-04-18T14:44:23.969Z</time></trkpt><trkpt lat="44.8833374" lon="8.7043783"><ele>101.66666666666666</ele><time>2026-04-18T14:44:24.975Z</time></trkpt><trkpt lat="44.8832143" lon="8.7041385"><ele>101.0</ele><time>2026-04-18T14:44:25.975Z</time></trkpt><trkpt lat="44.8830829" lon="8.7039039"><ele>101.0</ele><time>2026-04-18T14:44:26.975Z</time></trkpt><trkpt lat="44.8829485" lon="8.7036794"><ele>101.0</ele><time>2026-04-18T14:44:27.949Z</time></trkpt><trkpt lat="44.8828094" lon="8.7034561"><ele>101.0</ele><time>2026-04-18T14:44:28.939Z</time></trkpt><trkpt lat="44.8826684" lon="8.7032332"><ele>100.66666666666666</ele><time>2026-04-18T14:44:29.94Z</time></trkpt><trkpt lat="44.8825175" lon="8.7029953"><ele>100.33333333333334</ele><time>2026-04-18T14:44:30.944Z</time></trkpt><trkpt lat="44.8823857" lon="8.7027854"><ele>100.0</ele><time>2026-04-18T14:44:31.936Z</time></trkpt><trkpt lat="44.8822483" lon="8.702566"><ele>100.0</ele><time>2026-04-18T14:44:32.939Z</time></trkpt><trkpt lat="44.8821153" lon="8.7023551"><ele>100.0</ele><time>2026-04-18T14:44:33.94Z</time></trkpt><trkpt lat="44.8819773" lon="8.7021356"><ele>100.0</ele><time>2026-04-18T14:44:34.939Z</time></trkpt><trkpt lat="44.8818473" lon="8.7019223"><ele>100.33333333333334</ele><time>2026-04-18T14:44:35.939Z</time></trkpt><trkpt lat="44.881725" lon="8.7017035"><ele>100.66666666666666</ele><time>2026-04-18T14:44:36.94Z</time></trkpt><trkpt lat="44.8816193" lon="8.7014762"><ele>101.0</ele><time>2026-04-18T14:44:37.94Z</time></trkpt><trkpt lat="44.8815308" lon="8.7012359"><ele>101.0</ele><time>2026-04-18T14:44:38.94Z</time></trkpt><trkpt lat="44.8814638" lon="8.7009883"><ele>101.0</ele><time>2026-04-18T14:44:39.94Z</time></trkpt><trkpt lat="44.8814144" lon="8.7007322"><ele>101.0</ele><time>2026-04-18T14:44:40.939Z</time></trkpt><trkpt lat="44.8813813" lon="8.7004582"><ele>100.66666666666666</ele><time>2026-04-18T14:44:41.94Z</time></trkpt><trkpt lat="44.8813707" lon="8.7002198"><ele>100.33333333333334</ele><time>2026-04-18T14:44:42.94Z</time></trkpt><trkpt lat="44.8813785" lon="8.6999638"><ele>100.0</ele><time>2026-04-18T14:44:43.94Z</time></trkpt><trkpt lat="44.8814015" lon="8.6997318"><ele>100.0</ele><time>2026-04-18T14:44:44.94Z</time></trkpt><trkpt lat="44.8814384" lon="8.6995052"><ele>100.0</ele><time>2026-04-18T14:44:45.94Z</time></trkpt><trkpt lat="44.8814925" lon="8.6992695"><ele>100.0</ele><time>2026-04-18T14:44:46.94Z</time></trkpt><trkpt lat="44.8815515" lon="8.699067"><ele>100.33333333333334</ele><time>2026-04-18T14:44:47.939Z</time></trkpt><trkpt lat="44.8816263" lon="8.698856"><ele>100.66666666666666</ele><time>2026-04-18T14:44:48.94Z</time></trkpt><trkpt lat="44.8817141" lon="8.6986512"><ele>101.0</ele><time>2026-04-18T14:44:49.94Z</time></trkpt><trkpt lat="44.8818179" lon="8.6984525"><ele>101.0</ele><time>2026-04-18T14:44:50.939Z</time></trkpt><trkpt lat="44.8819357" lon="8.6982667"><ele>101.0</ele><time>2026-04-18T14:44:51.94Z</time></trkpt><trkpt lat="44.8820612" lon="8.6981026"><ele>101.0</ele><time>2026-04-18T14:44:52.94Z</time></trkpt><trkpt lat="44.8821944" lon="8.6979583"><ele>101.0</ele><time>2026-04-18T14:44:53.939Z</time></trkpt><trkpt lat="44.8823401" lon="8.6978305"><ele>101.0</ele><time>2026-04-18T14:44:54.939Z</time></trkpt><trkpt lat="44.8824827" lon="8.6977321"><ele>101.0</ele><time>2026-04-18T14:44:55.939Z</time></trkpt><trkpt lat="44.8826412" lon="8.697648"><ele>101.0</ele><time>2026-04-18T14:44:56.975Z</time></trkpt><trkpt lat="44.8828033" lon="8.6975641"><ele>101.0</ele><time>2026-04-18T14:44:57.973Z</time></trkpt><trkpt lat="44.8829671" lon="8.6974806"><ele>101.0</ele><time>2026-04-18T14:44:58.975Z</time></trkpt><trkpt lat="44.8831328" lon="8.6974022"><ele>101.0</ele><time>2026-04-18T14:44:59.975Z</time></trkpt><trkpt lat="44.883299" lon="8.6973205"><ele>101.0</ele><time>2026-04-18T14:45:00.975Z</time></trkpt><trkpt lat="44.8834627" lon="8.6972402"><ele>101.0</ele><time>2026-04-18T14:45:01.973Z</time></trkpt><trkpt lat="44.8836208" lon="8.6971626"><ele>101.0</ele><time>2026-04-18T14:45:02.975Z</time></trkpt><trkpt lat="44.8837761" lon="8.6970859"><ele>101.0</ele><time>2026-04-18T14:45:03.961Z</time></trkpt><trkpt lat="44.8839295" lon="8.6970093"><ele>101.0</ele><time>2026-04-18T14:45:04.974Z</time></trkpt><trkpt lat="44.8840784" lon="8.6969372"><ele>101.33333333333333</ele><time>2026-04-18T14:45:05.972Z</time></trkpt><trkpt lat="44.8842293" lon="8.6968616"><ele>101.66666666666666</ele><time>2026-04-18T14:45:06.969Z</time></trkpt><trkpt lat="44.884386" lon="8.6967869"><ele>102.0</ele><time>2026-04-18T14:45:07.974Z</time></trkpt><trkpt lat="44.8845457" lon="8.6967027"><ele>102.0</ele><time>2026-04-18T14:45:08.969Z</time></trkpt><trkpt lat="44.8847095" lon="8.6966096"><ele>102.0</ele><time>2026-04-18T14:45:09.967Z</time></trkpt><trkpt lat="44.8848731" lon="8.6964966"><ele>102.0</ele><time>2026-04-18T14:45:10.968Z</time></trkpt><trkpt lat="44.8850394" lon="8.6963718"><ele>101.33333333333334</ele><time>2026-04-18T14:45:11.967Z</time></trkpt><trkpt lat="44.8852095" lon="8.6962341"><ele>100.66666666666667</ele><time>2026-04-18T14:45:12.974Z</time></trkpt><trkpt lat="44.8853823" lon="8.69609"><ele>100.0</ele><time>2026-04-18T14:45:13.975Z</time></trkpt><trkpt lat="44.8855513" lon="8.6959421"><ele>100.0</ele><time>2026-04-18T14:45:14.971Z</time></trkpt><trkpt lat="44.8857117" lon="8.6957862"><ele>100.0</ele><time>2026-04-18T14:45:15.974Z</time></trkpt><trkpt lat="44.8858611" lon="8.6956197"><ele>100.0</ele><time>2026-04-18T14:45:16.974Z</time></trkpt><trkpt lat="44.885998" lon="8.6954409"><ele>100.0</ele><time>2026-04-18T14:45:17.97Z</time></trkpt><trkpt lat="44.8861271" lon="8.6952537"><ele>100.0</ele><time>2026-04-18T14:45:18.975Z</time></trkpt><trkpt lat="44.8862519" lon="8.6950568"><ele>100.0</ele><time>2026-04-18T14:45:19.974Z</time></trkpt><trkpt lat="44.886374" lon="8.6948491"><ele>100.0</ele><time>2026-04-18T14:45:20.975Z</time></trkpt><trkpt lat="44.8864918" lon="8.6946306"><ele>100.0</ele><time>2026-04-18T14:45:21.972Z</time></trkpt><trkpt lat="44.8866063" lon="8.6944017"><ele>100.0</ele><time>2026-04-18T14:45:22.968Z</time></trkpt><trkpt lat="44.886721" lon="8.6941656"><ele>99.33333333333334</ele><time>2026-04-18T14:45:23.974Z</time></trkpt><trkpt lat="44.8868375" lon="8.6939251"><ele>98.66666666666666</ele><time>2026-04-18T14:45:24.965Z</time></trkpt><trkpt lat="44.8869522" lon="8.6936864"><ele>98.0</ele><time>2026-04-18T14:45:25.969Z</time></trkpt><trkpt lat="44.8870641" lon="8.6934538"><ele>98.0</ele><time>2026-04-18T14:45:26.975Z</time></trkpt><trkpt lat="44.8871746" lon="8.6932245"><ele>98.0</ele><time>2026-04-18T14:45:27.972Z</time></trkpt><trkpt lat="44.8872818" lon="8.6930017"><ele>98.0</ele><time>2026-04-18T14:45:28.975Z</time></trkpt><trkpt lat="44.8873876" lon="8.6927818"><ele>97.66666666666666</ele><time>2026-04-18T14:45:29.975Z</time></trkpt><trkpt lat="44.887491" lon="8.6925611"><ele>97.33333333333334</ele><time>2026-04-18T14:45:30.973Z</time></trkpt><trkpt lat="44.887597" lon="8.6923398"><ele>97.0</ele><time>2026-04-18T14:45:31.973Z</time></trkpt><trkpt lat="44.8877032" lon="8.6921192"><ele>97.0</ele><time>2026-04-18T14:45:32.969Z</time></trkpt><trkpt lat="44.8878105" lon="8.6918927"><ele>97.0</ele><time>2026-04-18T14:45:33.968Z</time></trkpt><trkpt lat="44.8879157" lon="8.6916655"><ele>97.0</ele><time>2026-04-18T14:45:34.973Z</time></trkpt><trkpt lat="44.8880183" lon="8.6914393"><ele>97.0</ele><time>2026-04-18T14:45:35.971Z</time></trkpt><trkpt lat="44.8881216" lon="8.6912123"><ele>97.0</ele><time>2026-04-18T14:45:36.972Z</time></trkpt><trkpt lat="44.8882249" lon="8.6909928"><ele>97.0</ele><time>2026-04-18T14:45:37.974Z</time></trkpt><trkpt lat="44.8883256" lon="8.6907813"><ele>97.0</ele><time>2026-04-18T14:45:38.973Z</time></trkpt><trkpt lat="44.8884249" lon="8.6905721"><ele>97.0</ele><time>2026-04-18T14:45:39.974Z</time></trkpt><trkpt lat="44.8885241" lon="8.6903628"><ele>97.0</ele><time>2026-04-18T14:45:40.975Z</time></trkpt><trkpt lat="44.8886229" lon="8.6901501"><ele>96.66666666666667</ele><time>2026-04-18T14:45:41.967Z</time></trkpt><trkpt lat="44.8887226" lon="8.6899379"><ele>96.33333333333334</ele><time>2026-04-18T14:45:42.974Z</time></trkpt><trkpt lat="44.8888206" lon="8.6897316"><ele>96.0</ele><time>2026-04-18T14:45:43.973Z</time></trkpt><trkpt lat="44.8889134" lon="8.6895313"><ele>96.0</ele><time>2026-04-18T14:45:44.97Z</time></trkpt><trkpt lat="44.8890062" lon="8.6893337"><ele>96.0</ele><time>2026-04-18T14:45:45.975Z</time></trkpt><trkpt lat="44.8890969" lon="8.6891405"><ele>96.0</ele><time>2026-04-18T14:45:46.975Z</time></trkpt><trkpt lat="44.889185" lon="8.6889522"><ele>96.0</ele><time>2026-04-18T14:45:47.969Z</time></trkpt><trkpt lat="44.8892744" lon="8.6887644"><ele>96.0</ele><time>2026-04-18T14:45:48.968Z</time></trkpt><trkpt lat="44.8893623" lon="8.6885801"><ele>96.0</ele><time>2026-04-18T14:45:49.974Z</time></trkpt><trkpt lat="44.8894493" lon="8.6883967"><ele>96.0</ele><time>2026-04-18T14:45:50.975Z</time></trkpt><trkpt lat="44.8895365" lon="8.6882153"><ele>96.0</ele><time>2026-04-18T14:45:51.968Z</time></trkpt><trkpt lat="44.8896233" lon="8.6880294"><ele>96.0</ele><time>2026-04-18T14:45:52.974Z</time></trkpt><trkpt lat="44.8897116" lon="8.6878412"><ele>96.0</ele><time>2026-04-18T14:45:53.972Z</time></trkpt><trkpt lat="44.8898003" lon="8.6876532"><ele>96.0</ele><time>2026-04-18T14:45:54.97Z</time></trkpt><trkpt lat="44.88989" lon="8.687466"><ele>96.0</ele><time>2026-04-18T14:45:55.975Z</time></trkpt><trkpt lat="44.8899821" lon="8.6872739"><ele>96.0</ele><time>2026-04-18T14:45:56.974Z</time></trkpt><trkpt lat="44.8900763" lon="8.6870776"><ele>96.0</ele><time>2026-04-18T14:45:57.968Z</time></trkpt><trkpt lat="44.8901715" lon="8.6868754"><ele>96.0</ele><time>2026-04-18T14:45:58.974Z</time></trkpt><trkpt lat="44.890268" lon="8.6866672"><ele>96.33333333333334</ele><time>2026-04-18T14:45:59.97Z</time></trkpt><trkpt lat="44.8903656" lon="8.6864578"><ele>96.66666666666667</ele><time>2026-04-18T14:46:00.975Z</time></trkpt><trkpt lat="44.8904667" lon="8.6862482"><ele>97.0</ele><time>2026-04-18T14:46:01.975Z</time></trkpt><trkpt lat="44.8905668" lon="8.6860387"><ele>97.0</ele><time>2026-04-18T14:46:02.975Z</time></trkpt><trkpt lat="44.8906661" lon="8.6858312"><ele>97.0</ele><time>2026-04-18T14:46:03.972Z</time></trkpt><trkpt lat="44.8907667" lon="8.6856187"><ele>97.0</ele><time>2026-04-18T14:46:04.97Z</time></trkpt><trkpt lat="44.8908679" lon="8.6853949"><ele>96.33333333333334</ele><time>2026-04-18T14:46:05.975Z</time></trkpt><trkpt lat="44.8909715" lon="8.6851513"><ele>95.66666666666667</ele><time>2026-04-18T14:46:06.974Z</time></trkpt><trkpt lat="44.8910814" lon="8.6848927"><ele>95.0</ele><time>2026-04-18T14:46:07.974Z</time></trkpt><trkpt lat="44.8912011" lon="8.6846299"><ele>95.66666666666667</ele><time>2026-04-18T14:46:08.974Z</time></trkpt><trkpt lat="44.8913277" lon="8.6843647"><ele>96.33333333333334</ele><time>2026-04-18T14:46:09.972Z</time></trkpt><trkpt lat="44.8914529" lon="8.6841084"><ele>97.0</ele><time>2026-04-18T14:46:10.97Z</time></trkpt><trkpt lat="44.8915709" lon="8.683855"><ele>97.0</ele><time>2026-04-18T14:46:11.975Z</time></trkpt><trkpt lat="44.8916767" lon="8.6836076"><ele>97.0</ele><time>2026-04-18T14:46:12.965Z</time></trkpt><trkpt lat="44.8917745" lon="8.68336"><ele>97.0</ele><time>2026-04-18T14:46:13.975Z</time></trkpt><trkpt lat="44.8918636" lon="8.6831148"><ele>96.33333333333334</ele><time>2026-04-18T14:46:14.974Z</time></trkpt><trkpt lat="44.8919458" lon="8.6828731"><ele>95.66666666666667</ele><time>2026-04-18T14:46:15.975Z</time></trkpt><trkpt lat="44.8920244" lon="8.6826336"><ele>95.0</ele><time>2026-04-18T14:46:16.974Z</time></trkpt><trkpt lat="44.8921014" lon="8.6823943"><ele>94.66666666666667</ele><time>2026-04-18T14:46:17.974Z</time></trkpt><trkpt lat="44.8921746" lon="8.6821547"><ele>94.33333333333333</ele><time>2026-04-18T14:46:18.972Z</time></trkpt><trkpt lat="44.8922439" lon="8.6819131"><ele>94.0</ele><time>2026-04-18T14:46:19.975Z</time></trkpt><trkpt lat="44.8923075" lon="8.6816778"><ele>94.0</ele><time>2026-04-18T14:46:20.971Z</time></trkpt><trkpt lat="44.8923679" lon="8.6814479"><ele>94.0</ele><time>2026-04-18T14:46:21.975Z</time></trkpt><trkpt lat="44.8924225" lon="8.6812207"><ele>94.0</ele><time>2026-04-18T14:46:22.975Z</time></trkpt><trkpt lat="44.89247" lon="8.6809951"><ele>94.33333333333333</ele><time>2026-04-18T14:46:23.975Z</time></trkpt><trkpt lat="44.8925115" lon="8.6807678"><ele>94.66666666666667</ele><time>2026-04-18T14:46:24.975Z</time></trkpt><trkpt lat="44.8925488" lon="8.6805249"><ele>95.0</ele><time>2026-04-18T14:46:25.974Z</time></trkpt><trkpt lat="44.8925881" lon="8.6802723"><ele>94.33333333333334</ele><time>2026-04-18T14:46:26.969Z</time></trkpt><trkpt lat="44.8926316" lon="8.6800126"><ele>93.66666666666667</ele><time>2026-04-18T14:46:27.973Z</time></trkpt><trkpt lat="44.8926762" lon="8.6797505"><ele>93.0</ele><time>2026-04-18T14:46:28.975Z</time></trkpt><trkpt lat="44.8927212" lon="8.6794943"><ele>93.0</ele><time>2026-04-18T14:46:29.972Z</time></trkpt><trkpt lat="44.8927626" lon="8.6792428"><ele>93.0</ele><time>2026-04-18T14:46:30.974Z</time></trkpt><trkpt lat="44.8928025" lon="8.6789955"><ele>93.0</ele><time>2026-04-18T14:46:31.974Z</time></trkpt><trkpt lat="44.8928399" lon="8.6787573"><ele>93.66666666666667</ele><time>2026-04-18T14:46:32.974Z</time></trkpt><trkpt lat="44.8928791" lon="8.6785297"><ele>94.33333333333334</ele><time>2026-04-18T14:46:33.973Z</time></trkpt><trkpt lat="44.8929177" lon="8.6783085"><ele>95.0</ele><time>2026-04-18T14:46:34.973Z</time></trkpt><trkpt lat="44.8929561" lon="8.6780964"><ele>95.0</ele><time>2026-04-18T14:46:35.975Z</time></trkpt><trkpt lat="44.8929916" lon="8.6778903"><ele>95.0</ele><time>2026-04-18T14:46:36.975Z</time></trkpt><trkpt lat="44.8930254" lon="8.6776878"><ele>95.0</ele><time>2026-04-18T14:46:37.975Z</time></trkpt><trkpt lat="44.8930585" lon="8.6774959"><ele>95.0</ele><time>2026-04-18T14:46:38.972Z</time></trkpt><trkpt lat="44.8930881" lon="8.6773167"><ele>94.66666666666667</ele><time>2026-04-18T14:46:39.973Z</time></trkpt><trkpt lat="44.8931131" lon="8.6771615"><ele>94.33333333333334</ele><time>2026-04-18T14:46:40.975Z</time></trkpt><trkpt lat="44.8931333" lon="8.6770377"><ele>94.0</ele><time>2026-04-18T14:46:41.974Z</time></trkpt><trkpt lat="44.8931513" lon="8.6769367"><ele>93.66666666666667</ele><time>2026-04-18T14:46:42.975Z</time></trkpt><trkpt lat="44.8931679" lon="8.6768354"><ele>93.33333333333333</ele><time>2026-04-18T14:46:43.971Z</time></trkpt><trkpt lat="44.8931828" lon="8.6767301"><ele>93.0</ele><time>2026-04-18T14:46:44.974Z</time></trkpt><trkpt lat="44.8932012" lon="8.6766182"><ele>92.80000000000001</ele><time>2026-04-18T14:46:45.974Z</time></trkpt><trkpt lat="44.8932194" lon="8.6765164"><ele>92.6</ele><time>2026-04-18T14:46:46.975Z</time></trkpt><trkpt lat="44.8932494" lon="8.67637"><ele>92.4</ele><time>2026-04-18T14:46:48.975Z</time></trkpt><trkpt lat="44.8932829" lon="8.6762363"><ele>92.19999999999999</ele><time>2026-04-18T14:46:50.973Z</time></trkpt><trkpt lat="44.8933389" lon="8.6760971"><ele>92.0</ele><time>2026-04-18T14:46:52.967Z</time></trkpt><trkpt lat="44.8933804" lon="8.6760255"><ele>91.66666666666667</ele><time>2026-04-18T14:46:53.969Z</time></trkpt><trkpt lat="44.8934336" lon="8.6759591"><ele>91.33333333333334</ele><time>2026-04-18T14:46:54.974Z</time></trkpt><trkpt lat="44.8934985" lon="8.675893"><ele>91.0</ele><time>2026-04-18T14:46:55.975Z</time></trkpt><trkpt lat="44.8935679" lon="8.675823"><ele>90.66666666666667</ele><time>2026-04-18T14:46:56.972Z</time></trkpt><trkpt lat="44.8936319" lon="8.6757395"><ele>90.33333333333333</ele><time>2026-04-18T14:46:57.97Z</time></trkpt><trkpt lat="44.8936821" lon="8.6756348"><ele>90.0</ele><time>2026-04-18T14:46:58.971Z</time></trkpt><trkpt lat="44.8937081" lon="8.6755122"><ele>90.0</ele><time>2026-04-18T14:46:59.972Z</time></trkpt><trkpt lat="44.8937063" lon="8.6753783"><ele>90.0</ele><time>2026-04-18T14:47:00.974Z</time></trkpt><trkpt lat="44.8936813" lon="8.6752303"><ele>90.0</ele><time>2026-04-18T14:47:01.974Z</time></trkpt><trkpt lat="44.8936448" lon="8.6750558"><ele>90.0</ele><time>2026-04-18T14:47:02.975Z</time></trkpt><trkpt lat="44.8936316" lon="8.674861"><ele>90.66666666666667</ele><time>2026-04-18T14:47:03.975Z</time></trkpt><trkpt lat="44.8936357" lon="8.6746447"><ele>91.33333333333334</ele><time>2026-04-18T14:47:04.975Z</time></trkpt><trkpt lat="44.893655" lon="8.6744039"><ele>92.0</ele><time>2026-04-18T14:47:05.969Z</time></trkpt><trkpt lat="44.8936851" lon="8.674137"><ele>92.33333333333334</ele><time>2026-04-18T14:47:06.967Z</time></trkpt><trkpt lat="44.8937264" lon="8.6738501"><ele>92.66666666666667</ele><time>2026-04-18T14:47:07.967Z</time></trkpt><trkpt lat="44.8937709" lon="8.6735658"><ele>93.0</ele><time>2026-04-18T14:47:08.975Z</time></trkpt><trkpt lat="44.893818" lon="8.6732668"><ele>94.0</ele><time>2026-04-18T14:47:09.97Z</time></trkpt><trkpt lat="44.8938648" lon="8.6729657"><ele>95.0</ele><time>2026-04-18T14:47:10.967Z</time></trkpt><trkpt lat="44.8939107" lon="8.6726666"><ele>96.0</ele><time>2026-04-18T14:47:11.974Z</time></trkpt><trkpt lat="44.8939576" lon="8.6723684"><ele>96.0</ele><time>2026-04-18T14:47:12.967Z</time></trkpt><trkpt lat="44.8940039" lon="8.6720706"><ele>96.0</ele><time>2026-04-18T14:47:13.972Z</time></trkpt><trkpt lat="44.8940486" lon="8.6717698"><ele>96.0</ele><time>2026-04-18T14:47:14.974Z</time></trkpt><trkpt lat="44.8940949" lon="8.6714702"><ele>95.66666666666667</ele><time>2026-04-18T14:47:15.975Z</time></trkpt><trkpt lat="44.8941417" lon="8.671173"><ele>95.33333333333334</ele><time>2026-04-18T14:47:16.97Z</time></trkpt><trkpt lat="44.8941869" lon="8.6708788"><ele>95.0</ele><time>2026-04-18T14:47:17.971Z</time></trkpt><trkpt lat="44.8942316" lon="8.6705918"><ele>95.0</ele><time>2026-04-18T14:47:18.968Z</time></trkpt><trkpt lat="44.8942748" lon="8.6703084"><ele>95.0</ele><time>2026-04-18T14:47:19.974Z</time></trkpt><trkpt lat="44.8943196" lon="8.670024"><ele>95.0</ele><time>2026-04-18T14:47:20.974Z</time></trkpt><trkpt lat="44.8943797" lon="8.6697477"><ele>95.0</ele><time>2026-04-18T14:47:21.974Z</time></trkpt><trkpt lat="44.8944638" lon="8.6694806"><ele>95.0</ele><time>2026-04-18T14:47:22.975Z</time></trkpt><trkpt lat="44.8945727" lon="8.6692266"><ele>95.0</ele><time>2026-04-18T14:47:23.971Z</time></trkpt><trkpt lat="44.8946922" lon="8.6689968"><ele>94.0</ele><time>2026-04-18T14:47:24.975Z</time></trkpt><trkpt lat="44.8948135" lon="8.6687886"><ele>93.0</ele><time>2026-04-18T14:47:25.972Z</time></trkpt><trkpt lat="44.894938" lon="8.6686052"><ele>92.0</ele><time>2026-04-18T14:47:26.975Z</time></trkpt><trkpt lat="44.8950591" lon="8.6684302"><ele>92.33333333333334</ele><time>2026-04-18T14:47:27.974Z</time></trkpt><trkpt lat="44.8951748" lon="8.6682563"><ele>92.66666666666667</ele><time>2026-04-18T14:47:28.975Z</time></trkpt><trkpt lat="44.8952845" lon="8.6680732"><ele>93.0</ele><time>2026-04-18T14:47:29.97Z</time></trkpt><trkpt lat="44.8953895" lon="8.6678763"><ele>92.33333333333333</ele><time>2026-04-18T14:47:30.975Z</time></trkpt><trkpt lat="44.8954842" lon="8.6676636"><ele>91.66666666666666</ele><time>2026-04-18T14:47:31.975Z</time></trkpt><trkpt lat="44.8955702" lon="8.6674437"><ele>91.0</ele><time>2026-04-18T14:47:32.974Z</time></trkpt><trkpt lat="44.8956504" lon="8.6672268"><ele>91.0</ele><time>2026-04-18T14:47:33.975Z</time></trkpt><trkpt lat="44.8957243" lon="8.667019"><ele>91.0</ele><time>2026-04-18T14:47:34.974Z</time></trkpt><trkpt lat="44.8957929" lon="8.666837"><ele>91.0</ele><time>2026-04-18T14:47:35.971Z</time></trkpt><trkpt lat="44.8958583" lon="8.6666964"><ele>91.0</ele><time>2026-04-18T14:47:36.975Z</time></trkpt><trkpt lat="44.8959179" lon="8.6666023"><ele>91.66666666666666</ele><time>2026-04-18T14:47:37.975Z</time></trkpt><trkpt lat="44.8959872" lon="8.6665406"><ele>92.33333333333333</ele><time>2026-04-18T14:47:38.974Z</time></trkpt><trkpt lat="44.8960549" lon="8.6664973"><ele>93.0</ele><time>2026-04-18T14:47:39.975Z</time></trkpt><trkpt lat="44.8961422" lon="8.6663988"><ele>93.66666666666667</ele><time>2026-04-18T14:47:41.963Z</time></trkpt><trkpt lat="44.8961806" lon="8.6663256"><ele>94.33333333333334</ele><time>2026-04-18T14:47:43.975Z</time></trkpt><trkpt lat="44.8961348" lon="8.6663946"><ele>95.0</ele><time>2026-04-18T14:50:21.968Z</time></trkpt><trkpt lat="44.8961827" lon="8.6662914"><ele>95.0</ele><time>2026-04-18T14:50:24.974Z</time></trkpt><trkpt lat="44.8961671" lon="8.6661965"><ele>95.0</ele><time>2026-04-18T14:50:27.966Z</time></trkpt><trkpt lat="44.8961703" lon="8.6660818"><ele>95.0</ele><time>2026-04-18T14:50:31.974Z</time></trkpt><trkpt lat="44.8961472" lon="8.6659871"><ele>95.0</ele><time>2026-04-18T14:51:16.974Z</time></trkpt><trkpt lat="44.8961533" lon="8.6658499"><ele>95.0</ele><time>2026-04-18T14:51:18.975Z</time></trkpt><trkpt lat="44.8961877" lon="8.6657439"><ele>95.0</ele><time>2026-04-18T14:51:19.975Z</time></trkpt><trkpt lat="44.8962367" lon="8.6656346"><ele>95.0</ele><time>2026-04-18T14:51:20.975Z</time></trkpt><trkpt lat="44.8963007" lon="8.6655046"><ele>95.0</ele><time>2026-04-18T14:51:21.974Z</time></trkpt><trkpt lat="44.8963794" lon="8.6653521"><ele>95.0</ele><time>2026-04-18T14:51:22.975Z</time></trkpt><trkpt lat="44.8964647" lon="8.6651853"><ele>95.0</ele><time>2026-04-18T14:51:23.975Z</time></trkpt><trkpt lat="44.8965492" lon="8.6650145"><ele>95.0</ele><time>2026-04-18T14:51:24.975Z</time></trkpt><trkpt lat="44.896635" lon="8.6648326"><ele>95.0</ele><time>2026-04-18T14:51:25.966Z</time></trkpt><trkpt lat="44.8967241" lon="8.6646416"><ele>95.0</ele><time>2026-04-18T14:51:26.974Z</time></trkpt><trkpt lat="44.8968177" lon="8.6644413"><ele>93.66666666666667</ele><time>2026-04-18T14:51:27.972Z</time></trkpt><trkpt lat="44.8969105" lon="8.6642388"><ele>92.33333333333333</ele><time>2026-04-18T14:51:28.975Z</time></trkpt><trkpt lat="44.8970063" lon="8.6640346"><ele>91.0</ele><time>2026-04-18T14:51:29.971Z</time></trkpt><trkpt lat="44.8971023" lon="8.6638286"><ele>91.0</ele><time>2026-04-18T14:51:30.972Z</time></trkpt><trkpt lat="44.8971939" lon="8.6636243"><ele>91.0</ele><time>2026-04-18T14:51:31.972Z</time></trkpt><trkpt lat="44.8972883" lon="8.6634234"><ele>91.0</ele><time>2026-04-18T14:51:32.975Z</time></trkpt><trkpt lat="44.897384" lon="8.6632131"><ele>91.0</ele><time>2026-04-18T14:51:33.974Z</time></trkpt><trkpt lat="44.8974819" lon="8.6629949"><ele>91.0</ele><time>2026-04-18T14:51:34.97Z</time></trkpt><trkpt lat="44.8975831" lon="8.6627716"><ele>91.0</ele><time>2026-04-18T14:51:35.974Z</time></trkpt><trkpt lat="44.897689" lon="8.6625479"><ele>91.0</ele><time>2026-04-18T14:51:36.968Z</time></trkpt><trkpt lat="44.8977958" lon="8.6623225"><ele>91.0</ele><time>2026-04-18T14:51:37.973Z</time></trkpt><trkpt lat="44.8978987" lon="8.6620958"><ele>91.0</ele><time>2026-04-18T14:51:38.97Z</time></trkpt><trkpt lat="44.8980031" lon="8.6618679"><ele>91.0</ele><time>2026-04-18T14:51:39.974Z</time></trkpt><trkpt lat="44.8981087" lon="8.6616392"><ele>91.0</ele><time>2026-04-18T14:51:40.975Z</time></trkpt><trkpt lat="44.8982142" lon="8.6614026"><ele>91.0</ele><time>2026-04-18T14:51:41.967Z</time></trkpt><trkpt lat="44.8983209" lon="8.6611644"><ele>90.33333333333333</ele><time>2026-04-18T14:51:42.975Z</time></trkpt><trkpt lat="44.8984299" lon="8.6609247"><ele>89.66666666666667</ele><time>2026-04-18T14:51:43.975Z</time></trkpt><trkpt lat="44.8985416" lon="8.660683"><ele>89.0</ele><time>2026-04-18T14:51:44.974Z</time></trkpt><trkpt lat="44.8986571" lon="8.6604452"><ele>89.0</ele><time>2026-04-18T14:51:45.975Z</time></trkpt><trkpt lat="44.8987744" lon="8.6602135"><ele>89.0</ele><time>2026-04-18T14:51:46.975Z</time></trkpt><trkpt lat="44.8988886" lon="8.6599892"><ele>89.0</ele><time>2026-04-18T14:51:47.975Z</time></trkpt><trkpt lat="44.8990066" lon="8.6597611"><ele>89.0</ele><time>2026-04-18T14:51:48.975Z</time></trkpt><trkpt lat="44.8991226" lon="8.6595339"><ele>89.0</ele><time>2026-04-18T14:51:49.974Z</time></trkpt><trkpt lat="44.8992337" lon="8.6593135"><ele>89.0</ele><time>2026-04-18T14:51:50.974Z</time></trkpt><trkpt lat="44.899343" lon="8.6590922"><ele>89.33333333333334</ele><time>2026-04-18T14:51:51.975Z</time></trkpt><trkpt lat="44.8994507" lon="8.6588653"><ele>89.66666666666667</ele><time>2026-04-18T14:51:52.974Z</time></trkpt><trkpt lat="44.8995583" lon="8.6586321"><ele>90.0</ele><time>2026-04-18T14:51:53.975Z</time></trkpt><trkpt lat="44.8996659" lon="8.6583968"><ele>90.0</ele><time>2026-04-18T14:51:54.974Z</time></trkpt><trkpt lat="44.8997735" lon="8.6581616"><ele>90.0</ele><time>2026-04-18T14:51:55.975Z</time></trkpt><trkpt lat="44.8998804" lon="8.6579226"><ele>90.0</ele><time>2026-04-18T14:51:56.974Z</time></trkpt><trkpt lat="44.89999" lon="8.6576832"><ele>91.0</ele><time>2026-04-18T14:51:57.975Z</time></trkpt><trkpt lat="44.9001011" lon="8.6574409"><ele>92.0</ele><time>2026-04-18T14:51:58.975Z</time></trkpt><trkpt lat="44.900212" lon="8.6571963"><ele>93.0</ele><time>2026-04-18T14:51:59.975Z</time></trkpt><trkpt lat="44.9003225" lon="8.6569528"><ele>93.0</ele><time>2026-04-18T14:52:00.974Z</time></trkpt><trkpt lat="44.9004308" lon="8.6567199"><ele>93.0</ele><time>2026-04-18T14:52:01.975Z</time></trkpt><trkpt lat="44.9005365" lon="8.6564931"><ele>93.0</ele><time>2026-04-18T14:52:02.975Z</time></trkpt><trkpt lat="44.9006387" lon="8.6562725"><ele>92.66666666666667</ele><time>2026-04-18T14:52:03.975Z</time></trkpt><trkpt lat="44.900737" lon="8.6560632"><ele>92.33333333333334</ele><time>2026-04-18T14:52:04.975Z</time></trkpt><trkpt lat="44.9008296" lon="8.6558604"><ele>92.0</ele><time>2026-04-18T14:52:05.974Z</time></trkpt><trkpt lat="44.9009191" lon="8.6556661"><ele>91.5</ele><time>2026-04-18T14:52:06.974Z</time></trkpt><trkpt lat="44.9010027" lon="8.6554804"><ele>91.0</ele><time>2026-04-18T14:52:07.974Z</time></trkpt><trkpt lat="44.9010838" lon="8.655303"><ele>90.5</ele><time>2026-04-18T14:52:08.974Z</time></trkpt><trkpt lat="44.9011596" lon="8.6551385"><ele>90.0</ele><time>2026-04-18T14:52:09.974Z</time></trkpt><trkpt lat="44.9012279" lon="8.654987"><ele>90.0</ele><time>2026-04-18T14:52:10.975Z</time></trkpt><trkpt lat="44.90129" lon="8.6548482"><ele>90.0</ele><time>2026-04-18T14:52:11.974Z</time></trkpt><trkpt lat="44.9013488" lon="8.6547215"><ele>90.0</ele><time>2026-04-18T14:52:12.974Z</time></trkpt><trkpt lat="44.9014016" lon="8.6546079"><ele>90.0</ele><time>2026-04-18T14:52:13.974Z</time></trkpt><trkpt lat="44.9014477" lon="8.6545175"><ele>90.0</ele><time>2026-04-18T14:52:14.975Z</time></trkpt><trkpt lat="44.9014897" lon="8.6544479"><ele>89.83333333333333</ele><time>2026-04-18T14:52:15.974Z</time></trkpt><trkpt lat="44.901541" lon="8.6543799"><ele>89.66666666666667</ele><time>2026-04-18T14:52:17.975Z</time></trkpt><trkpt lat="44.9016278" lon="8.6543063"><ele>89.5</ele><time>2026-04-18T14:52:20.975Z</time></trkpt><trkpt lat="44.9016866" lon="8.6542667"><ele>89.33333333333334</ele><time>2026-04-18T14:52:21.975Z</time></trkpt><trkpt lat="44.9017582" lon="8.6542097"><ele>89.16666666666667</ele><time>2026-04-18T14:52:22.975Z</time></trkpt><trkpt lat="44.901821" lon="8.654142"><ele>89.0</ele><time>2026-04-18T14:52:23.975Z</time></trkpt><trkpt lat="44.9018706" lon="8.6540485"><ele>88.80000000000001</ele><time>2026-04-18T14:52:24.974Z</time></trkpt><trkpt lat="44.9018965" lon="8.6539382"><ele>88.60000000000001</ele><time>2026-04-18T14:52:25.974Z</time></trkpt><trkpt lat="44.9019008" lon="8.6538112"><ele>88.4</ele><time>2026-04-18T14:52:26.97Z</time></trkpt><trkpt lat="44.9019002" lon="8.6536755"><ele>88.2</ele><time>2026-04-18T14:52:27.975Z</time></trkpt><trkpt lat="44.9019141" lon="8.6535158"><ele>88.0</ele><time>2026-04-18T14:52:28.975Z</time></trkpt><trkpt lat="44.901958" lon="8.6533475"><ele>88.0</ele><time>2026-04-18T14:52:29.974Z</time></trkpt><trkpt lat="44.9020348" lon="8.653177"><ele>88.0</ele><time>2026-04-18T14:52:30.973Z</time></trkpt><trkpt lat="44.9021311" lon="8.6529849"><ele>88.0</ele><time>2026-04-18T14:52:31.974Z</time></trkpt><trkpt lat="44.9022345" lon="8.6527569"><ele>88.33333333333333</ele><time>2026-04-18T14:52:32.975Z</time></trkpt><trkpt lat="44.9023469" lon="8.6525084"><ele>88.66666666666667</ele><time>2026-04-18T14:52:33.974Z</time></trkpt><trkpt lat="44.9024581" lon="8.6522636"><ele>89.0</ele><time>2026-04-18T14:52:34.974Z</time></trkpt><trkpt lat="44.9025726" lon="8.65201"><ele>89.33333333333334</ele><time>2026-04-18T14:52:35.975Z</time></trkpt><trkpt lat="44.9026865" lon="8.651756"><ele>89.66666666666667</ele><time>2026-04-18T14:52:36.974Z</time></trkpt><trkpt lat="44.9027967" lon="8.6515093"><ele>90.0</ele><time>2026-04-18T14:52:37.974Z</time></trkpt><trkpt lat="44.902911" lon="8.6512614"><ele>90.0</ele><time>2026-04-18T14:52:38.975Z</time></trkpt><trkpt lat="44.9030247" lon="8.6510138"><ele>90.0</ele><time>2026-04-18T14:52:39.965Z</time></trkpt><trkpt lat="44.9031391" lon="8.6507625"><ele>90.0</ele><time>2026-04-18T14:52:40.975Z</time></trkpt><trkpt lat="44.903256" lon="8.6505087"><ele>89.66666666666667</ele><time>2026-04-18T14:52:41.974Z</time></trkpt><trkpt lat="44.9033745" lon="8.6502603"><ele>89.33333333333334</ele><time>2026-04-18T14:52:42.972Z</time></trkpt><trkpt lat="44.9034924" lon="8.6500183"><ele>89.0</ele><time>2026-04-18T14:52:43.974Z</time></trkpt><trkpt lat="44.9036066" lon="8.6497792"><ele>90.0</ele><time>2026-04-18T14:52:44.974Z</time></trkpt><trkpt lat="44.9037165" lon="8.6495444"><ele>91.0</ele><time>2026-04-18T14:52:45.975Z</time></trkpt><trkpt lat="44.9038249" lon="8.6493097"><ele>92.0</ele><time>2026-04-18T14:52:46.975Z</time></trkpt><trkpt lat="44.9039291" lon="8.6490791"><ele>92.0</ele><time>2026-04-18T14:52:47.974Z</time></trkpt><trkpt lat="44.9040312" lon="8.6488555"><ele>92.0</ele><time>2026-04-18T14:52:48.972Z</time></trkpt><trkpt lat="44.9041328" lon="8.6486306"><ele>92.0</ele><time>2026-04-18T14:52:49.974Z</time></trkpt><trkpt lat="44.9042339" lon="8.6484031"><ele>92.33333333333334</ele><time>2026-04-18T14:52:50.974Z</time></trkpt><trkpt lat="44.9043319" lon="8.6481758"><ele>92.66666666666667</ele><time>2026-04-18T14:52:51.975Z</time></trkpt><trkpt lat="44.904431" lon="8.6479503"><ele>93.0</ele><time>2026-04-18T14:52:52.975Z</time></trkpt><trkpt lat="44.904528" lon="8.6477256"><ele>93.0</ele><time>2026-04-18T14:52:53.973Z</time></trkpt><trkpt lat="44.9046184" lon="8.6475097"><ele>93.0</ele><time>2026-04-18T14:52:54.975Z</time></trkpt><trkpt lat="44.9047082" lon="8.6473006"><ele>93.0</ele><time>2026-04-18T14:52:55.975Z</time></trkpt><trkpt lat="44.9048031" lon="8.647084"><ele>92.33333333333333</ele><time>2026-04-18T14:52:56.974Z</time></trkpt><trkpt lat="44.9049008" lon="8.6468602"><ele>91.66666666666666</ele><time>2026-04-18T14:52:57.974Z</time></trkpt><trkpt lat="44.9050014" lon="8.646634"><ele>91.0</ele><time>2026-04-18T14:52:58.973Z</time></trkpt><trkpt lat="44.9051022" lon="8.646409"><ele>89.33333333333333</ele><time>2026-04-18T14:52:59.975Z</time></trkpt><trkpt lat="44.9052032" lon="8.6461879"><ele>87.66666666666667</ele><time>2026-04-18T14:53:00.969Z</time></trkpt><trkpt lat="44.9053072" lon="8.6459658"><ele>86.0</ele><time>2026-04-18T14:53:01.975Z</time></trkpt><trkpt lat="44.9054106" lon="8.6457434"><ele>86.66666666666667</ele><time>2026-04-18T14:53:02.975Z</time></trkpt><trkpt lat="44.9055135" lon="8.6455221"><ele>87.33333333333333</ele><time>2026-04-18T14:53:03.964Z</time></trkpt><trkpt lat="44.9056152" lon="8.6453009"><ele>88.0</ele><time>2026-04-18T14:53:04.975Z</time></trkpt><trkpt lat="44.905716" lon="8.6450793"><ele>88.0</ele><time>2026-04-18T14:53:05.975Z</time></trkpt><trkpt lat="44.9058183" lon="8.6448592"><ele>88.0</ele><time>2026-04-18T14:53:06.975Z</time></trkpt><trkpt lat="44.9059197" lon="8.6446418"><ele>88.0</ele><time>2026-04-18T14:53:07.972Z</time></trkpt><trkpt lat="44.906019" lon="8.6444235"><ele>88.66666666666666</ele><time>2026-04-18T14:53:08.974Z</time></trkpt><trkpt lat="44.9061141" lon="8.6442107"><ele>89.33333333333333</ele><time>2026-04-18T14:53:09.974Z</time></trkpt><trkpt lat="44.9062078" lon="8.6440084"><ele>90.0</ele><time>2026-04-18T14:53:10.974Z</time></trkpt><trkpt lat="44.9062958" lon="8.6438123"><ele>90.33333333333333</ele><time>2026-04-18T14:53:11.975Z</time></trkpt><trkpt lat="44.9063824" lon="8.6436218"><ele>90.66666666666666</ele><time>2026-04-18T14:53:12.975Z</time></trkpt><trkpt lat="44.9064675" lon="8.6434414"><ele>91.0</ele><time>2026-04-18T14:53:13.974Z</time></trkpt><trkpt lat="44.9065484" lon="8.6432698"><ele>91.0</ele><time>2026-04-18T14:53:14.975Z</time></trkpt><trkpt lat="44.9066181" lon="8.6431215"><ele>91.0</ele><time>2026-04-18T14:53:15.974Z</time></trkpt><trkpt lat="44.9066765" lon="8.6429981"><ele>91.0</ele><time>2026-04-18T14:53:16.971Z</time></trkpt><trkpt lat="44.9067329" lon="8.6428947"><ele>91.0</ele><time>2026-04-18T14:53:17.975Z</time></trkpt><trkpt lat="44.9067945" lon="8.6428106"><ele>91.0</ele><time>2026-04-18T14:53:18.974Z</time></trkpt><trkpt lat="44.9068679" lon="8.6427439"><ele>90.75</ele><time>2026-04-18T14:53:19.975Z</time></trkpt><trkpt lat="44.9069554" lon="8.6426959"><ele>90.5</ele><time>2026-04-18T14:53:20.975Z</time></trkpt><trkpt lat="44.9070611" lon="8.6426758"><ele>90.25</ele><time>2026-04-18T14:53:21.975Z</time></trkpt><trkpt lat="44.9071807" lon="8.6426894"><ele>90.0</ele><time>2026-04-18T14:53:22.974Z</time></trkpt><trkpt lat="44.9073142" lon="8.6427302"><ele>90.0</ele><time>2026-04-18T14:53:23.974Z</time></trkpt><trkpt lat="44.9074537" lon="8.6427946"><ele>90.0</ele><time>2026-04-18T14:53:24.975Z</time></trkpt><trkpt lat="44.907597" lon="8.6428771"><ele>90.0</ele><time>2026-04-18T14:53:25.974Z</time></trkpt><trkpt lat="44.9077409" lon="8.6429599"><ele>90.0</ele><time>2026-04-18T14:53:26.974Z</time></trkpt><trkpt lat="44.9078807" lon="8.6430368"><ele>90.0</ele><time>2026-04-18T14:53:27.974Z</time></trkpt><trkpt lat="44.9080204" lon="8.6431038"><ele>90.0</ele><time>2026-04-18T14:53:28.975Z</time></trkpt><trkpt lat="44.9081599" lon="8.6431498"><ele>90.0</ele><time>2026-04-18T14:53:29.975Z</time></trkpt><trkpt lat="44.9083064" lon="8.6431638"><ele>90.0</ele><time>2026-04-18T14:53:30.974Z</time></trkpt><trkpt lat="44.9084552" lon="8.6431498"><ele>90.0</ele><time>2026-04-18T14:53:31.975Z</time></trkpt><trkpt lat="44.9086021" lon="8.6430999"><ele>90.0</ele><time>2026-04-18T14:53:32.975Z</time></trkpt><trkpt lat="44.9087427" lon="8.6430165"><ele>90.0</ele><time>2026-04-18T14:53:33.972Z</time></trkpt><trkpt lat="44.90887" lon="8.6429106"><ele>90.0</ele><time>2026-04-18T14:53:34.974Z</time></trkpt><trkpt lat="44.9089831" lon="8.6427946"><ele>90.0</ele><time>2026-04-18T14:53:35.974Z</time></trkpt><trkpt lat="44.909087" lon="8.6426697"><ele>90.0</ele><time>2026-04-18T14:53:36.975Z</time></trkpt><trkpt lat="44.9091822" lon="8.6425358"><ele>89.25</ele><time>2026-04-18T14:53:37.975Z</time></trkpt><trkpt lat="44.909276" lon="8.6424036"><ele>88.5</ele><time>2026-04-18T14:53:38.975Z</time></trkpt><trkpt lat="44.9093878" lon="8.6423016"><ele>87.75</ele><time>2026-04-18T14:53:39.975Z</time></trkpt><trkpt lat="44.9095085" lon="8.6422379"><ele>87.0</ele><time>2026-04-18T14:53:40.975Z</time></trkpt><trkpt lat="44.9096255" lon="8.6422224"><ele>87.0</ele><time>2026-04-18T14:53:41.975Z</time></trkpt><trkpt lat="44.909747" lon="8.6422405"><ele>87.0</ele><time>2026-04-18T14:53:42.975Z</time></trkpt><trkpt lat="44.9098805" lon="8.6422803"><ele>87.0</ele><time>2026-04-18T14:53:43.975Z</time></trkpt><trkpt lat="44.9100275" lon="8.64232"><ele>87.0</ele><time>2026-04-18T14:53:44.973Z</time></trkpt><trkpt lat="44.9101911" lon="8.6423574"><ele>87.33333333333333</ele><time>2026-04-18T14:53:45.975Z</time></trkpt><trkpt lat="44.9103655" lon="8.642389"><ele>87.66666666666666</ele><time>2026-04-18T14:53:46.974Z</time></trkpt><trkpt lat="44.9105411" lon="8.6424132"><ele>88.0</ele><time>2026-04-18T14:53:47.974Z</time></trkpt><trkpt lat="44.9107182" lon="8.6424335"><ele>88.0</ele><time>2026-04-18T14:53:48.975Z</time></trkpt><trkpt lat="44.9108893" lon="8.6424492"><ele>88.0</ele><time>2026-04-18T14:53:49.975Z</time></trkpt><trkpt lat="44.9110574" lon="8.6424575"><ele>88.0</ele><time>2026-04-18T14:53:50.975Z</time></trkpt><trkpt lat="44.9112213" lon="8.6424609"><ele>88.33333333333333</ele><time>2026-04-18T14:53:51.975Z</time></trkpt><trkpt lat="44.911381" lon="8.64246"><ele>88.66666666666667</ele><time>2026-04-18T14:53:52.975Z</time></trkpt><trkpt lat="44.9115396" lon="8.6424551"><ele>89.0</ele><time>2026-04-18T14:53:53.974Z</time></trkpt><trkpt lat="44.9116974" lon="8.6424427"><ele>89.75</ele><time>2026-04-18T14:53:54.974Z</time></trkpt><trkpt lat="44.9118507" lon="8.6424238"><ele>90.5</ele><time>2026-04-18T14:53:55.975Z</time></trkpt><trkpt lat="44.9119979" lon="8.6424004"><ele>91.25</ele><time>2026-04-18T14:53:56.975Z</time></trkpt><trkpt lat="44.912136" lon="8.6423702"><ele>92.0</ele><time>2026-04-18T14:53:57.974Z</time></trkpt><trkpt lat="44.9122637" lon="8.6423428"><ele>92.0</ele><time>2026-04-18T14:53:58.967Z</time></trkpt><trkpt lat="44.9123874" lon="8.6423114"><ele>92.0</ele><time>2026-04-18T14:53:59.974Z</time></trkpt><trkpt lat="44.9125027" lon="8.642276"><ele>92.0</ele><time>2026-04-18T14:54:00.975Z</time></trkpt><trkpt lat="44.9126146" lon="8.642236"><ele>92.0</ele><time>2026-04-18T14:54:01.975Z</time></trkpt><trkpt lat="44.9127237" lon="8.6421961"><ele>91.25</ele><time>2026-04-18T14:54:02.975Z</time></trkpt><trkpt lat="44.9128367" lon="8.6421514"><ele>90.5</ele><time>2026-04-18T14:54:03.974Z</time></trkpt><trkpt lat="44.9129549" lon="8.642104"><ele>89.75</ele><time>2026-04-18T14:54:04.974Z</time></trkpt><trkpt lat="44.9130743" lon="8.6420521"><ele>89.0</ele><time>2026-04-18T14:54:05.975Z</time></trkpt><trkpt lat="44.9131953" lon="8.6419972"><ele>89.5</ele><time>2026-04-18T14:54:06.975Z</time></trkpt><trkpt lat="44.9133153" lon="8.641934"><ele>90.0</ele><time>2026-04-18T14:54:07.974Z</time></trkpt><trkpt lat="44.9134387" lon="8.6418671"><ele>90.5</ele><time>2026-04-18T14:54:08.974Z</time></trkpt><trkpt lat="44.913564" lon="8.6417934"><ele>91.0</ele><time>2026-04-18T14:54:09.975Z</time></trkpt><trkpt lat="44.9136904" lon="8.6417142"><ele>91.0</ele><time>2026-04-18T14:54:10.975Z</time></trkpt><trkpt lat="44.913816" lon="8.6416301"><ele>91.0</ele><time>2026-04-18T14:54:11.975Z</time></trkpt><trkpt lat="44.9139447" lon="8.6415359"><ele>91.0</ele><time>2026-04-18T14:54:12.974Z</time></trkpt><trkpt lat="44.9140785" lon="8.6414335"><ele>91.0</ele><time>2026-04-18T14:54:13.975Z</time></trkpt><trkpt lat="44.914214" lon="8.641325"><ele>90.66666666666666</ele><time>2026-04-18T14:54:14.97Z</time></trkpt><trkpt lat="44.9143562" lon="8.6412072"><ele>90.33333333333333</ele><time>2026-04-18T14:54:15.969Z</time></trkpt><trkpt lat="44.9145015" lon="8.6410775"><ele>90.0</ele><time>2026-04-18T14:54:16.975Z</time></trkpt><trkpt lat="44.9146499" lon="8.640936"><ele>89.33333333333333</ele><time>2026-04-18T14:54:17.975Z</time></trkpt><trkpt lat="44.9148037" lon="8.6407783"><ele>88.66666666666666</ele><time>2026-04-18T14:54:18.968Z</time></trkpt><trkpt lat="44.9149627" lon="8.6406125"><ele>88.0</ele><time>2026-04-18T14:54:19.974Z</time></trkpt><trkpt lat="44.9151225" lon="8.6404432"><ele>88.0</ele><time>2026-04-18T14:54:20.973Z</time></trkpt><trkpt lat="44.9152824" lon="8.6402734"><ele>88.0</ele><time>2026-04-18T14:54:21.974Z</time></trkpt><trkpt lat="44.915445" lon="8.6400972"><ele>88.0</ele><time>2026-04-18T14:54:22.975Z</time></trkpt><trkpt lat="44.9156134" lon="8.6399196"><ele>88.0</ele><time>2026-04-18T14:54:23.975Z</time></trkpt><trkpt lat="44.9157884" lon="8.6397357"><ele>88.0</ele><time>2026-04-18T14:54:24.971Z</time></trkpt><trkpt lat="44.9159683" lon="8.6395488"><ele>88.0</ele><time>2026-04-18T14:54:25.975Z</time></trkpt><trkpt lat="44.916153" lon="8.6393593"><ele>88.0</ele><time>2026-04-18T14:54:26.974Z</time></trkpt><trkpt lat="44.9163399" lon="8.6391749"><ele>88.0</ele><time>2026-04-18T14:54:27.975Z</time></trkpt><trkpt lat="44.9165307" lon="8.6389895"><ele>88.0</ele><time>2026-04-18T14:54:28.975Z</time></trkpt><trkpt lat="44.9167308" lon="8.638807"><ele>88.0</ele><time>2026-04-18T14:54:29.975Z</time></trkpt><trkpt lat="44.9169357" lon="8.6386333"><ele>88.5</ele><time>2026-04-18T14:54:30.975Z</time></trkpt><trkpt lat="44.9171483" lon="8.6384697"><ele>89.0</ele><time>2026-04-18T14:54:31.973Z</time></trkpt><trkpt lat="44.9173677" lon="8.6383201"><ele>89.0</ele><time>2026-04-18T14:54:32.974Z</time></trkpt><trkpt lat="44.9175936" lon="8.6381847"><ele>89.0</ele><time>2026-04-18T14:54:33.974Z</time></trkpt><trkpt lat="44.9178216" lon="8.6380636"><ele>89.0</ele><time>2026-04-18T14:54:34.975Z</time></trkpt><trkpt lat="44.9180568" lon="8.6379598"><ele>89.0</ele><time>2026-04-18T14:54:35.975Z</time></trkpt><trkpt lat="44.9182946" lon="8.637869"><ele>88.0</ele><time>2026-04-18T14:54:36.968Z</time></trkpt><trkpt lat="44.9185354" lon="8.6377939"><ele>87.0</ele><time>2026-04-18T14:54:37.97Z</time></trkpt><trkpt lat="44.9187806" lon="8.6377347"><ele>87.0</ele><time>2026-04-18T14:54:38.974Z</time></trkpt><trkpt lat="44.919028" lon="8.6376857"><ele>87.0</ele><time>2026-04-18T14:54:39.975Z</time></trkpt><trkpt lat="44.9192774" lon="8.637654"><ele>86.0</ele><time>2026-04-18T14:54:40.974Z</time></trkpt><trkpt lat="44.9195285" lon="8.6376352"><ele>85.0</ele><time>2026-04-18T14:54:41.974Z</time></trkpt><trkpt lat="44.9197831" lon="8.6376241"><ele>85.0</ele><time>2026-04-18T14:54:42.974Z</time></trkpt><trkpt lat="44.9200412" lon="8.6376182"><ele>85.0</ele><time>2026-04-18T14:54:43.974Z</time></trkpt><trkpt lat="44.9203036" lon="8.6376161"><ele>86.0</ele><time>2026-04-18T14:54:44.974Z</time></trkpt><trkpt lat="44.9205694" lon="8.6376184"><ele>87.0</ele><time>2026-04-18T14:54:45.975Z</time></trkpt><trkpt lat="44.920834" lon="8.6376185"><ele>87.0</ele><time>2026-04-18T14:54:46.97Z</time></trkpt><trkpt lat="44.9211011" lon="8.6376234"><ele>87.0</ele><time>2026-04-18T14:54:47.975Z</time></trkpt><trkpt lat="44.921368" lon="8.6376272"><ele>87.0</ele><time>2026-04-18T14:54:48.963Z</time></trkpt><trkpt lat="44.9216353" lon="8.6376311"><ele>87.0</ele><time>2026-04-18T14:54:49.975Z</time></trkpt><trkpt lat="44.921901" lon="8.6376347"><ele>87.5</ele><time>2026-04-18T14:54:50.975Z</time></trkpt><trkpt lat="44.9221673" lon="8.6376369"><ele>88.0</ele><time>2026-04-18T14:54:51.969Z</time></trkpt><trkpt lat="44.9224314" lon="8.6376369"><ele>88.0</ele><time>2026-04-18T14:54:52.974Z</time></trkpt><trkpt lat="44.9226988" lon="8.6376388"><ele>88.0</ele><time>2026-04-18T14:54:53.975Z</time></trkpt><trkpt lat="44.9229648" lon="8.6376433"><ele>88.0</ele><time>2026-04-18T14:54:54.975Z</time></trkpt><trkpt lat="44.9232299" lon="8.6376536"><ele>88.0</ele><time>2026-04-18T14:54:55.975Z</time></trkpt><trkpt lat="44.9234939" lon="8.637664"><ele>88.0</ele><time>2026-04-18T14:54:56.974Z</time></trkpt><trkpt lat="44.923756" lon="8.6376732"><ele>88.0</ele><time>2026-04-18T14:54:57.97Z</time></trkpt><trkpt lat="44.9240192" lon="8.6376847"><ele>86.0</ele><time>2026-04-18T14:54:58.974Z</time></trkpt><trkpt lat="44.9242816" lon="8.6376911"><ele>84.0</ele><time>2026-04-18T14:54:59.974Z</time></trkpt><trkpt lat="44.9245417" lon="8.6376933"><ele>84.0</ele><time>2026-04-18T14:55:00.975Z</time></trkpt><trkpt lat="44.9248019" lon="8.6376953"><ele>84.0</ele><time>2026-04-18T14:55:01.969Z</time></trkpt><trkpt lat="44.9250637" lon="8.6376989"><ele>85.0</ele><time>2026-04-18T14:55:02.975Z</time></trkpt><trkpt lat="44.9253249" lon="8.6377018"><ele>86.0</ele><time>2026-04-18T14:55:03.974Z</time></trkpt><trkpt lat="44.9255859" lon="8.6377064"><ele>86.0</ele><time>2026-04-18T14:55:04.974Z</time></trkpt><trkpt lat="44.9258456" lon="8.6377108"><ele>86.0</ele><time>2026-04-18T14:55:05.975Z</time></trkpt><trkpt lat="44.9261047" lon="8.6377145"><ele>86.5</ele><time>2026-04-18T14:55:06.966Z</time></trkpt><trkpt lat="44.9263655" lon="8.6377183"><ele>87.0</ele><time>2026-04-18T14:55:07.967Z</time></trkpt><trkpt lat="44.926628" lon="8.6377221"><ele>86.5</ele><time>2026-04-18T14:55:08.975Z</time></trkpt><trkpt lat="44.9268905" lon="8.6377267"><ele>86.0</ele><time>2026-04-18T14:55:09.975Z</time></trkpt><trkpt lat="44.9271553" lon="8.6377306"><ele>86.0</ele><time>2026-04-18T14:55:10.974Z</time></trkpt><trkpt lat="44.9274203" lon="8.6377371"><ele>86.0</ele><time>2026-04-18T14:55:11.97Z</time></trkpt><trkpt lat="44.9276857" lon="8.6377436"><ele>86.0</ele><time>2026-04-18T14:55:12.975Z</time></trkpt><trkpt lat="44.92795" lon="8.6377477"><ele>86.0</ele><time>2026-04-18T14:55:13.969Z</time></trkpt><trkpt lat="44.9282091" lon="8.6377468"><ele>86.5</ele><time>2026-04-18T14:55:14.962Z</time></trkpt><trkpt lat="44.928463" lon="8.6377393"><ele>87.0</ele><time>2026-04-18T14:55:15.962Z</time></trkpt><trkpt lat="44.9287182" lon="8.6377239"><ele>87.0</ele><time>2026-04-18T14:55:16.97Z</time></trkpt><trkpt lat="44.9289725" lon="8.637694"><ele>87.0</ele><time>2026-04-18T14:55:17.967Z</time></trkpt><trkpt lat="44.9292257" lon="8.6376487"><ele>86.0</ele><time>2026-04-18T14:55:18.969Z</time></trkpt><trkpt lat="44.9294749" lon="8.6375872"><ele>85.0</ele><time>2026-04-18T14:55:19.973Z</time></trkpt><trkpt lat="44.9297168" lon="8.6375089"><ele>85.0</ele><time>2026-04-18T14:55:20.971Z</time></trkpt><trkpt lat="44.9299566" lon="8.6374119"><ele>85.0</ele><time>2026-04-18T14:55:21.967Z</time></trkpt><trkpt lat="44.9301931" lon="8.6372984"><ele>84.5</ele><time>2026-04-18T14:55:22.963Z</time></trkpt><trkpt lat="44.9304218" lon="8.6371668"><ele>84.0</ele><time>2026-04-18T14:55:23.975Z</time></trkpt><trkpt lat="44.9306428" lon="8.6370103"><ele>84.5</ele><time>2026-04-18T14:55:24.974Z</time></trkpt><trkpt lat="44.9308569" lon="8.6368265"><ele>85.0</ele><time>2026-04-18T14:55:25.969Z</time></trkpt><trkpt lat="44.9310669" lon="8.6366222"><ele>85.0</ele><time>2026-04-18T14:55:26.974Z</time></trkpt><trkpt lat="44.9312707" lon="8.6364"><ele>85.0</ele><time>2026-04-18T14:55:27.973Z</time></trkpt><trkpt lat="44.9314634" lon="8.6361578"><ele>85.0</ele><time>2026-04-18T14:55:28.975Z</time></trkpt><trkpt lat="44.9316444" lon="8.6358977"><ele>85.0</ele><time>2026-04-18T14:55:29.975Z</time></trkpt><trkpt lat="44.9318105" lon="8.6356224"><ele>85.0</ele><time>2026-04-18T14:55:30.974Z</time></trkpt><trkpt lat="44.9319632" lon="8.6353379"><ele>85.0</ele><time>2026-04-18T14:55:31.974Z</time></trkpt><trkpt lat="44.9321001" lon="8.6350457"><ele>85.5</ele><time>2026-04-18T14:55:32.969Z</time></trkpt><trkpt lat="44.9322187" lon="8.6347445"><ele>86.0</ele><time>2026-04-18T14:55:33.974Z</time></trkpt><trkpt lat="44.9323247" lon="8.6344389"><ele>86.5</ele><time>2026-04-18T14:55:34.974Z</time></trkpt><trkpt lat="44.9324208" lon="8.6341267"><ele>87.0</ele><time>2026-04-18T14:55:35.966Z</time></trkpt><trkpt lat="44.9325075" lon="8.6338029"><ele>87.5</ele><time>2026-04-18T14:55:36.965Z</time></trkpt><trkpt lat="44.9325854" lon="8.6334709"><ele>88.0</ele><time>2026-04-18T14:55:37.975Z</time></trkpt><trkpt lat="44.9326584" lon="8.6331341"><ele>87.5</ele><time>2026-04-18T14:55:38.97Z</time></trkpt><trkpt lat="44.9327283" lon="8.6327935"><ele>87.0</ele><time>2026-04-18T14:55:39.974Z</time></trkpt><trkpt lat="44.9327961" lon="8.6324484"><ele>87.0</ele><time>2026-04-18T14:55:40.967Z</time></trkpt><trkpt lat="44.9328608" lon="8.6321019"><ele>87.0</ele><time>2026-04-18T14:55:41.974Z</time></trkpt><trkpt lat="44.9329247" lon="8.6317573"><ele>87.0</ele><time>2026-04-18T14:55:42.975Z</time></trkpt><trkpt lat="44.9329862" lon="8.6314274"><ele>87.0</ele><time>2026-04-18T14:55:43.975Z</time></trkpt><trkpt lat="44.9330456" lon="8.6311098"><ele>87.0</ele><time>2026-04-18T14:55:44.966Z</time></trkpt><trkpt lat="44.9331013" lon="8.6308045"><ele>87.0</ele><time>2026-04-18T14:55:45.974Z</time></trkpt><trkpt lat="44.9331558" lon="8.6305112"><ele>87.0</ele><time>2026-04-18T14:55:46.973Z</time></trkpt><trkpt lat="44.9332086" lon="8.6302251"><ele>87.0</ele><time>2026-04-18T14:55:47.975Z</time></trkpt><trkpt lat="44.9332612" lon="8.6299372"><ele>87.0</ele><time>2026-04-18T14:55:48.974Z</time></trkpt><trkpt lat="44.9333123" lon="8.6296499"><ele>87.0</ele><time>2026-04-18T14:55:49.964Z</time></trkpt><trkpt lat="44.9333637" lon="8.6293632"><ele>87.0</ele><time>2026-04-18T14:55:50.967Z</time></trkpt><trkpt lat="44.9334146" lon="8.6290753"><ele>87.0</ele><time>2026-04-18T14:55:51.975Z</time></trkpt><trkpt lat="44.9334676" lon="8.6287838"><ele>87.0</ele><time>2026-04-18T14:55:52.964Z</time></trkpt><trkpt lat="44.9335222" lon="8.6284867"><ele>87.66666666666667</ele><time>2026-04-18T14:55:53.968Z</time></trkpt><trkpt lat="44.9335777" lon="8.6281867"><ele>88.33333333333334</ele><time>2026-04-18T14:55:54.975Z</time></trkpt><trkpt lat="44.9336322" lon="8.6278849"><ele>89.0</ele><time>2026-04-18T14:55:55.968Z</time></trkpt><trkpt lat="44.9336873" lon="8.6275792"><ele>89.0</ele><time>2026-04-18T14:55:56.966Z</time></trkpt><trkpt lat="44.9337437" lon="8.6272691"><ele>89.0</ele><time>2026-04-18T14:55:57.974Z</time></trkpt><trkpt lat="44.9337996" lon="8.6269575"><ele>88.5</ele><time>2026-04-18T14:55:58.974Z</time></trkpt><trkpt lat="44.9338558" lon="8.6266463"><ele>88.0</ele><time>2026-04-18T14:55:59.97Z</time></trkpt><trkpt lat="44.9339114" lon="8.6263409"><ele>89.33333333333333</ele><time>2026-04-18T14:56:00.974Z</time></trkpt><trkpt lat="44.9339669" lon="8.6260377"><ele>90.66666666666667</ele><time>2026-04-18T14:56:01.963Z</time></trkpt><trkpt lat="44.9340225" lon="8.6257308"><ele>92.0</ele><time>2026-04-18T14:56:02.967Z</time></trkpt><trkpt lat="44.9340809" lon="8.6254188"><ele>91.0</ele><time>2026-04-18T14:56:03.972Z</time></trkpt><trkpt lat="44.9341378" lon="8.6250999"><ele>90.0</ele><time>2026-04-18T14:56:04.967Z</time></trkpt><trkpt lat="44.9341951" lon="8.6247776"><ele>91.5</ele><time>2026-04-18T14:56:05.974Z</time></trkpt><trkpt lat="44.9342532" lon="8.6244537"><ele>93.0</ele><time>2026-04-18T14:56:06.962Z</time></trkpt><trkpt lat="44.9343119" lon="8.6241292"><ele>93.0</ele><time>2026-04-18T14:56:07.975Z</time></trkpt><trkpt lat="44.9343684" lon="8.6238038"><ele>93.0</ele><time>2026-04-18T14:56:08.975Z</time></trkpt><trkpt lat="44.9344253" lon="8.6234782"><ele>92.5</ele><time>2026-04-18T14:56:09.97Z</time></trkpt><trkpt lat="44.934481" lon="8.6231514"><ele>92.0</ele><time>2026-04-18T14:56:10.975Z</time></trkpt><trkpt lat="44.9345347" lon="8.6228239"><ele>90.5</ele><time>2026-04-18T14:56:11.974Z</time></trkpt><trkpt lat="44.9345866" lon="8.6224976"><ele>89.0</ele><time>2026-04-18T14:56:12.969Z</time></trkpt><trkpt lat="44.9346375" lon="8.6221722"><ele>88.5</ele><time>2026-04-18T14:56:13.975Z</time></trkpt><trkpt lat="44.9346853" lon="8.6218477"><ele>88.0</ele><time>2026-04-18T14:56:14.975Z</time></trkpt><trkpt lat="44.9347298" lon="8.621527"><ele>88.0</ele><time>2026-04-18T14:56:15.965Z</time></trkpt><trkpt lat="44.9347701" lon="8.6212082"><ele>88.0</ele><time>2026-04-18T14:56:16.975Z</time></trkpt><trkpt lat="44.9348089" lon="8.6208918"><ele>87.0</ele><time>2026-04-18T14:56:17.974Z</time></trkpt><trkpt lat="44.9348451" lon="8.6205787"><ele>86.0</ele><time>2026-04-18T14:56:18.974Z</time></trkpt><trkpt lat="44.9348779" lon="8.6202725"><ele>85.0</ele><time>2026-04-18T14:56:19.965Z</time></trkpt><trkpt lat="44.9349085" lon="8.6199695"><ele>84.66666666666666</ele><time>2026-04-18T14:56:20.975Z</time></trkpt><trkpt lat="44.9349378" lon="8.6196672"><ele>84.33333333333333</ele><time>2026-04-18T14:56:21.974Z</time></trkpt><trkpt lat="44.9349649" lon="8.6193607"><ele>84.0</ele><time>2026-04-18T14:56:22.974Z</time></trkpt><trkpt lat="44.9349888" lon="8.6190488"><ele>84.0</ele><time>2026-04-18T14:56:23.97Z</time></trkpt><trkpt lat="44.9350077" lon="8.6187289"><ele>84.0</ele><time>2026-04-18T14:56:24.969Z</time></trkpt><trkpt lat="44.935023" lon="8.618402"><ele>84.5</ele><time>2026-04-18T14:56:25.971Z</time></trkpt><trkpt lat="44.9350378" lon="8.6180713"><ele>85.0</ele><time>2026-04-18T14:56:26.974Z</time></trkpt><trkpt lat="44.9350524" lon="8.6177368"><ele>86.5</ele><time>2026-04-18T14:56:27.974Z</time></trkpt><trkpt lat="44.9350653" lon="8.6173984"><ele>88.0</ele><time>2026-04-18T14:56:28.97Z</time></trkpt><trkpt lat="44.9350764" lon="8.6170553"><ele>88.0</ele><time>2026-04-18T14:56:29.974Z</time></trkpt><trkpt lat="44.9350863" lon="8.6167113"><ele>88.0</ele><time>2026-04-18T14:56:30.974Z</time></trkpt><trkpt lat="44.9350944" lon="8.6163661"><ele>88.5</ele><time>2026-04-18T14:56:31.975Z</time></trkpt><trkpt lat="44.9351007" lon="8.6160183"><ele>89.0</ele><time>2026-04-18T14:56:32.974Z</time></trkpt><trkpt lat="44.9351062" lon="8.6156674"><ele>89.5</ele><time>2026-04-18T14:56:33.975Z</time></trkpt><trkpt lat="44.9351102" lon="8.6153149"><ele>90.0</ele><time>2026-04-18T14:56:34.969Z</time></trkpt><trkpt lat="44.9351129" lon="8.6149612"><ele>90.0</ele><time>2026-04-18T14:56:35.973Z</time></trkpt><trkpt lat="44.9351113" lon="8.6146082"><ele>90.0</ele><time>2026-04-18T14:56:36.968Z</time></trkpt><trkpt lat="44.9351032" lon="8.6142561"><ele>90.5</ele><time>2026-04-18T14:56:37.974Z</time></trkpt><trkpt lat="44.9350904" lon="8.6139062"><ele>91.0</ele><time>2026-04-18T14:56:38.972Z</time></trkpt><trkpt lat="44.9350749" lon="8.6135584"><ele>90.0</ele><time>2026-04-18T14:56:39.966Z</time></trkpt><trkpt lat="44.9350582" lon="8.6132138"><ele>89.0</ele><time>2026-04-18T14:56:40.975Z</time></trkpt><trkpt lat="44.9350393" lon="8.6128712"><ele>90.5</ele><time>2026-04-18T14:56:41.971Z</time></trkpt><trkpt lat="44.9350155" lon="8.6125305"><ele>92.0</ele><time>2026-04-18T14:56:42.97Z</time></trkpt><trkpt lat="44.9349914" lon="8.6121885"><ele>92.0</ele><time>2026-04-18T14:56:43.974Z</time></trkpt><trkpt lat="44.9349685" lon="8.6118424"><ele>92.0</ele><time>2026-04-18T14:56:44.975Z</time></trkpt><trkpt lat="44.9349476" lon="8.6114945"><ele>92.0</ele><time>2026-04-18T14:56:45.975Z</time></trkpt><trkpt lat="44.9349252" lon="8.6111419"><ele>92.0</ele><time>2026-04-18T14:56:46.974Z</time></trkpt><trkpt lat="44.9349029" lon="8.6107861"><ele>92.0</ele><time>2026-04-18T14:56:47.974Z</time></trkpt><trkpt lat="44.9348813" lon="8.6104268"><ele>92.0</ele><time>2026-04-18T14:56:48.974Z</time></trkpt><trkpt lat="44.934862" lon="8.6100644"><ele>90.5</ele><time>2026-04-18T14:56:49.974Z</time></trkpt><trkpt lat="44.9348407" lon="8.609702"><ele>89.0</ele><time>2026-04-18T14:56:50.975Z</time></trkpt><trkpt lat="44.9348129" lon="8.6093436"><ele>88.5</ele><time>2026-04-18T14:56:51.974Z</time></trkpt><trkpt lat="44.9347713" lon="8.6089915"><ele>88.0</ele><time>2026-04-18T14:56:52.975Z</time></trkpt><trkpt lat="44.9347191" lon="8.6086463"><ele>87.5</ele><time>2026-04-18T14:56:53.974Z</time></trkpt><trkpt lat="44.9346605" lon="8.6083035"><ele>87.0</ele><time>2026-04-18T14:56:54.973Z</time></trkpt><trkpt lat="44.9345937" lon="8.6079612"><ele>88.5</ele><time>2026-04-18T14:56:55.972Z</time></trkpt><trkpt lat="44.9345174" lon="8.6076195"><ele>90.0</ele><time>2026-04-18T14:56:56.975Z</time></trkpt><trkpt lat="44.9344364" lon="8.6072788"><ele>90.0</ele><time>2026-04-18T14:56:57.97Z</time></trkpt><trkpt lat="44.9343543" lon="8.6069387"><ele>90.0</ele><time>2026-04-18T14:56:58.974Z</time></trkpt><trkpt lat="44.9342715" lon="8.6065984"><ele>89.0</ele><time>2026-04-18T14:56:59.975Z</time></trkpt><trkpt lat="44.9341899" lon="8.6062592"><ele>88.0</ele><time>2026-04-18T14:57:00.975Z</time></trkpt><trkpt lat="44.9341108" lon="8.6059185"><ele>88.0</ele><time>2026-04-18T14:57:01.975Z</time></trkpt><trkpt lat="44.9340352" lon="8.6055774"><ele>88.0</ele><time>2026-04-18T14:57:02.975Z</time></trkpt><trkpt lat="44.9339621" lon="8.6052328"><ele>90.0</ele><time>2026-04-18T14:57:03.973Z</time></trkpt><trkpt lat="44.9338954" lon="8.6048846"><ele>92.0</ele><time>2026-04-18T14:57:04.968Z</time></trkpt><trkpt lat="44.9338338" lon="8.6045347"><ele>91.5</ele><time>2026-04-18T14:57:05.963Z</time></trkpt><trkpt lat="44.9337765" lon="8.604185"><ele>91.0</ele><time>2026-04-18T14:57:06.974Z</time></trkpt><trkpt lat="44.9337219" lon="8.6038351"><ele>89.5</ele><time>2026-04-18T14:57:07.965Z</time></trkpt><trkpt lat="44.9336762" lon="8.6034852"><ele>88.0</ele><time>2026-04-18T14:57:08.975Z</time></trkpt><trkpt lat="44.9336445" lon="8.6031333"><ele>87.5</ele><time>2026-04-18T14:57:09.975Z</time></trkpt><trkpt lat="44.9336255" lon="8.6027789"><ele>87.0</ele><time>2026-04-18T14:57:10.964Z</time></trkpt><trkpt lat="44.9336146" lon="8.602421"><ele>87.0</ele><time>2026-04-18T14:57:11.971Z</time></trkpt><trkpt lat="44.9336072" lon="8.6020599"><ele>87.0</ele><time>2026-04-18T14:57:12.974Z</time></trkpt><trkpt lat="44.9336046" lon="8.6016976"><ele>88.0</ele><time>2026-04-18T14:57:13.971Z</time></trkpt><trkpt lat="44.9336082" lon="8.6013326"><ele>89.0</ele><time>2026-04-18T14:57:14.975Z</time></trkpt><trkpt lat="44.9336188" lon="8.6009664"><ele>89.5</ele><time>2026-04-18T14:57:15.975Z</time></trkpt><trkpt lat="44.9336367" lon="8.6006005"><ele>90.0</ele><time>2026-04-18T14:57:16.97Z</time></trkpt><trkpt lat="44.9336615" lon="8.6002363"><ele>90.0</ele><time>2026-04-18T14:57:17.972Z</time></trkpt><trkpt lat="44.9336949" lon="8.5998758"><ele>90.0</ele><time>2026-04-18T14:57:18.974Z</time></trkpt><trkpt lat="44.9337356" lon="8.5995186"><ele>88.5</ele><time>2026-04-18T14:57:19.971Z</time></trkpt><trkpt lat="44.9337816" lon="8.5991621"><ele>87.0</ele><time>2026-04-18T14:57:20.974Z</time></trkpt><trkpt lat="44.9338299" lon="8.5988058"><ele>88.0</ele><time>2026-04-18T14:57:21.974Z</time></trkpt><trkpt lat="44.9338768" lon="8.5984479"><ele>89.0</ele><time>2026-04-18T14:57:22.968Z</time></trkpt><trkpt lat="44.9339245" lon="8.5980882"><ele>89.0</ele><time>2026-04-18T14:57:23.969Z</time></trkpt><trkpt lat="44.9339783" lon="8.5977296"><ele>89.0</ele><time>2026-04-18T14:57:24.975Z</time></trkpt><trkpt lat="44.9340366" lon="8.5973717"><ele>89.0</ele><time>2026-04-18T14:57:25.974Z</time></trkpt><trkpt lat="44.9340957" lon="8.5970137"><ele>89.0</ele><time>2026-04-18T14:57:26.973Z</time></trkpt><trkpt lat="44.9341553" lon="8.5966558"><ele>88.5</ele><time>2026-04-18T14:57:27.975Z</time></trkpt><trkpt lat="44.9342159" lon="8.5962956"><ele>88.0</ele><time>2026-04-18T14:57:28.973Z</time></trkpt><trkpt lat="44.9342776" lon="8.5959331"><ele>88.0</ele><time>2026-04-18T14:57:29.973Z</time></trkpt><trkpt lat="44.9343397" lon="8.5955696"><ele>88.0</ele><time>2026-04-18T14:57:30.975Z</time></trkpt><trkpt lat="44.9344014" lon="8.5952078"><ele>88.5</ele><time>2026-04-18T14:57:31.97Z</time></trkpt><trkpt lat="44.9344636" lon="8.5948503"><ele>89.0</ele><time>2026-04-18T14:57:32.975Z</time></trkpt><trkpt lat="44.9345276" lon="8.5944964"><ele>89.5</ele><time>2026-04-18T14:57:33.973Z</time></trkpt><trkpt lat="44.934593" lon="8.5941472"><ele>90.0</ele><time>2026-04-18T14:57:34.967Z</time></trkpt><trkpt lat="44.9346609" lon="8.5938043"><ele>90.0</ele><time>2026-04-18T14:57:35.975Z</time></trkpt><trkpt lat="44.9347265" lon="8.59347"><ele>90.0</ele><time>2026-04-18T14:57:36.968Z</time></trkpt><trkpt lat="44.9347838" lon="8.5931426"><ele>90.0</ele><time>2026-04-18T14:57:37.974Z</time></trkpt><trkpt lat="44.9348387" lon="8.5928146"><ele>90.0</ele><time>2026-04-18T14:57:38.974Z</time></trkpt><trkpt lat="44.9348936" lon="8.592486"><ele>90.0</ele><time>2026-04-18T14:57:39.973Z</time></trkpt><trkpt lat="44.9349492" lon="8.5921565"><ele>90.0</ele><time>2026-04-18T14:57:40.975Z</time></trkpt><trkpt lat="44.9350057" lon="8.5918235"><ele>90.0</ele><time>2026-04-18T14:57:41.973Z</time></trkpt><trkpt lat="44.935063" lon="8.5914871"><ele>90.0</ele><time>2026-04-18T14:57:42.974Z</time></trkpt><trkpt lat="44.9351195" lon="8.5911497"><ele>90.0</ele><time>2026-04-18T14:57:43.97Z</time></trkpt><trkpt lat="44.9351759" lon="8.5908129"><ele>90.0</ele><time>2026-04-18T14:57:44.975Z</time></trkpt><trkpt lat="44.9352311" lon="8.5904831"><ele>90.5</ele><time>2026-04-18T14:57:45.973Z</time></trkpt><trkpt lat="44.9352856" lon="8.5901585"><ele>91.0</ele><time>2026-04-18T14:57:46.974Z</time></trkpt><trkpt lat="44.9353397" lon="8.5898325"><ele>91.0</ele><time>2026-04-18T14:57:47.972Z</time></trkpt><trkpt lat="44.9353952" lon="8.5895042"><ele>91.0</ele><time>2026-04-18T14:57:48.973Z</time></trkpt><trkpt lat="44.9354497" lon="8.5891813"><ele>91.0</ele><time>2026-04-18T14:57:49.969Z</time></trkpt><trkpt lat="44.9355033" lon="8.5888623"><ele>91.0</ele><time>2026-04-18T14:57:50.965Z</time></trkpt><trkpt lat="44.9355567" lon="8.5885536"><ele>91.0</ele><time>2026-04-18T14:57:51.974Z</time></trkpt><trkpt lat="44.9356072" lon="8.588256"><ele>91.0</ele><time>2026-04-18T14:57:52.974Z</time></trkpt><trkpt lat="44.9356575" lon="8.5879632"><ele>91.0</ele><time>2026-04-18T14:57:53.972Z</time></trkpt><trkpt lat="44.9357054" lon="8.5876805"><ele>91.0</ele><time>2026-04-18T14:57:54.967Z</time></trkpt><trkpt lat="44.9357499" lon="8.5874049"><ele>91.0</ele><time>2026-04-18T14:57:55.969Z</time></trkpt><trkpt lat="44.9357926" lon="8.5871449"><ele>91.0</ele><time>2026-04-18T14:57:56.974Z</time></trkpt><trkpt lat="44.9358315" lon="8.5868985"><ele>91.0</ele><time>2026-04-18T14:57:57.974Z</time></trkpt><trkpt lat="44.9358687" lon="8.5866666"><ele>91.0</ele><time>2026-04-18T14:57:58.971Z</time></trkpt><trkpt lat="44.935903" lon="8.5864586"><ele>91.0</ele><time>2026-04-18T14:57:59.971Z</time></trkpt><trkpt lat="44.9359354" lon="8.5862941"><ele>91.0</ele><time>2026-04-18T14:58:00.975Z</time></trkpt><trkpt lat="44.9359656" lon="8.5861708"><ele>91.5</ele><time>2026-04-18T14:58:01.975Z</time></trkpt><trkpt lat="44.9359987" lon="8.586086"><ele>92.0</ele><time>2026-04-18T14:58:02.97Z</time></trkpt><trkpt lat="44.9360435" lon="8.5860154"><ele>92.5</ele><time>2026-04-18T14:58:03.965Z</time></trkpt><trkpt lat="44.9360993" lon="8.5859593"><ele>93.0</ele><time>2026-04-18T14:58:04.975Z</time></trkpt><trkpt lat="44.9361615" lon="8.5859006"><ele>93.5</ele><time>2026-04-18T14:58:05.975Z</time></trkpt><trkpt lat="44.9362252" lon="8.5858252"><ele>94.0</ele><time>2026-04-18T14:58:06.968Z</time></trkpt><trkpt lat="44.9362939" lon="8.5857345"><ele>94.0</ele><time>2026-04-18T14:58:07.968Z</time></trkpt><trkpt lat="44.9363779" lon="8.5856423"><ele>94.0</ele><time>2026-04-18T14:58:08.972Z</time></trkpt><trkpt lat="44.9364842" lon="8.5855657"><ele>94.0</ele><time>2026-04-18T14:58:09.971Z</time></trkpt><trkpt lat="44.9366112" lon="8.5855207"><ele>94.0</ele><time>2026-04-18T14:58:10.974Z</time></trkpt><trkpt lat="44.936752" lon="8.5855044"><ele>94.33333333333333</ele><time>2026-04-18T14:58:11.967Z</time></trkpt><trkpt lat="44.936907" lon="8.5855038"><ele>94.66666666666667</ele><time>2026-04-18T14:58:12.974Z</time></trkpt><trkpt lat="44.9370725" lon="8.5855148"><ele>95.0</ele><time>2026-04-18T14:58:13.972Z</time></trkpt><trkpt lat="44.937244" lon="8.5855356"><ele>95.0</ele><time>2026-04-18T14:58:14.971Z</time></trkpt><trkpt lat="44.9374208" lon="8.5855661"><ele>95.0</ele><time>2026-04-18T14:58:15.973Z</time></trkpt><trkpt lat="44.937602" lon="8.5855971"><ele>95.0</ele><time>2026-04-18T14:58:16.975Z</time></trkpt><trkpt lat="44.9377887" lon="8.5856291"><ele>94.66666666666667</ele><time>2026-04-18T14:58:17.974Z</time></trkpt><trkpt lat="44.9379794" lon="8.5856608"><ele>94.33333333333333</ele><time>2026-04-18T14:58:18.973Z</time></trkpt><trkpt lat="44.9381673" lon="8.585689"><ele>94.0</ele><time>2026-04-18T14:58:19.972Z</time></trkpt><trkpt lat="44.9383513" lon="8.5857114"><ele>94.0</ele><time>2026-04-18T14:58:20.971Z</time></trkpt><trkpt lat="44.938538" lon="8.5857233"><ele>94.0</ele><time>2026-04-18T14:58:21.975Z</time></trkpt><trkpt lat="44.9387276" lon="8.5857191"><ele>94.0</ele><time>2026-04-18T14:58:22.969Z</time></trkpt><trkpt lat="44.938916" lon="8.5856978"><ele>94.0</ele><time>2026-04-18T14:58:23.973Z</time></trkpt><trkpt lat="44.9391117" lon="8.5856598"><ele>94.0</ele><time>2026-04-18T14:58:24.974Z</time></trkpt><trkpt lat="44.9393074" lon="8.5856075"><ele>94.0</ele><time>2026-04-18T14:58:25.971Z</time></trkpt><trkpt lat="44.9395" lon="8.5855382"><ele>94.33333333333333</ele><time>2026-04-18T14:58:26.971Z</time></trkpt><trkpt lat="44.9396895" lon="8.5854572"><ele>94.66666666666667</ele><time>2026-04-18T14:58:27.973Z</time></trkpt><trkpt lat="44.9398786" lon="8.5853714"><ele>95.0</ele><time>2026-04-18T14:58:28.974Z</time></trkpt><trkpt lat="44.9400667" lon="8.5852841"><ele>95.0</ele><time>2026-04-18T14:58:29.973Z</time></trkpt><trkpt lat="44.9402585" lon="8.5851957"><ele>95.0</ele><time>2026-04-18T14:58:30.975Z</time></trkpt><trkpt lat="44.9404507" lon="8.5851083"><ele>95.0</ele><time>2026-04-18T14:58:31.971Z</time></trkpt><trkpt lat="44.9406431" lon="8.5850211"><ele>95.0</ele><time>2026-04-18T14:58:32.975Z</time></trkpt><trkpt lat="44.9408356" lon="8.5849327"><ele>95.0</ele><time>2026-04-18T14:58:33.974Z</time></trkpt><trkpt lat="44.9410275" lon="8.5848462"><ele>95.0</ele><time>2026-04-18T14:58:34.975Z</time></trkpt><trkpt lat="44.9412188" lon="8.5847591"><ele>94.66666666666667</ele><time>2026-04-18T14:58:35.964Z</time></trkpt><trkpt lat="44.941403" lon="8.5846774"><ele>94.33333333333333</ele><time>2026-04-18T14:58:36.974Z</time></trkpt><trkpt lat="44.9415812" lon="8.5845941"><ele>94.0</ele><time>2026-04-18T14:58:37.973Z</time></trkpt><trkpt lat="44.9417541" lon="8.5845151"><ele>94.33333333333333</ele><time>2026-04-18T14:58:38.973Z</time></trkpt><trkpt lat="44.9419244" lon="8.5844364"><ele>94.66666666666667</ele><time>2026-04-18T14:58:39.972Z</time></trkpt><trkpt lat="44.9420912" lon="8.5843595"><ele>95.0</ele><time>2026-04-18T14:58:40.975Z</time></trkpt><trkpt lat="44.9422583" lon="8.5842864"><ele>95.0</ele><time>2026-04-18T14:58:41.97Z</time></trkpt><trkpt lat="44.942428" lon="8.5842154"><ele>95.0</ele><time>2026-04-18T14:58:42.974Z</time></trkpt><trkpt lat="44.9426074" lon="8.5841437"><ele>95.0</ele><time>2026-04-18T14:58:43.974Z</time></trkpt><trkpt lat="44.9427959" lon="8.5840716"><ele>95.0</ele><time>2026-04-18T14:58:44.971Z</time></trkpt><trkpt lat="44.9429928" lon="8.5839938"><ele>95.0</ele><time>2026-04-18T14:58:45.975Z</time></trkpt><trkpt lat="44.9431966" lon="8.5839165"><ele>95.0</ele><time>2026-04-18T14:58:46.975Z</time></trkpt><trkpt lat="44.943402" lon="8.5838433"><ele>95.0</ele><time>2026-04-18T14:58:47.975Z</time></trkpt><trkpt lat="44.9436095" lon="8.5837647"><ele>95.0</ele><time>2026-04-18T14:58:48.974Z</time></trkpt><trkpt lat="44.9438172" lon="8.5836898"><ele>95.0</ele><time>2026-04-18T14:58:49.971Z</time></trkpt><trkpt lat="44.9440222" lon="8.5836152"><ele>95.0</ele><time>2026-04-18T14:58:50.974Z</time></trkpt><trkpt lat="44.9442255" lon="8.5835398"><ele>95.0</ele><time>2026-04-18T14:58:51.972Z</time></trkpt><trkpt lat="44.9444277" lon="8.5834654"><ele>95.0</ele><time>2026-04-18T14:58:52.974Z</time></trkpt><trkpt lat="44.9446297" lon="8.5833922"><ele>95.0</ele><time>2026-04-18T14:58:53.975Z</time></trkpt><trkpt lat="44.9448309" lon="8.5833168"><ele>95.0</ele><time>2026-04-18T14:58:54.975Z</time></trkpt><trkpt lat="44.945034" lon="8.5832426"><ele>95.0</ele><time>2026-04-18T14:58:55.969Z</time></trkpt><trkpt lat="44.945238" lon="8.5831689"><ele>95.33333333333334</ele><time>2026-04-18T14:58:56.965Z</time></trkpt><trkpt lat="44.9454418" lon="8.5830929"><ele>95.66666666666667</ele><time>2026-04-18T14:58:57.973Z</time></trkpt><trkpt lat="44.9456486" lon="8.5830204"><ele>96.0</ele><time>2026-04-18T14:58:58.972Z</time></trkpt><trkpt lat="44.9458555" lon="8.5829448"><ele>96.0</ele><time>2026-04-18T14:58:59.973Z</time></trkpt><trkpt lat="44.9460617" lon="8.5828687"><ele>96.0</ele><time>2026-04-18T14:59:00.97Z</time></trkpt><trkpt lat="44.9462665" lon="8.5827913"><ele>96.0</ele><time>2026-04-18T14:59:01.969Z</time></trkpt><trkpt lat="44.9464722" lon="8.5827148"><ele>96.0</ele><time>2026-04-18T14:59:02.975Z</time></trkpt><trkpt lat="44.9466794" lon="8.5826389"><ele>96.0</ele><time>2026-04-18T14:59:03.969Z</time></trkpt><trkpt lat="44.9468871" lon="8.5825622"><ele>96.0</ele><time>2026-04-18T14:59:04.97Z</time></trkpt><trkpt lat="44.9470968" lon="8.5824837"><ele>96.33333333333334</ele><time>2026-04-18T14:59:05.97Z</time></trkpt><trkpt lat="44.9473045" lon="8.5824067"><ele>96.66666666666667</ele><time>2026-04-18T14:59:06.974Z</time></trkpt><trkpt lat="44.9475121" lon="8.5823297"><ele>97.0</ele><time>2026-04-18T14:59:07.974Z</time></trkpt><trkpt lat="44.9477223" lon="8.5822514"><ele>97.0</ele><time>2026-04-18T14:59:08.973Z</time></trkpt><trkpt lat="44.9479338" lon="8.5821756"><ele>97.0</ele><time>2026-04-18T14:59:09.974Z</time></trkpt><trkpt lat="44.9481453" lon="8.5820978"><ele>97.0</ele><time>2026-04-18T14:59:10.973Z</time></trkpt><trkpt lat="44.9483553" lon="8.5820227"><ele>96.66666666666667</ele><time>2026-04-18T14:59:11.975Z</time></trkpt><trkpt lat="44.9485626" lon="8.5819456"><ele>96.33333333333334</ele><time>2026-04-18T14:59:12.974Z</time></trkpt><trkpt lat="44.9487662" lon="8.5818686"><ele>96.0</ele><time>2026-04-18T14:59:13.97Z</time></trkpt><trkpt lat="44.9489674" lon="8.5817927"><ele>96.0</ele><time>2026-04-18T14:59:14.967Z</time></trkpt><trkpt lat="44.9491688" lon="8.581717"><ele>96.0</ele><time>2026-04-18T14:59:15.969Z</time></trkpt><trkpt lat="44.9493709" lon="8.5816415"><ele>96.0</ele><time>2026-04-18T14:59:16.969Z</time></trkpt><trkpt lat="44.9495732" lon="8.5815675"><ele>97.0</ele><time>2026-04-18T14:59:17.975Z</time></trkpt><trkpt lat="44.9497763" lon="8.5814943"><ele>98.0</ele><time>2026-04-18T14:59:18.971Z</time></trkpt><trkpt lat="44.9499782" lon="8.5814212"><ele>99.0</ele><time>2026-04-18T14:59:19.971Z</time></trkpt><trkpt lat="44.9501712" lon="8.5813497"><ele>99.0</ele><time>2026-04-18T14:59:20.975Z</time></trkpt><trkpt lat="44.9503558" lon="8.58128"><ele>99.0</ele><time>2026-04-18T14:59:21.967Z</time></trkpt><trkpt lat="44.9505329" lon="8.5812133"><ele>99.0</ele><time>2026-04-18T14:59:22.975Z</time></trkpt><trkpt lat="44.9507065" lon="8.5811481"><ele>99.66666666666666</ele><time>2026-04-18T14:59:23.975Z</time></trkpt><trkpt lat="44.9508787" lon="8.5810836"><ele>100.33333333333333</ele><time>2026-04-18T14:59:24.967Z</time></trkpt><trkpt lat="44.9510507" lon="8.5810182"><ele>101.0</ele><time>2026-04-18T14:59:25.972Z</time></trkpt><trkpt lat="44.9512242" lon="8.5809526"><ele>101.0</ele><time>2026-04-18T14:59:26.975Z</time></trkpt><trkpt lat="44.9514011" lon="8.5808872"><ele>101.0</ele><time>2026-04-18T14:59:27.965Z</time></trkpt><trkpt lat="44.9515801" lon="8.580822"><ele>101.0</ele><time>2026-04-18T14:59:28.971Z</time></trkpt><trkpt lat="44.9517621" lon="8.5807565"><ele>101.0</ele><time>2026-04-18T14:59:29.97Z</time></trkpt><trkpt lat="44.951947" lon="8.5806906"><ele>101.0</ele><time>2026-04-18T14:59:30.974Z</time></trkpt><trkpt lat="44.9521302" lon="8.5806253"><ele>101.0</ele><time>2026-04-18T14:59:31.975Z</time></trkpt><trkpt lat="44.9523089" lon="8.5805619"><ele>101.0</ele><time>2026-04-18T14:59:32.971Z</time></trkpt><trkpt lat="44.9524835" lon="8.5804989"><ele>101.0</ele><time>2026-04-18T14:59:33.975Z</time></trkpt><trkpt lat="44.9526562" lon="8.5804339"><ele>101.0</ele><time>2026-04-18T14:59:34.974Z</time></trkpt><trkpt lat="44.9528254" lon="8.5803744"><ele>100.66666666666666</ele><time>2026-04-18T14:59:35.974Z</time></trkpt><trkpt lat="44.9529912" lon="8.5803143"><ele>100.33333333333334</ele><time>2026-04-18T14:59:36.968Z</time></trkpt><trkpt lat="44.9531617" lon="8.5802532"><ele>100.0</ele><time>2026-04-18T14:59:37.967Z</time></trkpt><trkpt lat="44.9533272" lon="8.5801921"><ele>101.0</ele><time>2026-04-18T14:59:38.975Z</time></trkpt><trkpt lat="44.9534954" lon="8.5801281"><ele>102.0</ele><time>2026-04-18T14:59:39.975Z</time></trkpt><trkpt lat="44.953667" lon="8.5800645"><ele>103.0</ele><time>2026-04-18T14:59:40.972Z</time></trkpt><trkpt lat="44.9538361" lon="8.5800006"><ele>103.0</ele><time>2026-04-18T14:59:41.975Z</time></trkpt><trkpt lat="44.9540083" lon="8.5799371"><ele>103.0</ele><time>2026-04-18T14:59:42.975Z</time></trkpt><trkpt lat="44.9541808" lon="8.579871"><ele>103.0</ele><time>2026-04-18T14:59:43.975Z</time></trkpt><trkpt lat="44.9543539" lon="8.5798082"><ele>103.0</ele><time>2026-04-18T14:59:44.967Z</time></trkpt><trkpt lat="44.9545246" lon="8.579742"><ele>103.0</ele><time>2026-04-18T14:59:45.967Z</time></trkpt><trkpt lat="44.9546934" lon="8.5796797"><ele>103.0</ele><time>2026-04-18T14:59:46.969Z</time></trkpt><trkpt lat="44.9548649" lon="8.5796163"><ele>103.0</ele><time>2026-04-18T14:59:47.975Z</time></trkpt><trkpt lat="44.9550357" lon="8.5795534"><ele>103.0</ele><time>2026-04-18T14:59:48.965Z</time></trkpt><trkpt lat="44.9552098" lon="8.5794858"><ele>103.0</ele><time>2026-04-18T14:59:49.974Z</time></trkpt><trkpt lat="44.9553858" lon="8.5794192"><ele>103.0</ele><time>2026-04-18T14:59:50.974Z</time></trkpt><trkpt lat="44.9555602" lon="8.5793569"><ele>103.0</ele><time>2026-04-18T14:59:51.97Z</time></trkpt><trkpt lat="44.9557344" lon="8.5792951"><ele>103.0</ele><time>2026-04-18T14:59:52.968Z</time></trkpt><trkpt lat="44.9559085" lon="8.5792339"><ele>103.66666666666667</ele><time>2026-04-18T14:59:53.975Z</time></trkpt><trkpt lat="44.9560817" lon="8.579171"><ele>104.33333333333334</ele><time>2026-04-18T14:59:54.975Z</time></trkpt><trkpt lat="44.9562531" lon="8.5791077"><ele>105.0</ele><time>2026-04-18T14:59:55.975Z</time></trkpt><trkpt lat="44.9564253" lon="8.5790437"><ele>105.0</ele><time>2026-04-18T14:59:56.975Z</time></trkpt><trkpt lat="44.9565977" lon="8.5789808"><ele>105.0</ele><time>2026-04-18T14:59:57.964Z</time></trkpt><trkpt lat="44.9567703" lon="8.5789177"><ele>105.0</ele><time>2026-04-18T14:59:58.964Z</time></trkpt><trkpt lat="44.9569419" lon="8.5788531"><ele>104.66666666666666</ele><time>2026-04-18T14:59:59.974Z</time></trkpt><trkpt lat="44.9571128" lon="8.5787871"><ele>104.33333333333333</ele><time>2026-04-18T15:00:00.964Z</time></trkpt><trkpt lat="44.9572844" lon="8.5787232"><ele>104.0</ele><time>2026-04-18T15:00:01.972Z</time></trkpt><trkpt lat="44.9574556" lon="8.5786611"><ele>104.0</ele><time>2026-04-18T15:00:02.963Z</time></trkpt><trkpt lat="44.957624" lon="8.5785987"><ele>104.0</ele><time>2026-04-18T15:00:03.97Z</time></trkpt><trkpt lat="44.95779" lon="8.5785361"><ele>104.0</ele><time>2026-04-18T15:00:04.969Z</time></trkpt><trkpt lat="44.9579553" lon="8.578473"><ele>104.0</ele><time>2026-04-18T15:00:05.972Z</time></trkpt><trkpt lat="44.9581233" lon="8.578411"><ele>104.0</ele><time>2026-04-18T15:00:06.972Z</time></trkpt><trkpt lat="44.9582975" lon="8.5783447"><ele>104.0</ele><time>2026-04-18T15:00:07.961Z</time></trkpt><trkpt lat="44.9584796" lon="8.5782752"><ele>104.0</ele><time>2026-04-18T15:00:08.967Z</time></trkpt><trkpt lat="44.9586594" lon="8.5782094"><ele>104.0</ele><time>2026-04-18T15:00:09.97Z</time></trkpt><trkpt lat="44.9588369" lon="8.578147"><ele>104.0</ele><time>2026-04-18T15:00:10.968Z</time></trkpt><trkpt lat="44.959014" lon="8.5780849"><ele>104.0</ele><time>2026-04-18T15:00:11.973Z</time></trkpt><trkpt lat="44.9591924" lon="8.5780235"><ele>104.0</ele><time>2026-04-18T15:00:12.974Z</time></trkpt><trkpt lat="44.9593692" lon="8.57796"><ele>104.0</ele><time>2026-04-18T15:00:13.975Z</time></trkpt><trkpt lat="44.9595423" lon="8.5778983"><ele>103.66666666666666</ele><time>2026-04-18T15:00:14.974Z</time></trkpt><trkpt lat="44.9597096" lon="8.5778352"><ele>103.33333333333334</ele><time>2026-04-18T15:00:15.974Z</time></trkpt><trkpt lat="44.9598737" lon="8.5777721"><ele>103.0</ele><time>2026-04-18T15:00:16.971Z</time></trkpt><trkpt lat="44.9600339" lon="8.5777131"><ele>103.66666666666667</ele><time>2026-04-18T15:00:17.974Z</time></trkpt><trkpt lat="44.960192" lon="8.5776545"><ele>104.33333333333334</ele><time>2026-04-18T15:00:18.968Z</time></trkpt><trkpt lat="44.9603507" lon="8.5775945"><ele>105.0</ele><time>2026-04-18T15:00:19.974Z</time></trkpt><trkpt lat="44.9605074" lon="8.5775303"><ele>105.0</ele><time>2026-04-18T15:00:20.97Z</time></trkpt><trkpt lat="44.9606585" lon="8.5774635"><ele>105.0</ele><time>2026-04-18T15:00:21.971Z</time></trkpt><trkpt lat="44.9608006" lon="8.5773974"><ele>105.0</ele><time>2026-04-18T15:00:22.972Z</time></trkpt><trkpt lat="44.9609357" lon="8.5773296"><ele>105.5</ele><time>2026-04-18T15:00:23.975Z</time></trkpt><trkpt lat="44.9610593" lon="8.5772618"><ele>106.0</ele><time>2026-04-18T15:00:24.967Z</time></trkpt><trkpt lat="44.9611703" lon="8.5771928"><ele>106.5</ele><time>2026-04-18T15:00:25.974Z</time></trkpt><trkpt lat="44.9612772" lon="8.5771238"><ele>107.0</ele><time>2026-04-18T15:00:26.974Z</time></trkpt><trkpt lat="44.9613797" lon="8.5770628"><ele>107.19999999999999</ele><time>2026-04-18T15:00:27.975Z</time></trkpt><trkpt lat="44.9614773" lon="8.5770049"><ele>107.39999999999999</ele><time>2026-04-18T15:00:28.975Z</time></trkpt><trkpt lat="44.9615717" lon="8.5769515"><ele>107.60000000000001</ele><time>2026-04-18T15:00:29.974Z</time></trkpt><trkpt lat="44.9616654" lon="8.5769025"><ele>107.80000000000001</ele><time>2026-04-18T15:00:30.974Z</time></trkpt><trkpt lat="44.9617539" lon="8.5768652"><ele>108.0</ele><time>2026-04-18T15:00:31.973Z</time></trkpt><trkpt lat="44.9618367" lon="8.5768479"><ele>108.0</ele><time>2026-04-18T15:00:32.975Z</time></trkpt><trkpt lat="44.9619149" lon="8.5768508"><ele>108.0</ele><time>2026-04-18T15:00:33.974Z</time></trkpt><trkpt lat="44.9619887" lon="8.576863"><ele>108.0</ele><time>2026-04-18T15:00:34.971Z</time></trkpt><trkpt lat="44.9620613" lon="8.5768637"><ele>108.0</ele><time>2026-04-18T15:00:35.972Z</time></trkpt><trkpt lat="44.9621288" lon="8.5768387"><ele>108.0</ele><time>2026-04-18T15:00:36.97Z</time></trkpt><trkpt lat="44.9621811" lon="8.5767831"><ele>108.0</ele><time>2026-04-18T15:00:37.973Z</time></trkpt><trkpt lat="44.9622185" lon="8.5766948"><ele>108.0</ele><time>2026-04-18T15:00:38.974Z</time></trkpt><trkpt lat="44.9622515" lon="8.576579"><ele>108.0</ele><time>2026-04-18T15:00:39.975Z</time></trkpt><trkpt lat="44.9622987" lon="8.576438"><ele>108.0</ele><time>2026-04-18T15:00:40.966Z</time></trkpt><trkpt lat="44.9623774" lon="8.5762993"><ele>108.0</ele><time>2026-04-18T15:00:41.965Z</time></trkpt><trkpt lat="44.9624858" lon="8.5761573"><ele>108.0</ele><time>2026-04-18T15:00:42.969Z</time></trkpt><trkpt lat="44.962614" lon="8.576007"><ele>108.0</ele><time>2026-04-18T15:00:43.972Z</time></trkpt><trkpt lat="44.9627549" lon="8.5758455"><ele>108.0</ele><time>2026-04-18T15:00:44.974Z</time></trkpt><trkpt lat="44.9629032" lon="8.5756729"><ele>108.0</ele><time>2026-04-18T15:00:45.974Z</time></trkpt><trkpt lat="44.9630522" lon="8.5754951"><ele>108.66666666666666</ele><time>2026-04-18T15:00:46.975Z</time></trkpt><trkpt lat="44.9631988" lon="8.5753087"><ele>109.33333333333333</ele><time>2026-04-18T15:00:47.967Z</time></trkpt><trkpt lat="44.9633475" lon="8.5751083"><ele>110.0</ele><time>2026-04-18T15:00:48.963Z</time></trkpt><trkpt lat="44.9634971" lon="8.5748949"><ele>110.33333333333333</ele><time>2026-04-18T15:00:49.966Z</time></trkpt><trkpt lat="44.9636482" lon="8.5746686"><ele>110.66666666666666</ele><time>2026-04-18T15:00:50.966Z</time></trkpt><trkpt lat="44.9637987" lon="8.5744293"><ele>111.0</ele><time>2026-04-18T15:00:51.969Z</time></trkpt><trkpt lat="44.9639463" lon="8.5741741"><ele>110.5</ele><time>2026-04-18T15:00:52.97Z</time></trkpt><trkpt lat="44.9640937" lon="8.5739039"><ele>110.0</ele><time>2026-04-18T15:00:53.965Z</time></trkpt><trkpt lat="44.964241" lon="8.5736317"><ele>110.0</ele><time>2026-04-18T15:00:54.97Z</time></trkpt><trkpt lat="44.9643861" lon="8.5733655"><ele>110.0</ele><time>2026-04-18T15:00:55.968Z</time></trkpt><trkpt lat="44.9645337" lon="8.5730961"><ele>109.0</ele><time>2026-04-18T15:00:56.969Z</time></trkpt><trkpt lat="44.9646807" lon="8.5728271"><ele>108.0</ele><time>2026-04-18T15:00:57.974Z</time></trkpt><trkpt lat="44.964829" lon="8.5725567"><ele>108.0</ele><time>2026-04-18T15:00:58.975Z</time></trkpt><trkpt lat="44.964977" lon="8.5722828"><ele>108.0</ele><time>2026-04-18T15:00:59.966Z</time></trkpt><trkpt lat="44.965126" lon="8.5720067"><ele>109.0</ele><time>2026-04-18T15:01:00.974Z</time></trkpt><trkpt lat="44.9652763" lon="8.5717293"><ele>110.0</ele><time>2026-04-18T15:01:01.974Z</time></trkpt><trkpt lat="44.9654281" lon="8.5714511"><ele>110.5</ele><time>2026-04-18T15:01:02.971Z</time></trkpt><trkpt lat="44.9655801" lon="8.5711728"><ele>111.0</ele><time>2026-04-18T15:01:03.974Z</time></trkpt><trkpt lat="44.9657324" lon="8.5708947"><ele>112.0</ele><time>2026-04-18T15:01:04.962Z</time></trkpt><trkpt lat="44.9658856" lon="8.5706171"><ele>113.0</ele><time>2026-04-18T15:01:05.973Z</time></trkpt><trkpt lat="44.9660381" lon="8.570339"><ele>113.0</ele><time>2026-04-18T15:01:06.966Z</time></trkpt><trkpt lat="44.9661918" lon="8.5700615"><ele>113.0</ele><time>2026-04-18T15:01:07.969Z</time></trkpt><trkpt lat="44.9663446" lon="8.5697842"><ele>112.0</ele><time>2026-04-18T15:01:08.967Z</time></trkpt><trkpt lat="44.9664977" lon="8.5695071"><ele>111.0</ele><time>2026-04-18T15:01:09.974Z</time></trkpt><trkpt lat="44.9666516" lon="8.5692311"><ele>112.0</ele><time>2026-04-18T15:01:10.969Z</time></trkpt><trkpt lat="44.9668045" lon="8.5689525"><ele>113.0</ele><time>2026-04-18T15:01:11.965Z</time></trkpt><trkpt lat="44.9669558" lon="8.5686749"><ele>113.0</ele><time>2026-04-18T15:01:12.967Z</time></trkpt><trkpt lat="44.9671067" lon="8.568399"><ele>113.0</ele><time>2026-04-18T15:01:13.968Z</time></trkpt><trkpt lat="44.9672576" lon="8.568125"><ele>113.0</ele><time>2026-04-18T15:01:14.975Z</time></trkpt><trkpt lat="44.9674059" lon="8.567855"><ele>113.0</ele><time>2026-04-18T15:01:15.975Z</time></trkpt><trkpt lat="44.9675513" lon="8.5675893"><ele>114.0</ele><time>2026-04-18T15:01:16.973Z</time></trkpt><trkpt lat="44.967695" lon="8.567325"><ele>115.0</ele><time>2026-04-18T15:01:17.964Z</time></trkpt><trkpt lat="44.9678385" lon="8.5670625"><ele>115.0</ele><time>2026-04-18T15:01:18.974Z</time></trkpt><trkpt lat="44.9679824" lon="8.5668"><ele>115.0</ele><time>2026-04-18T15:01:19.975Z</time></trkpt><trkpt lat="44.9681257" lon="8.5665384"><ele>115.0</ele><time>2026-04-18T15:01:20.972Z</time></trkpt><trkpt lat="44.9682673" lon="8.5662792"><ele>115.0</ele><time>2026-04-18T15:01:21.97Z</time></trkpt><trkpt lat="44.9684095" lon="8.5660194"><ele>115.5</ele><time>2026-04-18T15:01:22.974Z</time></trkpt><trkpt lat="44.9685499" lon="8.5657628"><ele>116.0</ele><time>2026-04-18T15:01:23.969Z</time></trkpt><trkpt lat="44.9686878" lon="8.565512"><ele>116.0</ele><time>2026-04-18T15:01:24.965Z</time></trkpt><trkpt lat="44.9688247" lon="8.5652629"><ele>116.0</ele><time>2026-04-18T15:01:25.975Z</time></trkpt><trkpt lat="44.9689608" lon="8.5650121"><ele>116.0</ele><time>2026-04-18T15:01:26.975Z</time></trkpt><trkpt lat="44.9690967" lon="8.5647614"><ele>117.0</ele><time>2026-04-18T15:01:27.971Z</time></trkpt><trkpt lat="44.9692336" lon="8.5645106"><ele>118.0</ele><time>2026-04-18T15:01:28.965Z</time></trkpt><trkpt lat="44.9693726" lon="8.5642597"><ele>118.0</ele><time>2026-04-18T15:01:29.971Z</time></trkpt><trkpt lat="44.9695108" lon="8.5640071"><ele>118.0</ele><time>2026-04-18T15:01:30.971Z</time></trkpt><trkpt lat="44.9696515" lon="8.5637526"><ele>118.5</ele><time>2026-04-18T15:01:31.975Z</time></trkpt><trkpt lat="44.9697908" lon="8.5634964"><ele>119.0</ele><time>2026-04-18T15:01:32.967Z</time></trkpt><trkpt lat="44.9699316" lon="8.5632396"><ele>119.5</ele><time>2026-04-18T15:01:33.974Z</time></trkpt><trkpt lat="44.970073" lon="8.5629836"><ele>120.0</ele><time>2026-04-18T15:01:34.97Z</time></trkpt><trkpt lat="44.9702163" lon="8.5627292"><ele>120.0</ele><time>2026-04-18T15:01:35.971Z</time></trkpt><trkpt lat="44.970362" lon="8.5624759"><ele>120.0</ele><time>2026-04-18T15:01:36.974Z</time></trkpt><trkpt lat="44.9705125" lon="8.5622268"><ele>122.5</ele><time>2026-04-18T15:01:37.969Z</time></trkpt><trkpt lat="44.9706685" lon="8.5619828"><ele>125.0</ele><time>2026-04-18T15:01:38.975Z</time></trkpt><trkpt lat="44.9708307" lon="8.5617432"><ele>123.5</ele><time>2026-04-18T15:01:39.974Z</time></trkpt><trkpt lat="44.9709991" lon="8.5615094"><ele>122.0</ele><time>2026-04-18T15:01:40.975Z</time></trkpt><trkpt lat="44.9711751" lon="8.5612801"><ele>123.5</ele><time>2026-04-18T15:01:41.97Z</time></trkpt><trkpt lat="44.9713582" lon="8.5610559"><ele>125.0</ele><time>2026-04-18T15:01:42.975Z</time></trkpt><trkpt lat="44.9715477" lon="8.560839"><ele>125.5</ele><time>2026-04-18T15:01:43.973Z</time></trkpt><trkpt lat="44.9717443" lon="8.5606296"><ele>126.0</ele><time>2026-04-18T15:01:44.975Z</time></trkpt><trkpt lat="44.9719482" lon="8.560429"><ele>126.0</ele><time>2026-04-18T15:01:45.975Z</time></trkpt><trkpt lat="44.9721588" lon="8.5602393"><ele>126.0</ele><time>2026-04-18T15:01:46.974Z</time></trkpt><trkpt lat="44.9723766" lon="8.5600596"><ele>128.0</ele><time>2026-04-18T15:01:47.967Z</time></trkpt><trkpt lat="44.9726001" lon="8.5598897"><ele>130.0</ele><time>2026-04-18T15:01:48.964Z</time></trkpt><trkpt lat="44.9728284" lon="8.5597305"><ele>130.0</ele><time>2026-04-18T15:01:49.964Z</time></trkpt><trkpt lat="44.973061" lon="8.5595818"><ele>130.0</ele><time>2026-04-18T15:01:50.968Z</time></trkpt><trkpt lat="44.9732924" lon="8.5594455"><ele>130.0</ele><time>2026-04-18T15:01:51.97Z</time></trkpt><trkpt lat="44.9735232" lon="8.5593213"><ele>130.0</ele><time>2026-04-18T15:01:52.974Z</time></trkpt><trkpt lat="44.9737515" lon="8.5592085"><ele>130.0</ele><time>2026-04-18T15:01:53.967Z</time></trkpt><trkpt lat="44.9739764" lon="8.5591109"><ele>130.0</ele><time>2026-04-18T15:01:54.966Z</time></trkpt><trkpt lat="44.9742028" lon="8.559025"><ele>132.5</ele><time>2026-04-18T15:01:55.975Z</time></trkpt><trkpt lat="44.9744312" lon="8.5589519"><ele>135.0</ele><time>2026-04-18T15:01:56.975Z</time></trkpt><trkpt lat="44.9746609" lon="8.5588894"><ele>135.0</ele><time>2026-04-18T15:01:57.963Z</time></trkpt><trkpt lat="44.9748913" lon="8.5588359"><ele>135.0</ele><time>2026-04-18T15:01:58.971Z</time></trkpt><trkpt lat="44.9751195" lon="8.5587881"><ele>135.5</ele><time>2026-04-18T15:01:59.969Z</time></trkpt><trkpt lat="44.9753475" lon="8.5587411"><ele>136.0</ele><time>2026-04-18T15:02:00.972Z</time></trkpt><trkpt lat="44.9755719" lon="8.558694"><ele>136.0</ele><time>2026-04-18T15:02:01.967Z</time></trkpt><trkpt lat="44.9757966" lon="8.5586468"><ele>136.0</ele><time>2026-04-18T15:02:02.971Z</time></trkpt><trkpt lat="44.9760227" lon="8.5585982"><ele>137.0</ele><time>2026-04-18T15:02:03.975Z</time></trkpt><trkpt lat="44.9762437" lon="8.5585519"><ele>138.0</ele><time>2026-04-18T15:02:04.965Z</time></trkpt><trkpt lat="44.9764609" lon="8.5585071"><ele>139.0</ele><time>2026-04-18T15:02:05.971Z</time></trkpt><trkpt lat="44.9766738" lon="8.5584641"><ele>139.66666666666669</ele><time>2026-04-18T15:02:06.973Z</time></trkpt><trkpt lat="44.9768811" lon="8.5584226"><ele>140.33333333333334</ele><time>2026-04-18T15:02:07.971Z</time></trkpt><trkpt lat="44.9770865" lon="8.5583807"><ele>141.0</ele><time>2026-04-18T15:02:08.974Z</time></trkpt><trkpt lat="44.9772918" lon="8.5583394"><ele>141.0</ele><time>2026-04-18T15:02:09.972Z</time></trkpt><trkpt lat="44.9774959" lon="8.5582983"><ele>141.0</ele><time>2026-04-18T15:02:10.975Z</time></trkpt><trkpt lat="44.9776962" lon="8.5582543"><ele>141.0</ele><time>2026-04-18T15:02:11.975Z</time></trkpt><trkpt lat="44.9778902" lon="8.5582085"><ele>142.66666666666666</ele><time>2026-04-18T15:02:12.974Z</time></trkpt><trkpt lat="44.978085" lon="8.5581606"><ele>144.33333333333331</ele><time>2026-04-18T15:02:13.973Z</time></trkpt><trkpt lat="44.9782812" lon="8.5581156"><ele>146.0</ele><time>2026-04-18T15:02:14.97Z</time></trkpt><trkpt lat="44.9784808" lon="8.558069"><ele>147.33333333333331</ele><time>2026-04-18T15:02:15.974Z</time></trkpt><trkpt lat="44.9786932" lon="8.5580153"><ele>148.66666666666666</ele><time>2026-04-18T15:02:16.974Z</time></trkpt><trkpt lat="44.9789165" lon="8.5579665"><ele>150.0</ele><time>2026-04-18T15:02:17.975Z</time></trkpt><trkpt lat="44.9791462" lon="8.5579301"><ele>146.0</ele><time>2026-04-18T15:02:18.973Z</time></trkpt><trkpt lat="44.9793819" lon="8.5578922"><ele>142.0</ele><time>2026-04-18T15:02:19.967Z</time></trkpt><trkpt lat="44.9796243" lon="8.5578546"><ele>140.5</ele><time>2026-04-18T15:02:20.975Z</time></trkpt><trkpt lat="44.9798576" lon="8.5578104"><ele>139.0</ele><time>2026-04-18T15:02:21.975Z</time></trkpt><trkpt lat="44.9800858" lon="8.5577671"><ele>136.66666666666669</ele><time>2026-04-18T15:02:22.974Z</time></trkpt><trkpt lat="44.9803088" lon="8.5577216"><ele>134.33333333333334</ele><time>2026-04-18T15:02:23.97Z</time></trkpt><trkpt lat="44.9805239" lon="8.5576754"><ele>132.0</ele><time>2026-04-18T15:02:24.974Z</time></trkpt><trkpt lat="44.9807338" lon="8.5576315"><ele>131.0</ele><time>2026-04-18T15:02:25.975Z</time></trkpt><trkpt lat="44.9809366" lon="8.5575886"><ele>130.0</ele><time>2026-04-18T15:02:26.974Z</time></trkpt><trkpt lat="44.9811342" lon="8.5575447"><ele>129.0</ele><time>2026-04-18T15:02:27.974Z</time></trkpt><trkpt lat="44.9813289" lon="8.5575048"><ele>129.0</ele><time>2026-04-18T15:02:28.974Z</time></trkpt><trkpt lat="44.9815255" lon="8.5574652"><ele>129.0</ele><time>2026-04-18T15:02:29.972Z</time></trkpt><trkpt lat="44.9817234" lon="8.5574282"><ele>129.0</ele><time>2026-04-18T15:02:30.974Z</time></trkpt><trkpt lat="44.9819183" lon="8.5573916"><ele>129.33333333333334</ele><time>2026-04-18T15:02:31.974Z</time></trkpt><trkpt lat="44.982112" lon="8.5573563"><ele>129.66666666666669</ele><time>2026-04-18T15:02:32.974Z</time></trkpt><trkpt lat="44.9823012" lon="8.5573215"><ele>130.0</ele><time>2026-04-18T15:02:33.974Z</time></trkpt><trkpt lat="44.982489" lon="8.5572933"><ele>131.0</ele><time>2026-04-18T15:02:34.975Z</time></trkpt><trkpt lat="44.9826816" lon="8.557274"><ele>132.0</ele><time>2026-04-18T15:02:35.97Z</time></trkpt><trkpt lat="44.9828802" lon="8.5572663"><ele>133.0</ele><time>2026-04-18T15:02:36.974Z</time></trkpt><trkpt lat="44.9830832" lon="8.5572745"><ele>133.0</ele><time>2026-04-18T15:02:37.975Z</time></trkpt><trkpt lat="44.9832884" lon="8.5572967"><ele>133.0</ele><time>2026-04-18T15:02:38.972Z</time></trkpt><trkpt lat="44.9834953" lon="8.5573331"><ele>133.0</ele><time>2026-04-18T15:02:39.974Z</time></trkpt><trkpt lat="44.9837035" lon="8.5573848"><ele>131.0</ele><time>2026-04-18T15:02:40.974Z</time></trkpt><trkpt lat="44.9839103" lon="8.5574535"><ele>129.0</ele><time>2026-04-18T15:02:41.975Z</time></trkpt><trkpt lat="44.9841173" lon="8.5575382"><ele>127.0</ele><time>2026-04-18T15:02:42.972Z</time></trkpt><trkpt lat="44.9843229" lon="8.5576311"><ele>127.0</ele><time>2026-04-18T15:02:43.964Z</time></trkpt><trkpt lat="44.9845269" lon="8.5577282"><ele>127.0</ele><time>2026-04-18T15:02:44.974Z</time></trkpt><trkpt lat="44.9847356" lon="8.5578286"><ele>127.0</ele><time>2026-04-18T15:02:45.966Z</time></trkpt><trkpt lat="44.9849426" lon="8.5579302"><ele>128.0</ele><time>2026-04-18T15:02:46.975Z</time></trkpt><trkpt lat="44.9851461" lon="8.5580307"><ele>129.0</ele><time>2026-04-18T15:02:47.97Z</time></trkpt><trkpt lat="44.9853425" lon="8.558127"><ele>130.0</ele><time>2026-04-18T15:02:48.975Z</time></trkpt><trkpt lat="44.9855379" lon="8.5582251"><ele>130.0</ele><time>2026-04-18T15:02:49.975Z</time></trkpt><trkpt lat="44.9857308" lon="8.5583234"><ele>130.0</ele><time>2026-04-18T15:02:50.968Z</time></trkpt><trkpt lat="44.985919" lon="8.5584164"><ele>130.0</ele><time>2026-04-18T15:02:51.974Z</time></trkpt><trkpt lat="44.9861028" lon="8.55851"><ele>131.33333333333334</ele><time>2026-04-18T15:02:52.97Z</time></trkpt><trkpt lat="44.9862847" lon="8.558601"><ele>132.66666666666666</ele><time>2026-04-18T15:02:53.975Z</time></trkpt><trkpt lat="44.9864677" lon="8.5586922"><ele>134.0</ele><time>2026-04-18T15:02:54.975Z</time></trkpt><trkpt lat="44.9866506" lon="8.5587859"><ele>134.33333333333331</ele><time>2026-04-18T15:02:55.974Z</time></trkpt><trkpt lat="44.9868362" lon="8.5588763"><ele>134.66666666666666</ele><time>2026-04-18T15:02:56.963Z</time></trkpt><trkpt lat="44.9870243" lon="8.558972"><ele>135.0</ele><time>2026-04-18T15:02:57.975Z</time></trkpt><trkpt lat="44.9872129" lon="8.5590726"><ele>135.0</ele><time>2026-04-18T15:02:58.966Z</time></trkpt><trkpt lat="44.9874043" lon="8.5591686"><ele>135.0</ele><time>2026-04-18T15:02:59.969Z</time></trkpt><trkpt lat="44.9875958" lon="8.5592639"><ele>135.0</ele><time>2026-04-18T15:03:00.975Z</time></trkpt><trkpt lat="44.9877854" lon="8.5593593"><ele>136.66666666666666</ele><time>2026-04-18T15:03:01.973Z</time></trkpt><trkpt lat="44.9879737" lon="8.5594486"><ele>138.33333333333331</ele><time>2026-04-18T15:03:02.964Z</time></trkpt><trkpt lat="44.9881587" lon="8.5595308"><ele>140.0</ele><time>2026-04-18T15:03:03.967Z</time></trkpt><trkpt lat="44.9883475" lon="8.5596035"><ele>140.0</ele><time>2026-04-18T15:03:04.968Z</time></trkpt><trkpt lat="44.9885417" lon="8.5596659"><ele>140.0</ele><time>2026-04-18T15:03:05.966Z</time></trkpt><trkpt lat="44.9887434" lon="8.5597202"><ele>140.0</ele><time>2026-04-18T15:03:06.965Z</time></trkpt><trkpt lat="44.9889481" lon="8.5597708"><ele>140.0</ele><time>2026-04-18T15:03:07.968Z</time></trkpt><trkpt lat="44.9891594" lon="8.5598159"><ele>140.0</ele><time>2026-04-18T15:03:08.967Z</time></trkpt><trkpt lat="44.9893754" lon="8.5598523"><ele>140.0</ele><time>2026-04-18T15:03:09.969Z</time></trkpt><trkpt lat="44.9895964" lon="8.5598792"><ele>142.0</ele><time>2026-04-18T15:03:10.975Z</time></trkpt><trkpt lat="44.9898217" lon="8.5598929"><ele>144.0</ele><time>2026-04-18T15:03:11.975Z</time></trkpt><trkpt lat="44.9900485" lon="8.5598904"><ele>146.0</ele><time>2026-04-18T15:03:12.972Z</time></trkpt><trkpt lat="44.9902772" lon="8.5598703"><ele>148.0</ele><time>2026-04-18T15:03:13.963Z</time></trkpt><trkpt lat="44.9905039" lon="8.5598379"><ele>148.0</ele><time>2026-04-18T15:03:14.973Z</time></trkpt><trkpt lat="44.9907303" lon="8.5597954"><ele>148.0</ele><time>2026-04-18T15:03:15.971Z</time></trkpt><trkpt lat="44.9909544" lon="8.559745"><ele>148.66666666666669</ele><time>2026-04-18T15:03:16.975Z</time></trkpt><trkpt lat="44.9911748" lon="8.5596846"><ele>149.33333333333334</ele><time>2026-04-18T15:03:17.968Z</time></trkpt><trkpt lat="44.9913917" lon="8.5596134"><ele>150.0</ele><time>2026-04-18T15:03:18.968Z</time></trkpt><trkpt lat="44.9916048" lon="8.5595259"><ele>151.33333333333334</ele><time>2026-04-18T15:03:19.969Z</time></trkpt><trkpt lat="44.9918109" lon="8.5594272"><ele>152.66666666666669</ele><time>2026-04-18T15:03:20.974Z</time></trkpt><trkpt lat="44.9920052" lon="8.5593187"><ele>154.0</ele><time>2026-04-18T15:03:21.973Z</time></trkpt><trkpt lat="44.9921917" lon="8.5592038"><ele>154.0</ele><time>2026-04-18T15:03:22.974Z</time></trkpt><trkpt lat="44.9923718" lon="8.5590807"><ele>154.0</ele><time>2026-04-18T15:03:23.974Z</time></trkpt><trkpt lat="44.9925481" lon="8.5589571"><ele>154.0</ele><time>2026-04-18T15:03:24.969Z</time></trkpt><trkpt lat="44.9927237" lon="8.5588334"><ele>154.0</ele><time>2026-04-18T15:03:25.969Z</time></trkpt><trkpt lat="44.9928972" lon="8.5587018"><ele>154.0</ele><time>2026-04-18T15:03:26.964Z</time></trkpt><trkpt lat="44.9930724" lon="8.5585563"><ele>154.0</ele><time>2026-04-18T15:03:27.975Z</time></trkpt><trkpt lat="44.9932491" lon="8.5584003"><ele>156.0</ele><time>2026-04-18T15:03:28.975Z</time></trkpt><trkpt lat="44.993432" lon="8.5582347"><ele>158.0</ele><time>2026-04-18T15:03:29.967Z</time></trkpt><trkpt lat="44.9936189" lon="8.5580612"><ele>160.0</ele><time>2026-04-18T15:03:30.964Z</time></trkpt><trkpt lat="44.9938103" lon="8.5578813"><ele>162.0</ele><time>2026-04-18T15:03:31.964Z</time></trkpt><trkpt lat="44.9940058" lon="8.557698"><ele>164.0</ele><time>2026-04-18T15:03:32.968Z</time></trkpt><trkpt lat="44.994203" lon="8.5575143"><ele>164.0</ele><time>2026-04-18T15:03:33.963Z</time></trkpt><trkpt lat="44.9943994" lon="8.5573281"><ele>164.0</ele><time>2026-04-18T15:03:34.974Z</time></trkpt><trkpt lat="44.9945935" lon="8.5571394"><ele>167.5</ele><time>2026-04-18T15:03:35.97Z</time></trkpt><trkpt lat="44.9947836" lon="8.5569478"><ele>171.0</ele><time>2026-04-18T15:03:36.963Z</time></trkpt><trkpt lat="44.9949686" lon="8.556753"><ele>175.5</ele><time>2026-04-18T15:03:37.97Z</time></trkpt><trkpt lat="44.9951487" lon="8.5565534"><ele>180.0</ele><time>2026-04-18T15:03:38.97Z</time></trkpt><trkpt lat="44.9953269" lon="8.5563485"><ele>183.0</ele><time>2026-04-18T15:03:39.962Z</time></trkpt><trkpt lat="44.9955063" lon="8.5561429"><ele>186.0</ele><time>2026-04-18T15:03:40.971Z</time></trkpt><trkpt lat="44.9956885" lon="8.5559406"><ele>191.5</ele><time>2026-04-18T15:03:41.969Z</time></trkpt><trkpt lat="44.9958705" lon="8.5557351"><ele>197.0</ele><time>2026-04-18T15:03:42.974Z</time></trkpt><trkpt lat="44.996052" lon="8.555531"><ele>182.0</ele><time>2026-04-18T15:03:43.975Z</time></trkpt><trkpt lat="44.9980418" lon="8.553278"><ele>182.0</ele><time>2026-04-18T15:03:55.973Z</time></trkpt><trkpt lat="44.9981984" lon="8.5530826"><ele>182.0</ele><time>2026-04-18T15:03:56.961Z</time></trkpt><trkpt lat="44.9983648" lon="8.5529282"><ele>182.0</ele><time>2026-04-18T15:03:57.974Z</time></trkpt><trkpt lat="44.9985383" lon="8.5527783"><ele>180.66666666666666</ele><time>2026-04-18T15:03:58.968Z</time></trkpt><trkpt lat="44.9987162" lon="8.5526351"><ele>179.33333333333334</ele><time>2026-04-18T15:03:59.975Z</time></trkpt><trkpt lat="44.9989032" lon="8.5525006"><ele>178.0</ele><time>2026-04-18T15:04:00.97Z</time></trkpt><trkpt lat="44.9990999" lon="8.5523813"><ele>176.33333333333334</ele><time>2026-04-18T15:04:01.97Z</time></trkpt><trkpt lat="44.9993068" lon="8.552279"><ele>174.66666666666666</ele><time>2026-04-18T15:04:02.972Z</time></trkpt><trkpt lat="44.9995227" lon="8.552191"><ele>173.0</ele><time>2026-04-18T15:04:03.974Z</time></trkpt><trkpt lat="44.9997462" lon="8.5521194"><ele>173.0</ele><time>2026-04-18T15:04:04.966Z</time></trkpt><trkpt lat="44.9999771" lon="8.5520699"><ele>173.0</ele><time>2026-04-18T15:04:05.966Z</time></trkpt><trkpt lat="45.0002118" lon="8.5520418"><ele>173.0</ele><time>2026-04-18T15:04:06.974Z</time></trkpt><trkpt lat="45.0004504" lon="8.5520324"><ele>173.0</ele><time>2026-04-18T15:04:07.975Z</time></trkpt><trkpt lat="45.0006925" lon="8.5520513"><ele>172.0</ele><time>2026-04-18T15:04:08.975Z</time></trkpt><trkpt lat="45.000935" lon="8.5520895"><ele>171.0</ele><time>2026-04-18T15:04:09.963Z</time></trkpt><trkpt lat="45.0011788" lon="8.5521493"><ele>171.0</ele><time>2026-04-18T15:04:10.97Z</time></trkpt><trkpt lat="45.0014242" lon="8.5522285"><ele>171.0</ele><time>2026-04-18T15:04:11.973Z</time></trkpt><trkpt lat="45.0016694" lon="8.552317"><ele>168.5</ele><time>2026-04-18T15:04:12.973Z</time></trkpt><trkpt lat="45.0019169" lon="8.5524041"><ele>166.0</ele><time>2026-04-18T15:04:13.975Z</time></trkpt><trkpt lat="45.0021646" lon="8.5524952"><ele>166.0</ele><time>2026-04-18T15:04:14.972Z</time></trkpt><trkpt lat="45.002411" lon="8.5525866"><ele>166.0</ele><time>2026-04-18T15:04:15.965Z</time></trkpt><trkpt lat="45.0026586" lon="8.5526765"><ele>166.5</ele><time>2026-04-18T15:04:16.97Z</time></trkpt><trkpt lat="45.0029031" lon="8.5527641"><ele>167.0</ele><time>2026-04-18T15:04:17.973Z</time></trkpt><trkpt lat="45.0031382" lon="8.5528502"><ele>164.0</ele><time>2026-04-18T15:04:18.971Z</time></trkpt><trkpt lat="45.0033672" lon="8.5529351"><ele>161.0</ele><time>2026-04-18T15:04:19.975Z</time></trkpt><trkpt lat="45.0035935" lon="8.5530172"><ele>161.0</ele><time>2026-04-18T15:04:20.975Z</time></trkpt><trkpt lat="45.0038192" lon="8.5530971"><ele>161.0</ele><time>2026-04-18T15:04:21.974Z</time></trkpt><trkpt lat="45.0040475" lon="8.5531783"><ele>161.0</ele><time>2026-04-18T15:04:22.972Z</time></trkpt><trkpt lat="45.0042786" lon="8.5532636"><ele>161.0</ele><time>2026-04-18T15:04:23.972Z</time></trkpt><trkpt lat="45.0045148" lon="8.5533502"><ele>161.0</ele><time>2026-04-18T15:04:24.974Z</time></trkpt><trkpt lat="45.0047564" lon="8.5534379"><ele>161.0</ele><time>2026-04-18T15:04:25.968Z</time></trkpt><trkpt lat="45.0050019" lon="8.5535269"><ele>160.0</ele><time>2026-04-18T15:04:26.975Z</time></trkpt><trkpt lat="45.0052514" lon="8.553619"><ele>159.0</ele><time>2026-04-18T15:04:27.972Z</time></trkpt><trkpt lat="45.0055049" lon="8.5537135"><ele>156.5</ele><time>2026-04-18T15:04:28.972Z</time></trkpt><trkpt lat="45.0057597" lon="8.5538045"><ele>154.0</ele><time>2026-04-18T15:04:29.97Z</time></trkpt><trkpt lat="45.0060184" lon="8.5538867"><ele>152.5</ele><time>2026-04-18T15:04:30.972Z</time></trkpt><trkpt lat="45.00628" lon="8.553957"><ele>151.0</ele><time>2026-04-18T15:04:31.965Z</time></trkpt><trkpt lat="45.0065439" lon="8.5540167"><ele>150.0</ele><time>2026-04-18T15:04:32.97Z</time></trkpt><trkpt lat="45.0068092" lon="8.5540677"><ele>149.0</ele><time>2026-04-18T15:04:33.969Z</time></trkpt><trkpt lat="45.0070751" lon="8.5541082"><ele>149.0</ele><time>2026-04-18T15:04:34.975Z</time></trkpt><trkpt lat="45.0073407" lon="8.5541389"><ele>149.0</ele><time>2026-04-18T15:04:35.964Z</time></trkpt><trkpt lat="45.0076043" lon="8.5541552"><ele>146.5</ele><time>2026-04-18T15:04:36.972Z</time></trkpt><trkpt lat="45.0078655" lon="8.554156"><ele>144.0</ele><time>2026-04-18T15:04:37.97Z</time></trkpt><trkpt lat="45.0081266" lon="8.5541459"><ele>144.5</ele><time>2026-04-18T15:04:38.974Z</time></trkpt><trkpt lat="45.0083867" lon="8.554122"><ele>145.0</ele><time>2026-04-18T15:04:39.971Z</time></trkpt><trkpt lat="45.0086467" lon="8.5540885"><ele>145.0</ele><time>2026-04-18T15:04:40.974Z</time></trkpt><trkpt lat="45.0089003" lon="8.5540442"><ele>145.0</ele><time>2026-04-18T15:04:41.97Z</time></trkpt><trkpt lat="45.009145" lon="8.5539924"><ele>145.5</ele><time>2026-04-18T15:04:42.975Z</time></trkpt><trkpt lat="45.0093808" lon="8.553931"><ele>146.0</ele><time>2026-04-18T15:04:43.974Z</time></trkpt><trkpt lat="45.0096077" lon="8.5538612"><ele>146.0</ele><time>2026-04-18T15:04:44.971Z</time></trkpt><trkpt lat="45.0098288" lon="8.5537888"><ele>146.0</ele><time>2026-04-18T15:04:45.971Z</time></trkpt><trkpt lat="45.0100465" lon="8.5537093"><ele>144.33333333333331</ele><time>2026-04-18T15:04:46.975Z</time></trkpt><trkpt lat="45.0102627" lon="8.5536231"><ele>142.66666666666666</ele><time>2026-04-18T15:04:47.974Z</time></trkpt><trkpt lat="45.010473" lon="8.5535291"><ele>141.0</ele><time>2026-04-18T15:04:48.975Z</time></trkpt><trkpt lat="45.0106763" lon="8.5534268"><ele>140.0</ele><time>2026-04-18T15:04:49.974Z</time></trkpt><trkpt lat="45.0108733" lon="8.553317"><ele>139.0</ele><time>2026-04-18T15:04:50.972Z</time></trkpt><trkpt lat="45.0110669" lon="8.5532009"><ele>138.0</ele><time>2026-04-18T15:04:51.974Z</time></trkpt><trkpt lat="45.0112582" lon="8.5530768"><ele>138.0</ele><time>2026-04-18T15:04:52.975Z</time></trkpt><trkpt lat="45.0114453" lon="8.5529439"><ele>138.0</ele><time>2026-04-18T15:04:53.974Z</time></trkpt><trkpt lat="45.0116306" lon="8.5528055"><ele>138.0</ele><time>2026-04-18T15:04:54.974Z</time></trkpt><trkpt lat="45.0118136" lon="8.5526624"><ele>138.33333333333334</ele><time>2026-04-18T15:04:55.973Z</time></trkpt><trkpt lat="45.0119932" lon="8.5525135"><ele>138.66666666666669</ele><time>2026-04-18T15:04:56.975Z</time></trkpt><trkpt lat="45.0121702" lon="8.552354"><ele>139.0</ele><time>2026-04-18T15:04:57.975Z</time></trkpt><trkpt lat="45.0123457" lon="8.5521809"><ele>138.33333333333334</ele><time>2026-04-18T15:04:58.974Z</time></trkpt><trkpt lat="45.0125179" lon="8.5519963"><ele>137.66666666666666</ele><time>2026-04-18T15:04:59.975Z</time></trkpt><trkpt lat="45.0126897" lon="8.5517978"><ele>137.0</ele><time>2026-04-18T15:05:00.974Z</time></trkpt><trkpt lat="45.012865" lon="8.5515822"><ele>137.0</ele><time>2026-04-18T15:05:01.974Z</time></trkpt><trkpt lat="45.0130541" lon="8.5513487"><ele>137.0</ele><time>2026-04-18T15:05:02.967Z</time></trkpt><trkpt lat="45.0132575" lon="8.5511126"><ele>135.0</ele><time>2026-04-18T15:05:03.975Z</time></trkpt><trkpt lat="45.013466" lon="8.55088"><ele>133.0</ele><time>2026-04-18T15:05:04.975Z</time></trkpt><trkpt lat="45.0136671" lon="8.550656"><ele>133.0</ele><time>2026-04-18T15:05:05.975Z</time></trkpt><trkpt lat="45.0138603" lon="8.5504347"><ele>133.0</ele><time>2026-04-18T15:05:06.966Z</time></trkpt><trkpt lat="45.0140453" lon="8.5502152"><ele>132.5</ele><time>2026-04-18T15:05:07.973Z</time></trkpt><trkpt lat="45.0142273" lon="8.5499959"><ele>132.0</ele><time>2026-04-18T15:05:08.975Z</time></trkpt><trkpt lat="45.0144103" lon="8.5497759"><ele>132.0</ele><time>2026-04-18T15:05:09.971Z</time></trkpt><trkpt lat="45.0145937" lon="8.5495541"><ele>132.0</ele><time>2026-04-18T15:05:10.971Z</time></trkpt><trkpt lat="45.0147778" lon="8.5493315"><ele>131.5</ele><time>2026-04-18T15:05:11.975Z</time></trkpt><trkpt lat="45.014963" lon="8.5491081"><ele>131.0</ele><time>2026-04-18T15:05:12.975Z</time></trkpt><trkpt lat="45.0151487" lon="8.5488846"><ele>130.5</ele><time>2026-04-18T15:05:13.972Z</time></trkpt><trkpt lat="45.0153347" lon="8.5486604"><ele>130.0</ele><time>2026-04-18T15:05:14.968Z</time></trkpt><trkpt lat="45.0155209" lon="8.5484361"><ele>130.0</ele><time>2026-04-18T15:05:15.97Z</time></trkpt><trkpt lat="45.0157088" lon="8.5482097"><ele>130.0</ele><time>2026-04-18T15:05:16.975Z</time></trkpt><trkpt lat="45.0158983" lon="8.5479817"><ele>130.0</ele><time>2026-04-18T15:05:17.97Z</time></trkpt><trkpt lat="45.0160895" lon="8.5477536"><ele>130.0</ele><time>2026-04-18T15:05:18.968Z</time></trkpt><trkpt lat="45.0162821" lon="8.5475251"><ele>130.0</ele><time>2026-04-18T15:05:19.965Z</time></trkpt><trkpt lat="45.0164743" lon="8.5472936"><ele>130.0</ele><time>2026-04-18T15:05:20.97Z</time></trkpt><trkpt lat="45.0166664" lon="8.5470613"><ele>129.0</ele><time>2026-04-18T15:05:21.969Z</time></trkpt><trkpt lat="45.0168591" lon="8.5468296"><ele>128.0</ele><time>2026-04-18T15:05:22.968Z</time></trkpt><trkpt lat="45.0170506" lon="8.5465992"><ele>128.0</ele><time>2026-04-18T15:05:23.974Z</time></trkpt><trkpt lat="45.0172383" lon="8.5463722"><ele>128.0</ele><time>2026-04-18T15:05:24.971Z</time></trkpt><trkpt lat="45.0174211" lon="8.5461491"><ele>124.5</ele><time>2026-04-18T15:05:25.966Z</time></trkpt><trkpt lat="45.0176013" lon="8.5459321"><ele>121.0</ele><time>2026-04-18T15:05:26.967Z</time></trkpt><trkpt lat="45.0177795" lon="8.545719"><ele>121.0</ele><time>2026-04-18T15:05:27.966Z</time></trkpt><trkpt lat="45.0179572" lon="8.5455075"><ele>121.0</ele><time>2026-04-18T15:05:28.971Z</time></trkpt><trkpt lat="45.0181337" lon="8.5452983"><ele>121.0</ele><time>2026-04-18T15:05:29.968Z</time></trkpt><trkpt lat="45.0183105" lon="8.5450871"><ele>121.0</ele><time>2026-04-18T15:05:30.972Z</time></trkpt><trkpt lat="45.0184881" lon="8.544874"><ele>121.0</ele><time>2026-04-18T15:05:31.968Z</time></trkpt><trkpt lat="45.0186654" lon="8.5446599"><ele>121.0</ele><time>2026-04-18T15:05:32.963Z</time></trkpt><trkpt lat="45.0188426" lon="8.5444462"><ele>122.0</ele><time>2026-04-18T15:05:33.967Z</time></trkpt><trkpt lat="45.0190201" lon="8.5442332"><ele>123.0</ele><time>2026-04-18T15:05:34.974Z</time></trkpt><trkpt lat="45.0191976" lon="8.5440191"><ele>123.0</ele><time>2026-04-18T15:05:35.974Z</time></trkpt><trkpt lat="45.0193763" lon="8.5438027"><ele>123.0</ele><time>2026-04-18T15:05:36.974Z</time></trkpt><trkpt lat="45.0195572" lon="8.5435852"><ele>123.5</ele><time>2026-04-18T15:05:37.971Z</time></trkpt><trkpt lat="45.0197415" lon="8.5433635"><ele>124.0</ele><time>2026-04-18T15:05:38.973Z</time></trkpt><trkpt lat="45.019927" lon="8.5431427"><ele>122.0</ele><time>2026-04-18T15:05:39.972Z</time></trkpt><trkpt lat="45.0201134" lon="8.5429179"><ele>120.0</ele><time>2026-04-18T15:05:40.974Z</time></trkpt><trkpt lat="45.0203031" lon="8.5426905"><ele>120.0</ele><time>2026-04-18T15:05:41.969Z</time></trkpt><trkpt lat="45.0204933" lon="8.5424609"><ele>120.0</ele><time>2026-04-18T15:05:42.974Z</time></trkpt><trkpt lat="45.0206851" lon="8.5422292"><ele>120.5</ele><time>2026-04-18T15:05:43.968Z</time></trkpt><trkpt lat="45.0208777" lon="8.5419954"><ele>121.0</ele><time>2026-04-18T15:05:44.968Z</time></trkpt><trkpt lat="45.0210721" lon="8.5417631"><ele>121.0</ele><time>2026-04-18T15:05:45.975Z</time></trkpt><trkpt lat="45.0212693" lon="8.5415309"><ele>121.0</ele><time>2026-04-18T15:05:46.974Z</time></trkpt><trkpt lat="45.0214646" lon="8.5412964"><ele>121.0</ele><time>2026-04-18T15:05:47.972Z</time></trkpt><trkpt lat="45.0216605" lon="8.5410598"><ele>121.0</ele><time>2026-04-18T15:05:48.971Z</time></trkpt><trkpt lat="45.0218572" lon="8.5408226"><ele>121.0</ele><time>2026-04-18T15:05:49.973Z</time></trkpt><trkpt lat="45.0220562" lon="8.5405839"><ele>121.0</ele><time>2026-04-18T15:05:50.974Z</time></trkpt><trkpt lat="45.0222543" lon="8.5403476"><ele>120.5</ele><time>2026-04-18T15:05:51.974Z</time></trkpt><trkpt lat="45.0224501" lon="8.5401104"><ele>120.0</ele><time>2026-04-18T15:05:52.97Z</time></trkpt><trkpt lat="45.0226454" lon="8.5398745"><ele>121.5</ele><time>2026-04-18T15:05:53.974Z</time></trkpt><trkpt lat="45.0228387" lon="8.5396425"><ele>123.0</ele><time>2026-04-18T15:05:54.966Z</time></trkpt><trkpt lat="45.0230323" lon="8.5394115"><ele>123.0</ele><time>2026-04-18T15:05:55.973Z</time></trkpt><trkpt lat="45.0232228" lon="8.5391831"><ele>123.0</ele><time>2026-04-18T15:05:56.97Z</time></trkpt><trkpt lat="45.0234115" lon="8.5389559"><ele>124.0</ele><time>2026-04-18T15:05:57.975Z</time></trkpt><trkpt lat="45.0236004" lon="8.5387285"><ele>125.0</ele><time>2026-04-18T15:05:58.974Z</time></trkpt><trkpt lat="45.0237894" lon="8.5385009"><ele>125.0</ele><time>2026-04-18T15:05:59.968Z</time></trkpt><trkpt lat="45.0239786" lon="8.5382733"><ele>125.0</ele><time>2026-04-18T15:06:00.969Z</time></trkpt><trkpt lat="45.024168" lon="8.5380447"><ele>126.0</ele><time>2026-04-18T15:06:01.975Z</time></trkpt><trkpt lat="45.0243575" lon="8.5378134"><ele>127.0</ele><time>2026-04-18T15:06:02.975Z</time></trkpt><trkpt lat="45.0245491" lon="8.5375751"><ele>127.0</ele><time>2026-04-18T15:06:03.965Z</time></trkpt><trkpt lat="45.0247434" lon="8.5373498"><ele>127.0</ele><time>2026-04-18T15:06:04.972Z</time></trkpt><trkpt lat="45.0249347" lon="8.537125"><ele>126.0</ele><time>2026-04-18T15:06:05.974Z</time></trkpt><trkpt lat="45.0251244" lon="8.5368963"><ele>125.0</ele><time>2026-04-18T15:06:06.972Z</time></trkpt><trkpt lat="45.025313" lon="8.5366661"><ele>125.0</ele><time>2026-04-18T15:06:07.972Z</time></trkpt><trkpt lat="45.0255016" lon="8.5364344"><ele>125.0</ele><time>2026-04-18T15:06:08.972Z</time></trkpt><trkpt lat="45.0256907" lon="8.536204"><ele>124.0</ele><time>2026-04-18T15:06:09.968Z</time></trkpt><trkpt lat="45.0258789" lon="8.5359754"><ele>123.0</ele><time>2026-04-18T15:06:10.97Z</time></trkpt><trkpt lat="45.026064" lon="8.5357499"><ele>123.0</ele><time>2026-04-18T15:06:11.971Z</time></trkpt><trkpt lat="45.0262505" lon="8.535528"><ele>123.0</ele><time>2026-04-18T15:06:12.975Z</time></trkpt><trkpt lat="45.026434" lon="8.5353073"><ele>123.5</ele><time>2026-04-18T15:06:13.967Z</time></trkpt><trkpt lat="45.0266169" lon="8.5350861"><ele>124.0</ele><time>2026-04-18T15:06:14.97Z</time></trkpt><trkpt lat="45.0268002" lon="8.5348644"><ele>124.0</ele><time>2026-04-18T15:06:15.974Z</time></trkpt><trkpt lat="45.026985" lon="8.5346457"><ele>124.0</ele><time>2026-04-18T15:06:16.974Z</time></trkpt><trkpt lat="45.0271703" lon="8.534424"><ele>124.0</ele><time>2026-04-18T15:06:17.969Z</time></trkpt><trkpt lat="45.0273573" lon="8.5342043"><ele>124.0</ele><time>2026-04-18T15:06:18.974Z</time></trkpt><trkpt lat="45.0275425" lon="8.533982"><ele>123.5</ele><time>2026-04-18T15:06:19.974Z</time></trkpt><trkpt lat="45.0277247" lon="8.5337652"><ele>123.0</ele><time>2026-04-18T15:06:20.967Z</time></trkpt><trkpt lat="45.0278997" lon="8.5335559"><ele>122.66666666666666</ele><time>2026-04-18T15:06:21.972Z</time></trkpt><trkpt lat="45.0280662" lon="8.533354"><ele>122.33333333333333</ele><time>2026-04-18T15:06:22.973Z</time></trkpt><trkpt lat="45.0282289" lon="8.5331576"><ele>122.0</ele><time>2026-04-18T15:06:23.97Z</time></trkpt><trkpt lat="45.0283841" lon="8.5329702"><ele>122.66666666666666</ele><time>2026-04-18T15:06:24.965Z</time></trkpt><trkpt lat="45.0285339" lon="8.5327906"><ele>123.33333333333334</ele><time>2026-04-18T15:06:25.975Z</time></trkpt><trkpt lat="45.0286768" lon="8.5326174"><ele>124.0</ele><time>2026-04-18T15:06:26.973Z</time></trkpt><trkpt lat="45.0288152" lon="8.5324481"><ele>124.0</ele><time>2026-04-18T15:06:27.975Z</time></trkpt><trkpt lat="45.0289488" lon="8.5322855"><ele>124.0</ele><time>2026-04-18T15:06:28.972Z</time></trkpt><trkpt lat="45.0290752" lon="8.5321314"><ele>124.0</ele><time>2026-04-18T15:06:29.968Z</time></trkpt><trkpt lat="45.0291983" lon="8.5319811"><ele>124.33333333333334</ele><time>2026-04-18T15:06:30.97Z</time></trkpt><trkpt lat="45.0293179" lon="8.5318362"><ele>124.66666666666666</ele><time>2026-04-18T15:06:31.965Z</time></trkpt><trkpt lat="45.0294339" lon="8.5316966"><ele>125.0</ele><time>2026-04-18T15:06:32.975Z</time></trkpt><trkpt lat="45.0295454" lon="8.5315604"><ele>125.0</ele><time>2026-04-18T15:06:33.975Z</time></trkpt><trkpt lat="45.0296549" lon="8.5314285"><ele>125.0</ele><time>2026-04-18T15:06:34.975Z</time></trkpt><trkpt lat="45.0297586" lon="8.5313035"><ele>125.0</ele><time>2026-04-18T15:06:35.963Z</time></trkpt><trkpt lat="45.0298581" lon="8.5311858"><ele>125.0</ele><time>2026-04-18T15:06:36.974Z</time></trkpt><trkpt lat="45.0299522" lon="8.5310719"><ele>124.75</ele><time>2026-04-18T15:06:37.974Z</time></trkpt><trkpt lat="45.0300438" lon="8.530961"><ele>124.5</ele><time>2026-04-18T15:06:38.974Z</time></trkpt><trkpt lat="45.030141" lon="8.5308456"><ele>124.25</ele><time>2026-04-18T15:06:39.963Z</time></trkpt><trkpt lat="45.0302416" lon="8.5307192"><ele>124.0</ele><time>2026-04-18T15:06:40.967Z</time></trkpt><trkpt lat="45.0303492" lon="8.5305884"><ele>124.0</ele><time>2026-04-18T15:06:41.971Z</time></trkpt><trkpt lat="45.0304599" lon="8.5304505"><ele>124.0</ele><time>2026-04-18T15:06:42.968Z</time></trkpt><trkpt lat="45.0305756" lon="8.5303101"><ele>124.0</ele><time>2026-04-18T15:06:43.967Z</time></trkpt><trkpt lat="45.0306958" lon="8.530166"><ele>124.33333333333334</ele><time>2026-04-18T15:06:44.961Z</time></trkpt><trkpt lat="45.0308174" lon="8.5300234"><ele>124.66666666666666</ele><time>2026-04-18T15:06:45.964Z</time></trkpt><trkpt lat="45.030942" lon="8.5298763"><ele>125.0</ele><time>2026-04-18T15:06:46.975Z</time></trkpt><trkpt lat="45.0310696" lon="8.5297267"><ele>125.0</ele><time>2026-04-18T15:06:47.974Z</time></trkpt><trkpt lat="45.0311963" lon="8.529578"><ele>125.0</ele><time>2026-04-18T15:06:48.964Z</time></trkpt><trkpt lat="45.0313231" lon="8.529428"><ele>125.0</ele><time>2026-04-18T15:06:49.97Z</time></trkpt><trkpt lat="45.0314501" lon="8.5292711"><ele>125.0</ele><time>2026-04-18T15:06:50.974Z</time></trkpt><trkpt lat="45.0315773" lon="8.529113"><ele>125.0</ele><time>2026-04-18T15:06:51.964Z</time></trkpt><trkpt lat="45.031705" lon="8.5289576"><ele>125.0</ele><time>2026-04-18T15:06:52.963Z</time></trkpt><trkpt lat="45.0318315" lon="8.5288046"><ele>125.33333333333333</ele><time>2026-04-18T15:06:53.963Z</time></trkpt><trkpt lat="45.0319562" lon="8.5286568"><ele>125.66666666666666</ele><time>2026-04-18T15:06:54.973Z</time></trkpt><trkpt lat="45.0320779" lon="8.5285112"><ele>126.0</ele><time>2026-04-18T15:06:55.967Z</time></trkpt><trkpt lat="45.0321978" lon="8.5283668"><ele>126.0</ele><time>2026-04-18T15:06:56.965Z</time></trkpt><trkpt lat="45.0323177" lon="8.5282223"><ele>126.0</ele><time>2026-04-18T15:06:57.963Z</time></trkpt><trkpt lat="45.0324368" lon="8.5280777"><ele>126.0</ele><time>2026-04-18T15:06:58.973Z</time></trkpt><trkpt lat="45.0325589" lon="8.5279289"><ele>125.33333333333334</ele><time>2026-04-18T15:06:59.965Z</time></trkpt><trkpt lat="45.0326818" lon="8.5277805"><ele>124.66666666666667</ele><time>2026-04-18T15:07:00.963Z</time></trkpt><trkpt lat="45.0328077" lon="8.5276302"><ele>124.0</ele><time>2026-04-18T15:07:01.967Z</time></trkpt><trkpt lat="45.0329305" lon="8.5274814"><ele>124.0</ele><time>2026-04-18T15:07:02.964Z</time></trkpt><trkpt lat="45.033056" lon="8.5273317"><ele>124.0</ele><time>2026-04-18T15:07:03.963Z</time></trkpt><trkpt lat="45.0331805" lon="8.5271811"><ele>124.0</ele><time>2026-04-18T15:07:04.964Z</time></trkpt><trkpt lat="45.0333071" lon="8.5270317"><ele>123.33333333333334</ele><time>2026-04-18T15:07:05.971Z</time></trkpt><trkpt lat="45.0334342" lon="8.526883"><ele>122.66666666666666</ele><time>2026-04-18T15:07:06.962Z</time></trkpt><trkpt lat="45.0335568" lon="8.5267354"><ele>122.0</ele><time>2026-04-18T15:07:07.966Z</time></trkpt><trkpt lat="45.033678" lon="8.5265916"><ele>122.0</ele><time>2026-04-18T15:07:08.962Z</time></trkpt><trkpt lat="45.0337994" lon="8.5264466"><ele>122.0</ele><time>2026-04-18T15:07:09.966Z</time></trkpt><trkpt lat="45.0339188" lon="8.5263076"><ele>122.0</ele><time>2026-04-18T15:07:10.963Z</time></trkpt><trkpt lat="45.0340338" lon="8.5261729"><ele>122.0</ele><time>2026-04-18T15:07:11.962Z</time></trkpt><trkpt lat="45.0341461" lon="8.5260457"><ele>122.0</ele><time>2026-04-18T15:07:12.974Z</time></trkpt><trkpt lat="45.034257" lon="8.525913"><ele>122.0</ele><time>2026-04-18T15:07:13.962Z</time></trkpt><trkpt lat="45.0343577" lon="8.5257731"><ele>122.0</ele><time>2026-04-18T15:07:14.973Z</time></trkpt><trkpt lat="45.0344481" lon="8.5256244"><ele>122.0</ele><time>2026-04-18T15:07:15.962Z</time></trkpt><trkpt lat="45.0345323" lon="8.5254729"><ele>122.0</ele><time>2026-04-18T15:07:16.969Z</time></trkpt><trkpt lat="45.0346132" lon="8.5253213"><ele>122.0</ele><time>2026-04-18T15:07:17.974Z</time></trkpt><trkpt lat="45.0346918" lon="8.5251686"><ele>122.0</ele><time>2026-04-18T15:07:18.975Z</time></trkpt><trkpt lat="45.0347706" lon="8.5250204"><ele>122.0</ele><time>2026-04-18T15:07:19.964Z</time></trkpt><trkpt lat="45.0348497" lon="8.5248744"><ele>122.0</ele><time>2026-04-18T15:07:20.97Z</time></trkpt><trkpt lat="45.0349277" lon="8.5247298"><ele>122.0</ele><time>2026-04-18T15:07:21.975Z</time></trkpt><trkpt lat="45.035005" lon="8.5245916"><ele>122.0</ele><time>2026-04-18T15:07:22.969Z</time></trkpt><trkpt lat="45.0350784" lon="8.5244595"><ele>121.33333333333333</ele><time>2026-04-18T15:07:23.97Z</time></trkpt><trkpt lat="45.0351463" lon="8.5243403"><ele>120.66666666666666</ele><time>2026-04-18T15:07:24.969Z</time></trkpt><trkpt lat="45.0352061" lon="8.5242379"><ele>120.0</ele><time>2026-04-18T15:07:25.975Z</time></trkpt><trkpt lat="45.0352672" lon="8.5241636"><ele>119.33333333333334</ele><time>2026-04-18T15:07:26.972Z</time></trkpt><trkpt lat="45.0353368" lon="8.5241218"><ele>118.66666666666667</ele><time>2026-04-18T15:07:27.974Z</time></trkpt><trkpt lat="45.0354127" lon="8.5241167"><ele>118.0</ele><time>2026-04-18T15:07:28.965Z</time></trkpt><trkpt lat="45.0354851" lon="8.5241466"><ele>118.0</ele><time>2026-04-18T15:07:29.971Z</time></trkpt><trkpt lat="45.0355482" lon="8.524214"><ele>118.00000000000001</ele><time>2026-04-18T15:07:30.973Z</time></trkpt><trkpt lat="45.0356032" lon="8.5243111"><ele>118.00000000000001</ele><time>2026-04-18T15:07:31.975Z</time></trkpt><trkpt lat="45.035655" lon="8.5244216"><ele>118.0</ele><time>2026-04-18T15:07:32.975Z</time></trkpt><trkpt lat="45.0357071" lon="8.5245389"><ele>118.0</ele><time>2026-04-18T15:07:33.973Z</time></trkpt><trkpt lat="45.0357638" lon="8.5246601"><ele>118.0</ele><time>2026-04-18T15:07:34.97Z</time></trkpt><trkpt lat="45.0358318" lon="8.5247806"><ele>118.0</ele><time>2026-04-18T15:07:35.974Z</time></trkpt><trkpt lat="45.0359157" lon="8.5248947"><ele>118.0</ele><time>2026-04-18T15:07:36.974Z</time></trkpt><trkpt lat="45.0360182" lon="8.5249983"><ele>118.0</ele><time>2026-04-18T15:07:37.974Z</time></trkpt><trkpt lat="45.0361278" lon="8.5250983"><ele>118.0</ele><time>2026-04-18T15:07:38.974Z</time></trkpt><trkpt lat="45.0362448" lon="8.525193"><ele>118.0</ele><time>2026-04-18T15:07:39.972Z</time></trkpt><trkpt lat="45.0363617" lon="8.5252744"><ele>118.0</ele><time>2026-04-18T15:07:40.969Z</time></trkpt><trkpt lat="45.0364896" lon="8.5253284"><ele>118.0</ele><time>2026-04-18T15:07:41.972Z</time></trkpt><trkpt lat="45.0366213" lon="8.5253554"><ele>118.0</ele><time>2026-04-18T15:07:42.975Z</time></trkpt><trkpt lat="45.0367568" lon="8.5253601"><ele>118.0</ele><time>2026-04-18T15:07:43.974Z</time></trkpt><trkpt lat="45.036899" lon="8.5253561"><ele>118.0</ele><time>2026-04-18T15:07:44.965Z</time></trkpt><trkpt lat="45.0370418" lon="8.5253537"><ele>118.0</ele><time>2026-04-18T15:07:45.968Z</time></trkpt><trkpt lat="45.0371878" lon="8.5253498"><ele>118.0</ele><time>2026-04-18T15:07:46.968Z</time></trkpt><trkpt lat="45.0373348" lon="8.5253463"><ele>118.0</ele><time>2026-04-18T15:07:47.972Z</time></trkpt><trkpt lat="45.037481" lon="8.525344"><ele>118.0</ele><time>2026-04-18T15:07:48.974Z</time></trkpt><trkpt lat="45.0376249" lon="8.5253398"><ele>118.0</ele><time>2026-04-18T15:07:49.968Z</time></trkpt><trkpt lat="45.0377568" lon="8.5253389"><ele>119.00000000000001</ele><time>2026-04-18T15:07:50.975Z</time></trkpt><trkpt lat="45.0378705" lon="8.5253338"><ele>120.0</ele><time>2026-04-18T15:07:51.974Z</time></trkpt><trkpt lat="45.0379623" lon="8.5253296"><ele>121.0</ele><time>2026-04-18T15:07:52.97Z</time></trkpt><trkpt lat="45.0380364" lon="8.5253256"><ele>122.0</ele><time>2026-04-18T15:07:53.972Z</time></trkpt><trkpt lat="45.0381115" lon="8.5253232"><ele>123.00000000000001</ele><time>2026-04-18T15:07:54.965Z</time></trkpt><trkpt lat="45.0382013" lon="8.5253237"><ele>124.0</ele><time>2026-04-18T15:07:55.968Z</time></trkpt><trkpt lat="45.0383004" lon="8.5253223"><ele>124.25</ele><time>2026-04-18T15:07:56.966Z</time></trkpt><trkpt lat="45.0384216" lon="8.5253106"><ele>124.5</ele><time>2026-04-18T15:07:57.971Z</time></trkpt><trkpt lat="45.0385591" lon="8.5252723"><ele>124.75</ele><time>2026-04-18T15:07:58.965Z</time></trkpt><trkpt lat="45.038711" lon="8.5252081"><ele>125.0</ele><time>2026-04-18T15:07:59.967Z</time></trkpt><trkpt lat="45.0388712" lon="8.5251171"><ele>125.0</ele><time>2026-04-18T15:08:00.968Z</time></trkpt><trkpt lat="45.0390373" lon="8.5250018"><ele>125.0</ele><time>2026-04-18T15:08:01.974Z</time></trkpt><trkpt lat="45.0392076" lon="8.5248675"><ele>125.0</ele><time>2026-04-18T15:08:02.971Z</time></trkpt><trkpt lat="45.0393817" lon="8.5247336"><ele>124.66666666666666</ele><time>2026-04-18T15:08:03.975Z</time></trkpt><trkpt lat="45.0395551" lon="8.5246021"><ele>124.33333333333334</ele><time>2026-04-18T15:08:04.968Z</time></trkpt><trkpt lat="45.039729" lon="8.5244721"><ele>124.0</ele><time>2026-04-18T15:08:05.969Z</time></trkpt><trkpt lat="45.0399017" lon="8.5243407"><ele>123.33333333333334</ele><time>2026-04-18T15:08:06.967Z</time></trkpt><trkpt lat="45.0400781" lon="8.524209"><ele>122.66666666666666</ele><time>2026-04-18T15:08:07.963Z</time></trkpt><trkpt lat="45.0402586" lon="8.5240722"><ele>122.0</ele><time>2026-04-18T15:08:08.968Z</time></trkpt><trkpt lat="45.0404428" lon="8.5239296"><ele>122.0</ele><time>2026-04-18T15:08:09.97Z</time></trkpt><trkpt lat="45.0406328" lon="8.5237836"><ele>122.0</ele><time>2026-04-18T15:08:10.973Z</time></trkpt><trkpt lat="45.0408247" lon="8.523639"><ele>122.0</ele><time>2026-04-18T15:08:11.969Z</time></trkpt><trkpt lat="45.0410221" lon="8.5234904"><ele>120.66666666666666</ele><time>2026-04-18T15:08:12.975Z</time></trkpt><trkpt lat="45.0412209" lon="8.5233401"><ele>119.33333333333334</ele><time>2026-04-18T15:08:13.969Z</time></trkpt><trkpt lat="45.0414162" lon="8.5231893"><ele>118.0</ele><time>2026-04-18T15:08:14.974Z</time></trkpt><trkpt lat="45.0416094" lon="8.5230394"><ele>117.33333333333334</ele><time>2026-04-18T15:08:15.973Z</time></trkpt><trkpt lat="45.0418013" lon="8.5228954"><ele>116.66666666666666</ele><time>2026-04-18T15:08:16.97Z</time></trkpt><trkpt lat="45.0419928" lon="8.522752"><ele>116.0</ele><time>2026-04-18T15:08:17.965Z</time></trkpt><trkpt lat="45.0421871" lon="8.5226075"><ele>116.0</ele><time>2026-04-18T15:08:18.968Z</time></trkpt><trkpt lat="45.0423841" lon="8.5224574"><ele>116.0</ele><time>2026-04-18T15:08:19.964Z</time></trkpt><trkpt lat="45.0425837" lon="8.5223034"><ele>114.5</ele><time>2026-04-18T15:08:20.974Z</time></trkpt><trkpt lat="45.0427896" lon="8.5221446"><ele>113.0</ele><time>2026-04-18T15:08:21.974Z</time></trkpt><trkpt lat="45.0429987" lon="8.5219875"><ele>113.0</ele><time>2026-04-18T15:08:22.973Z</time></trkpt><trkpt lat="45.0432086" lon="8.5218309"><ele>113.0</ele><time>2026-04-18T15:08:23.966Z</time></trkpt><trkpt lat="45.0434206" lon="8.521671"><ele>111.5</ele><time>2026-04-18T15:08:24.967Z</time></trkpt><trkpt lat="45.0436348" lon="8.5215089"><ele>110.0</ele><time>2026-04-18T15:08:25.961Z</time></trkpt><trkpt lat="45.0438518" lon="8.5213446"><ele>110.5</ele><time>2026-04-18T15:08:26.964Z</time></trkpt><trkpt lat="45.0440693" lon="8.5211814"><ele>111.0</ele><time>2026-04-18T15:08:27.974Z</time></trkpt><trkpt lat="45.0442834" lon="8.5210197"><ele>109.5</ele><time>2026-04-18T15:08:28.967Z</time></trkpt><trkpt lat="45.0444966" lon="8.5208561"><ele>108.0</ele><time>2026-04-18T15:08:29.965Z</time></trkpt><trkpt lat="45.0447055" lon="8.5206924"><ele>108.0</ele><time>2026-04-18T15:08:30.974Z</time></trkpt><trkpt lat="45.0449105" lon="8.5205306"><ele>108.0</ele><time>2026-04-18T15:08:31.974Z</time></trkpt><trkpt lat="45.0451163" lon="8.5203677"><ele>108.5</ele><time>2026-04-18T15:08:32.961Z</time></trkpt><trkpt lat="45.0453227" lon="8.5202039"><ele>109.0</ele><time>2026-04-18T15:08:33.965Z</time></trkpt><trkpt lat="45.0455306" lon="8.5200417"><ele>109.0</ele><time>2026-04-18T15:08:34.964Z</time></trkpt><trkpt lat="45.0457396" lon="8.5198825"><ele>109.0</ele><time>2026-04-18T15:08:35.974Z</time></trkpt><trkpt lat="45.0459509" lon="8.5197254"><ele>109.0</ele><time>2026-04-18T15:08:36.963Z</time></trkpt><trkpt lat="45.0461656" lon="8.5195696"><ele>109.0</ele><time>2026-04-18T15:08:37.969Z</time></trkpt><trkpt lat="45.0463826" lon="8.5194144"><ele>108.5</ele><time>2026-04-18T15:08:38.962Z</time></trkpt><trkpt lat="45.0466" lon="8.5192575"><ele>108.0</ele><time>2026-04-18T15:08:39.963Z</time></trkpt><trkpt lat="45.0468128" lon="8.5190996"><ele>108.0</ele><time>2026-04-18T15:08:40.966Z</time></trkpt><trkpt lat="45.0470273" lon="8.5189383"><ele>108.0</ele><time>2026-04-18T15:08:41.964Z</time></trkpt><trkpt lat="45.0472389" lon="8.5187803"><ele>108.0</ele><time>2026-04-18T15:08:42.963Z</time></trkpt><trkpt lat="45.0474472" lon="8.5186248"><ele>108.0</ele><time>2026-04-18T15:08:43.967Z</time></trkpt><trkpt lat="45.0476565" lon="8.5184688"><ele>107.5</ele><time>2026-04-18T15:08:44.975Z</time></trkpt><trkpt lat="45.0478677" lon="8.5183102"><ele>107.0</ele><time>2026-04-18T15:08:45.966Z</time></trkpt><trkpt lat="45.0480807" lon="8.5181492"><ele>107.0</ele><time>2026-04-18T15:08:46.961Z</time></trkpt><trkpt lat="45.0482969" lon="8.5179848"><ele>107.0</ele><time>2026-04-18T15:08:47.968Z</time></trkpt><trkpt lat="45.0485144" lon="8.5178187"><ele>107.0</ele><time>2026-04-18T15:08:48.963Z</time></trkpt><trkpt lat="45.0487302" lon="8.5176542"><ele>107.0</ele><time>2026-04-18T15:08:49.966Z</time></trkpt><trkpt lat="45.0489426" lon="8.5174938"><ele>107.5</ele><time>2026-04-18T15:08:50.964Z</time></trkpt><trkpt lat="45.0491511" lon="8.5173378"><ele>108.0</ele><time>2026-04-18T15:08:51.965Z</time></trkpt><trkpt lat="45.0493553" lon="8.5171826"><ele>107.66666666666666</ele><time>2026-04-18T15:08:52.963Z</time></trkpt><trkpt lat="45.0495521" lon="8.5170314"><ele>107.33333333333333</ele><time>2026-04-18T15:08:53.965Z</time></trkpt><trkpt lat="45.0497409" lon="8.516889"><ele>107.0</ele><time>2026-04-18T15:08:54.965Z</time></trkpt><trkpt lat="45.049923" lon="8.516753"><ele>107.33333333333333</ele><time>2026-04-18T15:08:55.966Z</time></trkpt><trkpt lat="45.0501003" lon="8.5166191"><ele>107.66666666666666</ele><time>2026-04-18T15:08:56.964Z</time></trkpt><trkpt lat="45.05028" lon="8.5164818"><ele>108.0</ele><time>2026-04-18T15:08:57.965Z</time></trkpt><trkpt lat="45.0504609" lon="8.516343"><ele>108.33333333333334</ele><time>2026-04-18T15:08:58.966Z</time></trkpt><trkpt lat="45.0506391" lon="8.5162075"><ele>108.66666666666667</ele><time>2026-04-18T15:08:59.971Z</time></trkpt><trkpt lat="45.0508181" lon="8.5160741"><ele>109.0</ele><time>2026-04-18T15:09:00.973Z</time></trkpt><trkpt lat="45.0509975" lon="8.5159401"><ele>109.0</ele><time>2026-04-18T15:09:01.965Z</time></trkpt><trkpt lat="45.0511716" lon="8.5158088"><ele>109.0</ele><time>2026-04-18T15:09:02.968Z</time></trkpt><trkpt lat="45.0513428" lon="8.5156773"><ele>109.0</ele><time>2026-04-18T15:09:03.973Z</time></trkpt><trkpt lat="45.0515158" lon="8.515542"><ele>109.0</ele><time>2026-04-18T15:09:04.966Z</time></trkpt><trkpt lat="45.0516863" lon="8.5154106"><ele>109.0</ele><time>2026-04-18T15:09:05.973Z</time></trkpt><trkpt lat="45.0518546" lon="8.5152849"><ele>109.0</ele><time>2026-04-18T15:09:06.964Z</time></trkpt><trkpt lat="45.0520229" lon="8.515159"><ele>109.0</ele><time>2026-04-18T15:09:07.966Z</time></trkpt><trkpt lat="45.0521919" lon="8.5150316"><ele>109.0</ele><time>2026-04-18T15:09:08.966Z</time></trkpt><trkpt lat="45.0523614" lon="8.5149036"><ele>109.0</ele><time>2026-04-18T15:09:09.975Z</time></trkpt><trkpt lat="45.0525338" lon="8.5147735"><ele>109.0</ele><time>2026-04-18T15:09:10.964Z</time></trkpt><trkpt lat="45.0527073" lon="8.5146372"><ele>109.0</ele><time>2026-04-18T15:09:11.974Z</time></trkpt><trkpt lat="45.0528969" lon="8.5144816"><ele>109.0</ele><time>2026-04-18T15:09:12.972Z</time></trkpt><trkpt lat="45.053098" lon="8.5143194"><ele>108.5</ele><time>2026-04-18T15:09:13.97Z</time></trkpt><trkpt lat="45.0533003" lon="8.5141671"><ele>108.0</ele><time>2026-04-18T15:09:14.965Z</time></trkpt><trkpt lat="45.0535009" lon="8.5140223"><ele>108.0</ele><time>2026-04-18T15:09:15.975Z</time></trkpt><trkpt lat="45.0536922" lon="8.5138851"><ele>108.0</ele><time>2026-04-18T15:09:16.963Z</time></trkpt><trkpt lat="45.053877" lon="8.5137507"><ele>108.0</ele><time>2026-04-18T15:09:17.972Z</time></trkpt><trkpt lat="45.0540549" lon="8.5136181"><ele>108.0</ele><time>2026-04-18T15:09:18.974Z</time></trkpt><trkpt lat="45.0542285" lon="8.5134875"><ele>108.0</ele><time>2026-04-18T15:09:19.969Z</time></trkpt><trkpt lat="45.0543948" lon="8.5133602"><ele>108.0</ele><time>2026-04-18T15:09:20.966Z</time></trkpt><trkpt lat="45.0545567" lon="8.5132363"><ele>108.0</ele><time>2026-04-18T15:09:21.97Z</time></trkpt><trkpt lat="45.0547161" lon="8.5131171"><ele>108.0</ele><time>2026-04-18T15:09:22.969Z</time></trkpt><trkpt lat="45.0548689" lon="8.5130031"><ele>108.0</ele><time>2026-04-18T15:09:23.967Z</time></trkpt><trkpt lat="45.0550158" lon="8.5128934"><ele>108.0</ele><time>2026-04-18T15:09:24.97Z</time></trkpt><trkpt lat="45.0551579" lon="8.512785"><ele>108.0</ele><time>2026-04-18T15:09:25.971Z</time></trkpt><trkpt lat="45.055294" lon="8.5126799"><ele>108.0</ele><time>2026-04-18T15:09:26.974Z</time></trkpt><trkpt lat="45.0554283" lon="8.5125779"><ele>108.0</ele><time>2026-04-18T15:09:27.971Z</time></trkpt><trkpt lat="45.055564" lon="8.512475"><ele>108.0</ele><time>2026-04-18T15:09:28.974Z</time></trkpt><trkpt lat="45.0557016" lon="8.5123702"><ele>108.0</ele><time>2026-04-18T15:09:29.967Z</time></trkpt><trkpt lat="45.0558387" lon="8.5122671"><ele>107.66666666666666</ele><time>2026-04-18T15:09:30.973Z</time></trkpt><trkpt lat="45.0559742" lon="8.512165"><ele>107.33333333333333</ele><time>2026-04-18T15:09:31.975Z</time></trkpt><trkpt lat="45.0561087" lon="8.5120662"><ele>107.0</ele><time>2026-04-18T15:09:32.974Z</time></trkpt><trkpt lat="45.056241" lon="8.5119676"><ele>107.0</ele><time>2026-04-18T15:09:33.974Z</time></trkpt><trkpt lat="45.0563719" lon="8.5118711"><ele>107.0</ele><time>2026-04-18T15:09:34.969Z</time></trkpt><trkpt lat="45.0565018" lon="8.5117761"><ele>107.0</ele><time>2026-04-18T15:09:35.975Z</time></trkpt><trkpt lat="45.0566321" lon="8.5116776"><ele>107.0</ele><time>2026-04-18T15:09:36.968Z</time></trkpt><trkpt lat="45.0567615" lon="8.5115792"><ele>107.0</ele><time>2026-04-18T15:09:37.964Z</time></trkpt><trkpt lat="45.0568915" lon="8.5114787"><ele>107.0</ele><time>2026-04-18T15:09:38.974Z</time></trkpt><trkpt lat="45.057023" lon="8.5113781"><ele>107.0</ele><time>2026-04-18T15:09:39.972Z</time></trkpt><trkpt lat="45.0571526" lon="8.5112769"><ele>107.0</ele><time>2026-04-18T15:09:40.971Z</time></trkpt><trkpt lat="45.057281" lon="8.5111772"><ele>107.75</ele><time>2026-04-18T15:09:41.967Z</time></trkpt><trkpt lat="45.0574076" lon="8.5110785"><ele>108.5</ele><time>2026-04-18T15:09:42.972Z</time></trkpt><trkpt lat="45.0575312" lon="8.5109823"><ele>109.25</ele><time>2026-04-18T15:09:43.97Z</time></trkpt><trkpt lat="45.0576532" lon="8.5108895"><ele>110.0</ele><time>2026-04-18T15:09:44.973Z</time></trkpt><trkpt lat="45.0577764" lon="8.5107956"><ele>110.0</ele><time>2026-04-18T15:09:45.971Z</time></trkpt><trkpt lat="45.057898" lon="8.5107025"><ele>110.0</ele><time>2026-04-18T15:09:46.972Z</time></trkpt><trkpt lat="45.0580204" lon="8.5106114"><ele>110.0</ele><time>2026-04-18T15:09:47.969Z</time></trkpt><trkpt lat="45.0581392" lon="8.510523"><ele>110.0</ele><time>2026-04-18T15:09:48.967Z</time></trkpt><trkpt lat="45.0582539" lon="8.5104378"><ele>110.0</ele><time>2026-04-18T15:09:49.973Z</time></trkpt><trkpt lat="45.0583632" lon="8.5103549"><ele>110.0</ele><time>2026-04-18T15:09:50.971Z</time></trkpt><trkpt lat="45.0584691" lon="8.510276"><ele>110.0</ele><time>2026-04-18T15:09:51.971Z</time></trkpt><trkpt lat="45.0585706" lon="8.5101978"><ele>110.0</ele><time>2026-04-18T15:09:52.97Z</time></trkpt><trkpt lat="45.0586661" lon="8.5101242"><ele>110.0</ele><time>2026-04-18T15:09:53.971Z</time></trkpt><trkpt lat="45.0587584" lon="8.5100474"><ele>110.0</ele><time>2026-04-18T15:09:54.97Z</time></trkpt><trkpt lat="45.0588455" lon="8.5099646"><ele>110.0</ele><time>2026-04-18T15:09:55.975Z</time></trkpt><trkpt lat="45.0589251" lon="8.5098733"><ele>110.0</ele><time>2026-04-18T15:09:56.973Z</time></trkpt><trkpt lat="45.0589942" lon="8.5097697"><ele>110.0</ele><time>2026-04-18T15:09:57.974Z</time></trkpt><trkpt lat="45.0590534" lon="8.5096515"><ele>110.2</ele><time>2026-04-18T15:09:58.972Z</time></trkpt><trkpt lat="45.0591068" lon="8.5095231"><ele>110.4</ele><time>2026-04-18T15:09:59.965Z</time></trkpt><trkpt lat="45.059152" lon="8.5093897"><ele>110.6</ele><time>2026-04-18T15:10:00.97Z</time></trkpt><trkpt lat="45.0591991" lon="8.5092501"><ele>110.8</ele><time>2026-04-18T15:10:01.974Z</time></trkpt><trkpt lat="45.0592451" lon="8.5091165"><ele>111.0</ele><time>2026-04-18T15:10:02.969Z</time></trkpt><trkpt lat="45.0592898" lon="8.5089844"><ele>111.0</ele><time>2026-04-18T15:10:03.971Z</time></trkpt><trkpt lat="45.0593329" lon="8.5088535"><ele>111.0</ele><time>2026-04-18T15:10:04.968Z</time></trkpt><trkpt lat="45.0593741" lon="8.5087276"><ele>111.0</ele><time>2026-04-18T15:10:05.972Z</time></trkpt><trkpt lat="45.0594145" lon="8.5086053"><ele>111.0</ele><time>2026-04-18T15:10:06.97Z</time></trkpt><trkpt lat="45.0594539" lon="8.508486"><ele>111.0</ele><time>2026-04-18T15:10:07.969Z</time></trkpt><trkpt lat="45.0594903" lon="8.5083681"><ele>111.0</ele><time>2026-04-18T15:10:08.974Z</time></trkpt><trkpt lat="45.0595252" lon="8.5082518"><ele>111.0</ele><time>2026-04-18T15:10:09.974Z</time></trkpt><trkpt lat="45.0595598" lon="8.5081349"><ele>111.0</ele><time>2026-04-18T15:10:10.965Z</time></trkpt><trkpt lat="45.0595943" lon="8.5080164"><ele>111.0</ele><time>2026-04-18T15:10:11.972Z</time></trkpt><trkpt lat="45.0596288" lon="8.5078929"><ele>111.0</ele><time>2026-04-18T15:10:12.964Z</time></trkpt><trkpt lat="45.0596639" lon="8.5077647"><ele>111.19999999999999</ele><time>2026-04-18T15:10:13.965Z</time></trkpt><trkpt lat="45.0597029" lon="8.5076382"><ele>111.39999999999999</ele><time>2026-04-18T15:10:14.965Z</time></trkpt><trkpt lat="45.0597421" lon="8.5075093"><ele>111.6</ele><time>2026-04-18T15:10:15.975Z</time></trkpt><trkpt lat="45.0597829" lon="8.5073802"><ele>111.8</ele><time>2026-04-18T15:10:16.974Z</time></trkpt><trkpt lat="45.0598192" lon="8.5072551"><ele>112.0</ele><time>2026-04-18T15:10:17.97Z</time></trkpt><trkpt lat="45.0598523" lon="8.5071333"><ele>112.16666666666667</ele><time>2026-04-18T15:10:18.971Z</time></trkpt><trkpt lat="45.0598879" lon="8.5070159"><ele>112.33333333333334</ele><time>2026-04-18T15:10:19.969Z</time></trkpt><trkpt lat="45.0599192" lon="8.5068995"><ele>112.5</ele><time>2026-04-18T15:10:20.971Z</time></trkpt><trkpt lat="45.0599505" lon="8.5067888"><ele>112.66666666666666</ele><time>2026-04-18T15:10:21.968Z</time></trkpt><trkpt lat="45.0599791" lon="8.5066812"><ele>112.83333333333333</ele><time>2026-04-18T15:10:22.964Z</time></trkpt><trkpt lat="45.0600084" lon="8.5065774"><ele>113.0</ele><time>2026-04-18T15:10:23.972Z</time></trkpt><trkpt lat="45.0600421" lon="8.5064743"><ele>113.28571428571429</ele><time>2026-04-18T15:10:24.974Z</time></trkpt><trkpt lat="45.0600766" lon="8.5063692"><ele>113.57142857142856</ele><time>2026-04-18T15:10:25.974Z</time></trkpt><trkpt lat="45.0601088" lon="8.5062717"><ele>113.85714285714285</ele><time>2026-04-18T15:10:26.97Z</time></trkpt><trkpt lat="45.0601404" lon="8.5061803"><ele>114.14285714285714</ele><time>2026-04-18T15:10:27.959Z</time></trkpt><trkpt lat="45.0601695" lon="8.5060915"><ele>114.42857142857142</ele><time>2026-04-18T15:10:28.962Z</time></trkpt><trkpt lat="45.0601993" lon="8.5060012"><ele>114.7142857142857</ele><time>2026-04-18T15:10:29.974Z</time></trkpt><trkpt lat="45.0602305" lon="8.5059123"><ele>114.99999999999999</ele><time>2026-04-18T15:10:30.974Z</time></trkpt><trkpt lat="45.060261" lon="8.5058232"><ele>114.99999999999999</ele><time>2026-04-18T15:10:31.968Z</time></trkpt><trkpt lat="45.0602912" lon="8.5057333"><ele>115.0</ele><time>2026-04-18T15:10:32.964Z</time></trkpt><trkpt lat="45.0603204" lon="8.5056434"><ele>114.99999999999999</ele><time>2026-04-18T15:10:33.969Z</time></trkpt><trkpt lat="45.0603483" lon="8.5055511"><ele>114.99999999999999</ele><time>2026-04-18T15:10:34.97Z</time></trkpt><trkpt lat="45.0603755" lon="8.5054566"><ele>115.0</ele><time>2026-04-18T15:10:35.974Z</time></trkpt><trkpt lat="45.0604018" lon="8.5053632"><ele>114.99999999999999</ele><time>2026-04-18T15:10:36.972Z</time></trkpt><trkpt lat="45.0604264" lon="8.5052655"><ele>114.99999999999999</ele><time>2026-04-18T15:10:37.975Z</time></trkpt><trkpt lat="45.0604528" lon="8.5051663"><ele>114.99999999999999</ele><time>2026-04-18T15:10:38.965Z</time></trkpt><trkpt lat="45.0604796" lon="8.5050671"><ele>115.0</ele><time>2026-04-18T15:10:39.968Z</time></trkpt><trkpt lat="45.060512" lon="8.5049699"><ele>114.99999999999999</ele><time>2026-04-18T15:10:40.973Z</time></trkpt><trkpt lat="45.0605446" lon="8.504872"><ele>114.99999999999999</ele><time>2026-04-18T15:10:41.968Z</time></trkpt><trkpt lat="45.0605739" lon="8.5047709"><ele>115.0</ele><time>2026-04-18T15:10:42.971Z</time></trkpt><trkpt lat="45.060605" lon="8.5046809"><ele>114.99999999999999</ele><time>2026-04-18T15:10:43.975Z</time></trkpt><trkpt lat="45.0606407" lon="8.5046"><ele>114.99999999999999</ele><time>2026-04-18T15:10:44.975Z</time></trkpt><trkpt lat="45.0607058" lon="8.5044733"><ele>114.66666666666667</ele><time>2026-04-18T15:10:46.975Z</time></trkpt><trkpt lat="45.0607902" lon="8.5044158"><ele>114.33333333333334</ele><time>2026-04-18T15:10:48.969Z</time></trkpt><trkpt lat="45.0609091" lon="8.5044312"><ele>114.0</ele><time>2026-04-18T15:10:50.973Z</time></trkpt><trkpt lat="45.0609805" lon="8.5044593"><ele>113.66666666666666</ele><time>2026-04-18T15:10:51.97Z</time></trkpt><trkpt lat="45.0610548" lon="8.5044952"><ele>113.33333333333333</ele><time>2026-04-18T15:10:52.97Z</time></trkpt><trkpt lat="45.0611289" lon="8.5045341"><ele>113.0</ele><time>2026-04-18T15:10:53.968Z</time></trkpt><trkpt lat="45.061202" lon="8.5045779"><ele>113.16666666666666</ele><time>2026-04-18T15:10:54.97Z</time></trkpt><trkpt lat="45.0612795" lon="8.5046162"><ele>113.33333333333333</ele><time>2026-04-18T15:10:55.971Z</time></trkpt><trkpt lat="45.061359" lon="8.5046605"><ele>113.5</ele><time>2026-04-18T15:10:56.969Z</time></trkpt><trkpt lat="45.0614406" lon="8.5047099"><ele>113.66666666666666</ele><time>2026-04-18T15:10:57.97Z</time></trkpt><trkpt lat="45.0615223" lon="8.5047626"><ele>113.83333333333333</ele><time>2026-04-18T15:10:58.971Z</time></trkpt><trkpt lat="45.0616003" lon="8.5048156"><ele>114.0</ele><time>2026-04-18T15:10:59.97Z</time></trkpt><trkpt lat="45.061675" lon="8.5048681"><ele>114.0</ele><time>2026-04-18T15:11:00.971Z</time></trkpt><trkpt lat="45.0617475" lon="8.5049176"><ele>114.0</ele><time>2026-04-18T15:11:01.975Z</time></trkpt><trkpt lat="45.0618159" lon="8.5049639"><ele>114.0</ele><time>2026-04-18T15:11:02.97Z</time></trkpt><trkpt lat="45.0618745" lon="8.5050011"><ele>114.0</ele><time>2026-04-18T15:11:03.965Z</time></trkpt><trkpt lat="45.0619687" lon="8.5050488"><ele>114.0</ele><time>2026-04-18T15:11:05.971Z</time></trkpt><trkpt lat="45.0620538" lon="8.505077"><ele>114.0</ele><time>2026-04-18T15:11:07.971Z</time></trkpt><trkpt lat="45.0621422" lon="8.5051106"><ele>114.0</ele><time>2026-04-18T15:11:09.963Z</time></trkpt><trkpt lat="45.0622355" lon="8.5051635"><ele>114.0</ele><time>2026-04-18T15:11:11.972Z</time></trkpt><trkpt lat="45.0623215" lon="8.5052133"><ele>114.0</ele><time>2026-04-18T15:11:13.975Z</time></trkpt><trkpt lat="45.0624102" lon="8.5052133"><ele>114.0</ele><time>2026-04-18T15:11:15.969Z</time></trkpt><trkpt lat="45.0624854" lon="8.5051183"><ele>114.0</ele><time>2026-04-18T15:11:17.971Z</time></trkpt><trkpt lat="45.062525" lon="8.5050454"><ele>114.0</ele><time>2026-04-18T15:11:18.964Z</time></trkpt><trkpt lat="45.0625718" lon="8.5049705"><ele>113.4</ele><time>2026-04-18T15:11:19.972Z</time></trkpt><trkpt lat="45.0626145" lon="8.5049023"><ele>112.80000000000001</ele><time>2026-04-18T15:11:20.971Z</time></trkpt><trkpt lat="45.0627118" lon="8.5047841"><ele>112.19999999999999</ele><time>2026-04-18T15:11:22.974Z</time></trkpt><trkpt lat="45.0627693" lon="8.5047033"><ele>111.6</ele><time>2026-04-18T15:11:23.97Z</time></trkpt><trkpt lat="45.0628311" lon="8.5046113"><ele>111.0</ele><time>2026-04-18T15:11:24.974Z</time></trkpt><trkpt lat="45.0628964" lon="8.5045019"><ele>110.75</ele><time>2026-04-18T15:11:25.97Z</time></trkpt><trkpt lat="45.0629708" lon="8.5043791"><ele>110.5</ele><time>2026-04-18T15:11:26.971Z</time></trkpt><trkpt lat="45.0630429" lon="8.5042572"><ele>110.25</ele><time>2026-04-18T15:11:27.972Z</time></trkpt><trkpt lat="45.0631129" lon="8.5041234"><ele>110.0</ele><time>2026-04-18T15:11:28.969Z</time></trkpt><trkpt lat="45.0631931" lon="8.5039648"><ele>110.0</ele><time>2026-04-18T15:11:29.971Z</time></trkpt><trkpt lat="45.0632867" lon="8.5037926"><ele>110.0</ele><time>2026-04-18T15:11:30.967Z</time></trkpt><trkpt lat="45.0633896" lon="8.5036085"><ele>110.0</ele><time>2026-04-18T15:11:31.972Z</time></trkpt><trkpt lat="45.0635044" lon="8.5034149"><ele>110.0</ele><time>2026-04-18T15:11:32.97Z</time></trkpt><trkpt lat="45.0636329" lon="8.5032133"><ele>110.0</ele><time>2026-04-18T15:11:33.968Z</time></trkpt><trkpt lat="45.0637592" lon="8.5030207"><ele>110.0</ele><time>2026-04-18T15:11:34.965Z</time></trkpt><trkpt lat="45.0638823" lon="8.5028232"><ele>110.33333333333333</ele><time>2026-04-18T15:11:35.967Z</time></trkpt><trkpt lat="45.0640046" lon="8.5026168"><ele>110.66666666666666</ele><time>2026-04-18T15:11:36.967Z</time></trkpt><trkpt lat="45.0641271" lon="8.5024068"><ele>111.0</ele><time>2026-04-18T15:11:37.975Z</time></trkpt><trkpt lat="45.0642554" lon="8.5021905"><ele>111.33333333333334</ele><time>2026-04-18T15:11:38.975Z</time></trkpt><trkpt lat="45.0643859" lon="8.5019699"><ele>111.66666666666667</ele><time>2026-04-18T15:11:39.968Z</time></trkpt><trkpt lat="45.064516" lon="8.5017436"><ele>112.0</ele><time>2026-04-18T15:11:40.975Z</time></trkpt><trkpt lat="45.0646474" lon="8.5015122"><ele>112.0</ele><time>2026-04-18T15:11:41.97Z</time></trkpt><trkpt lat="45.0647826" lon="8.5012781"><ele>112.0</ele><time>2026-04-18T15:11:42.974Z</time></trkpt><trkpt lat="45.0649182" lon="8.5010439"><ele>112.0</ele><time>2026-04-18T15:11:43.97Z</time></trkpt><trkpt lat="45.0650544" lon="8.5008083"><ele>112.0</ele><time>2026-04-18T15:11:44.97Z</time></trkpt><trkpt lat="45.0651907" lon="8.5005714"><ele>112.0</ele><time>2026-04-18T15:11:45.97Z</time></trkpt><trkpt lat="45.0653294" lon="8.5003332"><ele>112.0</ele><time>2026-04-18T15:11:46.971Z</time></trkpt><trkpt lat="45.0654693" lon="8.5000931"><ele>111.66666666666667</ele><time>2026-04-18T15:11:47.965Z</time></trkpt><trkpt lat="45.0656103" lon="8.4998496"><ele>111.33333333333334</ele><time>2026-04-18T15:11:48.971Z</time></trkpt><trkpt lat="45.0657517" lon="8.499605"><ele>111.0</ele><time>2026-04-18T15:11:49.968Z</time></trkpt><trkpt lat="45.065892" lon="8.4993607"><ele>111.0</ele><time>2026-04-18T15:11:50.968Z</time></trkpt><trkpt lat="45.066029" lon="8.4991221"><ele>111.0</ele><time>2026-04-18T15:11:51.974Z</time></trkpt><trkpt lat="45.0661633" lon="8.4988875"><ele>111.0</ele><time>2026-04-18T15:11:52.971Z</time></trkpt><trkpt lat="45.0662954" lon="8.4986565"><ele>111.0</ele><time>2026-04-18T15:11:53.968Z</time></trkpt><trkpt lat="45.0664251" lon="8.4984271"><ele>111.0</ele><time>2026-04-18T15:11:54.972Z</time></trkpt><trkpt lat="45.0665543" lon="8.4982007"><ele>111.0</ele><time>2026-04-18T15:11:55.97Z</time></trkpt><trkpt lat="45.0666859" lon="8.4979746"><ele>111.66666666666666</ele><time>2026-04-18T15:11:56.969Z</time></trkpt><trkpt lat="45.06682" lon="8.4977485"><ele>112.33333333333333</ele><time>2026-04-18T15:11:57.975Z</time></trkpt><trkpt lat="45.0669556" lon="8.497518"><ele>113.0</ele><time>2026-04-18T15:11:58.97Z</time></trkpt><trkpt lat="45.0670921" lon="8.4972821"><ele>113.33333333333333</ele><time>2026-04-18T15:11:59.968Z</time></trkpt><trkpt lat="45.0672299" lon="8.4970451"><ele>113.66666666666666</ele><time>2026-04-18T15:12:00.965Z</time></trkpt><trkpt lat="45.0673687" lon="8.4968099"><ele>114.0</ele><time>2026-04-18T15:12:01.973Z</time></trkpt><trkpt lat="45.0675108" lon="8.4965765"><ele>113.33333333333334</ele><time>2026-04-18T15:12:02.97Z</time></trkpt><trkpt lat="45.0676545" lon="8.4963427"><ele>112.66666666666667</ele><time>2026-04-18T15:12:03.969Z</time></trkpt><trkpt lat="45.0678008" lon="8.4961086"><ele>112.0</ele><time>2026-04-18T15:12:04.967Z</time></trkpt><trkpt lat="45.0679489" lon="8.4958747"><ele>111.5</ele><time>2026-04-18T15:12:05.972Z</time></trkpt><trkpt lat="45.0680995" lon="8.4956399"><ele>111.0</ele><time>2026-04-18T15:12:06.975Z</time></trkpt><trkpt lat="45.0682527" lon="8.495405"><ele>111.5</ele><time>2026-04-18T15:12:07.974Z</time></trkpt><trkpt lat="45.0684076" lon="8.4951718"><ele>112.0</ele><time>2026-04-18T15:12:08.975Z</time></trkpt><trkpt lat="45.0685654" lon="8.4949423"><ele>112.0</ele><time>2026-04-18T15:12:09.97Z</time></trkpt><trkpt lat="45.0687192" lon="8.4947215"><ele>112.0</ele><time>2026-04-18T15:12:10.974Z</time></trkpt><trkpt lat="45.0688658" lon="8.4945108"><ele>112.0</ele><time>2026-04-18T15:12:11.971Z</time></trkpt><trkpt lat="45.0690069" lon="8.4943077"><ele>112.0</ele><time>2026-04-18T15:12:12.974Z</time></trkpt><trkpt lat="45.0691408" lon="8.4941152"><ele>112.0</ele><time>2026-04-18T15:12:13.967Z</time></trkpt><trkpt lat="45.0692704" lon="8.4939283"><ele>112.0</ele><time>2026-04-18T15:12:14.975Z</time></trkpt><trkpt lat="45.0693954" lon="8.4937504"><ele>112.0</ele><time>2026-04-18T15:12:15.972Z</time></trkpt><trkpt lat="45.0695167" lon="8.4935797"><ele>112.0</ele><time>2026-04-18T15:12:16.973Z</time></trkpt><trkpt lat="45.0696319" lon="8.4934123"><ele>112.0</ele><time>2026-04-18T15:12:17.971Z</time></trkpt><trkpt lat="45.0697483" lon="8.4932442"><ele>112.0</ele><time>2026-04-18T15:12:18.968Z</time></trkpt><trkpt lat="45.0698664" lon="8.4930747"><ele>112.0</ele><time>2026-04-18T15:12:19.972Z</time></trkpt><trkpt lat="45.0699866" lon="8.4929034"><ele>112.0</ele><time>2026-04-18T15:12:20.974Z</time></trkpt><trkpt lat="45.0701099" lon="8.4927255"><ele>112.0</ele><time>2026-04-18T15:12:21.97Z</time></trkpt><trkpt lat="45.0702331" lon="8.4925442"><ele>112.0</ele><time>2026-04-18T15:12:22.975Z</time></trkpt><trkpt lat="45.0703601" lon="8.4923578"><ele>112.0</ele><time>2026-04-18T15:12:23.974Z</time></trkpt><trkpt lat="45.0704883" lon="8.4921671"><ele>112.0</ele><time>2026-04-18T15:12:24.973Z</time></trkpt><trkpt lat="45.0706204" lon="8.4919713"><ele>112.0</ele><time>2026-04-18T15:12:25.97Z</time></trkpt><trkpt lat="45.070756" lon="8.4917772"><ele>112.0</ele><time>2026-04-18T15:12:26.97Z</time></trkpt><trkpt lat="45.0708951" lon="8.491578"><ele>112.0</ele><time>2026-04-18T15:12:27.974Z</time></trkpt><trkpt lat="45.0710371" lon="8.4913741"><ele>112.0</ele><time>2026-04-18T15:12:28.972Z</time></trkpt><trkpt lat="45.071183" lon="8.4911696"><ele>112.0</ele><time>2026-04-18T15:12:29.975Z</time></trkpt><trkpt lat="45.0713245" lon="8.4909655"><ele>112.33333333333334</ele><time>2026-04-18T15:12:30.972Z</time></trkpt><trkpt lat="45.0714631" lon="8.490764"><ele>112.66666666666666</ele><time>2026-04-18T15:12:31.972Z</time></trkpt><trkpt lat="45.071599" lon="8.4905668"><ele>113.0</ele><time>2026-04-18T15:12:32.97Z</time></trkpt><trkpt lat="45.0717344" lon="8.4903713"><ele>113.0</ele><time>2026-04-18T15:12:33.968Z</time></trkpt><trkpt lat="45.071869" lon="8.4901791"><ele>113.0</ele><time>2026-04-18T15:12:34.967Z</time></trkpt><trkpt lat="45.0720021" lon="8.4899865"><ele>113.0</ele><time>2026-04-18T15:12:35.972Z</time></trkpt><trkpt lat="45.0721349" lon="8.4897912"><ele>113.0</ele><time>2026-04-18T15:12:36.968Z</time></trkpt><trkpt lat="45.0722691" lon="8.4895937"><ele>113.0</ele><time>2026-04-18T15:12:37.975Z</time></trkpt><trkpt lat="45.0724038" lon="8.4893956"><ele>113.0</ele><time>2026-04-18T15:12:38.961Z</time></trkpt><trkpt lat="45.0725389" lon="8.4891998"><ele>113.33333333333333</ele><time>2026-04-18T15:12:39.975Z</time></trkpt><trkpt lat="45.0726777" lon="8.4890084"><ele>113.66666666666666</ele><time>2026-04-18T15:12:40.967Z</time></trkpt><trkpt lat="45.0728163" lon="8.4888103"><ele>114.0</ele><time>2026-04-18T15:12:41.969Z</time></trkpt><trkpt lat="45.0729579" lon="8.4886104"><ele>114.0</ele><time>2026-04-18T15:12:42.971Z</time></trkpt><trkpt lat="45.0730981" lon="8.4884074"><ele>114.0</ele><time>2026-04-18T15:12:43.969Z</time></trkpt><trkpt lat="45.0732375" lon="8.4882058"><ele>114.0</ele><time>2026-04-18T15:12:44.975Z</time></trkpt><trkpt lat="45.0733703" lon="8.488009"><ele>113.66666666666666</ele><time>2026-04-18T15:12:45.964Z</time></trkpt><trkpt lat="45.0735023" lon="8.487818"><ele>113.33333333333333</ele><time>2026-04-18T15:12:46.968Z</time></trkpt><trkpt lat="45.0736318" lon="8.4876358"><ele>113.0</ele><time>2026-04-18T15:12:47.97Z</time></trkpt><trkpt lat="45.0737527" lon="8.4874608"><ele>113.0</ele><time>2026-04-18T15:12:48.964Z</time></trkpt><trkpt lat="45.0738669" lon="8.4872972"><ele>113.0</ele><time>2026-04-18T15:12:49.97Z</time></trkpt><trkpt lat="45.0739746" lon="8.4871412"><ele>113.0</ele><time>2026-04-18T15:12:50.97Z</time></trkpt><trkpt lat="45.0740757" lon="8.48699"><ele>112.75</ele><time>2026-04-18T15:12:51.967Z</time></trkpt><trkpt lat="45.0741739" lon="8.4868419"><ele>112.5</ele><time>2026-04-18T15:12:52.97Z</time></trkpt><trkpt lat="45.0742705" lon="8.4867015"><ele>112.25</ele><time>2026-04-18T15:12:53.972Z</time></trkpt><trkpt lat="45.0743667" lon="8.4865626"><ele>112.0</ele><time>2026-04-18T15:12:54.968Z</time></trkpt><trkpt lat="45.074462" lon="8.4864215"><ele>112.0</ele><time>2026-04-18T15:12:55.966Z</time></trkpt><trkpt lat="45.0745574" lon="8.4862824"><ele>112.0</ele><time>2026-04-18T15:12:56.968Z</time></trkpt><trkpt lat="45.074654" lon="8.4861438"><ele>112.0</ele><time>2026-04-18T15:12:57.97Z</time></trkpt><trkpt lat="45.0747554" lon="8.485998"><ele>112.0</ele><time>2026-04-18T15:12:58.97Z</time></trkpt><trkpt lat="45.0748647" lon="8.485844"><ele>112.0</ele><time>2026-04-18T15:12:59.974Z</time></trkpt><trkpt lat="45.0749754" lon="8.4856846"><ele>112.0</ele><time>2026-04-18T15:13:00.975Z</time></trkpt><trkpt lat="45.0750842" lon="8.4855249"><ele>112.0</ele><time>2026-04-18T15:13:01.975Z</time></trkpt><trkpt lat="45.0751902" lon="8.48537"><ele>112.0</ele><time>2026-04-18T15:13:02.974Z</time></trkpt><trkpt lat="45.0752933" lon="8.4852218"><ele>112.0</ele><time>2026-04-18T15:13:03.974Z</time></trkpt><trkpt lat="45.0753945" lon="8.485077"><ele>112.0</ele><time>2026-04-18T15:13:04.973Z</time></trkpt><trkpt lat="45.0755028" lon="8.484922"><ele>112.0</ele><time>2026-04-18T15:13:05.971Z</time></trkpt><trkpt lat="45.0756155" lon="8.4847536"><ele>112.33333333333334</ele><time>2026-04-18T15:13:06.974Z</time></trkpt><trkpt lat="45.0757351" lon="8.4845622"><ele>112.66666666666666</ele><time>2026-04-18T15:13:07.971Z</time></trkpt><trkpt lat="45.0758668" lon="8.4843582"><ele>113.0</ele><time>2026-04-18T15:13:08.964Z</time></trkpt><trkpt lat="45.0760129" lon="8.4841458"><ele>112.33333333333333</ele><time>2026-04-18T15:13:09.974Z</time></trkpt><trkpt lat="45.0761724" lon="8.4839328"><ele>111.66666666666666</ele><time>2026-04-18T15:13:10.968Z</time></trkpt><trkpt lat="45.0763367" lon="8.4837193"><ele>111.0</ele><time>2026-04-18T15:13:11.969Z</time></trkpt><trkpt lat="45.0764967" lon="8.4834971"><ele>109.0</ele><time>2026-04-18T15:13:12.971Z</time></trkpt><trkpt lat="45.0766518" lon="8.4832732"><ele>107.0</ele><time>2026-04-18T15:13:13.971Z</time></trkpt><trkpt lat="45.0768078" lon="8.4830445"><ele>105.0</ele><time>2026-04-18T15:13:14.968Z</time></trkpt><trkpt lat="45.0769671" lon="8.4828146"><ele>105.0</ele><time>2026-04-18T15:13:15.975Z</time></trkpt><trkpt lat="45.0771306" lon="8.4825796"><ele>105.0</ele><time>2026-04-18T15:13:16.972Z</time></trkpt><trkpt lat="45.0773007" lon="8.4823377"><ele>109.0</ele><time>2026-04-18T15:13:17.971Z</time></trkpt><trkpt lat="45.0774728" lon="8.4820914"><ele>113.0</ele><time>2026-04-18T15:13:18.972Z</time></trkpt><trkpt lat="45.0776466" lon="8.4818414"><ele>113.0</ele><time>2026-04-18T15:13:19.971Z</time></trkpt><trkpt lat="45.0778251" lon="8.4815868"><ele>113.0</ele><time>2026-04-18T15:13:20.974Z</time></trkpt><trkpt lat="45.0780036" lon="8.4813275"><ele>111.5</ele><time>2026-04-18T15:13:21.975Z</time></trkpt><trkpt lat="45.0781838" lon="8.4810639"><ele>110.0</ele><time>2026-04-18T15:13:22.97Z</time></trkpt><trkpt lat="45.0783632" lon="8.4808032"><ele>110.0</ele><time>2026-04-18T15:13:23.974Z</time></trkpt><trkpt lat="45.0785454" lon="8.4805405"><ele>110.0</ele><time>2026-04-18T15:13:24.97Z</time></trkpt><trkpt lat="45.0787283" lon="8.4802793"><ele>110.0</ele><time>2026-04-18T15:13:25.971Z</time></trkpt><trkpt lat="45.0789113" lon="8.4800139"><ele>110.0</ele><time>2026-04-18T15:13:26.965Z</time></trkpt><trkpt lat="45.0790961" lon="8.4797477"><ele>110.5</ele><time>2026-04-18T15:13:27.973Z</time></trkpt><trkpt lat="45.0792809" lon="8.4794776"><ele>111.0</ele><time>2026-04-18T15:13:28.969Z</time></trkpt><trkpt lat="45.0794661" lon="8.4792099"><ele>111.0</ele><time>2026-04-18T15:13:29.972Z</time></trkpt><trkpt lat="45.0796527" lon="8.4789428"><ele>111.0</ele><time>2026-04-18T15:13:30.974Z</time></trkpt><trkpt lat="45.0798384" lon="8.4786764"><ele>111.0</ele><time>2026-04-18T15:13:31.972Z</time></trkpt><trkpt lat="45.0800231" lon="8.4784084"><ele>111.0</ele><time>2026-04-18T15:13:32.969Z</time></trkpt><trkpt lat="45.0802069" lon="8.4781406"><ele>110.5</ele><time>2026-04-18T15:13:33.971Z</time></trkpt><trkpt lat="45.0803913" lon="8.4778742"><ele>110.0</ele><time>2026-04-18T15:13:34.974Z</time></trkpt><trkpt lat="45.0805757" lon="8.477611"><ele>110.0</ele><time>2026-04-18T15:13:35.97Z</time></trkpt><trkpt lat="45.080758" lon="8.4773477"><ele>110.0</ele><time>2026-04-18T15:13:36.964Z</time></trkpt><trkpt lat="45.08094" lon="8.4770829"><ele>111.0</ele><time>2026-04-18T15:13:37.972Z</time></trkpt><trkpt lat="45.081123" lon="8.4768208"><ele>112.0</ele><time>2026-04-18T15:13:38.962Z</time></trkpt><trkpt lat="45.0813043" lon="8.4765602"><ele>112.0</ele><time>2026-04-18T15:13:39.967Z</time></trkpt><trkpt lat="45.0814841" lon="8.4762991"><ele>112.0</ele><time>2026-04-18T15:13:40.974Z</time></trkpt><trkpt lat="45.0816627" lon="8.4760398"><ele>112.5</ele><time>2026-04-18T15:13:41.969Z</time></trkpt><trkpt lat="45.0818414" lon="8.4757813"><ele>113.0</ele><time>2026-04-18T15:13:42.975Z</time></trkpt><trkpt lat="45.082021" lon="8.4755215"><ele>113.0</ele><time>2026-04-18T15:13:43.968Z</time></trkpt><trkpt lat="45.082199" lon="8.4752623"><ele>113.0</ele><time>2026-04-18T15:13:44.971Z</time></trkpt><trkpt lat="45.0823773" lon="8.4750017"><ele>113.0</ele><time>2026-04-18T15:13:45.975Z</time></trkpt><trkpt lat="45.082556" lon="8.4747415"><ele>113.0</ele><time>2026-04-18T15:13:46.965Z</time></trkpt><trkpt lat="45.082734" lon="8.4744807"><ele>113.0</ele><time>2026-04-18T15:13:47.975Z</time></trkpt><trkpt lat="45.082911" lon="8.4742203"><ele>113.0</ele><time>2026-04-18T15:13:48.973Z</time></trkpt><trkpt lat="45.0830912" lon="8.4739635"><ele>112.5</ele><time>2026-04-18T15:13:49.964Z</time></trkpt><trkpt lat="45.0832707" lon="8.4737056"><ele>112.0</ele><time>2026-04-18T15:13:50.975Z</time></trkpt><trkpt lat="45.0834506" lon="8.4734472"><ele>112.0</ele><time>2026-04-18T15:13:51.974Z</time></trkpt><trkpt lat="45.0836283" lon="8.4731914"><ele>112.0</ele><time>2026-04-18T15:13:52.974Z</time></trkpt><trkpt lat="45.083804" lon="8.4729389"><ele>112.0</ele><time>2026-04-18T15:13:53.975Z</time></trkpt><trkpt lat="45.0839781" lon="8.4726899"><ele>112.0</ele><time>2026-04-18T15:13:54.974Z</time></trkpt><trkpt lat="45.0841498" lon="8.4724444"><ele>112.0</ele><time>2026-04-18T15:13:55.975Z</time></trkpt><trkpt lat="45.0843177" lon="8.4722003"><ele>112.0</ele><time>2026-04-18T15:13:56.974Z</time></trkpt><trkpt lat="45.084482" lon="8.47196"><ele>113.0</ele><time>2026-04-18T15:13:57.974Z</time></trkpt><trkpt lat="45.0846434" lon="8.4717254"><ele>114.0</ele><time>2026-04-18T15:13:58.972Z</time></trkpt><trkpt lat="45.0848001" lon="8.4714989"><ele>114.0</ele><time>2026-04-18T15:13:59.971Z</time></trkpt><trkpt lat="45.0849493" lon="8.4712803"><ele>114.0</ele><time>2026-04-18T15:14:00.969Z</time></trkpt><trkpt lat="45.085094" lon="8.4710681"><ele>114.0</ele><time>2026-04-18T15:14:01.967Z</time></trkpt><trkpt lat="45.0852381" lon="8.4708576"><ele>114.0</ele><time>2026-04-18T15:14:02.973Z</time></trkpt><trkpt lat="45.0853797" lon="8.4706524"><ele>114.0</ele><time>2026-04-18T15:14:03.97Z</time></trkpt><trkpt lat="45.0855152" lon="8.4704562"><ele>114.0</ele><time>2026-04-18T15:14:04.971Z</time></trkpt><trkpt lat="45.0856481" lon="8.4702657"><ele>113.66666666666666</ele><time>2026-04-18T15:14:05.969Z</time></trkpt><trkpt lat="45.0857755" lon="8.4700846"><ele>113.33333333333333</ele><time>2026-04-18T15:14:06.97Z</time></trkpt><trkpt lat="45.0858983" lon="8.4699111"><ele>113.0</ele><time>2026-04-18T15:14:07.97Z</time></trkpt><trkpt lat="45.0860155" lon="8.4697464"><ele>113.0</ele><time>2026-04-18T15:14:08.972Z</time></trkpt><trkpt lat="45.0861272" lon="8.4695921"><ele>113.0</ele><time>2026-04-18T15:14:09.971Z</time></trkpt><trkpt lat="45.0862307" lon="8.4694611"><ele>113.0</ele><time>2026-04-18T15:14:10.975Z</time></trkpt><trkpt lat="45.0863193" lon="8.4693656"><ele>113.0</ele><time>2026-04-18T15:14:11.969Z</time></trkpt><trkpt lat="45.0863938" lon="8.4693053"><ele>112.99999999999999</ele><time>2026-04-18T15:14:12.97Z</time></trkpt><trkpt lat="45.0864675" lon="8.46927"><ele>113.0</ele><time>2026-04-18T15:14:13.975Z</time></trkpt><trkpt lat="45.086547" lon="8.4692573"><ele>113.0</ele><time>2026-04-18T15:14:14.969Z</time></trkpt><trkpt lat="45.0866267" lon="8.4692329"><ele>113.0</ele><time>2026-04-18T15:14:15.972Z</time></trkpt><trkpt lat="45.0866908" lon="8.4691712"><ele>112.99999999999999</ele><time>2026-04-18T15:14:16.971Z</time></trkpt><trkpt lat="45.0867252" lon="8.4690838"><ele>113.0</ele><time>2026-04-18T15:14:17.974Z</time></trkpt><trkpt lat="45.0867386" lon="8.4689863"><ele>113.0</ele><time>2026-04-18T15:14:18.966Z</time></trkpt><trkpt lat="45.0867496" lon="8.4688664"><ele>113.00000000000001</ele><time>2026-04-18T15:14:19.966Z</time></trkpt><trkpt lat="45.0867831" lon="8.4687313"><ele>113.00000000000001</ele><time>2026-04-18T15:14:20.973Z</time></trkpt><trkpt lat="45.0868446" lon="8.4685957"><ele>113.0</ele><time>2026-04-18T15:14:21.967Z</time></trkpt><trkpt lat="45.0869239" lon="8.4684565"><ele>113.0</ele><time>2026-04-18T15:14:22.975Z</time></trkpt><trkpt lat="45.0870116" lon="8.4683079"><ele>113.0</ele><time>2026-04-18T15:14:23.975Z</time></trkpt><trkpt lat="45.0871008" lon="8.4681643"><ele>113.0</ele><time>2026-04-18T15:14:24.969Z</time></trkpt><trkpt lat="45.0871944" lon="8.468023"><ele>113.0</ele><time>2026-04-18T15:14:25.975Z</time></trkpt><trkpt lat="45.0872937" lon="8.4678787"><ele>113.0</ele><time>2026-04-18T15:14:26.974Z</time></trkpt><trkpt lat="45.0873948" lon="8.4677298"><ele>112.75</ele><time>2026-04-18T15:14:27.973Z</time></trkpt><trkpt lat="45.0874945" lon="8.4675839"><ele>112.5</ele><time>2026-04-18T15:14:28.972Z</time></trkpt><trkpt lat="45.087596" lon="8.4674407"><ele>112.25</ele><time>2026-04-18T15:14:29.971Z</time></trkpt><trkpt lat="45.087697" lon="8.4672955"><ele>112.0</ele><time>2026-04-18T15:14:30.969Z</time></trkpt><trkpt lat="45.0878002" lon="8.4671434"><ele>112.66666666666667</ele><time>2026-04-18T15:14:31.968Z</time></trkpt><trkpt lat="45.0879067" lon="8.4669867"><ele>113.33333333333334</ele><time>2026-04-18T15:14:32.975Z</time></trkpt><trkpt lat="45.0880164" lon="8.4668294"><ele>114.0</ele><time>2026-04-18T15:14:33.974Z</time></trkpt><trkpt lat="45.0881243" lon="8.4666714"><ele>114.0</ele><time>2026-04-18T15:14:34.966Z</time></trkpt><trkpt lat="45.0882349" lon="8.4665152"><ele>114.0</ele><time>2026-04-18T15:14:35.97Z</time></trkpt><trkpt lat="45.0883425" lon="8.4663589"><ele>114.0</ele><time>2026-04-18T15:14:36.964Z</time></trkpt><trkpt lat="45.088449" lon="8.466202"><ele>113.0</ele><time>2026-04-18T15:14:37.974Z</time></trkpt><trkpt lat="45.088559" lon="8.4660456"><ele>112.0</ele><time>2026-04-18T15:14:38.969Z</time></trkpt><trkpt lat="45.0886683" lon="8.4658833"><ele>111.0</ele><time>2026-04-18T15:14:39.968Z</time></trkpt><trkpt lat="45.0887771" lon="8.4657243"><ele>111.0</ele><time>2026-04-18T15:14:40.97Z</time></trkpt><trkpt lat="45.088888" lon="8.4655645"><ele>111.0</ele><time>2026-04-18T15:14:41.974Z</time></trkpt><trkpt lat="45.0889985" lon="8.4654052"><ele>111.0</ele><time>2026-04-18T15:14:42.973Z</time></trkpt><trkpt lat="45.0891097" lon="8.4652463"><ele>110.66666666666666</ele><time>2026-04-18T15:14:43.97Z</time></trkpt><trkpt lat="45.0892207" lon="8.4650862"><ele>110.33333333333333</ele><time>2026-04-18T15:14:44.975Z</time></trkpt><trkpt lat="45.0893298" lon="8.4649293"><ele>110.0</ele><time>2026-04-18T15:14:45.968Z</time></trkpt><trkpt lat="45.0894374" lon="8.4647718"><ele>110.33333333333333</ele><time>2026-04-18T15:14:46.973Z</time></trkpt><trkpt lat="45.0895448" lon="8.4646112"><ele>110.66666666666666</ele><time>2026-04-18T15:14:47.968Z</time></trkpt><trkpt lat="45.0896546" lon="8.4644556"><ele>111.0</ele><time>2026-04-18T15:14:48.973Z</time></trkpt><trkpt lat="45.0897701" lon="8.4643017"><ele>111.0</ele><time>2026-04-18T15:14:49.968Z</time></trkpt><trkpt lat="45.08989" lon="8.4641443"><ele>111.0</ele><time>2026-04-18T15:14:50.969Z</time></trkpt><trkpt lat="45.09002" lon="8.4639943"><ele>111.0</ele><time>2026-04-18T15:14:51.974Z</time></trkpt><trkpt lat="45.0901567" lon="8.4638468"><ele>110.66666666666666</ele><time>2026-04-18T15:14:52.975Z</time></trkpt><trkpt lat="45.0903015" lon="8.4637044"><ele>110.33333333333333</ele><time>2026-04-18T15:14:53.974Z</time></trkpt><trkpt lat="45.0904522" lon="8.4635691"><ele>110.0</ele><time>2026-04-18T15:14:54.969Z</time></trkpt><trkpt lat="45.0906075" lon="8.4634365"><ele>109.66666666666666</ele><time>2026-04-18T15:14:55.967Z</time></trkpt><trkpt lat="45.0907664" lon="8.4633038"><ele>109.33333333333334</ele><time>2026-04-18T15:14:56.971Z</time></trkpt><trkpt lat="45.0909255" lon="8.4631711"><ele>109.0</ele><time>2026-04-18T15:14:57.975Z</time></trkpt><trkpt lat="45.0910872" lon="8.4630363"><ele>109.66666666666667</ele><time>2026-04-18T15:14:58.966Z</time></trkpt><trkpt lat="45.0912533" lon="8.4629028"><ele>110.33333333333334</ele><time>2026-04-18T15:14:59.97Z</time></trkpt><trkpt lat="45.0914186" lon="8.4627656"><ele>111.0</ele><time>2026-04-18T15:15:00.975Z</time></trkpt><trkpt lat="45.0915861" lon="8.4626262"><ele>110.66666666666666</ele><time>2026-04-18T15:15:01.971Z</time></trkpt><trkpt lat="45.0917538" lon="8.4624874"><ele>110.33333333333333</ele><time>2026-04-18T15:15:02.971Z</time></trkpt><trkpt lat="45.0919234" lon="8.4623476"><ele>110.0</ele><time>2026-04-18T15:15:03.965Z</time></trkpt><trkpt lat="45.0920938" lon="8.4622089"><ele>110.0</ele><time>2026-04-18T15:15:04.975Z</time></trkpt><trkpt lat="45.0922684" lon="8.4620677"><ele>110.0</ele><time>2026-04-18T15:15:05.972Z</time></trkpt><trkpt lat="45.0924438" lon="8.4619231"><ele>110.0</ele><time>2026-04-18T15:15:06.975Z</time></trkpt><trkpt lat="45.0926213" lon="8.4617748"><ele>111.0</ele><time>2026-04-18T15:15:07.964Z</time></trkpt><trkpt lat="45.0927991" lon="8.4616241"><ele>112.0</ele><time>2026-04-18T15:15:08.973Z</time></trkpt><trkpt lat="45.0929793" lon="8.4614763"><ele>113.0</ele><time>2026-04-18T15:15:09.971Z</time></trkpt><trkpt lat="45.0931588" lon="8.461328"><ele>113.66666666666666</ele><time>2026-04-18T15:15:10.964Z</time></trkpt><trkpt lat="45.0933391" lon="8.4611778"><ele>114.33333333333334</ele><time>2026-04-18T15:15:11.972Z</time></trkpt><trkpt lat="45.0935196" lon="8.4610303"><ele>115.0</ele><time>2026-04-18T15:15:12.973Z</time></trkpt><trkpt lat="45.0936993" lon="8.4608805"><ele>115.0</ele><time>2026-04-18T15:15:13.975Z</time></trkpt><trkpt lat="45.0938785" lon="8.4607284"><ele>115.0</ele><time>2026-04-18T15:15:14.974Z</time></trkpt><trkpt lat="45.0940609" lon="8.4605739"><ele>115.0</ele><time>2026-04-18T15:15:15.972Z</time></trkpt><trkpt lat="45.0942431" lon="8.4604232"><ele>115.33333333333334</ele><time>2026-04-18T15:15:16.975Z</time></trkpt><trkpt lat="45.0944248" lon="8.4602734"><ele>115.66666666666666</ele><time>2026-04-18T15:15:17.974Z</time></trkpt><trkpt lat="45.0945984" lon="8.4601342"><ele>116.0</ele><time>2026-04-18T15:15:18.975Z</time></trkpt><trkpt lat="45.0947644" lon="8.4599953"><ele>115.66666666666666</ele><time>2026-04-18T15:15:19.968Z</time></trkpt><trkpt lat="45.0949253" lon="8.4598597"><ele>115.33333333333334</ele><time>2026-04-18T15:15:20.975Z</time></trkpt><trkpt lat="45.0950816" lon="8.4597208"><ele>115.0</ele><time>2026-04-18T15:15:21.97Z</time></trkpt><trkpt lat="45.0952319" lon="8.4595694"><ele>116.0</ele><time>2026-04-18T15:15:22.973Z</time></trkpt><trkpt lat="45.0953792" lon="8.4594044"><ele>117.0</ele><time>2026-04-18T15:15:23.975Z</time></trkpt><trkpt lat="45.0955217" lon="8.4592277"><ele>118.0</ele><time>2026-04-18T15:15:24.975Z</time></trkpt><trkpt lat="45.0956617" lon="8.459044"><ele>117.66666666666667</ele><time>2026-04-18T15:15:25.973Z</time></trkpt><trkpt lat="45.095801" lon="8.4588586"><ele>117.33333333333334</ele><time>2026-04-18T15:15:26.973Z</time></trkpt><trkpt lat="45.0959416" lon="8.4586755"><ele>117.0</ele><time>2026-04-18T15:15:27.969Z</time></trkpt><trkpt lat="45.0960847" lon="8.4584902"><ele>119.33333333333334</ele><time>2026-04-18T15:15:28.973Z</time></trkpt><trkpt lat="45.0962307" lon="8.4583051"><ele>121.66666666666667</ele><time>2026-04-18T15:15:29.971Z</time></trkpt><trkpt lat="45.0963757" lon="8.4581184"><ele>124.0</ele><time>2026-04-18T15:15:30.969Z</time></trkpt><trkpt lat="45.0965185" lon="8.457931"><ele>122.33333333333334</ele><time>2026-04-18T15:15:31.964Z</time></trkpt><trkpt lat="45.0966638" lon="8.457745"><ele>120.66666666666666</ele><time>2026-04-18T15:15:32.968Z</time></trkpt><trkpt lat="45.0968035" lon="8.4575654"><ele>119.0</ele><time>2026-04-18T15:15:33.969Z</time></trkpt><trkpt lat="45.0969396" lon="8.4573892"><ele>119.0</ele><time>2026-04-18T15:15:34.975Z</time></trkpt><trkpt lat="45.0970683" lon="8.4572204"><ele>119.0</ele><time>2026-04-18T15:15:35.975Z</time></trkpt><trkpt lat="45.0971923" lon="8.4570599"><ele>119.0</ele><time>2026-04-18T15:15:36.972Z</time></trkpt><trkpt lat="45.0973113" lon="8.456904"><ele>119.0</ele><time>2026-04-18T15:15:37.972Z</time></trkpt><trkpt lat="45.097425" lon="8.4567527"><ele>119.0</ele><time>2026-04-18T15:15:38.974Z</time></trkpt><trkpt lat="45.097538" lon="8.4565995"><ele>119.0</ele><time>2026-04-18T15:15:39.973Z</time></trkpt><trkpt lat="45.0976493" lon="8.45645"><ele>119.0</ele><time>2026-04-18T15:15:40.973Z</time></trkpt><trkpt lat="45.0977609" lon="8.4563042"><ele>119.0</ele><time>2026-04-18T15:15:41.975Z</time></trkpt><trkpt lat="45.0978736" lon="8.4561621"><ele>119.0</ele><time>2026-04-18T15:15:42.968Z</time></trkpt><trkpt lat="45.0979833" lon="8.4560194"><ele>118.66666666666666</ele><time>2026-04-18T15:15:43.968Z</time></trkpt><trkpt lat="45.0980932" lon="8.4558766"><ele>118.33333333333334</ele><time>2026-04-18T15:15:44.972Z</time></trkpt><trkpt lat="45.0982032" lon="8.4557311"><ele>118.0</ele><time>2026-04-18T15:15:45.97Z</time></trkpt><trkpt lat="45.0983129" lon="8.4555858"><ele>119.0</ele><time>2026-04-18T15:15:46.971Z</time></trkpt><trkpt lat="45.0984263" lon="8.4554375"><ele>120.0</ele><time>2026-04-18T15:15:47.97Z</time></trkpt><trkpt lat="45.0985396" lon="8.4552892"><ele>121.0</ele><time>2026-04-18T15:15:48.974Z</time></trkpt><trkpt lat="45.0986555" lon="8.4551359"><ele>121.0</ele><time>2026-04-18T15:15:49.971Z</time></trkpt><trkpt lat="45.0987704" lon="8.4549806"><ele>121.0</ele><time>2026-04-18T15:15:50.967Z</time></trkpt><trkpt lat="45.098888" lon="8.4548235"><ele>121.0</ele><time>2026-04-18T15:15:51.969Z</time></trkpt><trkpt lat="45.0990022" lon="8.4546686"><ele>120.33333333333334</ele><time>2026-04-18T15:15:52.972Z</time></trkpt><trkpt lat="45.0991137" lon="8.454523"><ele>119.66666666666666</ele><time>2026-04-18T15:15:53.966Z</time></trkpt><trkpt lat="45.0992236" lon="8.4543742"><ele>119.0</ele><time>2026-04-18T15:15:54.974Z</time></trkpt><trkpt lat="45.0993318" lon="8.4542314"><ele>119.0</ele><time>2026-04-18T15:15:55.974Z</time></trkpt><trkpt lat="45.0994412" lon="8.454086"><ele>119.0</ele><time>2026-04-18T15:15:56.967Z</time></trkpt><trkpt lat="45.09955" lon="8.4539462"><ele>119.0</ele><time>2026-04-18T15:15:57.974Z</time></trkpt><trkpt lat="45.0996564" lon="8.4538082"><ele>119.0</ele><time>2026-04-18T15:15:58.968Z</time></trkpt><trkpt lat="45.0997595" lon="8.4536738"><ele>119.0</ele><time>2026-04-18T15:15:59.974Z</time></trkpt><trkpt lat="45.0998585" lon="8.4535442"><ele>119.0</ele><time>2026-04-18T15:16:00.971Z</time></trkpt><trkpt lat="45.0999533" lon="8.4534227"><ele>119.0</ele><time>2026-04-18T15:16:01.975Z</time></trkpt><trkpt lat="45.1000471" lon="8.4533089"><ele>119.0</ele><time>2026-04-18T15:16:02.969Z</time></trkpt><trkpt lat="45.1001438" lon="8.4532077"><ele>118.80000000000001</ele><time>2026-04-18T15:16:03.967Z</time></trkpt><trkpt lat="45.100242" lon="8.4531278"><ele>118.60000000000001</ele><time>2026-04-18T15:16:04.967Z</time></trkpt><trkpt lat="45.1003354" lon="8.4530653"><ele>118.4</ele><time>2026-04-18T15:16:05.962Z</time></trkpt><trkpt lat="45.1004112" lon="8.4530248"><ele>118.2</ele><time>2026-04-18T15:16:06.963Z</time></trkpt><trkpt lat="45.1004745" lon="8.4529896"><ele>118.0</ele><time>2026-04-18T15:16:07.975Z</time></trkpt><trkpt lat="45.1005681" lon="8.4528897"><ele>118.0</ele><time>2026-04-18T15:16:09.969Z</time></trkpt><trkpt lat="45.100593" lon="8.4527065"><ele>118.0</ele><time>2026-04-18T15:16:11.97Z</time></trkpt><trkpt lat="45.1006069" lon="8.4525802"><ele>118.0</ele><time>2026-04-18T15:16:12.97Z</time></trkpt><trkpt lat="45.1006401" lon="8.4524353"><ele>118.0</ele><time>2026-04-18T15:16:13.968Z</time></trkpt><trkpt lat="45.1006918" lon="8.452281"><ele>118.25</ele><time>2026-04-18T15:16:14.97Z</time></trkpt><trkpt lat="45.1007509" lon="8.4521146"><ele>118.5</ele><time>2026-04-18T15:16:15.967Z</time></trkpt><trkpt lat="45.1008162" lon="8.451933"><ele>118.75</ele><time>2026-04-18T15:16:16.97Z</time></trkpt><trkpt lat="45.1008863" lon="8.4517371"><ele>119.0</ele><time>2026-04-18T15:16:17.97Z</time></trkpt><trkpt lat="45.1009564" lon="8.4515392"><ele>119.0</ele><time>2026-04-18T15:16:18.974Z</time></trkpt><trkpt lat="45.1010256" lon="8.4513437"><ele>119.0</ele><time>2026-04-18T15:16:19.966Z</time></trkpt><trkpt lat="45.1010971" lon="8.4511417"><ele>119.0</ele><time>2026-04-18T15:16:20.973Z</time></trkpt><trkpt lat="45.1011697" lon="8.4509308"><ele>119.0</ele><time>2026-04-18T15:16:21.972Z</time></trkpt><trkpt lat="45.1012439" lon="8.450714"><ele>119.0</ele><time>2026-04-18T15:16:22.97Z</time></trkpt><trkpt lat="45.1013228" lon="8.450494"><ele>119.0</ele><time>2026-04-18T15:16:23.973Z</time></trkpt><trkpt lat="45.1014047" lon="8.4502646"><ele>119.0</ele><time>2026-04-18T15:16:24.975Z</time></trkpt><trkpt lat="45.1014889" lon="8.450028"><ele>119.0</ele><time>2026-04-18T15:16:25.962Z</time></trkpt><trkpt lat="45.101573" lon="8.4497844"><ele>119.0</ele><time>2026-04-18T15:16:26.966Z</time></trkpt><trkpt lat="45.1016606" lon="8.449533"><ele>119.0</ele><time>2026-04-18T15:16:27.962Z</time></trkpt><trkpt lat="45.1017516" lon="8.449277"><ele>119.0</ele><time>2026-04-18T15:16:28.966Z</time></trkpt><trkpt lat="45.1018434" lon="8.4490181"><ele>119.0</ele><time>2026-04-18T15:16:29.968Z</time></trkpt><trkpt lat="45.1019366" lon="8.4487542"><ele>118.66666666666666</ele><time>2026-04-18T15:16:30.968Z</time></trkpt><trkpt lat="45.1020277" lon="8.4484901"><ele>118.33333333333334</ele><time>2026-04-18T15:16:31.97Z</time></trkpt><trkpt lat="45.1021174" lon="8.4482236"><ele>118.0</ele><time>2026-04-18T15:16:32.969Z</time></trkpt><trkpt lat="45.1022062" lon="8.4479537"><ele>118.0</ele><time>2026-04-18T15:16:33.966Z</time></trkpt><trkpt lat="45.102297" lon="8.4476864"><ele>118.0</ele><time>2026-04-18T15:16:34.968Z</time></trkpt><trkpt lat="45.1023906" lon="8.4474183"><ele>118.0</ele><time>2026-04-18T15:16:35.964Z</time></trkpt><trkpt lat="45.1024838" lon="8.4471488"><ele>118.33333333333334</ele><time>2026-04-18T15:16:36.967Z</time></trkpt><trkpt lat="45.1025745" lon="8.4468845"><ele>118.66666666666666</ele><time>2026-04-18T15:16:37.967Z</time></trkpt><trkpt lat="45.1026675" lon="8.446615"><ele>119.0</ele><time>2026-04-18T15:16:38.964Z</time></trkpt><trkpt lat="45.1027636" lon="8.4463431"><ele>119.33333333333333</ele><time>2026-04-18T15:16:39.971Z</time></trkpt><trkpt lat="45.102861" lon="8.4460671"><ele>119.66666666666666</ele><time>2026-04-18T15:16:40.973Z</time></trkpt><trkpt lat="45.1029593" lon="8.4457839"><ele>120.0</ele><time>2026-04-18T15:16:41.969Z</time></trkpt><trkpt lat="45.1030597" lon="8.4454964"><ele>120.5</ele><time>2026-04-18T15:16:42.968Z</time></trkpt><trkpt lat="45.1031626" lon="8.4452049"><ele>121.0</ele><time>2026-04-18T15:16:43.971Z</time></trkpt><trkpt lat="45.1032652" lon="8.4449136"><ele>122.0</ele><time>2026-04-18T15:16:44.973Z</time></trkpt><trkpt lat="45.1033686" lon="8.4446215"><ele>123.0</ele><time>2026-04-18T15:16:45.968Z</time></trkpt><trkpt lat="45.1034713" lon="8.4443316"><ele>123.0</ele><time>2026-04-18T15:16:46.972Z</time></trkpt><trkpt lat="45.1035719" lon="8.4440408"><ele>123.0</ele><time>2026-04-18T15:16:47.974Z</time></trkpt><trkpt lat="45.1036715" lon="8.4437522"><ele>124.0</ele><time>2026-04-18T15:16:48.967Z</time></trkpt><trkpt lat="45.10377" lon="8.4434643"><ele>125.0</ele><time>2026-04-18T15:16:49.967Z</time></trkpt><trkpt lat="45.1038682" lon="8.4431788"><ele>124.66666666666666</ele><time>2026-04-18T15:16:50.963Z</time></trkpt><trkpt lat="45.1039667" lon="8.4428961"><ele>124.33333333333334</ele><time>2026-04-18T15:16:51.967Z</time></trkpt><trkpt lat="45.1040637" lon="8.4426183"><ele>124.0</ele><time>2026-04-18T15:16:52.969Z</time></trkpt><trkpt lat="45.1041613" lon="8.4423401"><ele>124.66666666666667</ele><time>2026-04-18T15:16:53.969Z</time></trkpt><trkpt lat="45.1042588" lon="8.4420633"><ele>125.33333333333334</ele><time>2026-04-18T15:16:54.958Z</time></trkpt><trkpt lat="45.1043562" lon="8.4417888"><ele>126.0</ele><time>2026-04-18T15:16:55.97Z</time></trkpt><trkpt lat="45.1044517" lon="8.4415184"><ele>127.0</ele><time>2026-04-18T15:16:56.971Z</time></trkpt><trkpt lat="45.104546" lon="8.4412519"><ele>128.0</ele><time>2026-04-18T15:16:57.969Z</time></trkpt><trkpt lat="45.1046383" lon="8.4409909"><ele>129.0</ele><time>2026-04-18T15:16:58.97Z</time></trkpt><trkpt lat="45.1047277" lon="8.4407353"><ele>129.0</ele><time>2026-04-18T15:16:59.971Z</time></trkpt><trkpt lat="45.1048097" lon="8.4404811"><ele>129.0</ele><time>2026-04-18T15:17:00.965Z</time></trkpt><trkpt lat="45.1048788" lon="8.4402231"><ele>129.0</ele><time>2026-04-18T15:17:01.974Z</time></trkpt><trkpt lat="45.1049333" lon="8.4399574"><ele>127.33333333333334</ele><time>2026-04-18T15:17:02.975Z</time></trkpt><trkpt lat="45.1049719" lon="8.4396912"><ele>125.66666666666667</ele><time>2026-04-18T15:17:03.975Z</time></trkpt><trkpt lat="45.1049935" lon="8.4394291"><ele>124.0</ele><time>2026-04-18T15:17:04.975Z</time></trkpt><trkpt lat="45.105001" lon="8.4391691"><ele>124.0</ele><time>2026-04-18T15:17:05.966Z</time></trkpt><trkpt lat="45.1049943" lon="8.4389136"><ele>124.0</ele><time>2026-04-18T15:17:06.965Z</time></trkpt><trkpt lat="45.1049741" lon="8.4386619"><ele>124.0</ele><time>2026-04-18T15:17:07.964Z</time></trkpt><trkpt lat="45.1049402" lon="8.4384231"><ele>127.33333333333334</ele><time>2026-04-18T15:17:08.975Z</time></trkpt><trkpt lat="45.1048932" lon="8.4381981"><ele>130.66666666666666</ele><time>2026-04-18T15:17:09.967Z</time></trkpt><trkpt lat="45.1048346" lon="8.437988"><ele>134.0</ele><time>2026-04-18T15:17:10.975Z</time></trkpt><trkpt lat="45.1047665" lon="8.4377873"><ele>134.0</ele><time>2026-04-18T15:17:11.967Z</time></trkpt><trkpt lat="45.1046909" lon="8.437597"><ele>134.0</ele><time>2026-04-18T15:17:12.963Z</time></trkpt><trkpt lat="45.1046073" lon="8.4374152"><ele>134.0</ele><time>2026-04-18T15:17:13.966Z</time></trkpt><trkpt lat="45.104514" lon="8.4372449"><ele>132.33333333333331</ele><time>2026-04-18T15:17:14.975Z</time></trkpt><trkpt lat="45.1044046" lon="8.4370834"><ele>130.66666666666666</ele><time>2026-04-18T15:17:15.971Z</time></trkpt><trkpt lat="45.1042852" lon="8.4369319"><ele>129.0</ele><time>2026-04-18T15:17:16.965Z</time></trkpt><trkpt lat="45.1041638" lon="8.4367862"><ele>129.66666666666666</ele><time>2026-04-18T15:17:17.963Z</time></trkpt><trkpt lat="45.1040245" lon="8.4366252"><ele>130.33333333333331</ele><time>2026-04-18T15:17:18.963Z</time></trkpt><trkpt lat="45.1038744" lon="8.4364493"><ele>131.0</ele><time>2026-04-18T15:17:19.964Z</time></trkpt><trkpt lat="45.1037248" lon="8.4362603"><ele>131.0</ele><time>2026-04-18T15:17:20.97Z</time></trkpt><trkpt lat="45.1035797" lon="8.4360746"><ele>131.0</ele><time>2026-04-18T15:17:21.975Z</time></trkpt><trkpt lat="45.1034383" lon="8.4358993"><ele>131.0</ele><time>2026-04-18T15:17:22.966Z</time></trkpt><trkpt lat="45.1033036" lon="8.4357352"><ele>131.0</ele><time>2026-04-18T15:17:23.97Z</time></trkpt><trkpt lat="45.1031746" lon="8.4355794"><ele>131.0</ele><time>2026-04-18T15:17:24.97Z</time></trkpt><trkpt lat="45.1030539" lon="8.435437"><ele>131.0</ele><time>2026-04-18T15:17:25.972Z</time></trkpt><trkpt lat="45.1029424" lon="8.4353072"><ele>131.0</ele><time>2026-04-18T15:17:26.968Z</time></trkpt><trkpt lat="45.1028452" lon="8.4351899"><ele>131.0</ele><time>2026-04-18T15:17:27.969Z</time></trkpt><trkpt lat="45.1027684" lon="8.4350831"><ele>131.0</ele><time>2026-04-18T15:17:28.97Z</time></trkpt><trkpt lat="45.102719" lon="8.4349816"><ele>131.0</ele><time>2026-04-18T15:17:29.965Z</time></trkpt><trkpt lat="45.1026973" lon="8.4348782"><ele>131.0</ele><time>2026-04-18T15:17:30.97Z</time></trkpt><trkpt lat="45.1026922" lon="8.4347695"><ele>131.0</ele><time>2026-04-18T15:17:31.969Z</time></trkpt><trkpt lat="45.1027117" lon="8.434665"><ele>131.0</ele><time>2026-04-18T15:17:32.964Z</time></trkpt><trkpt lat="45.1027487" lon="8.4345642"><ele>131.0</ele><time>2026-04-18T15:17:33.963Z</time></trkpt><trkpt lat="45.1028024" lon="8.4344675"><ele>131.0</ele><time>2026-04-18T15:17:34.966Z</time></trkpt><trkpt lat="45.1028645" lon="8.4343743"><ele>131.0</ele><time>2026-04-18T15:17:35.973Z</time></trkpt><trkpt lat="45.1029337" lon="8.4342769"><ele>131.0</ele><time>2026-04-18T15:17:36.965Z</time></trkpt><trkpt lat="45.1030037" lon="8.4341724"><ele>130.8</ele><time>2026-04-18T15:17:37.973Z</time></trkpt><trkpt lat="45.1030747" lon="8.434066"><ele>130.6</ele><time>2026-04-18T15:17:38.974Z</time></trkpt><trkpt lat="45.1031408" lon="8.4339643"><ele>130.4</ele><time>2026-04-18T15:17:39.962Z</time></trkpt><trkpt lat="45.1031963" lon="8.433883"><ele>130.2</ele><time>2026-04-18T15:17:40.971Z</time></trkpt><trkpt lat="45.103243" lon="8.4338205"><ele>130.0</ele><time>2026-04-18T15:17:41.974Z</time></trkpt><trkpt lat="45.1033203" lon="8.4337177"><ele>130.0</ele><time>2026-04-18T15:17:43.97Z</time></trkpt><trkpt lat="45.1033562" lon="8.4336427"><ele>130.0</ele><time>2026-04-18T15:17:45.969Z</time></trkpt><trkpt lat="45.1033499" lon="8.4335227"><ele>130.0</ele><time>2026-04-18T15:17:48.966Z</time></trkpt><trkpt lat="45.1032488" lon="8.4333877"><ele>130.0</ele><time>2026-04-18T15:17:50.975Z</time></trkpt><trkpt lat="45.1031701" lon="8.4333077"><ele>130.0</ele><time>2026-04-18T15:17:51.971Z</time></trkpt><trkpt lat="45.1030808" lon="8.4332134"><ele>129.75</ele><time>2026-04-18T15:17:52.97Z</time></trkpt><trkpt lat="45.1029811" lon="8.4331115"><ele>129.5</ele><time>2026-04-18T15:17:53.971Z</time></trkpt><trkpt lat="45.102881" lon="8.4330047"><ele>129.25</ele><time>2026-04-18T15:17:54.974Z</time></trkpt><trkpt lat="45.1027765" lon="8.4328976"><ele>129.0</ele><time>2026-04-18T15:17:55.974Z</time></trkpt><trkpt lat="45.1026691" lon="8.4327892"><ele>129.5</ele><time>2026-04-18T15:17:56.962Z</time></trkpt><trkpt lat="45.1025602" lon="8.4326812"><ele>130.0</ele><time>2026-04-18T15:17:57.971Z</time></trkpt><trkpt lat="45.1024476" lon="8.4325697"><ele>130.5</ele><time>2026-04-18T15:17:58.968Z</time></trkpt><trkpt lat="45.1023324" lon="8.4324556"><ele>131.0</ele><time>2026-04-18T15:17:59.965Z</time></trkpt><trkpt lat="45.1022169" lon="8.4323395"><ele>131.0</ele><time>2026-04-18T15:18:00.969Z</time></trkpt><trkpt lat="45.1020959" lon="8.4322201"><ele>131.0</ele><time>2026-04-18T15:18:01.971Z</time></trkpt><trkpt lat="45.1019706" lon="8.4320976"><ele>131.0</ele><time>2026-04-18T15:18:02.968Z</time></trkpt><trkpt lat="45.1018413" lon="8.4319606"><ele>131.66666666666666</ele><time>2026-04-18T15:18:03.975Z</time></trkpt><trkpt lat="45.1017062" lon="8.4318139"><ele>132.33333333333334</ele><time>2026-04-18T15:18:04.96Z</time></trkpt><trkpt lat="45.1015649" lon="8.4316686"><ele>133.0</ele><time>2026-04-18T15:18:05.975Z</time></trkpt><trkpt lat="45.1014211" lon="8.4315206"><ele>133.33333333333334</ele><time>2026-04-18T15:18:06.973Z</time></trkpt><trkpt lat="45.1012738" lon="8.4313673"><ele>133.66666666666666</ele><time>2026-04-18T15:18:07.974Z</time></trkpt><trkpt lat="45.1011257" lon="8.4312094"><ele>134.0</ele><time>2026-04-18T15:18:08.964Z</time></trkpt><trkpt lat="45.1009835" lon="8.4310527"><ele>134.0</ele><time>2026-04-18T15:18:09.965Z</time></trkpt><trkpt lat="45.1008462" lon="8.4308843"><ele>134.0</ele><time>2026-04-18T15:18:10.975Z</time></trkpt><trkpt lat="45.1007182" lon="8.430695"><ele>134.0</ele><time>2026-04-18T15:18:11.974Z</time></trkpt><trkpt lat="45.1005996" lon="8.4304953"><ele>134.33333333333331</ele><time>2026-04-18T15:18:12.972Z</time></trkpt><trkpt lat="45.1004943" lon="8.4302836"><ele>134.66666666666666</ele><time>2026-04-18T15:18:13.97Z</time></trkpt><trkpt lat="45.1004035" lon="8.4300674"><ele>135.0</ele><time>2026-04-18T15:18:14.972Z</time></trkpt><trkpt lat="45.1003254" lon="8.4298421"><ele>135.0</ele><time>2026-04-18T15:18:15.974Z</time></trkpt><trkpt lat="45.1002617" lon="8.4296095"><ele>135.0</ele><time>2026-04-18T15:18:16.965Z</time></trkpt><trkpt lat="45.1002155" lon="8.4293695"><ele>135.0</ele><time>2026-04-18T15:18:17.964Z</time></trkpt><trkpt lat="45.1001809" lon="8.4291222"><ele>135.0</ele><time>2026-04-18T15:18:18.967Z</time></trkpt><trkpt lat="45.1001571" lon="8.4288708"><ele>135.0</ele><time>2026-04-18T15:18:19.971Z</time></trkpt><trkpt lat="45.1001511" lon="8.4286112"><ele>135.0</ele><time>2026-04-18T15:18:20.964Z</time></trkpt><trkpt lat="45.100168" lon="8.4283504"><ele>135.66666666666666</ele><time>2026-04-18T15:18:21.974Z</time></trkpt><trkpt lat="45.100199" lon="8.4280851"><ele>136.33333333333331</ele><time>2026-04-18T15:18:22.963Z</time></trkpt><trkpt lat="45.1002385" lon="8.4278145"><ele>137.0</ele><time>2026-04-18T15:18:23.965Z</time></trkpt><trkpt lat="45.100285" lon="8.4275396"><ele>137.0</ele><time>2026-04-18T15:18:24.964Z</time></trkpt><trkpt lat="45.1003291" lon="8.4272617"><ele>137.0</ele><time>2026-04-18T15:18:25.97Z</time></trkpt><trkpt lat="45.1003737" lon="8.4269837"><ele>137.0</ele><time>2026-04-18T15:18:26.968Z</time></trkpt><trkpt lat="45.1004168" lon="8.4267063"><ele>136.66666666666666</ele><time>2026-04-18T15:18:27.961Z</time></trkpt><trkpt lat="45.1004601" lon="8.4264358"><ele>136.33333333333334</ele><time>2026-04-18T15:18:28.975Z</time></trkpt><trkpt lat="45.1005033" lon="8.4261601"><ele>136.0</ele><time>2026-04-18T15:18:29.974Z</time></trkpt><trkpt lat="45.1005476" lon="8.4258848"><ele>136.0</ele><time>2026-04-18T15:18:30.962Z</time></trkpt><trkpt lat="45.1005915" lon="8.4256074"><ele>136.0</ele><time>2026-04-18T15:18:31.964Z</time></trkpt><trkpt lat="45.1006342" lon="8.4253329"><ele>136.0</ele><time>2026-04-18T15:18:32.965Z</time></trkpt><trkpt lat="45.1006743" lon="8.4250607"><ele>136.66666666666669</ele><time>2026-04-18T15:18:33.968Z</time></trkpt><trkpt lat="45.1007131" lon="8.4247939"><ele>137.33333333333334</ele><time>2026-04-18T15:18:34.969Z</time></trkpt><trkpt lat="45.1007522" lon="8.4245309"><ele>138.0</ele><time>2026-04-18T15:18:35.963Z</time></trkpt><trkpt lat="45.1007911" lon="8.4242697"><ele>138.33333333333334</ele><time>2026-04-18T15:18:36.971Z</time></trkpt><trkpt lat="45.1008303" lon="8.4240132"><ele>138.66666666666669</ele><time>2026-04-18T15:18:37.959Z</time></trkpt><trkpt lat="45.1008712" lon="8.4237616"><ele>139.0</ele><time>2026-04-18T15:18:38.959Z</time></trkpt><trkpt lat="45.1009078" lon="8.4235154"><ele>139.0</ele><time>2026-04-18T15:18:39.965Z</time></trkpt><trkpt lat="45.1009454" lon="8.423277"><ele>139.0</ele><time>2026-04-18T15:18:40.961Z</time></trkpt><trkpt lat="45.1009823" lon="8.4230449"><ele>139.0</ele><time>2026-04-18T15:18:41.96Z</time></trkpt><trkpt lat="45.1010174" lon="8.4228204"><ele>139.0</ele><time>2026-04-18T15:18:42.963Z</time></trkpt><trkpt lat="45.1010517" lon="8.4226045"><ele>139.0</ele><time>2026-04-18T15:18:43.972Z</time></trkpt><trkpt lat="45.1010829" lon="8.4223985"><ele>139.0</ele><time>2026-04-18T15:18:44.971Z</time></trkpt><trkpt lat="45.1011123" lon="8.4222013"><ele>139.0</ele><time>2026-04-18T15:18:45.973Z</time></trkpt><trkpt lat="45.1011423" lon="8.4220026"><ele>139.0</ele><time>2026-04-18T15:18:46.965Z</time></trkpt><trkpt lat="45.1011708" lon="8.4218041"><ele>139.0</ele><time>2026-04-18T15:18:47.961Z</time></trkpt><trkpt lat="45.101202" lon="8.4216069"><ele>139.0</ele><time>2026-04-18T15:18:48.964Z</time></trkpt><trkpt lat="45.1012327" lon="8.4214146"><ele>139.0</ele><time>2026-04-18T15:18:49.962Z</time></trkpt><trkpt lat="45.1012629" lon="8.4212287"><ele>139.25</ele><time>2026-04-18T15:18:50.968Z</time></trkpt><trkpt lat="45.1012936" lon="8.4210483"><ele>139.5</ele><time>2026-04-18T15:18:51.965Z</time></trkpt><trkpt lat="45.101322" lon="8.4208706"><ele>139.75</ele><time>2026-04-18T15:18:52.965Z</time></trkpt><trkpt lat="45.1013497" lon="8.4206908"><ele>140.0</ele><time>2026-04-18T15:18:53.959Z</time></trkpt><trkpt lat="45.1013781" lon="8.4205142"><ele>140.0</ele><time>2026-04-18T15:18:54.96Z</time></trkpt><trkpt lat="45.1014072" lon="8.4203393"><ele>140.0</ele><time>2026-04-18T15:18:55.962Z</time></trkpt><trkpt lat="45.101434" lon="8.4201657"><ele>140.0</ele><time>2026-04-18T15:18:56.967Z</time></trkpt><trkpt lat="45.101462" lon="8.4199892"><ele>140.0</ele><time>2026-04-18T15:18:57.974Z</time></trkpt><trkpt lat="45.1014883" lon="8.4198096"><ele>140.5</ele><time>2026-04-18T15:18:58.962Z</time></trkpt><trkpt lat="45.1015169" lon="8.4196294"><ele>141.0</ele><time>2026-04-18T15:18:59.969Z</time></trkpt><trkpt lat="45.1015423" lon="8.4194502"><ele>141.5</ele><time>2026-04-18T15:19:00.964Z</time></trkpt><trkpt lat="45.1015691" lon="8.4192745"><ele>142.0</ele><time>2026-04-18T15:19:01.963Z</time></trkpt><trkpt lat="45.101597" lon="8.4190957"><ele>142.0</ele><time>2026-04-18T15:19:02.97Z</time></trkpt><trkpt lat="45.1016232" lon="8.4189171"><ele>142.0</ele><time>2026-04-18T15:19:03.959Z</time></trkpt><trkpt lat="45.1016489" lon="8.4187372"><ele>142.0</ele><time>2026-04-18T15:19:04.967Z</time></trkpt><trkpt lat="45.1016759" lon="8.4185493"><ele>142.0</ele><time>2026-04-18T15:19:05.959Z</time></trkpt><trkpt lat="45.101705" lon="8.4183581"><ele>142.0</ele><time>2026-04-18T15:19:06.975Z</time></trkpt><trkpt lat="45.1017336" lon="8.4181635"><ele>142.0</ele><time>2026-04-18T15:19:07.96Z</time></trkpt><trkpt lat="45.101764" lon="8.417965"><ele>142.0</ele><time>2026-04-18T15:19:08.969Z</time></trkpt><trkpt lat="45.1017953" lon="8.4177623"><ele>142.0</ele><time>2026-04-18T15:19:09.971Z</time></trkpt><trkpt lat="45.1018278" lon="8.4175568"><ele>142.5</ele><time>2026-04-18T15:19:10.975Z</time></trkpt><trkpt lat="45.1018594" lon="8.4173525"><ele>143.0</ele><time>2026-04-18T15:19:11.974Z</time></trkpt><trkpt lat="45.1018923" lon="8.4171459"><ele>143.5</ele><time>2026-04-18T15:19:12.964Z</time></trkpt><trkpt lat="45.1019246" lon="8.4169425"><ele>144.0</ele><time>2026-04-18T15:19:13.972Z</time></trkpt><trkpt lat="45.1019536" lon="8.4167428"><ele>144.0</ele><time>2026-04-18T15:19:14.973Z</time></trkpt><trkpt lat="45.1019784" lon="8.4165426"><ele>144.0</ele><time>2026-04-18T15:19:15.974Z</time></trkpt><trkpt lat="45.1019951" lon="8.4163432"><ele>144.0</ele><time>2026-04-18T15:19:16.969Z</time></trkpt><trkpt lat="45.102003" lon="8.4161469"><ele>144.0</ele><time>2026-04-18T15:19:17.965Z</time></trkpt><trkpt lat="45.1020008" lon="8.4159497"><ele>143.66666666666666</ele><time>2026-04-18T15:19:18.975Z</time></trkpt><trkpt lat="45.1019913" lon="8.415747"><ele>143.33333333333331</ele><time>2026-04-18T15:19:19.963Z</time></trkpt><trkpt lat="45.1019744" lon="8.4155337"><ele>143.0</ele><time>2026-04-18T15:19:20.974Z</time></trkpt><trkpt lat="45.1019507" lon="8.4152902"><ele>143.0</ele><time>2026-04-18T15:19:21.974Z</time></trkpt><trkpt lat="45.1019264" lon="8.4150232"><ele>143.0</ele><time>2026-04-18T15:19:22.975Z</time></trkpt><trkpt lat="45.1019108" lon="8.4147431"><ele>143.0</ele><time>2026-04-18T15:19:23.97Z</time></trkpt><trkpt lat="45.1018996" lon="8.4144636"><ele>144.33333333333331</ele><time>2026-04-18T15:19:24.975Z</time></trkpt><trkpt lat="45.101885" lon="8.414198"><ele>145.66666666666666</ele><time>2026-04-18T15:19:25.969Z</time></trkpt><trkpt lat="45.1018705" lon="8.4139439"><ele>147.0</ele><time>2026-04-18T15:19:26.96Z</time></trkpt><trkpt lat="45.1018555" lon="8.4137013"><ele>147.33333333333334</ele><time>2026-04-18T15:19:27.97Z</time></trkpt><trkpt lat="45.1018392" lon="8.4134708"><ele>147.66666666666669</ele><time>2026-04-18T15:19:28.969Z</time></trkpt><trkpt lat="45.1018243" lon="8.4132491"><ele>148.0</ele><time>2026-04-18T15:19:29.975Z</time></trkpt><trkpt lat="45.1018075" lon="8.413033"><ele>148.0</ele><time>2026-04-18T15:19:30.965Z</time></trkpt><trkpt lat="45.1017906" lon="8.4128212"><ele>148.0</ele><time>2026-04-18T15:19:31.966Z</time></trkpt><trkpt lat="45.1017758" lon="8.4126104"><ele>148.0</ele><time>2026-04-18T15:19:32.974Z</time></trkpt><trkpt lat="45.1017635" lon="8.4124025"><ele>148.0</ele><time>2026-04-18T15:19:33.967Z</time></trkpt><trkpt lat="45.1017501" lon="8.412199"><ele>148.5</ele><time>2026-04-18T15:19:34.974Z</time></trkpt><trkpt lat="45.1017362" lon="8.4119955"><ele>149.0</ele><time>2026-04-18T15:19:35.959Z</time></trkpt><trkpt lat="45.1017221" lon="8.4117933"><ele>149.5</ele><time>2026-04-18T15:19:36.974Z</time></trkpt><trkpt lat="45.1017084" lon="8.4115984"><ele>150.0</ele><time>2026-04-18T15:19:37.961Z</time></trkpt><trkpt lat="45.1016965" lon="8.4114062"><ele>150.25</ele><time>2026-04-18T15:19:38.974Z</time></trkpt><trkpt lat="45.1016862" lon="8.4112153"><ele>150.5</ele><time>2026-04-18T15:19:39.971Z</time></trkpt><trkpt lat="45.1016742" lon="8.4110261"><ele>150.75</ele><time>2026-04-18T15:19:40.971Z</time></trkpt><trkpt lat="45.1016604" lon="8.4108394"><ele>151.0</ele><time>2026-04-18T15:19:41.975Z</time></trkpt><trkpt lat="45.1016478" lon="8.4106578"><ele>151.0</ele><time>2026-04-18T15:19:42.975Z</time></trkpt><trkpt lat="45.101634" lon="8.4104773"><ele>151.0</ele><time>2026-04-18T15:19:43.975Z</time></trkpt><trkpt lat="45.1016186" lon="8.4102967"><ele>151.0</ele><time>2026-04-18T15:19:44.97Z</time></trkpt><trkpt lat="45.1016061" lon="8.4101112"><ele>151.0</ele><time>2026-04-18T15:19:45.974Z</time></trkpt><trkpt lat="45.1015895" lon="8.4099215"><ele>150.5</ele><time>2026-04-18T15:19:46.973Z</time></trkpt><trkpt lat="45.1015749" lon="8.4097249"><ele>150.0</ele><time>2026-04-18T15:19:47.963Z</time></trkpt><trkpt lat="45.1015595" lon="8.4095259"><ele>149.5</ele><time>2026-04-18T15:19:48.972Z</time></trkpt><trkpt lat="45.101545" lon="8.4093196"><ele>149.0</ele><time>2026-04-18T15:19:49.967Z</time></trkpt><trkpt lat="45.1015291" lon="8.4091029"><ele>149.0</ele><time>2026-04-18T15:19:50.965Z</time></trkpt><trkpt lat="45.1015149" lon="8.4088772"><ele>149.0</ele><time>2026-04-18T15:19:51.973Z</time></trkpt><trkpt lat="45.1014974" lon="8.4086363"><ele>149.0</ele><time>2026-04-18T15:19:52.969Z</time></trkpt><trkpt lat="45.1014777" lon="8.4083906"><ele>149.0</ele><time>2026-04-18T15:19:53.969Z</time></trkpt><trkpt lat="45.1014576" lon="8.408135"><ele>149.0</ele><time>2026-04-18T15:19:54.971Z</time></trkpt><trkpt lat="45.101438" lon="8.4078696"><ele>149.0</ele><time>2026-04-18T15:19:55.966Z</time></trkpt><trkpt lat="45.101422" lon="8.4075973"><ele>149.66666666666666</ele><time>2026-04-18T15:19:56.965Z</time></trkpt><trkpt lat="45.1014088" lon="8.407315"><ele>150.33333333333334</ele><time>2026-04-18T15:19:57.975Z</time></trkpt><trkpt lat="45.1013986" lon="8.4070283"><ele>151.0</ele><time>2026-04-18T15:19:58.971Z</time></trkpt><trkpt lat="45.1013997" lon="8.4067396"><ele>151.33333333333334</ele><time>2026-04-18T15:19:59.97Z</time></trkpt><trkpt lat="45.1014159" lon="8.4064475"><ele>151.66666666666666</ele><time>2026-04-18T15:20:00.974Z</time></trkpt><trkpt lat="45.1014501" lon="8.4061529"><ele>152.0</ele><time>2026-04-18T15:20:01.963Z</time></trkpt><trkpt lat="45.1015018" lon="8.4058598"><ele>152.0</ele><time>2026-04-18T15:20:02.972Z</time></trkpt><trkpt lat="45.1015663" lon="8.4055686"><ele>152.0</ele><time>2026-04-18T15:20:03.97Z</time></trkpt><trkpt lat="45.1016366" lon="8.405285"><ele>152.0</ele><time>2026-04-18T15:20:04.966Z</time></trkpt><trkpt lat="45.1017102" lon="8.4050071"><ele>152.0</ele><time>2026-04-18T15:20:05.969Z</time></trkpt><trkpt lat="45.101785" lon="8.4047322"><ele>152.0</ele><time>2026-04-18T15:20:06.974Z</time></trkpt><trkpt lat="45.1018597" lon="8.404456"><ele>152.0</ele><time>2026-04-18T15:20:07.971Z</time></trkpt><trkpt lat="45.1019354" lon="8.4041736"><ele>152.0</ele><time>2026-04-18T15:20:08.971Z</time></trkpt><trkpt lat="45.1020119" lon="8.4038845"><ele>152.0</ele><time>2026-04-18T15:20:09.97Z</time></trkpt><trkpt lat="45.1020927" lon="8.4035919"><ele>152.0</ele><time>2026-04-18T15:20:10.974Z</time></trkpt><trkpt lat="45.1021737" lon="8.4032912"><ele>152.0</ele><time>2026-04-18T15:20:11.968Z</time></trkpt><trkpt lat="45.1022532" lon="8.4029878"><ele>152.0</ele><time>2026-04-18T15:20:12.967Z</time></trkpt><trkpt lat="45.1023354" lon="8.4026792"><ele>154.0</ele><time>2026-04-18T15:20:13.969Z</time></trkpt><trkpt lat="45.1024173" lon="8.4023668"><ele>156.0</ele><time>2026-04-18T15:20:14.975Z</time></trkpt><trkpt lat="45.1025005" lon="8.4020534"><ele>156.0</ele><time>2026-04-18T15:20:15.968Z</time></trkpt><trkpt lat="45.1025824" lon="8.4017359"><ele>156.0</ele><time>2026-04-18T15:20:16.966Z</time></trkpt><trkpt lat="45.1026683" lon="8.4014189"><ele>156.0</ele><time>2026-04-18T15:20:17.967Z</time></trkpt><trkpt lat="45.1027542" lon="8.401099"><ele>156.0</ele><time>2026-04-18T15:20:18.968Z</time></trkpt><trkpt lat="45.1028395" lon="8.4007776"><ele>156.5</ele><time>2026-04-18T15:20:19.966Z</time></trkpt><trkpt lat="45.102924" lon="8.4004543"><ele>157.0</ele><time>2026-04-18T15:20:20.963Z</time></trkpt><trkpt lat="45.1030103" lon="8.4001294"><ele>157.0</ele><time>2026-04-18T15:20:21.973Z</time></trkpt><trkpt lat="45.1030968" lon="8.3998028"><ele>157.0</ele><time>2026-04-18T15:20:22.974Z</time></trkpt><trkpt lat="45.1031841" lon="8.3994765"><ele>159.0</ele><time>2026-04-18T15:20:23.965Z</time></trkpt><trkpt lat="45.1032725" lon="8.39915"><ele>161.0</ele><time>2026-04-18T15:20:24.964Z</time></trkpt><trkpt lat="45.1033586" lon="8.3988301"><ele>161.0</ele><time>2026-04-18T15:20:25.965Z</time></trkpt><trkpt lat="45.1034424" lon="8.3985124"><ele>161.0</ele><time>2026-04-18T15:20:26.963Z</time></trkpt><trkpt lat="45.1035255" lon="8.3981949"><ele>161.5</ele><time>2026-04-18T15:20:27.967Z</time></trkpt><trkpt lat="45.1036069" lon="8.3978836"><ele>162.0</ele><time>2026-04-18T15:20:28.969Z</time></trkpt><trkpt lat="45.1036915" lon="8.3975838"><ele>162.0</ele><time>2026-04-18T15:20:29.963Z</time></trkpt><trkpt lat="45.1037798" lon="8.397293"><ele>162.0</ele><time>2026-04-18T15:20:30.97Z</time></trkpt><trkpt lat="45.1038756" lon="8.3970107"><ele>162.0</ele><time>2026-04-18T15:20:31.971Z</time></trkpt><trkpt lat="45.1039766" lon="8.3967369"><ele>163.0</ele><time>2026-04-18T15:20:32.971Z</time></trkpt><trkpt lat="45.1040856" lon="8.3964705"><ele>164.0</ele><time>2026-04-18T15:20:33.974Z</time></trkpt><trkpt lat="45.1041974" lon="8.3962087"><ele>165.0</ele><time>2026-04-18T15:20:34.972Z</time></trkpt><trkpt lat="45.1043081" lon="8.3959435"><ele>165.0</ele><time>2026-04-18T15:20:35.97Z</time></trkpt><trkpt lat="45.104421" lon="8.3956801"><ele>165.0</ele><time>2026-04-18T15:20:36.963Z</time></trkpt><trkpt lat="45.1045334" lon="8.3954185"><ele>165.0</ele><time>2026-04-18T15:20:37.965Z</time></trkpt><trkpt lat="45.1046469" lon="8.3951548"><ele>165.0</ele><time>2026-04-18T15:20:38.969Z</time></trkpt><trkpt lat="45.1047594" lon="8.3948904"><ele>165.0</ele><time>2026-04-18T15:20:39.969Z</time></trkpt><trkpt lat="45.1048719" lon="8.3946225"><ele>165.0</ele><time>2026-04-18T15:20:40.974Z</time></trkpt><trkpt lat="45.1049846" lon="8.3943534"><ele>165.66666666666666</ele><time>2026-04-18T15:20:41.965Z</time></trkpt><trkpt lat="45.1050993" lon="8.3940839"><ele>166.33333333333331</ele><time>2026-04-18T15:20:42.969Z</time></trkpt><trkpt lat="45.1052196" lon="8.3938126"><ele>167.0</ele><time>2026-04-18T15:20:43.973Z</time></trkpt><trkpt lat="45.105338" lon="8.3935395"><ele>169.5</ele><time>2026-04-18T15:20:44.965Z</time></trkpt><trkpt lat="45.1054581" lon="8.3932604"><ele>172.0</ele><time>2026-04-18T15:20:45.968Z</time></trkpt><trkpt lat="45.105579" lon="8.3929807"><ele>172.66666666666669</ele><time>2026-04-18T15:20:46.966Z</time></trkpt><trkpt lat="45.1056946" lon="8.3927076"><ele>173.33333333333334</ele><time>2026-04-18T15:20:47.967Z</time></trkpt><trkpt lat="45.1058066" lon="8.3924441"><ele>174.0</ele><time>2026-04-18T15:20:48.971Z</time></trkpt><trkpt lat="45.1059183" lon="8.3921849"><ele>176.33333333333334</ele><time>2026-04-18T15:20:49.974Z</time></trkpt><trkpt lat="45.1060288" lon="8.3919246"><ele>178.66666666666669</ele><time>2026-04-18T15:20:50.97Z</time></trkpt><trkpt lat="45.106138" lon="8.3916683"><ele>181.0</ele><time>2026-04-18T15:20:51.974Z</time></trkpt><trkpt lat="45.1062437" lon="8.3914127"><ele>184.0</ele><time>2026-04-18T15:20:52.966Z</time></trkpt><trkpt lat="45.1063497" lon="8.3911612"><ele>187.0</ele><time>2026-04-18T15:20:53.97Z</time></trkpt><trkpt lat="45.1064502" lon="8.390919"><ele>190.0</ele><time>2026-04-18T15:20:54.967Z</time></trkpt><trkpt lat="45.1065467" lon="8.3906882"><ele>190.66666666666669</ele><time>2026-04-18T15:20:55.972Z</time></trkpt><trkpt lat="45.1066417" lon="8.3904709"><ele>191.33333333333334</ele><time>2026-04-18T15:20:56.972Z</time></trkpt><trkpt lat="45.1067299" lon="8.390258"><ele>192.0</ele><time>2026-04-18T15:20:57.968Z</time></trkpt><trkpt lat="45.1068202" lon="8.3900501"><ele>192.0</ele><time>2026-04-18T15:20:58.968Z</time></trkpt><trkpt lat="45.1069117" lon="8.3898448"><ele>192.0</ele><time>2026-04-18T15:20:59.968Z</time></trkpt><trkpt lat="45.1070003" lon="8.3896417"><ele>192.0</ele><time>2026-04-18T15:21:00.962Z</time></trkpt><trkpt lat="45.1070884" lon="8.3894465"><ele>196.0</ele><time>2026-04-18T15:21:01.971Z</time></trkpt><trkpt lat="45.1071725" lon="8.3892601"><ele>200.0</ele><time>2026-04-18T15:21:02.974Z</time></trkpt><trkpt lat="45.1072488" lon="8.3890839"><ele>204.0</ele><time>2026-04-18T15:21:03.97Z</time></trkpt><trkpt lat="45.1073217" lon="8.388915"><ele>208.0</ele><time>2026-04-18T15:21:04.971Z</time></trkpt><trkpt lat="45.1073987" lon="8.3887437"><ele>206.5</ele><time>2026-04-18T15:21:05.969Z</time></trkpt><trkpt lat="45.1074797" lon="8.3885804"><ele>205.0</ele><time>2026-04-18T15:21:06.975Z</time></trkpt><trkpt lat="45.1075697" lon="8.3884217"><ele>203.5</ele><time>2026-04-18T15:21:07.97Z</time></trkpt><trkpt lat="45.1076721" lon="8.3882697"><ele>202.0</ele><time>2026-04-18T15:21:08.967Z</time></trkpt><trkpt lat="45.1077854" lon="8.388123"><ele>203.66666666666666</ele><time>2026-04-18T15:21:09.968Z</time></trkpt><trkpt lat="45.1079038" lon="8.3879743"><ele>205.33333333333331</ele><time>2026-04-18T15:21:10.968Z</time></trkpt><trkpt lat="45.1080258" lon="8.3878226"><ele>207.0</ele><time>2026-04-18T15:21:11.975Z</time></trkpt><trkpt lat="45.1081508" lon="8.3876672"><ele>207.0</ele><time>2026-04-18T15:21:12.972Z</time></trkpt><trkpt lat="45.1082767" lon="8.3875123"><ele>207.0</ele><time>2026-04-18T15:21:13.975Z</time></trkpt><trkpt lat="45.1084029" lon="8.3873523"><ele>207.0</ele><time>2026-04-18T15:21:14.973Z</time></trkpt><trkpt lat="45.1085318" lon="8.3871937"><ele>207.0</ele><time>2026-04-18T15:21:15.97Z</time></trkpt><trkpt lat="45.108657" lon="8.3870368"><ele>207.0</ele><time>2026-04-18T15:21:16.968Z</time></trkpt><trkpt lat="45.1087852" lon="8.3868812"><ele>207.0</ele><time>2026-04-18T15:21:17.968Z</time></trkpt><trkpt lat="45.1089085" lon="8.386724"><ele>207.0</ele><time>2026-04-18T15:21:18.969Z</time></trkpt><trkpt lat="45.1090241" lon="8.3865556"><ele>207.0</ele><time>2026-04-18T15:21:19.968Z</time></trkpt><trkpt lat="45.1091217" lon="8.386372"><ele>207.0</ele><time>2026-04-18T15:21:20.968Z</time></trkpt><trkpt lat="45.1092014" lon="8.3861666"><ele>210.33333333333331</ele><time>2026-04-18T15:21:21.973Z</time></trkpt><trkpt lat="45.1092594" lon="8.3859426"><ele>213.66666666666666</ele><time>2026-04-18T15:21:22.972Z</time></trkpt><trkpt lat="45.1092967" lon="8.3857062"><ele>217.0</ele><time>2026-04-18T15:21:23.974Z</time></trkpt><trkpt lat="45.1093103" lon="8.3854621"><ele>219.0</ele><time>2026-04-18T15:21:24.964Z</time></trkpt><trkpt lat="45.1093101" lon="8.3852144"><ele>221.0</ele><time>2026-04-18T15:21:25.969Z</time></trkpt><trkpt lat="45.1093013" lon="8.3849651"><ele>223.0</ele><time>2026-04-18T15:21:26.975Z</time></trkpt><trkpt lat="45.1092857" lon="8.3847197"><ele>223.66666666666666</ele><time>2026-04-18T15:21:27.97Z</time></trkpt><trkpt lat="45.1092548" lon="8.3844716"><ele>224.33333333333331</ele><time>2026-04-18T15:21:28.97Z</time></trkpt><trkpt lat="45.1092061" lon="8.3842311"><ele>225.0</ele><time>2026-04-18T15:21:29.975Z</time></trkpt><trkpt lat="45.1091413" lon="8.3839956"><ele>224.0</ele><time>2026-04-18T15:21:30.97Z</time></trkpt><trkpt lat="45.1090695" lon="8.3837695"><ele>223.0</ele><time>2026-04-18T15:21:31.971Z</time></trkpt><trkpt lat="45.1089989" lon="8.3835455"><ele>222.0</ele><time>2026-04-18T15:21:32.973Z</time></trkpt><trkpt lat="45.1089283" lon="8.3833262"><ele>222.0</ele><time>2026-04-18T15:21:33.97Z</time></trkpt><trkpt lat="45.1088571" lon="8.3831092"><ele>222.0</ele><time>2026-04-18T15:21:34.973Z</time></trkpt><trkpt lat="45.1087841" lon="8.3828895"><ele>222.0</ele><time>2026-04-18T15:21:35.971Z</time></trkpt><trkpt lat="45.1087132" lon="8.3826676"><ele>219.66666666666669</ele><time>2026-04-18T15:21:36.966Z</time></trkpt><trkpt lat="45.1086399" lon="8.3824413"><ele>217.33333333333334</ele><time>2026-04-18T15:21:37.971Z</time></trkpt><trkpt lat="45.1085642" lon="8.3822137"><ele>215.0</ele><time>2026-04-18T15:21:38.966Z</time></trkpt><trkpt lat="45.1084915" lon="8.3819844"><ele>212.66666666666669</ele><time>2026-04-18T15:21:39.969Z</time></trkpt><trkpt lat="45.1084171" lon="8.3817546"><ele>210.33333333333331</ele><time>2026-04-18T15:21:40.974Z</time></trkpt><trkpt lat="45.1083443" lon="8.3815286"><ele>208.0</ele><time>2026-04-18T15:21:41.975Z</time></trkpt><trkpt lat="45.108272" lon="8.3813078"><ele>207.66666666666666</ele><time>2026-04-18T15:21:42.974Z</time></trkpt><trkpt lat="45.1082005" lon="8.3810893"><ele>207.33333333333331</ele><time>2026-04-18T15:21:43.974Z</time></trkpt><trkpt lat="45.1081291" lon="8.3808715"><ele>207.0</ele><time>2026-04-18T15:21:44.966Z</time></trkpt><trkpt lat="45.1080596" lon="8.3806601"><ele>204.66666666666669</ele><time>2026-04-18T15:21:45.971Z</time></trkpt><trkpt lat="45.1079915" lon="8.3804572"><ele>202.33333333333334</ele><time>2026-04-18T15:21:46.968Z</time></trkpt><trkpt lat="45.1079272" lon="8.3802596"><ele>200.0</ele><time>2026-04-18T15:21:47.967Z</time></trkpt><trkpt lat="45.1078635" lon="8.3800631"><ele>200.0</ele><time>2026-04-18T15:21:48.973Z</time></trkpt><trkpt lat="45.1077978" lon="8.3798683"><ele>200.0</ele><time>2026-04-18T15:21:49.973Z</time></trkpt><trkpt lat="45.1077338" lon="8.3796723"><ele>200.0</ele><time>2026-04-18T15:21:50.967Z</time></trkpt><trkpt lat="45.1076678" lon="8.3794775"><ele>197.66666666666669</ele><time>2026-04-18T15:21:51.971Z</time></trkpt><trkpt lat="45.107601" lon="8.3792793"><ele>195.33333333333331</ele><time>2026-04-18T15:21:52.969Z</time></trkpt><trkpt lat="45.1075328" lon="8.3790723"><ele>193.0</ele><time>2026-04-18T15:21:53.967Z</time></trkpt><trkpt lat="45.107463" lon="8.3788627"><ele>191.66666666666666</ele><time>2026-04-18T15:21:54.963Z</time></trkpt><trkpt lat="45.1073923" lon="8.3786483"><ele>190.33333333333331</ele><time>2026-04-18T15:21:55.969Z</time></trkpt><trkpt lat="45.1073244" lon="8.3784308"><ele>189.0</ele><time>2026-04-18T15:21:56.968Z</time></trkpt><trkpt lat="45.1072598" lon="8.378214"><ele>186.0</ele><time>2026-04-18T15:21:57.964Z</time></trkpt><trkpt lat="45.107202" lon="8.3779961"><ele>183.0</ele><time>2026-04-18T15:21:58.966Z</time></trkpt><trkpt lat="45.1071553" lon="8.3777733"><ele>180.0</ele><time>2026-04-18T15:21:59.966Z</time></trkpt><trkpt lat="45.1071247" lon="8.3775455"><ele>180.0</ele><time>2026-04-18T15:22:00.972Z</time></trkpt><trkpt lat="45.1071102" lon="8.3773182"><ele>180.0</ele><time>2026-04-18T15:22:01.975Z</time></trkpt><trkpt lat="45.1071059" lon="8.3770914"><ele>180.0</ele><time>2026-04-18T15:22:02.969Z</time></trkpt><trkpt lat="45.1071151" lon="8.3768692"><ele>179.0</ele><time>2026-04-18T15:22:03.969Z</time></trkpt><trkpt lat="45.1071228" lon="8.3766479"><ele>178.0</ele><time>2026-04-18T15:22:04.972Z</time></trkpt><trkpt lat="45.1071284" lon="8.3764255"><ele>177.0</ele><time>2026-04-18T15:22:05.971Z</time></trkpt><trkpt lat="45.1071332" lon="8.3762037"><ele>176.66666666666666</ele><time>2026-04-18T15:22:06.966Z</time></trkpt><trkpt lat="45.1071376" lon="8.375985"><ele>176.33333333333331</ele><time>2026-04-18T15:22:07.964Z</time></trkpt><trkpt lat="45.1071423" lon="8.3757708"><ele>176.0</ele><time>2026-04-18T15:22:08.974Z</time></trkpt><trkpt lat="45.1071454" lon="8.3755591"><ele>176.25</ele><time>2026-04-18T15:22:09.966Z</time></trkpt><trkpt lat="45.107152" lon="8.3753535"><ele>176.5</ele><time>2026-04-18T15:22:10.974Z</time></trkpt><trkpt lat="45.1071565" lon="8.3751596"><ele>176.75</ele><time>2026-04-18T15:22:11.965Z</time></trkpt><trkpt lat="45.107161" lon="8.3749797"><ele>177.0</ele><time>2026-04-18T15:22:12.968Z</time></trkpt><trkpt lat="45.1071659" lon="8.3748128"><ele>177.6</ele><time>2026-04-18T15:22:13.965Z</time></trkpt><trkpt lat="45.1071699" lon="8.3746555"><ele>178.2</ele><time>2026-04-18T15:22:14.968Z</time></trkpt><trkpt lat="45.1071723" lon="8.3744995"><ele>178.8</ele><time>2026-04-18T15:22:15.962Z</time></trkpt><trkpt lat="45.1071755" lon="8.3743411"><ele>179.4</ele><time>2026-04-18T15:22:16.975Z</time></trkpt><trkpt lat="45.1071805" lon="8.3741806"><ele>180.0</ele><time>2026-04-18T15:22:17.964Z</time></trkpt><trkpt lat="45.1071842" lon="8.3740207"><ele>180.0</ele><time>2026-04-18T15:22:18.97Z</time></trkpt><trkpt lat="45.1071872" lon="8.3738634"><ele>180.0</ele><time>2026-04-18T15:22:19.969Z</time></trkpt><trkpt lat="45.1071883" lon="8.373711"><ele>180.0</ele><time>2026-04-18T15:22:20.968Z</time></trkpt><trkpt lat="45.107189" lon="8.3735575"><ele>180.0</ele><time>2026-04-18T15:22:21.967Z</time></trkpt><trkpt lat="45.1071894" lon="8.373399"><ele>180.0</ele><time>2026-04-18T15:22:22.963Z</time></trkpt><trkpt lat="45.1071931" lon="8.3732401"><ele>179.75</ele><time>2026-04-18T15:22:23.968Z</time></trkpt><trkpt lat="45.107197" lon="8.3730774"><ele>179.5</ele><time>2026-04-18T15:22:24.966Z</time></trkpt><trkpt lat="45.1071996" lon="8.3729124"><ele>179.25</ele><time>2026-04-18T15:22:25.964Z</time></trkpt><trkpt lat="45.1072039" lon="8.3727439"><ele>179.0</ele><time>2026-04-18T15:22:26.969Z</time></trkpt><trkpt lat="45.1072089" lon="8.3725768"><ele>179.0</ele><time>2026-04-18T15:22:27.97Z</time></trkpt><trkpt lat="45.1072126" lon="8.372408"><ele>179.0</ele><time>2026-04-18T15:22:28.969Z</time></trkpt><trkpt lat="45.1072164" lon="8.3722349"><ele>179.0</ele><time>2026-04-18T15:22:29.967Z</time></trkpt><trkpt lat="45.1072199" lon="8.3720639"><ele>179.0</ele><time>2026-04-18T15:22:30.973Z</time></trkpt><trkpt lat="45.1072232" lon="8.3718925"><ele>177.5</ele><time>2026-04-18T15:22:31.974Z</time></trkpt><trkpt lat="45.1072249" lon="8.3717169"><ele>176.0</ele><time>2026-04-18T15:22:32.97Z</time></trkpt><trkpt lat="45.1072287" lon="8.3715355"><ele>174.5</ele><time>2026-04-18T15:22:33.969Z</time></trkpt><trkpt lat="45.1072313" lon="8.3713563"><ele>173.0</ele><time>2026-04-18T15:22:34.974Z</time></trkpt><trkpt lat="45.1072354" lon="8.3711756"><ele>173.25</ele><time>2026-04-18T15:22:35.968Z</time></trkpt><trkpt lat="45.1072379" lon="8.3709886"><ele>173.5</ele><time>2026-04-18T15:22:36.97Z</time></trkpt><trkpt lat="45.1072415" lon="8.3707998"><ele>173.75</ele><time>2026-04-18T15:22:37.968Z</time></trkpt><trkpt lat="45.1072451" lon="8.3706099"><ele>174.0</ele><time>2026-04-18T15:22:38.971Z</time></trkpt><trkpt lat="45.1072529" lon="8.3704213"><ele>174.0</ele><time>2026-04-18T15:22:39.967Z</time></trkpt><trkpt lat="45.1072578" lon="8.3702272"><ele>174.0</ele><time>2026-04-18T15:22:40.97Z</time></trkpt><trkpt lat="45.1072598" lon="8.3700316"><ele>174.0</ele><time>2026-04-18T15:22:41.968Z</time></trkpt><trkpt lat="45.1072647" lon="8.3698328"><ele>174.0</ele><time>2026-04-18T15:22:42.974Z</time></trkpt><trkpt lat="45.1072684" lon="8.3696345"><ele>175.5</ele><time>2026-04-18T15:22:43.974Z</time></trkpt><trkpt lat="45.1072721" lon="8.3694367"><ele>177.0</ele><time>2026-04-18T15:22:44.972Z</time></trkpt><trkpt lat="45.1072781" lon="8.369238"><ele>178.5</ele><time>2026-04-18T15:22:45.969Z</time></trkpt><trkpt lat="45.1072825" lon="8.3690396"><ele>180.0</ele><time>2026-04-18T15:22:46.967Z</time></trkpt><trkpt lat="45.1072879" lon="8.3688387"><ele>180.0</ele><time>2026-04-18T15:22:47.974Z</time></trkpt><trkpt lat="45.1072931" lon="8.3686364"><ele>180.0</ele><time>2026-04-18T15:22:48.963Z</time></trkpt><trkpt lat="45.1072985" lon="8.3684326"><ele>180.0</ele><time>2026-04-18T15:22:49.962Z</time></trkpt><trkpt lat="45.1073014" lon="8.3682312"><ele>180.0</ele><time>2026-04-18T15:22:50.969Z</time></trkpt><trkpt lat="45.1073038" lon="8.3680362"><ele>179.25</ele><time>2026-04-18T15:22:51.974Z</time></trkpt><trkpt lat="45.1073085" lon="8.3678412"><ele>178.5</ele><time>2026-04-18T15:22:52.965Z</time></trkpt><trkpt lat="45.1073149" lon="8.3676403"><ele>177.75</ele><time>2026-04-18T15:22:53.971Z</time></trkpt><trkpt lat="45.1073181" lon="8.3674394"><ele>177.0</ele><time>2026-04-18T15:22:54.968Z</time></trkpt><trkpt lat="45.1073227" lon="8.3672359"><ele>175.25</ele><time>2026-04-18T15:22:55.973Z</time></trkpt><trkpt lat="45.1073278" lon="8.3670347"><ele>173.5</ele><time>2026-04-18T15:22:56.962Z</time></trkpt><trkpt lat="45.1073336" lon="8.3668413"><ele>171.75</ele><time>2026-04-18T15:22:57.973Z</time></trkpt><trkpt lat="45.1073358" lon="8.3666526"><ele>170.0</ele><time>2026-04-18T15:22:58.971Z</time></trkpt><trkpt lat="45.1073383" lon="8.3664638"><ele>168.25</ele><time>2026-04-18T15:22:59.969Z</time></trkpt><trkpt lat="45.1073417" lon="8.3662777"><ele>166.5</ele><time>2026-04-18T15:23:00.972Z</time></trkpt><trkpt lat="45.107344" lon="8.3660929"><ele>164.75</ele><time>2026-04-18T15:23:01.967Z</time></trkpt><trkpt lat="45.107348" lon="8.3659139"><ele>163.0</ele><time>2026-04-18T15:23:02.964Z</time></trkpt><trkpt lat="45.1073506" lon="8.3657375"><ele>163.0</ele><time>2026-04-18T15:23:03.966Z</time></trkpt><trkpt lat="45.1073537" lon="8.3655664"><ele>163.0</ele><time>2026-04-18T15:23:04.963Z</time></trkpt><trkpt lat="45.1073577" lon="8.3653953"><ele>163.0</ele><time>2026-04-18T15:23:05.974Z</time></trkpt><trkpt lat="45.1073635" lon="8.3652241"><ele>163.0</ele><time>2026-04-18T15:23:06.96Z</time></trkpt><trkpt lat="45.107367" lon="8.3650599"><ele>162.5</ele><time>2026-04-18T15:23:07.975Z</time></trkpt><trkpt lat="45.10737" lon="8.3648987"><ele>162.0</ele><time>2026-04-18T15:23:08.968Z</time></trkpt><trkpt lat="45.1073736" lon="8.3647402"><ele>161.5</ele><time>2026-04-18T15:23:09.961Z</time></trkpt><trkpt lat="45.10738" lon="8.3645811"><ele>161.0</ele><time>2026-04-18T15:23:10.963Z</time></trkpt><trkpt lat="45.1073854" lon="8.3644191"><ele>161.0</ele><time>2026-04-18T15:23:11.965Z</time></trkpt><trkpt lat="45.1073891" lon="8.3642539"><ele>161.0</ele><time>2026-04-18T15:23:12.971Z</time></trkpt><trkpt lat="45.1073925" lon="8.3640812"><ele>161.0</ele><time>2026-04-18T15:23:13.968Z</time></trkpt><trkpt lat="45.1073967" lon="8.3639042"><ele>161.0</ele><time>2026-04-18T15:23:14.96Z</time></trkpt><trkpt lat="45.1073997" lon="8.3637239"><ele>161.0</ele><time>2026-04-18T15:23:15.965Z</time></trkpt><trkpt lat="45.107403" lon="8.3635465"><ele>161.0</ele><time>2026-04-18T15:23:16.969Z</time></trkpt><trkpt lat="45.1074054" lon="8.3633736"><ele>161.0</ele><time>2026-04-18T15:23:17.962Z</time></trkpt><trkpt lat="45.1074088" lon="8.3632046"><ele>161.0</ele><time>2026-04-18T15:23:18.969Z</time></trkpt><trkpt lat="45.1074083" lon="8.363039"><ele>160.75</ele><time>2026-04-18T15:23:19.964Z</time></trkpt><trkpt lat="45.10741" lon="8.3628726"><ele>160.5</ele><time>2026-04-18T15:23:20.963Z</time></trkpt><trkpt lat="45.1074139" lon="8.3627111"><ele>160.25</ele><time>2026-04-18T15:23:21.961Z</time></trkpt><trkpt lat="45.107416" lon="8.3625457"><ele>160.0</ele><time>2026-04-18T15:23:22.97Z</time></trkpt><trkpt lat="45.1074194" lon="8.362378"><ele>159.6</ele><time>2026-04-18T15:23:23.963Z</time></trkpt><trkpt lat="45.1074238" lon="8.3622121"><ele>159.2</ele><time>2026-04-18T15:23:24.966Z</time></trkpt><trkpt lat="45.1074298" lon="8.3620499"><ele>158.8</ele><time>2026-04-18T15:23:25.963Z</time></trkpt><trkpt lat="45.1074356" lon="8.3618941"><ele>158.4</ele><time>2026-04-18T15:23:26.966Z</time></trkpt><trkpt lat="45.1074355" lon="8.3617549"><ele>158.0</ele><time>2026-04-18T15:23:27.964Z</time></trkpt><trkpt lat="45.107434" lon="8.3616252"><ele>157.6</ele><time>2026-04-18T15:23:28.975Z</time></trkpt><trkpt lat="45.1074368" lon="8.361499"><ele>157.20000000000002</ele><time>2026-04-18T15:23:29.967Z</time></trkpt><trkpt lat="45.1074445" lon="8.3613643"><ele>156.8</ele><time>2026-04-18T15:23:30.967Z</time></trkpt><trkpt lat="45.1074524" lon="8.3612142"><ele>156.4</ele><time>2026-04-18T15:23:31.963Z</time></trkpt><trkpt lat="45.1074557" lon="8.3610532"><ele>156.0</ele><time>2026-04-18T15:23:32.968Z</time></trkpt><trkpt lat="45.1074583" lon="8.3608817"><ele>156.0</ele><time>2026-04-18T15:23:33.963Z</time></trkpt><trkpt lat="45.1074658" lon="8.3607065"><ele>156.0</ele><time>2026-04-18T15:23:34.964Z</time></trkpt><trkpt lat="45.1074719" lon="8.360531"><ele>156.0</ele><time>2026-04-18T15:23:35.968Z</time></trkpt><trkpt lat="45.1074793" lon="8.3603591"><ele>156.0</ele><time>2026-04-18T15:23:36.974Z</time></trkpt><trkpt lat="45.107483" lon="8.3601896"><ele>156.0</ele><time>2026-04-18T15:23:37.968Z</time></trkpt><trkpt lat="45.1074876" lon="8.360022"><ele>156.0</ele><time>2026-04-18T15:23:38.974Z</time></trkpt><trkpt lat="45.1074924" lon="8.3598508"><ele>156.0</ele><time>2026-04-18T15:23:39.965Z</time></trkpt><trkpt lat="45.1074968" lon="8.3596813"><ele>156.0</ele><time>2026-04-18T15:23:40.965Z</time></trkpt><trkpt lat="45.1074998" lon="8.359513"><ele>156.0</ele><time>2026-04-18T15:23:41.967Z</time></trkpt><trkpt lat="45.107505" lon="8.3593447"><ele>156.0</ele><time>2026-04-18T15:23:42.974Z</time></trkpt><trkpt lat="45.1075095" lon="8.3591761"><ele>156.0</ele><time>2026-04-18T15:23:43.975Z</time></trkpt><trkpt lat="45.1075128" lon="8.3589956"><ele>156.0</ele><time>2026-04-18T15:23:44.974Z</time></trkpt><trkpt lat="45.1075154" lon="8.3587996"><ele>156.0</ele><time>2026-04-18T15:23:45.968Z</time></trkpt><trkpt lat="45.1075188" lon="8.3585861"><ele>156.0</ele><time>2026-04-18T15:23:46.975Z</time></trkpt><trkpt lat="45.1075243" lon="8.3583582"><ele>156.0</ele><time>2026-04-18T15:23:47.963Z</time></trkpt><trkpt lat="45.1075289" lon="8.3581151"><ele>156.0</ele><time>2026-04-18T15:23:48.964Z</time></trkpt><trkpt lat="45.1075364" lon="8.3578573"><ele>156.0</ele><time>2026-04-18T15:23:49.964Z</time></trkpt><trkpt lat="45.1075424" lon="8.3575853"><ele>156.0</ele><time>2026-04-18T15:23:50.974Z</time></trkpt><trkpt lat="45.1075512" lon="8.3573"><ele>156.0</ele><time>2026-04-18T15:23:51.974Z</time></trkpt><trkpt lat="45.1075591" lon="8.3570078"><ele>156.0</ele><time>2026-04-18T15:23:52.966Z</time></trkpt><trkpt lat="45.1075666" lon="8.3567106"><ele>156.0</ele><time>2026-04-18T15:23:53.961Z</time></trkpt><trkpt lat="45.1075729" lon="8.3564183"><ele>155.33333333333334</ele><time>2026-04-18T15:23:54.965Z</time></trkpt><trkpt lat="45.1075804" lon="8.3561317"><ele>154.66666666666669</ele><time>2026-04-18T15:23:55.966Z</time></trkpt><trkpt lat="45.1075853" lon="8.3558534"><ele>154.0</ele><time>2026-04-18T15:23:56.969Z</time></trkpt><trkpt lat="45.1075892" lon="8.3555787"><ele>154.0</ele><time>2026-04-18T15:23:57.966Z</time></trkpt><trkpt lat="45.1075898" lon="8.355306"><ele>154.0</ele><time>2026-04-18T15:23:58.971Z</time></trkpt><trkpt lat="45.1075878" lon="8.355023"><ele>154.0</ele><time>2026-04-18T15:23:59.968Z</time></trkpt><trkpt lat="45.1075882" lon="8.3547127"><ele>154.0</ele><time>2026-04-18T15:24:00.975Z</time></trkpt><trkpt lat="45.1076004" lon="8.3543936"><ele>154.0</ele><time>2026-04-18T15:24:01.975Z</time></trkpt><trkpt lat="45.1076183" lon="8.3540812"><ele>154.0</ele><time>2026-04-18T15:24:02.968Z</time></trkpt><trkpt lat="45.1076313" lon="8.3537707"><ele>153.66666666666669</ele><time>2026-04-18T15:24:03.97Z</time></trkpt><trkpt lat="45.1076417" lon="8.3534597"><ele>153.33333333333334</ele><time>2026-04-18T15:24:04.974Z</time></trkpt><trkpt lat="45.1076474" lon="8.353144"><ele>153.0</ele><time>2026-04-18T15:24:05.968Z</time></trkpt><trkpt lat="45.1076529" lon="8.3528303"><ele>153.0</ele><time>2026-04-18T15:24:06.971Z</time></trkpt><trkpt lat="45.1076587" lon="8.3525133"><ele>153.0</ele><time>2026-04-18T15:24:07.974Z</time></trkpt><trkpt lat="45.1076641" lon="8.352194"><ele>153.0</ele><time>2026-04-18T15:24:08.97Z</time></trkpt><trkpt lat="45.1076712" lon="8.3518696"><ele>152.5</ele><time>2026-04-18T15:24:09.973Z</time></trkpt><trkpt lat="45.1076784" lon="8.3515428"><ele>152.0</ele><time>2026-04-18T15:24:10.974Z</time></trkpt><trkpt lat="45.1076872" lon="8.3512122"><ele>152.0</ele><time>2026-04-18T15:24:11.971Z</time></trkpt><trkpt lat="45.1076937" lon="8.3508794"><ele>152.0</ele><time>2026-04-18T15:24:12.966Z</time></trkpt><trkpt lat="45.1077006" lon="8.3505427"><ele>151.5</ele><time>2026-04-18T15:24:13.969Z</time></trkpt><trkpt lat="45.107709" lon="8.3502034"><ele>151.0</ele><time>2026-04-18T15:24:14.974Z</time></trkpt><trkpt lat="45.1077161" lon="8.3498582"><ele>151.0</ele><time>2026-04-18T15:24:15.974Z</time></trkpt><trkpt lat="45.1077231" lon="8.3495111"><ele>151.0</ele><time>2026-04-18T15:24:16.974Z</time></trkpt><trkpt lat="45.1077303" lon="8.3491631"><ele>150.5</ele><time>2026-04-18T15:24:17.975Z</time></trkpt><trkpt lat="45.1077397" lon="8.3488153"><ele>150.0</ele><time>2026-04-18T15:24:18.97Z</time></trkpt><trkpt lat="45.1077473" lon="8.3484659"><ele>150.0</ele><time>2026-04-18T15:24:19.975Z</time></trkpt><trkpt lat="45.1077534" lon="8.3481148"><ele>150.0</ele><time>2026-04-18T15:24:20.97Z</time></trkpt><trkpt lat="45.1077592" lon="8.3477645"><ele>150.0</ele><time>2026-04-18T15:24:21.973Z</time></trkpt><trkpt lat="45.1077654" lon="8.3474165"><ele>150.0</ele><time>2026-04-18T15:24:22.966Z</time></trkpt><trkpt lat="45.1077718" lon="8.3470647"><ele>149.5</ele><time>2026-04-18T15:24:23.97Z</time></trkpt><trkpt lat="45.1077782" lon="8.3467126"><ele>149.0</ele><time>2026-04-18T15:24:24.97Z</time></trkpt><trkpt lat="45.1077841" lon="8.3463695"><ele>147.0</ele><time>2026-04-18T15:24:25.972Z</time></trkpt><trkpt lat="45.1077897" lon="8.3460321"><ele>145.0</ele><time>2026-04-18T15:24:26.967Z</time></trkpt><trkpt lat="45.1077958" lon="8.3456967"><ele>144.5</ele><time>2026-04-18T15:24:27.973Z</time></trkpt><trkpt lat="45.1078038" lon="8.3453704"><ele>144.0</ele><time>2026-04-18T15:24:28.969Z</time></trkpt><trkpt lat="45.107811" lon="8.3450499"><ele>144.0</ele><time>2026-04-18T15:24:29.965Z</time></trkpt><trkpt lat="45.1078181" lon="8.3447296"><ele>144.0</ele><time>2026-04-18T15:24:30.967Z</time></trkpt><trkpt lat="45.107825" lon="8.3444135"><ele>144.0</ele><time>2026-04-18T15:24:31.974Z</time></trkpt><trkpt lat="45.1078305" lon="8.3441015"><ele>143.33333333333334</ele><time>2026-04-18T15:24:32.966Z</time></trkpt><trkpt lat="45.1078376" lon="8.3437908"><ele>142.66666666666669</ele><time>2026-04-18T15:24:33.968Z</time></trkpt><trkpt lat="45.1078453" lon="8.3434826"><ele>142.0</ele><time>2026-04-18T15:24:34.969Z</time></trkpt><trkpt lat="45.1078529" lon="8.3431818"><ele>142.33333333333334</ele><time>2026-04-18T15:24:35.97Z</time></trkpt><trkpt lat="45.1078595" lon="8.3428864"><ele>142.66666666666666</ele><time>2026-04-18T15:24:36.971Z</time></trkpt><trkpt lat="45.1078672" lon="8.3425939"><ele>143.0</ele><time>2026-04-18T15:24:37.969Z</time></trkpt><trkpt lat="45.1078747" lon="8.3423072"><ele>143.0</ele><time>2026-04-18T15:24:38.97Z</time></trkpt><trkpt lat="45.1078809" lon="8.3420233"><ele>143.0</ele><time>2026-04-18T15:24:39.967Z</time></trkpt><trkpt lat="45.1078886" lon="8.3417427"><ele>143.0</ele><time>2026-04-18T15:24:40.971Z</time></trkpt><trkpt lat="45.1078961" lon="8.3414645"><ele>141.66666666666666</ele><time>2026-04-18T15:24:41.972Z</time></trkpt><trkpt lat="45.1079042" lon="8.341187"><ele>140.33333333333334</ele><time>2026-04-18T15:24:42.975Z</time></trkpt><trkpt lat="45.1079142" lon="8.3409083"><ele>139.0</ele><time>2026-04-18T15:24:43.966Z</time></trkpt><trkpt lat="45.1079245" lon="8.3406326"><ele>139.0</ele><time>2026-04-18T15:24:44.966Z</time></trkpt><trkpt lat="45.1079352" lon="8.3403658"><ele>139.0</ele><time>2026-04-18T15:24:45.971Z</time></trkpt><trkpt lat="45.1079469" lon="8.3401029"><ele>139.0</ele><time>2026-04-18T15:24:46.975Z</time></trkpt><trkpt lat="45.1079591" lon="8.339845"><ele>139.0</ele><time>2026-04-18T15:24:47.966Z</time></trkpt><trkpt lat="45.1079749" lon="8.3395805"><ele>139.0</ele><time>2026-04-18T15:24:48.971Z</time></trkpt><trkpt lat="45.107998" lon="8.3393131"><ele>139.0</ele><time>2026-04-18T15:24:49.974Z</time></trkpt><trkpt lat="45.1080305" lon="8.3390457"><ele>138.66666666666669</ele><time>2026-04-18T15:24:50.967Z</time></trkpt><trkpt lat="45.1080712" lon="8.3387788"><ele>138.33333333333334</ele><time>2026-04-18T15:24:51.975Z</time></trkpt><trkpt lat="45.1081243" lon="8.3385142"><ele>138.0</ele><time>2026-04-18T15:24:52.969Z</time></trkpt><trkpt lat="45.1081885" lon="8.3382502"><ele>138.0</ele><time>2026-04-18T15:24:53.966Z</time></trkpt><trkpt lat="45.1082588" lon="8.3379941"><ele>138.0</ele><time>2026-04-18T15:24:54.971Z</time></trkpt><trkpt lat="45.1083318" lon="8.337751"><ele>138.0</ele><time>2026-04-18T15:24:55.975Z</time></trkpt><trkpt lat="45.1084047" lon="8.3375071"><ele>138.0</ele><time>2026-04-18T15:24:56.974Z</time></trkpt><trkpt lat="45.1084676" lon="8.3372603"><ele>138.0</ele><time>2026-04-18T15:24:57.97Z</time></trkpt><trkpt lat="45.1085134" lon="8.337009"><ele>138.0</ele><time>2026-04-18T15:24:58.975Z</time></trkpt><trkpt lat="45.1085414" lon="8.336748"><ele>138.0</ele><time>2026-04-18T15:24:59.973Z</time></trkpt><trkpt lat="45.108555" lon="8.3364848"><ele>138.0</ele><time>2026-04-18T15:25:00.963Z</time></trkpt><trkpt lat="45.1085483" lon="8.3362154"><ele>138.0</ele><time>2026-04-18T15:25:01.974Z</time></trkpt><trkpt lat="45.108522" lon="8.3359407"><ele>138.0</ele><time>2026-04-18T15:25:02.975Z</time></trkpt><trkpt lat="45.1084804" lon="8.3356581"><ele>138.0</ele><time>2026-04-18T15:25:03.969Z</time></trkpt><trkpt lat="45.1084278" lon="8.3353665"><ele>138.0</ele><time>2026-04-18T15:25:04.969Z</time></trkpt><trkpt lat="45.1083681" lon="8.3350662"><ele>138.0</ele><time>2026-04-18T15:25:05.974Z</time></trkpt><trkpt lat="45.1083053" lon="8.334762"><ele>138.0</ele><time>2026-04-18T15:25:06.969Z</time></trkpt><trkpt lat="45.1082389" lon="8.3344526"><ele>137.5</ele><time>2026-04-18T15:25:07.973Z</time></trkpt><trkpt lat="45.1081742" lon="8.334139"><ele>137.0</ele><time>2026-04-18T15:25:08.973Z</time></trkpt><trkpt lat="45.1081074" lon="8.3338189"><ele>136.5</ele><time>2026-04-18T15:25:09.971Z</time></trkpt><trkpt lat="45.1080397" lon="8.3334976"><ele>136.0</ele><time>2026-04-18T15:25:10.971Z</time></trkpt><trkpt lat="45.1079693" lon="8.3331678"><ele>136.5</ele><time>2026-04-18T15:25:11.973Z</time></trkpt><trkpt lat="45.1078984" lon="8.3328338"><ele>137.0</ele><time>2026-04-18T15:25:12.973Z</time></trkpt><trkpt lat="45.1078283" lon="8.3324966"><ele>136.5</ele><time>2026-04-18T15:25:13.97Z</time></trkpt><trkpt lat="45.1077595" lon="8.332159"><ele>136.0</ele><time>2026-04-18T15:25:14.974Z</time></trkpt><trkpt lat="45.1076917" lon="8.3318203"><ele>136.0</ele><time>2026-04-18T15:25:15.969Z</time></trkpt><trkpt lat="45.1076221" lon="8.3314832"><ele>136.0</ele><time>2026-04-18T15:25:16.969Z</time></trkpt><trkpt lat="45.1075522" lon="8.3311449"><ele>136.0</ele><time>2026-04-18T15:25:17.975Z</time></trkpt><trkpt lat="45.1074818" lon="8.3308069"><ele>136.0</ele><time>2026-04-18T15:25:18.974Z</time></trkpt><trkpt lat="45.1074106" lon="8.3304685"><ele>139.5</ele><time>2026-04-18T15:25:19.971Z</time></trkpt><trkpt lat="45.1073395" lon="8.3301292"><ele>143.0</ele><time>2026-04-18T15:25:20.974Z</time></trkpt><trkpt lat="45.1072695" lon="8.3297886"><ele>144.5</ele><time>2026-04-18T15:25:21.969Z</time></trkpt><trkpt lat="45.1071996" lon="8.3294476"><ele>146.0</ele><time>2026-04-18T15:25:22.972Z</time></trkpt><trkpt lat="45.10713" lon="8.3291081"><ele>145.5</ele><time>2026-04-18T15:25:23.972Z</time></trkpt><trkpt lat="45.1070597" lon="8.3287707"><ele>145.0</ele><time>2026-04-18T15:25:24.965Z</time></trkpt><trkpt lat="45.1069887" lon="8.3284333"><ele>145.0</ele><time>2026-04-18T15:25:25.971Z</time></trkpt><trkpt lat="45.1069172" lon="8.3280955"><ele>145.0</ele><time>2026-04-18T15:25:26.973Z</time></trkpt><trkpt lat="45.1068456" lon="8.3277573"><ele>143.5</ele><time>2026-04-18T15:25:27.974Z</time></trkpt><trkpt lat="45.1067747" lon="8.3274192"><ele>142.0</ele><time>2026-04-18T15:25:28.974Z</time></trkpt><trkpt lat="45.1067039" lon="8.3270793"><ele>140.0</ele><time>2026-04-18T15:25:29.975Z</time></trkpt><trkpt lat="45.1066336" lon="8.3267383"><ele>138.0</ele><time>2026-04-18T15:25:30.964Z</time></trkpt><trkpt lat="45.1065638" lon="8.3263957"><ele>143.0</ele><time>2026-04-18T15:25:31.971Z</time></trkpt><trkpt lat="45.1064945" lon="8.3260518"><ele>148.0</ele><time>2026-04-18T15:25:32.967Z</time></trkpt><trkpt lat="45.1064231" lon="8.3257087"><ele>147.0</ele><time>2026-04-18T15:25:33.969Z</time></trkpt><trkpt lat="45.10635" lon="8.3253645"><ele>146.0</ele><time>2026-04-18T15:25:34.964Z</time></trkpt><trkpt lat="45.1062755" lon="8.3250197"><ele>145.0</ele><time>2026-04-18T15:25:35.971Z</time></trkpt><trkpt lat="45.1062011" lon="8.3246743"><ele>144.0</ele><time>2026-04-18T15:25:36.975Z</time></trkpt><trkpt lat="45.1061274" lon="8.3243267"><ele>144.0</ele><time>2026-04-18T15:25:37.975Z</time></trkpt><trkpt lat="45.1060541" lon="8.3239772"><ele>144.0</ele><time>2026-04-18T15:25:38.968Z</time></trkpt><trkpt lat="45.1059804" lon="8.3236258"><ele>143.0</ele><time>2026-04-18T15:25:39.974Z</time></trkpt><trkpt lat="45.1059066" lon="8.3232729"><ele>142.0</ele><time>2026-04-18T15:25:40.969Z</time></trkpt><trkpt lat="45.1058319" lon="8.3229188"><ele>141.0</ele><time>2026-04-18T15:25:41.97Z</time></trkpt><trkpt lat="45.1057576" lon="8.3225634"><ele>140.0</ele><time>2026-04-18T15:25:42.965Z</time></trkpt><trkpt lat="45.1056831" lon="8.3222069"><ele>143.0</ele><time>2026-04-18T15:25:43.969Z</time></trkpt><trkpt lat="45.1056086" lon="8.3218499"><ele>146.0</ele><time>2026-04-18T15:25:44.969Z</time></trkpt><trkpt lat="45.105535" lon="8.3214946"><ele>145.0</ele><time>2026-04-18T15:25:45.963Z</time></trkpt><trkpt lat="45.1054609" lon="8.321144"><ele>144.0</ele><time>2026-04-18T15:25:46.967Z</time></trkpt><trkpt lat="45.105388" lon="8.320796"><ele>142.5</ele><time>2026-04-18T15:25:47.965Z</time></trkpt><trkpt lat="45.1053143" lon="8.3204498"><ele>141.0</ele><time>2026-04-18T15:25:48.962Z</time></trkpt><trkpt lat="45.1052398" lon="8.3201033"><ele>141.0</ele><time>2026-04-18T15:25:49.965Z</time></trkpt><trkpt lat="45.1051667" lon="8.3197577"><ele>141.0</ele><time>2026-04-18T15:25:50.964Z</time></trkpt><trkpt lat="45.1050935" lon="8.3194151"><ele>141.0</ele><time>2026-04-18T15:25:51.973Z</time></trkpt><trkpt lat="45.1050207" lon="8.3190758"><ele>141.0</ele><time>2026-04-18T15:25:52.969Z</time></trkpt><trkpt lat="45.1049498" lon="8.3187371"><ele>141.5</ele><time>2026-04-18T15:25:53.965Z</time></trkpt><trkpt lat="45.1048794" lon="8.3183979"><ele>142.0</ele><time>2026-04-18T15:25:54.97Z</time></trkpt><trkpt lat="45.1048089" lon="8.3180568"><ele>142.0</ele><time>2026-04-18T15:25:55.967Z</time></trkpt><trkpt lat="45.1047388" lon="8.317714"><ele>142.0</ele><time>2026-04-18T15:25:56.967Z</time></trkpt><trkpt lat="45.1046685" lon="8.3173731"><ele>142.0</ele><time>2026-04-18T15:25:57.971Z</time></trkpt><trkpt lat="45.1045983" lon="8.3170345"><ele>142.0</ele><time>2026-04-18T15:25:58.97Z</time></trkpt><trkpt lat="45.1045269" lon="8.3166971"><ele>142.5</ele><time>2026-04-18T15:25:59.969Z</time></trkpt><trkpt lat="45.1044545" lon="8.3163616"><ele>143.0</ele><time>2026-04-18T15:26:00.963Z</time></trkpt><trkpt lat="45.1043821" lon="8.3160266"><ele>143.0</ele><time>2026-04-18T15:26:01.966Z</time></trkpt><trkpt lat="45.1043109" lon="8.3156927"><ele>143.0</ele><time>2026-04-18T15:26:02.965Z</time></trkpt><trkpt lat="45.1042409" lon="8.3153571"><ele>143.0</ele><time>2026-04-18T15:26:03.968Z</time></trkpt><trkpt lat="45.1041711" lon="8.3150209"><ele>143.0</ele><time>2026-04-18T15:26:04.971Z</time></trkpt><trkpt lat="45.1041011" lon="8.3146841"><ele>143.0</ele><time>2026-04-18T15:26:05.97Z</time></trkpt><trkpt lat="45.1040321" lon="8.3143509"><ele>143.0</ele><time>2026-04-18T15:26:06.967Z</time></trkpt><trkpt lat="45.1039625" lon="8.3140189"><ele>143.5</ele><time>2026-04-18T15:26:07.97Z</time></trkpt><trkpt lat="45.1038914" lon="8.3136892"><ele>144.0</ele><time>2026-04-18T15:26:08.975Z</time></trkpt><trkpt lat="45.1038221" lon="8.3133608"><ele>144.0</ele><time>2026-04-18T15:26:09.967Z</time></trkpt><trkpt lat="45.1037523" lon="8.3130384"><ele>144.0</ele><time>2026-04-18T15:26:10.968Z</time></trkpt><trkpt lat="45.1036854" lon="8.3127274"><ele>144.0</ele><time>2026-04-18T15:26:11.967Z</time></trkpt><trkpt lat="45.1036201" lon="8.3124243"><ele>144.0</ele><time>2026-04-18T15:26:12.97Z</time></trkpt><trkpt lat="45.1035577" lon="8.312135"><ele>144.0</ele><time>2026-04-18T15:26:13.968Z</time></trkpt><trkpt lat="45.1034996" lon="8.3118542"><ele>144.0</ele><time>2026-04-18T15:26:14.971Z</time></trkpt><trkpt lat="45.1034417" lon="8.3115862"><ele>144.0</ele><time>2026-04-18T15:26:15.969Z</time></trkpt><trkpt lat="45.1033815" lon="8.3113294"><ele>144.0</ele><time>2026-04-18T15:26:16.965Z</time></trkpt><trkpt lat="45.1033106" lon="8.311087"><ele>144.66666666666666</ele><time>2026-04-18T15:26:17.972Z</time></trkpt><trkpt lat="45.1032318" lon="8.3108545"><ele>145.33333333333331</ele><time>2026-04-18T15:26:18.972Z</time></trkpt><trkpt lat="45.103142" lon="8.3106298"><ele>146.0</ele><time>2026-04-18T15:26:19.97Z</time></trkpt><trkpt lat="45.103046" lon="8.3104182"><ele>146.0</ele><time>2026-04-18T15:26:20.972Z</time></trkpt><trkpt lat="45.102947" lon="8.3102209"><ele>146.0</ele><time>2026-04-18T15:26:21.967Z</time></trkpt><trkpt lat="45.102841" lon="8.3100351"><ele>146.0</ele><time>2026-04-18T15:26:22.974Z</time></trkpt><trkpt lat="45.1027265" lon="8.3098675"><ele>145.66666666666666</ele><time>2026-04-18T15:26:23.973Z</time></trkpt><trkpt lat="45.1026066" lon="8.3097156"><ele>145.33333333333334</ele><time>2026-04-18T15:26:24.966Z</time></trkpt><trkpt lat="45.1024846" lon="8.3095789"><ele>145.0</ele><time>2026-04-18T15:26:25.966Z</time></trkpt><trkpt lat="45.1023501" lon="8.3094601"><ele>146.0</ele><time>2026-04-18T15:26:26.973Z</time></trkpt><trkpt lat="45.1022046" lon="8.309349"><ele>147.0</ele><time>2026-04-18T15:26:27.964Z</time></trkpt><trkpt lat="45.102051" lon="8.3092481"><ele>148.0</ele><time>2026-04-18T15:26:28.968Z</time></trkpt><trkpt lat="45.1018896" lon="8.3091629"><ele>148.0</ele><time>2026-04-18T15:26:29.969Z</time></trkpt><trkpt lat="45.1017238" lon="8.3090924"><ele>148.0</ele><time>2026-04-18T15:26:30.963Z</time></trkpt><trkpt lat="45.1015509" lon="8.3090434"><ele>148.0</ele><time>2026-04-18T15:26:31.968Z</time></trkpt><trkpt lat="45.101371" lon="8.3090101"><ele>149.0</ele><time>2026-04-18T15:26:32.974Z</time></trkpt><trkpt lat="45.1011873" lon="8.3089962"><ele>150.0</ele><time>2026-04-18T15:26:33.967Z</time></trkpt><trkpt lat="45.1009982" lon="8.3089936"><ele>151.0</ele><time>2026-04-18T15:26:34.973Z</time></trkpt><trkpt lat="45.1008057" lon="8.3090026"><ele>151.66666666666669</ele><time>2026-04-18T15:26:35.97Z</time></trkpt><trkpt lat="45.1006066" lon="8.3090203"><ele>152.33333333333334</ele><time>2026-04-18T15:26:36.967Z</time></trkpt><trkpt lat="45.1004066" lon="8.3090405"><ele>153.0</ele><time>2026-04-18T15:26:37.966Z</time></trkpt><trkpt lat="45.1002044" lon="8.3090642"><ele>153.0</ele><time>2026-04-18T15:26:38.966Z</time></trkpt><trkpt lat="45.0999993" lon="8.3090867"><ele>153.0</ele><time>2026-04-18T15:26:39.968Z</time></trkpt><trkpt lat="45.0997907" lon="8.3091098"><ele>153.0</ele><time>2026-04-18T15:26:40.963Z</time></trkpt><trkpt lat="45.09958" lon="8.3091344"><ele>152.66666666666666</ele><time>2026-04-18T15:26:41.96Z</time></trkpt><trkpt lat="45.099373" lon="8.309155"><ele>152.33333333333331</ele><time>2026-04-18T15:26:42.966Z</time></trkpt><trkpt lat="45.0991729" lon="8.3091763"><ele>152.0</ele><time>2026-04-18T15:26:43.963Z</time></trkpt><trkpt lat="45.0989778" lon="8.3091958"><ele>151.66666666666666</ele><time>2026-04-18T15:26:44.969Z</time></trkpt><trkpt lat="45.0987816" lon="8.309217"><ele>151.33333333333334</ele><time>2026-04-18T15:26:45.962Z</time></trkpt><trkpt lat="45.0985824" lon="8.3092384"><ele>151.0</ele><time>2026-04-18T15:26:46.964Z</time></trkpt><trkpt lat="45.0983779" lon="8.3092626"><ele>150.0</ele><time>2026-04-18T15:26:47.961Z</time></trkpt><trkpt lat="45.0981726" lon="8.3092835"><ele>149.0</ele><time>2026-04-18T15:26:48.968Z</time></trkpt><trkpt lat="45.0979697" lon="8.3093011"><ele>148.0</ele><time>2026-04-18T15:26:49.97Z</time></trkpt><trkpt lat="45.0977715" lon="8.3093142"><ele>148.0</ele><time>2026-04-18T15:26:50.975Z</time></trkpt><trkpt lat="45.097579" lon="8.3093207"><ele>148.0</ele><time>2026-04-18T15:26:51.963Z</time></trkpt><trkpt lat="45.097391" lon="8.3093188"><ele>148.0</ele><time>2026-04-18T15:26:52.967Z</time></trkpt><trkpt lat="45.0972066" lon="8.3093001"><ele>148.0</ele><time>2026-04-18T15:26:53.965Z</time></trkpt><trkpt lat="45.0970258" lon="8.3092643"><ele>148.0</ele><time>2026-04-18T15:26:54.967Z</time></trkpt><trkpt lat="45.0968554" lon="8.3092112"><ele>148.0</ele><time>2026-04-18T15:26:55.974Z</time></trkpt><trkpt lat="45.0966922" lon="8.3091514"><ele>148.33333333333334</ele><time>2026-04-18T15:26:56.969Z</time></trkpt><trkpt lat="45.0965383" lon="8.3090857"><ele>148.66666666666666</ele><time>2026-04-18T15:26:57.966Z</time></trkpt><trkpt lat="45.0963946" lon="8.3090275"><ele>149.0</ele><time>2026-04-18T15:26:58.974Z</time></trkpt><trkpt lat="45.096257" lon="8.3089812"><ele>149.0</ele><time>2026-04-18T15:26:59.971Z</time></trkpt><trkpt lat="45.0961245" lon="8.308959"><ele>149.0</ele><time>2026-04-18T15:27:00.972Z</time></trkpt><trkpt lat="45.0959924" lon="8.3089515"><ele>149.0</ele><time>2026-04-18T15:27:01.968Z</time></trkpt><trkpt lat="45.0958585" lon="8.3089611"><ele>149.0</ele><time>2026-04-18T15:27:02.969Z</time></trkpt><trkpt lat="45.0957232" lon="8.308988"><ele>149.0</ele><time>2026-04-18T15:27:03.97Z</time></trkpt><trkpt lat="45.0955844" lon="8.3090352"><ele>149.0</ele><time>2026-04-18T15:27:04.964Z</time></trkpt><trkpt lat="45.0954425" lon="8.3090996"><ele>149.0</ele><time>2026-04-18T15:27:05.966Z</time></trkpt><trkpt lat="45.0953005" lon="8.3091782"><ele>149.0</ele><time>2026-04-18T15:27:06.974Z</time></trkpt><trkpt lat="45.0951603" lon="8.3092618"><ele>149.0</ele><time>2026-04-18T15:27:07.972Z</time></trkpt><trkpt lat="45.0950191" lon="8.309346"><ele>149.0</ele><time>2026-04-18T15:27:08.966Z</time></trkpt><trkpt lat="45.0948759" lon="8.3094269"><ele>149.0</ele><time>2026-04-18T15:27:09.965Z</time></trkpt><trkpt lat="45.094732" lon="8.3094982"><ele>149.0</ele><time>2026-04-18T15:27:10.974Z</time></trkpt><trkpt lat="45.0945863" lon="8.309558"><ele>149.0</ele><time>2026-04-18T15:27:11.971Z</time></trkpt><trkpt lat="45.0944444" lon="8.3096046"><ele>149.0</ele><time>2026-04-18T15:27:12.973Z</time></trkpt><trkpt lat="45.0943067" lon="8.3096375"><ele>149.0</ele><time>2026-04-18T15:27:13.972Z</time></trkpt><trkpt lat="45.0941731" lon="8.3096601"><ele>148.75</ele><time>2026-04-18T15:27:14.975Z</time></trkpt><trkpt lat="45.0940399" lon="8.3096793"><ele>148.5</ele><time>2026-04-18T15:27:15.97Z</time></trkpt><trkpt lat="45.0939048" lon="8.3096983"><ele>148.25</ele><time>2026-04-18T15:27:16.964Z</time></trkpt><trkpt lat="45.0937687" lon="8.3097176"><ele>148.0</ele><time>2026-04-18T15:27:17.972Z</time></trkpt><trkpt lat="45.0936233" lon="8.3097416"><ele>148.33333333333334</ele><time>2026-04-18T15:27:18.967Z</time></trkpt><trkpt lat="45.0934715" lon="8.30977"><ele>148.66666666666666</ele><time>2026-04-18T15:27:19.966Z</time></trkpt><trkpt lat="45.0933147" lon="8.3097949"><ele>149.0</ele><time>2026-04-18T15:27:20.966Z</time></trkpt><trkpt lat="45.0931521" lon="8.3098173"><ele>149.66666666666666</ele><time>2026-04-18T15:27:21.974Z</time></trkpt><trkpt lat="45.0929833" lon="8.3098351"><ele>150.33333333333334</ele><time>2026-04-18T15:27:22.975Z</time></trkpt><trkpt lat="45.0928087" lon="8.3098513"><ele>151.0</ele><time>2026-04-18T15:27:23.974Z</time></trkpt><trkpt lat="45.0926297" lon="8.3098685"><ele>151.0</ele><time>2026-04-18T15:27:24.968Z</time></trkpt><trkpt lat="45.0924499" lon="8.3098836"><ele>151.0</ele><time>2026-04-18T15:27:25.968Z</time></trkpt><trkpt lat="45.0922717" lon="8.309899"><ele>151.0</ele><time>2026-04-18T15:27:26.971Z</time></trkpt><trkpt lat="45.0920935" lon="8.3099171"><ele>151.33333333333334</ele><time>2026-04-18T15:27:27.966Z</time></trkpt><trkpt lat="45.0919147" lon="8.3099349"><ele>151.66666666666666</ele><time>2026-04-18T15:27:28.971Z</time></trkpt><trkpt lat="45.0917391" lon="8.3099545"><ele>152.0</ele><time>2026-04-18T15:27:29.967Z</time></trkpt><trkpt lat="45.0915709" lon="8.3099731"><ele>151.33333333333331</ele><time>2026-04-18T15:27:30.969Z</time></trkpt><trkpt lat="45.091407" lon="8.3099912"><ele>150.66666666666666</ele><time>2026-04-18T15:27:31.969Z</time></trkpt><trkpt lat="45.0912355" lon="8.3100101"><ele>150.0</ele><time>2026-04-18T15:27:32.968Z</time></trkpt><trkpt lat="45.0910492" lon="8.3100358"><ele>150.0</ele><time>2026-04-18T15:27:33.969Z</time></trkpt><trkpt lat="45.0908409" lon="8.310066"><ele>150.0</ele><time>2026-04-18T15:27:34.965Z</time></trkpt><trkpt lat="45.0906139" lon="8.3100956"><ele>150.0</ele><time>2026-04-18T15:27:35.969Z</time></trkpt><trkpt lat="45.0903801" lon="8.310116"><ele>150.0</ele><time>2026-04-18T15:27:36.97Z</time></trkpt><trkpt lat="45.0901568" lon="8.3101297"><ele>150.0</ele><time>2026-04-18T15:27:37.965Z</time></trkpt><trkpt lat="45.0899441" lon="8.3101453"><ele>150.0</ele><time>2026-04-18T15:27:38.968Z</time></trkpt><trkpt lat="45.0897414" lon="8.3101633"><ele>151.33333333333334</ele><time>2026-04-18T15:27:39.971Z</time></trkpt><trkpt lat="45.0895471" lon="8.3101826"><ele>152.66666666666669</ele><time>2026-04-18T15:27:40.974Z</time></trkpt><trkpt lat="45.0893624" lon="8.3102023"><ele>154.0</ele><time>2026-04-18T15:27:41.973Z</time></trkpt><trkpt lat="45.089184" lon="8.3102201"><ele>154.0</ele><time>2026-04-18T15:27:42.969Z</time></trkpt><trkpt lat="45.0890075" lon="8.3102382"><ele>154.0</ele><time>2026-04-18T15:27:43.969Z</time></trkpt><trkpt lat="45.0888329" lon="8.310254"><ele>154.0</ele><time>2026-04-18T15:27:44.975Z</time></trkpt><trkpt lat="45.0886595" lon="8.3102716"><ele>154.0</ele><time>2026-04-18T15:27:45.972Z</time></trkpt><trkpt lat="45.0884859" lon="8.310291"><ele>154.0</ele><time>2026-04-18T15:27:46.967Z</time></trkpt><trkpt lat="45.0883112" lon="8.3103104"><ele>154.0</ele><time>2026-04-18T15:27:47.967Z</time></trkpt><trkpt lat="45.0881335" lon="8.3103317"><ele>153.66666666666669</ele><time>2026-04-18T15:27:48.963Z</time></trkpt><trkpt lat="45.0879549" lon="8.3103506"><ele>153.33333333333334</ele><time>2026-04-18T15:27:49.967Z</time></trkpt><trkpt lat="45.0877733" lon="8.310368"><ele>153.0</ele><time>2026-04-18T15:27:50.975Z</time></trkpt><trkpt lat="45.0875867" lon="8.3103843"><ele>153.66666666666666</ele><time>2026-04-18T15:27:51.959Z</time></trkpt><trkpt lat="45.0873982" lon="8.3103929"><ele>154.33333333333331</ele><time>2026-04-18T15:27:52.973Z</time></trkpt><trkpt lat="45.0872157" lon="8.3103901"><ele>155.0</ele><time>2026-04-18T15:27:53.967Z</time></trkpt><trkpt lat="45.087037" lon="8.3103762"><ele>155.0</ele><time>2026-04-18T15:27:54.967Z</time></trkpt><trkpt lat="45.0868594" lon="8.3103527"><ele>155.0</ele><time>2026-04-18T15:27:55.964Z</time></trkpt><trkpt lat="45.0866813" lon="8.3103192"><ele>155.0</ele><time>2026-04-18T15:27:56.974Z</time></trkpt><trkpt lat="45.0865019" lon="8.3102749"><ele>155.66666666666666</ele><time>2026-04-18T15:27:57.967Z</time></trkpt><trkpt lat="45.0863229" lon="8.3102227"><ele>156.33333333333334</ele><time>2026-04-18T15:27:58.975Z</time></trkpt><trkpt lat="45.0861415" lon="8.3101639"><ele>157.0</ele><time>2026-04-18T15:27:59.975Z</time></trkpt><trkpt lat="45.0859588" lon="8.3100939"><ele>157.0</ele><time>2026-04-18T15:28:00.971Z</time></trkpt><trkpt lat="45.0857759" lon="8.3100146"><ele>157.0</ele><time>2026-04-18T15:28:01.973Z</time></trkpt><trkpt lat="45.0855911" lon="8.3099348"><ele>157.0</ele><time>2026-04-18T15:28:02.964Z</time></trkpt><trkpt lat="45.0854043" lon="8.3098527"><ele>157.0</ele><time>2026-04-18T15:28:03.969Z</time></trkpt><trkpt lat="45.0852143" lon="8.3097695"><ele>157.0</ele><time>2026-04-18T15:28:04.966Z</time></trkpt><trkpt lat="45.0850262" lon="8.3096831"><ele>157.0</ele><time>2026-04-18T15:28:05.969Z</time></trkpt><trkpt lat="45.0848383" lon="8.3095992"><ele>155.66666666666669</ele><time>2026-04-18T15:28:06.975Z</time></trkpt><trkpt lat="45.0846532" lon="8.3095169"><ele>154.33333333333334</ele><time>2026-04-18T15:28:07.974Z</time></trkpt><trkpt lat="45.0844659" lon="8.3094326"><ele>153.0</ele><time>2026-04-18T15:28:08.974Z</time></trkpt><trkpt lat="45.0842751" lon="8.3093474"><ele>154.0</ele><time>2026-04-18T15:28:09.965Z</time></trkpt><trkpt lat="45.0840826" lon="8.309261"><ele>155.0</ele><time>2026-04-18T15:28:10.963Z</time></trkpt><trkpt lat="45.0838844" lon="8.3091738"><ele>156.0</ele><time>2026-04-18T15:28:11.969Z</time></trkpt><trkpt lat="45.0836801" lon="8.3090914"><ele>156.0</ele><time>2026-04-18T15:28:12.97Z</time></trkpt><trkpt lat="45.0834536" lon="8.3090039"><ele>156.0</ele><time>2026-04-18T15:28:13.965Z</time></trkpt><trkpt lat="45.0832098" lon="8.3089"><ele>155.5</ele><time>2026-04-18T15:28:14.969Z</time></trkpt><trkpt lat="45.082953" lon="8.3087806"><ele>155.0</ele><time>2026-04-18T15:28:15.969Z</time></trkpt><trkpt lat="45.0827021" lon="8.308659"><ele>155.0</ele><time>2026-04-18T15:28:16.968Z</time></trkpt><trkpt lat="45.0824611" lon="8.3085443"><ele>155.0</ele><time>2026-04-18T15:28:17.973Z</time></trkpt><trkpt lat="45.0822301" lon="8.3084373"><ele>156.5</ele><time>2026-04-18T15:28:18.969Z</time></trkpt><trkpt lat="45.0820072" lon="8.308336"><ele>158.0</ele><time>2026-04-18T15:28:19.967Z</time></trkpt><trkpt lat="45.0817961" lon="8.3082396"><ele>158.33333333333331</ele><time>2026-04-18T15:28:20.971Z</time></trkpt><trkpt lat="45.0815887" lon="8.308143"><ele>158.66666666666666</ele><time>2026-04-18T15:28:21.964Z</time></trkpt><trkpt lat="45.081379" lon="8.3080497"><ele>159.0</ele><time>2026-04-18T15:28:22.975Z</time></trkpt><trkpt lat="45.0811724" lon="8.3079582"><ele>159.66666666666666</ele><time>2026-04-18T15:28:23.967Z</time></trkpt><trkpt lat="45.080966" lon="8.3078652"><ele>160.33333333333331</ele><time>2026-04-18T15:28:24.967Z</time></trkpt><trkpt lat="45.0807621" lon="8.3077742"><ele>161.0</ele><time>2026-04-18T15:28:25.974Z</time></trkpt><trkpt lat="45.0805589" lon="8.3076846"><ele>161.0</ele><time>2026-04-18T15:28:26.964Z</time></trkpt><trkpt lat="45.0803622" lon="8.3075983"><ele>161.0</ele><time>2026-04-18T15:28:27.966Z</time></trkpt><trkpt lat="45.0801697" lon="8.307513"><ele>161.0</ele><time>2026-04-18T15:28:28.969Z</time></trkpt><trkpt lat="45.0799767" lon="8.3074274"><ele>160.0</ele><time>2026-04-18T15:28:29.967Z</time></trkpt><trkpt lat="45.0797812" lon="8.3073429"><ele>159.0</ele><time>2026-04-18T15:28:30.971Z</time></trkpt><trkpt lat="45.0795846" lon="8.3072561"><ele>158.0</ele><time>2026-04-18T15:28:31.969Z</time></trkpt><trkpt lat="45.0793882" lon="8.3071693"><ele>158.0</ele><time>2026-04-18T15:28:32.972Z</time></trkpt><trkpt lat="45.0791957" lon="8.30708"><ele>158.0</ele><time>2026-04-18T15:28:33.97Z</time></trkpt><trkpt lat="45.0790023" lon="8.306993"><ele>158.0</ele><time>2026-04-18T15:28:34.97Z</time></trkpt><trkpt lat="45.078806" lon="8.3069048"><ele>157.33333333333331</ele><time>2026-04-18T15:28:35.963Z</time></trkpt><trkpt lat="45.0786118" lon="8.3068097"><ele>156.66666666666666</ele><time>2026-04-18T15:28:36.969Z</time></trkpt><trkpt lat="45.0784177" lon="8.3067078"><ele>156.0</ele><time>2026-04-18T15:28:37.967Z</time></trkpt><trkpt lat="45.0782273" lon="8.3065944"><ele>156.66666666666666</ele><time>2026-04-18T15:28:38.964Z</time></trkpt><trkpt lat="45.0780422" lon="8.306466"><ele>157.33333333333331</ele><time>2026-04-18T15:28:39.975Z</time></trkpt><trkpt lat="45.0778649" lon="8.3063214"><ele>158.0</ele><time>2026-04-18T15:28:40.972Z</time></trkpt><trkpt lat="45.0776966" lon="8.3061607"><ele>158.0</ele><time>2026-04-18T15:28:41.972Z</time></trkpt><trkpt lat="45.0775416" lon="8.3059906"><ele>158.0</ele><time>2026-04-18T15:28:42.97Z</time></trkpt><trkpt lat="45.0773952" lon="8.3058092"><ele>158.0</ele><time>2026-04-18T15:28:43.973Z</time></trkpt><trkpt lat="45.0772558" lon="8.3056159"><ele>158.33333333333331</ele><time>2026-04-18T15:28:44.975Z</time></trkpt><trkpt lat="45.0771292" lon="8.3054206"><ele>158.66666666666666</ele><time>2026-04-18T15:28:45.969Z</time></trkpt><trkpt lat="45.0770094" lon="8.3052263"><ele>159.0</ele><time>2026-04-18T15:28:46.965Z</time></trkpt><trkpt lat="45.0768892" lon="8.3050308"><ele>159.0</ele><time>2026-04-18T15:28:47.97Z</time></trkpt><trkpt lat="45.0767679" lon="8.3048347"><ele>159.0</ele><time>2026-04-18T15:28:48.975Z</time></trkpt><trkpt lat="45.0766456" lon="8.3046363"><ele>159.0</ele><time>2026-04-18T15:28:49.962Z</time></trkpt><trkpt lat="45.0765204" lon="8.3044345"><ele>159.0</ele><time>2026-04-18T15:28:50.962Z</time></trkpt><trkpt lat="45.0763938" lon="8.3042287"><ele>159.0</ele><time>2026-04-18T15:28:51.97Z</time></trkpt><trkpt lat="45.0762659" lon="8.3040197"><ele>159.0</ele><time>2026-04-18T15:28:52.971Z</time></trkpt><trkpt lat="45.0761389" lon="8.3038136"><ele>159.0</ele><time>2026-04-18T15:28:53.97Z</time></trkpt><trkpt lat="45.0760178" lon="8.3036177"><ele>159.0</ele><time>2026-04-18T15:28:54.961Z</time></trkpt><trkpt lat="45.0758993" lon="8.3034255"><ele>159.0</ele><time>2026-04-18T15:28:55.964Z</time></trkpt><trkpt lat="45.0757789" lon="8.3032313"><ele>159.33333333333334</ele><time>2026-04-18T15:28:56.972Z</time></trkpt><trkpt lat="45.0756526" lon="8.303028"><ele>159.66666666666669</ele><time>2026-04-18T15:28:57.969Z</time></trkpt><trkpt lat="45.0755139" lon="8.3028164"><ele>160.0</ele><time>2026-04-18T15:28:58.968Z</time></trkpt><trkpt lat="45.0753571" lon="8.3025804"><ele>160.0</ele><time>2026-04-18T15:28:59.966Z</time></trkpt><trkpt lat="45.0751949" lon="8.302322"><ele>160.0</ele><time>2026-04-18T15:29:00.969Z</time></trkpt><trkpt lat="45.0750256" lon="8.3020436"><ele>160.5</ele><time>2026-04-18T15:29:01.966Z</time></trkpt><trkpt lat="45.0748568" lon="8.3017712"><ele>161.0</ele><time>2026-04-18T15:29:02.966Z</time></trkpt><trkpt lat="45.074697" lon="8.3015117"><ele>160.0</ele><time>2026-04-18T15:29:03.968Z</time></trkpt><trkpt lat="45.0745491" lon="8.3012557"><ele>159.0</ele><time>2026-04-18T15:29:04.968Z</time></trkpt><trkpt lat="45.0744109" lon="8.3010134"><ele>159.0</ele><time>2026-04-18T15:29:05.969Z</time></trkpt><trkpt lat="45.0742799" lon="8.3007931"><ele>159.0</ele><time>2026-04-18T15:29:06.97Z</time></trkpt><trkpt lat="45.0741542" lon="8.3005908"><ele>159.0</ele><time>2026-04-18T15:29:07.972Z</time></trkpt><trkpt lat="45.0740117" lon="8.3003819"><ele>161.5</ele><time>2026-04-18T15:29:08.972Z</time></trkpt><trkpt lat="45.0738575" lon="8.3001477"><ele>164.0</ele><time>2026-04-18T15:29:09.967Z</time></trkpt><trkpt lat="45.0737006" lon="8.2998745"><ele>162.5</ele><time>2026-04-18T15:29:10.964Z</time></trkpt><trkpt lat="45.0735442" lon="8.2995997"><ele>161.0</ele><time>2026-04-18T15:29:11.963Z</time></trkpt><trkpt lat="45.0733796" lon="8.2993275"><ele>160.5</ele><time>2026-04-18T15:29:12.968Z</time></trkpt><trkpt lat="45.0732123" lon="8.2990552"><ele>160.0</ele><time>2026-04-18T15:29:13.964Z</time></trkpt><trkpt lat="45.0730462" lon="8.2987822"><ele>160.0</ele><time>2026-04-18T15:29:14.973Z</time></trkpt><trkpt lat="45.0728805" lon="8.2985111"><ele>160.0</ele><time>2026-04-18T15:29:15.968Z</time></trkpt><trkpt lat="45.0727146" lon="8.2982438"><ele>160.5</ele><time>2026-04-18T15:29:16.971Z</time></trkpt><trkpt lat="45.072549" lon="8.2979786"><ele>161.0</ele><time>2026-04-18T15:29:17.975Z</time></trkpt><trkpt lat="45.0723859" lon="8.2977135"><ele>162.0</ele><time>2026-04-18T15:29:18.974Z</time></trkpt><trkpt lat="45.0722227" lon="8.2974486"><ele>163.0</ele><time>2026-04-18T15:29:19.967Z</time></trkpt><trkpt lat="45.072059" lon="8.2971839"><ele>163.0</ele><time>2026-04-18T15:29:20.974Z</time></trkpt><trkpt lat="45.071896" lon="8.2969221"><ele>163.0</ele><time>2026-04-18T15:29:21.975Z</time></trkpt><trkpt lat="45.0717321" lon="8.2966571"><ele>163.0</ele><time>2026-04-18T15:29:22.965Z</time></trkpt><trkpt lat="45.0715665" lon="8.2963865"><ele>163.0</ele><time>2026-04-18T15:29:23.971Z</time></trkpt><trkpt lat="45.0714017" lon="8.296112"><ele>163.0</ele><time>2026-04-18T15:29:24.97Z</time></trkpt><trkpt lat="45.0712407" lon="8.2958351"><ele>163.0</ele><time>2026-04-18T15:29:25.963Z</time></trkpt><trkpt lat="45.071083" lon="8.2955546"><ele>163.5</ele><time>2026-04-18T15:29:26.966Z</time></trkpt><trkpt lat="45.0709302" lon="8.2952697"><ele>164.0</ele><time>2026-04-18T15:29:27.969Z</time></trkpt><trkpt lat="45.0707831" lon="8.2949804"><ele>164.5</ele><time>2026-04-18T15:29:28.968Z</time></trkpt><trkpt lat="45.0706414" lon="8.2946865"><ele>165.0</ele><time>2026-04-18T15:29:29.966Z</time></trkpt><trkpt lat="45.0705043" lon="8.2943898"><ele>165.0</ele><time>2026-04-18T15:29:30.968Z</time></trkpt><trkpt lat="45.0703746" lon="8.2940975"><ele>165.0</ele><time>2026-04-18T15:29:31.971Z</time></trkpt><trkpt lat="45.0702521" lon="8.293811"><ele>166.5</ele><time>2026-04-18T15:29:32.974Z</time></trkpt><trkpt lat="45.0701346" lon="8.2935314"><ele>168.0</ele><time>2026-04-18T15:29:33.968Z</time></trkpt><trkpt lat="45.0700208" lon="8.2932576"><ele>170.0</ele><time>2026-04-18T15:29:34.966Z</time></trkpt><trkpt lat="45.0699099" lon="8.2929917"><ele>172.0</ele><time>2026-04-18T15:29:35.972Z</time></trkpt><trkpt lat="45.0698018" lon="8.2927311"><ele>174.0</ele><time>2026-04-18T15:29:36.975Z</time></trkpt><trkpt lat="45.0696967" lon="8.2924751"><ele>173.0</ele><time>2026-04-18T15:29:37.967Z</time></trkpt><trkpt lat="45.0695932" lon="8.2922209"><ele>172.0</ele><time>2026-04-18T15:29:38.968Z</time></trkpt><trkpt lat="45.0694903" lon="8.2919665"><ele>171.0</ele><time>2026-04-18T15:29:39.964Z</time></trkpt><trkpt lat="45.0693874" lon="8.2917161"><ele>171.0</ele><time>2026-04-18T15:29:40.969Z</time></trkpt><trkpt lat="45.0692848" lon="8.2914652"><ele>171.0</ele><time>2026-04-18T15:29:41.97Z</time></trkpt><trkpt lat="45.0691801" lon="8.2912118"><ele>171.0</ele><time>2026-04-18T15:29:42.969Z</time></trkpt><trkpt lat="45.0690764" lon="8.2909569"><ele>173.66666666666666</ele><time>2026-04-18T15:29:43.971Z</time></trkpt><trkpt lat="45.0689733" lon="8.2907026"><ele>176.33333333333331</ele><time>2026-04-18T15:29:44.97Z</time></trkpt><trkpt lat="45.0688713" lon="8.290454"><ele>179.0</ele><time>2026-04-18T15:29:45.969Z</time></trkpt><trkpt lat="45.0687704" lon="8.2902098"><ele>179.0</ele><time>2026-04-18T15:29:46.971Z</time></trkpt><trkpt lat="45.0686735" lon="8.2899755"><ele>179.0</ele><time>2026-04-18T15:29:47.97Z</time></trkpt><trkpt lat="45.0685816" lon="8.2897489"><ele>179.0</ele><time>2026-04-18T15:29:48.968Z</time></trkpt><trkpt lat="45.0684921" lon="8.2895303"><ele>178.66666666666666</ele><time>2026-04-18T15:29:49.975Z</time></trkpt><trkpt lat="45.0684069" lon="8.2893201"><ele>178.33333333333334</ele><time>2026-04-18T15:29:50.967Z</time></trkpt><trkpt lat="45.0683186" lon="8.2891076"><ele>178.0</ele><time>2026-04-18T15:29:51.968Z</time></trkpt><trkpt lat="45.0682311" lon="8.2888926"><ele>181.33333333333334</ele><time>2026-04-18T15:29:52.959Z</time></trkpt><trkpt lat="45.0681394" lon="8.2886794"><ele>184.66666666666666</ele><time>2026-04-18T15:29:53.971Z</time></trkpt><trkpt lat="45.0680539" lon="8.2884703"><ele>188.0</ele><time>2026-04-18T15:29:54.972Z</time></trkpt><trkpt lat="45.0679698" lon="8.2882636"><ele>186.66666666666666</ele><time>2026-04-18T15:29:55.975Z</time></trkpt><trkpt lat="45.0678874" lon="8.2880611"><ele>185.33333333333334</ele><time>2026-04-18T15:29:56.97Z</time></trkpt><trkpt lat="45.0678076" lon="8.2878658"><ele>184.0</ele><time>2026-04-18T15:29:57.974Z</time></trkpt><trkpt lat="45.0677304" lon="8.2876772"><ele>184.0</ele><time>2026-04-18T15:29:58.975Z</time></trkpt><trkpt lat="45.0676512" lon="8.2874854"><ele>184.0</ele><time>2026-04-18T15:29:59.969Z</time></trkpt><trkpt lat="45.0675682" lon="8.2872898"><ele>184.0</ele><time>2026-04-18T15:30:00.967Z</time></trkpt><trkpt lat="45.0674802" lon="8.2870759"><ele>184.66666666666669</ele><time>2026-04-18T15:30:01.964Z</time></trkpt><trkpt lat="45.0673781" lon="8.2868429"><ele>185.33333333333334</ele><time>2026-04-18T15:30:02.966Z</time></trkpt><trkpt lat="45.0672717" lon="8.2865903"><ele>186.0</ele><time>2026-04-18T15:30:03.967Z</time></trkpt><trkpt lat="45.0671664" lon="8.2863229"><ele>186.0</ele><time>2026-04-18T15:30:04.964Z</time></trkpt><trkpt lat="45.0670645" lon="8.2860577"><ele>186.0</ele><time>2026-04-18T15:30:05.965Z</time></trkpt><trkpt lat="45.0669695" lon="8.285806"><ele>186.0</ele><time>2026-04-18T15:30:06.966Z</time></trkpt><trkpt lat="45.0668771" lon="8.2855691"><ele>181.66666666666666</ele><time>2026-04-18T15:30:07.971Z</time></trkpt><trkpt lat="45.0667906" lon="8.2853501"><ele>177.33333333333331</ele><time>2026-04-18T15:30:08.968Z</time></trkpt><trkpt lat="45.0667076" lon="8.2851475"><ele>173.0</ele><time>2026-04-18T15:30:09.973Z</time></trkpt><trkpt lat="45.0666303" lon="8.2849573"><ele>173.5</ele><time>2026-04-18T15:30:10.963Z</time></trkpt><trkpt lat="45.0665574" lon="8.2847736"><ele>174.0</ele><time>2026-04-18T15:30:11.97Z</time></trkpt><trkpt lat="45.0664847" lon="8.2845915"><ele>174.5</ele><time>2026-04-18T15:30:12.974Z</time></trkpt><trkpt lat="45.0664102" lon="8.2844032"><ele>175.0</ele><time>2026-04-18T15:30:13.966Z</time></trkpt><trkpt lat="45.0663357" lon="8.2842165"><ele>175.0</ele><time>2026-04-18T15:30:14.965Z</time></trkpt><trkpt lat="45.0662637" lon="8.2840372"><ele>175.0</ele><time>2026-04-18T15:30:15.97Z</time></trkpt><trkpt lat="45.0661935" lon="8.2838629"><ele>175.0</ele><time>2026-04-18T15:30:16.967Z</time></trkpt><trkpt lat="45.066121" lon="8.2836827"><ele>175.0</ele><time>2026-04-18T15:30:17.969Z</time></trkpt><trkpt lat="45.0660476" lon="8.2834979"><ele>173.66666666666669</ele><time>2026-04-18T15:30:18.966Z</time></trkpt><trkpt lat="45.0659759" lon="8.2833174"><ele>172.33333333333334</ele><time>2026-04-18T15:30:19.966Z</time></trkpt><trkpt lat="45.0659" lon="8.2831319"><ele>171.0</ele><time>2026-04-18T15:30:20.966Z</time></trkpt><trkpt lat="45.0658192" lon="8.2829405"><ele>172.0</ele><time>2026-04-18T15:30:21.972Z</time></trkpt><trkpt lat="45.065736" lon="8.2827482"><ele>173.0</ele><time>2026-04-18T15:30:22.975Z</time></trkpt><trkpt lat="45.0656472" lon="8.2825543"><ele>174.0</ele><time>2026-04-18T15:30:23.966Z</time></trkpt><trkpt lat="45.0655575" lon="8.282369"><ele>173.66666666666666</ele><time>2026-04-18T15:30:24.971Z</time></trkpt><trkpt lat="45.0654666" lon="8.2821922"><ele>173.33333333333331</ele><time>2026-04-18T15:30:25.969Z</time></trkpt><trkpt lat="45.0653743" lon="8.2820214"><ele>173.0</ele><time>2026-04-18T15:30:26.972Z</time></trkpt><trkpt lat="45.0652797" lon="8.2818583"><ele>173.0</ele><time>2026-04-18T15:30:27.967Z</time></trkpt><trkpt lat="45.0651804" lon="8.2817038"><ele>173.0</ele><time>2026-04-18T15:30:28.963Z</time></trkpt><trkpt lat="45.065077" lon="8.2815581"><ele>173.0</ele><time>2026-04-18T15:30:29.97Z</time></trkpt><trkpt lat="45.0649764" lon="8.2814193"><ele>173.0</ele><time>2026-04-18T15:30:30.967Z</time></trkpt><trkpt lat="45.0648754" lon="8.2812887"><ele>173.0</ele><time>2026-04-18T15:30:31.968Z</time></trkpt><trkpt lat="45.0647744" lon="8.2811688"><ele>173.0</ele><time>2026-04-18T15:30:32.964Z</time></trkpt><trkpt lat="45.0646732" lon="8.2810552"><ele>173.0</ele><time>2026-04-18T15:30:33.972Z</time></trkpt><trkpt lat="45.0645829" lon="8.2809592"><ele>173.0</ele><time>2026-04-18T15:30:34.966Z</time></trkpt><trkpt lat="45.0645082" lon="8.2808843"><ele>173.0</ele><time>2026-04-18T15:30:35.973Z</time></trkpt><trkpt lat="45.0644392" lon="8.2808184"><ele>173.0</ele><time>2026-04-18T15:30:36.974Z</time></trkpt><trkpt lat="45.0643704" lon="8.2807554"><ele>173.0</ele><time>2026-04-18T15:30:37.968Z</time></trkpt><trkpt lat="45.0643005" lon="8.2806939"><ele>173.0</ele><time>2026-04-18T15:30:38.97Z</time></trkpt><trkpt lat="45.0642308" lon="8.2806358"><ele>173.0</ele><time>2026-04-18T15:30:39.973Z</time></trkpt><trkpt lat="45.0641605" lon="8.2805808"><ele>173.0</ele><time>2026-04-18T15:30:40.973Z</time></trkpt><trkpt lat="45.0640901" lon="8.2805293"><ele>173.2</ele><time>2026-04-18T15:30:41.965Z</time></trkpt><trkpt lat="45.0640166" lon="8.2804778"><ele>173.4</ele><time>2026-04-18T15:30:42.969Z</time></trkpt><trkpt lat="45.0639392" lon="8.2804236"><ele>173.6</ele><time>2026-04-18T15:30:43.965Z</time></trkpt><trkpt lat="45.0638571" lon="8.2803666"><ele>173.79999999999998</ele><time>2026-04-18T15:30:44.966Z</time></trkpt><trkpt lat="45.0637747" lon="8.2803086"><ele>174.0</ele><time>2026-04-18T15:30:45.975Z</time></trkpt><trkpt lat="45.0636858" lon="8.2802474"><ele>174.0</ele><time>2026-04-18T15:30:46.972Z</time></trkpt><trkpt lat="45.0635885" lon="8.2801855"><ele>174.0</ele><time>2026-04-18T15:30:47.973Z</time></trkpt><trkpt lat="45.0634845" lon="8.2801224"><ele>174.0</ele><time>2026-04-18T15:30:48.968Z</time></trkpt><trkpt lat="45.0633755" lon="8.2800557"><ele>174.0</ele><time>2026-04-18T15:30:49.974Z</time></trkpt><trkpt lat="45.0632624" lon="8.2799878"><ele>174.0</ele><time>2026-04-18T15:30:50.975Z</time></trkpt><trkpt lat="45.0631495" lon="8.2799201"><ele>174.0</ele><time>2026-04-18T15:30:51.974Z</time></trkpt><trkpt lat="45.0630418" lon="8.2798552"><ele>174.0</ele><time>2026-04-18T15:30:52.972Z</time></trkpt><trkpt lat="45.0629351" lon="8.2797904"><ele>174.0</ele><time>2026-04-18T15:30:53.975Z</time></trkpt><trkpt lat="45.0628235" lon="8.2797243"><ele>174.0</ele><time>2026-04-18T15:30:54.973Z</time></trkpt><trkpt lat="45.0627078" lon="8.2796543"><ele>174.0</ele><time>2026-04-18T15:30:55.968Z</time></trkpt><trkpt lat="45.0625842" lon="8.2795816"><ele>174.0</ele><time>2026-04-18T15:30:56.965Z</time></trkpt><trkpt lat="45.0624555" lon="8.2795044"><ele>174.0</ele><time>2026-04-18T15:30:57.964Z</time></trkpt><trkpt lat="45.0623289" lon="8.2794273"><ele>174.5</ele><time>2026-04-18T15:30:58.969Z</time></trkpt><trkpt lat="45.0622081" lon="8.2793514"><ele>175.0</ele><time>2026-04-18T15:30:59.97Z</time></trkpt><trkpt lat="45.0620824" lon="8.2792766"><ele>175.5</ele><time>2026-04-18T15:31:00.974Z</time></trkpt><trkpt lat="45.0619589" lon="8.2792035"><ele>176.0</ele><time>2026-04-18T15:31:01.966Z</time></trkpt><trkpt lat="45.0618398" lon="8.2791331"><ele>176.0</ele><time>2026-04-18T15:31:02.975Z</time></trkpt><trkpt lat="45.0617217" lon="8.2790623"><ele>176.0</ele><time>2026-04-18T15:31:03.974Z</time></trkpt><trkpt lat="45.0616029" lon="8.2789921"><ele>176.0</ele><time>2026-04-18T15:31:04.968Z</time></trkpt><trkpt lat="45.061487" lon="8.2789207"><ele>176.0</ele><time>2026-04-18T15:31:05.963Z</time></trkpt><trkpt lat="45.0613693" lon="8.2788507"><ele>176.25</ele><time>2026-04-18T15:31:06.967Z</time></trkpt><trkpt lat="45.0612504" lon="8.2787782"><ele>176.5</ele><time>2026-04-18T15:31:07.967Z</time></trkpt><trkpt lat="45.061132" lon="8.2787107"><ele>176.75</ele><time>2026-04-18T15:31:08.962Z</time></trkpt><trkpt lat="45.061013" lon="8.2786402"><ele>177.0</ele><time>2026-04-18T15:31:09.963Z</time></trkpt><trkpt lat="45.0608942" lon="8.2785685"><ele>177.0</ele><time>2026-04-18T15:31:10.959Z</time></trkpt><trkpt lat="45.0607791" lon="8.2784985"><ele>177.0</ele><time>2026-04-18T15:31:11.966Z</time></trkpt><trkpt lat="45.0606602" lon="8.2784255"><ele>177.0</ele><time>2026-04-18T15:31:12.971Z</time></trkpt><trkpt lat="45.0605429" lon="8.278354"><ele>177.0</ele><time>2026-04-18T15:31:13.967Z</time></trkpt><trkpt lat="45.0604217" lon="8.2782802"><ele>177.0</ele><time>2026-04-18T15:31:14.964Z</time></trkpt><trkpt lat="45.0603001" lon="8.278207"><ele>177.0</ele><time>2026-04-18T15:31:15.967Z</time></trkpt><trkpt lat="45.0601792" lon="8.2781334"><ele>177.0</ele><time>2026-04-18T15:31:16.962Z</time></trkpt><trkpt lat="45.0600564" lon="8.2780608"><ele>177.0</ele><time>2026-04-18T15:31:17.96Z</time></trkpt><trkpt lat="45.0599353" lon="8.2779858"><ele>177.25</ele><time>2026-04-18T15:31:18.961Z</time></trkpt><trkpt lat="45.0598128" lon="8.2779111"><ele>177.5</ele><time>2026-04-18T15:31:19.961Z</time></trkpt><trkpt lat="45.0596893" lon="8.2778353"><ele>177.75</ele><time>2026-04-18T15:31:20.959Z</time></trkpt><trkpt lat="45.0595646" lon="8.2777598"><ele>178.0</ele><time>2026-04-18T15:31:21.959Z</time></trkpt><trkpt lat="45.0594419" lon="8.2776838"><ele>178.0</ele><time>2026-04-18T15:31:22.963Z</time></trkpt><trkpt lat="45.0593173" lon="8.2776086"><ele>178.0</ele><time>2026-04-18T15:31:23.966Z</time></trkpt><trkpt lat="45.0591952" lon="8.2775344"><ele>178.0</ele><time>2026-04-18T15:31:24.961Z</time></trkpt><trkpt lat="45.0590756" lon="8.2774597"><ele>178.0</ele><time>2026-04-18T15:31:25.965Z</time></trkpt><trkpt lat="45.0589595" lon="8.277386"><ele>178.0</ele><time>2026-04-18T15:31:26.969Z</time></trkpt><trkpt lat="45.0588486" lon="8.2773146"><ele>178.0</ele><time>2026-04-18T15:31:27.965Z</time></trkpt><trkpt lat="45.0587382" lon="8.2772405"><ele>178.0</ele><time>2026-04-18T15:31:28.965Z</time></trkpt><trkpt lat="45.0586347" lon="8.2771712"><ele>178.0</ele><time>2026-04-18T15:31:29.968Z</time></trkpt><trkpt lat="45.0585511" lon="8.2771178"><ele>178.4</ele><time>2026-04-18T15:31:30.966Z</time></trkpt><trkpt lat="45.0584918" lon="8.2770821"><ele>178.8</ele><time>2026-04-18T15:31:31.971Z</time></trkpt><trkpt lat="45.0584195" lon="8.2770437"><ele>179.2</ele><time>2026-04-18T15:31:39.966Z</time></trkpt><trkpt lat="45.0583411" lon="8.2769943"><ele>179.6</ele><time>2026-04-18T15:31:41.967Z</time></trkpt><trkpt lat="45.0582617" lon="8.2769442"><ele>180.0</ele><time>2026-04-18T15:31:43.975Z</time></trkpt><trkpt lat="45.0581506" lon="8.2768316"><ele>180.0</ele><time>2026-04-18T15:31:45.974Z</time></trkpt><trkpt lat="45.0581006" lon="8.2767253"><ele>180.0</ele><time>2026-04-18T15:31:46.971Z</time></trkpt><trkpt lat="45.0580702" lon="8.2766025"><ele>180.0</ele><time>2026-04-18T15:31:47.967Z</time></trkpt><trkpt lat="45.0580556" lon="8.2764677"><ele>180.0</ele><time>2026-04-18T15:31:48.967Z</time></trkpt><trkpt lat="45.058061" lon="8.2763212"><ele>180.0</ele><time>2026-04-18T15:31:49.973Z</time></trkpt><trkpt lat="45.0580888" lon="8.2761669"><ele>180.0</ele><time>2026-04-18T15:31:50.973Z</time></trkpt><trkpt lat="45.0581304" lon="8.2759831"><ele>180.0</ele><time>2026-04-18T15:31:51.967Z</time></trkpt><trkpt lat="45.0581838" lon="8.2757673"><ele>180.0</ele><time>2026-04-18T15:31:52.966Z</time></trkpt><trkpt lat="45.0582514" lon="8.2755451"><ele>180.66666666666666</ele><time>2026-04-18T15:31:53.968Z</time></trkpt><trkpt lat="45.0583209" lon="8.2753247"><ele>181.33333333333331</ele><time>2026-04-18T15:31:54.969Z</time></trkpt><trkpt lat="45.0583881" lon="8.2750965"><ele>182.0</ele><time>2026-04-18T15:31:55.971Z</time></trkpt><trkpt lat="45.0584591" lon="8.2748633"><ele>183.33333333333331</ele><time>2026-04-18T15:31:56.968Z</time></trkpt><trkpt lat="45.0585341" lon="8.2746277"><ele>184.66666666666666</ele><time>2026-04-18T15:31:57.961Z</time></trkpt><trkpt lat="45.0586154" lon="8.2743871"><ele>186.0</ele><time>2026-04-18T15:31:58.971Z</time></trkpt><trkpt lat="45.0586939" lon="8.2741435"><ele>188.0</ele><time>2026-04-18T15:31:59.965Z</time></trkpt><trkpt lat="45.0587735" lon="8.2738928"><ele>190.0</ele><time>2026-04-18T15:32:00.967Z</time></trkpt><trkpt lat="45.0588528" lon="8.2736362"><ele>192.0</ele><time>2026-04-18T15:32:01.968Z</time></trkpt><trkpt lat="45.0589324" lon="8.2733797"><ele>192.0</ele><time>2026-04-18T15:32:02.971Z</time></trkpt><trkpt lat="45.0590095" lon="8.2731169"><ele>192.0</ele><time>2026-04-18T15:32:03.965Z</time></trkpt><trkpt lat="45.0590838" lon="8.272853"><ele>192.0</ele><time>2026-04-18T15:32:04.964Z</time></trkpt><trkpt lat="45.0591535" lon="8.2725861"><ele>190.66666666666666</ele><time>2026-04-18T15:32:05.975Z</time></trkpt><trkpt lat="45.0592163" lon="8.2723173"><ele>189.33333333333331</ele><time>2026-04-18T15:32:06.963Z</time></trkpt><trkpt lat="45.0592761" lon="8.2720516"><ele>188.0</ele><time>2026-04-18T15:32:07.968Z</time></trkpt><trkpt lat="45.0593348" lon="8.2717885"><ele>188.0</ele><time>2026-04-18T15:32:08.97Z</time></trkpt><trkpt lat="45.0593931" lon="8.2715335"><ele>188.0</ele><time>2026-04-18T15:32:09.963Z</time></trkpt><trkpt lat="45.0594522" lon="8.2712747"><ele>188.0</ele><time>2026-04-18T15:32:10.967Z</time></trkpt><trkpt lat="45.0595105" lon="8.271012"><ele>188.33333333333331</ele><time>2026-04-18T15:32:11.969Z</time></trkpt><trkpt lat="45.0595702" lon="8.2707425"><ele>188.66666666666666</ele><time>2026-04-18T15:32:12.97Z</time></trkpt><trkpt lat="45.0596292" lon="8.2704681"><ele>189.0</ele><time>2026-04-18T15:32:13.975Z</time></trkpt><trkpt lat="45.0596769" lon="8.2701861"><ele>189.66666666666666</ele><time>2026-04-18T15:32:14.975Z</time></trkpt><trkpt lat="45.0597103" lon="8.2698934"><ele>190.33333333333331</ele><time>2026-04-18T15:32:15.972Z</time></trkpt><trkpt lat="45.0597316" lon="8.2695941"><ele>191.0</ele><time>2026-04-18T15:32:16.967Z</time></trkpt><trkpt lat="45.0597498" lon="8.2692906"><ele>191.33333333333331</ele><time>2026-04-18T15:32:17.974Z</time></trkpt><trkpt lat="45.0597663" lon="8.2689834"><ele>191.66666666666666</ele><time>2026-04-18T15:32:18.966Z</time></trkpt><trkpt lat="45.0597821" lon="8.2686761"><ele>192.0</ele><time>2026-04-18T15:32:19.968Z</time></trkpt><trkpt lat="45.0597905" lon="8.2683667"><ele>193.66666666666669</ele><time>2026-04-18T15:32:20.969Z</time></trkpt><trkpt lat="45.0597833" lon="8.2680556"><ele>195.33333333333334</ele><time>2026-04-18T15:32:21.964Z</time></trkpt><trkpt lat="45.059767" lon="8.2677422"><ele>197.0</ele><time>2026-04-18T15:32:22.97Z</time></trkpt><trkpt lat="45.0597453" lon="8.2674287"><ele>197.0</ele><time>2026-04-18T15:32:23.969Z</time></trkpt><trkpt lat="45.059725" lon="8.2671136"><ele>197.0</ele><time>2026-04-18T15:32:24.973Z</time></trkpt><trkpt lat="45.0597034" lon="8.2667983"><ele>197.0</ele><time>2026-04-18T15:32:25.974Z</time></trkpt><trkpt lat="45.0596806" lon="8.266483"><ele>196.66666666666669</ele><time>2026-04-18T15:32:26.969Z</time></trkpt><trkpt lat="45.0596554" lon="8.2661707"><ele>196.33333333333331</ele><time>2026-04-18T15:32:27.971Z</time></trkpt><trkpt lat="45.0596315" lon="8.2658601"><ele>196.0</ele><time>2026-04-18T15:32:28.975Z</time></trkpt><trkpt lat="45.0596076" lon="8.2655548"><ele>195.66666666666666</ele><time>2026-04-18T15:32:29.975Z</time></trkpt><trkpt lat="45.0595819" lon="8.2652587"><ele>195.33333333333331</ele><time>2026-04-18T15:32:30.975Z</time></trkpt><trkpt lat="45.0595448" lon="8.2649739"><ele>195.0</ele><time>2026-04-18T15:32:31.969Z</time></trkpt><trkpt lat="45.0595007" lon="8.2646977"><ele>195.0</ele><time>2026-04-18T15:32:32.965Z</time></trkpt><trkpt lat="45.0594471" lon="8.2644325"><ele>195.0</ele><time>2026-04-18T15:32:33.967Z</time></trkpt><trkpt lat="45.0593917" lon="8.2641732"><ele>195.0</ele><time>2026-04-18T15:32:34.963Z</time></trkpt><trkpt lat="45.0593414" lon="8.2639251"><ele>194.0</ele><time>2026-04-18T15:32:35.965Z</time></trkpt><trkpt lat="45.0593014" lon="8.2636814"><ele>193.0</ele><time>2026-04-18T15:32:36.975Z</time></trkpt><trkpt lat="45.0592763" lon="8.2634475"><ele>192.0</ele><time>2026-04-18T15:32:37.97Z</time></trkpt><trkpt lat="45.0592619" lon="8.2632221"><ele>191.66666666666666</ele><time>2026-04-18T15:32:38.971Z</time></trkpt><trkpt lat="45.0592539" lon="8.2630015"><ele>191.33333333333331</ele><time>2026-04-18T15:32:39.97Z</time></trkpt><trkpt lat="45.0592416" lon="8.2627793"><ele>191.0</ele><time>2026-04-18T15:32:40.972Z</time></trkpt><trkpt lat="45.059227" lon="8.2625532"><ele>191.0</ele><time>2026-04-18T15:32:41.967Z</time></trkpt><trkpt lat="45.0592221" lon="8.2623277"><ele>191.0</ele><time>2026-04-18T15:32:42.969Z</time></trkpt><trkpt lat="45.0592284" lon="8.2621055"><ele>191.0</ele><time>2026-04-18T15:32:43.973Z</time></trkpt><trkpt lat="45.0592427" lon="8.2618839"><ele>191.0</ele><time>2026-04-18T15:32:44.967Z</time></trkpt><trkpt lat="45.0592596" lon="8.261668"><ele>191.0</ele><time>2026-04-18T15:32:45.97Z</time></trkpt><trkpt lat="45.059272" lon="8.2614632"><ele>191.0</ele><time>2026-04-18T15:32:46.975Z</time></trkpt><trkpt lat="45.0592829" lon="8.2612646"><ele>191.0</ele><time>2026-04-18T15:32:47.972Z</time></trkpt><trkpt lat="45.0592933" lon="8.2610867"><ele>191.25</ele><time>2026-04-18T15:32:48.968Z</time></trkpt><trkpt lat="45.0593026" lon="8.2609157"><ele>191.5</ele><time>2026-04-18T15:32:49.968Z</time></trkpt><trkpt lat="45.059314" lon="8.2607419"><ele>191.75</ele><time>2026-04-18T15:32:50.974Z</time></trkpt><trkpt lat="45.0593239" lon="8.2605681"><ele>192.0</ele><time>2026-04-18T15:32:51.975Z</time></trkpt><trkpt lat="45.0593338" lon="8.2603973"><ele>192.2</ele><time>2026-04-18T15:32:52.974Z</time></trkpt><trkpt lat="45.0593441" lon="8.260232"><ele>192.39999999999998</ele><time>2026-04-18T15:32:53.97Z</time></trkpt><trkpt lat="45.0593521" lon="8.2600892"><ele>192.60000000000002</ele><time>2026-04-18T15:32:54.967Z</time></trkpt><trkpt lat="45.0593505" lon="8.2599781"><ele>192.8</ele><time>2026-04-18T15:32:55.973Z</time></trkpt><trkpt lat="45.0593158" lon="8.2598466"><ele>193.0</ele><time>2026-04-18T15:32:57.965Z</time></trkpt><trkpt lat="45.0591873" lon="8.2597729"><ele>194.75</ele><time>2026-04-18T15:32:59.959Z</time></trkpt><trkpt lat="45.059083" lon="8.2597573"><ele>196.5</ele><time>2026-04-18T15:33:00.971Z</time></trkpt><trkpt lat="45.0589575" lon="8.2597467"><ele>198.25</ele><time>2026-04-18T15:33:01.968Z</time></trkpt><trkpt lat="45.0588273" lon="8.2597382"><ele>200.0</ele><time>2026-04-18T15:33:02.974Z</time></trkpt><trkpt lat="45.0586946" lon="8.2597251"><ele>200.0</ele><time>2026-04-18T15:33:03.971Z</time></trkpt><trkpt lat="45.0585494" lon="8.2597141"><ele>200.0</ele><time>2026-04-18T15:33:04.974Z</time></trkpt><trkpt lat="45.0584039" lon="8.2596976"><ele>200.0</ele><time>2026-04-18T15:33:05.967Z</time></trkpt><trkpt lat="45.0582538" lon="8.259692"><ele>200.0</ele><time>2026-04-18T15:33:06.971Z</time></trkpt><trkpt lat="45.0580988" lon="8.2597173"><ele>201.0</ele><time>2026-04-18T15:33:07.973Z</time></trkpt><trkpt lat="45.0579432" lon="8.2597768"><ele>202.0</ele><time>2026-04-18T15:33:08.969Z</time></trkpt><trkpt lat="45.0577907" lon="8.2598744"><ele>203.0</ele><time>2026-04-18T15:33:09.965Z</time></trkpt><trkpt lat="45.0576407" lon="8.2599944"><ele>203.33333333333334</ele><time>2026-04-18T15:33:10.975Z</time></trkpt><trkpt lat="45.057491" lon="8.2601318"><ele>203.66666666666669</ele><time>2026-04-18T15:33:11.97Z</time></trkpt><trkpt lat="45.0573384" lon="8.2602662"><ele>204.0</ele><time>2026-04-18T15:33:12.969Z</time></trkpt><trkpt lat="45.0571797" lon="8.2603993"><ele>205.66666666666669</ele><time>2026-04-18T15:33:13.968Z</time></trkpt><trkpt lat="45.0570179" lon="8.2605321"><ele>207.33333333333334</ele><time>2026-04-18T15:33:14.968Z</time></trkpt><trkpt lat="45.056857" lon="8.2606725"><ele>209.0</ele><time>2026-04-18T15:33:15.964Z</time></trkpt><trkpt lat="45.0566976" lon="8.2608104"><ele>212.66666666666669</ele><time>2026-04-18T15:33:16.961Z</time></trkpt><trkpt lat="45.0565408" lon="8.2609465"><ele>216.33333333333331</ele><time>2026-04-18T15:33:17.964Z</time></trkpt><trkpt lat="45.056384" lon="8.2610799"><ele>220.0</ele><time>2026-04-18T15:33:18.975Z</time></trkpt><trkpt lat="45.0562315" lon="8.261202"><ele>220.0</ele><time>2026-04-18T15:33:19.967Z</time></trkpt><trkpt lat="45.0560764" lon="8.2613136"><ele>220.0</ele><time>2026-04-18T15:33:20.969Z</time></trkpt><trkpt lat="45.0559094" lon="8.2614138"><ele>220.0</ele><time>2026-04-18T15:33:21.969Z</time></trkpt><trkpt lat="45.0557351" lon="8.261506"><ele>222.66666666666666</ele><time>2026-04-18T15:33:22.967Z</time></trkpt><trkpt lat="45.0555572" lon="8.2615919"><ele>225.33333333333331</ele><time>2026-04-18T15:33:23.971Z</time></trkpt><trkpt lat="45.0553802" lon="8.261674"><ele>228.0</ele><time>2026-04-18T15:33:24.959Z</time></trkpt><trkpt lat="45.0552099" lon="8.2617526"><ele>228.0</ele><time>2026-04-18T15:33:25.972Z</time></trkpt><trkpt lat="45.055054" lon="8.2618256"><ele>228.0</ele><time>2026-04-18T15:33:26.974Z</time></trkpt><trkpt lat="45.0549105" lon="8.2618943"><ele>228.0</ele><time>2026-04-18T15:33:27.973Z</time></trkpt><trkpt lat="45.0547771" lon="8.2619553"><ele>230.25</ele><time>2026-04-18T15:33:28.971Z</time></trkpt><trkpt lat="45.054655" lon="8.2620138"><ele>232.5</ele><time>2026-04-18T15:33:29.972Z</time></trkpt><trkpt lat="45.054546" lon="8.2620709"><ele>234.75</ele><time>2026-04-18T15:33:30.967Z</time></trkpt><trkpt lat="45.0544469" lon="8.2621176"><ele>237.0</ele><time>2026-04-18T15:33:31.967Z</time></trkpt><trkpt lat="45.0543492" lon="8.2621475"><ele>237.0</ele><time>2026-04-18T15:33:32.974Z</time></trkpt><trkpt lat="45.0542474" lon="8.2621493"><ele>237.0</ele><time>2026-04-18T15:33:33.968Z</time></trkpt><trkpt lat="45.0541484" lon="8.2621112"><ele>237.0</ele><time>2026-04-18T15:33:34.975Z</time></trkpt><trkpt lat="45.0540564" lon="8.2620338"><ele>237.0</ele><time>2026-04-18T15:33:35.968Z</time></trkpt><trkpt lat="45.0539767" lon="8.2619095"><ele>237.0</ele><time>2026-04-18T15:33:36.967Z</time></trkpt><trkpt lat="45.0539101" lon="8.2617577"><ele>242.0</ele><time>2026-04-18T15:33:37.971Z</time></trkpt><trkpt lat="45.05387" lon="8.2615993"><ele>247.0</ele><time>2026-04-18T15:33:38.972Z</time></trkpt><trkpt lat="45.0538552" lon="8.2614431"><ele>252.0</ele><time>2026-04-18T15:33:39.967Z</time></trkpt><trkpt lat="45.0538654" lon="8.2612694"><ele>257.0</ele><time>2026-04-18T15:33:40.974Z</time></trkpt><trkpt lat="45.0538945" lon="8.261059"><ele>258.33333333333337</ele><time>2026-04-18T15:33:41.961Z</time></trkpt><trkpt lat="45.0539324" lon="8.2608232"><ele>259.6666666666667</ele><time>2026-04-18T15:33:42.967Z</time></trkpt><trkpt lat="45.0539708" lon="8.2605923"><ele>261.0</ele><time>2026-04-18T15:33:43.967Z</time></trkpt><trkpt lat="45.0540116" lon="8.2603603"><ele>258.3333333333333</ele><time>2026-04-18T15:33:44.966Z</time></trkpt><trkpt lat="45.0540542" lon="8.2601243"><ele>255.66666666666666</ele><time>2026-04-18T15:33:45.967Z</time></trkpt><trkpt lat="45.0540991" lon="8.2598789"><ele>253.0</ele><time>2026-04-18T15:33:46.975Z</time></trkpt><trkpt lat="45.0541453" lon="8.2596306"><ele>253.0</ele><time>2026-04-18T15:33:47.971Z</time></trkpt><trkpt lat="45.0541876" lon="8.2593766"><ele>253.0</ele><time>2026-04-18T15:33:48.974Z</time></trkpt><trkpt lat="45.0542237" lon="8.2591146"><ele>253.0</ele><time>2026-04-18T15:33:49.974Z</time></trkpt><trkpt lat="45.054247" lon="8.2588489"><ele>255.66666666666666</ele><time>2026-04-18T15:33:50.973Z</time></trkpt><trkpt lat="45.0542554" lon="8.258581"><ele>258.3333333333333</ele><time>2026-04-18T15:33:51.969Z</time></trkpt><trkpt lat="45.0542557" lon="8.2583231"><ele>261.0</ele><time>2026-04-18T15:33:52.969Z</time></trkpt><trkpt lat="45.0542644" lon="8.2580723"><ele>263.3333333333333</ele><time>2026-04-18T15:33:53.966Z</time></trkpt><trkpt lat="45.0543028" lon="8.2578204"><ele>265.66666666666663</ele><time>2026-04-18T15:33:54.967Z</time></trkpt><trkpt lat="45.0543642" lon="8.2575719"><ele>268.0</ele><time>2026-04-18T15:33:55.964Z</time></trkpt><trkpt lat="45.0544306" lon="8.2573419"><ele>272.0</ele><time>2026-04-18T15:33:56.969Z</time></trkpt><trkpt lat="45.0544918" lon="8.2571229"><ele>276.0</ele><time>2026-04-18T15:33:57.965Z</time></trkpt><trkpt lat="45.0545385" lon="8.2568912"><ele>280.0</ele><time>2026-04-18T15:33:58.962Z</time></trkpt><trkpt lat="45.0545672" lon="8.2566427"><ele>284.0</ele><time>2026-04-18T15:33:59.966Z</time></trkpt><trkpt lat="45.0545849" lon="8.2563843"><ele>288.0</ele><time>2026-04-18T15:34:00.968Z</time></trkpt><trkpt lat="45.054604" lon="8.2561256"><ele>292.0</ele><time>2026-04-18T15:34:01.974Z</time></trkpt><trkpt lat="45.0546322" lon="8.2558855"><ele>292.0</ele><time>2026-04-18T15:34:02.974Z</time></trkpt><trkpt lat="45.0546679" lon="8.2556647"><ele>292.0</ele><time>2026-04-18T15:34:03.968Z</time></trkpt><trkpt lat="45.0547098" lon="8.2554667"><ele>292.0</ele><time>2026-04-18T15:34:04.975Z</time></trkpt><trkpt lat="45.0547542" lon="8.2552989"><ele>292.0</ele><time>2026-04-18T15:34:05.966Z</time></trkpt><trkpt lat="45.0547866" lon="8.2551624"><ele>292.8333333333333</ele><time>2026-04-18T15:34:06.973Z</time></trkpt><trkpt lat="45.0547893" lon="8.2550469"><ele>293.66666666666663</ele><time>2026-04-18T15:34:07.974Z</time></trkpt><trkpt lat="45.0547557" lon="8.254958"><ele>294.5</ele><time>2026-04-18T15:34:08.965Z</time></trkpt><trkpt lat="45.054694" lon="8.254918"><ele>295.3333333333333</ele><time>2026-04-18T15:34:09.969Z</time></trkpt><trkpt lat="45.0546236" lon="8.2549322"><ele>296.1666666666667</ele><time>2026-04-18T15:34:10.975Z</time></trkpt><trkpt lat="45.0545633" lon="8.2549997"><ele>297.0</ele><time>2026-04-18T15:34:11.963Z</time></trkpt><trkpt lat="45.0545059" lon="8.2551192"><ele>297.0</ele><time>2026-04-18T15:34:12.975Z</time></trkpt><trkpt lat="45.0544495" lon="8.2552857"><ele>297.0</ele><time>2026-04-18T15:34:13.97Z</time></trkpt><trkpt lat="45.0544005" lon="8.2554921"><ele>297.0</ele><time>2026-04-18T15:34:14.973Z</time></trkpt><trkpt lat="45.0543567" lon="8.2557137"><ele>297.0</ele><time>2026-04-18T15:34:15.972Z</time></trkpt><trkpt lat="45.0543082" lon="8.255931"><ele>295.3333333333333</ele><time>2026-04-18T15:34:16.96Z</time></trkpt><trkpt lat="45.0542442" lon="8.2561501"><ele>293.66666666666663</ele><time>2026-04-18T15:34:17.967Z</time></trkpt><trkpt lat="45.0541647" lon="8.2563629"><ele>292.0</ele><time>2026-04-18T15:34:18.971Z</time></trkpt><trkpt lat="45.0540693" lon="8.2565778"><ele>296.0</ele><time>2026-04-18T15:34:19.967Z</time></trkpt><trkpt lat="45.0539583" lon="8.256794"><ele>300.0</ele><time>2026-04-18T15:34:20.968Z</time></trkpt><trkpt lat="45.0538427" lon="8.2570114"><ele>304.0</ele><time>2026-04-18T15:34:21.975Z</time></trkpt><trkpt lat="45.0537287" lon="8.2572253"><ele>302.66666666666663</ele><time>2026-04-18T15:34:22.967Z</time></trkpt><trkpt lat="45.053617" lon="8.25744"><ele>301.3333333333333</ele><time>2026-04-18T15:34:23.964Z</time></trkpt><trkpt lat="45.0535094" lon="8.2576595"><ele>300.0</ele><time>2026-04-18T15:34:24.972Z</time></trkpt><trkpt lat="45.0534114" lon="8.2578895"><ele>301.3333333333333</ele><time>2026-04-18T15:34:25.969Z</time></trkpt><trkpt lat="45.0533233" lon="8.2581336"><ele>302.66666666666663</ele><time>2026-04-18T15:34:26.974Z</time></trkpt><trkpt lat="45.053241" lon="8.2583843"><ele>304.0</ele><time>2026-04-18T15:34:27.972Z</time></trkpt><trkpt lat="45.0531619" lon="8.2586397"><ele>304.0</ele><time>2026-04-18T15:34:28.974Z</time></trkpt><trkpt lat="45.0530858" lon="8.258892"><ele>304.0</ele><time>2026-04-18T15:34:29.967Z</time></trkpt><trkpt lat="45.0530125" lon="8.2591436"><ele>304.0</ele><time>2026-04-18T15:34:30.968Z</time></trkpt><trkpt lat="45.052942" lon="8.2593901"><ele>304.66666666666663</ele><time>2026-04-18T15:34:31.969Z</time></trkpt><trkpt lat="45.0528742" lon="8.2596201"><ele>305.3333333333333</ele><time>2026-04-18T15:34:32.967Z</time></trkpt><trkpt lat="45.0528029" lon="8.2598281"><ele>306.0</ele><time>2026-04-18T15:34:33.965Z</time></trkpt><trkpt lat="45.0527267" lon="8.2600375"><ele>306.0</ele><time>2026-04-18T15:34:34.968Z</time></trkpt><trkpt lat="45.0526496" lon="8.2602601"><ele>306.0</ele><time>2026-04-18T15:34:35.963Z</time></trkpt><trkpt lat="45.0525732" lon="8.260491"><ele>306.0</ele><time>2026-04-18T15:34:36.968Z</time></trkpt><trkpt lat="45.0524969" lon="8.2607229"><ele>303.3333333333333</ele><time>2026-04-18T15:34:37.966Z</time></trkpt><trkpt lat="45.0524232" lon="8.260954"><ele>300.66666666666663</ele><time>2026-04-18T15:34:38.975Z</time></trkpt><trkpt lat="45.0523526" lon="8.2611829"><ele>298.0</ele><time>2026-04-18T15:34:39.962Z</time></trkpt><trkpt lat="45.052287" lon="8.2614086"><ele>300.3333333333333</ele><time>2026-04-18T15:34:40.968Z</time></trkpt><trkpt lat="45.05222" lon="8.2616308"><ele>302.6666666666667</ele><time>2026-04-18T15:34:41.968Z</time></trkpt><trkpt lat="45.0521532" lon="8.2618441"><ele>305.0</ele><time>2026-04-18T15:34:42.963Z</time></trkpt><trkpt lat="45.0520877" lon="8.2620459"><ele>305.0</ele><time>2026-04-18T15:34:43.967Z</time></trkpt><trkpt lat="45.0520263" lon="8.2622347"><ele>305.0</ele><time>2026-04-18T15:34:44.964Z</time></trkpt><trkpt lat="45.0519739" lon="8.2624133"><ele>305.0</ele><time>2026-04-18T15:34:45.972Z</time></trkpt><trkpt lat="45.0519274" lon="8.2625867"><ele>305.0</ele><time>2026-04-18T15:34:46.969Z</time></trkpt><trkpt lat="45.0518852" lon="8.2627576"><ele>304.8</ele><time>2026-04-18T15:34:47.975Z</time></trkpt><trkpt lat="45.0518453" lon="8.2629232"><ele>304.6</ele><time>2026-04-18T15:34:48.968Z</time></trkpt><trkpt lat="45.0518101" lon="8.2630779"><ele>304.4</ele><time>2026-04-18T15:34:49.965Z</time></trkpt><trkpt lat="45.0517805" lon="8.263211"><ele>304.2</ele><time>2026-04-18T15:34:50.97Z</time></trkpt><trkpt lat="45.0517565" lon="8.2633425"><ele>304.0</ele><time>2026-04-18T15:34:51.974Z</time></trkpt><trkpt lat="45.0517262" lon="8.2634772"><ele>304.0</ele><time>2026-04-18T15:34:52.969Z</time></trkpt><trkpt lat="45.0516975" lon="8.2636189"><ele>304.0</ele><time>2026-04-18T15:34:53.97Z</time></trkpt><trkpt lat="45.0516691" lon="8.2637667"><ele>304.0</ele><time>2026-04-18T15:34:54.975Z</time></trkpt><trkpt lat="45.0516353" lon="8.2639187"><ele>304.0</ele><time>2026-04-18T15:34:55.969Z</time></trkpt><trkpt lat="45.0516021" lon="8.2640768"><ele>304.0</ele><time>2026-04-18T15:34:56.972Z</time></trkpt><trkpt lat="45.051566" lon="8.2642362"><ele>305.25</ele><time>2026-04-18T15:34:57.964Z</time></trkpt><trkpt lat="45.0515321" lon="8.2643958"><ele>306.5</ele><time>2026-04-18T15:34:58.969Z</time></trkpt><trkpt lat="45.0515058" lon="8.2645539"><ele>307.75</ele><time>2026-04-18T15:34:59.972Z</time></trkpt><trkpt lat="45.0514942" lon="8.2647092"><ele>309.0</ele><time>2026-04-18T15:35:00.964Z</time></trkpt><trkpt lat="45.0514904" lon="8.2648602"><ele>310.2</ele><time>2026-04-18T15:35:01.968Z</time></trkpt><trkpt lat="45.0515062" lon="8.2650023"><ele>311.4</ele><time>2026-04-18T15:35:02.965Z</time></trkpt><trkpt lat="45.0515204" lon="8.2651409"><ele>312.6</ele><time>2026-04-18T15:35:03.967Z</time></trkpt><trkpt lat="45.0515352" lon="8.265274"><ele>313.8</ele><time>2026-04-18T15:35:04.968Z</time></trkpt><trkpt lat="45.0515531" lon="8.2653995"><ele>315.0</ele><time>2026-04-18T15:35:05.972Z</time></trkpt><trkpt lat="45.0515639" lon="8.2655137"><ele>314.8333333333333</ele><time>2026-04-18T15:35:06.966Z</time></trkpt><trkpt lat="45.051575" lon="8.265615"><ele>314.6666666666667</ele><time>2026-04-18T15:35:07.966Z</time></trkpt><trkpt lat="45.0515781" lon="8.2657637"><ele>314.5</ele><time>2026-04-18T15:35:09.974Z</time></trkpt><trkpt lat="45.0515614" lon="8.26585"><ele>314.33333333333337</ele><time>2026-04-18T15:35:11.965Z</time></trkpt><trkpt lat="45.0515118" lon="8.265952"><ele>314.1666666666667</ele><time>2026-04-18T15:35:15.965Z</time></trkpt><trkpt lat="45.0514493" lon="8.2659854"><ele>314.0</ele><time>2026-04-18T15:35:17.971Z</time></trkpt><trkpt lat="45.0513897" lon="8.2659314"><ele>314.0</ele><time>2026-04-18T15:35:19.964Z</time></trkpt><trkpt lat="45.0513857" lon="8.265822"><ele>314.0</ele><time>2026-04-18T15:35:21.971Z</time></trkpt><trkpt lat="45.0513954" lon="8.2657226"><ele>314.0</ele><time>2026-04-18T15:35:23.965Z</time></trkpt><trkpt lat="45.0513964" lon="8.2656315"><ele>314.0</ele><time>2026-04-18T15:35:25.967Z</time></trkpt><trkpt lat="45.0513584" lon="8.2655439"><ele>314.0</ele><time>2026-04-18T15:35:28.972Z</time></trkpt><trkpt lat="45.0514353" lon="8.2655875"><ele>314.0</ele><time>2026-04-18T15:39:17.975Z</time></trkpt><trkpt lat="45.0514212" lon="8.2657056"><ele>313.99999999999994</ele><time>2026-04-18T15:39:59.846Z</time></trkpt><trkpt lat="45.05141" lon="8.265815"><ele>314.0</ele><time>2026-04-18T15:40:34.966Z</time></trkpt><trkpt lat="45.051457" lon="8.2657491"><ele>314.0</ele><time>2026-04-18T15:40:52.909Z</time></trkpt><trkpt lat="45.0514329" lon="8.2658361"><ele>314.0</ele><time>2026-04-18T15:41:50.912Z</time></trkpt><trkpt lat="45.0514292" lon="8.2659255"><ele>314.0</ele><time>2026-04-18T15:41:57.974Z</time></trkpt><trkpt lat="45.0514831" lon="8.2660233"><ele>313.99999999999994</ele><time>2026-04-18T15:43:58.975Z</time></trkpt><trkpt lat="45.0514278" lon="8.265969"><ele>314.0</ele><time>2026-04-18T15:44:08.966Z</time></trkpt><trkpt lat="45.0513699" lon="8.2660327"><ele>313.99999999999994</ele><time>2026-04-18T15:44:44.975Z</time></trkpt><trkpt lat="45.0513745" lon="8.2659359"><ele>314.0</ele><time>2026-04-18T15:45:00.895Z</time></trkpt><trkpt lat="45.0513693" lon="8.2658381"><ele>314.0</ele><time>2026-04-18T15:45:05.974Z</time></trkpt><trkpt lat="45.05137" lon="8.2657489"><ele>314.0</ele><time>2026-04-18T15:45:10.975Z</time></trkpt><trkpt lat="45.0513783" lon="8.2656449"><ele>314.0</ele><time>2026-04-18T15:45:16.968Z</time></trkpt><trkpt lat="45.0513849" lon="8.2655432"><ele>313.99999999999994</ele><time>2026-04-18T15:45:23.974Z</time></trkpt><trkpt lat="45.051428" lon="8.2656093"><ele>314.0</ele><time>2026-04-18T15:46:01.975Z</time></trkpt><trkpt lat="45.0514804" lon="8.2656755"><ele>313.99999999999994</ele><time>2026-04-18T15:46:25.974Z</time></trkpt><trkpt lat="45.0514215" lon="8.2657292"><ele>314.0</ele><time>2026-04-18T15:46:30.975Z</time></trkpt><trkpt lat="45.0514546" lon="8.2658053"><ele>314.0</ele><time>2026-04-18T16:23:22.906Z</time></trkpt><trkpt lat="45.0514155" lon="8.2657342"><ele>314.0</ele><time>2026-04-18T16:24:15.958Z</time></trkpt><trkpt lat="45.0513963" lon="8.2656427"><ele>314.0</ele><time>2026-04-18T16:25:39.864Z</time></trkpt><trkpt lat="45.0513512" lon="8.2655213"><ele>313.99999999999994</ele><time>2026-04-18T16:29:29.963Z</time></trkpt><trkpt lat="45.051386" lon="8.2654434"><ele>314.0</ele><time>2026-04-18T16:30:13.974Z</time></trkpt><trkpt lat="45.0513738" lon="8.2653476"><ele>314.0</ele><time>2026-04-18T16:30:14.975Z</time></trkpt><trkpt lat="45.0513075" lon="8.2652455"><ele>314.0</ele><time>2026-04-18T16:30:16.972Z</time></trkpt><trkpt lat="45.0512103" lon="8.2652587"><ele>314.0</ele><time>2026-04-18T16:30:18.974Z</time></trkpt><trkpt lat="45.0511382" lon="8.2653436"><ele>314.0</ele><time>2026-04-18T16:30:20.971Z</time></trkpt><trkpt lat="45.0511345" lon="8.2655267"><ele>314.0</ele><time>2026-04-18T16:30:22.965Z</time></trkpt><trkpt lat="45.0511268" lon="8.2656454"><ele>314.0</ele><time>2026-04-18T16:30:23.961Z</time></trkpt><trkpt lat="45.051107" lon="8.2657577"><ele>314.0</ele><time>2026-04-18T16:30:24.959Z</time></trkpt><trkpt lat="45.0510929" lon="8.2658568"><ele>314.0</ele><time>2026-04-18T16:30:25.975Z</time></trkpt><trkpt lat="45.051077" lon="8.2660228"><ele>314.0</ele><time>2026-04-18T16:30:27.959Z</time></trkpt><trkpt lat="45.0510731" lon="8.2661705"><ele>314.0</ele><time>2026-04-18T16:30:29.965Z</time></trkpt><trkpt lat="45.0510552" lon="8.2662783"><ele>314.0</ele><time>2026-04-18T16:30:31.975Z</time></trkpt><trkpt lat="45.0510377" lon="8.2663674"><ele>314.0</ele><time>2026-04-18T16:30:33.968Z</time></trkpt><trkpt lat="45.0510639" lon="8.2664617"><ele>314.0</ele><time>2026-04-18T16:30:35.963Z</time></trkpt><trkpt lat="45.0511605" lon="8.2665825"><ele>314.0</ele><time>2026-04-18T16:30:37.964Z</time></trkpt><trkpt lat="45.0512282" lon="8.266639"><ele>314.0</ele><time>2026-04-18T16:30:38.967Z</time></trkpt><trkpt lat="45.0512992" lon="8.2666901"><ele>314.0</ele><time>2026-04-18T16:30:39.966Z</time></trkpt><trkpt lat="45.051372" lon="8.2667405"><ele>312.5</ele><time>2026-04-18T16:30:40.957Z</time></trkpt><trkpt lat="45.0514468" lon="8.2667887"><ele>311.0</ele><time>2026-04-18T16:30:41.964Z</time></trkpt><trkpt lat="45.0515153" lon="8.2668376"><ele>309.5</ele><time>2026-04-18T16:30:42.963Z</time></trkpt><trkpt lat="45.0515674" lon="8.2668925"><ele>308.0</ele><time>2026-04-18T16:30:43.961Z</time></trkpt><trkpt lat="45.0515717" lon="8.2670139"><ele>306.5</ele><time>2026-04-18T16:30:45.975Z</time></trkpt><trkpt lat="45.0514606" lon="8.2670757"><ele>305.0</ele><time>2026-04-18T16:30:47.974Z</time></trkpt><trkpt lat="45.0513847" lon="8.267088"><ele>305.0</ele><time>2026-04-18T16:30:48.963Z</time></trkpt><trkpt lat="45.0513005" lon="8.2670936"><ele>305.0</ele><time>2026-04-18T16:30:49.975Z</time></trkpt><trkpt lat="45.0512126" lon="8.267104"><ele>305.0</ele><time>2026-04-18T16:30:50.96Z</time></trkpt><trkpt lat="45.0511196" lon="8.2671149"><ele>305.0</ele><time>2026-04-18T16:30:51.967Z</time></trkpt><trkpt lat="45.0510249" lon="8.2671139"><ele>305.0</ele><time>2026-04-18T16:30:52.967Z</time></trkpt><trkpt lat="45.0509312" lon="8.2670951"><ele>305.0</ele><time>2026-04-18T16:30:53.972Z</time></trkpt><trkpt lat="45.050843" lon="8.267063"><ele>305.0</ele><time>2026-04-18T16:30:54.967Z</time></trkpt><trkpt lat="45.0507578" lon="8.2670078"><ele>305.0</ele><time>2026-04-18T16:30:55.962Z</time></trkpt><trkpt lat="45.0506785" lon="8.2669432"><ele>305.0</ele><time>2026-04-18T16:30:56.957Z</time></trkpt><trkpt lat="45.0506118" lon="8.2668863"><ele>305.0</ele><time>2026-04-18T16:30:57.963Z</time></trkpt><trkpt lat="45.0505312" lon="8.266832"><ele>305.0</ele><time>2026-04-18T16:30:59.955Z</time></trkpt><trkpt lat="45.0504413" lon="8.2668115"><ele>303.33333333333337</ele><time>2026-04-18T16:31:02.958Z</time></trkpt><trkpt lat="45.0503381" lon="8.2667314"><ele>301.6666666666667</ele><time>2026-04-18T16:31:04.956Z</time></trkpt><trkpt lat="45.050284" lon="8.2666794"><ele>300.0</ele><time>2026-04-18T16:31:05.972Z</time></trkpt><trkpt lat="45.0501761" lon="8.2665998"><ele>298.3333333333333</ele><time>2026-04-18T16:31:07.962Z</time></trkpt><trkpt lat="45.0501176" lon="8.2665515"><ele>296.66666666666663</ele><time>2026-04-18T16:31:08.962Z</time></trkpt><trkpt lat="45.0500536" lon="8.2665021"><ele>295.0</ele><time>2026-04-18T16:31:09.957Z</time></trkpt><trkpt lat="45.0499854" lon="8.266448"><ele>295.3333333333333</ele><time>2026-04-18T16:31:10.962Z</time></trkpt><trkpt lat="45.0499153" lon="8.2663867"><ele>295.66666666666663</ele><time>2026-04-18T16:31:11.963Z</time></trkpt><trkpt lat="45.0498454" lon="8.2663169"><ele>296.0</ele><time>2026-04-18T16:31:12.962Z</time></trkpt><trkpt lat="45.0497794" lon="8.2662376"><ele>296.3333333333333</ele><time>2026-04-18T16:31:13.966Z</time></trkpt><trkpt lat="45.0497232" lon="8.2661547"><ele>296.6666666666667</ele><time>2026-04-18T16:31:14.964Z</time></trkpt><trkpt lat="45.0496815" lon="8.2660728"><ele>297.0</ele><time>2026-04-18T16:31:15.953Z</time></trkpt><trkpt lat="45.0496482" lon="8.2659833"><ele>297.0</ele><time>2026-04-18T16:31:16.964Z</time></trkpt><trkpt lat="45.0496136" lon="8.2658833"><ele>297.0</ele><time>2026-04-18T16:31:17.974Z</time></trkpt><trkpt lat="45.0495696" lon="8.2657871"><ele>297.0</ele><time>2026-04-18T16:31:18.965Z</time></trkpt><trkpt lat="45.0495117" lon="8.2657042"><ele>297.0</ele><time>2026-04-18T16:31:19.972Z</time></trkpt><trkpt lat="45.0494462" lon="8.2656319"><ele>297.0</ele><time>2026-04-18T16:31:20.974Z</time></trkpt><trkpt lat="45.0493762" lon="8.2655709"><ele>297.0</ele><time>2026-04-18T16:31:21.966Z</time></trkpt><trkpt lat="45.0493064" lon="8.2655142"><ele>295.2857142857143</ele><time>2026-04-18T16:31:22.964Z</time></trkpt><trkpt lat="45.0492393" lon="8.2654588"><ele>293.5714285714286</ele><time>2026-04-18T16:31:23.96Z</time></trkpt><trkpt lat="45.0491687" lon="8.2654158"><ele>291.8571428571429</ele><time>2026-04-18T16:31:24.971Z</time></trkpt><trkpt lat="45.0490982" lon="8.2653995"><ele>290.14285714285717</ele><time>2026-04-18T16:31:25.957Z</time></trkpt><trkpt lat="45.0490273" lon="8.2654091"><ele>288.42857142857144</ele><time>2026-04-18T16:31:26.967Z</time></trkpt><trkpt lat="45.0489594" lon="8.2654299"><ele>286.7142857142857</ele><time>2026-04-18T16:31:27.964Z</time></trkpt><trkpt lat="45.048893" lon="8.2654631"><ele>285.0</ele><time>2026-04-18T16:31:28.959Z</time></trkpt><trkpt lat="45.0488133" lon="8.2655091"><ele>285.6</ele><time>2026-04-18T16:31:29.962Z</time></trkpt><trkpt lat="45.0487186" lon="8.2655722"><ele>286.2</ele><time>2026-04-18T16:31:30.958Z</time></trkpt><trkpt lat="45.0486235" lon="8.2656537"><ele>286.8</ele><time>2026-04-18T16:31:31.957Z</time></trkpt><trkpt lat="45.0485339" lon="8.2657454"><ele>287.4</ele><time>2026-04-18T16:31:32.957Z</time></trkpt><trkpt lat="45.0484413" lon="8.2658422"><ele>288.0</ele><time>2026-04-18T16:31:33.956Z</time></trkpt><trkpt lat="45.0483443" lon="8.265937"><ele>285.4</ele><time>2026-04-18T16:31:34.975Z</time></trkpt><trkpt lat="45.048248" lon="8.2660234"><ele>282.8</ele><time>2026-04-18T16:31:35.957Z</time></trkpt><trkpt lat="45.0481554" lon="8.2661115"><ele>280.2</ele><time>2026-04-18T16:31:36.958Z</time></trkpt><trkpt lat="45.0480662" lon="8.2662028"><ele>277.6</ele><time>2026-04-18T16:31:37.97Z</time></trkpt><trkpt lat="45.0479784" lon="8.2662916"><ele>275.0</ele><time>2026-04-18T16:31:38.969Z</time></trkpt><trkpt lat="45.047892" lon="8.2663777"><ele>275.6</ele><time>2026-04-18T16:31:39.963Z</time></trkpt><trkpt lat="45.0478075" lon="8.2664649"><ele>276.2</ele><time>2026-04-18T16:31:40.961Z</time></trkpt><trkpt lat="45.0477252" lon="8.266552"><ele>276.8</ele><time>2026-04-18T16:31:41.963Z</time></trkpt><trkpt lat="45.0476456" lon="8.2666357"><ele>277.4</ele><time>2026-04-18T16:31:42.974Z</time></trkpt><trkpt lat="45.0475666" lon="8.2667161"><ele>278.0</ele><time>2026-04-18T16:31:43.961Z</time></trkpt><trkpt lat="45.0474916" lon="8.2667928"><ele>275.2</ele><time>2026-04-18T16:31:44.963Z</time></trkpt><trkpt lat="45.047423" lon="8.2668655"><ele>272.4</ele><time>2026-04-18T16:31:45.962Z</time></trkpt><trkpt lat="45.0473592" lon="8.2669308"><ele>269.59999999999997</ele><time>2026-04-18T16:31:46.954Z</time></trkpt><trkpt lat="45.0472858" lon="8.267006"><ele>266.8</ele><time>2026-04-18T16:31:47.956Z</time></trkpt><trkpt lat="45.0472016" lon="8.2670877"><ele>264.0</ele><time>2026-04-18T16:31:48.962Z</time></trkpt><trkpt lat="45.0471074" lon="8.2671784"><ele>265.25</ele><time>2026-04-18T16:31:49.969Z</time></trkpt><trkpt lat="45.047002" lon="8.2672799"><ele>266.5</ele><time>2026-04-18T16:31:50.959Z</time></trkpt><trkpt lat="45.0468937" lon="8.2673882"><ele>267.75</ele><time>2026-04-18T16:31:51.973Z</time></trkpt><trkpt lat="45.0467876" lon="8.2674965"><ele>269.0</ele><time>2026-04-18T16:31:52.959Z</time></trkpt><trkpt lat="45.0466825" lon="8.2676034"><ele>266.5</ele><time>2026-04-18T16:31:53.963Z</time></trkpt><trkpt lat="45.0465788" lon="8.267706"><ele>264.0</ele><time>2026-04-18T16:31:54.963Z</time></trkpt><trkpt lat="45.0464793" lon="8.2678077"><ele>261.5</ele><time>2026-04-18T16:31:55.966Z</time></trkpt><trkpt lat="45.0463822" lon="8.2679074"><ele>259.0</ele><time>2026-04-18T16:31:56.965Z</time></trkpt><trkpt lat="45.0462888" lon="8.2680063"><ele>259.0</ele><time>2026-04-18T16:31:57.962Z</time></trkpt><trkpt lat="45.0461972" lon="8.2681024"><ele>259.0</ele><time>2026-04-18T16:31:58.975Z</time></trkpt><trkpt lat="45.0461045" lon="8.2681968"><ele>259.0</ele><time>2026-04-18T16:31:59.973Z</time></trkpt><trkpt lat="45.0460109" lon="8.268294"><ele>259.0</ele><time>2026-04-18T16:32:00.973Z</time></trkpt><trkpt lat="45.0459158" lon="8.2683932"><ele>260.0</ele><time>2026-04-18T16:32:01.966Z</time></trkpt><trkpt lat="45.0458212" lon="8.2684933"><ele>261.0</ele><time>2026-04-18T16:32:02.965Z</time></trkpt><trkpt lat="45.0457305" lon="8.2685879"><ele>262.0</ele><time>2026-04-18T16:32:03.964Z</time></trkpt><trkpt lat="45.0456416" lon="8.2686775"><ele>263.0</ele><time>2026-04-18T16:32:04.969Z</time></trkpt><trkpt lat="45.0455549" lon="8.2687677"><ele>264.0</ele><time>2026-04-18T16:32:05.97Z</time></trkpt><trkpt lat="45.0454704" lon="8.2688547"><ele>262.8</ele><time>2026-04-18T16:32:06.96Z</time></trkpt><trkpt lat="45.0453847" lon="8.2689393"><ele>261.59999999999997</ele><time>2026-04-18T16:32:07.954Z</time></trkpt><trkpt lat="45.0453019" lon="8.2690217"><ele>260.4</ele><time>2026-04-18T16:32:08.957Z</time></trkpt><trkpt lat="45.0452206" lon="8.2691025"><ele>259.2</ele><time>2026-04-18T16:32:09.961Z</time></trkpt><trkpt lat="45.0451388" lon="8.269179"><ele>258.0</ele><time>2026-04-18T16:32:10.957Z</time></trkpt><trkpt lat="45.0450591" lon="8.2692615"><ele>258.0</ele><time>2026-04-18T16:32:11.955Z</time></trkpt><trkpt lat="45.0449805" lon="8.269341"><ele>258.0</ele><time>2026-04-18T16:32:12.959Z</time></trkpt><trkpt lat="45.0448962" lon="8.2694236"><ele>258.0</ele><time>2026-04-18T16:32:13.96Z</time></trkpt><trkpt lat="45.0448018" lon="8.2695121"><ele>258.0</ele><time>2026-04-18T16:32:14.963Z</time></trkpt><trkpt lat="45.0447009" lon="8.269603"><ele>258.0</ele><time>2026-04-18T16:32:15.965Z</time></trkpt><trkpt lat="45.0445949" lon="8.2696958"><ele>256.5</ele><time>2026-04-18T16:32:16.957Z</time></trkpt><trkpt lat="45.044483" lon="8.269788"><ele>255.0</ele><time>2026-04-18T16:32:17.957Z</time></trkpt><trkpt lat="45.0443673" lon="8.2698773"><ele>253.5</ele><time>2026-04-18T16:32:18.962Z</time></trkpt><trkpt lat="45.044245" lon="8.2699584"><ele>252.0</ele><time>2026-04-18T16:32:19.973Z</time></trkpt><trkpt lat="45.0441169" lon="8.2700326"><ele>249.25</ele><time>2026-04-18T16:32:20.96Z</time></trkpt><trkpt lat="45.0439839" lon="8.2701013"><ele>246.5</ele><time>2026-04-18T16:32:21.961Z</time></trkpt><trkpt lat="45.0438488" lon="8.2701588"><ele>243.75</ele><time>2026-04-18T16:32:22.961Z</time></trkpt><trkpt lat="45.0437092" lon="8.2702075"><ele>241.0</ele><time>2026-04-18T16:32:23.974Z</time></trkpt><trkpt lat="45.0435687" lon="8.2702448"><ele>241.0</ele><time>2026-04-18T16:32:24.964Z</time></trkpt><trkpt lat="45.0434258" lon="8.2702634"><ele>241.0</ele><time>2026-04-18T16:32:25.965Z</time></trkpt><trkpt lat="45.0432855" lon="8.2702725"><ele>241.0</ele><time>2026-04-18T16:32:26.973Z</time></trkpt><trkpt lat="45.043147" lon="8.2702723"><ele>241.0</ele><time>2026-04-18T16:32:27.961Z</time></trkpt><trkpt lat="45.0430073" lon="8.2702589"><ele>239.0</ele><time>2026-04-18T16:32:28.97Z</time></trkpt><trkpt lat="45.0428725" lon="8.2702356"><ele>237.0</ele><time>2026-04-18T16:32:29.972Z</time></trkpt><trkpt lat="45.0427393" lon="8.2702039"><ele>235.0</ele><time>2026-04-18T16:32:30.96Z</time></trkpt><trkpt lat="45.0426103" lon="8.2701618"><ele>233.0</ele><time>2026-04-18T16:32:31.966Z</time></trkpt><trkpt lat="45.0424815" lon="8.2701121"><ele>232.5</ele><time>2026-04-18T16:32:32.963Z</time></trkpt><trkpt lat="45.0423461" lon="8.2700547"><ele>232.0</ele><time>2026-04-18T16:32:33.961Z</time></trkpt><trkpt lat="45.0422023" lon="8.2699946"><ele>231.5</ele><time>2026-04-18T16:32:34.964Z</time></trkpt><trkpt lat="45.0420547" lon="8.2699287"><ele>231.0</ele><time>2026-04-18T16:32:35.959Z</time></trkpt><trkpt lat="45.0419022" lon="8.2698589"><ele>231.0</ele><time>2026-04-18T16:32:36.96Z</time></trkpt><trkpt lat="45.0417474" lon="8.2697884"><ele>231.0</ele><time>2026-04-18T16:32:37.968Z</time></trkpt><trkpt lat="45.0415855" lon="8.2697152"><ele>231.0</ele><time>2026-04-18T16:32:38.966Z</time></trkpt><trkpt lat="45.0414214" lon="8.2696381"><ele>230.33333333333331</ele><time>2026-04-18T16:32:39.968Z</time></trkpt><trkpt lat="45.0412543" lon="8.2695556"><ele>229.66666666666666</ele><time>2026-04-18T16:32:40.964Z</time></trkpt><trkpt lat="45.0410843" lon="8.2694741"><ele>229.0</ele><time>2026-04-18T16:32:41.967Z</time></trkpt><trkpt lat="45.0409082" lon="8.2693915"><ele>229.66666666666666</ele><time>2026-04-18T16:32:42.97Z</time></trkpt><trkpt lat="45.0407227" lon="8.2693069"><ele>230.33333333333331</ele><time>2026-04-18T16:32:43.965Z</time></trkpt><trkpt lat="45.0405311" lon="8.2692186"><ele>231.0</ele><time>2026-04-18T16:32:44.961Z</time></trkpt><trkpt lat="45.0403378" lon="8.269127"><ele>231.0</ele><time>2026-04-18T16:32:45.959Z</time></trkpt><trkpt lat="45.0401395" lon="8.2690338"><ele>231.0</ele><time>2026-04-18T16:32:46.968Z</time></trkpt><trkpt lat="45.0399393" lon="8.2689429"><ele>231.0</ele><time>2026-04-18T16:32:47.957Z</time></trkpt><trkpt lat="45.039736" lon="8.2688499"><ele>229.0</ele><time>2026-04-18T16:32:48.961Z</time></trkpt><trkpt lat="45.0395388" lon="8.2687584"><ele>227.0</ele><time>2026-04-18T16:32:49.961Z</time></trkpt><trkpt lat="45.0393447" lon="8.2686672"><ele>225.0</ele><time>2026-04-18T16:32:50.963Z</time></trkpt><trkpt lat="45.0391552" lon="8.2685769"><ele>226.0</ele><time>2026-04-18T16:32:51.96Z</time></trkpt><trkpt lat="45.0389695" lon="8.2684909"><ele>227.0</ele><time>2026-04-18T16:32:52.959Z</time></trkpt><trkpt lat="45.0387859" lon="8.2684079"><ele>228.0</ele><time>2026-04-18T16:32:53.955Z</time></trkpt><trkpt lat="45.0386027" lon="8.2683243"><ele>228.0</ele><time>2026-04-18T16:32:54.96Z</time></trkpt><trkpt lat="45.0384204" lon="8.2682394"><ele>228.0</ele><time>2026-04-18T16:32:55.958Z</time></trkpt><trkpt lat="45.038237" lon="8.2681553"><ele>228.0</ele><time>2026-04-18T16:32:56.956Z</time></trkpt><trkpt lat="45.0380507" lon="8.2680694"><ele>225.66666666666669</ele><time>2026-04-18T16:32:57.963Z</time></trkpt><trkpt lat="45.0378644" lon="8.2679825"><ele>223.33333333333334</ele><time>2026-04-18T16:32:58.971Z</time></trkpt><trkpt lat="45.0376819" lon="8.2678971"><ele>221.0</ele><time>2026-04-18T16:32:59.964Z</time></trkpt><trkpt lat="45.0375033" lon="8.2678132"><ele>221.0</ele><time>2026-04-18T16:33:00.962Z</time></trkpt><trkpt lat="45.0373271" lon="8.2677298"><ele>221.0</ele><time>2026-04-18T16:33:01.962Z</time></trkpt><trkpt lat="45.0371468" lon="8.2676455"><ele>221.0</ele><time>2026-04-18T16:33:02.959Z</time></trkpt><trkpt lat="45.0369627" lon="8.2675605"><ele>221.0</ele><time>2026-04-18T16:33:03.962Z</time></trkpt><trkpt lat="45.0367744" lon="8.2674743"><ele>221.0</ele><time>2026-04-18T16:33:04.955Z</time></trkpt><trkpt lat="45.0365803" lon="8.2673871"><ele>221.0</ele><time>2026-04-18T16:33:05.954Z</time></trkpt><trkpt lat="45.036382" lon="8.2672947"><ele>220.33333333333334</ele><time>2026-04-18T16:33:06.96Z</time></trkpt><trkpt lat="45.0361806" lon="8.2672011"><ele>219.66666666666669</ele><time>2026-04-18T16:33:07.962Z</time></trkpt><trkpt lat="45.0359743" lon="8.2671074"><ele>219.0</ele><time>2026-04-18T16:33:08.963Z</time></trkpt><trkpt lat="45.0357651" lon="8.2670109"><ele>218.33333333333331</ele><time>2026-04-18T16:33:09.964Z</time></trkpt><trkpt lat="45.0355578" lon="8.2669144"><ele>217.66666666666666</ele><time>2026-04-18T16:33:10.954Z</time></trkpt><trkpt lat="45.0353537" lon="8.2668221"><ele>217.0</ele><time>2026-04-18T16:33:11.962Z</time></trkpt><trkpt lat="45.0351511" lon="8.2667299"><ele>217.66666666666666</ele><time>2026-04-18T16:33:12.958Z</time></trkpt><trkpt lat="45.0349487" lon="8.2666368"><ele>218.33333333333331</ele><time>2026-04-18T16:33:13.954Z</time></trkpt><trkpt lat="45.0347463" lon="8.266542"><ele>219.0</ele><time>2026-04-18T16:33:14.955Z</time></trkpt><trkpt lat="45.0345436" lon="8.2664465"><ele>218.33333333333331</ele><time>2026-04-18T16:33:15.958Z</time></trkpt><trkpt lat="45.0343396" lon="8.2663516"><ele>217.66666666666666</ele><time>2026-04-18T16:33:16.958Z</time></trkpt><trkpt lat="45.034135" lon="8.2662569"><ele>217.0</ele><time>2026-04-18T16:33:17.975Z</time></trkpt><trkpt lat="45.0339326" lon="8.2661631"><ele>217.0</ele><time>2026-04-18T16:33:18.974Z</time></trkpt><trkpt lat="45.033732" lon="8.2660695"><ele>217.0</ele><time>2026-04-18T16:33:19.966Z</time></trkpt><trkpt lat="45.0335305" lon="8.2659761"><ele>217.0</ele><time>2026-04-18T16:33:20.962Z</time></trkpt><trkpt lat="45.0333281" lon="8.2658828"><ele>216.33333333333331</ele><time>2026-04-18T16:33:21.956Z</time></trkpt><trkpt lat="45.0331265" lon="8.2657888"><ele>215.66666666666669</ele><time>2026-04-18T16:33:22.955Z</time></trkpt><trkpt lat="45.0329263" lon="8.2656942"><ele>215.0</ele><time>2026-04-18T16:33:23.954Z</time></trkpt><trkpt lat="45.0327262" lon="8.2655988"><ele>216.0</ele><time>2026-04-18T16:33:24.966Z</time></trkpt><trkpt lat="45.0325273" lon="8.2655035"><ele>217.0</ele><time>2026-04-18T16:33:25.967Z</time></trkpt><trkpt lat="45.0323354" lon="8.2654071"><ele>218.0</ele><time>2026-04-18T16:33:26.958Z</time></trkpt><trkpt lat="45.0321494" lon="8.2653085"><ele>218.0</ele><time>2026-04-18T16:33:27.959Z</time></trkpt><trkpt lat="45.0319708" lon="8.2652038"><ele>218.0</ele><time>2026-04-18T16:33:28.961Z</time></trkpt><trkpt lat="45.0318002" lon="8.2650921"><ele>218.0</ele><time>2026-04-18T16:33:29.962Z</time></trkpt><trkpt lat="45.0316373" lon="8.2649653"><ele>216.33333333333334</ele><time>2026-04-18T16:33:30.955Z</time></trkpt><trkpt lat="45.0314818" lon="8.2648182"><ele>214.66666666666669</ele><time>2026-04-18T16:33:31.963Z</time></trkpt><trkpt lat="45.0313324" lon="8.264649"><ele>213.0</ele><time>2026-04-18T16:33:32.953Z</time></trkpt><trkpt lat="45.0311937" lon="8.2644541"><ele>213.0</ele><time>2026-04-18T16:33:33.965Z</time></trkpt><trkpt lat="45.0310615" lon="8.2642449"><ele>213.0</ele><time>2026-04-18T16:33:34.957Z</time></trkpt><trkpt lat="45.0309309" lon="8.2640246"><ele>213.0</ele><time>2026-04-18T16:33:35.957Z</time></trkpt><trkpt lat="45.0308025" lon="8.263798"><ele>212.0</ele><time>2026-04-18T16:33:36.966Z</time></trkpt><trkpt lat="45.0306731" lon="8.263569"><ele>211.0</ele><time>2026-04-18T16:33:37.956Z</time></trkpt><trkpt lat="45.0305437" lon="8.263337"><ele>210.0</ele><time>2026-04-18T16:33:38.973Z</time></trkpt><trkpt lat="45.0304156" lon="8.2631039"><ele>210.0</ele><time>2026-04-18T16:33:39.968Z</time></trkpt><trkpt lat="45.0302884" lon="8.2628706"><ele>210.0</ele><time>2026-04-18T16:33:40.96Z</time></trkpt><trkpt lat="45.0301629" lon="8.2626387"><ele>210.0</ele><time>2026-04-18T16:33:41.964Z</time></trkpt><trkpt lat="45.0300375" lon="8.2624071"><ele>210.0</ele><time>2026-04-18T16:33:42.964Z</time></trkpt><trkpt lat="45.0299142" lon="8.2621771"><ele>210.0</ele><time>2026-04-18T16:33:43.97Z</time></trkpt><trkpt lat="45.0297888" lon="8.2619472"><ele>210.0</ele><time>2026-04-18T16:33:44.963Z</time></trkpt><trkpt lat="45.0296643" lon="8.2617185"><ele>210.0</ele><time>2026-04-18T16:33:45.964Z</time></trkpt><trkpt lat="45.0295404" lon="8.26149"><ele>210.0</ele><time>2026-04-18T16:33:46.96Z</time></trkpt><trkpt lat="45.0294171" lon="8.2612634"><ele>210.0</ele><time>2026-04-18T16:33:47.963Z</time></trkpt><trkpt lat="45.0292946" lon="8.2610363"><ele>210.66666666666669</ele><time>2026-04-18T16:33:48.969Z</time></trkpt><trkpt lat="45.0291701" lon="8.2608069"><ele>211.33333333333334</ele><time>2026-04-18T16:33:49.957Z</time></trkpt><trkpt lat="45.0290471" lon="8.2605789"><ele>212.0</ele><time>2026-04-18T16:33:50.966Z</time></trkpt><trkpt lat="45.0289221" lon="8.2603513"><ele>211.0</ele><time>2026-04-18T16:33:51.962Z</time></trkpt><trkpt lat="45.028798" lon="8.2601265"><ele>210.0</ele><time>2026-04-18T16:33:52.957Z</time></trkpt><trkpt lat="45.0286752" lon="8.2598993"><ele>209.0</ele><time>2026-04-18T16:33:53.959Z</time></trkpt><trkpt lat="45.0285511" lon="8.2596728"><ele>209.0</ele><time>2026-04-18T16:33:54.957Z</time></trkpt><trkpt lat="45.0284256" lon="8.2594449"><ele>209.0</ele><time>2026-04-18T16:33:55.963Z</time></trkpt><trkpt lat="45.0283015" lon="8.2592212"><ele>209.0</ele><time>2026-04-18T16:33:56.963Z</time></trkpt><trkpt lat="45.0281769" lon="8.2589971"><ele>208.33333333333334</ele><time>2026-04-18T16:33:57.964Z</time></trkpt><trkpt lat="45.0280549" lon="8.2587717"><ele>207.66666666666669</ele><time>2026-04-18T16:33:58.966Z</time></trkpt><trkpt lat="45.0279342" lon="8.2585529"><ele>207.0</ele><time>2026-04-18T16:33:59.966Z</time></trkpt><trkpt lat="45.0278141" lon="8.2583322"><ele>207.0</ele><time>2026-04-18T16:34:00.963Z</time></trkpt><trkpt lat="45.027695" lon="8.2581133"><ele>207.0</ele><time>2026-04-18T16:34:01.96Z</time></trkpt><trkpt lat="45.027573" lon="8.257901"><ele>207.0</ele><time>2026-04-18T16:34:02.961Z</time></trkpt><trkpt lat="45.027444" lon="8.257698"><ele>207.0</ele><time>2026-04-18T16:34:03.963Z</time></trkpt><trkpt lat="45.0273062" lon="8.2575111"><ele>207.0</ele><time>2026-04-18T16:34:04.955Z</time></trkpt><trkpt lat="45.0271571" lon="8.25734"><ele>207.0</ele><time>2026-04-18T16:34:05.962Z</time></trkpt><trkpt lat="45.0269987" lon="8.2571855"><ele>209.33333333333331</ele><time>2026-04-18T16:34:06.971Z</time></trkpt><trkpt lat="45.0268303" lon="8.2570483"><ele>211.66666666666666</ele><time>2026-04-18T16:34:07.965Z</time></trkpt><trkpt lat="45.0266524" lon="8.2569353"><ele>214.0</ele><time>2026-04-18T16:34:08.966Z</time></trkpt><trkpt lat="45.0264661" lon="8.2568506"><ele>214.0</ele><time>2026-04-18T16:34:09.961Z</time></trkpt><trkpt lat="45.0262717" lon="8.2567948"><ele>214.0</ele><time>2026-04-18T16:34:10.96Z</time></trkpt><trkpt lat="45.0260749" lon="8.2567668"><ele>214.0</ele><time>2026-04-18T16:34:11.96Z</time></trkpt><trkpt lat="45.0258757" lon="8.2567562"><ele>215.0</ele><time>2026-04-18T16:34:12.959Z</time></trkpt><trkpt lat="45.0256716" lon="8.2567492"><ele>216.0</ele><time>2026-04-18T16:34:13.963Z</time></trkpt><trkpt lat="45.0254675" lon="8.2567436"><ele>217.0</ele><time>2026-04-18T16:34:14.955Z</time></trkpt><trkpt lat="45.0252648" lon="8.2567397"><ele>217.0</ele><time>2026-04-18T16:34:15.956Z</time></trkpt><trkpt lat="45.0250639" lon="8.2567366"><ele>217.0</ele><time>2026-04-18T16:34:16.953Z</time></trkpt><trkpt lat="45.0248659" lon="8.2567337"><ele>217.0</ele><time>2026-04-18T16:34:17.961Z</time></trkpt><trkpt lat="45.0246691" lon="8.256728"><ele>217.33333333333331</ele><time>2026-04-18T16:34:18.956Z</time></trkpt><trkpt lat="45.0244684" lon="8.2567236"><ele>217.66666666666669</ele><time>2026-04-18T16:34:19.953Z</time></trkpt><trkpt lat="45.0242643" lon="8.2567201"><ele>218.0</ele><time>2026-04-18T16:34:20.959Z</time></trkpt><trkpt lat="45.0240568" lon="8.2567164"><ele>218.66666666666669</ele><time>2026-04-18T16:34:21.951Z</time></trkpt><trkpt lat="45.0238471" lon="8.256714"><ele>219.33333333333331</ele><time>2026-04-18T16:34:22.969Z</time></trkpt><trkpt lat="45.0236336" lon="8.2567108"><ele>220.0</ele><time>2026-04-18T16:34:23.962Z</time></trkpt><trkpt lat="45.0234175" lon="8.2567053"><ele>219.66666666666666</ele><time>2026-04-18T16:34:24.964Z</time></trkpt><trkpt lat="45.0231979" lon="8.2567022"><ele>219.33333333333331</ele><time>2026-04-18T16:34:25.961Z</time></trkpt><trkpt lat="45.0229797" lon="8.2566974"><ele>219.0</ele><time>2026-04-18T16:34:26.967Z</time></trkpt><trkpt lat="45.022763" lon="8.256696"><ele>219.0</ele><time>2026-04-18T16:34:27.97Z</time></trkpt><trkpt lat="45.0225508" lon="8.2566953"><ele>219.0</ele><time>2026-04-18T16:34:28.966Z</time></trkpt><trkpt lat="45.0223402" lon="8.2567021"><ele>219.0</ele><time>2026-04-18T16:34:29.972Z</time></trkpt><trkpt lat="45.0221361" lon="8.2567228"><ele>218.66666666666669</ele><time>2026-04-18T16:34:30.962Z</time></trkpt><trkpt lat="45.0219363" lon="8.2567645"><ele>218.33333333333334</ele><time>2026-04-18T16:34:31.962Z</time></trkpt><trkpt lat="45.0217411" lon="8.2568224"><ele>218.0</ele><time>2026-04-18T16:34:32.969Z</time></trkpt><trkpt lat="45.0215502" lon="8.2569002"><ele>219.0</ele><time>2026-04-18T16:34:33.971Z</time></trkpt><trkpt lat="45.0213585" lon="8.2569979"><ele>220.0</ele><time>2026-04-18T16:34:34.96Z</time></trkpt><trkpt lat="45.0211689" lon="8.2571015"><ele>221.0</ele><time>2026-04-18T16:34:35.962Z</time></trkpt><trkpt lat="45.0209776" lon="8.2572178"><ele>222.66666666666669</ele><time>2026-04-18T16:34:36.956Z</time></trkpt><trkpt lat="45.0207849" lon="8.2573351"><ele>224.33333333333331</ele><time>2026-04-18T16:34:37.971Z</time></trkpt><trkpt lat="45.0205913" lon="8.2574527"><ele>226.0</ele><time>2026-04-18T16:34:38.962Z</time></trkpt><trkpt lat="45.0204001" lon="8.2575676"><ele>226.0</ele><time>2026-04-18T16:34:39.971Z</time></trkpt><trkpt lat="45.0202085" lon="8.2576854"><ele>226.0</ele><time>2026-04-18T16:34:40.968Z</time></trkpt><trkpt lat="45.0200191" lon="8.2577989"><ele>226.0</ele><time>2026-04-18T16:34:41.962Z</time></trkpt><trkpt lat="45.0198335" lon="8.2579075"><ele>227.0</ele><time>2026-04-18T16:34:42.96Z</time></trkpt><trkpt lat="45.0196569" lon="8.2580147"><ele>228.0</ele><time>2026-04-18T16:34:43.961Z</time></trkpt><trkpt lat="45.0194865" lon="8.2581148"><ele>229.0</ele><time>2026-04-18T16:34:44.963Z</time></trkpt><trkpt lat="45.019319" lon="8.258194"><ele>229.0</ele><time>2026-04-18T16:34:45.956Z</time></trkpt><trkpt lat="45.0191521" lon="8.2582481"><ele>229.0</ele><time>2026-04-18T16:34:46.972Z</time></trkpt><trkpt lat="45.0189784" lon="8.2582703"><ele>229.0</ele><time>2026-04-18T16:34:47.962Z</time></trkpt><trkpt lat="45.0187994" lon="8.258255"><ele>229.0</ele><time>2026-04-18T16:34:48.961Z</time></trkpt><trkpt lat="45.0186224" lon="8.2581983"><ele>229.0</ele><time>2026-04-18T16:34:49.967Z</time></trkpt><trkpt lat="45.0184548" lon="8.258091"><ele>229.0</ele><time>2026-04-18T16:34:50.964Z</time></trkpt><trkpt lat="45.0182935" lon="8.2579589"><ele>227.0</ele><time>2026-04-18T16:34:51.955Z</time></trkpt><trkpt lat="45.0181422" lon="8.2577921"><ele>225.0</ele><time>2026-04-18T16:34:52.964Z</time></trkpt><trkpt lat="45.0180051" lon="8.2576007"><ele>223.0</ele><time>2026-04-18T16:34:53.966Z</time></trkpt><trkpt lat="45.0178787" lon="8.2573882"><ele>225.66666666666666</ele><time>2026-04-18T16:34:54.963Z</time></trkpt><trkpt lat="45.0177651" lon="8.2571586"><ele>228.33333333333331</ele><time>2026-04-18T16:34:55.975Z</time></trkpt><trkpt lat="45.0176561" lon="8.2569207"><ele>231.0</ele><time>2026-04-18T16:34:56.971Z</time></trkpt><trkpt lat="45.017543" lon="8.256682"><ele>229.33333333333331</ele><time>2026-04-18T16:34:57.966Z</time></trkpt><trkpt lat="45.0174279" lon="8.2564432"><ele>227.66666666666666</ele><time>2026-04-18T16:34:58.965Z</time></trkpt><trkpt lat="45.0173122" lon="8.2562026"><ele>226.0</ele><time>2026-04-18T16:34:59.97Z</time></trkpt><trkpt lat="45.0171965" lon="8.2559602"><ele>226.0</ele><time>2026-04-18T16:35:00.961Z</time></trkpt><trkpt lat="45.017083" lon="8.2557173"><ele>226.0</ele><time>2026-04-18T16:35:01.964Z</time></trkpt><trkpt lat="45.016973" lon="8.255478"><ele>226.0</ele><time>2026-04-18T16:35:02.96Z</time></trkpt><trkpt lat="45.016866" lon="8.2552448"><ele>227.0</ele><time>2026-04-18T16:35:03.973Z</time></trkpt><trkpt lat="45.0167555" lon="8.2550346"><ele>228.0</ele><time>2026-04-18T16:35:04.96Z</time></trkpt><trkpt lat="45.0166356" lon="8.2548425"><ele>229.0</ele><time>2026-04-18T16:35:05.97Z</time></trkpt><trkpt lat="45.016503" lon="8.2546719"><ele>230.66666666666666</ele><time>2026-04-18T16:35:06.96Z</time></trkpt><trkpt lat="45.0163558" lon="8.2545211"><ele>232.33333333333331</ele><time>2026-04-18T16:35:07.962Z</time></trkpt><trkpt lat="45.0161954" lon="8.2543971"><ele>234.0</ele><time>2026-04-18T16:35:08.959Z</time></trkpt><trkpt lat="45.0160225" lon="8.2543075"><ele>234.0</ele><time>2026-04-18T16:35:09.957Z</time></trkpt><trkpt lat="45.0158446" lon="8.2542533"><ele>234.0</ele><time>2026-04-18T16:35:10.966Z</time></trkpt><trkpt lat="45.0156641" lon="8.2542311"><ele>234.0</ele><time>2026-04-18T16:35:11.969Z</time></trkpt><trkpt lat="45.0154817" lon="8.2542358"><ele>233.33333333333331</ele><time>2026-04-18T16:35:12.959Z</time></trkpt><trkpt lat="45.0152985" lon="8.2542564"><ele>232.66666666666666</ele><time>2026-04-18T16:35:13.966Z</time></trkpt><trkpt lat="45.0151116" lon="8.2542793"><ele>232.0</ele><time>2026-04-18T16:35:14.957Z</time></trkpt><trkpt lat="45.0149211" lon="8.254298"><ele>234.33333333333331</ele><time>2026-04-18T16:35:15.958Z</time></trkpt><trkpt lat="45.014726" lon="8.2543172"><ele>236.66666666666669</ele><time>2026-04-18T16:35:16.965Z</time></trkpt><trkpt lat="45.0145315" lon="8.2543397"><ele>239.0</ele><time>2026-04-18T16:35:17.974Z</time></trkpt><trkpt lat="45.0143359" lon="8.2543628"><ele>240.0</ele><time>2026-04-18T16:35:18.956Z</time></trkpt><trkpt lat="45.0141435" lon="8.2543832"><ele>241.0</ele><time>2026-04-18T16:35:19.966Z</time></trkpt><trkpt lat="45.0139524" lon="8.2544041"><ele>242.0</ele><time>2026-04-18T16:35:20.963Z</time></trkpt><trkpt lat="45.0137617" lon="8.2544262"><ele>242.0</ele><time>2026-04-18T16:35:21.955Z</time></trkpt><trkpt lat="45.0135742" lon="8.2544484"><ele>242.0</ele><time>2026-04-18T16:35:22.953Z</time></trkpt><trkpt lat="45.0133886" lon="8.2544724"><ele>242.0</ele><time>2026-04-18T16:35:23.964Z</time></trkpt><trkpt lat="45.0132045" lon="8.2544979"><ele>244.0</ele><time>2026-04-18T16:35:24.961Z</time></trkpt><trkpt lat="45.0130277" lon="8.2545269"><ele>246.0</ele><time>2026-04-18T16:35:25.963Z</time></trkpt><trkpt lat="45.01286" lon="8.2545627"><ele>248.0</ele><time>2026-04-18T16:35:26.968Z</time></trkpt><trkpt lat="45.0126979" lon="8.2546145"><ele>248.0</ele><time>2026-04-18T16:35:27.971Z</time></trkpt><trkpt lat="45.012546" lon="8.2546773"><ele>248.0</ele><time>2026-04-18T16:35:28.968Z</time></trkpt><trkpt lat="45.0124047" lon="8.2547531"><ele>248.0</ele><time>2026-04-18T16:35:29.968Z</time></trkpt><trkpt lat="45.0122696" lon="8.2548365"><ele>250.5</ele><time>2026-04-18T16:35:30.965Z</time></trkpt><trkpt lat="45.0121407" lon="8.2549217"><ele>253.0</ele><time>2026-04-18T16:35:31.959Z</time></trkpt><trkpt lat="45.0120159" lon="8.2550086"><ele>255.5</ele><time>2026-04-18T16:35:32.964Z</time></trkpt><trkpt lat="45.0118901" lon="8.2550937"><ele>258.0</ele><time>2026-04-18T16:35:33.955Z</time></trkpt><trkpt lat="45.0117603" lon="8.2551827"><ele>259.0</ele><time>2026-04-18T16:35:34.964Z</time></trkpt><trkpt lat="45.0116258" lon="8.2552751"><ele>260.0</ele><time>2026-04-18T16:35:35.956Z</time></trkpt><trkpt lat="45.0114857" lon="8.2553686"><ele>261.0</ele><time>2026-04-18T16:35:36.961Z</time></trkpt><trkpt lat="45.011344" lon="8.2554576"><ele>261.0</ele><time>2026-04-18T16:35:37.965Z</time></trkpt><trkpt lat="45.0112058" lon="8.2555342"><ele>261.0</ele><time>2026-04-18T16:35:38.961Z</time></trkpt><trkpt lat="45.0110677" lon="8.2555939"><ele>261.0</ele><time>2026-04-18T16:35:39.959Z</time></trkpt><trkpt lat="45.0109285" lon="8.2556307"><ele>261.0</ele><time>2026-04-18T16:35:40.956Z</time></trkpt><trkpt lat="45.0107909" lon="8.2556511"><ele>258.5</ele><time>2026-04-18T16:35:41.958Z</time></trkpt><trkpt lat="45.0106556" lon="8.2556712"><ele>256.0</ele><time>2026-04-18T16:35:42.959Z</time></trkpt><trkpt lat="45.0105282" lon="8.2556877"><ele>253.5</ele><time>2026-04-18T16:35:43.959Z</time></trkpt><trkpt lat="45.0104059" lon="8.2557091"><ele>251.0</ele><time>2026-04-18T16:35:44.961Z</time></trkpt><trkpt lat="45.0102847" lon="8.2557279"><ele>251.0</ele><time>2026-04-18T16:35:45.957Z</time></trkpt><trkpt lat="45.0101673" lon="8.2557476"><ele>251.00000000000003</ele><time>2026-04-18T16:35:46.958Z</time></trkpt><trkpt lat="45.010053" lon="8.2557638"><ele>251.00000000000003</ele><time>2026-04-18T16:35:47.962Z</time></trkpt><trkpt lat="45.0099433" lon="8.2557812"><ele>251.0</ele><time>2026-04-18T16:35:48.969Z</time></trkpt><trkpt lat="45.009839" lon="8.2557997"><ele>251.0</ele><time>2026-04-18T16:35:49.967Z</time></trkpt><trkpt lat="45.0097491" lon="8.25581"><ele>251.00000000000003</ele><time>2026-04-18T16:35:50.963Z</time></trkpt><trkpt lat="45.0096729" lon="8.2557994"><ele>251.0</ele><time>2026-04-18T16:35:51.962Z</time></trkpt><trkpt lat="45.0095784" lon="8.2556979"><ele>251.0</ele><time>2026-04-18T16:35:53.959Z</time></trkpt><trkpt lat="45.0095655" lon="8.2556076"><ele>251.0</ele><time>2026-04-18T16:35:54.965Z</time></trkpt><trkpt lat="45.0095714" lon="8.255497"><ele>251.00000000000003</ele><time>2026-04-18T16:35:55.96Z</time></trkpt><trkpt lat="45.0095858" lon="8.2553653"><ele>251.0</ele><time>2026-04-18T16:35:56.957Z</time></trkpt><trkpt lat="45.0096045" lon="8.2552188"><ele>249.25</ele><time>2026-04-18T16:35:57.967Z</time></trkpt><trkpt lat="45.0096279" lon="8.2550583"><ele>247.5</ele><time>2026-04-18T16:35:58.965Z</time></trkpt><trkpt lat="45.0096558" lon="8.2548861"><ele>245.75</ele><time>2026-04-18T16:35:59.973Z</time></trkpt><trkpt lat="45.0096871" lon="8.2547111"><ele>244.0</ele><time>2026-04-18T16:36:00.972Z</time></trkpt><trkpt lat="45.0097206" lon="8.2545403"><ele>242.0</ele><time>2026-04-18T16:36:01.974Z</time></trkpt><trkpt lat="45.0097547" lon="8.2543766"><ele>239.99999999999997</ele><time>2026-04-18T16:36:02.967Z</time></trkpt><trkpt lat="45.0097843" lon="8.2542355"><ele>237.99999999999997</ele><time>2026-04-18T16:36:03.967Z</time></trkpt><trkpt lat="45.0097955" lon="8.2541067"><ele>236.0</ele><time>2026-04-18T16:36:04.968Z</time></trkpt><trkpt lat="45.009781" lon="8.2539763"><ele>234.0</ele><time>2026-04-18T16:36:05.957Z</time></trkpt><trkpt lat="45.0097416" lon="8.2538448"><ele>233.25</ele><time>2026-04-18T16:36:06.959Z</time></trkpt><trkpt lat="45.009697" lon="8.2536942"><ele>232.5</ele><time>2026-04-18T16:36:07.959Z</time></trkpt><trkpt lat="45.0096652" lon="8.2535179"><ele>231.75</ele><time>2026-04-18T16:36:08.958Z</time></trkpt><trkpt lat="45.0096383" lon="8.2533263"><ele>231.0</ele><time>2026-04-18T16:36:09.959Z</time></trkpt><trkpt lat="45.0096098" lon="8.2531215"><ele>230.0</ele><time>2026-04-18T16:36:10.964Z</time></trkpt><trkpt lat="45.0095829" lon="8.2529059"><ele>229.0</ele><time>2026-04-18T16:36:11.964Z</time></trkpt><trkpt lat="45.0095607" lon="8.2526822"><ele>228.0</ele><time>2026-04-18T16:36:12.96Z</time></trkpt><trkpt lat="45.009535" lon="8.2524536"><ele>227.0</ele><time>2026-04-18T16:36:13.967Z</time></trkpt><trkpt lat="45.0095059" lon="8.2522297"><ele>226.0</ele><time>2026-04-18T16:36:14.963Z</time></trkpt><trkpt lat="45.0094727" lon="8.2520116"><ele>225.0</ele><time>2026-04-18T16:36:15.953Z</time></trkpt><trkpt lat="45.0094377" lon="8.2517884"><ele>225.0</ele><time>2026-04-18T16:36:16.965Z</time></trkpt><trkpt lat="45.0094005" lon="8.2515619"><ele>225.0</ele><time>2026-04-18T16:36:17.962Z</time></trkpt><trkpt lat="45.0093599" lon="8.251332"><ele>225.0</ele><time>2026-04-18T16:36:18.961Z</time></trkpt><trkpt lat="45.0093182" lon="8.2510972"><ele>225.0</ele><time>2026-04-18T16:36:19.963Z</time></trkpt><trkpt lat="45.0092718" lon="8.2508592"><ele>225.0</ele><time>2026-04-18T16:36:20.968Z</time></trkpt><trkpt lat="45.0092207" lon="8.2506194"><ele>225.0</ele><time>2026-04-18T16:36:21.961Z</time></trkpt><trkpt lat="45.0091634" lon="8.2503814"><ele>219.33333333333331</ele><time>2026-04-18T16:36:22.957Z</time></trkpt><trkpt lat="45.0091011" lon="8.2501467"><ele>213.66666666666666</ele><time>2026-04-18T16:36:23.961Z</time></trkpt><trkpt lat="45.0090349" lon="8.2499116"><ele>208.0</ele><time>2026-04-18T16:36:24.967Z</time></trkpt><trkpt lat="45.0089676" lon="8.2496808"><ele>208.0</ele><time>2026-04-18T16:36:25.96Z</time></trkpt><trkpt lat="45.0088963" lon="8.2494519"><ele>208.0</ele><time>2026-04-18T16:36:26.958Z</time></trkpt><trkpt lat="45.0088232" lon="8.2492314"><ele>208.0</ele><time>2026-04-18T16:36:27.964Z</time></trkpt><trkpt lat="45.0087499" lon="8.2490127"><ele>208.66666666666666</ele><time>2026-04-18T16:36:28.955Z</time></trkpt><trkpt lat="45.0086785" lon="8.2487874"><ele>209.33333333333331</ele><time>2026-04-18T16:36:29.955Z</time></trkpt><trkpt lat="45.0086028" lon="8.2485559"><ele>210.0</ele><time>2026-04-18T16:36:30.955Z</time></trkpt><trkpt lat="45.0085203" lon="8.248325"><ele>211.66666666666669</ele><time>2026-04-18T16:36:31.963Z</time></trkpt><trkpt lat="45.0084274" lon="8.2481012"><ele>213.33333333333334</ele><time>2026-04-18T16:36:32.96Z</time></trkpt><trkpt lat="45.0083233" lon="8.2478897"><ele>215.0</ele><time>2026-04-18T16:36:33.968Z</time></trkpt><trkpt lat="45.0082112" lon="8.2476903"><ele>212.66666666666669</ele><time>2026-04-18T16:36:34.96Z</time></trkpt><trkpt lat="45.0080922" lon="8.2474988"><ele>210.33333333333331</ele><time>2026-04-18T16:36:35.96Z</time></trkpt><trkpt lat="45.0079655" lon="8.2473181"><ele>208.0</ele><time>2026-04-18T16:36:36.969Z</time></trkpt><trkpt lat="45.0078277" lon="8.2471484"><ele>208.0</ele><time>2026-04-18T16:36:37.958Z</time></trkpt><trkpt lat="45.0076805" lon="8.2469824"><ele>208.0</ele><time>2026-04-18T16:36:38.962Z</time></trkpt><trkpt lat="45.0075225" lon="8.2468207"><ele>208.0</ele><time>2026-04-18T16:36:39.957Z</time></trkpt><trkpt lat="45.0073565" lon="8.2466605"><ele>207.0</ele><time>2026-04-18T16:36:40.955Z</time></trkpt><trkpt lat="45.0071851" lon="8.2465131"><ele>206.0</ele><time>2026-04-18T16:36:41.959Z</time></trkpt><trkpt lat="45.0070151" lon="8.2463797"><ele>205.0</ele><time>2026-04-18T16:36:42.956Z</time></trkpt><trkpt lat="45.006845" lon="8.2462622"><ele>205.0</ele><time>2026-04-18T16:36:43.956Z</time></trkpt><trkpt lat="45.0066714" lon="8.2461683"><ele>205.0</ele><time>2026-04-18T16:36:44.975Z</time></trkpt><trkpt lat="45.0064963" lon="8.2461124"><ele>205.0</ele><time>2026-04-18T16:36:45.96Z</time></trkpt><trkpt lat="45.0063156" lon="8.2460882"><ele>203.0</ele><time>2026-04-18T16:36:46.957Z</time></trkpt><trkpt lat="45.0061238" lon="8.246096"><ele>201.0</ele><time>2026-04-18T16:36:47.965Z</time></trkpt><trkpt lat="45.0059251" lon="8.2461079"><ele>199.0</ele><time>2026-04-18T16:36:48.966Z</time></trkpt><trkpt lat="45.0057201" lon="8.2461181"><ele>196.66666666666666</ele><time>2026-04-18T16:36:49.954Z</time></trkpt><trkpt lat="45.0055074" lon="8.2461303"><ele>194.33333333333331</ele><time>2026-04-18T16:36:50.97Z</time></trkpt><trkpt lat="45.0052904" lon="8.2461426"><ele>192.0</ele><time>2026-04-18T16:36:51.972Z</time></trkpt><trkpt lat="45.0050742" lon="8.2461538"><ele>191.0</ele><time>2026-04-18T16:36:52.955Z</time></trkpt><trkpt lat="45.0048561" lon="8.2461623"><ele>190.0</ele><time>2026-04-18T16:36:53.954Z</time></trkpt><trkpt lat="45.0046334" lon="8.2461726"><ele>189.0</ele><time>2026-04-18T16:36:54.969Z</time></trkpt><trkpt lat="45.0044082" lon="8.2461844"><ele>189.0</ele><time>2026-04-18T16:36:55.96Z</time></trkpt><trkpt lat="45.0041805" lon="8.2461959"><ele>189.0</ele><time>2026-04-18T16:36:56.963Z</time></trkpt><trkpt lat="45.0039503" lon="8.2462094"><ele>186.5</ele><time>2026-04-18T16:36:57.975Z</time></trkpt><trkpt lat="45.0037178" lon="8.2462196"><ele>184.0</ele><time>2026-04-18T16:36:58.962Z</time></trkpt><trkpt lat="45.0034859" lon="8.2462277"><ele>177.5</ele><time>2026-04-18T16:36:59.964Z</time></trkpt><trkpt lat="45.0032554" lon="8.2462282"><ele>171.0</ele><time>2026-04-18T16:37:00.975Z</time></trkpt><trkpt lat="45.0030277" lon="8.2462183"><ele>171.0</ele><time>2026-04-18T16:37:01.963Z</time></trkpt><trkpt lat="45.0028053" lon="8.2461945"><ele>171.0</ele><time>2026-04-18T16:37:02.974Z</time></trkpt><trkpt lat="45.0025879" lon="8.246157"><ele>171.0</ele><time>2026-04-18T16:37:03.966Z</time></trkpt><trkpt lat="45.0023791" lon="8.2461031"><ele>170.0</ele><time>2026-04-18T16:37:04.965Z</time></trkpt><trkpt lat="45.0021793" lon="8.2460327"><ele>169.0</ele><time>2026-04-18T16:37:05.966Z</time></trkpt><trkpt lat="45.0019963" lon="8.2459492"><ele>168.0</ele><time>2026-04-18T16:37:06.969Z</time></trkpt><trkpt lat="45.0018222" lon="8.2458528"><ele>167.33333333333334</ele><time>2026-04-18T16:37:07.972Z</time></trkpt><trkpt lat="45.0016569" lon="8.2457452"><ele>166.66666666666669</ele><time>2026-04-18T16:37:08.967Z</time></trkpt><trkpt lat="45.0014947" lon="8.2456197"><ele>166.0</ele><time>2026-04-18T16:37:09.955Z</time></trkpt><trkpt lat="45.0013354" lon="8.2454788"><ele>165.66666666666669</ele><time>2026-04-18T16:37:10.974Z</time></trkpt><trkpt lat="45.0011765" lon="8.2453333"><ele>165.33333333333334</ele><time>2026-04-18T16:37:11.959Z</time></trkpt><trkpt lat="45.0010219" lon="8.2451831"><ele>165.0</ele><time>2026-04-18T16:37:12.957Z</time></trkpt><trkpt lat="45.0008718" lon="8.2450231"><ele>164.33333333333334</ele><time>2026-04-18T16:37:13.957Z</time></trkpt><trkpt lat="45.0007293" lon="8.2448595"><ele>163.66666666666669</ele><time>2026-04-18T16:37:14.953Z</time></trkpt><trkpt lat="45.0005953" lon="8.2446915"><ele>163.0</ele><time>2026-04-18T16:37:15.967Z</time></trkpt><trkpt lat="45.0004618" lon="8.2445195"><ele>163.0</ele><time>2026-04-18T16:37:16.973Z</time></trkpt><trkpt lat="45.0003292" lon="8.2443386"><ele>163.0</ele><time>2026-04-18T16:37:17.957Z</time></trkpt><trkpt lat="45.0001962" lon="8.2441531"><ele>163.0</ele><time>2026-04-18T16:37:18.96Z</time></trkpt><trkpt lat="45.0000642" lon="8.2439609"><ele>163.33333333333334</ele><time>2026-04-18T16:37:19.958Z</time></trkpt><trkpt lat="44.9999344" lon="8.243758"><ele>163.66666666666666</ele><time>2026-04-18T16:37:20.961Z</time></trkpt><trkpt lat="44.9998129" lon="8.243538"><ele>164.0</ele><time>2026-04-18T16:37:21.954Z</time></trkpt><trkpt lat="44.999699" lon="8.243306"><ele>164.66666666666666</ele><time>2026-04-18T16:37:22.965Z</time></trkpt><trkpt lat="44.9995926" lon="8.2430664"><ele>165.33333333333334</ele><time>2026-04-18T16:37:23.958Z</time></trkpt><trkpt lat="44.9994867" lon="8.242824"><ele>166.0</ele><time>2026-04-18T16:37:24.959Z</time></trkpt><trkpt lat="44.9993795" lon="8.2425796"><ele>166.0</ele><time>2026-04-18T16:37:25.962Z</time></trkpt><trkpt lat="44.9992716" lon="8.2423315"><ele>166.0</ele><time>2026-04-18T16:37:26.962Z</time></trkpt><trkpt lat="44.9991619" lon="8.2420761"><ele>166.0</ele><time>2026-04-18T16:37:27.969Z</time></trkpt><trkpt lat="44.9990507" lon="8.2418154"><ele>164.0</ele><time>2026-04-18T16:37:28.956Z</time></trkpt><trkpt lat="44.9989377" lon="8.2415495"><ele>162.0</ele><time>2026-04-18T16:37:29.97Z</time></trkpt><trkpt lat="44.9988234" lon="8.2412778"><ele>160.0</ele><time>2026-04-18T16:37:30.966Z</time></trkpt><trkpt lat="44.9987092" lon="8.2410049"><ele>159.0</ele><time>2026-04-18T16:37:31.956Z</time></trkpt><trkpt lat="44.9985945" lon="8.2407294"><ele>158.0</ele><time>2026-04-18T16:37:32.957Z</time></trkpt><trkpt lat="44.9984815" lon="8.2404582"><ele>157.0</ele><time>2026-04-18T16:37:33.971Z</time></trkpt><trkpt lat="44.9983661" lon="8.2401821"><ele>156.0</ele><time>2026-04-18T16:37:34.974Z</time></trkpt><trkpt lat="44.9982496" lon="8.2399056"><ele>155.0</ele><time>2026-04-18T16:37:35.96Z</time></trkpt><trkpt lat="44.9981321" lon="8.2396267"><ele>155.0</ele><time>2026-04-18T16:37:36.958Z</time></trkpt><trkpt lat="44.9980149" lon="8.2393505"><ele>155.0</ele><time>2026-04-18T16:37:37.956Z</time></trkpt><trkpt lat="44.9978983" lon="8.239076"><ele>155.33333333333331</ele><time>2026-04-18T16:37:38.964Z</time></trkpt><trkpt lat="44.9977856" lon="8.2388059"><ele>155.66666666666666</ele><time>2026-04-18T16:37:39.957Z</time></trkpt><trkpt lat="44.9976741" lon="8.2385433"><ele>156.0</ele><time>2026-04-18T16:37:40.956Z</time></trkpt><trkpt lat="44.9975612" lon="8.2382832"><ele>154.66666666666666</ele><time>2026-04-18T16:37:41.973Z</time></trkpt><trkpt lat="44.9974487" lon="8.2380223"><ele>153.33333333333331</ele><time>2026-04-18T16:37:42.97Z</time></trkpt><trkpt lat="44.9973344" lon="8.2377571"><ele>152.0</ele><time>2026-04-18T16:37:43.966Z</time></trkpt><trkpt lat="44.9972212" lon="8.2374908"><ele>152.0</ele><time>2026-04-18T16:37:44.96Z</time></trkpt><trkpt lat="44.9971061" lon="8.2372223"><ele>152.0</ele><time>2026-04-18T16:37:45.958Z</time></trkpt><trkpt lat="44.9969912" lon="8.2369529"><ele>152.0</ele><time>2026-04-18T16:37:46.964Z</time></trkpt><trkpt lat="44.9968779" lon="8.2366845"><ele>152.0</ele><time>2026-04-18T16:37:47.971Z</time></trkpt><trkpt lat="44.9967642" lon="8.2364149"><ele>152.0</ele><time>2026-04-18T16:37:48.954Z</time></trkpt><trkpt lat="44.9966501" lon="8.2361486"><ele>152.0</ele><time>2026-04-18T16:37:49.969Z</time></trkpt><trkpt lat="44.9965365" lon="8.2358843"><ele>151.66666666666666</ele><time>2026-04-18T16:37:50.964Z</time></trkpt><trkpt lat="44.9964234" lon="8.23562"><ele>151.33333333333334</ele><time>2026-04-18T16:37:51.959Z</time></trkpt><trkpt lat="44.9963109" lon="8.2353575"><ele>151.0</ele><time>2026-04-18T16:37:52.954Z</time></trkpt><trkpt lat="44.9962014" lon="8.2350959"><ele>151.0</ele><time>2026-04-18T16:37:53.957Z</time></trkpt><trkpt lat="44.9960938" lon="8.2348359"><ele>151.0</ele><time>2026-04-18T16:37:54.962Z</time></trkpt><trkpt lat="44.9959868" lon="8.2345756"><ele>151.0</ele><time>2026-04-18T16:37:55.959Z</time></trkpt><trkpt lat="44.99588" lon="8.2343163"><ele>151.0</ele><time>2026-04-18T16:37:56.962Z</time></trkpt><trkpt lat="44.9957736" lon="8.2340549"><ele>151.0</ele><time>2026-04-18T16:37:57.969Z</time></trkpt><trkpt lat="44.9956651" lon="8.2337943"><ele>151.0</ele><time>2026-04-18T16:37:58.975Z</time></trkpt><trkpt lat="44.9955509" lon="8.2335419"><ele>151.0</ele><time>2026-04-18T16:37:59.971Z</time></trkpt><trkpt lat="44.9954302" lon="8.2332995"><ele>151.0</ele><time>2026-04-18T16:38:00.97Z</time></trkpt><trkpt lat="44.9953058" lon="8.2330672"><ele>151.0</ele><time>2026-04-18T16:38:01.959Z</time></trkpt><trkpt lat="44.9951751" lon="8.2328458"><ele>150.66666666666669</ele><time>2026-04-18T16:38:02.957Z</time></trkpt><trkpt lat="44.9950438" lon="8.2326346"><ele>150.33333333333334</ele><time>2026-04-18T16:38:03.956Z</time></trkpt><trkpt lat="44.9949139" lon="8.2324328"><ele>150.0</ele><time>2026-04-18T16:38:04.965Z</time></trkpt><trkpt lat="44.9947854" lon="8.2322391"><ele>149.66666666666666</ele><time>2026-04-18T16:38:05.961Z</time></trkpt><trkpt lat="44.9946585" lon="8.2320542"><ele>149.33333333333331</ele><time>2026-04-18T16:38:06.964Z</time></trkpt><trkpt lat="44.9945315" lon="8.2318716"><ele>149.0</ele><time>2026-04-18T16:38:07.962Z</time></trkpt><trkpt lat="44.9944058" lon="8.2316963"><ele>149.0</ele><time>2026-04-18T16:38:08.954Z</time></trkpt><trkpt lat="44.9942796" lon="8.2315262"><ele>149.0</ele><time>2026-04-18T16:38:09.958Z</time></trkpt><trkpt lat="44.9941504" lon="8.23136"><ele>149.0</ele><time>2026-04-18T16:38:10.956Z</time></trkpt><trkpt lat="44.9940199" lon="8.2311934"><ele>148.66666666666666</ele><time>2026-04-18T16:38:11.957Z</time></trkpt><trkpt lat="44.9938902" lon="8.2310287"><ele>148.33333333333334</ele><time>2026-04-18T16:38:12.958Z</time></trkpt><trkpt lat="44.9937634" lon="8.2308689"><ele>148.0</ele><time>2026-04-18T16:38:13.957Z</time></trkpt><trkpt lat="44.9936423" lon="8.2307138"><ele>148.0</ele><time>2026-04-18T16:38:14.964Z</time></trkpt><trkpt lat="44.9935251" lon="8.2305632"><ele>148.0</ele><time>2026-04-18T16:38:15.955Z</time></trkpt><trkpt lat="44.9934104" lon="8.2304162"><ele>148.0</ele><time>2026-04-18T16:38:16.963Z</time></trkpt><trkpt lat="44.9932978" lon="8.2302729"><ele>148.0</ele><time>2026-04-18T16:38:17.967Z</time></trkpt><trkpt lat="44.9931853" lon="8.230128"><ele>148.0</ele><time>2026-04-18T16:38:18.963Z</time></trkpt><trkpt lat="44.9930739" lon="8.2299847"><ele>148.0</ele><time>2026-04-18T16:38:19.959Z</time></trkpt><trkpt lat="44.9929613" lon="8.2298384"><ele>147.33333333333334</ele><time>2026-04-18T16:38:20.964Z</time></trkpt><trkpt lat="44.9928425" lon="8.2296859"><ele>146.66666666666666</ele><time>2026-04-18T16:38:21.964Z</time></trkpt><trkpt lat="44.9927194" lon="8.22953"><ele>146.0</ele><time>2026-04-18T16:38:22.966Z</time></trkpt><trkpt lat="44.9925967" lon="8.2293712"><ele>146.33333333333331</ele><time>2026-04-18T16:38:23.963Z</time></trkpt><trkpt lat="44.992475" lon="8.2292153"><ele>146.66666666666666</ele><time>2026-04-18T16:38:24.958Z</time></trkpt><trkpt lat="44.9923519" lon="8.2290584"><ele>147.0</ele><time>2026-04-18T16:38:25.96Z</time></trkpt><trkpt lat="44.9922277" lon="8.2288959"><ele>146.33333333333334</ele><time>2026-04-18T16:38:26.972Z</time></trkpt><trkpt lat="44.9921018" lon="8.2287346"><ele>145.66666666666669</ele><time>2026-04-18T16:38:27.968Z</time></trkpt><trkpt lat="44.9919755" lon="8.2285704"><ele>145.0</ele><time>2026-04-18T16:38:28.97Z</time></trkpt><trkpt lat="44.9918501" lon="8.2284068"><ele>145.0</ele><time>2026-04-18T16:38:29.957Z</time></trkpt><trkpt lat="44.9917261" lon="8.2282489"><ele>145.0</ele><time>2026-04-18T16:38:30.959Z</time></trkpt><trkpt lat="44.9916024" lon="8.2280943"><ele>145.0</ele><time>2026-04-18T16:38:31.967Z</time></trkpt><trkpt lat="44.9914792" lon="8.2279437"><ele>144.33333333333334</ele><time>2026-04-18T16:38:32.974Z</time></trkpt><trkpt lat="44.9913602" lon="8.2277948"><ele>143.66666666666666</ele><time>2026-04-18T16:38:33.964Z</time></trkpt><trkpt lat="44.9912413" lon="8.227648"><ele>143.0</ele><time>2026-04-18T16:38:34.967Z</time></trkpt><trkpt lat="44.9911279" lon="8.2275042"><ele>143.0</ele><time>2026-04-18T16:38:35.963Z</time></trkpt><trkpt lat="44.9910158" lon="8.2273617"><ele>143.0</ele><time>2026-04-18T16:38:36.96Z</time></trkpt><trkpt lat="44.9909093" lon="8.2272268"><ele>143.0</ele><time>2026-04-18T16:38:37.961Z</time></trkpt><trkpt lat="44.9908021" lon="8.2270932"><ele>143.0</ele><time>2026-04-18T16:38:38.962Z</time></trkpt><trkpt lat="44.9906972" lon="8.2269618"><ele>143.0</ele><time>2026-04-18T16:38:39.972Z</time></trkpt><trkpt lat="44.9905922" lon="8.22683"><ele>143.0</ele><time>2026-04-18T16:38:40.968Z</time></trkpt><trkpt lat="44.9904891" lon="8.2267003"><ele>143.0</ele><time>2026-04-18T16:38:41.959Z</time></trkpt><trkpt lat="44.9903845" lon="8.2265687"><ele>143.0</ele><time>2026-04-18T16:38:42.974Z</time></trkpt><trkpt lat="44.990281" lon="8.2264351"><ele>142.25</ele><time>2026-04-18T16:38:43.967Z</time></trkpt><trkpt lat="44.9901794" lon="8.2263025"><ele>141.5</ele><time>2026-04-18T16:38:44.966Z</time></trkpt><trkpt lat="44.9900804" lon="8.2261727"><ele>140.75</ele><time>2026-04-18T16:38:45.97Z</time></trkpt><trkpt lat="44.9899838" lon="8.226043"><ele>140.0</ele><time>2026-04-18T16:38:46.971Z</time></trkpt><trkpt lat="44.9898871" lon="8.2259138"><ele>140.0</ele><time>2026-04-18T16:38:47.968Z</time></trkpt><trkpt lat="44.9897891" lon="8.2257859"><ele>140.0</ele><time>2026-04-18T16:38:48.965Z</time></trkpt><trkpt lat="44.9896928" lon="8.2256581"><ele>140.0</ele><time>2026-04-18T16:38:49.969Z</time></trkpt><trkpt lat="44.9895969" lon="8.2255343"><ele>140.0</ele><time>2026-04-18T16:38:50.964Z</time></trkpt><trkpt lat="44.9895011" lon="8.2254129"><ele>140.25</ele><time>2026-04-18T16:38:51.962Z</time></trkpt><trkpt lat="44.9894098" lon="8.225296"><ele>140.5</ele><time>2026-04-18T16:38:52.974Z</time></trkpt><trkpt lat="44.9893254" lon="8.2251811"><ele>140.75</ele><time>2026-04-18T16:38:53.971Z</time></trkpt><trkpt lat="44.9892441" lon="8.2250747"><ele>141.0</ele><time>2026-04-18T16:38:54.97Z</time></trkpt><trkpt lat="44.9891677" lon="8.2249787"><ele>140.6</ele><time>2026-04-18T16:38:55.962Z</time></trkpt><trkpt lat="44.9890949" lon="8.2248849"><ele>140.2</ele><time>2026-04-18T16:38:56.965Z</time></trkpt><trkpt lat="44.989026" lon="8.2247956"><ele>139.8</ele><time>2026-04-18T16:38:57.971Z</time></trkpt><trkpt lat="44.988959" lon="8.2247123"><ele>139.4</ele><time>2026-04-18T16:38:58.961Z</time></trkpt><trkpt lat="44.988892" lon="8.2246291"><ele>139.0</ele><time>2026-04-18T16:38:59.964Z</time></trkpt><trkpt lat="44.9888224" lon="8.2245523"><ele>139.0</ele><time>2026-04-18T16:39:00.967Z</time></trkpt><trkpt lat="44.9887447" lon="8.2244737"><ele>139.0</ele><time>2026-04-18T16:39:01.968Z</time></trkpt><trkpt lat="44.9886614" lon="8.2243964"><ele>139.0</ele><time>2026-04-18T16:39:02.969Z</time></trkpt><trkpt lat="44.9885706" lon="8.22432"><ele>139.0</ele><time>2026-04-18T16:39:03.957Z</time></trkpt><trkpt lat="44.9884745" lon="8.2242526"><ele>139.0</ele><time>2026-04-18T16:39:04.964Z</time></trkpt><trkpt lat="44.9883794" lon="8.224196"><ele>139.0</ele><time>2026-04-18T16:39:05.961Z</time></trkpt><trkpt lat="44.988291" lon="8.2241453"><ele>139.0</ele><time>2026-04-18T16:39:06.96Z</time></trkpt><trkpt lat="44.9882199" lon="8.2240981"><ele>139.0</ele><time>2026-04-18T16:39:07.959Z</time></trkpt><trkpt lat="44.9881714" lon="8.2240398"><ele>139.0</ele><time>2026-04-18T16:39:08.961Z</time></trkpt><trkpt lat="44.9881454" lon="8.2238657"><ele>139.0</ele><time>2026-04-18T16:39:10.964Z</time></trkpt><trkpt lat="44.9881607" lon="8.2237476"><ele>139.0</ele><time>2026-04-18T16:39:11.975Z</time></trkpt><trkpt lat="44.9881896" lon="8.2236033"><ele>139.0</ele><time>2026-04-18T16:39:12.968Z</time></trkpt><trkpt lat="44.9882272" lon="8.2234345"><ele>139.0</ele><time>2026-04-18T16:39:13.957Z</time></trkpt><trkpt lat="44.9882739" lon="8.2232447"><ele>139.0</ele><time>2026-04-18T16:39:14.96Z</time></trkpt><trkpt lat="44.9883313" lon="8.2230339"><ele>139.0</ele><time>2026-04-18T16:39:15.969Z</time></trkpt><trkpt lat="44.9884002" lon="8.2228229"><ele>138.66666666666669</ele><time>2026-04-18T16:39:16.958Z</time></trkpt><trkpt lat="44.9884832" lon="8.2226149"><ele>138.33333333333334</ele><time>2026-04-18T16:39:17.963Z</time></trkpt><trkpt lat="44.9885859" lon="8.2224114"><ele>138.0</ele><time>2026-04-18T16:39:18.974Z</time></trkpt><trkpt lat="44.9887053" lon="8.2222145"><ele>138.66666666666666</ele><time>2026-04-18T16:39:19.971Z</time></trkpt><trkpt lat="44.9888399" lon="8.2220222"><ele>139.33333333333331</ele><time>2026-04-18T16:39:20.963Z</time></trkpt><trkpt lat="44.9889762" lon="8.2218248"><ele>140.0</ele><time>2026-04-18T16:39:21.958Z</time></trkpt><trkpt lat="44.9891173" lon="8.2216215"><ele>140.66666666666666</ele><time>2026-04-18T16:39:22.956Z</time></trkpt><trkpt lat="44.9892611" lon="8.2214133"><ele>141.33333333333334</ele><time>2026-04-18T16:39:23.964Z</time></trkpt><trkpt lat="44.9894065" lon="8.2212039"><ele>142.0</ele><time>2026-04-18T16:39:24.966Z</time></trkpt><trkpt lat="44.9895494" lon="8.2209948"><ele>142.0</ele><time>2026-04-18T16:39:25.964Z</time></trkpt><trkpt lat="44.9896972" lon="8.2207797"><ele>142.0</ele><time>2026-04-18T16:39:26.962Z</time></trkpt><trkpt lat="44.9898467" lon="8.2205609"><ele>142.0</ele><time>2026-04-18T16:39:27.97Z</time></trkpt><trkpt lat="44.989998" lon="8.2203382"><ele>141.0</ele><time>2026-04-18T16:39:28.964Z</time></trkpt><trkpt lat="44.9901493" lon="8.2201168"><ele>140.0</ele><time>2026-04-18T16:39:29.967Z</time></trkpt><trkpt lat="44.9903013" lon="8.219895"><ele>139.0</ele><time>2026-04-18T16:39:30.972Z</time></trkpt><trkpt lat="44.9904529" lon="8.2196723"><ele>139.0</ele><time>2026-04-18T16:39:31.959Z</time></trkpt><trkpt lat="44.9906053" lon="8.2194476"><ele>139.0</ele><time>2026-04-18T16:39:32.962Z</time></trkpt><trkpt lat="44.9907582" lon="8.2192211"><ele>139.0</ele><time>2026-04-18T16:39:33.972Z</time></trkpt><trkpt lat="44.9909142" lon="8.2189945"><ele>139.0</ele><time>2026-04-18T16:39:34.955Z</time></trkpt><trkpt lat="44.9910707" lon="8.2187675"><ele>139.0</ele><time>2026-04-18T16:39:35.971Z</time></trkpt><trkpt lat="44.9912269" lon="8.2185412"><ele>139.0</ele><time>2026-04-18T16:39:36.97Z</time></trkpt><trkpt lat="44.9913802" lon="8.2183175"><ele>139.33333333333334</ele><time>2026-04-18T16:39:37.965Z</time></trkpt><trkpt lat="44.9915279" lon="8.2180998"><ele>139.66666666666666</ele><time>2026-04-18T16:39:38.963Z</time></trkpt><trkpt lat="44.9916644" lon="8.217886"><ele>140.0</ele><time>2026-04-18T16:39:39.973Z</time></trkpt><trkpt lat="44.9917892" lon="8.2176724"><ele>140.66666666666666</ele><time>2026-04-18T16:39:40.965Z</time></trkpt><trkpt lat="44.9919092" lon="8.2174596"><ele>141.33333333333334</ele><time>2026-04-18T16:39:41.964Z</time></trkpt><trkpt lat="44.9920352" lon="8.2172477"><ele>142.0</ele><time>2026-04-18T16:39:42.959Z</time></trkpt><trkpt lat="44.9921755" lon="8.2170405"><ele>142.0</ele><time>2026-04-18T16:39:43.967Z</time></trkpt><trkpt lat="44.9923288" lon="8.2168387"><ele>142.0</ele><time>2026-04-18T16:39:44.972Z</time></trkpt><trkpt lat="44.9924974" lon="8.2166366"><ele>142.0</ele><time>2026-04-18T16:39:45.967Z</time></trkpt><trkpt lat="44.9926647" lon="8.2164221"><ele>142.5</ele><time>2026-04-18T16:39:46.969Z</time></trkpt><trkpt lat="44.9928312" lon="8.2161922"><ele>143.0</ele><time>2026-04-18T16:39:47.97Z</time></trkpt><trkpt lat="44.9929968" lon="8.2159545"><ele>143.0</ele><time>2026-04-18T16:39:48.96Z</time></trkpt><trkpt lat="44.993163" lon="8.2157143"><ele>143.0</ele><time>2026-04-18T16:39:49.966Z</time></trkpt><trkpt lat="44.9933299" lon="8.2154737"><ele>141.5</ele><time>2026-04-18T16:39:50.965Z</time></trkpt><trkpt lat="44.993496" lon="8.2152308"><ele>140.0</ele><time>2026-04-18T16:39:51.96Z</time></trkpt><trkpt lat="44.9936628" lon="8.2149869"><ele>140.5</ele><time>2026-04-18T16:39:52.964Z</time></trkpt><trkpt lat="44.9938302" lon="8.2147429"><ele>141.0</ele><time>2026-04-18T16:39:53.963Z</time></trkpt><trkpt lat="44.9939976" lon="8.2144985"><ele>141.0</ele><time>2026-04-18T16:39:54.972Z</time></trkpt><trkpt lat="44.9941655" lon="8.2142511"><ele>141.0</ele><time>2026-04-18T16:39:55.956Z</time></trkpt><trkpt lat="44.9943349" lon="8.2140019"><ele>142.0</ele><time>2026-04-18T16:39:56.963Z</time></trkpt><trkpt lat="44.9945066" lon="8.2137507"><ele>143.0</ele><time>2026-04-18T16:39:57.975Z</time></trkpt><trkpt lat="44.9946807" lon="8.2134976"><ele>143.0</ele><time>2026-04-18T16:39:58.964Z</time></trkpt><trkpt lat="44.9948559" lon="8.2132415"><ele>143.0</ele><time>2026-04-18T16:39:59.96Z</time></trkpt><trkpt lat="44.9950329" lon="8.2129832"><ele>141.5</ele><time>2026-04-18T16:40:00.964Z</time></trkpt><trkpt lat="44.9952114" lon="8.2127233"><ele>140.0</ele><time>2026-04-18T16:40:01.959Z</time></trkpt><trkpt lat="44.9953907" lon="8.2124622"><ele>141.0</ele><time>2026-04-18T16:40:02.964Z</time></trkpt><trkpt lat="44.9955705" lon="8.2122004"><ele>142.0</ele><time>2026-04-18T16:40:03.963Z</time></trkpt><trkpt lat="44.995751" lon="8.2119381"><ele>142.0</ele><time>2026-04-18T16:40:04.966Z</time></trkpt><trkpt lat="44.9959323" lon="8.2116757"><ele>142.0</ele><time>2026-04-18T16:40:05.957Z</time></trkpt><trkpt lat="44.9961142" lon="8.2114147"><ele>142.5</ele><time>2026-04-18T16:40:06.957Z</time></trkpt><trkpt lat="44.9962959" lon="8.211153"><ele>143.0</ele><time>2026-04-18T16:40:07.966Z</time></trkpt><trkpt lat="44.9964766" lon="8.2108909"><ele>143.0</ele><time>2026-04-18T16:40:08.963Z</time></trkpt><trkpt lat="44.9966555" lon="8.21063"><ele>143.0</ele><time>2026-04-18T16:40:09.957Z</time></trkpt><trkpt lat="44.9968316" lon="8.2103717"><ele>142.0</ele><time>2026-04-18T16:40:10.954Z</time></trkpt><trkpt lat="44.997" lon="8.2101236"><ele>141.0</ele><time>2026-04-18T16:40:11.955Z</time></trkpt><trkpt lat="44.9971641" lon="8.2098821"><ele>142.0</ele><time>2026-04-18T16:40:12.968Z</time></trkpt><trkpt lat="44.9973239" lon="8.2096492"><ele>143.0</ele><time>2026-04-18T16:40:13.962Z</time></trkpt><trkpt lat="44.9974788" lon="8.2094216"><ele>143.66666666666666</ele><time>2026-04-18T16:40:14.966Z</time></trkpt><trkpt lat="44.9976274" lon="8.2092039"><ele>144.33333333333334</ele><time>2026-04-18T16:40:15.958Z</time></trkpt><trkpt lat="44.9977697" lon="8.2089985"><ele>145.0</ele><time>2026-04-18T16:40:16.956Z</time></trkpt><trkpt lat="44.9979021" lon="8.2088099"><ele>145.0</ele><time>2026-04-18T16:40:17.963Z</time></trkpt><trkpt lat="44.9980265" lon="8.2086286"><ele>145.0</ele><time>2026-04-18T16:40:18.958Z</time></trkpt><trkpt lat="44.9981448" lon="8.2084544"><ele>145.0</ele><time>2026-04-18T16:40:19.965Z</time></trkpt><trkpt lat="44.9982585" lon="8.2082879"><ele>144.66666666666669</ele><time>2026-04-18T16:40:20.963Z</time></trkpt><trkpt lat="44.9983684" lon="8.2081209"><ele>144.33333333333334</ele><time>2026-04-18T16:40:21.959Z</time></trkpt><trkpt lat="44.9984865" lon="8.2079369"><ele>144.0</ele><time>2026-04-18T16:40:22.963Z</time></trkpt><trkpt lat="44.9986169" lon="8.2077375"><ele>144.0</ele><time>2026-04-18T16:40:23.964Z</time></trkpt><trkpt lat="44.9987607" lon="8.2075233"><ele>144.0</ele><time>2026-04-18T16:40:24.962Z</time></trkpt><trkpt lat="44.9989171" lon="8.2073016"><ele>144.0</ele><time>2026-04-18T16:40:25.97Z</time></trkpt><trkpt lat="44.999084" lon="8.2070733"><ele>144.0</ele><time>2026-04-18T16:40:26.957Z</time></trkpt><trkpt lat="44.9992549" lon="8.2068366"><ele>144.0</ele><time>2026-04-18T16:40:27.963Z</time></trkpt><trkpt lat="44.9994213" lon="8.2065983"><ele>145.5</ele><time>2026-04-18T16:40:28.969Z</time></trkpt><trkpt lat="44.9995888" lon="8.2063559"><ele>147.0</ele><time>2026-04-18T16:40:29.971Z</time></trkpt><trkpt lat="44.9997599" lon="8.2061098"><ele>147.0</ele><time>2026-04-18T16:40:30.968Z</time></trkpt><trkpt lat="44.9999312" lon="8.2058599"><ele>147.0</ele><time>2026-04-18T16:40:31.955Z</time></trkpt><trkpt lat="45.0001048" lon="8.2056061"><ele>147.0</ele><time>2026-04-18T16:40:32.972Z</time></trkpt><trkpt lat="45.0002808" lon="8.205346"><ele>147.0</ele><time>2026-04-18T16:40:33.966Z</time></trkpt><trkpt lat="45.0004552" lon="8.205081"><ele>146.0</ele><time>2026-04-18T16:40:34.966Z</time></trkpt><trkpt lat="45.000625" lon="8.2048093"><ele>145.0</ele><time>2026-04-18T16:40:35.959Z</time></trkpt><trkpt lat="45.0007897" lon="8.2045277"><ele>145.0</ele><time>2026-04-18T16:40:36.959Z</time></trkpt><trkpt lat="45.0009511" lon="8.2042426"><ele>145.0</ele><time>2026-04-18T16:40:37.964Z</time></trkpt><trkpt lat="45.0011077" lon="8.2039458"><ele>144.0</ele><time>2026-04-18T16:40:38.972Z</time></trkpt><trkpt lat="45.0012579" lon="8.203644"><ele>143.0</ele><time>2026-04-18T16:40:39.959Z</time></trkpt><trkpt lat="45.0014025" lon="8.2033349"><ele>143.0</ele><time>2026-04-18T16:40:40.957Z</time></trkpt><trkpt lat="45.0015413" lon="8.203021"><ele>143.0</ele><time>2026-04-18T16:40:41.962Z</time></trkpt><trkpt lat="45.0016753" lon="8.2027015"><ele>143.5</ele><time>2026-04-18T16:40:42.964Z</time></trkpt><trkpt lat="45.0018009" lon="8.2023792"><ele>144.0</ele><time>2026-04-18T16:40:43.959Z</time></trkpt><trkpt lat="45.0019213" lon="8.202053"><ele>145.5</ele><time>2026-04-18T16:40:44.955Z</time></trkpt><trkpt lat="45.0020351" lon="8.2017232"><ele>147.0</ele><time>2026-04-18T16:40:45.959Z</time></trkpt><trkpt lat="45.0021427" lon="8.2013893"><ele>148.5</ele><time>2026-04-18T16:40:46.961Z</time></trkpt><trkpt lat="45.0022445" lon="8.2010524"><ele>150.0</ele><time>2026-04-18T16:40:47.963Z</time></trkpt><trkpt lat="45.0023401" lon="8.2007131"><ele>150.0</ele><time>2026-04-18T16:40:48.959Z</time></trkpt><trkpt lat="45.0024328" lon="8.2003732"><ele>150.0</ele><time>2026-04-18T16:40:49.964Z</time></trkpt><trkpt lat="45.0025262" lon="8.2000331"><ele>148.0</ele><time>2026-04-18T16:40:50.968Z</time></trkpt><trkpt lat="45.0026202" lon="8.1996938"><ele>146.0</ele><time>2026-04-18T16:40:51.962Z</time></trkpt><trkpt lat="45.0027138" lon="8.1993551"><ele>146.0</ele><time>2026-04-18T16:40:52.972Z</time></trkpt><trkpt lat="45.0028071" lon="8.199018"><ele>146.0</ele><time>2026-04-18T16:40:53.964Z</time></trkpt><trkpt lat="45.0029016" lon="8.1986826"><ele>146.0</ele><time>2026-04-18T16:40:54.959Z</time></trkpt><trkpt lat="45.0029948" lon="8.1983479"><ele>146.0</ele><time>2026-04-18T16:40:55.975Z</time></trkpt><trkpt lat="45.003087" lon="8.1980145"><ele>147.0</ele><time>2026-04-18T16:40:56.966Z</time></trkpt><trkpt lat="45.0031782" lon="8.1976821"><ele>148.0</ele><time>2026-04-18T16:40:57.972Z</time></trkpt><trkpt lat="45.0032678" lon="8.1973541"><ele>147.0</ele><time>2026-04-18T16:40:58.964Z</time></trkpt><trkpt lat="45.003355" lon="8.1970313"><ele>146.0</ele><time>2026-04-18T16:40:59.962Z</time></trkpt><trkpt lat="45.00344" lon="8.196714"><ele>146.5</ele><time>2026-04-18T16:41:00.975Z</time></trkpt><trkpt lat="45.0035254" lon="8.1963995"><ele>147.0</ele><time>2026-04-18T16:41:01.975Z</time></trkpt><trkpt lat="45.0036151" lon="8.1960859"><ele>147.0</ele><time>2026-04-18T16:41:02.97Z</time></trkpt><trkpt lat="45.0037082" lon="8.1957729"><ele>147.0</ele><time>2026-04-18T16:41:03.964Z</time></trkpt><trkpt lat="45.0038105" lon="8.195465"><ele>147.0</ele><time>2026-04-18T16:41:04.975Z</time></trkpt><trkpt lat="45.0039236" lon="8.1951611"><ele>147.0</ele><time>2026-04-18T16:41:05.962Z</time></trkpt><trkpt lat="45.0040483" lon="8.194865"><ele>148.5</ele><time>2026-04-18T16:41:06.963Z</time></trkpt><trkpt lat="45.0041864" lon="8.1945764"><ele>150.0</ele><time>2026-04-18T16:41:07.962Z</time></trkpt><trkpt lat="45.0043324" lon="8.1942959"><ele>150.0</ele><time>2026-04-18T16:41:08.962Z</time></trkpt><trkpt lat="45.0044892" lon="8.1940273"><ele>150.0</ele><time>2026-04-18T16:41:09.963Z</time></trkpt><trkpt lat="45.0046564" lon="8.193771"><ele>150.0</ele><time>2026-04-18T16:41:10.965Z</time></trkpt><trkpt lat="45.0048275" lon="8.1935208"><ele>150.0</ele><time>2026-04-18T16:41:11.963Z</time></trkpt><trkpt lat="45.004999" lon="8.1932727"><ele>150.5</ele><time>2026-04-18T16:41:12.957Z</time></trkpt><trkpt lat="45.0051708" lon="8.1930245"><ele>151.0</ele><time>2026-04-18T16:41:13.965Z</time></trkpt><trkpt lat="45.0053435" lon="8.192776"><ele>151.0</ele><time>2026-04-18T16:41:14.97Z</time></trkpt><trkpt lat="45.0055176" lon="8.1925258"><ele>151.0</ele><time>2026-04-18T16:41:15.974Z</time></trkpt><trkpt lat="45.0056933" lon="8.1922756"><ele>149.0</ele><time>2026-04-18T16:41:16.968Z</time></trkpt><trkpt lat="45.0058684" lon="8.1920261"><ele>147.0</ele><time>2026-04-18T16:41:17.964Z</time></trkpt><trkpt lat="45.0060415" lon="8.191776"><ele>147.0</ele><time>2026-04-18T16:41:18.954Z</time></trkpt><trkpt lat="45.0062098" lon="8.1915192"><ele>147.0</ele><time>2026-04-18T16:41:19.964Z</time></trkpt><trkpt lat="45.0063695" lon="8.191253"><ele>146.5</ele><time>2026-04-18T16:41:20.958Z</time></trkpt><trkpt lat="45.0065183" lon="8.1909737"><ele>146.0</ele><time>2026-04-18T16:41:21.973Z</time></trkpt><trkpt lat="45.0066564" lon="8.1906814"><ele>146.5</ele><time>2026-04-18T16:41:22.968Z</time></trkpt><trkpt lat="45.0067834" lon="8.1903774"><ele>147.0</ele><time>2026-04-18T16:41:23.957Z</time></trkpt><trkpt lat="45.0068989" lon="8.1900614"><ele>146.5</ele><time>2026-04-18T16:41:24.961Z</time></trkpt><trkpt lat="45.0070036" lon="8.1897366"><ele>146.0</ele><time>2026-04-18T16:41:25.97Z</time></trkpt><trkpt lat="45.0070997" lon="8.1894063"><ele>146.0</ele><time>2026-04-18T16:41:26.958Z</time></trkpt><trkpt lat="45.0071913" lon="8.189078"><ele>146.0</ele><time>2026-04-18T16:41:27.958Z</time></trkpt><trkpt lat="45.007279" lon="8.188757"><ele>147.0</ele><time>2026-04-18T16:41:28.955Z</time></trkpt><trkpt lat="45.0073658" lon="8.188438"><ele>148.0</ele><time>2026-04-18T16:41:29.962Z</time></trkpt><trkpt lat="45.0074528" lon="8.1881209"><ele>148.5</ele><time>2026-04-18T16:41:30.97Z</time></trkpt><trkpt lat="45.0075386" lon="8.1878088"><ele>149.0</ele><time>2026-04-18T16:41:31.967Z</time></trkpt><trkpt lat="45.0076228" lon="8.1875041"><ele>148.33333333333331</ele><time>2026-04-18T16:41:32.958Z</time></trkpt><trkpt lat="45.0077047" lon="8.1872043"><ele>147.66666666666666</ele><time>2026-04-18T16:41:33.957Z</time></trkpt><trkpt lat="45.0077837" lon="8.1869107"><ele>147.0</ele><time>2026-04-18T16:41:34.971Z</time></trkpt><trkpt lat="45.0078591" lon="8.1866254"><ele>146.66666666666666</ele><time>2026-04-18T16:41:35.975Z</time></trkpt><trkpt lat="45.0079326" lon="8.1863445"><ele>146.33333333333331</ele><time>2026-04-18T16:41:36.963Z</time></trkpt><trkpt lat="45.0080055" lon="8.1860695"><ele>146.0</ele><time>2026-04-18T16:41:37.967Z</time></trkpt><trkpt lat="45.0080768" lon="8.1858014"><ele>147.0</ele><time>2026-04-18T16:41:38.973Z</time></trkpt><trkpt lat="45.0081481" lon="8.1855399"><ele>148.0</ele><time>2026-04-18T16:41:39.974Z</time></trkpt><trkpt lat="45.008217" lon="8.1852868"><ele>149.0</ele><time>2026-04-18T16:41:40.975Z</time></trkpt><trkpt lat="45.0082836" lon="8.1850404"><ele>149.66666666666666</ele><time>2026-04-18T16:41:41.973Z</time></trkpt><trkpt lat="45.0083466" lon="8.1848047"><ele>150.33333333333334</ele><time>2026-04-18T16:41:42.974Z</time></trkpt><trkpt lat="45.0084065" lon="8.1845739"><ele>151.0</ele><time>2026-04-18T16:41:43.974Z</time></trkpt><trkpt lat="45.0084675" lon="8.1843478"><ele>151.0</ele><time>2026-04-18T16:41:44.975Z</time></trkpt><trkpt lat="45.0085292" lon="8.1841182"><ele>151.0</ele><time>2026-04-18T16:41:45.971Z</time></trkpt><trkpt lat="45.0085925" lon="8.1838858"><ele>151.0</ele><time>2026-04-18T16:41:46.972Z</time></trkpt><trkpt lat="45.008657" lon="8.1836521"><ele>150.66666666666669</ele><time>2026-04-18T16:41:47.962Z</time></trkpt><trkpt lat="45.0087233" lon="8.1834154"><ele>150.33333333333334</ele><time>2026-04-18T16:41:48.963Z</time></trkpt><trkpt lat="45.0087892" lon="8.1831826"><ele>150.0</ele><time>2026-04-18T16:41:49.959Z</time></trkpt><trkpt lat="45.0088529" lon="8.1829453"><ele>150.0</ele><time>2026-04-18T16:41:50.958Z</time></trkpt><trkpt lat="45.0089152" lon="8.1827054"><ele>150.0</ele><time>2026-04-18T16:41:51.971Z</time></trkpt><trkpt lat="45.008979" lon="8.182468"><ele>150.0</ele><time>2026-04-18T16:41:52.961Z</time></trkpt><trkpt lat="45.0090422" lon="8.1822258"><ele>150.33333333333334</ele><time>2026-04-18T16:41:53.961Z</time></trkpt><trkpt lat="45.0091083" lon="8.1819767"><ele>150.66666666666669</ele><time>2026-04-18T16:41:54.963Z</time></trkpt><trkpt lat="45.0091744" lon="8.1817228"><ele>151.0</ele><time>2026-04-18T16:41:55.964Z</time></trkpt><trkpt lat="45.0092432" lon="8.1814625"><ele>151.0</ele><time>2026-04-18T16:41:56.964Z</time></trkpt><trkpt lat="45.0093144" lon="8.181196"><ele>151.0</ele><time>2026-04-18T16:41:57.965Z</time></trkpt><trkpt lat="45.0093883" lon="8.1809248"><ele>151.0</ele><time>2026-04-18T16:41:58.958Z</time></trkpt><trkpt lat="45.0094634" lon="8.1806464"><ele>150.66666666666669</ele><time>2026-04-18T16:41:59.96Z</time></trkpt><trkpt lat="45.009541" lon="8.180364"><ele>150.33333333333334</ele><time>2026-04-18T16:42:00.965Z</time></trkpt><trkpt lat="45.0096191" lon="8.1800773"><ele>150.0</ele><time>2026-04-18T16:42:01.961Z</time></trkpt><trkpt lat="45.0096977" lon="8.1797855"><ele>150.0</ele><time>2026-04-18T16:42:02.971Z</time></trkpt><trkpt lat="45.0097764" lon="8.1794877"><ele>150.0</ele><time>2026-04-18T16:42:03.962Z</time></trkpt><trkpt lat="45.009858" lon="8.1791873"><ele>150.5</ele><time>2026-04-18T16:42:04.955Z</time></trkpt><trkpt lat="45.0099405" lon="8.178884"><ele>151.0</ele><time>2026-04-18T16:42:05.961Z</time></trkpt><trkpt lat="45.0100246" lon="8.1785775"><ele>151.0</ele><time>2026-04-18T16:42:06.962Z</time></trkpt><trkpt lat="45.0101101" lon="8.1782731"><ele>151.0</ele><time>2026-04-18T16:42:07.959Z</time></trkpt><trkpt lat="45.0101943" lon="8.1779671"><ele>152.0</ele><time>2026-04-18T16:42:08.962Z</time></trkpt><trkpt lat="45.0102779" lon="8.1776591"><ele>153.0</ele><time>2026-04-18T16:42:09.969Z</time></trkpt><trkpt lat="45.0103594" lon="8.177351"><ele>153.5</ele><time>2026-04-18T16:42:10.974Z</time></trkpt><trkpt lat="45.0104417" lon="8.177042"><ele>154.0</ele><time>2026-04-18T16:42:11.967Z</time></trkpt><trkpt lat="45.0105257" lon="8.176732"><ele>153.0</ele><time>2026-04-18T16:42:12.974Z</time></trkpt><trkpt lat="45.0106116" lon="8.1764217"><ele>152.0</ele><time>2026-04-18T16:42:13.968Z</time></trkpt><trkpt lat="45.0106991" lon="8.1761078"><ele>152.0</ele><time>2026-04-18T16:42:14.975Z</time></trkpt><trkpt lat="45.0107871" lon="8.1757893"><ele>152.0</ele><time>2026-04-18T16:42:15.963Z</time></trkpt><trkpt lat="45.0108717" lon="8.1754716"><ele>151.5</ele><time>2026-04-18T16:42:16.955Z</time></trkpt><trkpt lat="45.010957" lon="8.1751526"><ele>151.0</ele><time>2026-04-18T16:42:17.964Z</time></trkpt><trkpt lat="45.011045" lon="8.1748316"><ele>151.0</ele><time>2026-04-18T16:42:18.971Z</time></trkpt><trkpt lat="45.0111328" lon="8.1745108"><ele>151.0</ele><time>2026-04-18T16:42:19.955Z</time></trkpt><trkpt lat="45.0112207" lon="8.1741911"><ele>151.5</ele><time>2026-04-18T16:42:20.954Z</time></trkpt><trkpt lat="45.0113058" lon="8.1738828"><ele>152.0</ele><time>2026-04-18T16:42:21.956Z</time></trkpt><trkpt lat="45.011385" lon="8.1735834"><ele>152.0</ele><time>2026-04-18T16:42:22.959Z</time></trkpt><trkpt lat="45.0114607" lon="8.1732896"><ele>152.0</ele><time>2026-04-18T16:42:23.966Z</time></trkpt><trkpt lat="45.0115332" lon="8.1729994"><ele>152.0</ele><time>2026-04-18T16:42:24.963Z</time></trkpt><trkpt lat="45.0116061" lon="8.1727044"><ele>152.0</ele><time>2026-04-18T16:42:25.958Z</time></trkpt><trkpt lat="45.0116786" lon="8.1724092"><ele>152.0</ele><time>2026-04-18T16:42:26.959Z</time></trkpt><trkpt lat="45.0117508" lon="8.1721188"><ele>152.0</ele><time>2026-04-18T16:42:27.962Z</time></trkpt><trkpt lat="45.0118263" lon="8.1718305"><ele>151.66666666666666</ele><time>2026-04-18T16:42:28.965Z</time></trkpt><trkpt lat="45.0119058" lon="8.1715519"><ele>151.33333333333334</ele><time>2026-04-18T16:42:29.968Z</time></trkpt><trkpt lat="45.0119903" lon="8.1712834"><ele>151.0</ele><time>2026-04-18T16:42:30.956Z</time></trkpt><trkpt lat="45.0120738" lon="8.171014"><ele>151.0</ele><time>2026-04-18T16:42:31.971Z</time></trkpt><trkpt lat="45.0121532" lon="8.1707357"><ele>151.0</ele><time>2026-04-18T16:42:32.975Z</time></trkpt><trkpt lat="45.0122296" lon="8.1704556"><ele>151.0</ele><time>2026-04-18T16:42:33.97Z</time></trkpt><trkpt lat="45.0123069" lon="8.1701712"><ele>151.0</ele><time>2026-04-18T16:42:34.958Z</time></trkpt><trkpt lat="45.0123862" lon="8.1698844"><ele>151.0</ele><time>2026-04-18T16:42:35.965Z</time></trkpt><trkpt lat="45.0124668" lon="8.1695934"><ele>151.0</ele><time>2026-04-18T16:42:36.975Z</time></trkpt><trkpt lat="45.0125461" lon="8.1693007"><ele>151.5</ele><time>2026-04-18T16:42:37.968Z</time></trkpt><trkpt lat="45.0126273" lon="8.1690047"><ele>152.0</ele><time>2026-04-18T16:42:38.971Z</time></trkpt><trkpt lat="45.0127119" lon="8.168707"><ele>152.0</ele><time>2026-04-18T16:42:39.975Z</time></trkpt><trkpt lat="45.0128039" lon="8.1684092"><ele>152.0</ele><time>2026-04-18T16:42:40.962Z</time></trkpt><trkpt lat="45.0129052" lon="8.1681136"><ele>152.0</ele><time>2026-04-18T16:42:41.962Z</time></trkpt><trkpt lat="45.0130165" lon="8.1678254"><ele>152.0</ele><time>2026-04-18T16:42:42.974Z</time></trkpt><trkpt lat="45.0131411" lon="8.1675457"><ele>152.0</ele><time>2026-04-18T16:42:43.97Z</time></trkpt><trkpt lat="45.0132755" lon="8.1672701"><ele>152.0</ele><time>2026-04-18T16:42:44.964Z</time></trkpt><trkpt lat="45.0134203" lon="8.1670063"><ele>152.0</ele><time>2026-04-18T16:42:45.964Z</time></trkpt><trkpt lat="45.0135739" lon="8.1667523"><ele>152.0</ele><time>2026-04-18T16:42:46.963Z</time></trkpt><trkpt lat="45.0137351" lon="8.1665107"><ele>153.5</ele><time>2026-04-18T16:42:47.959Z</time></trkpt><trkpt lat="45.0139034" lon="8.1662792"><ele>155.0</ele><time>2026-04-18T16:42:48.962Z</time></trkpt><trkpt lat="45.014078" lon="8.1660543"><ele>153.5</ele><time>2026-04-18T16:42:49.967Z</time></trkpt><trkpt lat="45.0142528" lon="8.1658266"><ele>152.0</ele><time>2026-04-18T16:42:50.973Z</time></trkpt><trkpt lat="45.0144283" lon="8.1655981"><ele>151.5</ele><time>2026-04-18T16:42:51.975Z</time></trkpt><trkpt lat="45.014604" lon="8.1653704"><ele>151.0</ele><time>2026-04-18T16:42:52.959Z</time></trkpt><trkpt lat="45.0147803" lon="8.1651425"><ele>151.0</ele><time>2026-04-18T16:42:53.962Z</time></trkpt><trkpt lat="45.014954" lon="8.1649145"><ele>151.0</ele><time>2026-04-18T16:42:54.966Z</time></trkpt><trkpt lat="45.0151281" lon="8.1646837"><ele>152.0</ele><time>2026-04-18T16:42:55.96Z</time></trkpt><trkpt lat="45.015301" lon="8.1644546"><ele>153.0</ele><time>2026-04-18T16:42:56.962Z</time></trkpt><trkpt lat="45.0154736" lon="8.1642257"><ele>153.0</ele><time>2026-04-18T16:42:57.963Z</time></trkpt><trkpt lat="45.0156473" lon="8.1639954"><ele>153.0</ele><time>2026-04-18T16:42:58.961Z</time></trkpt><trkpt lat="45.0159992" lon="8.163533"><ele>153.0</ele><time>2026-04-18T16:43:00.96Z</time></trkpt><trkpt lat="45.0161773" lon="8.1632996"><ele>153.0</ele><time>2026-04-18T16:43:01.965Z</time></trkpt><trkpt lat="45.0163567" lon="8.1630639"><ele>153.0</ele><time>2026-04-18T16:43:02.959Z</time></trkpt><trkpt lat="45.0165355" lon="8.1628276"><ele>153.0</ele><time>2026-04-18T16:43:03.959Z</time></trkpt><trkpt lat="45.0167138" lon="8.1625906"><ele>153.5</ele><time>2026-04-18T16:43:04.96Z</time></trkpt><trkpt lat="45.0168944" lon="8.1623549"><ele>154.0</ele><time>2026-04-18T16:43:05.964Z</time></trkpt><trkpt lat="45.0170779" lon="8.1621266"><ele>154.0</ele><time>2026-04-18T16:43:06.964Z</time></trkpt><trkpt lat="45.0172684" lon="8.1619095"><ele>154.0</ele><time>2026-04-18T16:43:07.956Z</time></trkpt><trkpt lat="45.0174662" lon="8.161709"><ele>154.5</ele><time>2026-04-18T16:43:08.97Z</time></trkpt><trkpt lat="45.0176681" lon="8.1615175"><ele>155.0</ele><time>2026-04-18T16:43:09.957Z</time></trkpt><trkpt lat="45.0178726" lon="8.1613274"><ele>155.0</ele><time>2026-04-18T16:43:10.959Z</time></trkpt><trkpt lat="45.0180773" lon="8.1611343"><ele>155.0</ele><time>2026-04-18T16:43:11.961Z</time></trkpt><trkpt lat="45.0182838" lon="8.1609428"><ele>155.5</ele><time>2026-04-18T16:43:12.958Z</time></trkpt><trkpt lat="45.0184921" lon="8.1607491"><ele>156.0</ele><time>2026-04-18T16:43:13.962Z</time></trkpt><trkpt lat="45.0186997" lon="8.1605566"><ele>157.5</ele><time>2026-04-18T16:43:14.962Z</time></trkpt><trkpt lat="45.0189096" lon="8.1603653"><ele>159.0</ele><time>2026-04-18T16:43:15.968Z</time></trkpt><trkpt lat="45.0191202" lon="8.1601732"><ele>159.0</ele><time>2026-04-18T16:43:16.969Z</time></trkpt><trkpt lat="45.0193316" lon="8.1599802"><ele>159.0</ele><time>2026-04-18T16:43:17.954Z</time></trkpt><trkpt lat="45.0195385" lon="8.1597887"><ele>159.0</ele><time>2026-04-18T16:43:18.959Z</time></trkpt><trkpt lat="45.0197446" lon="8.1595994"><ele>159.0</ele><time>2026-04-18T16:43:19.959Z</time></trkpt><trkpt lat="45.0199485" lon="8.1594113"><ele>159.0</ele><time>2026-04-18T16:43:20.974Z</time></trkpt><trkpt lat="45.0201491" lon="8.1592296"><ele>159.0</ele><time>2026-04-18T16:43:21.959Z</time></trkpt><trkpt lat="45.020344" lon="8.1590515"><ele>159.0</ele><time>2026-04-18T16:43:22.965Z</time></trkpt><trkpt lat="45.0205342" lon="8.1588761"><ele>159.0</ele><time>2026-04-18T16:43:23.965Z</time></trkpt><trkpt lat="45.0207185" lon="8.1587039"><ele>159.0</ele><time>2026-04-18T16:43:24.959Z</time></trkpt><trkpt lat="45.0208941" lon="8.158534"><ele>159.0</ele><time>2026-04-18T16:43:25.958Z</time></trkpt><trkpt lat="45.0210551" lon="8.1583594"><ele>159.0</ele><time>2026-04-18T16:43:26.961Z</time></trkpt><trkpt lat="45.0212021" lon="8.1581734"><ele>159.0</ele><time>2026-04-18T16:43:27.956Z</time></trkpt><trkpt lat="45.021341" lon="8.1579728"><ele>159.0</ele><time>2026-04-18T16:43:28.971Z</time></trkpt><trkpt lat="45.0214747" lon="8.1577582"><ele>159.0</ele><time>2026-04-18T16:43:29.972Z</time></trkpt><trkpt lat="45.0216007" lon="8.1575268"><ele>159.0</ele><time>2026-04-18T16:43:30.964Z</time></trkpt><trkpt lat="45.0217129" lon="8.1572776"><ele>161.33333333333334</ele><time>2026-04-18T16:43:31.956Z</time></trkpt><trkpt lat="45.0218196" lon="8.1570111"><ele>163.66666666666669</ele><time>2026-04-18T16:43:32.958Z</time></trkpt><trkpt lat="45.0219255" lon="8.1567376"><ele>166.0</ele><time>2026-04-18T16:43:33.966Z</time></trkpt><trkpt lat="45.0220296" lon="8.1564588"><ele>166.0</ele><time>2026-04-18T16:43:34.957Z</time></trkpt><trkpt lat="45.0221355" lon="8.1561811"><ele>166.0</ele><time>2026-04-18T16:43:35.974Z</time></trkpt><trkpt lat="45.0222395" lon="8.1559054"><ele>166.0</ele><time>2026-04-18T16:43:36.971Z</time></trkpt><trkpt lat="45.0223404" lon="8.155629"><ele>165.66666666666669</ele><time>2026-04-18T16:43:37.959Z</time></trkpt><trkpt lat="45.0224412" lon="8.1553524"><ele>165.33333333333334</ele><time>2026-04-18T16:43:38.956Z</time></trkpt><trkpt lat="45.0225386" lon="8.1550743"><ele>165.0</ele><time>2026-04-18T16:43:39.962Z</time></trkpt><trkpt lat="45.0226361" lon="8.1548005"><ele>165.0</ele><time>2026-04-18T16:43:40.956Z</time></trkpt><trkpt lat="45.0227333" lon="8.154525"><ele>165.0</ele><time>2026-04-18T16:43:41.955Z</time></trkpt><trkpt lat="45.0228292" lon="8.1542467"><ele>165.0</ele><time>2026-04-18T16:43:42.955Z</time></trkpt><trkpt lat="45.022918" lon="8.1539662"><ele>166.66666666666666</ele><time>2026-04-18T16:43:43.964Z</time></trkpt><trkpt lat="45.0230001" lon="8.1536802"><ele>168.33333333333331</ele><time>2026-04-18T16:43:44.958Z</time></trkpt><trkpt lat="45.0230751" lon="8.1533876"><ele>170.0</ele><time>2026-04-18T16:43:45.962Z</time></trkpt><trkpt lat="45.023145" lon="8.153088"><ele>171.0</ele><time>2026-04-18T16:43:46.964Z</time></trkpt><trkpt lat="45.0232103" lon="8.1527831"><ele>172.0</ele><time>2026-04-18T16:43:47.959Z</time></trkpt><trkpt lat="45.0232718" lon="8.1524713"><ele>168.5</ele><time>2026-04-18T16:43:48.954Z</time></trkpt><trkpt lat="45.0233297" lon="8.1521521"><ele>165.0</ele><time>2026-04-18T16:43:49.96Z</time></trkpt><trkpt lat="45.0233901" lon="8.1518291"><ele>165.5</ele><time>2026-04-18T16:43:50.97Z</time></trkpt><trkpt lat="45.0234496" lon="8.1514987"><ele>166.0</ele><time>2026-04-18T16:43:51.966Z</time></trkpt><trkpt lat="45.0235098" lon="8.1511637"><ele>166.0</ele><time>2026-04-18T16:43:52.957Z</time></trkpt><trkpt lat="45.0235714" lon="8.1508274"><ele>166.0</ele><time>2026-04-18T16:43:53.962Z</time></trkpt><trkpt lat="45.0236326" lon="8.1504857"><ele>167.0</ele><time>2026-04-18T16:43:54.967Z</time></trkpt><trkpt lat="45.0236938" lon="8.150145"><ele>168.0</ele><time>2026-04-18T16:43:55.955Z</time></trkpt><trkpt lat="45.0237527" lon="8.149804"><ele>169.0</ele><time>2026-04-18T16:43:56.975Z</time></trkpt><trkpt lat="45.0238134" lon="8.1494619"><ele>170.0</ele><time>2026-04-18T16:43:57.967Z</time></trkpt><trkpt lat="45.0238742" lon="8.149118"><ele>169.0</ele><time>2026-04-18T16:43:58.962Z</time></trkpt><trkpt lat="45.0239355" lon="8.1487739"><ele>168.0</ele><time>2026-04-18T16:43:59.959Z</time></trkpt><trkpt lat="45.0239964" lon="8.1484298"><ele>168.0</ele><time>2026-04-18T16:44:00.957Z</time></trkpt><trkpt lat="45.0240568" lon="8.1480848"><ele>168.0</ele><time>2026-04-18T16:44:01.956Z</time></trkpt><trkpt lat="45.024119" lon="8.1477375"><ele>166.5</ele><time>2026-04-18T16:44:02.957Z</time></trkpt><trkpt lat="45.0241808" lon="8.1473943"><ele>165.0</ele><time>2026-04-18T16:44:03.958Z</time></trkpt><trkpt lat="45.0242436" lon="8.1470488"><ele>164.0</ele><time>2026-04-18T16:44:04.96Z</time></trkpt><trkpt lat="45.0243067" lon="8.1467039"><ele>163.0</ele><time>2026-04-18T16:44:05.957Z</time></trkpt><trkpt lat="45.0243688" lon="8.1463579"><ele>163.0</ele><time>2026-04-18T16:44:06.962Z</time></trkpt><trkpt lat="45.0244306" lon="8.1460124"><ele>163.0</ele><time>2026-04-18T16:44:07.966Z</time></trkpt><trkpt lat="45.0244901" lon="8.1456671"><ele>167.0</ele><time>2026-04-18T16:44:08.968Z</time></trkpt><trkpt lat="45.024552" lon="8.1453219"><ele>171.0</ele><time>2026-04-18T16:44:09.958Z</time></trkpt><trkpt lat="45.0246138" lon="8.144974"><ele>169.0</ele><time>2026-04-18T16:44:10.962Z</time></trkpt><trkpt lat="45.024674" lon="8.1446279"><ele>167.0</ele><time>2026-04-18T16:44:11.963Z</time></trkpt><trkpt lat="45.0247349" lon="8.144282"><ele>165.5</ele><time>2026-04-18T16:44:12.96Z</time></trkpt><trkpt lat="45.0247983" lon="8.1439354"><ele>164.0</ele><time>2026-04-18T16:44:13.965Z</time></trkpt><trkpt lat="45.0248601" lon="8.143589"><ele>164.0</ele><time>2026-04-18T16:44:14.962Z</time></trkpt><trkpt lat="45.0249234" lon="8.1432421"><ele>164.0</ele><time>2026-04-18T16:44:15.96Z</time></trkpt><trkpt lat="45.0249886" lon="8.1428955"><ele>163.5</ele><time>2026-04-18T16:44:16.975Z</time></trkpt><trkpt lat="45.0250516" lon="8.1425481"><ele>163.0</ele><time>2026-04-18T16:44:17.963Z</time></trkpt><trkpt lat="45.0251132" lon="8.1422026"><ele>164.5</ele><time>2026-04-18T16:44:18.958Z</time></trkpt><trkpt lat="45.0251737" lon="8.1418624"><ele>166.0</ele><time>2026-04-18T16:44:19.959Z</time></trkpt><trkpt lat="45.0252337" lon="8.141523"><ele>166.0</ele><time>2026-04-18T16:44:20.959Z</time></trkpt><trkpt lat="45.0252936" lon="8.1411865"><ele>166.0</ele><time>2026-04-18T16:44:21.965Z</time></trkpt><trkpt lat="45.0253538" lon="8.1408511"><ele>164.0</ele><time>2026-04-18T16:44:22.96Z</time></trkpt><trkpt lat="45.0254128" lon="8.140516"><ele>162.0</ele><time>2026-04-18T16:44:23.967Z</time></trkpt><trkpt lat="45.0254714" lon="8.140183"><ele>162.0</ele><time>2026-04-18T16:44:24.958Z</time></trkpt><trkpt lat="45.0255297" lon="8.1398511"><ele>162.0</ele><time>2026-04-18T16:44:25.957Z</time></trkpt><trkpt lat="45.0255871" lon="8.1395246"><ele>162.0</ele><time>2026-04-18T16:44:26.964Z</time></trkpt><trkpt lat="45.0256433" lon="8.1392082"><ele>162.0</ele><time>2026-04-18T16:44:27.966Z</time></trkpt><trkpt lat="45.0256993" lon="8.1388985"><ele>162.0</ele><time>2026-04-18T16:44:28.96Z</time></trkpt><trkpt lat="45.0257529" lon="8.1385953"><ele>162.0</ele><time>2026-04-18T16:44:29.957Z</time></trkpt><trkpt lat="45.0258048" lon="8.1382991"><ele>162.0</ele><time>2026-04-18T16:44:30.966Z</time></trkpt><trkpt lat="45.0258556" lon="8.1380109"><ele>163.0</ele><time>2026-04-18T16:44:31.964Z</time></trkpt><trkpt lat="45.0259042" lon="8.1377346"><ele>164.0</ele><time>2026-04-18T16:44:32.962Z</time></trkpt><trkpt lat="45.0259517" lon="8.1374706"><ele>165.0</ele><time>2026-04-18T16:44:33.959Z</time></trkpt><trkpt lat="45.0260009" lon="8.1372151"><ele>165.33333333333334</ele><time>2026-04-18T16:44:34.959Z</time></trkpt><trkpt lat="45.02605" lon="8.1369678"><ele>165.66666666666669</ele><time>2026-04-18T16:44:35.967Z</time></trkpt><trkpt lat="45.0261002" lon="8.1367185"><ele>166.0</ele><time>2026-04-18T16:44:36.958Z</time></trkpt><trkpt lat="45.0261564" lon="8.1364582"><ele>165.33333333333334</ele><time>2026-04-18T16:44:37.964Z</time></trkpt><trkpt lat="45.0262205" lon="8.1361934"><ele>164.66666666666666</ele><time>2026-04-18T16:44:38.96Z</time></trkpt><trkpt lat="45.0262908" lon="8.1359211"><ele>164.0</ele><time>2026-04-18T16:44:39.959Z</time></trkpt><trkpt lat="45.0263628" lon="8.1356438"><ele>163.66666666666666</ele><time>2026-04-18T16:44:40.957Z</time></trkpt><trkpt lat="45.0264384" lon="8.1353662"><ele>163.33333333333334</ele><time>2026-04-18T16:44:41.961Z</time></trkpt><trkpt lat="45.0265149" lon="8.1350922"><ele>163.0</ele><time>2026-04-18T16:44:42.959Z</time></trkpt><trkpt lat="45.0265888" lon="8.1348211"><ele>164.0</ele><time>2026-04-18T16:44:43.958Z</time></trkpt><trkpt lat="45.0266599" lon="8.1345565"><ele>165.0</ele><time>2026-04-18T16:44:44.958Z</time></trkpt><trkpt lat="45.026726" lon="8.1343028"><ele>166.0</ele><time>2026-04-18T16:44:45.971Z</time></trkpt><trkpt lat="45.0267899" lon="8.134056"><ele>165.66666666666669</ele><time>2026-04-18T16:44:46.955Z</time></trkpt><trkpt lat="45.0268512" lon="8.1338204"><ele>165.33333333333334</ele><time>2026-04-18T16:44:47.965Z</time></trkpt><trkpt lat="45.0269109" lon="8.1335889"><ele>165.0</ele><time>2026-04-18T16:44:48.969Z</time></trkpt><trkpt lat="45.0269715" lon="8.1333537"><ele>165.0</ele><time>2026-04-18T16:44:49.961Z</time></trkpt><trkpt lat="45.0270334" lon="8.1331144"><ele>165.0</ele><time>2026-04-18T16:44:50.96Z</time></trkpt><trkpt lat="45.0270968" lon="8.1328717"><ele>165.0</ele><time>2026-04-18T16:44:51.967Z</time></trkpt><trkpt lat="45.0271618" lon="8.1326241"><ele>165.33333333333334</ele><time>2026-04-18T16:44:52.975Z</time></trkpt><trkpt lat="45.0272281" lon="8.1323754"><ele>165.66666666666669</ele><time>2026-04-18T16:44:53.961Z</time></trkpt><trkpt lat="45.0272944" lon="8.1321246"><ele>166.0</ele><time>2026-04-18T16:44:54.964Z</time></trkpt><trkpt lat="45.0273598" lon="8.1318756"><ele>166.0</ele><time>2026-04-18T16:44:55.961Z</time></trkpt><trkpt lat="45.0274249" lon="8.1316289"><ele>166.0</ele><time>2026-04-18T16:44:56.958Z</time></trkpt><trkpt lat="45.0274904" lon="8.1313828"><ele>166.0</ele><time>2026-04-18T16:44:57.96Z</time></trkpt><trkpt lat="45.0275574" lon="8.1311364"><ele>166.66666666666669</ele><time>2026-04-18T16:44:58.96Z</time></trkpt><trkpt lat="45.0276252" lon="8.1308896"><ele>167.33333333333334</ele><time>2026-04-18T16:44:59.973Z</time></trkpt><trkpt lat="45.0276918" lon="8.1306429"><ele>168.0</ele><time>2026-04-18T16:45:00.965Z</time></trkpt><trkpt lat="45.0277593" lon="8.1303963"><ele>168.0</ele><time>2026-04-18T16:45:01.963Z</time></trkpt><trkpt lat="45.0278241" lon="8.1301494"><ele>168.0</ele><time>2026-04-18T16:45:02.975Z</time></trkpt><trkpt lat="45.027888" lon="8.129907"><ele>168.0</ele><time>2026-04-18T16:45:03.97Z</time></trkpt><trkpt lat="45.02795" lon="8.1296646"><ele>168.0</ele><time>2026-04-18T16:45:04.962Z</time></trkpt><trkpt lat="45.0280101" lon="8.1294277"><ele>168.0</ele><time>2026-04-18T16:45:05.959Z</time></trkpt><trkpt lat="45.0280718" lon="8.1291935"><ele>168.0</ele><time>2026-04-18T16:45:06.964Z</time></trkpt><trkpt lat="45.028132" lon="8.1289648"><ele>168.0</ele><time>2026-04-18T16:45:07.958Z</time></trkpt><trkpt lat="45.0281922" lon="8.1287417"><ele>168.0</ele><time>2026-04-18T16:45:08.965Z</time></trkpt><trkpt lat="45.0282491" lon="8.1285232"><ele>168.0</ele><time>2026-04-18T16:45:09.959Z</time></trkpt><trkpt lat="45.0283045" lon="8.1283119"><ele>168.0</ele><time>2026-04-18T16:45:10.964Z</time></trkpt><trkpt lat="45.028357" lon="8.1281052"><ele>168.0</ele><time>2026-04-18T16:45:11.969Z</time></trkpt><trkpt lat="45.0284085" lon="8.1279058"><ele>168.0</ele><time>2026-04-18T16:45:12.963Z</time></trkpt><trkpt lat="45.028458" lon="8.1277145"><ele>168.0</ele><time>2026-04-18T16:45:13.958Z</time></trkpt><trkpt lat="45.0285081" lon="8.1275248"><ele>169.0</ele><time>2026-04-18T16:45:14.968Z</time></trkpt><trkpt lat="45.0285577" lon="8.127331"><ele>170.0</ele><time>2026-04-18T16:45:15.959Z</time></trkpt><trkpt lat="45.0286098" lon="8.1271313"><ele>171.0</ele><time>2026-04-18T16:45:16.959Z</time></trkpt><trkpt lat="45.0286667" lon="8.1269279"><ele>171.0</ele><time>2026-04-18T16:45:17.964Z</time></trkpt><trkpt lat="45.0287233" lon="8.1267173"><ele>171.0</ele><time>2026-04-18T16:45:18.965Z</time></trkpt><trkpt lat="45.0287798" lon="8.1265062"><ele>171.0</ele><time>2026-04-18T16:45:19.956Z</time></trkpt><trkpt lat="45.0288369" lon="8.1262921"><ele>171.33333333333334</ele><time>2026-04-18T16:45:20.963Z</time></trkpt><trkpt lat="45.0288947" lon="8.126079"><ele>171.66666666666669</ele><time>2026-04-18T16:45:21.96Z</time></trkpt><trkpt lat="45.0289523" lon="8.1258597"><ele>172.0</ele><time>2026-04-18T16:45:22.97Z</time></trkpt><trkpt lat="45.0290103" lon="8.125638"><ele>172.33333333333334</ele><time>2026-04-18T16:45:23.961Z</time></trkpt><trkpt lat="45.0290684" lon="8.1254161"><ele>172.66666666666666</ele><time>2026-04-18T16:45:24.96Z</time></trkpt><trkpt lat="45.0291279" lon="8.1251894"><ele>173.0</ele><time>2026-04-18T16:45:25.963Z</time></trkpt><trkpt lat="45.0291871" lon="8.1249643"><ele>174.0</ele><time>2026-04-18T16:45:26.958Z</time></trkpt><trkpt lat="45.029245" lon="8.1247444"><ele>175.0</ele><time>2026-04-18T16:45:27.958Z</time></trkpt><trkpt lat="45.0293018" lon="8.1245286"><ele>176.0</ele><time>2026-04-18T16:45:28.96Z</time></trkpt><trkpt lat="45.0293603" lon="8.1243141"><ele>176.0</ele><time>2026-04-18T16:45:29.959Z</time></trkpt><trkpt lat="45.0294188" lon="8.124096"><ele>176.0</ele><time>2026-04-18T16:45:30.956Z</time></trkpt><trkpt lat="45.0294787" lon="8.123873"><ele>176.0</ele><time>2026-04-18T16:45:31.963Z</time></trkpt><trkpt lat="45.0295405" lon="8.1236427"><ele>175.33333333333331</ele><time>2026-04-18T16:45:32.962Z</time></trkpt><trkpt lat="45.0296014" lon="8.1234125"><ele>174.66666666666666</ele><time>2026-04-18T16:45:33.966Z</time></trkpt><trkpt lat="45.0296622" lon="8.1231817"><ele>174.0</ele><time>2026-04-18T16:45:34.959Z</time></trkpt><trkpt lat="45.0297221" lon="8.1229515"><ele>173.66666666666666</ele><time>2026-04-18T16:45:35.968Z</time></trkpt><trkpt lat="45.0297807" lon="8.1227238"><ele>173.33333333333331</ele><time>2026-04-18T16:45:36.96Z</time></trkpt><trkpt lat="45.029837" lon="8.1225035"><ele>173.0</ele><time>2026-04-18T16:45:37.971Z</time></trkpt><trkpt lat="45.0298945" lon="8.1222848"><ele>172.0</ele><time>2026-04-18T16:45:38.958Z</time></trkpt><trkpt lat="45.0299522" lon="8.1220677"><ele>171.0</ele><time>2026-04-18T16:45:39.957Z</time></trkpt><trkpt lat="45.0300085" lon="8.121853"><ele>170.0</ele><time>2026-04-18T16:45:40.951Z</time></trkpt><trkpt lat="45.0300641" lon="8.1216384"><ele>170.0</ele><time>2026-04-18T16:45:41.961Z</time></trkpt><trkpt lat="45.0301212" lon="8.1214253"><ele>170.0</ele><time>2026-04-18T16:45:42.97Z</time></trkpt><trkpt lat="45.0301779" lon="8.1212119"><ele>170.0</ele><time>2026-04-18T16:45:43.974Z</time></trkpt><trkpt lat="45.0302416" lon="8.120998"><ele>170.0</ele><time>2026-04-18T16:45:44.965Z</time></trkpt><trkpt lat="45.0303112" lon="8.1207835"><ele>170.0</ele><time>2026-04-18T16:45:45.96Z</time></trkpt><trkpt lat="45.0303915" lon="8.1205732"><ele>170.0</ele><time>2026-04-18T16:45:46.963Z</time></trkpt><trkpt lat="45.0304846" lon="8.1203664"><ele>170.0</ele><time>2026-04-18T16:45:47.958Z</time></trkpt><trkpt lat="45.0305909" lon="8.1201632"><ele>170.0</ele><time>2026-04-18T16:45:48.963Z</time></trkpt><trkpt lat="45.0307091" lon="8.1199617"><ele>170.0</ele><time>2026-04-18T16:45:49.958Z</time></trkpt><trkpt lat="45.0308403" lon="8.1197543"><ele>170.0</ele><time>2026-04-18T16:45:50.971Z</time></trkpt><trkpt lat="45.0309851" lon="8.1195465"><ele>170.0</ele><time>2026-04-18T16:45:51.966Z</time></trkpt><trkpt lat="45.0311405" lon="8.1193336"><ele>170.0</ele><time>2026-04-18T16:45:52.959Z</time></trkpt><trkpt lat="45.0313044" lon="8.1191132"><ele>170.0</ele><time>2026-04-18T16:45:53.961Z</time></trkpt><trkpt lat="45.0314688" lon="8.118893"><ele>170.0</ele><time>2026-04-18T16:45:54.957Z</time></trkpt><trkpt lat="45.0316294" lon="8.118677"><ele>170.0</ele><time>2026-04-18T16:45:55.958Z</time></trkpt><trkpt lat="45.0317838" lon="8.1184676"><ele>170.0</ele><time>2026-04-18T16:45:56.955Z</time></trkpt><trkpt lat="45.0319301" lon="8.1182661"><ele>170.0</ele><time>2026-04-18T16:45:57.955Z</time></trkpt><trkpt lat="45.0320686" lon="8.1180708"><ele>170.0</ele><time>2026-04-18T16:45:58.963Z</time></trkpt><trkpt lat="45.0322032" lon="8.1178846"><ele>170.33333333333331</ele><time>2026-04-18T16:45:59.954Z</time></trkpt><trkpt lat="45.0323364" lon="8.1176982"><ele>170.66666666666666</ele><time>2026-04-18T16:46:00.958Z</time></trkpt><trkpt lat="45.0324675" lon="8.1175126"><ele>171.0</ele><time>2026-04-18T16:46:01.966Z</time></trkpt><trkpt lat="45.0325993" lon="8.1173282"><ele>171.0</ele><time>2026-04-18T16:46:02.962Z</time></trkpt><trkpt lat="45.0327261" lon="8.1171492"><ele>171.0</ele><time>2026-04-18T16:46:03.955Z</time></trkpt><trkpt lat="45.0328491" lon="8.1169767"><ele>171.0</ele><time>2026-04-18T16:46:04.955Z</time></trkpt><trkpt lat="45.0329724" lon="8.1168063"><ele>171.0</ele><time>2026-04-18T16:46:05.959Z</time></trkpt><trkpt lat="45.0330936" lon="8.116637"><ele>171.0</ele><time>2026-04-18T16:46:06.954Z</time></trkpt><trkpt lat="45.0332144" lon="8.1164714"><ele>171.0</ele><time>2026-04-18T16:46:07.958Z</time></trkpt><trkpt lat="45.0333303" lon="8.1163136"><ele>171.0</ele><time>2026-04-18T16:46:08.955Z</time></trkpt><trkpt lat="45.0334431" lon="8.1161615"><ele>171.0</ele><time>2026-04-18T16:46:09.974Z</time></trkpt><trkpt lat="45.0335479" lon="8.1160266"><ele>171.0</ele><time>2026-04-18T16:46:10.967Z</time></trkpt><trkpt lat="45.0336445" lon="8.1159023"><ele>171.0</ele><time>2026-04-18T16:46:11.956Z</time></trkpt><trkpt lat="45.0337369" lon="8.1157861"><ele>171.20000000000002</ele><time>2026-04-18T16:46:12.967Z</time></trkpt><trkpt lat="45.0338221" lon="8.1156809"><ele>171.4</ele><time>2026-04-18T16:46:13.954Z</time></trkpt><trkpt lat="45.0339057" lon="8.1155824"><ele>171.6</ele><time>2026-04-18T16:46:14.958Z</time></trkpt><trkpt lat="45.0339875" lon="8.1154862"><ele>171.8</ele><time>2026-04-18T16:46:15.959Z</time></trkpt><trkpt lat="45.0340682" lon="8.1153946"><ele>172.0</ele><time>2026-04-18T16:46:16.967Z</time></trkpt><trkpt lat="45.0341414" lon="8.115295"><ele>172.75</ele><time>2026-04-18T16:46:17.96Z</time></trkpt><trkpt lat="45.0342086" lon="8.1151807"><ele>173.5</ele><time>2026-04-18T16:46:18.961Z</time></trkpt><trkpt lat="45.0342767" lon="8.115052"><ele>174.25</ele><time>2026-04-18T16:46:19.962Z</time></trkpt><trkpt lat="45.0343478" lon="8.1149167"><ele>175.0</ele><time>2026-04-18T16:46:20.958Z</time></trkpt><trkpt lat="45.034428" lon="8.1147727"><ele>175.0</ele><time>2026-04-18T16:46:21.961Z</time></trkpt><trkpt lat="45.0345219" lon="8.1146133"><ele>175.0</ele><time>2026-04-18T16:46:22.962Z</time></trkpt><trkpt lat="45.0346353" lon="8.1144388"><ele>175.0</ele><time>2026-04-18T16:46:23.964Z</time></trkpt><trkpt lat="45.034763" lon="8.1142584"><ele>175.0</ele><time>2026-04-18T16:46:24.969Z</time></trkpt><trkpt lat="45.034902" lon="8.1140756"><ele>175.0</ele><time>2026-04-18T16:46:25.962Z</time></trkpt><trkpt lat="45.0350451" lon="8.1138893"><ele>175.0</ele><time>2026-04-18T16:46:26.959Z</time></trkpt><trkpt lat="45.0351857" lon="8.1137002"><ele>175.0</ele><time>2026-04-18T16:46:27.96Z</time></trkpt><trkpt lat="45.0353238" lon="8.1135096"><ele>175.0</ele><time>2026-04-18T16:46:28.954Z</time></trkpt><trkpt lat="45.0354575" lon="8.1133213"><ele>175.0</ele><time>2026-04-18T16:46:29.974Z</time></trkpt><trkpt lat="45.0355883" lon="8.1131376"><ele>175.0</ele><time>2026-04-18T16:46:30.957Z</time></trkpt><trkpt lat="45.0357155" lon="8.1129559"><ele>175.0</ele><time>2026-04-18T16:46:31.953Z</time></trkpt><trkpt lat="45.0358399" lon="8.1127794"><ele>175.0</ele><time>2026-04-18T16:46:32.953Z</time></trkpt><trkpt lat="45.0359623" lon="8.1126019"><ele>174.66666666666669</ele><time>2026-04-18T16:46:33.958Z</time></trkpt><trkpt lat="45.0360827" lon="8.1124345"><ele>174.33333333333334</ele><time>2026-04-18T16:46:34.953Z</time></trkpt><trkpt lat="45.0362032" lon="8.1122675"><ele>174.0</ele><time>2026-04-18T16:46:35.955Z</time></trkpt><trkpt lat="45.0363216" lon="8.1121006"><ele>174.0</ele><time>2026-04-18T16:46:36.961Z</time></trkpt><trkpt lat="45.0364396" lon="8.1119342"><ele>174.0</ele><time>2026-04-18T16:46:37.96Z</time></trkpt><trkpt lat="45.0365574" lon="8.1117722"><ele>174.0</ele><time>2026-04-18T16:46:38.975Z</time></trkpt><trkpt lat="45.0366728" lon="8.1116129"><ele>174.66666666666666</ele><time>2026-04-18T16:46:39.96Z</time></trkpt><trkpt lat="45.0367847" lon="8.1114568"><ele>175.33333333333331</ele><time>2026-04-18T16:46:40.956Z</time></trkpt><trkpt lat="45.0368948" lon="8.1113015"><ele>176.0</ele><time>2026-04-18T16:46:41.956Z</time></trkpt><trkpt lat="45.0370026" lon="8.1111541"><ele>176.0</ele><time>2026-04-18T16:46:42.952Z</time></trkpt><trkpt lat="45.0371098" lon="8.1110137"><ele>176.0</ele><time>2026-04-18T16:46:43.956Z</time></trkpt><trkpt lat="45.0372177" lon="8.1108796"><ele>176.0</ele><time>2026-04-18T16:46:44.952Z</time></trkpt><trkpt lat="45.0373263" lon="8.1107566"><ele>176.0</ele><time>2026-04-18T16:46:45.953Z</time></trkpt><trkpt lat="45.0374352" lon="8.1106463"><ele>175.5</ele><time>2026-04-18T16:46:46.961Z</time></trkpt><trkpt lat="45.0375477" lon="8.1105476"><ele>175.0</ele><time>2026-04-18T16:46:47.957Z</time></trkpt><trkpt lat="45.0376622" lon="8.1104666"><ele>174.5</ele><time>2026-04-18T16:46:48.952Z</time></trkpt><trkpt lat="45.0377808" lon="8.1104092"><ele>174.0</ele><time>2026-04-18T16:46:49.971Z</time></trkpt><trkpt lat="45.0378999" lon="8.1103743"><ele>174.0</ele><time>2026-04-18T16:46:50.963Z</time></trkpt><trkpt lat="45.0380126" lon="8.1103429"><ele>174.0</ele><time>2026-04-18T16:46:51.96Z</time></trkpt><trkpt lat="45.0381156" lon="8.1102952"><ele>174.0</ele><time>2026-04-18T16:46:52.96Z</time></trkpt><trkpt lat="45.0382027" lon="8.1102221"><ele>174.0</ele><time>2026-04-18T16:46:53.963Z</time></trkpt><trkpt lat="45.038267" lon="8.110132"><ele>174.0</ele><time>2026-04-18T16:46:54.965Z</time></trkpt><trkpt lat="45.038306" lon="8.1100554"><ele>174.0</ele><time>2026-04-18T16:46:55.954Z</time></trkpt><trkpt lat="45.0383564" lon="8.1099425"><ele>174.0</ele><time>2026-04-18T16:46:57.95Z</time></trkpt><trkpt lat="45.0383686" lon="8.1098314"><ele>174.0</ele><time>2026-04-18T16:46:59.963Z</time></trkpt><trkpt lat="45.0383003" lon="8.109763"><ele>174.0</ele><time>2026-04-18T16:47:01.968Z</time></trkpt><trkpt lat="45.038173" lon="8.1097353"><ele>174.0</ele><time>2026-04-18T16:47:03.957Z</time></trkpt><trkpt lat="45.0380963" lon="8.1097352"><ele>174.39999999999998</ele><time>2026-04-18T16:47:04.968Z</time></trkpt><trkpt lat="45.0380104" lon="8.1097305"><ele>174.8</ele><time>2026-04-18T16:47:05.961Z</time></trkpt><trkpt lat="45.0379092" lon="8.1097245"><ele>175.2</ele><time>2026-04-18T16:47:06.975Z</time></trkpt><trkpt lat="45.0377961" lon="8.1097188"><ele>175.60000000000002</ele><time>2026-04-18T16:47:07.959Z</time></trkpt><trkpt lat="45.0376742" lon="8.1097064"><ele>176.0</ele><time>2026-04-18T16:47:08.952Z</time></trkpt><trkpt lat="45.0375555" lon="8.109695"><ele>176.20000000000002</ele><time>2026-04-18T16:47:09.959Z</time></trkpt><trkpt lat="45.0374447" lon="8.1096844"><ele>176.4</ele><time>2026-04-18T16:47:10.951Z</time></trkpt><trkpt lat="45.0373434" lon="8.1096763"><ele>176.6</ele><time>2026-04-18T16:47:11.959Z</time></trkpt><trkpt lat="45.0372546" lon="8.1096699"><ele>176.8</ele><time>2026-04-18T16:47:12.965Z</time></trkpt><trkpt lat="45.0371709" lon="8.1096635"><ele>177.0</ele><time>2026-04-18T16:47:13.972Z</time></trkpt><trkpt lat="45.0370876" lon="8.109641"><ele>177.0</ele><time>2026-04-18T16:47:14.956Z</time></trkpt><trkpt lat="45.0369969" lon="8.109595"><ele>177.0</ele><time>2026-04-18T16:47:15.956Z</time></trkpt><trkpt lat="45.0368966" lon="8.1095281"><ele>177.0</ele><time>2026-04-18T16:47:16.954Z</time></trkpt><trkpt lat="45.0367893" lon="8.1094339"><ele>177.0</ele><time>2026-04-18T16:47:17.964Z</time></trkpt><trkpt lat="45.0366742" lon="8.1093215"><ele>177.33333333333334</ele><time>2026-04-18T16:47:18.966Z</time></trkpt><trkpt lat="45.0365536" lon="8.109192"><ele>177.66666666666669</ele><time>2026-04-18T16:47:19.969Z</time></trkpt><trkpt lat="45.036427" lon="8.1090517"><ele>178.0</ele><time>2026-04-18T16:47:20.973Z</time></trkpt><trkpt lat="45.0362956" lon="8.1089026"><ele>179.33333333333334</ele><time>2026-04-18T16:47:21.975Z</time></trkpt><trkpt lat="45.0361591" lon="8.1087451"><ele>180.66666666666666</ele><time>2026-04-18T16:47:22.952Z</time></trkpt><trkpt lat="45.0360213" lon="8.1085816"><ele>182.0</ele><time>2026-04-18T16:47:23.968Z</time></trkpt><trkpt lat="45.0358812" lon="8.1084189"><ele>181.66666666666666</ele><time>2026-04-18T16:47:24.964Z</time></trkpt><trkpt lat="45.0357454" lon="8.1082493"><ele>181.33333333333334</ele><time>2026-04-18T16:47:25.958Z</time></trkpt><trkpt lat="45.0356225" lon="8.1080578"><ele>181.0</ele><time>2026-04-18T16:47:26.965Z</time></trkpt><trkpt lat="45.0355139" lon="8.1078468"><ele>182.66666666666669</ele><time>2026-04-18T16:47:27.974Z</time></trkpt><trkpt lat="45.0354237" lon="8.1076165"><ele>184.33333333333334</ele><time>2026-04-18T16:47:28.95Z</time></trkpt><trkpt lat="45.0353555" lon="8.1073663"><ele>186.0</ele><time>2026-04-18T16:47:29.975Z</time></trkpt><trkpt lat="45.0353149" lon="8.1071048"><ele>187.0</ele><time>2026-04-18T16:47:30.958Z</time></trkpt><trkpt lat="45.0353049" lon="8.1068305"><ele>188.0</ele><time>2026-04-18T16:47:31.975Z</time></trkpt><trkpt lat="45.0353129" lon="8.106548"><ele>189.0</ele><time>2026-04-18T16:47:32.953Z</time></trkpt><trkpt lat="45.0353344" lon="8.1062647"><ele>189.0</ele><time>2026-04-18T16:47:33.955Z</time></trkpt><trkpt lat="45.0353636" lon="8.1059786"><ele>189.0</ele><time>2026-04-18T16:47:34.962Z</time></trkpt><trkpt lat="45.0353959" lon="8.105697"><ele>189.0</ele><time>2026-04-18T16:47:35.961Z</time></trkpt><trkpt lat="45.0354289" lon="8.1054267"><ele>188.66666666666666</ele><time>2026-04-18T16:47:36.97Z</time></trkpt><trkpt lat="45.0354718" lon="8.1051609"><ele>188.33333333333331</ele><time>2026-04-18T16:47:37.96Z</time></trkpt><trkpt lat="45.0355322" lon="8.1048949"><ele>188.0</ele><time>2026-04-18T16:47:38.959Z</time></trkpt><trkpt lat="45.0355989" lon="8.104631"><ele>187.66666666666666</ele><time>2026-04-18T16:47:39.959Z</time></trkpt><trkpt lat="45.0356616" lon="8.1043763"><ele>187.33333333333334</ele><time>2026-04-18T16:47:40.968Z</time></trkpt><trkpt lat="45.0357313" lon="8.1041268"><ele>187.0</ele><time>2026-04-18T16:47:41.959Z</time></trkpt><trkpt lat="45.0358188" lon="8.1038815"><ele>190.66666666666669</ele><time>2026-04-18T16:47:42.971Z</time></trkpt><trkpt lat="45.0359156" lon="8.1036405"><ele>194.33333333333334</ele><time>2026-04-18T16:47:43.962Z</time></trkpt><trkpt lat="45.0360194" lon="8.1034039"><ele>198.0</ele><time>2026-04-18T16:47:44.971Z</time></trkpt><trkpt lat="45.036123" lon="8.103168"><ele>198.0</ele><time>2026-04-18T16:47:45.961Z</time></trkpt><trkpt lat="45.0362195" lon="8.1029386"><ele>198.0</ele><time>2026-04-18T16:47:46.963Z</time></trkpt><trkpt lat="45.0363057" lon="8.1027224"><ele>198.0</ele><time>2026-04-18T16:47:47.963Z</time></trkpt><trkpt lat="45.0363834" lon="8.1025188"><ele>198.0</ele><time>2026-04-18T16:47:48.951Z</time></trkpt><trkpt lat="45.0364549" lon="8.1023393"><ele>198.0</ele><time>2026-04-18T16:47:49.974Z</time></trkpt><trkpt lat="45.0365188" lon="8.1021959"><ele>198.0</ele><time>2026-04-18T16:47:50.975Z</time></trkpt><trkpt lat="45.0365723" lon="8.1020873"><ele>198.0</ele><time>2026-04-18T16:47:51.958Z</time></trkpt><trkpt lat="45.0366143" lon="8.1019917"><ele>198.0</ele><time>2026-04-18T16:47:52.958Z</time></trkpt><trkpt lat="45.0366513" lon="8.101892"><ele>199.2</ele><time>2026-04-18T16:47:53.962Z</time></trkpt><trkpt lat="45.0366879" lon="8.1017873"><ele>200.4</ele><time>2026-04-18T16:47:54.975Z</time></trkpt><trkpt lat="45.0367384" lon="8.1016662"><ele>201.6</ele><time>2026-04-18T16:47:55.975Z</time></trkpt><trkpt lat="45.0368004" lon="8.1015271"><ele>202.79999999999998</ele><time>2026-04-18T16:47:56.959Z</time></trkpt><trkpt lat="45.0368755" lon="8.1013726"><ele>204.0</ele><time>2026-04-18T16:47:57.966Z</time></trkpt><trkpt lat="45.0369638" lon="8.1012088"><ele>204.0</ele><time>2026-04-18T16:47:58.964Z</time></trkpt><trkpt lat="45.0370622" lon="8.1010377"><ele>204.0</ele><time>2026-04-18T16:47:59.957Z</time></trkpt><trkpt lat="45.0371674" lon="8.1008515"><ele>204.0</ele><time>2026-04-18T16:48:00.959Z</time></trkpt><trkpt lat="45.0372745" lon="8.1006611"><ele>202.0</ele><time>2026-04-18T16:48:01.956Z</time></trkpt><trkpt lat="45.0373864" lon="8.1004695"><ele>200.0</ele><time>2026-04-18T16:48:02.963Z</time></trkpt><trkpt lat="45.0375046" lon="8.1002769"><ele>198.0</ele><time>2026-04-18T16:48:03.963Z</time></trkpt><trkpt lat="45.0376259" lon="8.1000834"><ele>200.0</ele><time>2026-04-18T16:48:04.968Z</time></trkpt><trkpt lat="45.0377453" lon="8.0998815"><ele>202.0</ele><time>2026-04-18T16:48:05.956Z</time></trkpt><trkpt lat="45.0378589" lon="8.0996678"><ele>204.0</ele><time>2026-04-18T16:48:06.966Z</time></trkpt><trkpt lat="45.0379668" lon="8.099442"><ele>204.0</ele><time>2026-04-18T16:48:07.967Z</time></trkpt><trkpt lat="45.0380733" lon="8.099211"><ele>204.0</ele><time>2026-04-18T16:48:08.954Z</time></trkpt><trkpt lat="45.038178" lon="8.0989851"><ele>204.0</ele><time>2026-04-18T16:48:09.962Z</time></trkpt><trkpt lat="45.0382801" lon="8.0987649"><ele>206.0</ele><time>2026-04-18T16:48:10.958Z</time></trkpt><trkpt lat="45.0383814" lon="8.0985498"><ele>208.0</ele><time>2026-04-18T16:48:11.953Z</time></trkpt><trkpt lat="45.0384823" lon="8.0983425"><ele>210.0</ele><time>2026-04-18T16:48:12.961Z</time></trkpt><trkpt lat="45.0385771" lon="8.0981367"><ele>210.0</ele><time>2026-04-18T16:48:13.967Z</time></trkpt><trkpt lat="45.0386573" lon="8.0979321"><ele>210.0</ele><time>2026-04-18T16:48:14.959Z</time></trkpt><trkpt lat="45.0387281" lon="8.0977265"><ele>210.0</ele><time>2026-04-18T16:48:15.974Z</time></trkpt><trkpt lat="45.0387955" lon="8.0975306"><ele>208.75</ele><time>2026-04-18T16:48:16.96Z</time></trkpt><trkpt lat="45.0388558" lon="8.0973472"><ele>207.5</ele><time>2026-04-18T16:48:17.96Z</time></trkpt><trkpt lat="45.0389083" lon="8.0971721"><ele>206.25</ele><time>2026-04-18T16:48:18.959Z</time></trkpt><trkpt lat="45.0389633" lon="8.0970088"><ele>205.0</ele><time>2026-04-18T16:48:19.958Z</time></trkpt><trkpt lat="45.0390192" lon="8.0968508"><ele>205.0</ele><time>2026-04-18T16:48:20.96Z</time></trkpt><trkpt lat="45.0390738" lon="8.0966962"><ele>205.0</ele><time>2026-04-18T16:48:21.961Z</time></trkpt><trkpt lat="45.0391274" lon="8.0965461"><ele>205.0</ele><time>2026-04-18T16:48:22.975Z</time></trkpt><trkpt lat="45.0391792" lon="8.0964054"><ele>205.0</ele><time>2026-04-18T16:48:23.96Z</time></trkpt><trkpt lat="45.0392244" lon="8.0962899"><ele>205.0</ele><time>2026-04-18T16:48:24.967Z</time></trkpt><trkpt lat="45.0392552" lon="8.0962095"><ele>204.8</ele><time>2026-04-18T16:48:25.972Z</time></trkpt><trkpt lat="45.0392438" lon="8.096093"><ele>204.6</ele><time>2026-04-18T16:48:27.961Z</time></trkpt><trkpt lat="45.0391419" lon="8.0959941"><ele>204.39999999999998</ele><time>2026-04-18T16:48:29.959Z</time></trkpt><trkpt lat="45.0390574" lon="8.0959352"><ele>204.2</ele><time>2026-04-18T16:48:30.958Z</time></trkpt><trkpt lat="45.0389624" lon="8.0958539"><ele>204.0</ele><time>2026-04-18T16:48:31.961Z</time></trkpt><trkpt lat="45.0388561" lon="8.0957652"><ele>204.6</ele><time>2026-04-18T16:48:32.967Z</time></trkpt><trkpt lat="45.0387533" lon="8.0956686"><ele>205.2</ele><time>2026-04-18T16:48:33.956Z</time></trkpt><trkpt lat="45.03866" lon="8.0955681"><ele>205.79999999999998</ele><time>2026-04-18T16:48:34.958Z</time></trkpt><trkpt lat="45.038584" lon="8.0954644"><ele>206.39999999999998</ele><time>2026-04-18T16:48:35.968Z</time></trkpt><trkpt lat="45.038529" lon="8.0953488"><ele>207.0</ele><time>2026-04-18T16:48:36.957Z</time></trkpt><trkpt lat="45.0384942" lon="8.0952328"><ele>207.0</ele><time>2026-04-18T16:48:37.953Z</time></trkpt><trkpt lat="45.0384768" lon="8.0951142"><ele>207.0</ele><time>2026-04-18T16:48:38.966Z</time></trkpt><trkpt lat="45.0384661" lon="8.0949994"><ele>207.0</ele><time>2026-04-18T16:48:39.968Z</time></trkpt><trkpt lat="45.0384721" lon="8.0948794"><ele>207.0</ele><time>2026-04-18T16:48:40.96Z</time></trkpt><trkpt lat="45.038494" lon="8.0947592"><ele>207.0</ele><time>2026-04-18T16:48:41.96Z</time></trkpt><trkpt lat="45.0385292" lon="8.0946415"><ele>207.0</ele><time>2026-04-18T16:48:42.965Z</time></trkpt><trkpt lat="45.038571" lon="8.0945094"><ele>205.5</ele><time>2026-04-18T16:48:43.959Z</time></trkpt><trkpt lat="45.0386156" lon="8.0943586"><ele>204.0</ele><time>2026-04-18T16:48:44.957Z</time></trkpt><trkpt lat="45.0386653" lon="8.0941958"><ele>202.5</ele><time>2026-04-18T16:48:45.959Z</time></trkpt><trkpt lat="45.0387186" lon="8.0940308"><ele>201.0</ele><time>2026-04-18T16:48:46.965Z</time></trkpt><trkpt lat="45.0387911" lon="8.0938757"><ele>199.5</ele><time>2026-04-18T16:48:47.964Z</time></trkpt><trkpt lat="45.0388859" lon="8.0937406"><ele>198.0</ele><time>2026-04-18T16:48:48.962Z</time></trkpt><trkpt lat="45.0389841" lon="8.0936295"><ele>196.5</ele><time>2026-04-18T16:48:49.965Z</time></trkpt><trkpt lat="45.0390636" lon="8.0935336"><ele>195.0</ele><time>2026-04-18T16:48:50.974Z</time></trkpt><trkpt lat="45.039101" lon="8.0934252"><ele>195.0</ele><time>2026-04-18T16:48:51.969Z</time></trkpt><trkpt lat="45.0391001" lon="8.0933088"><ele>195.0</ele><time>2026-04-18T16:48:52.967Z</time></trkpt><trkpt lat="45.039054" lon="8.0931795"><ele>195.0</ele><time>2026-04-18T16:48:53.962Z</time></trkpt><trkpt lat="45.038969" lon="8.0930236"><ele>195.0</ele><time>2026-04-18T16:48:54.967Z</time></trkpt><trkpt lat="45.0388689" lon="8.0928322"><ele>195.0</ele><time>2026-04-18T16:48:55.962Z</time></trkpt><trkpt lat="45.0387539" lon="8.0926123"><ele>195.0</ele><time>2026-04-18T16:48:56.964Z</time></trkpt><trkpt lat="45.0386276" lon="8.09238"><ele>195.0</ele><time>2026-04-18T16:48:57.966Z</time></trkpt><trkpt lat="45.0385016" lon="8.0921279"><ele>194.5</ele><time>2026-04-18T16:48:58.968Z</time></trkpt><trkpt lat="45.0383916" lon="8.091848"><ele>194.0</ele><time>2026-04-18T16:48:59.959Z</time></trkpt><trkpt lat="45.0382968" lon="8.0915538"><ele>198.5</ele><time>2026-04-18T16:49:00.958Z</time></trkpt><trkpt lat="45.038204" lon="8.091259"><ele>203.0</ele><time>2026-04-18T16:49:01.964Z</time></trkpt><trkpt lat="45.038116" lon="8.0909625"><ele>202.66666666666669</ele><time>2026-04-18T16:49:02.961Z</time></trkpt><trkpt lat="45.0380331" lon="8.0906672"><ele>202.33333333333331</ele><time>2026-04-18T16:49:03.962Z</time></trkpt><trkpt lat="45.0379546" lon="8.0903833"><ele>202.0</ele><time>2026-04-18T16:49:04.96Z</time></trkpt><trkpt lat="45.0378785" lon="8.0901115"><ele>202.0</ele><time>2026-04-18T16:49:05.961Z</time></trkpt><trkpt lat="45.0378088" lon="8.0898449"><ele>202.0</ele><time>2026-04-18T16:49:06.961Z</time></trkpt><trkpt lat="45.0377505" lon="8.0895677"><ele>202.0</ele><time>2026-04-18T16:49:07.966Z</time></trkpt><trkpt lat="45.037709" lon="8.0892814"><ele>203.0</ele><time>2026-04-18T16:49:08.961Z</time></trkpt><trkpt lat="45.0376908" lon="8.0889904"><ele>204.0</ele><time>2026-04-18T16:49:09.966Z</time></trkpt><trkpt lat="45.0376882" lon="8.0886907"><ele>205.0</ele><time>2026-04-18T16:49:10.956Z</time></trkpt><trkpt lat="45.0376931" lon="8.088385"><ele>206.66666666666666</ele><time>2026-04-18T16:49:11.963Z</time></trkpt><trkpt lat="45.0376978" lon="8.0880757"><ele>208.33333333333331</ele><time>2026-04-18T16:49:12.965Z</time></trkpt><trkpt lat="45.0377031" lon="8.0877644"><ele>210.0</ele><time>2026-04-18T16:49:13.963Z</time></trkpt><trkpt lat="45.0377075" lon="8.0874602"><ele>212.0</ele><time>2026-04-18T16:49:14.967Z</time></trkpt><trkpt lat="45.0377109" lon="8.0871637"><ele>214.0</ele><time>2026-04-18T16:49:15.96Z</time></trkpt><trkpt lat="45.0377066" lon="8.0868665"><ele>216.0</ele><time>2026-04-18T16:49:16.971Z</time></trkpt><trkpt lat="45.037688" lon="8.086568"><ele>216.66666666666669</ele><time>2026-04-18T16:49:17.962Z</time></trkpt><trkpt lat="45.0376601" lon="8.0862611"><ele>217.33333333333334</ele><time>2026-04-18T16:49:18.968Z</time></trkpt><trkpt lat="45.0376255" lon="8.0859508"><ele>218.0</ele><time>2026-04-18T16:49:19.961Z</time></trkpt><trkpt lat="45.037593" lon="8.0856493"><ele>219.33333333333334</ele><time>2026-04-18T16:49:20.953Z</time></trkpt><trkpt lat="45.0375636" lon="8.085366"><ele>220.66666666666669</ele><time>2026-04-18T16:49:21.963Z</time></trkpt><trkpt lat="45.037526" lon="8.0851107"><ele>222.0</ele><time>2026-04-18T16:49:22.974Z</time></trkpt><trkpt lat="45.03747" lon="8.0848923"><ele>225.66666666666669</ele><time>2026-04-18T16:49:23.959Z</time></trkpt><trkpt lat="45.037388" lon="8.0846961"><ele>229.33333333333334</ele><time>2026-04-18T16:49:24.961Z</time></trkpt><trkpt lat="45.0372781" lon="8.0844953"><ele>233.0</ele><time>2026-04-18T16:49:25.966Z</time></trkpt><trkpt lat="45.0371567" lon="8.0842889"><ele>233.66666666666669</ele><time>2026-04-18T16:49:26.952Z</time></trkpt><trkpt lat="45.0370303" lon="8.084075"><ele>234.33333333333331</ele><time>2026-04-18T16:49:27.956Z</time></trkpt><trkpt lat="45.0369002" lon="8.0838607"><ele>235.0</ele><time>2026-04-18T16:49:28.967Z</time></trkpt><trkpt lat="45.0367746" lon="8.0836602"><ele>235.0</ele><time>2026-04-18T16:49:29.964Z</time></trkpt><trkpt lat="45.0366481" lon="8.083484"><ele>235.0</ele><time>2026-04-18T16:49:30.962Z</time></trkpt><trkpt lat="45.0365147" lon="8.083336"><ele>235.0</ele><time>2026-04-18T16:49:31.961Z</time></trkpt><trkpt lat="45.0363775" lon="8.0832045"><ele>237.25</ele><time>2026-04-18T16:49:32.971Z</time></trkpt><trkpt lat="45.0362606" lon="8.08307"><ele>239.5</ele><time>2026-04-18T16:49:33.96Z</time></trkpt><trkpt lat="45.0361753" lon="8.082914"><ele>241.75</ele><time>2026-04-18T16:49:34.956Z</time></trkpt><trkpt lat="45.0361025" lon="8.0827348"><ele>244.0</ele><time>2026-04-18T16:49:35.958Z</time></trkpt><trkpt lat="45.0360528" lon="8.0825307"><ele>247.0</ele><time>2026-04-18T16:49:36.957Z</time></trkpt><trkpt lat="45.0360268" lon="8.0823066"><ele>250.0</ele><time>2026-04-18T16:49:37.961Z</time></trkpt><trkpt lat="45.036" lon="8.0820882"><ele>253.0</ele><time>2026-04-18T16:49:38.959Z</time></trkpt><trkpt lat="45.035937" lon="8.0818805"><ele>253.0</ele><time>2026-04-18T16:49:39.959Z</time></trkpt><trkpt lat="45.035849" lon="8.0816802"><ele>253.0</ele><time>2026-04-18T16:49:40.959Z</time></trkpt><trkpt lat="45.0357456" lon="8.0814931"><ele>253.0</ele><time>2026-04-18T16:49:41.964Z</time></trkpt><trkpt lat="45.0356327" lon="8.0813392"><ele>254.0</ele><time>2026-04-18T16:49:42.967Z</time></trkpt><trkpt lat="45.0355299" lon="8.0812114"><ele>255.0</ele><time>2026-04-18T16:49:43.957Z</time></trkpt><trkpt lat="45.0354565" lon="8.0810815"><ele>256.0</ele><time>2026-04-18T16:49:44.968Z</time></trkpt><trkpt lat="45.0354265" lon="8.0809489"><ele>257.0</ele><time>2026-04-18T16:49:45.962Z</time></trkpt><trkpt lat="45.0354357" lon="8.0808022"><ele>254.0</ele><time>2026-04-18T16:49:46.958Z</time></trkpt><trkpt lat="45.0354728" lon="8.0806376"><ele>251.0</ele><time>2026-04-18T16:49:47.959Z</time></trkpt><trkpt lat="45.0355199" lon="8.0804533"><ele>248.0</ele><time>2026-04-18T16:49:48.956Z</time></trkpt><trkpt lat="45.0355541" lon="8.0802547"><ele>245.0</ele><time>2026-04-18T16:49:49.956Z</time></trkpt><trkpt lat="45.0355771" lon="8.0800565"><ele>246.5</ele><time>2026-04-18T16:49:50.965Z</time></trkpt><trkpt lat="45.0355737" lon="8.0798634"><ele>248.0</ele><time>2026-04-18T16:49:51.966Z</time></trkpt><trkpt lat="45.035539" lon="8.0796941"><ele>249.5</ele><time>2026-04-18T16:49:52.961Z</time></trkpt><trkpt lat="45.0354755" lon="8.0795443"><ele>251.0</ele><time>2026-04-18T16:49:53.96Z</time></trkpt><trkpt lat="45.0353813" lon="8.0793852"><ele>251.0</ele><time>2026-04-18T16:49:54.961Z</time></trkpt><trkpt lat="45.0352725" lon="8.0792159"><ele>251.0</ele><time>2026-04-18T16:49:55.961Z</time></trkpt><trkpt lat="45.0351553" lon="8.0790485"><ele>251.0</ele><time>2026-04-18T16:49:56.967Z</time></trkpt><trkpt lat="45.0350374" lon="8.0788862"><ele>255.0</ele><time>2026-04-18T16:49:57.965Z</time></trkpt><trkpt lat="45.0349304" lon="8.0786936"><ele>259.0</ele><time>2026-04-18T16:49:58.96Z</time></trkpt><trkpt lat="45.034847" lon="8.0784671"><ele>263.0</ele><time>2026-04-18T16:49:59.966Z</time></trkpt><trkpt lat="45.034779" lon="8.0782368"><ele>263.6666666666667</ele><time>2026-04-18T16:50:00.957Z</time></trkpt><trkpt lat="45.0347035" lon="8.0780347"><ele>264.3333333333333</ele><time>2026-04-18T16:50:01.965Z</time></trkpt><trkpt lat="45.0346163" lon="8.0778513"><ele>265.0</ele><time>2026-04-18T16:50:02.957Z</time></trkpt><trkpt lat="45.0345065" lon="8.077672"><ele>265.0</ele><time>2026-04-18T16:50:03.96Z</time></trkpt><trkpt lat="45.0343773" lon="8.0775003"><ele>265.0</ele><time>2026-04-18T16:50:04.958Z</time></trkpt><trkpt lat="45.0342403" lon="8.0773216"><ele>265.0</ele><time>2026-04-18T16:50:05.964Z</time></trkpt><trkpt lat="45.0341028" lon="8.0771351"><ele>266.0</ele><time>2026-04-18T16:50:06.96Z</time></trkpt><trkpt lat="45.0339696" lon="8.0769561"><ele>267.0</ele><time>2026-04-18T16:50:07.959Z</time></trkpt><trkpt lat="45.0338434" lon="8.0767919"><ele>268.0</ele><time>2026-04-18T16:50:08.959Z</time></trkpt><trkpt lat="45.0337189" lon="8.0766531"><ele>268.0</ele><time>2026-04-18T16:50:09.962Z</time></trkpt><trkpt lat="45.0336042" lon="8.0765596"><ele>268.0</ele><time>2026-04-18T16:50:10.962Z</time></trkpt><trkpt lat="45.0335083" lon="8.0765041"><ele>268.0</ele><time>2026-04-18T16:50:11.962Z</time></trkpt><trkpt lat="45.033434" lon="8.076468"><ele>268.0</ele><time>2026-04-18T16:50:12.964Z</time></trkpt><trkpt lat="45.0333513" lon="8.0764344"><ele>268.0</ele><time>2026-04-18T16:50:14.965Z</time></trkpt><trkpt lat="45.0332656" lon="8.0764001"><ele>267.66666666666663</ele><time>2026-04-18T16:50:17.962Z</time></trkpt><trkpt lat="45.0331871" lon="8.0763728"><ele>267.3333333333333</ele><time>2026-04-18T16:50:20.963Z</time></trkpt><trkpt lat="45.0331091" lon="8.0763581"><ele>267.0</ele><time>2026-04-18T16:50:24.962Z</time></trkpt><trkpt lat="45.0330472" lon="8.0763401"><ele>266.6666666666667</ele><time>2026-04-18T16:50:26.969Z</time></trkpt><trkpt lat="45.0329598" lon="8.0762804"><ele>266.33333333333337</ele><time>2026-04-18T16:50:28.971Z</time></trkpt><trkpt lat="45.0328952" lon="8.0762288"><ele>266.0</ele><time>2026-04-18T16:50:29.96Z</time></trkpt><trkpt lat="45.0328131" lon="8.0761493"><ele>266.0</ele><time>2026-04-18T16:50:30.967Z</time></trkpt><trkpt lat="45.0327151" lon="8.0760366"><ele>266.0</ele><time>2026-04-18T16:50:31.965Z</time></trkpt><trkpt lat="45.0326003" lon="8.0759147"><ele>266.0</ele><time>2026-04-18T16:50:32.959Z</time></trkpt><trkpt lat="45.032469" lon="8.0758038"><ele>266.0</ele><time>2026-04-18T16:50:33.955Z</time></trkpt><trkpt lat="45.0323386" lon="8.0756949"><ele>265.5</ele><time>2026-04-18T16:50:34.963Z</time></trkpt><trkpt lat="45.0322134" lon="8.0755839"><ele>265.0</ele><time>2026-04-18T16:50:35.95Z</time></trkpt><trkpt lat="45.032102" lon="8.0754642"><ele>264.5</ele><time>2026-04-18T16:50:36.96Z</time></trkpt><trkpt lat="45.0320068" lon="8.0753338"><ele>264.0</ele><time>2026-04-18T16:50:37.969Z</time></trkpt><trkpt lat="45.0319213" lon="8.0751869"><ele>264.0</ele><time>2026-04-18T16:50:38.967Z</time></trkpt><trkpt lat="45.0318478" lon="8.0750114"><ele>264.0</ele><time>2026-04-18T16:50:39.965Z</time></trkpt><trkpt lat="45.0317842" lon="8.0748169"><ele>264.0</ele><time>2026-04-18T16:50:40.965Z</time></trkpt><trkpt lat="45.0317313" lon="8.0746042"><ele>264.75</ele><time>2026-04-18T16:50:41.961Z</time></trkpt><trkpt lat="45.0316912" lon="8.0743969"><ele>265.5</ele><time>2026-04-18T16:50:42.959Z</time></trkpt><trkpt lat="45.0316492" lon="8.0742039"><ele>266.25</ele><time>2026-04-18T16:50:43.957Z</time></trkpt><trkpt lat="45.0316056" lon="8.0740215"><ele>267.0</ele><time>2026-04-18T16:50:44.969Z</time></trkpt><trkpt lat="45.0315617" lon="8.0738473"><ele>265.5</ele><time>2026-04-18T16:50:45.959Z</time></trkpt><trkpt lat="45.0315227" lon="8.0736779"><ele>264.0</ele><time>2026-04-18T16:50:46.958Z</time></trkpt><trkpt lat="45.031489" lon="8.0735122"><ele>262.5</ele><time>2026-04-18T16:50:47.961Z</time></trkpt><trkpt lat="45.0314531" lon="8.0733522"><ele>261.0</ele><time>2026-04-18T16:50:48.973Z</time></trkpt><trkpt lat="45.0314034" lon="8.0731966"><ele>260.25</ele><time>2026-04-18T16:50:49.963Z</time></trkpt><trkpt lat="45.0313353" lon="8.073037"><ele>259.5</ele><time>2026-04-18T16:50:50.963Z</time></trkpt><trkpt lat="45.0312499" lon="8.0728816"><ele>258.75</ele><time>2026-04-18T16:50:51.952Z</time></trkpt><trkpt lat="45.0311513" lon="8.0727322"><ele>258.0</ele><time>2026-04-18T16:50:52.958Z</time></trkpt><trkpt lat="45.03104" lon="8.0725958"><ele>258.0</ele><time>2026-04-18T16:50:53.958Z</time></trkpt><trkpt lat="45.0309231" lon="8.0724634"><ele>258.0</ele><time>2026-04-18T16:50:54.955Z</time></trkpt><trkpt lat="45.0308089" lon="8.0723374"><ele>258.0</ele><time>2026-04-18T16:50:55.972Z</time></trkpt><trkpt lat="45.0307029" lon="8.0722097"><ele>258.0</ele><time>2026-04-18T16:50:56.959Z</time></trkpt><trkpt lat="45.030609" lon="8.0720825"><ele>257.2</ele><time>2026-04-18T16:50:57.964Z</time></trkpt><trkpt lat="45.0305262" lon="8.071973"><ele>256.4</ele><time>2026-04-18T16:50:58.961Z</time></trkpt><trkpt lat="45.0304445" lon="8.0718908"><ele>255.59999999999997</ele><time>2026-04-18T16:50:59.959Z</time></trkpt><trkpt lat="45.0303485" lon="8.0718332"><ele>254.79999999999998</ele><time>2026-04-18T16:51:00.963Z</time></trkpt><trkpt lat="45.0302382" lon="8.0717963"><ele>254.0</ele><time>2026-04-18T16:51:01.962Z</time></trkpt><trkpt lat="45.0301216" lon="8.071765"><ele>254.0</ele><time>2026-04-18T16:51:02.966Z</time></trkpt><trkpt lat="45.0300092" lon="8.0717278"><ele>253.99999999999997</ele><time>2026-04-18T16:51:03.965Z</time></trkpt><trkpt lat="45.0299093" lon="8.0716792"><ele>253.99999999999997</ele><time>2026-04-18T16:51:04.96Z</time></trkpt><trkpt lat="45.0298176" lon="8.0716082"><ele>254.0</ele><time>2026-04-18T16:51:05.966Z</time></trkpt><trkpt lat="45.0297375" lon="8.0715115"><ele>254.0</ele><time>2026-04-18T16:51:06.968Z</time></trkpt><trkpt lat="45.0296741" lon="8.0713843"><ele>251.5</ele><time>2026-04-18T16:51:07.962Z</time></trkpt><trkpt lat="45.0296242" lon="8.0712287"><ele>249.0</ele><time>2026-04-18T16:51:08.963Z</time></trkpt><trkpt lat="45.0295851" lon="8.0710541"><ele>246.5</ele><time>2026-04-18T16:51:09.963Z</time></trkpt><trkpt lat="45.0295442" lon="8.0708863"><ele>244.0</ele><time>2026-04-18T16:51:10.963Z</time></trkpt><trkpt lat="45.0295035" lon="8.0707244"><ele>243.99999999999997</ele><time>2026-04-18T16:51:11.962Z</time></trkpt><trkpt lat="45.0294658" lon="8.0705725"><ele>244.0</ele><time>2026-04-18T16:51:12.968Z</time></trkpt><trkpt lat="45.0294346" lon="8.0704479"><ele>244.0</ele><time>2026-04-18T16:51:13.96Z</time></trkpt><trkpt lat="45.0294045" lon="8.0703458"><ele>244.0</ele><time>2026-04-18T16:51:14.959Z</time></trkpt><trkpt lat="45.0293569" lon="8.0702587"><ele>243.99999999999997</ele><time>2026-04-18T16:51:15.959Z</time></trkpt><trkpt lat="45.0292901" lon="8.0701875"><ele>244.0</ele><time>2026-04-18T16:51:16.961Z</time></trkpt><trkpt lat="45.0292233" lon="8.0701395"><ele>243.99999999999997</ele><time>2026-04-18T16:51:17.966Z</time></trkpt><trkpt lat="45.0291488" lon="8.0701176"><ele>244.0</ele><time>2026-04-18T16:51:18.962Z</time></trkpt><trkpt lat="45.0290775" lon="8.0700958"><ele>244.0</ele><time>2026-04-18T16:51:19.958Z</time></trkpt><trkpt lat="45.0290123" lon="8.0700546"><ele>244.0</ele><time>2026-04-18T16:51:20.965Z</time></trkpt><trkpt lat="45.0289559" lon="8.0699827"><ele>243.99999999999997</ele><time>2026-04-18T16:51:21.961Z</time></trkpt><trkpt lat="45.028912" lon="8.0698751"><ele>244.0</ele><time>2026-04-18T16:51:22.964Z</time></trkpt><trkpt lat="45.0288837" lon="8.0697481"><ele>245.49999999999997</ele><time>2026-04-18T16:51:23.959Z</time></trkpt><trkpt lat="45.0288766" lon="8.0696272"><ele>247.0</ele><time>2026-04-18T16:51:24.96Z</time></trkpt><trkpt lat="45.0288928" lon="8.0695323"><ele>248.5</ele><time>2026-04-18T16:51:25.96Z</time></trkpt><trkpt lat="45.0290009" lon="8.0694666"><ele>250.0</ele><time>2026-04-18T16:51:27.964Z</time></trkpt><trkpt lat="45.0290668" lon="8.0695028"><ele>251.49999999999997</ele><time>2026-04-18T16:51:28.96Z</time></trkpt><trkpt lat="45.0291292" lon="8.0695558"><ele>253.0</ele><time>2026-04-18T16:51:29.963Z</time></trkpt><trkpt lat="45.0291938" lon="8.0695822"><ele>253.0</ele><time>2026-04-18T16:51:30.964Z</time></trkpt><trkpt lat="45.0292669" lon="8.0694891"><ele>253.0</ele><time>2026-04-18T16:51:32.961Z</time></trkpt><trkpt lat="45.0292124" lon="8.0693266"><ele>253.0</ele><time>2026-04-18T16:51:34.964Z</time></trkpt><trkpt lat="45.0291412" lon="8.0692244"><ele>253.0</ele><time>2026-04-18T16:51:35.955Z</time></trkpt><trkpt lat="45.0290619" lon="8.0690965"><ele>253.0</ele><time>2026-04-18T16:51:36.96Z</time></trkpt><trkpt lat="45.028988" lon="8.0689417"><ele>249.0</ele><time>2026-04-18T16:51:37.966Z</time></trkpt><trkpt lat="45.028913" lon="8.0687728"><ele>245.0</ele><time>2026-04-18T16:51:38.963Z</time></trkpt><trkpt lat="45.0288341" lon="8.0685995"><ele>241.0</ele><time>2026-04-18T16:51:39.954Z</time></trkpt><trkpt lat="45.0287598" lon="8.0684128"><ele>237.0</ele><time>2026-04-18T16:51:40.953Z</time></trkpt><trkpt lat="45.0286984" lon="8.0682117"><ele>233.0</ele><time>2026-04-18T16:51:41.958Z</time></trkpt><trkpt lat="45.0286541" lon="8.0679999"><ele>229.0</ele><time>2026-04-18T16:51:42.962Z</time></trkpt><trkpt lat="45.028632" lon="8.0677804"><ele>225.0</ele><time>2026-04-18T16:51:43.957Z</time></trkpt><trkpt lat="45.0286136" lon="8.0675693"><ele>221.8</ele><time>2026-04-18T16:51:44.957Z</time></trkpt><trkpt lat="45.0285808" lon="8.06738"><ele>218.6</ele><time>2026-04-18T16:51:45.965Z</time></trkpt><trkpt lat="45.0285403" lon="8.0672177"><ele>215.39999999999998</ele><time>2026-04-18T16:51:46.958Z</time></trkpt><trkpt lat="45.0285201" lon="8.0670855"><ele>212.2</ele><time>2026-04-18T16:51:47.962Z</time></trkpt><trkpt lat="45.0285351" lon="8.0669738"><ele>209.0</ele><time>2026-04-18T16:51:48.957Z</time></trkpt><trkpt lat="45.0285803" lon="8.0668706"><ele>209.00000000000003</ele><time>2026-04-18T16:51:49.963Z</time></trkpt><trkpt lat="45.0286453" lon="8.0667897"><ele>209.0</ele><time>2026-04-18T16:51:50.96Z</time></trkpt><trkpt lat="45.028725" lon="8.0667136"><ele>209.0</ele><time>2026-04-18T16:51:51.964Z</time></trkpt><trkpt lat="45.0288053" lon="8.066629"><ele>209.0</ele><time>2026-04-18T16:51:52.968Z</time></trkpt><trkpt lat="45.0288657" lon="8.0665342"><ele>209.00000000000003</ele><time>2026-04-18T16:51:53.967Z</time></trkpt><trkpt lat="45.0288888" lon="8.06644"><ele>209.0</ele><time>2026-04-18T16:51:54.954Z</time></trkpt><trkpt lat="45.0288772" lon="8.0663499"><ele>208.0</ele><time>2026-04-18T16:51:55.967Z</time></trkpt><trkpt lat="45.028835" lon="8.0662792"><ele>207.0</ele><time>2026-04-18T16:51:56.958Z</time></trkpt><trkpt lat="45.0287655" lon="8.0662241"><ele>206.0</ele><time>2026-04-18T16:51:57.96Z</time></trkpt><trkpt lat="45.0286682" lon="8.0661796"><ele>205.0</ele><time>2026-04-18T16:51:58.969Z</time></trkpt><trkpt lat="45.028547" lon="8.0661372"><ele>204.0</ele><time>2026-04-18T16:51:59.958Z</time></trkpt><trkpt lat="45.0284047" lon="8.0661047"><ele>203.66666666666669</ele><time>2026-04-18T16:52:00.972Z</time></trkpt><trkpt lat="45.0282502" lon="8.0660694"><ele>203.33333333333334</ele><time>2026-04-18T16:52:01.966Z</time></trkpt><trkpt lat="45.028088" lon="8.0660265"><ele>203.0</ele><time>2026-04-18T16:52:02.959Z</time></trkpt><trkpt lat="45.0279319" lon="8.0659832"><ele>203.0</ele><time>2026-04-18T16:52:03.966Z</time></trkpt><trkpt lat="45.0277878" lon="8.0659408"><ele>203.0</ele><time>2026-04-18T16:52:04.959Z</time></trkpt><trkpt lat="45.027665" lon="8.0659053"><ele>203.0</ele><time>2026-04-18T16:52:05.963Z</time></trkpt><trkpt lat="45.0275701" lon="8.0658714"><ele>203.0</ele><time>2026-04-18T16:52:06.964Z</time></trkpt><trkpt lat="45.0275003" lon="8.0658194"><ele>203.0</ele><time>2026-04-18T16:52:07.962Z</time></trkpt><trkpt lat="45.0274511" lon="8.0657318"><ele>203.0</ele><time>2026-04-18T16:52:08.966Z</time></trkpt><trkpt lat="45.0274329" lon="8.0656174"><ele>203.0</ele><time>2026-04-18T16:52:09.967Z</time></trkpt><trkpt lat="45.0274325" lon="8.0654806"><ele>203.0</ele><time>2026-04-18T16:52:10.962Z</time></trkpt><trkpt lat="45.0274276" lon="8.0653266"><ele>203.0</ele><time>2026-04-18T16:52:11.961Z</time></trkpt><trkpt lat="45.0274206" lon="8.0651641"><ele>203.0</ele><time>2026-04-18T16:52:12.972Z</time></trkpt><trkpt lat="45.0274207" lon="8.0650103"><ele>203.0</ele><time>2026-04-18T16:52:13.973Z</time></trkpt><trkpt lat="45.0274388" lon="8.0648501"><ele>203.0</ele><time>2026-04-18T16:52:14.968Z</time></trkpt><trkpt lat="45.0274813" lon="8.0646952"><ele>203.0</ele><time>2026-04-18T16:52:15.968Z</time></trkpt><trkpt lat="45.0275425" lon="8.0645585"><ele>203.0</ele><time>2026-04-18T16:52:16.96Z</time></trkpt><trkpt lat="45.0275979" lon="8.0644201"><ele>203.0</ele><time>2026-04-18T16:52:17.967Z</time></trkpt><trkpt lat="45.0276278" lon="8.0642576"><ele>203.0</ele><time>2026-04-18T16:52:18.962Z</time></trkpt><trkpt lat="45.0276329" lon="8.0640808"><ele>203.0</ele><time>2026-04-18T16:52:19.963Z</time></trkpt><trkpt lat="45.0276195" lon="8.0638892"><ele>203.0</ele><time>2026-04-18T16:52:20.961Z</time></trkpt><trkpt lat="45.0275967" lon="8.0636884"><ele>203.75</ele><time>2026-04-18T16:52:21.968Z</time></trkpt><trkpt lat="45.0275754" lon="8.0634961"><ele>204.5</ele><time>2026-04-18T16:52:22.959Z</time></trkpt><trkpt lat="45.0275553" lon="8.0633149"><ele>205.25</ele><time>2026-04-18T16:52:23.963Z</time></trkpt><trkpt lat="45.0275341" lon="8.063145"><ele>206.0</ele><time>2026-04-18T16:52:24.968Z</time></trkpt><trkpt lat="45.0275078" lon="8.0630006"><ele>206.00000000000003</ele><time>2026-04-18T16:52:25.956Z</time></trkpt><trkpt lat="45.0274865" lon="8.0628931"><ele>206.0</ele><time>2026-04-18T16:52:26.958Z</time></trkpt><trkpt lat="45.027476" lon="8.0627916"><ele>206.0</ele><time>2026-04-18T16:52:27.963Z</time></trkpt><trkpt lat="45.0274813" lon="8.0626921"><ele>206.0</ele><time>2026-04-18T16:52:28.968Z</time></trkpt><trkpt lat="45.027515" lon="8.0625879"><ele>206.00000000000003</ele><time>2026-04-18T16:52:29.957Z</time></trkpt><trkpt lat="45.0275695" lon="8.0624746"><ele>206.0</ele><time>2026-04-18T16:52:30.962Z</time></trkpt><trkpt lat="45.0276304" lon="8.0623539"><ele>206.75</ele><time>2026-04-18T16:52:31.967Z</time></trkpt><trkpt lat="45.0276948" lon="8.0622285"><ele>207.5</ele><time>2026-04-18T16:52:32.957Z</time></trkpt><trkpt lat="45.0277626" lon="8.0620971"><ele>208.25</ele><time>2026-04-18T16:52:33.961Z</time></trkpt><trkpt lat="45.027834" lon="8.0619626"><ele>209.0</ele><time>2026-04-18T16:52:34.959Z</time></trkpt><trkpt lat="45.027909" lon="8.0618184"><ele>209.0</ele><time>2026-04-18T16:52:35.966Z</time></trkpt><trkpt lat="45.027984" lon="8.0616658"><ele>209.0</ele><time>2026-04-18T16:52:36.962Z</time></trkpt><trkpt lat="45.0280651" lon="8.0615098"><ele>209.0</ele><time>2026-04-18T16:52:37.957Z</time></trkpt><trkpt lat="45.0281466" lon="8.0613488"><ele>209.0</ele><time>2026-04-18T16:52:38.955Z</time></trkpt><trkpt lat="45.0282306" lon="8.0611823"><ele>209.0</ele><time>2026-04-18T16:52:39.966Z</time></trkpt><trkpt lat="45.0283171" lon="8.0610111"><ele>209.0</ele><time>2026-04-18T16:52:40.954Z</time></trkpt><trkpt lat="45.0284082" lon="8.0608339"><ele>209.0</ele><time>2026-04-18T16:52:41.961Z</time></trkpt><trkpt lat="45.0285024" lon="8.0606461"><ele>208.0</ele><time>2026-04-18T16:52:42.956Z</time></trkpt><trkpt lat="45.0285998" lon="8.0604485"><ele>207.0</ele><time>2026-04-18T16:52:43.955Z</time></trkpt><trkpt lat="45.0287044" lon="8.0602376"><ele>206.0</ele><time>2026-04-18T16:52:44.959Z</time></trkpt><trkpt lat="45.0288172" lon="8.0600215"><ele>208.66666666666669</ele><time>2026-04-18T16:52:45.957Z</time></trkpt><trkpt lat="45.02893" lon="8.0598001"><ele>211.33333333333331</ele><time>2026-04-18T16:52:46.962Z</time></trkpt><trkpt lat="45.0290434" lon="8.0595733"><ele>214.0</ele><time>2026-04-18T16:52:47.967Z</time></trkpt><trkpt lat="45.029159" lon="8.0593397"><ele>219.66666666666666</ele><time>2026-04-18T16:52:48.969Z</time></trkpt><trkpt lat="45.0292798" lon="8.0591012"><ele>225.33333333333331</ele><time>2026-04-18T16:52:49.96Z</time></trkpt><trkpt lat="45.0294057" lon="8.058859"><ele>231.0</ele><time>2026-04-18T16:52:50.961Z</time></trkpt><trkpt lat="45.0295346" lon="8.0586104"><ele>231.0</ele><time>2026-04-18T16:52:51.96Z</time></trkpt><trkpt lat="45.0296648" lon="8.0583553"><ele>231.0</ele><time>2026-04-18T16:52:52.956Z</time></trkpt><trkpt lat="45.0297933" lon="8.0580984"><ele>231.0</ele><time>2026-04-18T16:52:53.961Z</time></trkpt><trkpt lat="45.0299234" lon="8.0578434"><ele>232.66666666666669</ele><time>2026-04-18T16:52:54.965Z</time></trkpt><trkpt lat="45.030052" lon="8.0575873"><ele>234.33333333333334</ele><time>2026-04-18T16:52:55.964Z</time></trkpt><trkpt lat="45.0301805" lon="8.0573337"><ele>236.0</ele><time>2026-04-18T16:52:56.962Z</time></trkpt><trkpt lat="45.0303071" lon="8.0570825"><ele>236.0</ele><time>2026-04-18T16:52:57.966Z</time></trkpt><trkpt lat="45.0304354" lon="8.0568333"><ele>236.0</ele><time>2026-04-18T16:52:58.961Z</time></trkpt><trkpt lat="45.0305597" lon="8.056584"><ele>236.0</ele><time>2026-04-18T16:52:59.964Z</time></trkpt><trkpt lat="45.0306876" lon="8.0563319"><ele>234.0</ele><time>2026-04-18T16:53:00.958Z</time></trkpt><trkpt lat="45.0308161" lon="8.0560746"><ele>232.0</ele><time>2026-04-18T16:53:01.956Z</time></trkpt><trkpt lat="45.0309443" lon="8.0558204"><ele>230.0</ele><time>2026-04-18T16:53:02.958Z</time></trkpt><trkpt lat="45.031076" lon="8.0555653"><ele>230.0</ele><time>2026-04-18T16:53:03.96Z</time></trkpt><trkpt lat="45.0312078" lon="8.0553093"><ele>230.0</ele><time>2026-04-18T16:53:04.957Z</time></trkpt><trkpt lat="45.0313378" lon="8.0550528"><ele>230.0</ele><time>2026-04-18T16:53:05.957Z</time></trkpt><trkpt lat="45.0314663" lon="8.0547939"><ele>227.66666666666669</ele><time>2026-04-18T16:53:06.959Z</time></trkpt><trkpt lat="45.031593" lon="8.0545366"><ele>225.33333333333331</ele><time>2026-04-18T16:53:07.965Z</time></trkpt><trkpt lat="45.0317175" lon="8.054286"><ele>223.0</ele><time>2026-04-18T16:53:08.958Z</time></trkpt><trkpt lat="45.0318433" lon="8.0540387"><ele>223.0</ele><time>2026-04-18T16:53:09.959Z</time></trkpt><trkpt lat="45.0319718" lon="8.0537986"><ele>223.0</ele><time>2026-04-18T16:53:10.969Z</time></trkpt><trkpt lat="45.0321111" lon="8.0535714"><ele>223.0</ele><time>2026-04-18T16:53:11.964Z</time></trkpt><trkpt lat="45.0322642" lon="8.0533571"><ele>224.33333333333331</ele><time>2026-04-18T16:53:12.958Z</time></trkpt><trkpt lat="45.0324287" lon="8.0531554"><ele>225.66666666666669</ele><time>2026-04-18T16:53:13.965Z</time></trkpt><trkpt lat="45.0326027" lon="8.0529687"><ele>227.0</ele><time>2026-04-18T16:53:14.967Z</time></trkpt><trkpt lat="45.0327865" lon="8.0528"><ele>227.0</ele><time>2026-04-18T16:53:15.957Z</time></trkpt><trkpt lat="45.0329821" lon="8.0526464"><ele>227.0</ele><time>2026-04-18T16:53:16.963Z</time></trkpt><trkpt lat="45.0331864" lon="8.0525116"><ele>227.0</ele><time>2026-04-18T16:53:17.959Z</time></trkpt><trkpt lat="45.0334006" lon="8.0523991"><ele>228.5</ele><time>2026-04-18T16:53:18.961Z</time></trkpt><trkpt lat="45.0336211" lon="8.0522981"><ele>230.0</ele><time>2026-04-18T16:53:19.965Z</time></trkpt><trkpt lat="45.0338454" lon="8.0521994"><ele>230.0</ele><time>2026-04-18T16:53:20.957Z</time></trkpt><trkpt lat="45.0340716" lon="8.0521027"><ele>230.0</ele><time>2026-04-18T16:53:21.96Z</time></trkpt><trkpt lat="45.0343" lon="8.0520015"><ele>228.5</ele><time>2026-04-18T16:53:22.958Z</time></trkpt><trkpt lat="45.0345261" lon="8.0518973"><ele>227.0</ele><time>2026-04-18T16:53:23.957Z</time></trkpt><trkpt lat="45.0347506" lon="8.0517959"><ele>231.0</ele><time>2026-04-18T16:53:24.965Z</time></trkpt><trkpt lat="45.0349736" lon="8.0516957"><ele>235.0</ele><time>2026-04-18T16:53:25.954Z</time></trkpt><trkpt lat="45.0351953" lon="8.0515961"><ele>235.0</ele><time>2026-04-18T16:53:26.961Z</time></trkpt><trkpt lat="45.0354189" lon="8.0514955"><ele>235.0</ele><time>2026-04-18T16:53:27.96Z</time></trkpt><trkpt lat="45.0356447" lon="8.0513956"><ele>236.5</ele><time>2026-04-18T16:53:28.964Z</time></trkpt><trkpt lat="45.0358756" lon="8.0512947"><ele>238.0</ele><time>2026-04-18T16:53:29.964Z</time></trkpt><trkpt lat="45.0361104" lon="8.0511935"><ele>238.0</ele><time>2026-04-18T16:53:30.965Z</time></trkpt><trkpt lat="45.0363463" lon="8.051088"><ele>238.0</ele><time>2026-04-18T16:53:31.971Z</time></trkpt><trkpt lat="45.0365803" lon="8.0509837"><ele>239.0</ele><time>2026-04-18T16:53:32.969Z</time></trkpt><trkpt lat="45.0368095" lon="8.0508881"><ele>240.0</ele><time>2026-04-18T16:53:33.958Z</time></trkpt><trkpt lat="45.0370338" lon="8.050806"><ele>239.66666666666669</ele><time>2026-04-18T16:53:34.964Z</time></trkpt><trkpt lat="45.0372573" lon="8.0507455"><ele>239.33333333333334</ele><time>2026-04-18T16:53:35.96Z</time></trkpt><trkpt lat="45.037477" lon="8.0507123"><ele>239.0</ele><time>2026-04-18T16:53:36.958Z</time></trkpt><trkpt lat="45.0376952" lon="8.0507115"><ele>239.0</ele><time>2026-04-18T16:53:37.958Z</time></trkpt><trkpt lat="45.0379139" lon="8.0507472"><ele>239.0</ele><time>2026-04-18T16:53:38.962Z</time></trkpt><trkpt lat="45.0381305" lon="8.0508063"><ele>239.0</ele><time>2026-04-18T16:53:39.959Z</time></trkpt><trkpt lat="45.0383381" lon="8.050893"><ele>240.66666666666669</ele><time>2026-04-18T16:53:40.974Z</time></trkpt><trkpt lat="45.0385462" lon="8.0509711"><ele>242.33333333333331</ele><time>2026-04-18T16:53:41.962Z</time></trkpt><trkpt lat="45.0387597" lon="8.051019"><ele>244.0</ele><time>2026-04-18T16:53:42.96Z</time></trkpt><trkpt lat="45.0389796" lon="8.0510354"><ele>245.0</ele><time>2026-04-18T16:53:43.961Z</time></trkpt><trkpt lat="45.0391991" lon="8.0510252"><ele>246.0</ele><time>2026-04-18T16:53:44.962Z</time></trkpt><trkpt lat="45.0394174" lon="8.0509833"><ele>247.0</ele><time>2026-04-18T16:53:45.963Z</time></trkpt><trkpt lat="45.0396317" lon="8.0509077"><ele>247.0</ele><time>2026-04-18T16:53:46.962Z</time></trkpt><trkpt lat="45.0398379" lon="8.0507951"><ele>247.0</ele><time>2026-04-18T16:53:47.961Z</time></trkpt><trkpt lat="45.0400403" lon="8.0506536"><ele>247.0</ele><time>2026-04-18T16:53:48.958Z</time></trkpt><trkpt lat="45.0402374" lon="8.050482"><ele>250.0</ele><time>2026-04-18T16:53:49.96Z</time></trkpt><trkpt lat="45.0404295" lon="8.0502874"><ele>253.0</ele><time>2026-04-18T16:53:50.961Z</time></trkpt><trkpt lat="45.040622" lon="8.0500852"><ele>261.0</ele><time>2026-04-18T16:53:51.96Z</time></trkpt><trkpt lat="45.0408163" lon="8.0498785"><ele>269.0</ele><time>2026-04-18T16:53:52.961Z</time></trkpt><trkpt lat="45.0410093" lon="8.049673"><ele>269.0</ele><time>2026-04-18T16:53:53.959Z</time></trkpt><trkpt lat="45.0411981" lon="8.0494686"><ele>269.0</ele><time>2026-04-18T16:53:54.959Z</time></trkpt><trkpt lat="45.0413852" lon="8.0492667"><ele>267.5</ele><time>2026-04-18T16:53:55.961Z</time></trkpt><trkpt lat="45.0415687" lon="8.049068"><ele>266.0</ele><time>2026-04-18T16:53:56.956Z</time></trkpt><trkpt lat="45.0417518" lon="8.0488721"><ele>266.0</ele><time>2026-04-18T16:53:57.959Z</time></trkpt><trkpt lat="45.0419315" lon="8.048677"><ele>266.0</ele><time>2026-04-18T16:53:58.958Z</time></trkpt><trkpt lat="45.0421076" lon="8.0484831"><ele>266.6666666666667</ele><time>2026-04-18T16:53:59.959Z</time></trkpt><trkpt lat="45.042279" lon="8.0482915"><ele>267.3333333333333</ele><time>2026-04-18T16:54:00.965Z</time></trkpt><trkpt lat="45.0424445" lon="8.0481071"><ele>268.0</ele><time>2026-04-18T16:54:01.962Z</time></trkpt><trkpt lat="45.0426066" lon="8.0479302"><ele>262.0</ele><time>2026-04-18T16:54:02.962Z</time></trkpt><trkpt lat="45.0427593" lon="8.0477496"><ele>256.0</ele><time>2026-04-18T16:54:03.96Z</time></trkpt><trkpt lat="45.0428953" lon="8.0475557"><ele>250.0</ele><time>2026-04-18T16:54:04.963Z</time></trkpt><trkpt lat="45.043019" lon="8.0473404"><ele>250.0</ele><time>2026-04-18T16:54:05.965Z</time></trkpt><trkpt lat="45.0431314" lon="8.0471113"><ele>250.0</ele><time>2026-04-18T16:54:06.959Z</time></trkpt><trkpt lat="45.0432314" lon="8.0468656"><ele>250.0</ele><time>2026-04-18T16:54:07.96Z</time></trkpt><trkpt lat="45.0433155" lon="8.0466198"><ele>247.66666666666666</ele><time>2026-04-18T16:54:08.96Z</time></trkpt><trkpt lat="45.0433865" lon="8.04637"><ele>245.33333333333331</ele><time>2026-04-18T16:54:09.967Z</time></trkpt><trkpt lat="45.0434429" lon="8.0461213"><ele>243.0</ele><time>2026-04-18T16:54:10.964Z</time></trkpt><trkpt lat="45.0434848" lon="8.0458735"><ele>242.66666666666669</ele><time>2026-04-18T16:54:11.952Z</time></trkpt><trkpt lat="45.0435184" lon="8.0456337"><ele>242.33333333333334</ele><time>2026-04-18T16:54:12.958Z</time></trkpt><trkpt lat="45.0435495" lon="8.0454107"><ele>242.0</ele><time>2026-04-18T16:54:13.958Z</time></trkpt><trkpt lat="45.0435787" lon="8.0452114"><ele>242.0</ele><time>2026-04-18T16:54:14.96Z</time></trkpt><trkpt lat="45.0436028" lon="8.0450338"><ele>242.0</ele><time>2026-04-18T16:54:15.96Z</time></trkpt><trkpt lat="45.0436237" lon="8.0448711"><ele>242.0</ele><time>2026-04-18T16:54:16.962Z</time></trkpt><trkpt lat="45.0436444" lon="8.0447171"><ele>242.0</ele><time>2026-04-18T16:54:17.955Z</time></trkpt><trkpt lat="45.043662" lon="8.0445689"><ele>241.2</ele><time>2026-04-18T16:54:18.959Z</time></trkpt><trkpt lat="45.0436795" lon="8.0444207"><ele>240.39999999999998</ele><time>2026-04-18T16:54:19.963Z</time></trkpt><trkpt lat="45.0436968" lon="8.0442794"><ele>239.60000000000002</ele><time>2026-04-18T16:54:20.95Z</time></trkpt><trkpt lat="45.0437133" lon="8.0441406"><ele>238.8</ele><time>2026-04-18T16:54:21.961Z</time></trkpt><trkpt lat="45.0437272" lon="8.0440088"><ele>238.0</ele><time>2026-04-18T16:54:22.961Z</time></trkpt><trkpt lat="45.0437377" lon="8.0438797"><ele>237.2</ele><time>2026-04-18T16:54:23.955Z</time></trkpt><trkpt lat="45.0437413" lon="8.0437519"><ele>236.4</ele><time>2026-04-18T16:54:24.961Z</time></trkpt><trkpt lat="45.0437333" lon="8.043621"><ele>235.59999999999997</ele><time>2026-04-18T16:54:25.968Z</time></trkpt><trkpt lat="45.0437066" lon="8.0434843"><ele>234.79999999999998</ele><time>2026-04-18T16:54:26.962Z</time></trkpt><trkpt lat="45.0436602" lon="8.0433491"><ele>234.0</ele><time>2026-04-18T16:54:27.959Z</time></trkpt><trkpt lat="45.0435982" lon="8.0432191"><ele>234.0</ele><time>2026-04-18T16:54:28.957Z</time></trkpt><trkpt lat="45.0435316" lon="8.0430922"><ele>233.99999999999997</ele><time>2026-04-18T16:54:29.961Z</time></trkpt><trkpt lat="45.0434659" lon="8.0429702"><ele>233.99999999999997</ele><time>2026-04-18T16:54:30.964Z</time></trkpt><trkpt lat="45.043406" lon="8.0428544"><ele>234.0</ele><time>2026-04-18T16:54:31.96Z</time></trkpt><trkpt lat="45.0433515" lon="8.0427497"><ele>234.0</ele><time>2026-04-18T16:54:32.959Z</time></trkpt><trkpt lat="45.0433" lon="8.0426507"><ele>233.16666666666666</ele><time>2026-04-18T16:54:33.964Z</time></trkpt><trkpt lat="45.0432539" lon="8.042557"><ele>232.33333333333331</ele><time>2026-04-18T16:54:34.965Z</time></trkpt><trkpt lat="45.0432179" lon="8.0424744"><ele>231.5</ele><time>2026-04-18T16:54:35.966Z</time></trkpt><trkpt lat="45.0431808" lon="8.0423626"><ele>230.66666666666666</ele><time>2026-04-18T16:54:37.959Z</time></trkpt><trkpt lat="45.0431324" lon="8.0422607"><ele>229.83333333333331</ele><time>2026-04-18T16:55:19.957Z</time></trkpt><trkpt lat="45.0430913" lon="8.0421626"><ele>229.0</ele><time>2026-04-18T16:55:21.961Z</time></trkpt><trkpt lat="45.0430653" lon="8.0420726"><ele>228.6</ele><time>2026-04-18T16:55:23.962Z</time></trkpt><trkpt lat="45.0430443" lon="8.041972"><ele>228.2</ele><time>2026-04-18T16:55:29.961Z</time></trkpt><trkpt lat="45.0430385" lon="8.0418552"><ele>227.79999999999998</ele><time>2026-04-18T16:55:31.958Z</time></trkpt><trkpt lat="45.0430473" lon="8.0416989"><ele>227.39999999999998</ele><time>2026-04-18T16:55:33.959Z</time></trkpt><trkpt lat="45.0430791" lon="8.041538"><ele>227.0</ele><time>2026-04-18T16:55:35.96Z</time></trkpt><trkpt lat="45.043134" lon="8.0413841"><ele>226.39999999999998</ele><time>2026-04-18T16:55:37.963Z</time></trkpt><trkpt lat="45.0431998" lon="8.0412359"><ele>225.79999999999998</ele><time>2026-04-18T16:55:39.96Z</time></trkpt><trkpt lat="45.0432042" lon="8.04108"><ele>225.2</ele><time>2026-04-18T16:55:41.963Z</time></trkpt><trkpt lat="45.0431439" lon="8.040934"><ele>224.6</ele><time>2026-04-18T16:55:43.96Z</time></trkpt><trkpt lat="45.0431077" lon="8.0408562"><ele>224.0</ele><time>2026-04-18T16:55:44.959Z</time></trkpt><trkpt lat="45.0430626" lon="8.0407685"><ele>224.0</ele><time>2026-04-18T16:55:45.961Z</time></trkpt><trkpt lat="45.0430068" lon="8.0406601"><ele>224.0</ele><time>2026-04-18T16:55:46.963Z</time></trkpt><trkpt lat="45.042941" lon="8.0405284"><ele>224.0</ele><time>2026-04-18T16:55:47.958Z</time></trkpt><trkpt lat="45.0428748" lon="8.0403795"><ele>224.0</ele><time>2026-04-18T16:55:48.958Z</time></trkpt><trkpt lat="45.0428049" lon="8.0402205"><ele>224.0</ele><time>2026-04-18T16:55:49.959Z</time></trkpt><trkpt lat="45.0427328" lon="8.0400497"><ele>224.0</ele><time>2026-04-18T16:55:50.959Z</time></trkpt><trkpt lat="45.0426575" lon="8.0398826"><ele>224.0</ele><time>2026-04-18T16:55:51.957Z</time></trkpt><trkpt lat="45.0425786" lon="8.0397115"><ele>224.0</ele><time>2026-04-18T16:55:52.963Z</time></trkpt><trkpt lat="45.0424994" lon="8.0395371"><ele>223.5</ele><time>2026-04-18T16:55:53.961Z</time></trkpt><trkpt lat="45.0424197" lon="8.039364"><ele>223.0</ele><time>2026-04-18T16:55:54.96Z</time></trkpt><trkpt lat="45.0423392" lon="8.0391918"><ele>222.5</ele><time>2026-04-18T16:55:55.96Z</time></trkpt><trkpt lat="45.0422585" lon="8.0390106"><ele>222.0</ele><time>2026-04-18T16:55:56.958Z</time></trkpt><trkpt lat="45.0421765" lon="8.0388264"><ele>221.66666666666669</ele><time>2026-04-18T16:55:57.966Z</time></trkpt><trkpt lat="45.0420963" lon="8.0386473"><ele>221.33333333333334</ele><time>2026-04-18T16:55:58.959Z</time></trkpt><trkpt lat="45.0420114" lon="8.0384638"><ele>221.0</ele><time>2026-04-18T16:55:59.959Z</time></trkpt><trkpt lat="45.0419246" lon="8.0382768"><ele>220.0</ele><time>2026-04-18T16:56:00.961Z</time></trkpt><trkpt lat="45.0418401" lon="8.0380887"><ele>219.0</ele><time>2026-04-18T16:56:01.961Z</time></trkpt><trkpt lat="45.0417519" lon="8.0378921"><ele>218.0</ele><time>2026-04-18T16:56:02.959Z</time></trkpt><trkpt lat="45.0416605" lon="8.037686"><ele>217.66666666666669</ele><time>2026-04-18T16:56:03.962Z</time></trkpt><trkpt lat="45.0415668" lon="8.0374774"><ele>217.33333333333331</ele><time>2026-04-18T16:56:04.96Z</time></trkpt><trkpt lat="45.0414771" lon="8.0372658"><ele>217.0</ele><time>2026-04-18T16:56:05.962Z</time></trkpt><trkpt lat="45.0413917" lon="8.0370499"><ele>216.33333333333331</ele><time>2026-04-18T16:56:06.963Z</time></trkpt><trkpt lat="45.0413185" lon="8.0368237"><ele>215.66666666666669</ele><time>2026-04-18T16:56:07.963Z</time></trkpt><trkpt lat="45.0412648" lon="8.0365901"><ele>215.0</ele><time>2026-04-18T16:56:08.96Z</time></trkpt><trkpt lat="45.0412305" lon="8.0363496"><ele>215.0</ele><time>2026-04-18T16:56:09.963Z</time></trkpt><trkpt lat="45.0412223" lon="8.0360976"><ele>215.0</ele><time>2026-04-18T16:56:10.96Z</time></trkpt><trkpt lat="45.0412427" lon="8.0358451"><ele>215.0</ele><time>2026-04-18T16:56:11.959Z</time></trkpt><trkpt lat="45.0412878" lon="8.0355998"><ele>214.66666666666669</ele><time>2026-04-18T16:56:12.968Z</time></trkpt><trkpt lat="45.0413371" lon="8.0353727"><ele>214.33333333333331</ele><time>2026-04-18T16:56:13.958Z</time></trkpt><trkpt lat="45.0413734" lon="8.0351523"><ele>214.0</ele><time>2026-04-18T16:56:14.959Z</time></trkpt><trkpt lat="45.0413717" lon="8.034925"><ele>214.0</ele><time>2026-04-18T16:56:15.956Z</time></trkpt><trkpt lat="45.0413427" lon="8.0346947"><ele>214.0</ele><time>2026-04-18T16:56:16.968Z</time></trkpt><trkpt lat="45.0412788" lon="8.0344753"><ele>214.0</ele><time>2026-04-18T16:56:17.962Z</time></trkpt><trkpt lat="45.0411837" lon="8.0342674"><ele>216.66666666666666</ele><time>2026-04-18T16:56:18.958Z</time></trkpt><trkpt lat="45.0410672" lon="8.0340603"><ele>219.33333333333331</ele><time>2026-04-18T16:56:19.958Z</time></trkpt><trkpt lat="45.040943" lon="8.0338411"><ele>222.0</ele><time>2026-04-18T16:56:20.969Z</time></trkpt><trkpt lat="45.0408172" lon="8.0336065"><ele>221.0</ele><time>2026-04-18T16:56:21.964Z</time></trkpt><trkpt lat="45.0406851" lon="8.0333648"><ele>220.0</ele><time>2026-04-18T16:56:22.961Z</time></trkpt><trkpt lat="45.0405527" lon="8.0331257"><ele>219.0</ele><time>2026-04-18T16:56:23.96Z</time></trkpt><trkpt lat="45.0404213" lon="8.0328848"><ele>219.0</ele><time>2026-04-18T16:56:24.961Z</time></trkpt><trkpt lat="45.0402894" lon="8.032645"><ele>219.0</ele><time>2026-04-18T16:56:25.963Z</time></trkpt><trkpt lat="45.0401579" lon="8.0324072"><ele>219.0</ele><time>2026-04-18T16:56:26.958Z</time></trkpt><trkpt lat="45.0400299" lon="8.0321733"><ele>218.0</ele><time>2026-04-18T16:56:27.962Z</time></trkpt><trkpt lat="45.0399049" lon="8.031946"><ele>217.0</ele><time>2026-04-18T16:56:28.959Z</time></trkpt><trkpt lat="45.0397815" lon="8.0317232"><ele>216.0</ele><time>2026-04-18T16:56:29.958Z</time></trkpt><trkpt lat="45.0396594" lon="8.031505"><ele>216.0</ele><time>2026-04-18T16:56:30.958Z</time></trkpt><trkpt lat="45.0395394" lon="8.0312924"><ele>216.0</ele><time>2026-04-18T16:56:31.962Z</time></trkpt><trkpt lat="45.0394234" lon="8.0310925"><ele>216.0</ele><time>2026-04-18T16:56:32.962Z</time></trkpt><trkpt lat="45.0393125" lon="8.0308991"><ele>215.33333333333331</ele><time>2026-04-18T16:56:33.958Z</time></trkpt><trkpt lat="45.0392142" lon="8.0307131"><ele>214.66666666666666</ele><time>2026-04-18T16:56:34.961Z</time></trkpt><trkpt lat="45.0391302" lon="8.0305241"><ele>214.0</ele><time>2026-04-18T16:56:35.961Z</time></trkpt><trkpt lat="45.0390654" lon="8.0303262"><ele>214.0</ele><time>2026-04-18T16:56:36.961Z</time></trkpt><trkpt lat="45.0390198" lon="8.0301133"><ele>214.0</ele><time>2026-04-18T16:56:37.959Z</time></trkpt><trkpt lat="45.0389869" lon="8.0298853"><ele>214.0</ele><time>2026-04-18T16:56:38.96Z</time></trkpt><trkpt lat="45.038956" lon="8.0296453"><ele>213.33333333333331</ele><time>2026-04-18T16:56:39.962Z</time></trkpt><trkpt lat="45.0389236" lon="8.029401"><ele>212.66666666666669</ele><time>2026-04-18T16:56:40.964Z</time></trkpt><trkpt lat="45.0388915" lon="8.0291564"><ele>212.0</ele><time>2026-04-18T16:56:41.962Z</time></trkpt><trkpt lat="45.0388582" lon="8.0289115"><ele>213.66666666666669</ele><time>2026-04-18T16:56:42.961Z</time></trkpt><trkpt lat="45.0388278" lon="8.0286646"><ele>215.33333333333331</ele><time>2026-04-18T16:56:43.957Z</time></trkpt><trkpt lat="45.0388106" lon="8.0284111"><ele>217.0</ele><time>2026-04-18T16:56:44.959Z</time></trkpt><trkpt lat="45.0388191" lon="8.0281405"><ele>221.0</ele><time>2026-04-18T16:56:45.959Z</time></trkpt><trkpt lat="45.0388506" lon="8.0278491"><ele>225.0</ele><time>2026-04-18T16:56:46.97Z</time></trkpt><trkpt lat="45.0389103" lon="8.0275425"><ele>229.0</ele><time>2026-04-18T16:56:47.961Z</time></trkpt><trkpt lat="45.0389955" lon="8.027241"><ele>228.66666666666666</ele><time>2026-04-18T16:56:48.961Z</time></trkpt><trkpt lat="45.0390803" lon="8.0269694"><ele>228.33333333333331</ele><time>2026-04-18T16:56:49.96Z</time></trkpt><trkpt lat="45.0391571" lon="8.0267013"><ele>228.0</ele><time>2026-04-18T16:56:50.956Z</time></trkpt><trkpt lat="45.0392093" lon="8.0264209"><ele>228.66666666666669</ele><time>2026-04-18T16:56:51.974Z</time></trkpt><trkpt lat="45.0392314" lon="8.0261267"><ele>229.33333333333334</ele><time>2026-04-18T16:56:52.962Z</time></trkpt><trkpt lat="45.039224" lon="8.0258341"><ele>230.0</ele><time>2026-04-18T16:56:53.96Z</time></trkpt><trkpt lat="45.0391814" lon="8.0255494"><ele>234.33333333333334</ele><time>2026-04-18T16:56:54.964Z</time></trkpt><trkpt lat="45.0391126" lon="8.0252706"><ele>238.66666666666669</ele><time>2026-04-18T16:56:55.962Z</time></trkpt><trkpt lat="45.0390167" lon="8.025004"><ele>243.0</ele><time>2026-04-18T16:56:56.96Z</time></trkpt><trkpt lat="45.0389012" lon="8.0247474"><ele>244.66666666666669</ele><time>2026-04-18T16:56:57.961Z</time></trkpt><trkpt lat="45.0387902" lon="8.024486"><ele>246.33333333333334</ele><time>2026-04-18T16:56:58.959Z</time></trkpt><trkpt lat="45.038699" lon="8.0242155"><ele>248.0</ele><time>2026-04-18T16:56:59.96Z</time></trkpt><trkpt lat="45.0386383" lon="8.0239529"><ele>248.0</ele><time>2026-04-18T16:57:00.975Z</time></trkpt><trkpt lat="45.0385836" lon="8.0236773"><ele>248.0</ele><time>2026-04-18T16:57:01.958Z</time></trkpt><trkpt lat="45.0385327" lon="8.023385"><ele>248.0</ele><time>2026-04-18T16:57:02.958Z</time></trkpt><trkpt lat="45.0384785" lon="8.023086"><ele>243.33333333333334</ele><time>2026-04-18T16:57:03.962Z</time></trkpt><trkpt lat="45.0384237" lon="8.0227838"><ele>238.66666666666669</ele><time>2026-04-18T16:57:04.965Z</time></trkpt><trkpt lat="45.0383676" lon="8.0224754"><ele>234.0</ele><time>2026-04-18T16:57:05.96Z</time></trkpt><trkpt lat="45.0383122" lon="8.0221595"><ele>234.5</ele><time>2026-04-18T16:57:06.961Z</time></trkpt><trkpt lat="45.0382556" lon="8.0218352"><ele>235.0</ele><time>2026-04-18T16:57:07.959Z</time></trkpt><trkpt lat="45.0381976" lon="8.0215032"><ele>228.5</ele><time>2026-04-18T16:57:08.965Z</time></trkpt><trkpt lat="45.038142" lon="8.0211629"><ele>222.0</ele><time>2026-04-18T16:57:09.96Z</time></trkpt><trkpt lat="45.0380951" lon="8.0208144"><ele>218.5</ele><time>2026-04-18T16:57:10.961Z</time></trkpt><trkpt lat="45.0380532" lon="8.0204603"><ele>215.0</ele><time>2026-04-18T16:57:11.963Z</time></trkpt><trkpt lat="45.0380128" lon="8.0201025"><ele>214.5</ele><time>2026-04-18T16:57:12.957Z</time></trkpt><trkpt lat="45.0379719" lon="8.0197458"><ele>214.0</ele><time>2026-04-18T16:57:13.961Z</time></trkpt><trkpt lat="45.0379318" lon="8.0193997"><ele>214.5</ele><time>2026-04-18T16:57:14.958Z</time></trkpt><trkpt lat="45.0378935" lon="8.0190615"><ele>215.0</ele><time>2026-04-18T16:57:15.959Z</time></trkpt><trkpt lat="45.037856" lon="8.0187309"><ele>215.0</ele><time>2026-04-18T16:57:16.969Z</time></trkpt><trkpt lat="45.0378202" lon="8.0184079"><ele>215.0</ele><time>2026-04-18T16:57:17.958Z</time></trkpt><trkpt lat="45.0377867" lon="8.0180901"><ele>215.0</ele><time>2026-04-18T16:57:18.959Z</time></trkpt><trkpt lat="45.0377552" lon="8.0177844"><ele>215.0</ele><time>2026-04-18T16:57:19.96Z</time></trkpt><trkpt lat="45.0377271" lon="8.0174965"><ele>215.0</ele><time>2026-04-18T16:57:20.965Z</time></trkpt><trkpt lat="45.0376974" lon="8.0172199"><ele>215.0</ele><time>2026-04-18T16:57:21.959Z</time></trkpt><trkpt lat="45.0376679" lon="8.0169521"><ele>215.0</ele><time>2026-04-18T16:57:22.969Z</time></trkpt><trkpt lat="45.0376376" lon="8.0166895"><ele>215.0</ele><time>2026-04-18T16:57:23.966Z</time></trkpt><trkpt lat="45.0376087" lon="8.0164366"><ele>215.66666666666669</ele><time>2026-04-18T16:57:24.958Z</time></trkpt><trkpt lat="45.0375815" lon="8.0161948"><ele>216.33333333333331</ele><time>2026-04-18T16:57:25.96Z</time></trkpt><trkpt lat="45.0375585" lon="8.0159609"><ele>217.0</ele><time>2026-04-18T16:57:26.962Z</time></trkpt><trkpt lat="45.0375395" lon="8.0157272"><ele>217.0</ele><time>2026-04-18T16:57:27.966Z</time></trkpt><trkpt lat="45.0375322" lon="8.0154916"><ele>217.0</ele><time>2026-04-18T16:57:28.96Z</time></trkpt><trkpt lat="45.0375431" lon="8.0152477"><ele>217.0</ele><time>2026-04-18T16:57:29.968Z</time></trkpt><trkpt lat="45.0375698" lon="8.0149933"><ele>217.0</ele><time>2026-04-18T16:57:30.962Z</time></trkpt><trkpt lat="45.037604" lon="8.014728"><ele>217.0</ele><time>2026-04-18T16:57:31.955Z</time></trkpt><trkpt lat="45.0376421" lon="8.0144503"><ele>217.0</ele><time>2026-04-18T16:57:32.96Z</time></trkpt><trkpt lat="45.0376805" lon="8.0141612"><ele>218.0</ele><time>2026-04-18T16:57:33.964Z</time></trkpt><trkpt lat="45.0377174" lon="8.0138773"><ele>219.0</ele><time>2026-04-18T16:57:34.961Z</time></trkpt><trkpt lat="45.0377556" lon="8.0135942"><ele>220.0</ele><time>2026-04-18T16:57:35.965Z</time></trkpt><trkpt lat="45.0377941" lon="8.013313"><ele>221.66666666666666</ele><time>2026-04-18T16:57:36.958Z</time></trkpt><trkpt lat="45.0378325" lon="8.0130312"><ele>223.33333333333331</ele><time>2026-04-18T16:57:37.964Z</time></trkpt><trkpt lat="45.0378713" lon="8.0127453"><ele>225.0</ele><time>2026-04-18T16:57:38.963Z</time></trkpt><trkpt lat="45.0379111" lon="8.012453"><ele>226.33333333333331</ele><time>2026-04-18T16:57:39.96Z</time></trkpt><trkpt lat="45.03795" lon="8.0121557"><ele>227.66666666666666</ele><time>2026-04-18T16:57:40.961Z</time></trkpt><trkpt lat="45.0379914" lon="8.011864"><ele>229.0</ele><time>2026-04-18T16:57:41.966Z</time></trkpt><trkpt lat="45.038032" lon="8.011573"><ele>230.0</ele><time>2026-04-18T16:57:42.96Z</time></trkpt><trkpt lat="45.0380709" lon="8.0112853"><ele>231.0</ele><time>2026-04-18T16:57:43.967Z</time></trkpt><trkpt lat="45.0381095" lon="8.0110074"><ele>232.0</ele><time>2026-04-18T16:57:44.958Z</time></trkpt><trkpt lat="45.0381553" lon="8.0107509"><ele>230.33333333333331</ele><time>2026-04-18T16:57:45.956Z</time></trkpt><trkpt lat="45.0382301" lon="8.0105153"><ele>228.66666666666669</ele><time>2026-04-18T16:57:46.965Z</time></trkpt><trkpt lat="45.0383276" lon="8.0102969"><ele>227.0</ele><time>2026-04-18T16:57:47.963Z</time></trkpt><trkpt lat="45.0384386" lon="8.0100953"><ele>230.0</ele><time>2026-04-18T16:57:48.963Z</time></trkpt><trkpt lat="45.0385519" lon="8.0098979"><ele>233.0</ele><time>2026-04-18T16:57:49.963Z</time></trkpt><trkpt lat="45.0386678" lon="8.0096948"><ele>236.0</ele><time>2026-04-18T16:57:50.959Z</time></trkpt><trkpt lat="45.0387857" lon="8.0094913"><ele>236.0</ele><time>2026-04-18T16:57:51.962Z</time></trkpt><trkpt lat="45.0389035" lon="8.0092907"><ele>236.0</ele><time>2026-04-18T16:57:52.963Z</time></trkpt><trkpt lat="45.0390219" lon="8.0090873"><ele>236.0</ele><time>2026-04-18T16:57:53.963Z</time></trkpt><trkpt lat="45.0391372" lon="8.008886"><ele>235.33333333333334</ele><time>2026-04-18T16:57:54.965Z</time></trkpt><trkpt lat="45.0392516" lon="8.0086928"><ele>234.66666666666669</ele><time>2026-04-18T16:57:55.959Z</time></trkpt><trkpt lat="45.0393611" lon="8.0085005"><ele>234.0</ele><time>2026-04-18T16:57:56.956Z</time></trkpt><trkpt lat="45.0394539" lon="8.0083001"><ele>237.0</ele><time>2026-04-18T16:57:57.96Z</time></trkpt><trkpt lat="45.0395289" lon="8.0080924"><ele>240.0</ele><time>2026-04-18T16:57:58.958Z</time></trkpt><trkpt lat="45.0395962" lon="8.0078842"><ele>243.0</ele><time>2026-04-18T16:57:59.959Z</time></trkpt><trkpt lat="45.0396594" lon="8.0076788"><ele>249.0</ele><time>2026-04-18T16:58:00.958Z</time></trkpt><trkpt lat="45.0397231" lon="8.0074754"><ele>255.0</ele><time>2026-04-18T16:58:01.963Z</time></trkpt><trkpt lat="45.0397872" lon="8.0072762"><ele>261.0</ele><time>2026-04-18T16:58:02.96Z</time></trkpt><trkpt lat="45.0398488" lon="8.0070835"><ele>261.0</ele><time>2026-04-18T16:58:03.97Z</time></trkpt><trkpt lat="45.039906" lon="8.0069041"><ele>261.0</ele><time>2026-04-18T16:58:04.961Z</time></trkpt><trkpt lat="45.0399599" lon="8.0067335"><ele>261.0</ele><time>2026-04-18T16:58:05.959Z</time></trkpt><trkpt lat="45.0400128" lon="8.0065747"><ele>261.0</ele><time>2026-04-18T16:58:06.959Z</time></trkpt><trkpt lat="45.0400627" lon="8.0064226"><ele>259.25</ele><time>2026-04-18T16:58:07.963Z</time></trkpt><trkpt lat="45.0400994" lon="8.0062671"><ele>257.5</ele><time>2026-04-18T16:58:08.96Z</time></trkpt><trkpt lat="45.0401095" lon="8.006108"><ele>255.75</ele><time>2026-04-18T16:58:09.957Z</time></trkpt><trkpt lat="45.0400931" lon="8.0059528"><ele>254.0</ele><time>2026-04-18T16:58:10.967Z</time></trkpt><trkpt lat="45.0400522" lon="8.0058081"><ele>254.0</ele><time>2026-04-18T16:58:11.962Z</time></trkpt><trkpt lat="45.0399912" lon="8.0056723"><ele>254.0</ele><time>2026-04-18T16:58:12.972Z</time></trkpt><trkpt lat="45.0399255" lon="8.0055318"><ele>254.0</ele><time>2026-04-18T16:58:13.96Z</time></trkpt><trkpt lat="45.0398546" lon="8.0053882"><ele>254.0</ele><time>2026-04-18T16:58:14.963Z</time></trkpt><trkpt lat="45.0397793" lon="8.0052383"><ele>256.5</ele><time>2026-04-18T16:58:15.96Z</time></trkpt><trkpt lat="45.0397033" lon="8.0050766"><ele>259.0</ele><time>2026-04-18T16:58:16.962Z</time></trkpt><trkpt lat="45.0396336" lon="8.0049012"><ele>261.5</ele><time>2026-04-18T16:58:17.964Z</time></trkpt><trkpt lat="45.0395762" lon="8.0047066"><ele>264.0</ele><time>2026-04-18T16:58:18.955Z</time></trkpt><trkpt lat="45.0395289" lon="8.0045005"><ele>264.0</ele><time>2026-04-18T16:58:19.963Z</time></trkpt><trkpt lat="45.0394837" lon="8.0042898"><ele>264.0</ele><time>2026-04-18T16:58:20.961Z</time></trkpt><trkpt lat="45.0394352" lon="8.004077"><ele>264.0</ele><time>2026-04-18T16:58:21.964Z</time></trkpt><trkpt lat="45.0393901" lon="8.0038732"><ele>266.5</ele><time>2026-04-18T16:58:22.956Z</time></trkpt><trkpt lat="45.0393524" lon="8.0036776"><ele>269.0</ele><time>2026-04-18T16:58:23.955Z</time></trkpt><trkpt lat="45.039328" lon="8.0034854"><ele>271.5</ele><time>2026-04-18T16:58:24.962Z</time></trkpt><trkpt lat="45.0393155" lon="8.0032914"><ele>274.0</ele><time>2026-04-18T16:58:25.958Z</time></trkpt><trkpt lat="45.0393098" lon="8.0031002"><ele>276.0</ele><time>2026-04-18T16:58:26.962Z</time></trkpt><trkpt lat="45.0393033" lon="8.0029098"><ele>278.0</ele><time>2026-04-18T16:58:27.968Z</time></trkpt><trkpt lat="45.0392965" lon="8.0027194"><ele>280.0</ele><time>2026-04-18T16:58:28.964Z</time></trkpt><trkpt lat="45.0392887" lon="8.0025291"><ele>282.0</ele><time>2026-04-18T16:58:29.962Z</time></trkpt><trkpt lat="45.0392627" lon="8.0011294"><ele>276.25</ele><time>2026-04-18T16:58:36.963Z</time></trkpt><trkpt lat="45.0392495" lon="8.0009215"><ele>270.5</ele><time>2026-04-18T16:58:37.965Z</time></trkpt><trkpt lat="45.0392251" lon="8.0007138"><ele>264.75</ele><time>2026-04-18T16:58:38.955Z</time></trkpt><trkpt lat="45.0391847" lon="8.0005066"><ele>259.0</ele><time>2026-04-18T16:58:39.962Z</time></trkpt><trkpt lat="45.0391442" lon="8.0002979"><ele>265.0</ele><time>2026-04-18T16:58:40.96Z</time></trkpt><trkpt lat="45.039099" lon="8.0000858"><ele>271.0</ele><time>2026-04-18T16:58:41.958Z</time></trkpt><trkpt lat="45.0390499" lon="7.9998616"><ele>277.0</ele><time>2026-04-18T16:58:42.962Z</time></trkpt><trkpt lat="45.0390023" lon="7.9996338"><ele>277.0</ele><time>2026-04-18T16:58:43.963Z</time></trkpt><trkpt lat="45.0389534" lon="7.9994074"><ele>277.0</ele><time>2026-04-18T16:58:44.959Z</time></trkpt><trkpt lat="45.0389056" lon="7.9991813"><ele>277.0</ele><time>2026-04-18T16:58:45.962Z</time></trkpt><trkpt lat="45.0388558" lon="7.9989539"><ele>272.3333333333333</ele><time>2026-04-18T16:58:46.975Z</time></trkpt><trkpt lat="45.038806" lon="7.9987251"><ele>267.6666666666667</ele><time>2026-04-18T16:58:47.974Z</time></trkpt><trkpt lat="45.0387571" lon="7.9984981"><ele>263.0</ele><time>2026-04-18T16:58:48.97Z</time></trkpt><trkpt lat="45.0387112" lon="7.9982747"><ele>258.6666666666667</ele><time>2026-04-18T16:58:49.962Z</time></trkpt><trkpt lat="45.038663" lon="7.9980557"><ele>254.33333333333331</ele><time>2026-04-18T16:58:50.961Z</time></trkpt><trkpt lat="45.0386135" lon="7.9978361"><ele>250.0</ele><time>2026-04-18T16:58:51.958Z</time></trkpt><trkpt lat="45.0385637" lon="7.9976054"><ele>247.66666666666666</ele><time>2026-04-18T16:58:52.975Z</time></trkpt><trkpt lat="45.0385109" lon="7.9973688"><ele>245.33333333333331</ele><time>2026-04-18T16:58:53.964Z</time></trkpt><trkpt lat="45.0384582" lon="7.9971254"><ele>243.0</ele><time>2026-04-18T16:58:54.96Z</time></trkpt><trkpt lat="45.0384039" lon="7.996877"><ele>243.33333333333331</ele><time>2026-04-18T16:58:55.958Z</time></trkpt><trkpt lat="45.0383491" lon="7.9966214"><ele>243.66666666666666</ele><time>2026-04-18T16:58:56.958Z</time></trkpt><trkpt lat="45.0382967" lon="7.9963644"><ele>244.0</ele><time>2026-04-18T16:58:57.958Z</time></trkpt><trkpt lat="45.0382412" lon="7.9961035"><ele>244.0</ele><time>2026-04-18T16:58:58.963Z</time></trkpt><trkpt lat="45.0381865" lon="7.9958456"><ele>244.0</ele><time>2026-04-18T16:58:59.962Z</time></trkpt><trkpt lat="45.0381331" lon="7.9955942"><ele>244.0</ele><time>2026-04-18T16:59:00.973Z</time></trkpt><trkpt lat="45.0380809" lon="7.9953504"><ele>243.66666666666666</ele><time>2026-04-18T16:59:01.962Z</time></trkpt><trkpt lat="45.0380291" lon="7.995108"><ele>243.33333333333331</ele><time>2026-04-18T16:59:02.967Z</time></trkpt><trkpt lat="45.0379791" lon="7.9948725"><ele>243.0</ele><time>2026-04-18T16:59:03.962Z</time></trkpt><trkpt lat="45.0379272" lon="7.9946399"><ele>243.0</ele><time>2026-04-18T16:59:04.963Z</time></trkpt><trkpt lat="45.0378759" lon="7.9944086"><ele>243.0</ele><time>2026-04-18T16:59:05.965Z</time></trkpt><trkpt lat="45.0378257" lon="7.9941767"><ele>243.0</ele><time>2026-04-18T16:59:06.96Z</time></trkpt><trkpt lat="45.0377776" lon="7.9939453"><ele>243.66666666666669</ele><time>2026-04-18T16:59:07.968Z</time></trkpt><trkpt lat="45.0377282" lon="7.9937099"><ele>244.33333333333334</ele><time>2026-04-18T16:59:08.966Z</time></trkpt><trkpt lat="45.0376786" lon="7.9934711"><ele>245.0</ele><time>2026-04-18T16:59:09.963Z</time></trkpt><trkpt lat="45.0376278" lon="7.9932315"><ele>245.33333333333334</ele><time>2026-04-18T16:59:10.961Z</time></trkpt><trkpt lat="45.037576" lon="7.9929933"><ele>245.66666666666669</ele><time>2026-04-18T16:59:11.966Z</time></trkpt><trkpt lat="45.0375251" lon="7.9927596"><ele>246.0</ele><time>2026-04-18T16:59:12.965Z</time></trkpt><trkpt lat="45.0374743" lon="7.9925217"><ele>247.0</ele><time>2026-04-18T16:59:13.961Z</time></trkpt><trkpt lat="45.0374206" lon="7.9922757"><ele>248.0</ele><time>2026-04-18T16:59:14.957Z</time></trkpt><trkpt lat="45.037365" lon="7.9920257"><ele>249.0</ele><time>2026-04-18T16:59:15.955Z</time></trkpt><trkpt lat="45.037312" lon="7.9917796"><ele>251.33333333333331</ele><time>2026-04-18T16:59:16.973Z</time></trkpt><trkpt lat="45.0372613" lon="7.9915414"><ele>253.66666666666666</ele><time>2026-04-18T16:59:17.957Z</time></trkpt><trkpt lat="45.0372157" lon="7.9913217"><ele>256.0</ele><time>2026-04-18T16:59:18.966Z</time></trkpt><trkpt lat="45.0371858" lon="7.9911269"><ele>256.0</ele><time>2026-04-18T16:59:19.954Z</time></trkpt><trkpt lat="45.0371745" lon="7.9909509"><ele>256.0</ele><time>2026-04-18T16:59:20.965Z</time></trkpt><trkpt lat="45.0371866" lon="7.9907883"><ele>256.0</ele><time>2026-04-18T16:59:21.963Z</time></trkpt><trkpt lat="45.0372228" lon="7.990633"><ele>256.0</ele><time>2026-04-18T16:59:22.969Z</time></trkpt><trkpt lat="45.0372782" lon="7.9904765"><ele>256.0</ele><time>2026-04-18T16:59:23.967Z</time></trkpt><trkpt lat="45.0373438" lon="7.9903165"><ele>256.0</ele><time>2026-04-18T16:59:24.972Z</time></trkpt><trkpt lat="45.0374172" lon="7.9901479"><ele>256.0</ele><time>2026-04-18T16:59:25.965Z</time></trkpt><trkpt lat="45.0374918" lon="7.9899673"><ele>256.0</ele><time>2026-04-18T16:59:26.963Z</time></trkpt><trkpt lat="45.037571" lon="7.9897756"><ele>256.0</ele><time>2026-04-18T16:59:27.96Z</time></trkpt><trkpt lat="45.0376541" lon="7.9895742"><ele>256.0</ele><time>2026-04-18T16:59:28.961Z</time></trkpt><trkpt lat="45.0377432" lon="7.9893633"><ele>256.0</ele><time>2026-04-18T16:59:29.97Z</time></trkpt><trkpt lat="45.0378485" lon="7.9891491"><ele>253.33333333333331</ele><time>2026-04-18T16:59:30.966Z</time></trkpt><trkpt lat="45.037965" lon="7.9889415"><ele>250.66666666666669</ele><time>2026-04-18T16:59:31.959Z</time></trkpt><trkpt lat="45.0380972" lon="7.9887538"><ele>248.0</ele><time>2026-04-18T16:59:32.961Z</time></trkpt><trkpt lat="45.0382447" lon="7.9885886"><ele>250.0</ele><time>2026-04-18T16:59:33.955Z</time></trkpt><trkpt lat="45.0384031" lon="7.9884452"><ele>252.0</ele><time>2026-04-18T16:59:34.965Z</time></trkpt><trkpt lat="45.0385737" lon="7.9883296"><ele>254.0</ele><time>2026-04-18T16:59:35.966Z</time></trkpt><trkpt lat="45.0387531" lon="7.9882395"><ele>254.0</ele><time>2026-04-18T16:59:36.96Z</time></trkpt><trkpt lat="45.0389415" lon="7.9881658"><ele>254.0</ele><time>2026-04-18T16:59:37.964Z</time></trkpt><trkpt lat="45.0391299" lon="7.9880829"><ele>254.0</ele><time>2026-04-18T16:59:38.962Z</time></trkpt><trkpt lat="45.0393193" lon="7.9879612"><ele>254.0</ele><time>2026-04-18T16:59:39.962Z</time></trkpt><trkpt lat="45.0395044" lon="7.9878196"><ele>254.0</ele><time>2026-04-18T16:59:40.961Z</time></trkpt><trkpt lat="45.0396814" lon="7.9876648"><ele>254.0</ele><time>2026-04-18T16:59:41.961Z</time></trkpt><trkpt lat="45.0398481" lon="7.9875065"><ele>258.0</ele><time>2026-04-18T16:59:42.96Z</time></trkpt><trkpt lat="45.0400019" lon="7.9873395"><ele>262.0</ele><time>2026-04-18T16:59:43.959Z</time></trkpt><trkpt lat="45.0401408" lon="7.9871522"><ele>266.0</ele><time>2026-04-18T16:59:44.961Z</time></trkpt><trkpt lat="45.0402663" lon="7.9869384"><ele>266.0</ele><time>2026-04-18T16:59:45.975Z</time></trkpt><trkpt lat="45.0403828" lon="7.9867066"><ele>266.0</ele><time>2026-04-18T16:59:46.967Z</time></trkpt><trkpt lat="45.0404959" lon="7.9864643"><ele>266.0</ele><time>2026-04-18T16:59:47.958Z</time></trkpt><trkpt lat="45.0406116" lon="7.9862204"><ele>265.6666666666667</ele><time>2026-04-18T16:59:48.96Z</time></trkpt><trkpt lat="45.0407258" lon="7.9859703"><ele>265.3333333333333</ele><time>2026-04-18T16:59:49.966Z</time></trkpt><trkpt lat="45.0408395" lon="7.9857214"><ele>265.0</ele><time>2026-04-18T16:59:50.962Z</time></trkpt><trkpt lat="45.0409488" lon="7.9854797"><ele>265.0</ele><time>2026-04-18T16:59:51.974Z</time></trkpt><trkpt lat="45.041056" lon="7.9852469"><ele>265.0</ele><time>2026-04-18T16:59:52.956Z</time></trkpt><trkpt lat="45.0411614" lon="7.9850216"><ele>265.0</ele><time>2026-04-18T16:59:53.96Z</time></trkpt><trkpt lat="45.0412663" lon="7.9848017"><ele>266.3333333333333</ele><time>2026-04-18T16:59:54.963Z</time></trkpt><trkpt lat="45.0413713" lon="7.9845958"><ele>267.6666666666667</ele><time>2026-04-18T16:59:55.961Z</time></trkpt><trkpt lat="45.041476" lon="7.9844045"><ele>269.0</ele><time>2026-04-18T16:59:56.961Z</time></trkpt><trkpt lat="45.0415862" lon="7.9842213"><ele>269.0</ele><time>2026-04-18T16:59:57.963Z</time></trkpt><trkpt lat="45.0416944" lon="7.9840429"><ele>269.0</ele><time>2026-04-18T16:59:58.962Z</time></trkpt><trkpt lat="45.0418004" lon="7.9838613"><ele>269.0</ele><time>2026-04-18T16:59:59.961Z</time></trkpt><trkpt lat="45.0418975" lon="7.9836816"><ele>269.0</ele><time>2026-04-18T17:00:00.953Z</time></trkpt><trkpt lat="45.0419823" lon="7.9834968"><ele>269.0</ele><time>2026-04-18T17:00:01.952Z</time></trkpt><trkpt lat="45.0420505" lon="7.9833022"><ele>269.0</ele><time>2026-04-18T17:00:02.957Z</time></trkpt><trkpt lat="45.0420969" lon="7.9831003"><ele>269.5</ele><time>2026-04-18T17:00:03.956Z</time></trkpt><trkpt lat="45.0421166" lon="7.9828975"><ele>270.0</ele><time>2026-04-18T17:00:04.955Z</time></trkpt><trkpt lat="45.042109" lon="7.9826952"><ele>270.5</ele><time>2026-04-18T17:00:05.964Z</time></trkpt><trkpt lat="45.0420775" lon="7.9824961"><ele>271.0</ele><time>2026-04-18T17:00:06.962Z</time></trkpt><trkpt lat="45.0420244" lon="7.9823006"><ele>275.66666666666663</ele><time>2026-04-18T17:00:07.962Z</time></trkpt><trkpt lat="45.0419585" lon="7.9821092"><ele>280.3333333333333</ele><time>2026-04-18T17:00:08.96Z</time></trkpt><trkpt lat="45.0418896" lon="7.9819184"><ele>285.0</ele><time>2026-04-18T17:00:09.96Z</time></trkpt><trkpt lat="45.0418241" lon="7.981728"><ele>285.0</ele><time>2026-04-18T17:00:10.954Z</time></trkpt><trkpt lat="45.0417541" lon="7.9815368"><ele>285.0</ele><time>2026-04-18T17:00:11.957Z</time></trkpt><trkpt lat="45.0416859" lon="7.9813455"><ele>285.0</ele><time>2026-04-18T17:00:12.957Z</time></trkpt><trkpt lat="45.0414997" lon="7.9807113"><ele>285.0</ele><time>2026-04-18T17:00:16.962Z</time></trkpt><trkpt lat="45.0414733" lon="7.9805318"><ele>285.0</ele><time>2026-04-18T17:00:17.959Z</time></trkpt><trkpt lat="45.0414503" lon="7.9803503"><ele>285.0</ele><time>2026-04-18T17:00:18.964Z</time></trkpt><trkpt lat="45.0414297" lon="7.980174"><ele>285.0</ele><time>2026-04-18T17:00:19.975Z</time></trkpt><trkpt lat="45.0414083" lon="7.9799955"><ele>281.75</ele><time>2026-04-18T17:00:20.959Z</time></trkpt><trkpt lat="45.0413848" lon="7.9798207"><ele>278.5</ele><time>2026-04-18T17:00:21.968Z</time></trkpt><trkpt lat="45.0413644" lon="7.9796474"><ele>275.25</ele><time>2026-04-18T17:00:22.962Z</time></trkpt><trkpt lat="45.0413437" lon="7.9794762"><ele>272.0</ele><time>2026-04-18T17:00:23.954Z</time></trkpt><trkpt lat="45.0413264" lon="7.9793101"><ele>270.1666666666667</ele><time>2026-04-18T17:00:24.96Z</time></trkpt><trkpt lat="45.0413141" lon="7.9791642"><ele>268.33333333333337</ele><time>2026-04-18T17:00:25.958Z</time></trkpt><trkpt lat="45.0413128" lon="7.9790537"><ele>266.5</ele><time>2026-04-18T17:00:26.956Z</time></trkpt><trkpt lat="45.0413261" lon="7.9789489"><ele>264.6666666666667</ele><time>2026-04-18T17:00:27.965Z</time></trkpt><trkpt lat="45.041354" lon="7.9788495"><ele>262.8333333333333</ele><time>2026-04-18T17:00:28.962Z</time></trkpt><trkpt lat="45.0413835" lon="7.978749"><ele>261.0</ele><time>2026-04-18T17:00:29.957Z</time></trkpt><trkpt lat="45.0413999" lon="7.9786443"><ele>261.0</ele><time>2026-04-18T17:00:30.968Z</time></trkpt><trkpt lat="45.0413949" lon="7.9785388"><ele>261.0</ele><time>2026-04-18T17:00:31.958Z</time></trkpt><trkpt lat="45.0413692" lon="7.9784361"><ele>261.0</ele><time>2026-04-18T17:00:32.96Z</time></trkpt><trkpt lat="45.0413213" lon="7.9783397"><ele>261.0</ele><time>2026-04-18T17:00:33.956Z</time></trkpt><trkpt lat="45.0412646" lon="7.9782482"><ele>261.0</ele><time>2026-04-18T17:00:34.96Z</time></trkpt><trkpt lat="45.0412247" lon="7.9781643"><ele>261.0</ele><time>2026-04-18T17:00:35.963Z</time></trkpt><trkpt lat="45.0411954" lon="7.9780747"><ele>260.6</ele><time>2026-04-18T17:00:36.964Z</time></trkpt><trkpt lat="45.0411756" lon="7.977971"><ele>260.20000000000005</ele><time>2026-04-18T17:00:37.957Z</time></trkpt><trkpt lat="45.0411572" lon="7.9778461"><ele>259.79999999999995</ele><time>2026-04-18T17:00:38.958Z</time></trkpt><trkpt lat="45.0411345" lon="7.9776971"><ele>259.4</ele><time>2026-04-18T17:00:39.956Z</time></trkpt><trkpt lat="45.0411139" lon="7.9775269"><ele>259.0</ele><time>2026-04-18T17:00:40.956Z</time></trkpt><trkpt lat="45.0410921" lon="7.9773446"><ele>259.0</ele><time>2026-04-18T17:00:41.951Z</time></trkpt><trkpt lat="45.0410691" lon="7.9771579"><ele>259.0</ele><time>2026-04-18T17:00:42.963Z</time></trkpt><trkpt lat="45.0410471" lon="7.9769678"><ele>259.0</ele><time>2026-04-18T17:00:43.955Z</time></trkpt><trkpt lat="45.0410256" lon="7.9767742"><ele>259.0</ele><time>2026-04-18T17:00:44.954Z</time></trkpt><trkpt lat="45.0410018" lon="7.9765742"><ele>263.75</ele><time>2026-04-18T17:00:45.958Z</time></trkpt><trkpt lat="45.0409775" lon="7.9763701"><ele>268.5</ele><time>2026-04-18T17:00:46.961Z</time></trkpt><trkpt lat="45.0409537" lon="7.9761715"><ele>273.25</ele><time>2026-04-18T17:00:47.96Z</time></trkpt><trkpt lat="45.0409302" lon="7.9759801"><ele>278.0</ele><time>2026-04-18T17:00:48.962Z</time></trkpt><trkpt lat="45.0409193" lon="7.9758143"><ele>280.6666666666667</ele><time>2026-04-18T17:00:49.955Z</time></trkpt><trkpt lat="45.0409038" lon="7.9756399"><ele>283.3333333333333</ele><time>2026-04-18T17:00:50.958Z</time></trkpt><trkpt lat="45.0408902" lon="7.9754691"><ele>286.0</ele><time>2026-04-18T17:00:51.958Z</time></trkpt><trkpt lat="45.040761" lon="7.9746097"><ele>286.0</ele><time>2026-04-18T17:00:55.964Z</time></trkpt><trkpt lat="45.0407439" lon="7.9744177"><ele>286.0</ele><time>2026-04-18T17:00:56.964Z</time></trkpt><trkpt lat="45.0407225" lon="7.9742087"><ele>286.0</ele><time>2026-04-18T17:00:57.957Z</time></trkpt><trkpt lat="45.040697" lon="7.9739946"><ele>286.0</ele><time>2026-04-18T17:00:58.954Z</time></trkpt><trkpt lat="45.0406722" lon="7.9737776"><ele>279.3333333333333</ele><time>2026-04-18T17:00:59.967Z</time></trkpt><trkpt lat="45.0406472" lon="7.9735575"><ele>272.6666666666667</ele><time>2026-04-18T17:01:00.957Z</time></trkpt><trkpt lat="45.0406204" lon="7.9733296"><ele>266.0</ele><time>2026-04-18T17:01:01.953Z</time></trkpt><trkpt lat="45.0405927" lon="7.9730969"><ele>263.0</ele><time>2026-04-18T17:01:02.954Z</time></trkpt><trkpt lat="45.0405642" lon="7.972869"><ele>260.0</ele><time>2026-04-18T17:01:03.962Z</time></trkpt><trkpt lat="45.0405366" lon="7.9726522"><ele>257.0</ele><time>2026-04-18T17:01:04.966Z</time></trkpt><trkpt lat="45.040507" lon="7.9724434"><ele>257.0</ele><time>2026-04-18T17:01:05.962Z</time></trkpt><trkpt lat="45.0404777" lon="7.9722369"><ele>257.0</ele><time>2026-04-18T17:01:06.966Z</time></trkpt><trkpt lat="45.0404471" lon="7.9720232"><ele>257.0</ele><time>2026-04-18T17:01:07.96Z</time></trkpt><trkpt lat="45.0404234" lon="7.971806"><ele>261.33333333333337</ele><time>2026-04-18T17:01:08.957Z</time></trkpt><trkpt lat="45.0404044" lon="7.9715828"><ele>265.6666666666667</ele><time>2026-04-18T17:01:09.954Z</time></trkpt><trkpt lat="45.0403767" lon="7.9713587"><ele>270.0</ele><time>2026-04-18T17:01:10.962Z</time></trkpt><trkpt lat="45.0403445" lon="7.9711359"><ele>270.0</ele><time>2026-04-18T17:01:11.958Z</time></trkpt><trkpt lat="45.0403088" lon="7.9709112"><ele>270.0</ele><time>2026-04-18T17:01:12.964Z</time></trkpt><trkpt lat="45.0402699" lon="7.9706891"><ele>270.0</ele><time>2026-04-18T17:01:13.955Z</time></trkpt><trkpt lat="45.0402309" lon="7.9704676"><ele>267.3333333333333</ele><time>2026-04-18T17:01:14.974Z</time></trkpt><trkpt lat="45.0401901" lon="7.9702491"><ele>264.66666666666663</ele><time>2026-04-18T17:01:15.953Z</time></trkpt><trkpt lat="45.0401493" lon="7.9700358"><ele>262.0</ele><time>2026-04-18T17:01:16.955Z</time></trkpt><trkpt lat="45.0401101" lon="7.9698234"><ele>258.5</ele><time>2026-04-18T17:01:17.958Z</time></trkpt><trkpt lat="45.0400728" lon="7.9696158"><ele>255.0</ele><time>2026-04-18T17:01:18.961Z</time></trkpt><trkpt lat="45.0400341" lon="7.969411"><ele>251.5</ele><time>2026-04-18T17:01:19.957Z</time></trkpt><trkpt lat="45.0399972" lon="7.9692129"><ele>248.0</ele><time>2026-04-18T17:01:20.958Z</time></trkpt><trkpt lat="45.0399604" lon="7.9690161"><ele>247.25</ele><time>2026-04-18T17:01:21.956Z</time></trkpt><trkpt lat="45.0399258" lon="7.9688281"><ele>246.5</ele><time>2026-04-18T17:01:22.957Z</time></trkpt><trkpt lat="45.0398907" lon="7.9686368"><ele>245.75</ele><time>2026-04-18T17:01:23.956Z</time></trkpt><trkpt lat="45.0398534" lon="7.9684468"><ele>245.0</ele><time>2026-04-18T17:01:24.963Z</time></trkpt><trkpt lat="45.039817" lon="7.9682524"><ele>244.0</ele><time>2026-04-18T17:01:25.961Z</time></trkpt><trkpt lat="45.0397793" lon="7.9680536"><ele>243.0</ele><time>2026-04-18T17:01:26.958Z</time></trkpt><trkpt lat="45.0397414" lon="7.9678527"><ele>242.0</ele><time>2026-04-18T17:01:27.962Z</time></trkpt><trkpt lat="45.0397037" lon="7.9676497"><ele>241.0</ele><time>2026-04-18T17:01:28.959Z</time></trkpt><trkpt lat="45.0396661" lon="7.9674479"><ele>240.5</ele><time>2026-04-18T17:01:29.963Z</time></trkpt><trkpt lat="45.0396272" lon="7.9672507"><ele>240.0</ele><time>2026-04-18T17:01:30.959Z</time></trkpt><trkpt lat="45.0395919" lon="7.9670626"><ele>239.5</ele><time>2026-04-18T17:01:31.95Z</time></trkpt><trkpt lat="45.0395696" lon="7.9668991"><ele>239.0</ele><time>2026-04-18T17:01:32.959Z</time></trkpt><trkpt lat="45.0395623" lon="7.9667562"><ele>238.83333333333334</ele><time>2026-04-18T17:01:33.961Z</time></trkpt><trkpt lat="45.0395764" lon="7.9666317"><ele>238.66666666666669</ele><time>2026-04-18T17:01:34.959Z</time></trkpt><trkpt lat="45.0396089" lon="7.9665214"><ele>238.5</ele><time>2026-04-18T17:01:35.962Z</time></trkpt><trkpt lat="45.039653" lon="7.9664296"><ele>238.33333333333331</ele><time>2026-04-18T17:01:36.958Z</time></trkpt><trkpt lat="45.0397039" lon="7.9663451"><ele>238.16666666666666</ele><time>2026-04-18T17:01:37.96Z</time></trkpt><trkpt lat="45.0397526" lon="7.9662696"><ele>238.0</ele><time>2026-04-18T17:01:38.96Z</time></trkpt><trkpt lat="45.0398195" lon="7.966163"><ele>237.99999999999997</ele><time>2026-04-18T17:01:40.962Z</time></trkpt><trkpt lat="45.0398421" lon="7.966042"><ele>238.0</ele><time>2026-04-18T17:01:42.963Z</time></trkpt><trkpt lat="45.0398111" lon="7.9659438"><ele>238.0</ele><time>2026-04-18T17:01:44.958Z</time></trkpt><trkpt lat="45.0397376" lon="7.9659492"><ele>238.0</ele><time>2026-04-18T17:01:46.963Z</time></trkpt><trkpt lat="45.0396946" lon="7.9660362"><ele>237.99999999999997</ele><time>2026-04-18T17:01:48.964Z</time></trkpt><trkpt lat="45.0397491" lon="7.966125"><ele>238.0</ele><time>2026-04-18T17:01:51.964Z</time></trkpt><trkpt lat="45.039853" lon="7.9660493"><ele>238.0</ele><time>2026-04-18T17:01:57.954Z</time></trkpt><trkpt lat="45.0399378" lon="7.9659241"><ele>238.0</ele><time>2026-04-18T17:01:59.966Z</time></trkpt><trkpt lat="45.0399992" lon="7.9657754"><ele>238.0</ele><time>2026-04-18T17:02:01.954Z</time></trkpt><trkpt lat="45.0400204" lon="7.9656483"><ele>238.0</ele><time>2026-04-18T17:02:03.962Z</time></trkpt><trkpt lat="45.0399826" lon="7.9655365"><ele>238.0</ele><time>2026-04-18T17:02:05.964Z</time></trkpt><trkpt lat="45.039888" lon="7.9653938"><ele>238.0</ele><time>2026-04-18T17:02:07.968Z</time></trkpt><trkpt lat="45.0398219" lon="7.9653053"><ele>238.0</ele><time>2026-04-18T17:02:08.958Z</time></trkpt><trkpt lat="45.0397452" lon="7.9652062"><ele>238.0</ele><time>2026-04-18T17:02:09.971Z</time></trkpt><trkpt lat="45.0396689" lon="7.9651005"><ele>238.0</ele><time>2026-04-18T17:02:10.96Z</time></trkpt><trkpt lat="45.0395858" lon="7.96499"><ele>238.0</ele><time>2026-04-18T17:02:11.962Z</time></trkpt><trkpt lat="45.0394941" lon="7.96488"><ele>237.75</ele><time>2026-04-18T17:02:12.962Z</time></trkpt><trkpt lat="45.0393971" lon="7.9647758"><ele>237.5</ele><time>2026-04-18T17:02:13.961Z</time></trkpt><trkpt lat="45.0392965" lon="7.964674"><ele>237.25</ele><time>2026-04-18T17:02:14.96Z</time></trkpt><trkpt lat="45.0391921" lon="7.9645673"><ele>237.0</ele><time>2026-04-18T17:02:15.961Z</time></trkpt><trkpt lat="45.039084" lon="7.964461"><ele>236.75</ele><time>2026-04-18T17:02:16.957Z</time></trkpt><trkpt lat="45.0389796" lon="7.9643548"><ele>236.5</ele><time>2026-04-18T17:02:17.959Z</time></trkpt><trkpt lat="45.0388891" lon="7.9642327"><ele>236.25</ele><time>2026-04-18T17:02:18.959Z</time></trkpt><trkpt lat="45.0388207" lon="7.9640874"><ele>236.0</ele><time>2026-04-18T17:02:19.964Z</time></trkpt><trkpt lat="45.0387749" lon="7.9639143"><ele>236.0</ele><time>2026-04-18T17:02:20.958Z</time></trkpt><trkpt lat="45.0387491" lon="7.9637219"><ele>236.0</ele><time>2026-04-18T17:02:21.96Z</time></trkpt><trkpt lat="45.0387319" lon="7.9635123"><ele>236.0</ele><time>2026-04-18T17:02:22.964Z</time></trkpt><trkpt lat="45.0387185" lon="7.9632914"><ele>236.0</ele><time>2026-04-18T17:02:23.962Z</time></trkpt><trkpt lat="45.0387067" lon="7.9630555"><ele>236.0</ele><time>2026-04-18T17:02:24.96Z</time></trkpt><trkpt lat="45.0386972" lon="7.962808"><ele>236.0</ele><time>2026-04-18T17:02:25.958Z</time></trkpt><trkpt lat="45.0386876" lon="7.9625569"><ele>236.0</ele><time>2026-04-18T17:02:26.959Z</time></trkpt><trkpt lat="45.0386758" lon="7.9623093"><ele>236.33333333333334</ele><time>2026-04-18T17:02:27.966Z</time></trkpt><trkpt lat="45.0386648" lon="7.9620662"><ele>236.66666666666669</ele><time>2026-04-18T17:02:28.967Z</time></trkpt><trkpt lat="45.0386543" lon="7.9618271"><ele>237.0</ele><time>2026-04-18T17:02:29.957Z</time></trkpt><trkpt lat="45.0386452" lon="7.9615853"><ele>237.33333333333331</ele><time>2026-04-18T17:02:30.967Z</time></trkpt><trkpt lat="45.0386399" lon="7.9613432"><ele>237.66666666666666</ele><time>2026-04-18T17:02:31.971Z</time></trkpt><trkpt lat="45.0386446" lon="7.9611042"><ele>238.0</ele><time>2026-04-18T17:02:32.963Z</time></trkpt><trkpt lat="45.0386624" lon="7.9608674"><ele>239.33333333333331</ele><time>2026-04-18T17:02:33.963Z</time></trkpt><trkpt lat="45.0386953" lon="7.9606321"><ele>240.66666666666669</ele><time>2026-04-18T17:02:34.962Z</time></trkpt><trkpt lat="45.0387478" lon="7.960406"><ele>242.0</ele><time>2026-04-18T17:02:35.963Z</time></trkpt><trkpt lat="45.0388195" lon="7.9601911"><ele>244.33333333333334</ele><time>2026-04-18T17:02:36.959Z</time></trkpt><trkpt lat="45.0389083" lon="7.9599942"><ele>246.66666666666669</ele><time>2026-04-18T17:02:37.974Z</time></trkpt><trkpt lat="45.0390105" lon="7.9598229"><ele>249.0</ele><time>2026-04-18T17:02:38.966Z</time></trkpt><trkpt lat="45.039118" lon="7.9596724"><ele>249.0</ele><time>2026-04-18T17:02:39.954Z</time></trkpt><trkpt lat="45.0392264" lon="7.9595291"><ele>249.0</ele><time>2026-04-18T17:02:40.965Z</time></trkpt><trkpt lat="45.039336" lon="7.9593943"><ele>249.0</ele><time>2026-04-18T17:02:41.96Z</time></trkpt><trkpt lat="45.0394458" lon="7.9592658"><ele>249.0</ele><time>2026-04-18T17:02:42.973Z</time></trkpt><trkpt lat="45.0395553" lon="7.9591397"><ele>250.75</ele><time>2026-04-18T17:02:43.96Z</time></trkpt><trkpt lat="45.039659" lon="7.9590202"><ele>252.5</ele><time>2026-04-18T17:02:44.969Z</time></trkpt><trkpt lat="45.0397603" lon="7.9589075"><ele>254.25</ele><time>2026-04-18T17:02:45.966Z</time></trkpt><trkpt lat="45.0398587" lon="7.9588041"><ele>256.0</ele><time>2026-04-18T17:02:46.959Z</time></trkpt><trkpt lat="45.039945" lon="7.9587157"><ele>254.60000000000002</ele><time>2026-04-18T17:02:47.953Z</time></trkpt><trkpt lat="45.0400125" lon="7.9586457"><ele>253.20000000000002</ele><time>2026-04-18T17:02:48.955Z</time></trkpt><trkpt lat="45.0400787" lon="7.9585587"><ele>251.79999999999998</ele><time>2026-04-18T17:02:50.955Z</time></trkpt><trkpt lat="45.0401076" lon="7.9584689"><ele>250.39999999999998</ele><time>2026-04-18T17:02:52.959Z</time></trkpt><trkpt lat="45.040094" lon="7.9582691"><ele>249.0</ele><time>2026-04-18T17:02:54.954Z</time></trkpt><trkpt lat="45.0400478" lon="7.9581073"><ele>249.0</ele><time>2026-04-18T17:02:55.96Z</time></trkpt><trkpt lat="45.0399767" lon="7.9578862"><ele>249.0</ele><time>2026-04-18T17:02:56.957Z</time></trkpt><trkpt lat="45.0399004" lon="7.9576292"><ele>249.0</ele><time>2026-04-18T17:02:57.955Z</time></trkpt><trkpt lat="45.0398117" lon="7.9573298"><ele>258.5</ele><time>2026-04-18T17:02:58.958Z</time></trkpt><trkpt lat="45.0397096" lon="7.9569875"><ele>268.0</ele><time>2026-04-18T17:02:59.963Z</time></trkpt><trkpt lat="45.0396096" lon="7.9566575"><ele>270.0</ele><time>2026-04-18T17:03:00.955Z</time></trkpt><trkpt lat="45.0395196" lon="7.9563522"><ele>272.0</ele><time>2026-04-18T17:03:01.957Z</time></trkpt><trkpt lat="45.0394361" lon="7.9560564"><ele>269.0</ele><time>2026-04-18T17:03:02.955Z</time></trkpt><trkpt lat="45.039358" lon="7.9557683"><ele>266.0</ele><time>2026-04-18T17:03:03.968Z</time></trkpt><trkpt lat="45.0392835" lon="7.9554856"><ele>263.0</ele><time>2026-04-18T17:03:04.969Z</time></trkpt><trkpt lat="45.0392103" lon="7.9552103"><ele>259.0</ele><time>2026-04-18T17:03:05.956Z</time></trkpt><trkpt lat="45.0391398" lon="7.9549457"><ele>255.0</ele><time>2026-04-18T17:03:06.967Z</time></trkpt><trkpt lat="45.0390705" lon="7.9546839"><ele>251.0</ele><time>2026-04-18T17:03:07.952Z</time></trkpt><trkpt lat="45.039002" lon="7.954417"><ele>248.33333333333334</ele><time>2026-04-18T17:03:08.968Z</time></trkpt><trkpt lat="45.0389332" lon="7.954144"><ele>245.66666666666669</ele><time>2026-04-18T17:03:09.963Z</time></trkpt><trkpt lat="45.0388658" lon="7.95387"><ele>243.0</ele><time>2026-04-18T17:03:10.956Z</time></trkpt><trkpt lat="45.0387985" lon="7.9536005"><ele>243.33333333333331</ele><time>2026-04-18T17:03:11.963Z</time></trkpt><trkpt lat="45.0387336" lon="7.9533358"><ele>243.66666666666666</ele><time>2026-04-18T17:03:12.966Z</time></trkpt><trkpt lat="45.0386712" lon="7.9530747"><ele>244.0</ele><time>2026-04-18T17:03:13.964Z</time></trkpt><trkpt lat="45.0386175" lon="7.9528189"><ele>244.0</ele><time>2026-04-18T17:03:14.96Z</time></trkpt><trkpt lat="45.0385938" lon="7.9525698"><ele>244.0</ele><time>2026-04-18T17:03:15.954Z</time></trkpt><trkpt lat="45.0386011" lon="7.9523134"><ele>244.0</ele><time>2026-04-18T17:03:16.965Z</time></trkpt><trkpt lat="45.0386441" lon="7.9520589"><ele>245.33333333333331</ele><time>2026-04-18T17:03:17.959Z</time></trkpt><trkpt lat="45.0387161" lon="7.9518051"><ele>246.66666666666669</ele><time>2026-04-18T17:03:18.953Z</time></trkpt><trkpt lat="45.0388059" lon="7.9515521"><ele>248.0</ele><time>2026-04-18T17:03:19.955Z</time></trkpt><trkpt lat="45.0389041" lon="7.9512987"><ele>250.0</ele><time>2026-04-18T17:03:20.963Z</time></trkpt><trkpt lat="45.039008" lon="7.951051"><ele>252.0</ele><time>2026-04-18T17:03:21.96Z</time></trkpt><trkpt lat="45.039114" lon="7.9508125"><ele>254.0</ele><time>2026-04-18T17:03:22.964Z</time></trkpt><trkpt lat="45.039209" lon="7.9505869"><ele>257.6666666666667</ele><time>2026-04-18T17:03:23.966Z</time></trkpt><trkpt lat="45.0392788" lon="7.9503615"><ele>261.3333333333333</ele><time>2026-04-18T17:03:24.956Z</time></trkpt><trkpt lat="45.0393135" lon="7.9501322"><ele>265.0</ele><time>2026-04-18T17:03:25.958Z</time></trkpt><trkpt lat="45.039314" lon="7.9498922"><ele>265.3333333333333</ele><time>2026-04-18T17:03:26.958Z</time></trkpt><trkpt lat="45.039285" lon="7.9496357"><ele>265.6666666666667</ele><time>2026-04-18T17:03:27.957Z</time></trkpt><trkpt lat="45.039244" lon="7.9493636"><ele>266.0</ele><time>2026-04-18T17:03:28.957Z</time></trkpt><trkpt lat="45.0392035" lon="7.9490816"><ele>267.0</ele><time>2026-04-18T17:03:29.953Z</time></trkpt><trkpt lat="45.0391665" lon="7.9488032"><ele>268.0</ele><time>2026-04-18T17:03:30.953Z</time></trkpt><trkpt lat="45.0391338" lon="7.9485468"><ele>269.0</ele><time>2026-04-18T17:03:31.956Z</time></trkpt><trkpt lat="45.0391285" lon="7.9483097"><ele>272.0</ele><time>2026-04-18T17:03:32.959Z</time></trkpt><trkpt lat="45.0391586" lon="7.9480787"><ele>275.0</ele><time>2026-04-18T17:03:33.959Z</time></trkpt><trkpt lat="45.0392196" lon="7.94785"><ele>278.0</ele><time>2026-04-18T17:03:34.957Z</time></trkpt><trkpt lat="45.0392639" lon="7.9476097"><ele>283.33333333333337</ele><time>2026-04-18T17:03:35.956Z</time></trkpt><trkpt lat="45.0392766" lon="7.9473581"><ele>288.6666666666667</ele><time>2026-04-18T17:03:36.956Z</time></trkpt><trkpt lat="45.0392906" lon="7.9471225"><ele>294.0</ele><time>2026-04-18T17:03:37.956Z</time></trkpt><trkpt lat="45.0393267" lon="7.9469091"><ele>294.0</ele><time>2026-04-18T17:03:38.963Z</time></trkpt><trkpt lat="45.0393884" lon="7.9467254"><ele>294.0</ele><time>2026-04-18T17:03:39.958Z</time></trkpt><trkpt lat="45.0394734" lon="7.9465925"><ele>294.0</ele><time>2026-04-18T17:03:40.963Z</time></trkpt><trkpt lat="45.0395831" lon="7.9465256"><ele>294.0</ele><time>2026-04-18T17:03:41.956Z</time></trkpt><trkpt lat="45.0397118" lon="7.9464997"><ele>293.0</ele><time>2026-04-18T17:03:42.958Z</time></trkpt><trkpt lat="45.0398365" lon="7.9464624"><ele>292.0</ele><time>2026-04-18T17:03:43.955Z</time></trkpt><trkpt lat="45.0399377" lon="7.946376"><ele>291.0</ele><time>2026-04-18T17:03:44.961Z</time></trkpt><trkpt lat="45.040009" lon="7.9462533"><ele>290.0</ele><time>2026-04-18T17:03:45.962Z</time></trkpt><trkpt lat="45.0400395" lon="7.9461069"><ele>290.0</ele><time>2026-04-18T17:03:46.964Z</time></trkpt><trkpt lat="45.040023" lon="7.9459445"><ele>290.0</ele><time>2026-04-18T17:03:47.96Z</time></trkpt><trkpt lat="45.0399774" lon="7.9457612"><ele>290.0</ele><time>2026-04-18T17:03:48.957Z</time></trkpt><trkpt lat="45.0399439" lon="7.94556"><ele>290.0</ele><time>2026-04-18T17:03:49.958Z</time></trkpt><trkpt lat="45.0399485" lon="7.9453346"><ele>298.0</ele><time>2026-04-18T17:03:50.96Z</time></trkpt><trkpt lat="45.0399611" lon="7.945112"><ele>306.0</ele><time>2026-04-18T17:03:51.955Z</time></trkpt><trkpt lat="45.0399586" lon="7.9449155"><ele>314.0</ele><time>2026-04-18T17:03:52.962Z</time></trkpt><trkpt lat="45.0399375" lon="7.9447408"><ele>322.0</ele><time>2026-04-18T17:03:53.96Z</time></trkpt><trkpt lat="45.0398827" lon="7.9445821"><ele>322.0</ele><time>2026-04-18T17:03:54.963Z</time></trkpt><trkpt lat="45.0397966" lon="7.9444619"><ele>322.0</ele><time>2026-04-18T17:03:55.96Z</time></trkpt><trkpt lat="45.0396906" lon="7.9443758"><ele>322.0</ele><time>2026-04-18T17:03:56.96Z</time></trkpt><trkpt lat="45.0395858" lon="7.9443018"><ele>322.0</ele><time>2026-04-18T17:03:57.961Z</time></trkpt><trkpt lat="45.0394897" lon="7.9442386"><ele>321.3333333333333</ele><time>2026-04-18T17:03:58.965Z</time></trkpt><trkpt lat="45.0394036" lon="7.944179"><ele>320.66666666666663</ele><time>2026-04-18T17:03:59.957Z</time></trkpt><trkpt lat="45.0393305" lon="7.9441111"><ele>320.0</ele><time>2026-04-18T17:04:00.957Z</time></trkpt><trkpt lat="45.0392751" lon="7.9440291"><ele>319.3333333333333</ele><time>2026-04-18T17:04:01.956Z</time></trkpt><trkpt lat="45.0392364" lon="7.9439397"><ele>318.6666666666667</ele><time>2026-04-18T17:04:02.962Z</time></trkpt><trkpt lat="45.039203" lon="7.9438353"><ele>318.0</ele><time>2026-04-18T17:04:03.958Z</time></trkpt><trkpt lat="45.0391711" lon="7.9437165"><ele>318.0</ele><time>2026-04-18T17:04:04.953Z</time></trkpt><trkpt lat="45.039143" lon="7.9435909"><ele>318.0</ele><time>2026-04-18T17:04:05.966Z</time></trkpt><trkpt lat="45.0391173" lon="7.9434622"><ele>318.0</ele><time>2026-04-18T17:04:06.967Z</time></trkpt><trkpt lat="45.0390968" lon="7.9433305"><ele>318.0</ele><time>2026-04-18T17:04:07.959Z</time></trkpt><trkpt lat="45.0390832" lon="7.9431974"><ele>318.0</ele><time>2026-04-18T17:04:08.961Z</time></trkpt><trkpt lat="45.0390817" lon="7.9430665"><ele>317.8</ele><time>2026-04-18T17:04:09.964Z</time></trkpt><trkpt lat="45.0390941" lon="7.9429392"><ele>317.6</ele><time>2026-04-18T17:04:10.957Z</time></trkpt><trkpt lat="45.0391157" lon="7.9428153"><ele>317.4</ele><time>2026-04-18T17:04:11.961Z</time></trkpt><trkpt lat="45.0391384" lon="7.9426818"><ele>317.2</ele><time>2026-04-18T17:04:12.959Z</time></trkpt><trkpt lat="45.0391552" lon="7.9425466"><ele>317.0</ele><time>2026-04-18T17:04:13.967Z</time></trkpt><trkpt lat="45.0391574" lon="7.9424117"><ele>317.0</ele><time>2026-04-18T17:04:14.954Z</time></trkpt><trkpt lat="45.0391346" lon="7.9422767"><ele>317.0</ele><time>2026-04-18T17:04:15.957Z</time></trkpt><trkpt lat="45.0390909" lon="7.9421423"><ele>317.0</ele><time>2026-04-18T17:04:16.957Z</time></trkpt><trkpt lat="45.0390407" lon="7.9419949"><ele>317.0</ele><time>2026-04-18T17:04:17.965Z</time></trkpt><trkpt lat="45.039004" lon="7.941824"><ele>317.0</ele><time>2026-04-18T17:04:18.957Z</time></trkpt><trkpt lat="45.0389899" lon="7.9416405"><ele>317.5</ele><time>2026-04-18T17:04:19.96Z</time></trkpt><trkpt lat="45.038997" lon="7.9414476"><ele>318.0</ele><time>2026-04-18T17:04:20.956Z</time></trkpt><trkpt lat="45.0390104" lon="7.9412489"><ele>318.5</ele><time>2026-04-18T17:04:21.964Z</time></trkpt><trkpt lat="45.0390236" lon="7.9410518"><ele>319.0</ele><time>2026-04-18T17:04:22.96Z</time></trkpt><trkpt lat="45.0390353" lon="7.9408535"><ele>319.0</ele><time>2026-04-18T17:04:23.959Z</time></trkpt><trkpt lat="45.0390469" lon="7.9406534"><ele>319.0</ele><time>2026-04-18T17:04:24.962Z</time></trkpt><trkpt lat="45.03906" lon="7.9404501"><ele>319.0</ele><time>2026-04-18T17:04:25.971Z</time></trkpt><trkpt lat="45.0390731" lon="7.9402475"><ele>319.0</ele><time>2026-04-18T17:04:26.957Z</time></trkpt><trkpt lat="45.0390862" lon="7.9400493"><ele>318.5</ele><time>2026-04-18T17:04:27.961Z</time></trkpt><trkpt lat="45.0390991" lon="7.9398579"><ele>318.0</ele><time>2026-04-18T17:04:28.963Z</time></trkpt><trkpt lat="45.0391115" lon="7.939673"><ele>317.5</ele><time>2026-04-18T17:04:29.961Z</time></trkpt><trkpt lat="45.0391238" lon="7.9394914"><ele>317.0</ele><time>2026-04-18T17:04:30.957Z</time></trkpt><trkpt lat="45.0391371" lon="7.9393069"><ele>316.0</ele><time>2026-04-18T17:04:31.956Z</time></trkpt><trkpt lat="45.0391496" lon="7.9391217"><ele>315.0</ele><time>2026-04-18T17:04:32.964Z</time></trkpt><trkpt lat="45.0391607" lon="7.9389467"><ele>314.0</ele><time>2026-04-18T17:04:33.957Z</time></trkpt><trkpt lat="45.0391715" lon="7.9387879"><ele>313.0</ele><time>2026-04-18T17:04:34.957Z</time></trkpt><trkpt lat="45.0391799" lon="7.9386481"><ele>313.0</ele><time>2026-04-18T17:04:35.954Z</time></trkpt><trkpt lat="45.0391848" lon="7.9385323"><ele>313.0</ele><time>2026-04-18T17:04:36.958Z</time></trkpt><trkpt lat="45.0391918" lon="7.9384427"><ele>313.0</ele><time>2026-04-18T17:04:37.958Z</time></trkpt><trkpt lat="45.0392037" lon="7.9382646"><ele>313.0</ele><time>2026-04-18T17:04:39.969Z</time></trkpt><trkpt lat="45.0392097" lon="7.9381647"><ele>313.0</ele><time>2026-04-18T17:04:40.959Z</time></trkpt><trkpt lat="45.0392187" lon="7.9380495"><ele>313.0</ele><time>2026-04-18T17:04:41.959Z</time></trkpt><trkpt lat="45.0392257" lon="7.9379158"><ele>312.75</ele><time>2026-04-18T17:04:42.957Z</time></trkpt><trkpt lat="45.0392301" lon="7.9377629"><ele>312.5</ele><time>2026-04-18T17:04:43.955Z</time></trkpt><trkpt lat="45.0392331" lon="7.937586"><ele>312.25</ele><time>2026-04-18T17:04:44.963Z</time></trkpt><trkpt lat="45.0392394" lon="7.9373727"><ele>312.0</ele><time>2026-04-18T17:04:45.957Z</time></trkpt><trkpt lat="45.0392537" lon="7.9371333"><ele>311.6666666666667</ele><time>2026-04-18T17:04:46.958Z</time></trkpt><trkpt lat="45.0392809" lon="7.9368733"><ele>311.33333333333337</ele><time>2026-04-18T17:04:47.959Z</time></trkpt><trkpt lat="45.0393083" lon="7.9365921"><ele>311.0</ele><time>2026-04-18T17:04:48.957Z</time></trkpt><trkpt lat="45.0393316" lon="7.9362992"><ele>311.0</ele><time>2026-04-18T17:04:49.964Z</time></trkpt><trkpt lat="45.0393519" lon="7.9360063"><ele>311.0</ele><time>2026-04-18T17:04:50.958Z</time></trkpt><trkpt lat="45.0393715" lon="7.9357038"><ele>311.0</ele><time>2026-04-18T17:04:51.955Z</time></trkpt><trkpt lat="45.0393907" lon="7.9353983"><ele>310.0</ele><time>2026-04-18T17:04:52.957Z</time></trkpt><trkpt lat="45.0394102" lon="7.9350934"><ele>309.0</ele><time>2026-04-18T17:04:53.963Z</time></trkpt><trkpt lat="45.0394308" lon="7.9347883"><ele>308.0</ele><time>2026-04-18T17:04:54.957Z</time></trkpt><trkpt lat="45.0394511" lon="7.9344802"><ele>306.33333333333337</ele><time>2026-04-18T17:04:55.958Z</time></trkpt><trkpt lat="45.0394697" lon="7.9341716"><ele>304.6666666666667</ele><time>2026-04-18T17:04:56.959Z</time></trkpt><trkpt lat="45.0394884" lon="7.9338605"><ele>303.0</ele><time>2026-04-18T17:04:57.968Z</time></trkpt><trkpt lat="45.0395088" lon="7.9335495"><ele>302.6666666666667</ele><time>2026-04-18T17:04:58.954Z</time></trkpt><trkpt lat="45.0395302" lon="7.9332374"><ele>302.33333333333337</ele><time>2026-04-18T17:04:59.955Z</time></trkpt><trkpt lat="45.0395501" lon="7.9329168"><ele>302.0</ele><time>2026-04-18T17:05:00.961Z</time></trkpt><trkpt lat="45.0395722" lon="7.9325915"><ele>300.0</ele><time>2026-04-18T17:05:01.963Z</time></trkpt><trkpt lat="45.0395953" lon="7.932258"><ele>298.0</ele><time>2026-04-18T17:05:02.957Z</time></trkpt><trkpt lat="45.0396167" lon="7.9319193"><ele>296.5</ele><time>2026-04-18T17:05:03.955Z</time></trkpt><trkpt lat="45.0396378" lon="7.9315769"><ele>295.0</ele><time>2026-04-18T17:05:04.957Z</time></trkpt><trkpt lat="45.0396591" lon="7.9312282"><ele>295.5</ele><time>2026-04-18T17:05:05.958Z</time></trkpt><trkpt lat="45.0396816" lon="7.9308763"><ele>296.0</ele><time>2026-04-18T17:05:06.964Z</time></trkpt><trkpt lat="45.0397033" lon="7.9305216"><ele>296.0</ele><time>2026-04-18T17:05:07.96Z</time></trkpt><trkpt lat="45.0397255" lon="7.9301647"><ele>296.0</ele><time>2026-04-18T17:05:08.959Z</time></trkpt><trkpt lat="45.0397478" lon="7.9298152"><ele>296.5</ele><time>2026-04-18T17:05:09.952Z</time></trkpt><trkpt lat="45.0397696" lon="7.9294683"><ele>297.0</ele><time>2026-04-18T17:05:10.952Z</time></trkpt><trkpt lat="45.0397918" lon="7.9291243"><ele>297.0</ele><time>2026-04-18T17:05:11.958Z</time></trkpt><trkpt lat="45.0398145" lon="7.9287893"><ele>297.0</ele><time>2026-04-18T17:05:12.969Z</time></trkpt><trkpt lat="45.0398371" lon="7.9284587"><ele>296.0</ele><time>2026-04-18T17:05:13.959Z</time></trkpt><trkpt lat="45.0398574" lon="7.9281324"><ele>295.0</ele><time>2026-04-18T17:05:14.968Z</time></trkpt><trkpt lat="45.0398764" lon="7.9278051"><ele>295.5</ele><time>2026-04-18T17:05:15.957Z</time></trkpt><trkpt lat="45.0398945" lon="7.9274764"><ele>296.0</ele><time>2026-04-18T17:05:16.96Z</time></trkpt><trkpt lat="45.0399099" lon="7.9271435"><ele>296.0</ele><time>2026-04-18T17:05:17.959Z</time></trkpt><trkpt lat="45.0399247" lon="7.9268046"><ele>296.0</ele><time>2026-04-18T17:05:18.954Z</time></trkpt><trkpt lat="45.0399472" lon="7.9264629"><ele>296.0</ele><time>2026-04-18T17:05:19.96Z</time></trkpt><trkpt lat="45.0399861" lon="7.926121"><ele>296.0</ele><time>2026-04-18T17:05:20.961Z</time></trkpt><trkpt lat="45.0400428" lon="7.9257846"><ele>296.5</ele><time>2026-04-18T17:05:21.967Z</time></trkpt><trkpt lat="45.040108" lon="7.9254548"><ele>297.0</ele><time>2026-04-18T17:05:22.956Z</time></trkpt><trkpt lat="45.0401697" lon="7.9251348"><ele>297.0</ele><time>2026-04-18T17:05:23.954Z</time></trkpt><trkpt lat="45.0402296" lon="7.9248254"><ele>297.0</ele><time>2026-04-18T17:05:24.957Z</time></trkpt><trkpt lat="45.0402893" lon="7.9245212"><ele>298.0</ele><time>2026-04-18T17:05:25.959Z</time></trkpt><trkpt lat="45.0403472" lon="7.9242243"><ele>299.0</ele><time>2026-04-18T17:05:26.962Z</time></trkpt><trkpt lat="45.0404051" lon="7.9239343"><ele>300.0</ele><time>2026-04-18T17:05:27.955Z</time></trkpt><trkpt lat="45.0404613" lon="7.9236516"><ele>303.0</ele><time>2026-04-18T17:05:28.957Z</time></trkpt><trkpt lat="45.0405145" lon="7.9233832"><ele>306.0</ele><time>2026-04-18T17:05:29.956Z</time></trkpt><trkpt lat="45.040564" lon="7.9231307"><ele>309.0</ele><time>2026-04-18T17:05:30.97Z</time></trkpt><trkpt lat="45.0406102" lon="7.9228935"><ele>309.0</ele><time>2026-04-18T17:05:31.961Z</time></trkpt><trkpt lat="45.0406504" lon="7.9226718"><ele>309.0</ele><time>2026-04-18T17:05:32.957Z</time></trkpt><trkpt lat="45.0406826" lon="7.9224587"><ele>309.0</ele><time>2026-04-18T17:05:33.962Z</time></trkpt><trkpt lat="45.0407019" lon="7.9222459"><ele>311.0</ele><time>2026-04-18T17:05:34.966Z</time></trkpt><trkpt lat="45.0407071" lon="7.9220219"><ele>313.0</ele><time>2026-04-18T17:05:35.961Z</time></trkpt><trkpt lat="45.0407067" lon="7.9217866"><ele>315.0</ele><time>2026-04-18T17:05:36.957Z</time></trkpt><trkpt lat="45.0407092" lon="7.921545"><ele>315.0</ele><time>2026-04-18T17:05:37.957Z</time></trkpt><trkpt lat="45.0407094" lon="7.9213015"><ele>315.0</ele><time>2026-04-18T17:05:38.954Z</time></trkpt><trkpt lat="45.0407092" lon="7.9210597"><ele>315.0</ele><time>2026-04-18T17:05:39.961Z</time></trkpt><trkpt lat="45.0407099" lon="7.9208199"><ele>313.6666666666667</ele><time>2026-04-18T17:05:40.96Z</time></trkpt><trkpt lat="45.0407111" lon="7.9205736"><ele>312.33333333333337</ele><time>2026-04-18T17:05:41.96Z</time></trkpt><trkpt lat="45.0407069" lon="7.9203179"><ele>311.0</ele><time>2026-04-18T17:05:42.958Z</time></trkpt><trkpt lat="45.0406918" lon="7.9200487"><ele>310.0</ele><time>2026-04-18T17:05:43.96Z</time></trkpt><trkpt lat="45.0406661" lon="7.9197709"><ele>309.0</ele><time>2026-04-18T17:05:44.958Z</time></trkpt><trkpt lat="45.0406282" lon="7.9194826"><ele>308.0</ele><time>2026-04-18T17:05:45.958Z</time></trkpt><trkpt lat="45.0405856" lon="7.9191842"><ele>308.0</ele><time>2026-04-18T17:05:46.956Z</time></trkpt><trkpt lat="45.0405433" lon="7.918874"><ele>308.0</ele><time>2026-04-18T17:05:47.956Z</time></trkpt><trkpt lat="45.040497" lon="7.9185543"><ele>308.5</ele><time>2026-04-18T17:05:48.957Z</time></trkpt><trkpt lat="45.0404479" lon="7.91823"><ele>309.0</ele><time>2026-04-18T17:05:49.957Z</time></trkpt><trkpt lat="45.0403934" lon="7.9179008"><ele>307.0</ele><time>2026-04-18T17:05:50.958Z</time></trkpt><trkpt lat="45.0403328" lon="7.9175672"><ele>305.0</ele><time>2026-04-18T17:05:51.961Z</time></trkpt><trkpt lat="45.0402691" lon="7.917236"><ele>305.0</ele><time>2026-04-18T17:05:52.959Z</time></trkpt><trkpt lat="45.0401977" lon="7.916906"><ele>305.0</ele><time>2026-04-18T17:05:53.969Z</time></trkpt><trkpt lat="45.0401204" lon="7.9165729"><ele>306.0</ele><time>2026-04-18T17:05:54.962Z</time></trkpt><trkpt lat="45.0400379" lon="7.9162423"><ele>307.0</ele><time>2026-04-18T17:05:55.964Z</time></trkpt><trkpt lat="45.0399466" lon="7.9159118"><ele>303.0</ele><time>2026-04-18T17:05:56.965Z</time></trkpt><trkpt lat="45.0398523" lon="7.9155772"><ele>299.0</ele><time>2026-04-18T17:05:57.952Z</time></trkpt><trkpt lat="45.0397536" lon="7.9152416"><ele>297.5</ele><time>2026-04-18T17:05:58.964Z</time></trkpt><trkpt lat="45.0396537" lon="7.9149042"><ele>296.0</ele><time>2026-04-18T17:05:59.959Z</time></trkpt><trkpt lat="45.0395521" lon="7.9145643"><ele>295.5</ele><time>2026-04-18T17:06:00.973Z</time></trkpt><trkpt lat="45.0394492" lon="7.9142232"><ele>295.0</ele><time>2026-04-18T17:06:01.975Z</time></trkpt><trkpt lat="45.0393464" lon="7.9138786"><ele>295.0</ele><time>2026-04-18T17:06:02.962Z</time></trkpt><trkpt lat="45.0392429" lon="7.91353"><ele>295.0</ele><time>2026-04-18T17:06:03.965Z</time></trkpt><trkpt lat="45.0391373" lon="7.9131811"><ele>294.0</ele><time>2026-04-18T17:06:04.955Z</time></trkpt><trkpt lat="45.0390312" lon="7.9128312"><ele>293.0</ele><time>2026-04-18T17:06:05.967Z</time></trkpt><trkpt lat="45.0389263" lon="7.9124824"><ele>293.0</ele><time>2026-04-18T17:06:06.956Z</time></trkpt><trkpt lat="45.0388243" lon="7.912143"><ele>293.0</ele><time>2026-04-18T17:06:07.956Z</time></trkpt><trkpt lat="45.0387289" lon="7.9118192"><ele>294.0</ele><time>2026-04-18T17:06:08.953Z</time></trkpt><trkpt lat="45.0386451" lon="7.9115078"><ele>295.0</ele><time>2026-04-18T17:06:09.962Z</time></trkpt><trkpt lat="45.0385838" lon="7.9112049"><ele>295.0</ele><time>2026-04-18T17:06:10.963Z</time></trkpt><trkpt lat="45.0385398" lon="7.9109165"><ele>295.0</ele><time>2026-04-18T17:06:11.954Z</time></trkpt><trkpt lat="45.0385111" lon="7.9106427"><ele>295.0</ele><time>2026-04-18T17:06:12.954Z</time></trkpt><trkpt lat="45.0384973" lon="7.9103835"><ele>296.66666666666663</ele><time>2026-04-18T17:06:13.957Z</time></trkpt><trkpt lat="45.0384983" lon="7.9101352"><ele>298.3333333333333</ele><time>2026-04-18T17:06:14.964Z</time></trkpt><trkpt lat="45.0385083" lon="7.909898"><ele>300.0</ele><time>2026-04-18T17:06:15.959Z</time></trkpt><trkpt lat="45.0385095" lon="7.9096655"><ele>301.3333333333333</ele><time>2026-04-18T17:06:16.961Z</time></trkpt><trkpt lat="45.0384991" lon="7.9094235"><ele>302.66666666666663</ele><time>2026-04-18T17:06:17.962Z</time></trkpt><trkpt lat="45.038482" lon="7.9091639"><ele>304.0</ele><time>2026-04-18T17:06:18.957Z</time></trkpt><trkpt lat="45.0384606" lon="7.9088896"><ele>304.3333333333333</ele><time>2026-04-18T17:06:19.958Z</time></trkpt><trkpt lat="45.038436" lon="7.9086059"><ele>304.6666666666667</ele><time>2026-04-18T17:06:20.959Z</time></trkpt><trkpt lat="45.0384089" lon="7.9083159"><ele>305.0</ele><time>2026-04-18T17:06:21.952Z</time></trkpt><trkpt lat="45.0383834" lon="7.9080298"><ele>304.33333333333337</ele><time>2026-04-18T17:06:22.959Z</time></trkpt><trkpt lat="45.0383586" lon="7.9077559"><ele>303.6666666666667</ele><time>2026-04-18T17:06:23.957Z</time></trkpt><trkpt lat="45.038335" lon="7.9074893"><ele>303.0</ele><time>2026-04-18T17:06:24.964Z</time></trkpt><trkpt lat="45.0383137" lon="7.9072328"><ele>303.6666666666667</ele><time>2026-04-18T17:06:25.958Z</time></trkpt><trkpt lat="45.0382915" lon="7.9069798"><ele>304.33333333333337</ele><time>2026-04-18T17:06:26.956Z</time></trkpt><trkpt lat="45.0382719" lon="7.9067366"><ele>305.0</ele><time>2026-04-18T17:06:27.975Z</time></trkpt><trkpt lat="45.0382508" lon="7.9065032"><ele>302.0</ele><time>2026-04-18T17:06:28.955Z</time></trkpt><trkpt lat="45.0382293" lon="7.906275"><ele>299.0</ele><time>2026-04-18T17:06:29.96Z</time></trkpt><trkpt lat="45.0382123" lon="7.9060532"><ele>296.0</ele><time>2026-04-18T17:06:30.955Z</time></trkpt><trkpt lat="45.0381919" lon="7.9058299"><ele>294.6666666666667</ele><time>2026-04-18T17:06:31.958Z</time></trkpt><trkpt lat="45.0381722" lon="7.9056088"><ele>293.3333333333333</ele><time>2026-04-18T17:06:32.955Z</time></trkpt><trkpt lat="45.0381531" lon="7.9053907"><ele>292.0</ele><time>2026-04-18T17:06:33.955Z</time></trkpt><trkpt lat="45.0381353" lon="7.9051767"><ele>292.5</ele><time>2026-04-18T17:06:34.958Z</time></trkpt><trkpt lat="45.0381147" lon="7.9049646"><ele>293.0</ele><time>2026-04-18T17:06:35.954Z</time></trkpt><trkpt lat="45.0380946" lon="7.9047581"><ele>293.5</ele><time>2026-04-18T17:06:36.967Z</time></trkpt><trkpt lat="45.0380768" lon="7.9045585"><ele>294.0</ele><time>2026-04-18T17:06:37.957Z</time></trkpt><trkpt lat="45.0380621" lon="7.9043745"><ele>294.25</ele><time>2026-04-18T17:06:38.975Z</time></trkpt><trkpt lat="45.0380475" lon="7.9041946"><ele>294.5</ele><time>2026-04-18T17:06:39.961Z</time></trkpt><trkpt lat="45.0380353" lon="7.9040215"><ele>294.75</ele><time>2026-04-18T17:06:40.973Z</time></trkpt><trkpt lat="45.0380222" lon="7.9038464"><ele>295.0</ele><time>2026-04-18T17:06:41.965Z</time></trkpt><trkpt lat="45.038007" lon="7.9036659"><ele>295.0</ele><time>2026-04-18T17:06:42.954Z</time></trkpt><trkpt lat="45.0379911" lon="7.9034798"><ele>295.0</ele><time>2026-04-18T17:06:43.958Z</time></trkpt><trkpt lat="45.0379752" lon="7.9032892"><ele>295.0</ele><time>2026-04-18T17:06:44.974Z</time></trkpt><trkpt lat="45.0379606" lon="7.9030965"><ele>295.0</ele><time>2026-04-18T17:06:45.956Z</time></trkpt><trkpt lat="45.037944" lon="7.9029101"><ele>295.0</ele><time>2026-04-18T17:06:46.952Z</time></trkpt><trkpt lat="45.0379261" lon="7.9027297"><ele>295.0</ele><time>2026-04-18T17:06:47.954Z</time></trkpt><trkpt lat="45.0379074" lon="7.9025584"><ele>295.0</ele><time>2026-04-18T17:06:48.956Z</time></trkpt><trkpt lat="45.0378915" lon="7.9024024"><ele>295.0</ele><time>2026-04-18T17:06:49.958Z</time></trkpt><trkpt lat="45.0378823" lon="7.9022676"><ele>294.8333333333333</ele><time>2026-04-18T17:06:50.965Z</time></trkpt><trkpt lat="45.0378848" lon="7.9021547"><ele>294.66666666666663</ele><time>2026-04-18T17:06:51.96Z</time></trkpt><trkpt lat="45.0378985" lon="7.9020473"><ele>294.5</ele><time>2026-04-18T17:06:52.957Z</time></trkpt><trkpt lat="45.0379197" lon="7.9019429"><ele>294.3333333333333</ele><time>2026-04-18T17:06:53.957Z</time></trkpt><trkpt lat="45.0379258" lon="7.901838"><ele>294.1666666666667</ele><time>2026-04-18T17:06:54.952Z</time></trkpt><trkpt lat="45.0379074" lon="7.901734"><ele>294.0</ele><time>2026-04-18T17:06:55.953Z</time></trkpt><trkpt lat="45.0378692" lon="7.9016298"><ele>294.0</ele><time>2026-04-18T17:06:56.954Z</time></trkpt><trkpt lat="45.0378277" lon="7.9015173"><ele>294.0</ele><time>2026-04-18T17:06:57.955Z</time></trkpt><trkpt lat="45.0378024" lon="7.9013866"><ele>294.0</ele><time>2026-04-18T17:06:58.953Z</time></trkpt><trkpt lat="45.0377874" lon="7.9012363"><ele>294.0</ele><time>2026-04-18T17:06:59.959Z</time></trkpt><trkpt lat="45.0377779" lon="7.9010728"><ele>294.0</ele><time>2026-04-18T17:07:00.953Z</time></trkpt><trkpt lat="45.0377612" lon="7.9008971"><ele>295.0</ele><time>2026-04-18T17:07:01.966Z</time></trkpt><trkpt lat="45.0377432" lon="7.9007081"><ele>296.0</ele><time>2026-04-18T17:07:02.955Z</time></trkpt><trkpt lat="45.0377245" lon="7.9005088"><ele>297.0</ele><time>2026-04-18T17:07:03.96Z</time></trkpt><trkpt lat="45.037708" lon="7.9003052"><ele>298.0</ele><time>2026-04-18T17:07:04.958Z</time></trkpt><trkpt lat="45.0376932" lon="7.9000972"><ele>298.3333333333333</ele><time>2026-04-18T17:07:05.957Z</time></trkpt><trkpt lat="45.0376847" lon="7.8998833"><ele>298.6666666666667</ele><time>2026-04-18T17:07:06.962Z</time></trkpt><trkpt lat="45.0376831" lon="7.8996642"><ele>299.0</ele><time>2026-04-18T17:07:07.964Z</time></trkpt><trkpt lat="45.0376851" lon="7.8994399"><ele>298.0</ele><time>2026-04-18T17:07:08.957Z</time></trkpt><trkpt lat="45.037687" lon="7.8992103"><ele>297.0</ele><time>2026-04-18T17:07:09.965Z</time></trkpt><trkpt lat="45.0376916" lon="7.8989742"><ele>296.0</ele><time>2026-04-18T17:07:10.966Z</time></trkpt><trkpt lat="45.0376965" lon="7.8987451"><ele>296.0</ele><time>2026-04-18T17:07:11.954Z</time></trkpt><trkpt lat="45.0377013" lon="7.8985234"><ele>296.0</ele><time>2026-04-18T17:07:12.952Z</time></trkpt><trkpt lat="45.037707" lon="7.8983051"><ele>296.0</ele><time>2026-04-18T17:07:13.959Z</time></trkpt><trkpt lat="45.0377123" lon="7.8980939"><ele>295.0</ele><time>2026-04-18T17:07:14.956Z</time></trkpt><trkpt lat="45.0377164" lon="7.89789"><ele>294.0</ele><time>2026-04-18T17:07:15.953Z</time></trkpt><trkpt lat="45.0377066" lon="7.8976864"><ele>293.0</ele><time>2026-04-18T17:07:16.959Z</time></trkpt><trkpt lat="45.0376736" lon="7.8974791"><ele>292.0</ele><time>2026-04-18T17:07:17.954Z</time></trkpt><trkpt lat="45.0376181" lon="7.8972657"><ele>290.66666666666663</ele><time>2026-04-18T17:07:18.956Z</time></trkpt><trkpt lat="45.0375484" lon="7.8970555"><ele>289.3333333333333</ele><time>2026-04-18T17:07:19.961Z</time></trkpt><trkpt lat="45.0374731" lon="7.8968456"><ele>288.0</ele><time>2026-04-18T17:07:20.955Z</time></trkpt><trkpt lat="45.037398" lon="7.8966369"><ele>288.0</ele><time>2026-04-18T17:07:21.956Z</time></trkpt><trkpt lat="45.0373239" lon="7.8964255"><ele>288.0</ele><time>2026-04-18T17:07:22.96Z</time></trkpt><trkpt lat="45.0372501" lon="7.8962175"><ele>288.0</ele><time>2026-04-18T17:07:23.959Z</time></trkpt><trkpt lat="45.0371764" lon="7.8960101"><ele>287.6666666666667</ele><time>2026-04-18T17:07:24.974Z</time></trkpt><trkpt lat="45.0371029" lon="7.8958043"><ele>287.33333333333337</ele><time>2026-04-18T17:07:25.956Z</time></trkpt><trkpt lat="45.0370304" lon="7.8955978"><ele>287.0</ele><time>2026-04-18T17:07:26.96Z</time></trkpt><trkpt lat="45.0369593" lon="7.8953913"><ele>287.0</ele><time>2026-04-18T17:07:27.962Z</time></trkpt><trkpt lat="45.0368879" lon="7.8951885"><ele>287.0</ele><time>2026-04-18T17:07:28.956Z</time></trkpt><trkpt lat="45.0368152" lon="7.8949855"><ele>287.0</ele><time>2026-04-18T17:07:29.96Z</time></trkpt><trkpt lat="45.0367449" lon="7.8947845"><ele>285.6666666666667</ele><time>2026-04-18T17:07:30.957Z</time></trkpt><trkpt lat="45.0366737" lon="7.894581"><ele>284.3333333333333</ele><time>2026-04-18T17:07:31.966Z</time></trkpt><trkpt lat="45.0366014" lon="7.8943809"><ele>283.0</ele><time>2026-04-18T17:07:32.962Z</time></trkpt><trkpt lat="45.0365277" lon="7.8941806"><ele>282.66666666666663</ele><time>2026-04-18T17:07:33.966Z</time></trkpt><trkpt lat="45.0364548" lon="7.893977"><ele>282.3333333333333</ele><time>2026-04-18T17:07:34.95Z</time></trkpt><trkpt lat="45.0363808" lon="7.8937727"><ele>282.0</ele><time>2026-04-18T17:07:35.952Z</time></trkpt><trkpt lat="45.0363062" lon="7.8935641"><ele>280.6666666666667</ele><time>2026-04-18T17:07:36.954Z</time></trkpt><trkpt lat="45.0362307" lon="7.8933508"><ele>279.33333333333337</ele><time>2026-04-18T17:07:37.957Z</time></trkpt><trkpt lat="45.0361538" lon="7.8931356"><ele>278.0</ele><time>2026-04-18T17:07:38.956Z</time></trkpt><trkpt lat="45.0360761" lon="7.8929188"><ele>278.0</ele><time>2026-04-18T17:07:39.961Z</time></trkpt><trkpt lat="45.035995" lon="7.8926948"><ele>278.0</ele><time>2026-04-18T17:07:40.955Z</time></trkpt><trkpt lat="45.0359131" lon="7.8924657"><ele>278.0</ele><time>2026-04-18T17:07:41.958Z</time></trkpt><trkpt lat="45.0358344" lon="7.8922372"><ele>277.6666666666667</ele><time>2026-04-18T17:07:42.961Z</time></trkpt><trkpt lat="45.035753" lon="7.8920048"><ele>277.3333333333333</ele><time>2026-04-18T17:07:43.957Z</time></trkpt><trkpt lat="45.0356678" lon="7.8917666"><ele>277.0</ele><time>2026-04-18T17:07:44.963Z</time></trkpt><trkpt lat="45.0355807" lon="7.8915222"><ele>277.0</ele><time>2026-04-18T17:07:45.952Z</time></trkpt><trkpt lat="45.0354942" lon="7.8912749"><ele>277.0</ele><time>2026-04-18T17:07:46.955Z</time></trkpt><trkpt lat="45.0354045" lon="7.8910231"><ele>277.0</ele><time>2026-04-18T17:07:47.958Z</time></trkpt><trkpt lat="45.0353142" lon="7.8907664"><ele>276.66666666666663</ele><time>2026-04-18T17:07:48.955Z</time></trkpt><trkpt lat="45.0352212" lon="7.8905076"><ele>276.3333333333333</ele><time>2026-04-18T17:07:49.954Z</time></trkpt><trkpt lat="45.0351274" lon="7.8902451"><ele>276.0</ele><time>2026-04-18T17:07:50.958Z</time></trkpt><trkpt lat="45.0350331" lon="7.889982"><ele>275.6666666666667</ele><time>2026-04-18T17:07:51.955Z</time></trkpt><trkpt lat="45.03494" lon="7.8897183"><ele>275.33333333333337</ele><time>2026-04-18T17:07:52.961Z</time></trkpt><trkpt lat="45.0348471" lon="7.8894549"><ele>275.0</ele><time>2026-04-18T17:07:53.967Z</time></trkpt><trkpt lat="45.0347548" lon="7.8891926"><ele>275.0</ele><time>2026-04-18T17:07:54.969Z</time></trkpt><trkpt lat="45.034661" lon="7.8889333"><ele>275.0</ele><time>2026-04-18T17:07:55.95Z</time></trkpt><trkpt lat="45.0345676" lon="7.8886747"><ele>275.0</ele><time>2026-04-18T17:07:56.97Z</time></trkpt><trkpt lat="45.0344764" lon="7.8884148"><ele>275.0</ele><time>2026-04-18T17:07:57.953Z</time></trkpt><trkpt lat="45.0343852" lon="7.8881615"><ele>275.0</ele><time>2026-04-18T17:07:58.96Z</time></trkpt><trkpt lat="45.0342958" lon="7.8879149"><ele>275.0</ele><time>2026-04-18T17:07:59.963Z</time></trkpt><trkpt lat="45.0342098" lon="7.8876715"><ele>275.0</ele><time>2026-04-18T17:08:00.957Z</time></trkpt><trkpt lat="45.0341272" lon="7.8874326"><ele>275.0</ele><time>2026-04-18T17:08:01.953Z</time></trkpt><trkpt lat="45.0340444" lon="7.8871948"><ele>275.0</ele><time>2026-04-18T17:08:02.955Z</time></trkpt><trkpt lat="45.0339585" lon="7.8869591"><ele>275.0</ele><time>2026-04-18T17:08:03.951Z</time></trkpt><trkpt lat="45.033871" lon="7.8867225"><ele>275.0</ele><time>2026-04-18T17:08:04.953Z</time></trkpt><trkpt lat="45.0337881" lon="7.8864896"><ele>275.0</ele><time>2026-04-18T17:08:05.956Z</time></trkpt><trkpt lat="45.0337125" lon="7.886263"><ele>275.0</ele><time>2026-04-18T17:08:06.964Z</time></trkpt><trkpt lat="45.033642" lon="7.8860407"><ele>275.0</ele><time>2026-04-18T17:08:07.971Z</time></trkpt><trkpt lat="45.0335769" lon="7.8858181"><ele>275.0</ele><time>2026-04-18T17:08:08.951Z</time></trkpt><trkpt lat="45.0335198" lon="7.8855967"><ele>275.6666666666667</ele><time>2026-04-18T17:08:09.953Z</time></trkpt><trkpt lat="45.0334734" lon="7.8853754"><ele>276.3333333333333</ele><time>2026-04-18T17:08:10.957Z</time></trkpt><trkpt lat="45.0334358" lon="7.885157"><ele>277.0</ele><time>2026-04-18T17:08:11.952Z</time></trkpt><trkpt lat="45.0334061" lon="7.8849427"><ele>277.0</ele><time>2026-04-18T17:08:12.95Z</time></trkpt><trkpt lat="45.0333827" lon="7.8847341"><ele>277.0</ele><time>2026-04-18T17:08:13.965Z</time></trkpt><trkpt lat="45.0333659" lon="7.8845328"><ele>277.0</ele><time>2026-04-18T17:08:14.959Z</time></trkpt><trkpt lat="45.0333555" lon="7.8843361"><ele>277.0</ele><time>2026-04-18T17:08:15.961Z</time></trkpt><trkpt lat="45.0333486" lon="7.88414"><ele>277.0</ele><time>2026-04-18T17:08:16.955Z</time></trkpt><trkpt lat="45.0333467" lon="7.8839396"><ele>277.0</ele><time>2026-04-18T17:08:17.959Z</time></trkpt><trkpt lat="45.0333542" lon="7.8837382"><ele>277.0</ele><time>2026-04-18T17:08:18.954Z</time></trkpt><trkpt lat="45.0333694" lon="7.8835395"><ele>277.0</ele><time>2026-04-18T17:08:19.972Z</time></trkpt><trkpt lat="45.0333888" lon="7.8833493"><ele>277.0</ele><time>2026-04-18T17:08:20.959Z</time></trkpt><trkpt lat="45.033409" lon="7.8831667"><ele>277.0</ele><time>2026-04-18T17:08:21.975Z</time></trkpt><trkpt lat="45.0334324" lon="7.8829879"><ele>277.0</ele><time>2026-04-18T17:08:22.957Z</time></trkpt><trkpt lat="45.0334562" lon="7.8828172"><ele>277.0</ele><time>2026-04-18T17:08:23.964Z</time></trkpt><trkpt lat="45.033479" lon="7.8826507"><ele>276.75</ele><time>2026-04-18T17:08:24.952Z</time></trkpt><trkpt lat="45.0335023" lon="7.8824847"><ele>276.5</ele><time>2026-04-18T17:08:25.954Z</time></trkpt><trkpt lat="45.0335264" lon="7.8823166"><ele>276.25</ele><time>2026-04-18T17:08:26.95Z</time></trkpt><trkpt lat="45.033551" lon="7.8821502"><ele>276.0</ele><time>2026-04-18T17:08:27.956Z</time></trkpt><trkpt lat="45.033574" lon="7.8819837"><ele>276.0</ele><time>2026-04-18T17:08:28.956Z</time></trkpt><trkpt lat="45.0335966" lon="7.8818143"><ele>276.0</ele><time>2026-04-18T17:08:29.967Z</time></trkpt><trkpt lat="45.0336215" lon="7.8816393"><ele>276.0</ele><time>2026-04-18T17:08:30.956Z</time></trkpt><trkpt lat="45.0336475" lon="7.8814593"><ele>276.0</ele><time>2026-04-18T17:08:31.953Z</time></trkpt><trkpt lat="45.0336733" lon="7.8812817"><ele>276.5</ele><time>2026-04-18T17:08:32.958Z</time></trkpt><trkpt lat="45.033697" lon="7.8811094"><ele>277.0</ele><time>2026-04-18T17:08:33.955Z</time></trkpt><trkpt lat="45.0337183" lon="7.8809389"><ele>277.5</ele><time>2026-04-18T17:08:34.964Z</time></trkpt><trkpt lat="45.0337391" lon="7.8807689"><ele>278.0</ele><time>2026-04-18T17:08:35.957Z</time></trkpt><trkpt lat="45.0337609" lon="7.8805953"><ele>278.0</ele><time>2026-04-18T17:08:36.959Z</time></trkpt><trkpt lat="45.0337845" lon="7.8804168"><ele>278.0</ele><time>2026-04-18T17:08:37.956Z</time></trkpt><trkpt lat="45.0338095" lon="7.8802345"><ele>278.0</ele><time>2026-04-18T17:08:38.974Z</time></trkpt><trkpt lat="45.0338364" lon="7.880049"><ele>278.0</ele><time>2026-04-18T17:08:39.967Z</time></trkpt><trkpt lat="45.0338629" lon="7.879862"><ele>277.75</ele><time>2026-04-18T17:08:40.959Z</time></trkpt><trkpt lat="45.0338879" lon="7.8796727"><ele>277.5</ele><time>2026-04-18T17:08:41.954Z</time></trkpt><trkpt lat="45.0339137" lon="7.8794877"><ele>277.25</ele><time>2026-04-18T17:08:42.964Z</time></trkpt><trkpt lat="45.0339407" lon="7.8793045"><ele>277.0</ele><time>2026-04-18T17:08:43.963Z</time></trkpt><trkpt lat="45.0339723" lon="7.879125"><ele>276.75</ele><time>2026-04-18T17:08:44.97Z</time></trkpt><trkpt lat="45.0340146" lon="7.878949"><ele>276.5</ele><time>2026-04-18T17:08:45.97Z</time></trkpt><trkpt lat="45.0340687" lon="7.878777"><ele>276.25</ele><time>2026-04-18T17:08:46.957Z</time></trkpt><trkpt lat="45.0341389" lon="7.8786111"><ele>276.0</ele><time>2026-04-18T17:08:47.959Z</time></trkpt><trkpt lat="45.0342252" lon="7.8784564"><ele>276.5</ele><time>2026-04-18T17:08:48.959Z</time></trkpt><trkpt lat="45.0343185" lon="7.8783061"><ele>277.0</ele><time>2026-04-18T17:08:49.958Z</time></trkpt><trkpt lat="45.0344112" lon="7.8781596"><ele>277.5</ele><time>2026-04-18T17:08:50.963Z</time></trkpt><trkpt lat="45.0345017" lon="7.8780109"><ele>278.0</ele><time>2026-04-18T17:08:51.959Z</time></trkpt><trkpt lat="45.034591" lon="7.8778664"><ele>278.0</ele><time>2026-04-18T17:08:52.959Z</time></trkpt><trkpt lat="45.0346796" lon="7.8777237"><ele>278.0</ele><time>2026-04-18T17:08:53.962Z</time></trkpt><trkpt lat="45.0347678" lon="7.8775806"><ele>278.0</ele><time>2026-04-18T17:08:54.958Z</time></trkpt><trkpt lat="45.0348582" lon="7.8774358"><ele>278.0</ele><time>2026-04-18T17:08:55.959Z</time></trkpt><trkpt lat="45.0349482" lon="7.8772938"><ele>278.25</ele><time>2026-04-18T17:08:56.964Z</time></trkpt><trkpt lat="45.0350387" lon="7.8771512"><ele>278.5</ele><time>2026-04-18T17:08:57.957Z</time></trkpt><trkpt lat="45.0351262" lon="7.8770104"><ele>278.75</ele><time>2026-04-18T17:08:58.957Z</time></trkpt><trkpt lat="45.035216" lon="7.8768679"><ele>279.0</ele><time>2026-04-18T17:08:59.961Z</time></trkpt><trkpt lat="45.0353063" lon="7.8767242"><ele>279.25</ele><time>2026-04-18T17:09:00.959Z</time></trkpt><trkpt lat="45.0353965" lon="7.8765854"><ele>279.5</ele><time>2026-04-18T17:09:01.96Z</time></trkpt><trkpt lat="45.0354812" lon="7.8764434"><ele>279.75</ele><time>2026-04-18T17:09:02.961Z</time></trkpt><trkpt lat="45.0355683" lon="7.8763049"><ele>280.0</ele><time>2026-04-18T17:09:03.962Z</time></trkpt><trkpt lat="45.0356552" lon="7.8761643"><ele>280.0</ele><time>2026-04-18T17:09:04.959Z</time></trkpt><trkpt lat="45.0357432" lon="7.8760277"><ele>280.0</ele><time>2026-04-18T17:09:05.962Z</time></trkpt><trkpt lat="45.0358339" lon="7.8758919"><ele>280.0</ele><time>2026-04-18T17:09:06.975Z</time></trkpt><trkpt lat="45.0359212" lon="7.8757561"><ele>280.0</ele><time>2026-04-18T17:09:07.963Z</time></trkpt><trkpt lat="45.0360092" lon="7.8756131"><ele>280.25</ele><time>2026-04-18T17:09:08.961Z</time></trkpt><trkpt lat="45.0360964" lon="7.8754716"><ele>280.5</ele><time>2026-04-18T17:09:09.961Z</time></trkpt><trkpt lat="45.0361858" lon="7.8753271"><ele>280.75</ele><time>2026-04-18T17:09:10.96Z</time></trkpt><trkpt lat="45.0362739" lon="7.8751902"><ele>281.0</ele><time>2026-04-18T17:09:11.964Z</time></trkpt><trkpt lat="45.0363612" lon="7.8750477"><ele>281.5</ele><time>2026-04-18T17:09:12.96Z</time></trkpt><trkpt lat="45.0364495" lon="7.8749084"><ele>282.0</ele><time>2026-04-18T17:09:13.967Z</time></trkpt><trkpt lat="45.036536" lon="7.8747686"><ele>282.5</ele><time>2026-04-18T17:09:14.966Z</time></trkpt><trkpt lat="45.0366197" lon="7.8746332"><ele>283.0</ele><time>2026-04-18T17:09:15.96Z</time></trkpt><trkpt lat="45.0366973" lon="7.8745062"><ele>283.2</ele><time>2026-04-18T17:09:16.96Z</time></trkpt><trkpt lat="45.0367715" lon="7.8743846"><ele>283.4</ele><time>2026-04-18T17:09:17.959Z</time></trkpt><trkpt lat="45.0368441" lon="7.8742739"><ele>283.59999999999997</ele><time>2026-04-18T17:09:18.963Z</time></trkpt><trkpt lat="45.0369101" lon="7.8741683"><ele>283.8</ele><time>2026-04-18T17:09:19.968Z</time></trkpt><trkpt lat="45.0369732" lon="7.8740714"><ele>284.0</ele><time>2026-04-18T17:09:20.96Z</time></trkpt><trkpt lat="45.0370277" lon="7.873985"><ele>284.42857142857144</ele><time>2026-04-18T17:09:21.96Z</time></trkpt><trkpt lat="45.0370763" lon="7.8739081"><ele>284.85714285714283</ele><time>2026-04-18T17:09:22.957Z</time></trkpt><trkpt lat="45.0371252" lon="7.8738405"><ele>285.2857142857143</ele><time>2026-04-18T17:09:23.967Z</time></trkpt><trkpt lat="45.0371719" lon="7.8737726"><ele>285.7142857142857</ele><time>2026-04-18T17:09:24.96Z</time></trkpt><trkpt lat="45.0372078" lon="7.8736881"><ele>286.1428571428571</ele><time>2026-04-18T17:09:25.975Z</time></trkpt><trkpt lat="45.0372254" lon="7.8735861"><ele>286.57142857142856</ele><time>2026-04-18T17:09:26.954Z</time></trkpt><trkpt lat="45.0372338" lon="7.8734671"><ele>287.0</ele><time>2026-04-18T17:09:27.957Z</time></trkpt><trkpt lat="45.0372313" lon="7.8733334"><ele>288.0</ele><time>2026-04-18T17:09:28.962Z</time></trkpt><trkpt lat="45.0372214" lon="7.8731885"><ele>289.0</ele><time>2026-04-18T17:09:29.959Z</time></trkpt><trkpt lat="45.0371992" lon="7.8730395"><ele>290.0</ele><time>2026-04-18T17:09:30.955Z</time></trkpt><trkpt lat="45.0371684" lon="7.8728896"><ele>291.0</ele><time>2026-04-18T17:09:31.954Z</time></trkpt><trkpt lat="45.0371352" lon="7.8727387"><ele>292.0</ele><time>2026-04-18T17:09:32.963Z</time></trkpt><trkpt lat="45.0370995" lon="7.87259"><ele>292.25</ele><time>2026-04-18T17:09:33.956Z</time></trkpt><trkpt lat="45.0370616" lon="7.8724361"><ele>292.5</ele><time>2026-04-18T17:09:34.958Z</time></trkpt><trkpt lat="45.0370207" lon="7.8722775"><ele>292.75</ele><time>2026-04-18T17:09:35.954Z</time></trkpt><trkpt lat="45.0369804" lon="7.8721235"><ele>293.0</ele><time>2026-04-18T17:09:36.963Z</time></trkpt><trkpt lat="45.0369441" lon="7.8719743"><ele>293.0</ele><time>2026-04-18T17:09:37.957Z</time></trkpt><trkpt lat="45.036907" lon="7.8718294"><ele>293.0</ele><time>2026-04-18T17:09:38.956Z</time></trkpt><trkpt lat="45.0368714" lon="7.8716876"><ele>293.0</ele><time>2026-04-18T17:09:39.957Z</time></trkpt><trkpt lat="45.0368375" lon="7.87155"><ele>293.0</ele><time>2026-04-18T17:09:40.956Z</time></trkpt><trkpt lat="45.0368068" lon="7.8714233"><ele>293.0</ele><time>2026-04-18T17:09:41.959Z</time></trkpt><trkpt lat="45.0367703" lon="7.8713034"><ele>291.83333333333337</ele><time>2026-04-18T17:09:42.965Z</time></trkpt><trkpt lat="45.0367375" lon="7.8711948"><ele>290.6666666666667</ele><time>2026-04-18T17:09:43.954Z</time></trkpt><trkpt lat="45.0367054" lon="7.871097"><ele>289.5</ele><time>2026-04-18T17:09:44.965Z</time></trkpt><trkpt lat="45.0366778" lon="7.8710055"><ele>288.3333333333333</ele><time>2026-04-18T17:09:45.964Z</time></trkpt><trkpt lat="45.0366554" lon="7.8709192"><ele>287.16666666666663</ele><time>2026-04-18T17:09:46.963Z</time></trkpt><trkpt lat="45.0366161" lon="7.8707669"><ele>286.0</ele><time>2026-04-18T17:09:48.954Z</time></trkpt><trkpt lat="45.0365887" lon="7.8706612"><ele>286.0</ele><time>2026-04-18T17:09:50.955Z</time></trkpt><trkpt lat="45.0365421" lon="7.8705335"><ele>286.0</ele><time>2026-04-18T17:10:09.95Z</time></trkpt><trkpt lat="45.0365147" lon="7.8704516"><ele>286.0</ele><time>2026-04-18T17:10:10.958Z</time></trkpt><trkpt lat="45.036483" lon="7.8703674"><ele>286.0</ele><time>2026-04-18T17:10:11.957Z</time></trkpt><trkpt lat="45.0364412" lon="7.8702722"><ele>286.0</ele><time>2026-04-18T17:10:12.956Z</time></trkpt><trkpt lat="45.0363881" lon="7.8701644"><ele>286.0</ele><time>2026-04-18T17:10:13.952Z</time></trkpt><trkpt lat="45.0363361" lon="7.8700585"><ele>284.40000000000003</ele><time>2026-04-18T17:10:14.952Z</time></trkpt><trkpt lat="45.0362822" lon="7.8699486"><ele>282.8</ele><time>2026-04-18T17:10:15.958Z</time></trkpt><trkpt lat="45.036229" lon="7.8698366"><ele>281.20000000000005</ele><time>2026-04-18T17:10:16.962Z</time></trkpt><trkpt lat="45.0361755" lon="7.8697267"><ele>279.6</ele><time>2026-04-18T17:10:17.967Z</time></trkpt><trkpt lat="45.0361226" lon="7.8696147"><ele>278.0</ele><time>2026-04-18T17:10:18.962Z</time></trkpt><trkpt lat="45.0360741" lon="7.8695082"><ele>278.0</ele><time>2026-04-18T17:10:19.957Z</time></trkpt><trkpt lat="45.0360295" lon="7.8694127"><ele>278.0</ele><time>2026-04-18T17:10:20.956Z</time></trkpt><trkpt lat="45.0359909" lon="7.8693154"><ele>278.0</ele><time>2026-04-18T17:10:21.973Z</time></trkpt><trkpt lat="45.0359521" lon="7.8691988"><ele>278.0</ele><time>2026-04-18T17:10:22.966Z</time></trkpt><trkpt lat="45.0359095" lon="7.8690697"><ele>278.0</ele><time>2026-04-18T17:10:23.966Z</time></trkpt><trkpt lat="45.0358592" lon="7.8689232"><ele>278.0</ele><time>2026-04-18T17:10:24.975Z</time></trkpt><trkpt lat="45.0358028" lon="7.8687656"><ele>278.0</ele><time>2026-04-18T17:10:25.971Z</time></trkpt><trkpt lat="45.0357421" lon="7.8685983"><ele>278.0</ele><time>2026-04-18T17:10:26.966Z</time></trkpt><trkpt lat="45.035685" lon="7.8684347"><ele>278.0</ele><time>2026-04-18T17:10:27.964Z</time></trkpt><trkpt lat="45.035633" lon="7.8682801"><ele>278.0</ele><time>2026-04-18T17:10:28.969Z</time></trkpt><trkpt lat="45.0355882" lon="7.8681359"><ele>278.0</ele><time>2026-04-18T17:10:29.974Z</time></trkpt><trkpt lat="45.0355512" lon="7.8679961"><ele>278.0</ele><time>2026-04-18T17:10:30.974Z</time></trkpt><trkpt lat="45.0355191" lon="7.8678564"><ele>278.0</ele><time>2026-04-18T17:10:31.958Z</time></trkpt><trkpt lat="45.0354912" lon="7.8677063"><ele>278.0</ele><time>2026-04-18T17:10:32.974Z</time></trkpt><trkpt lat="45.0354669" lon="7.8675407"><ele>278.25</ele><time>2026-04-18T17:10:33.967Z</time></trkpt><trkpt lat="45.0354523" lon="7.8673567"><ele>278.5</ele><time>2026-04-18T17:10:34.965Z</time></trkpt><trkpt lat="45.0354487" lon="7.8671593"><ele>278.75</ele><time>2026-04-18T17:10:35.972Z</time></trkpt><trkpt lat="45.0354431" lon="7.8669701"><ele>279.0</ele><time>2026-04-18T17:10:36.975Z</time></trkpt><trkpt lat="45.0354312" lon="7.8667824"><ele>279.0</ele><time>2026-04-18T17:10:37.968Z</time></trkpt><trkpt lat="45.0354039" lon="7.8666039"><ele>279.0</ele><time>2026-04-18T17:10:38.975Z</time></trkpt><trkpt lat="45.035356" lon="7.8664389"><ele>279.0</ele><time>2026-04-18T17:10:39.963Z</time></trkpt><trkpt lat="45.0352865" lon="7.8662848"><ele>279.0</ele><time>2026-04-18T17:10:40.96Z</time></trkpt><trkpt lat="45.0352053" lon="7.8661313"><ele>279.0</ele><time>2026-04-18T17:10:41.972Z</time></trkpt><trkpt lat="45.0351157" lon="7.8659703"><ele>279.0</ele><time>2026-04-18T17:10:42.975Z</time></trkpt><trkpt lat="45.0350219" lon="7.8657999"><ele>279.0</ele><time>2026-04-18T17:10:43.975Z</time></trkpt><trkpt lat="45.0349258" lon="7.8656239"><ele>278.6666666666667</ele><time>2026-04-18T17:10:44.975Z</time></trkpt><trkpt lat="45.0348318" lon="7.8654499"><ele>278.33333333333337</ele><time>2026-04-18T17:10:45.961Z</time></trkpt><trkpt lat="45.0347351" lon="7.865272"><ele>278.0</ele><time>2026-04-18T17:10:46.968Z</time></trkpt><trkpt lat="45.0346361" lon="7.8650923"><ele>278.0</ele><time>2026-04-18T17:10:47.964Z</time></trkpt><trkpt lat="45.0345371" lon="7.8649092"><ele>278.0</ele><time>2026-04-18T17:10:48.975Z</time></trkpt><trkpt lat="45.0344329" lon="7.8647196"><ele>278.0</ele><time>2026-04-18T17:10:49.964Z</time></trkpt><trkpt lat="45.0343275" lon="7.864526"><ele>278.0</ele><time>2026-04-18T17:10:50.967Z</time></trkpt><trkpt lat="45.0342203" lon="7.8643285"><ele>278.0</ele><time>2026-04-18T17:10:51.967Z</time></trkpt><trkpt lat="45.034111" lon="7.8641309"><ele>278.0</ele><time>2026-04-18T17:10:52.975Z</time></trkpt><trkpt lat="45.0340042" lon="7.8639283"><ele>278.0</ele><time>2026-04-18T17:10:53.964Z</time></trkpt><trkpt lat="45.0338969" lon="7.8637238"><ele>278.0</ele><time>2026-04-18T17:10:54.963Z</time></trkpt><trkpt lat="45.0337874" lon="7.8635159"><ele>278.0</ele><time>2026-04-18T17:10:55.974Z</time></trkpt><trkpt lat="45.0336765" lon="7.8633069"><ele>278.0</ele><time>2026-04-18T17:10:56.962Z</time></trkpt><trkpt lat="45.0335646" lon="7.8630962"><ele>278.0</ele><time>2026-04-18T17:10:57.971Z</time></trkpt><trkpt lat="45.0334534" lon="7.8628866"><ele>278.0</ele><time>2026-04-18T17:10:58.967Z</time></trkpt><trkpt lat="45.0333404" lon="7.8626747"><ele>278.33333333333337</ele><time>2026-04-18T17:10:59.971Z</time></trkpt><trkpt lat="45.0332255" lon="7.8624615"><ele>278.6666666666667</ele><time>2026-04-18T17:11:00.965Z</time></trkpt><trkpt lat="45.033111" lon="7.8622448"><ele>279.0</ele><time>2026-04-18T17:11:01.975Z</time></trkpt><trkpt lat="45.0329972" lon="7.862028"><ele>279.0</ele><time>2026-04-18T17:11:02.959Z</time></trkpt><trkpt lat="45.0328838" lon="7.8618109"><ele>279.0</ele><time>2026-04-18T17:11:03.967Z</time></trkpt><trkpt lat="45.0327694" lon="7.8615931"><ele>279.0</ele><time>2026-04-18T17:11:04.975Z</time></trkpt><trkpt lat="45.0326519" lon="7.8613787"><ele>279.0</ele><time>2026-04-18T17:11:05.967Z</time></trkpt><trkpt lat="45.0325347" lon="7.861163"><ele>279.0</ele><time>2026-04-18T17:11:06.97Z</time></trkpt><trkpt lat="45.0324197" lon="7.8609504"><ele>279.0</ele><time>2026-04-18T17:11:07.959Z</time></trkpt><trkpt lat="45.0323062" lon="7.8607367"><ele>279.0</ele><time>2026-04-18T17:11:08.97Z</time></trkpt><trkpt lat="45.0321924" lon="7.8605228"><ele>279.0</ele><time>2026-04-18T17:11:09.974Z</time></trkpt><trkpt lat="45.0320785" lon="7.8603102"><ele>279.0</ele><time>2026-04-18T17:11:10.968Z</time></trkpt><trkpt lat="45.0319637" lon="7.8600993"><ele>279.3333333333333</ele><time>2026-04-18T17:11:11.964Z</time></trkpt><trkpt lat="45.0318509" lon="7.8598883"><ele>279.66666666666663</ele><time>2026-04-18T17:11:12.97Z</time></trkpt><trkpt lat="45.031738" lon="7.8596755"><ele>280.0</ele><time>2026-04-18T17:11:13.962Z</time></trkpt><trkpt lat="45.0316228" lon="7.859463"><ele>280.3333333333333</ele><time>2026-04-18T17:11:14.969Z</time></trkpt><trkpt lat="45.0315085" lon="7.85925"><ele>280.6666666666667</ele><time>2026-04-18T17:11:15.956Z</time></trkpt><trkpt lat="45.031394" lon="7.8590377"><ele>281.0</ele><time>2026-04-18T17:11:16.962Z</time></trkpt><trkpt lat="45.0312793" lon="7.8588283"><ele>281.0</ele><time>2026-04-18T17:11:17.969Z</time></trkpt><trkpt lat="45.0311668" lon="7.8586221"><ele>281.0</ele><time>2026-04-18T17:11:18.963Z</time></trkpt><trkpt lat="45.0310573" lon="7.8584181"><ele>281.0</ele><time>2026-04-18T17:11:19.956Z</time></trkpt><trkpt lat="45.0309503" lon="7.8582157"><ele>281.0</ele><time>2026-04-18T17:11:20.961Z</time></trkpt><trkpt lat="45.0308467" lon="7.8580217"><ele>281.0</ele><time>2026-04-18T17:11:21.965Z</time></trkpt><trkpt lat="45.0307477" lon="7.8578357"><ele>281.0</ele><time>2026-04-18T17:11:22.975Z</time></trkpt><trkpt lat="45.0306558" lon="7.8576613"><ele>281.25</ele><time>2026-04-18T17:11:23.966Z</time></trkpt><trkpt lat="45.0305665" lon="7.8574965"><ele>281.5</ele><time>2026-04-18T17:11:24.965Z</time></trkpt><trkpt lat="45.0304818" lon="7.8573436"><ele>281.75</ele><time>2026-04-18T17:11:25.959Z</time></trkpt><trkpt lat="45.0304056" lon="7.857201"><ele>282.0</ele><time>2026-04-18T17:11:26.974Z</time></trkpt><trkpt lat="45.0303416" lon="7.8570772"><ele>282.0</ele><time>2026-04-18T17:11:27.966Z</time></trkpt><trkpt lat="45.0302923" lon="7.8569672"><ele>282.0</ele><time>2026-04-18T17:11:28.963Z</time></trkpt><trkpt lat="45.030257" lon="7.8568649"><ele>282.0</ele><time>2026-04-18T17:11:29.974Z</time></trkpt><trkpt lat="45.0302378" lon="7.8567592"><ele>282.0</ele><time>2026-04-18T17:11:30.966Z</time></trkpt><trkpt lat="45.0302357" lon="7.8566573"><ele>282.0</ele><time>2026-04-18T17:11:31.969Z</time></trkpt><trkpt lat="45.0302392" lon="7.8565593"><ele>282.0</ele><time>2026-04-18T17:11:32.975Z</time></trkpt><trkpt lat="45.0302245" lon="7.8564718"><ele>281.8571428571429</ele><time>2026-04-18T17:11:33.971Z</time></trkpt><trkpt lat="45.0301832" lon="7.8563964"><ele>281.7142857142857</ele><time>2026-04-18T17:11:34.967Z</time></trkpt><trkpt lat="45.0301213" lon="7.856351"><ele>281.57142857142856</ele><time>2026-04-18T17:11:35.974Z</time></trkpt><trkpt lat="45.0300529" lon="7.8563215"><ele>281.42857142857144</ele><time>2026-04-18T17:11:36.968Z</time></trkpt><trkpt lat="45.0299877" lon="7.8562866"><ele>281.2857142857143</ele><time>2026-04-18T17:11:37.963Z</time></trkpt><trkpt lat="45.0299274" lon="7.8562455"><ele>281.14285714285717</ele><time>2026-04-18T17:11:38.968Z</time></trkpt><trkpt lat="45.0298777" lon="7.8561906"><ele>281.0</ele><time>2026-04-18T17:11:39.97Z</time></trkpt><trkpt lat="45.0297975" lon="7.8560666"><ele>281.40000000000003</ele><time>2026-04-18T17:11:41.966Z</time></trkpt><trkpt lat="45.0297258" lon="7.8559405"><ele>281.8</ele><time>2026-04-18T17:11:43.956Z</time></trkpt><trkpt lat="45.0296785" lon="7.8558569"><ele>282.20000000000005</ele><time>2026-04-18T17:11:44.963Z</time></trkpt><trkpt lat="45.0296241" lon="7.8557568"><ele>282.6</ele><time>2026-04-18T17:11:45.959Z</time></trkpt><trkpt lat="45.0295655" lon="7.8556453"><ele>283.0</ele><time>2026-04-18T17:11:46.966Z</time></trkpt><trkpt lat="45.0295016" lon="7.8555273"><ele>283.0</ele><time>2026-04-18T17:11:47.971Z</time></trkpt><trkpt lat="45.0294388" lon="7.855413"><ele>283.0</ele><time>2026-04-18T17:11:48.975Z</time></trkpt><trkpt lat="45.0293785" lon="7.8553034"><ele>283.0</ele><time>2026-04-18T17:11:49.969Z</time></trkpt><trkpt lat="45.0293208" lon="7.855198"><ele>283.0</ele><time>2026-04-18T17:11:50.964Z</time></trkpt><trkpt lat="45.0292769" lon="7.8551063"><ele>283.0</ele><time>2026-04-18T17:11:51.969Z</time></trkpt><trkpt lat="45.0292569" lon="7.8549616"><ele>283.0</ele><time>2026-04-18T17:11:53.969Z</time></trkpt><trkpt lat="45.0292814" lon="7.8548322"><ele>283.0</ele><time>2026-04-18T17:11:55.969Z</time></trkpt><trkpt lat="45.0292855" lon="7.8546993"><ele>283.0</ele><time>2026-04-18T17:11:57.967Z</time></trkpt><trkpt lat="45.029264" lon="7.8545913"><ele>283.0</ele><time>2026-04-18T17:11:59.975Z</time></trkpt><trkpt lat="45.0292268" lon="7.8545134"><ele>283.0</ele><time>2026-04-18T17:12:01.972Z</time></trkpt><trkpt lat="45.0291361" lon="7.8544998"><ele>283.0</ele><time>2026-04-18T17:19:52.958Z</time></trkpt><trkpt lat="45.029071" lon="7.8544929"><ele>283.0</ele><time>2026-04-18T17:19:54.966Z</time></trkpt><trkpt lat="45.0289933" lon="7.8544737"><ele>283.0</ele><time>2026-04-18T17:19:57.967Z</time></trkpt><trkpt lat="45.028923" lon="7.8544314"><ele>283.0</ele><time>2026-04-18T17:20:05.965Z</time></trkpt><trkpt lat="45.0288347" lon="7.8543155"><ele>283.0</ele><time>2026-04-18T17:20:07.968Z</time></trkpt><trkpt lat="45.0287919" lon="7.8542289"><ele>283.0</ele><time>2026-04-18T17:20:08.975Z</time></trkpt><trkpt lat="45.0287372" lon="7.8541257"><ele>283.0</ele><time>2026-04-18T17:20:09.965Z</time></trkpt><trkpt lat="45.0286738" lon="7.8540093"><ele>283.8</ele><time>2026-04-18T17:20:10.964Z</time></trkpt><trkpt lat="45.0286076" lon="7.853887"><ele>284.6</ele><time>2026-04-18T17:20:11.969Z</time></trkpt><trkpt lat="45.0285439" lon="7.8537663"><ele>285.4</ele><time>2026-04-18T17:20:12.974Z</time></trkpt><trkpt lat="45.0284779" lon="7.853641"><ele>286.2</ele><time>2026-04-18T17:20:13.962Z</time></trkpt><trkpt lat="45.0284072" lon="7.8535089"><ele>287.0</ele><time>2026-04-18T17:20:14.974Z</time></trkpt><trkpt lat="45.0283314" lon="7.8533689"><ele>287.0</ele><time>2026-04-18T17:20:15.975Z</time></trkpt><trkpt lat="45.0282518" lon="7.8532213"><ele>287.0</ele><time>2026-04-18T17:20:16.962Z</time></trkpt><trkpt lat="45.0281682" lon="7.8530693"><ele>287.0</ele><time>2026-04-18T17:20:17.964Z</time></trkpt><trkpt lat="45.0280802" lon="7.852912"><ele>287.0</ele><time>2026-04-18T17:20:18.964Z</time></trkpt><trkpt lat="45.0279917" lon="7.8527529"><ele>287.25</ele><time>2026-04-18T17:20:19.961Z</time></trkpt><trkpt lat="45.0279075" lon="7.8526037"><ele>287.5</ele><time>2026-04-18T17:20:20.97Z</time></trkpt><trkpt lat="45.0278278" lon="7.8524594"><ele>287.75</ele><time>2026-04-18T17:20:21.968Z</time></trkpt><trkpt lat="45.0277491" lon="7.8523171"><ele>288.0</ele><time>2026-04-18T17:20:22.974Z</time></trkpt><trkpt lat="45.0276693" lon="7.8521745"><ele>288.0</ele><time>2026-04-18T17:20:23.967Z</time></trkpt><trkpt lat="45.027596" lon="7.8520398"><ele>288.0</ele><time>2026-04-18T17:20:24.965Z</time></trkpt><trkpt lat="45.0275284" lon="7.8519189"><ele>288.0</ele><time>2026-04-18T17:20:25.975Z</time></trkpt><trkpt lat="45.0274609" lon="7.8517944"><ele>288.0</ele><time>2026-04-18T17:20:26.966Z</time></trkpt><trkpt lat="45.0273925" lon="7.8516578"><ele>287.75</ele><time>2026-04-18T17:20:27.974Z</time></trkpt><trkpt lat="45.0273163" lon="7.8515145"><ele>287.5</ele><time>2026-04-18T17:20:28.975Z</time></trkpt><trkpt lat="45.0272359" lon="7.8513662"><ele>287.25</ele><time>2026-04-18T17:20:29.975Z</time></trkpt><trkpt lat="45.0271596" lon="7.8512254"><ele>287.0</ele><time>2026-04-18T17:20:30.969Z</time></trkpt><trkpt lat="45.0270931" lon="7.8511012"><ele>287.0</ele><time>2026-04-18T17:20:31.972Z</time></trkpt><trkpt lat="45.0270403" lon="7.8510022"><ele>287.0</ele><time>2026-04-18T17:20:32.968Z</time></trkpt><trkpt lat="45.0269983" lon="7.850924"><ele>287.0</ele><time>2026-04-18T17:20:33.965Z</time></trkpt><trkpt lat="45.0269476" lon="7.8508291"><ele>287.0</ele><time>2026-04-18T17:20:35.965Z</time></trkpt><trkpt lat="45.0268991" lon="7.8507383"><ele>287.0</ele><time>2026-04-18T17:20:39.974Z</time></trkpt><trkpt lat="45.0268557" lon="7.8506482"><ele>287.0</ele><time>2026-04-18T17:20:43.963Z</time></trkpt><trkpt lat="45.0268218" lon="7.8505674"><ele>287.1666666666667</ele><time>2026-04-18T17:20:45.972Z</time></trkpt><trkpt lat="45.0267979" lon="7.8504359"><ele>287.33333333333337</ele><time>2026-04-18T17:20:47.965Z</time></trkpt><trkpt lat="45.0268163" lon="7.8502759"><ele>287.5</ele><time>2026-04-18T17:20:49.958Z</time></trkpt><trkpt lat="45.0268162" lon="7.850183"><ele>287.6666666666667</ele><time>2026-04-18T17:20:50.957Z</time></trkpt><trkpt lat="45.0267935" lon="7.8500838"><ele>287.8333333333333</ele><time>2026-04-18T17:20:51.954Z</time></trkpt><trkpt lat="45.0267439" lon="7.8499946"><ele>288.0</ele><time>2026-04-18T17:20:52.958Z</time></trkpt><trkpt lat="45.0266712" lon="7.8499324"><ele>287.8</ele><time>2026-04-18T17:20:53.954Z</time></trkpt><trkpt lat="45.0265788" lon="7.8498806"><ele>287.6</ele><time>2026-04-18T17:20:54.955Z</time></trkpt><trkpt lat="45.0264971" lon="7.8498112"><ele>287.4</ele><time>2026-04-18T17:20:55.961Z</time></trkpt><trkpt lat="45.0264215" lon="7.8497237"><ele>287.2</ele><time>2026-04-18T17:20:56.958Z</time></trkpt><trkpt lat="45.0263475" lon="7.8496246"><ele>287.0</ele><time>2026-04-18T17:20:57.961Z</time></trkpt><trkpt lat="45.0262721" lon="7.8495127"><ele>287.0</ele><time>2026-04-18T17:20:58.974Z</time></trkpt><trkpt lat="45.0261944" lon="7.8493898"><ele>287.0</ele><time>2026-04-18T17:20:59.956Z</time></trkpt><trkpt lat="45.026114" lon="7.8492535"><ele>287.0</ele><time>2026-04-18T17:21:00.959Z</time></trkpt><trkpt lat="45.0260283" lon="7.849105"><ele>287.0</ele><time>2026-04-18T17:21:01.973Z</time></trkpt><trkpt lat="45.02594" lon="7.8489453"><ele>287.0</ele><time>2026-04-18T17:21:02.958Z</time></trkpt><trkpt lat="45.0258441" lon="7.8487734"><ele>287.0</ele><time>2026-04-18T17:21:03.96Z</time></trkpt><trkpt lat="45.0257309" lon="7.8485756"><ele>287.0</ele><time>2026-04-18T17:21:04.958Z</time></trkpt><trkpt lat="45.0256179" lon="7.8483603"><ele>288.0</ele><time>2026-04-18T17:21:05.96Z</time></trkpt><trkpt lat="45.0255081" lon="7.8481433"><ele>289.0</ele><time>2026-04-18T17:21:06.969Z</time></trkpt><trkpt lat="45.0253913" lon="7.8479206"><ele>290.0</ele><time>2026-04-18T17:21:07.974Z</time></trkpt><trkpt lat="45.0252748" lon="7.8477041"><ele>289.6666666666667</ele><time>2026-04-18T17:21:08.96Z</time></trkpt><trkpt lat="45.0251596" lon="7.8474917"><ele>289.3333333333333</ele><time>2026-04-18T17:21:09.959Z</time></trkpt><trkpt lat="45.0250453" lon="7.8472827"><ele>289.0</ele><time>2026-04-18T17:21:10.963Z</time></trkpt><trkpt lat="45.0249316" lon="7.8470762"><ele>288.66666666666663</ele><time>2026-04-18T17:21:11.975Z</time></trkpt><trkpt lat="45.0248174" lon="7.8468698"><ele>288.3333333333333</ele><time>2026-04-18T17:21:12.966Z</time></trkpt><trkpt lat="45.0247034" lon="7.8466619"><ele>288.0</ele><time>2026-04-18T17:21:13.974Z</time></trkpt><trkpt lat="45.0245898" lon="7.8464532"><ele>288.0</ele><time>2026-04-18T17:21:14.967Z</time></trkpt><trkpt lat="45.0244778" lon="7.8462471"><ele>288.0</ele><time>2026-04-18T17:21:15.968Z</time></trkpt><trkpt lat="45.0243672" lon="7.8460476"><ele>288.0</ele><time>2026-04-18T17:21:16.974Z</time></trkpt><trkpt lat="45.0242588" lon="7.8458478"><ele>288.6666666666667</ele><time>2026-04-18T17:21:17.967Z</time></trkpt><trkpt lat="45.0241509" lon="7.8456514"><ele>289.33333333333337</ele><time>2026-04-18T17:21:18.974Z</time></trkpt><trkpt lat="45.0240447" lon="7.8454574"><ele>290.0</ele><time>2026-04-18T17:21:19.968Z</time></trkpt><trkpt lat="45.0239395" lon="7.8452653"><ele>290.6666666666667</ele><time>2026-04-18T17:21:20.975Z</time></trkpt><trkpt lat="45.0238332" lon="7.8450723"><ele>291.3333333333333</ele><time>2026-04-18T17:21:21.974Z</time></trkpt><trkpt lat="45.0237277" lon="7.8448801"><ele>292.0</ele><time>2026-04-18T17:21:22.974Z</time></trkpt><trkpt lat="45.0236228" lon="7.8446871"><ele>292.0</ele><time>2026-04-18T17:21:23.96Z</time></trkpt><trkpt lat="45.0235199" lon="7.844496"><ele>292.0</ele><time>2026-04-18T17:21:24.965Z</time></trkpt><trkpt lat="45.0234179" lon="7.8443086"><ele>292.0</ele><time>2026-04-18T17:21:25.97Z</time></trkpt><trkpt lat="45.0233187" lon="7.8441257"><ele>294.0</ele><time>2026-04-18T17:21:26.968Z</time></trkpt><trkpt lat="45.0232218" lon="7.8439461"><ele>296.0</ele><time>2026-04-18T17:21:27.967Z</time></trkpt><trkpt lat="45.0231259" lon="7.8437671"><ele>298.0</ele><time>2026-04-18T17:21:28.975Z</time></trkpt><trkpt lat="45.0230299" lon="7.8435886"><ele>298.0</ele><time>2026-04-18T17:21:29.975Z</time></trkpt><trkpt lat="45.0229377" lon="7.8434186"><ele>298.0</ele><time>2026-04-18T17:21:30.961Z</time></trkpt><trkpt lat="45.02285" lon="7.8432596"><ele>298.0</ele><time>2026-04-18T17:21:31.974Z</time></trkpt><trkpt lat="45.0227679" lon="7.8431132"><ele>298.0</ele><time>2026-04-18T17:21:32.958Z</time></trkpt><trkpt lat="45.0226977" lon="7.8429934"><ele>298.0</ele><time>2026-04-18T17:21:33.975Z</time></trkpt><trkpt lat="45.0226342" lon="7.8428943"><ele>298.0</ele><time>2026-04-18T17:21:34.963Z</time></trkpt><trkpt lat="45.022581" lon="7.8428157"><ele>298.0</ele><time>2026-04-18T17:21:35.974Z</time></trkpt><trkpt lat="45.0225362" lon="7.8427382"><ele>298.0</ele><time>2026-04-18T17:21:36.969Z</time></trkpt><trkpt lat="45.0225006" lon="7.8426499"><ele>298.0</ele><time>2026-04-18T17:21:37.966Z</time></trkpt><trkpt lat="45.0224708" lon="7.8425419"><ele>298.0</ele><time>2026-04-18T17:21:38.964Z</time></trkpt><trkpt lat="45.022444" lon="7.8424118"><ele>298.0</ele><time>2026-04-18T17:21:39.961Z</time></trkpt><trkpt lat="45.0224216" lon="7.8422583"><ele>298.0</ele><time>2026-04-18T17:21:40.966Z</time></trkpt><trkpt lat="45.0224046" lon="7.8420889"><ele>298.0</ele><time>2026-04-18T17:21:41.971Z</time></trkpt><trkpt lat="45.0223921" lon="7.8419063"><ele>298.0</ele><time>2026-04-18T17:21:42.962Z</time></trkpt><trkpt lat="45.0223854" lon="7.841719"><ele>298.25</ele><time>2026-04-18T17:21:43.956Z</time></trkpt><trkpt lat="45.0223847" lon="7.8415349"><ele>298.5</ele><time>2026-04-18T17:21:44.972Z</time></trkpt><trkpt lat="45.0223887" lon="7.8413528"><ele>298.75</ele><time>2026-04-18T17:21:45.967Z</time></trkpt><trkpt lat="45.0223939" lon="7.8411732"><ele>299.0</ele><time>2026-04-18T17:21:46.975Z</time></trkpt><trkpt lat="45.0223971" lon="7.8409908"><ele>299.0</ele><time>2026-04-18T17:21:47.956Z</time></trkpt><trkpt lat="45.0223997" lon="7.840809"><ele>299.0</ele><time>2026-04-18T17:21:48.96Z</time></trkpt><trkpt lat="45.0223945" lon="7.8406285"><ele>299.0</ele><time>2026-04-18T17:21:49.969Z</time></trkpt><trkpt lat="45.0223819" lon="7.8404433"><ele>299.0</ele><time>2026-04-18T17:21:50.965Z</time></trkpt><trkpt lat="45.0223616" lon="7.8402485"><ele>301.6666666666667</ele><time>2026-04-18T17:21:51.962Z</time></trkpt><trkpt lat="45.0223367" lon="7.8400403"><ele>304.3333333333333</ele><time>2026-04-18T17:21:52.956Z</time></trkpt><trkpt lat="45.0222999" lon="7.8398218"><ele>307.0</ele><time>2026-04-18T17:21:53.953Z</time></trkpt><trkpt lat="45.0222525" lon="7.8396022"><ele>307.0</ele><time>2026-04-18T17:21:54.972Z</time></trkpt><trkpt lat="45.0221975" lon="7.8393774"><ele>307.0</ele><time>2026-04-18T17:21:55.959Z</time></trkpt><trkpt lat="45.0221379" lon="7.8391658"><ele>307.0</ele><time>2026-04-18T17:21:56.963Z</time></trkpt><trkpt lat="45.0220748" lon="7.8389685"><ele>307.0</ele><time>2026-04-18T17:21:57.972Z</time></trkpt><trkpt lat="45.0220121" lon="7.8387913"><ele>307.0</ele><time>2026-04-18T17:21:58.96Z</time></trkpt><trkpt lat="45.0219488" lon="7.8386357"><ele>307.0</ele><time>2026-04-18T17:21:59.971Z</time></trkpt><trkpt lat="45.0218859" lon="7.8384902"><ele>307.0</ele><time>2026-04-18T17:22:00.956Z</time></trkpt><trkpt lat="45.0218224" lon="7.8383599"><ele>305.4</ele><time>2026-04-18T17:22:01.964Z</time></trkpt><trkpt lat="45.0217594" lon="7.8382405"><ele>303.79999999999995</ele><time>2026-04-18T17:22:02.974Z</time></trkpt><trkpt lat="45.0216978" lon="7.8381315"><ele>302.2</ele><time>2026-04-18T17:22:03.974Z</time></trkpt><trkpt lat="45.021646" lon="7.8380351"><ele>300.59999999999997</ele><time>2026-04-18T17:22:04.965Z</time></trkpt><trkpt lat="45.0216028" lon="7.837956"><ele>299.0</ele><time>2026-04-18T17:22:05.974Z</time></trkpt><trkpt lat="45.0215535" lon="7.8378201"><ele>298.0</ele><time>2026-04-18T17:22:07.965Z</time></trkpt><trkpt lat="45.0215285" lon="7.83768"><ele>297.0</ele><time>2026-04-18T17:22:09.96Z</time></trkpt><trkpt lat="45.0214291" lon="7.8375451"><ele>296.0</ele><time>2026-04-18T17:22:11.975Z</time></trkpt><trkpt lat="45.0213524" lon="7.8374707"><ele>295.0</ele><time>2026-04-18T17:22:12.97Z</time></trkpt><trkpt lat="45.0212717" lon="7.8373704"><ele>294.0</ele><time>2026-04-18T17:22:13.966Z</time></trkpt><trkpt lat="45.0211907" lon="7.8372512"><ele>293.25</ele><time>2026-04-18T17:22:14.963Z</time></trkpt><trkpt lat="45.0211104" lon="7.8371264"><ele>292.5</ele><time>2026-04-18T17:22:15.967Z</time></trkpt><trkpt lat="45.0210325" lon="7.8369985"><ele>291.75</ele><time>2026-04-18T17:22:16.975Z</time></trkpt><trkpt lat="45.020954" lon="7.8368683"><ele>291.0</ele><time>2026-04-18T17:22:17.975Z</time></trkpt><trkpt lat="45.0208746" lon="7.8367394"><ele>290.5</ele><time>2026-04-18T17:22:18.974Z</time></trkpt><trkpt lat="45.0207952" lon="7.836612"><ele>290.0</ele><time>2026-04-18T17:22:19.975Z</time></trkpt><trkpt lat="45.0207172" lon="7.8364841"><ele>289.5</ele><time>2026-04-18T17:22:20.964Z</time></trkpt><trkpt lat="45.0206387" lon="7.8363574"><ele>289.0</ele><time>2026-04-18T17:22:21.959Z</time></trkpt><trkpt lat="45.0205613" lon="7.8362324"><ele>289.0</ele><time>2026-04-18T17:22:22.973Z</time></trkpt><trkpt lat="45.0204858" lon="7.836109"><ele>289.0</ele><time>2026-04-18T17:22:23.969Z</time></trkpt><trkpt lat="45.0204108" lon="7.8359849"><ele>289.0</ele><time>2026-04-18T17:22:24.975Z</time></trkpt><trkpt lat="45.0203353" lon="7.8358626"><ele>289.0</ele><time>2026-04-18T17:22:25.975Z</time></trkpt><trkpt lat="45.0202623" lon="7.8357449"><ele>289.0</ele><time>2026-04-18T17:22:26.969Z</time></trkpt><trkpt lat="45.0201934" lon="7.8356295"><ele>289.0</ele><time>2026-04-18T17:22:27.975Z</time></trkpt><trkpt lat="45.0201259" lon="7.8355153"><ele>289.0</ele><time>2026-04-18T17:22:28.972Z</time></trkpt><trkpt lat="45.0200589" lon="7.8354026"><ele>289.0</ele><time>2026-04-18T17:22:29.972Z</time></trkpt><trkpt lat="45.0199905" lon="7.83529"><ele>289.0</ele><time>2026-04-18T17:22:30.965Z</time></trkpt><trkpt lat="45.019923" lon="7.8351807"><ele>289.0</ele><time>2026-04-18T17:22:31.964Z</time></trkpt><trkpt lat="45.0198575" lon="7.8350755"><ele>289.0</ele><time>2026-04-18T17:22:32.959Z</time></trkpt><trkpt lat="45.0197928" lon="7.8349726"><ele>289.0</ele><time>2026-04-18T17:22:33.973Z</time></trkpt><trkpt lat="45.0197296" lon="7.8348696"><ele>289.0</ele><time>2026-04-18T17:22:34.975Z</time></trkpt><trkpt lat="45.0196666" lon="7.834765"><ele>289.0</ele><time>2026-04-18T17:22:35.972Z</time></trkpt><trkpt lat="45.0196016" lon="7.834658"><ele>289.0</ele><time>2026-04-18T17:22:36.967Z</time></trkpt><trkpt lat="45.0195346" lon="7.8345529"><ele>289.0</ele><time>2026-04-18T17:22:37.966Z</time></trkpt><trkpt lat="45.0194676" lon="7.8344424"><ele>289.0</ele><time>2026-04-18T17:22:38.974Z</time></trkpt><trkpt lat="45.0194011" lon="7.8343328"><ele>289.0</ele><time>2026-04-18T17:22:39.973Z</time></trkpt><trkpt lat="45.0193373" lon="7.8342264"><ele>289.0</ele><time>2026-04-18T17:22:40.968Z</time></trkpt><trkpt lat="45.0192743" lon="7.8341244"><ele>289.16666666666663</ele><time>2026-04-18T17:22:41.974Z</time></trkpt><trkpt lat="45.0192131" lon="7.8340237"><ele>289.3333333333333</ele><time>2026-04-18T17:22:42.956Z</time></trkpt><trkpt lat="45.0191549" lon="7.8339237"><ele>289.5</ele><time>2026-04-18T17:22:43.965Z</time></trkpt><trkpt lat="45.0191037" lon="7.8338364"><ele>289.6666666666667</ele><time>2026-04-18T17:22:44.961Z</time></trkpt><trkpt lat="45.0190552" lon="7.8337663"><ele>289.83333333333337</ele><time>2026-04-18T17:22:45.96Z</time></trkpt><trkpt lat="45.0190045" lon="7.8336947"><ele>290.0</ele><time>2026-04-18T17:22:46.973Z</time></trkpt><trkpt lat="45.0189563" lon="7.8336182"><ele>290.0</ele><time>2026-04-18T17:22:47.974Z</time></trkpt><trkpt lat="45.0188922" lon="7.8335099"><ele>290.0</ele><time>2026-04-18T17:22:49.974Z</time></trkpt><trkpt lat="45.0188522" lon="7.8334351"><ele>290.0</ele><time>2026-04-18T17:22:51.974Z</time></trkpt><trkpt lat="45.0188039" lon="7.8333539"><ele>290.0</ele><time>2026-04-18T17:22:54.965Z</time></trkpt><trkpt lat="45.0187218" lon="7.833247"><ele>290.0</ele><time>2026-04-18T17:22:56.974Z</time></trkpt><trkpt lat="45.0186639" lon="7.8331619"><ele>290.0</ele><time>2026-04-18T17:22:57.969Z</time></trkpt><trkpt lat="45.0186036" lon="7.8330601"><ele>290.4</ele><time>2026-04-18T17:22:58.975Z</time></trkpt><trkpt lat="45.018537" lon="7.8329413"><ele>290.8</ele><time>2026-04-18T17:22:59.974Z</time></trkpt><trkpt lat="45.0184678" lon="7.8328214"><ele>291.2</ele><time>2026-04-18T17:23:00.968Z</time></trkpt><trkpt lat="45.0183916" lon="7.8327074"><ele>291.6</ele><time>2026-04-18T17:23:01.962Z</time></trkpt><trkpt lat="45.018309" lon="7.8325887"><ele>292.0</ele><time>2026-04-18T17:23:02.974Z</time></trkpt><trkpt lat="45.0182237" lon="7.8324578"><ele>292.0</ele><time>2026-04-18T17:23:03.975Z</time></trkpt><trkpt lat="45.0181376" lon="7.8323156"><ele>292.0</ele><time>2026-04-18T17:23:04.962Z</time></trkpt><trkpt lat="45.0180522" lon="7.8321701"><ele>292.0</ele><time>2026-04-18T17:23:05.972Z</time></trkpt><trkpt lat="45.0179634" lon="7.8320281"><ele>292.0</ele><time>2026-04-18T17:23:06.974Z</time></trkpt><trkpt lat="45.0178806" lon="7.8318882"><ele>292.6</ele><time>2026-04-18T17:23:07.957Z</time></trkpt><trkpt lat="45.0178004" lon="7.8317559"><ele>293.2</ele><time>2026-04-18T17:23:08.96Z</time></trkpt><trkpt lat="45.0177267" lon="7.8316393"><ele>293.8</ele><time>2026-04-18T17:23:09.975Z</time></trkpt><trkpt lat="45.0176643" lon="7.8315392"><ele>294.4</ele><time>2026-04-18T17:23:10.975Z</time></trkpt><trkpt lat="45.0176107" lon="7.831453"><ele>295.0</ele><time>2026-04-18T17:23:11.974Z</time></trkpt><trkpt lat="45.0175617" lon="7.8313716"><ele>295.0</ele><time>2026-04-18T17:23:12.974Z</time></trkpt><trkpt lat="45.0175144" lon="7.8312939"><ele>295.0</ele><time>2026-04-18T17:23:13.969Z</time></trkpt><trkpt lat="45.0174663" lon="7.8312138"><ele>295.0</ele><time>2026-04-18T17:23:14.959Z</time></trkpt><trkpt lat="45.0174147" lon="7.8311304"><ele>295.0</ele><time>2026-04-18T17:23:15.975Z</time></trkpt><trkpt lat="45.0173602" lon="7.8310468"><ele>295.0</ele><time>2026-04-18T17:23:16.97Z</time></trkpt><trkpt lat="45.0173088" lon="7.8309637"><ele>295.0</ele><time>2026-04-18T17:23:17.974Z</time></trkpt><trkpt lat="45.0172548" lon="7.8308797"><ele>294.6</ele><time>2026-04-18T17:23:18.974Z</time></trkpt><trkpt lat="45.0172033" lon="7.8307979"><ele>294.2</ele><time>2026-04-18T17:23:19.954Z</time></trkpt><trkpt lat="45.0171521" lon="7.8307166"><ele>293.8</ele><time>2026-04-18T17:23:20.974Z</time></trkpt><trkpt lat="45.0170957" lon="7.8306205"><ele>293.4</ele><time>2026-04-18T17:23:21.954Z</time></trkpt><trkpt lat="45.0170304" lon="7.8305073"><ele>293.0</ele><time>2026-04-18T17:23:22.953Z</time></trkpt><trkpt lat="45.0169575" lon="7.8303872"><ele>293.0</ele><time>2026-04-18T17:23:23.957Z</time></trkpt><trkpt lat="45.0168793" lon="7.8302627"><ele>293.0</ele><time>2026-04-18T17:23:24.969Z</time></trkpt><trkpt lat="45.0168" lon="7.830141"><ele>293.0</ele><time>2026-04-18T17:23:25.974Z</time></trkpt><trkpt lat="45.0167218" lon="7.8300204"><ele>293.0</ele><time>2026-04-18T17:23:26.966Z</time></trkpt><trkpt lat="45.0166457" lon="7.8299025"><ele>292.8</ele><time>2026-04-18T17:23:27.956Z</time></trkpt><trkpt lat="45.016575" lon="7.8297906"><ele>292.6</ele><time>2026-04-18T17:23:28.968Z</time></trkpt><trkpt lat="45.0165142" lon="7.8296848"><ele>292.4</ele><time>2026-04-18T17:23:29.955Z</time></trkpt><trkpt lat="45.01646" lon="7.8295926"><ele>292.2</ele><time>2026-04-18T17:23:30.959Z</time></trkpt><trkpt lat="45.0164136" lon="7.8295128"><ele>292.0</ele><time>2026-04-18T17:23:31.955Z</time></trkpt><trkpt lat="45.016343" lon="7.829395"><ele>291.8</ele><time>2026-04-18T17:23:33.974Z</time></trkpt><trkpt lat="45.0162962" lon="7.829301"><ele>291.6</ele><time>2026-04-18T17:23:36.954Z</time></trkpt><trkpt lat="45.0162504" lon="7.8292378"><ele>291.40000000000003</ele><time>2026-04-18T17:24:17.968Z</time></trkpt><trkpt lat="45.0161905" lon="7.829118"><ele>291.2</ele><time>2026-04-18T17:24:19.975Z</time></trkpt><trkpt lat="45.0161136" lon="7.828977"><ele>291.0</ele><time>2026-04-18T17:24:21.964Z</time></trkpt><trkpt lat="45.0160652" lon="7.8288869"><ele>291.0</ele><time>2026-04-18T17:24:22.959Z</time></trkpt><trkpt lat="45.0160134" lon="7.8287924"><ele>291.0</ele><time>2026-04-18T17:24:23.96Z</time></trkpt><trkpt lat="45.0159604" lon="7.8286995"><ele>291.0</ele><time>2026-04-18T17:24:24.971Z</time></trkpt><trkpt lat="45.0159093" lon="7.8286121"><ele>291.0</ele><time>2026-04-18T17:24:25.955Z</time></trkpt><trkpt lat="45.0158574" lon="7.8285182"><ele>291.0</ele><time>2026-04-18T17:24:26.975Z</time></trkpt><trkpt lat="45.0158095" lon="7.8284263"><ele>291.0</ele><time>2026-04-18T17:24:27.97Z</time></trkpt><trkpt lat="45.0157658" lon="7.8283374"><ele>291.3333333333333</ele><time>2026-04-18T17:24:28.962Z</time></trkpt><trkpt lat="45.0157225" lon="7.8282515"><ele>291.6666666666667</ele><time>2026-04-18T17:24:29.971Z</time></trkpt><trkpt lat="45.0156768" lon="7.8281661"><ele>292.0</ele><time>2026-04-18T17:24:30.973Z</time></trkpt><trkpt lat="45.015626" lon="7.8280844"><ele>292.33333333333337</ele><time>2026-04-18T17:24:31.963Z</time></trkpt><trkpt lat="45.0155695" lon="7.8280032"><ele>292.6666666666667</ele><time>2026-04-18T17:24:32.975Z</time></trkpt><trkpt lat="45.0155076" lon="7.8279213"><ele>293.0</ele><time>2026-04-18T17:24:33.975Z</time></trkpt><trkpt lat="45.015442" lon="7.8278405"><ele>293.0</ele><time>2026-04-18T17:24:34.955Z</time></trkpt><trkpt lat="45.015375" lon="7.8277614"><ele>293.0</ele><time>2026-04-18T17:24:35.968Z</time></trkpt><trkpt lat="45.0153063" lon="7.8276845"><ele>293.0</ele><time>2026-04-18T17:24:36.966Z</time></trkpt><trkpt lat="45.0152361" lon="7.8276149"><ele>293.0</ele><time>2026-04-18T17:24:37.97Z</time></trkpt><trkpt lat="45.0151655" lon="7.8275489"><ele>293.0</ele><time>2026-04-18T17:24:38.96Z</time></trkpt><trkpt lat="45.015096" lon="7.827489"><ele>293.0</ele><time>2026-04-18T17:24:39.97Z</time></trkpt><trkpt lat="45.0150279" lon="7.8274359"><ele>294.6666666666667</ele><time>2026-04-18T17:24:40.963Z</time></trkpt><trkpt lat="45.0149631" lon="7.8273848"><ele>296.33333333333337</ele><time>2026-04-18T17:24:41.957Z</time></trkpt><trkpt lat="45.014904" lon="7.8273412"><ele>298.0</ele><time>2026-04-18T17:24:42.974Z</time></trkpt><trkpt lat="45.0148245" lon="7.8272763"><ele>299.6666666666667</ele><time>2026-04-18T17:24:44.959Z</time></trkpt><trkpt lat="45.0147727" lon="7.8272194"><ele>301.3333333333333</ele><time>2026-04-18T17:24:46.961Z</time></trkpt><trkpt lat="45.0147598" lon="7.8271045"><ele>303.0</ele><time>2026-04-18T17:24:49.969Z</time></trkpt><trkpt lat="45.0148012" lon="7.8269896"><ele>303.0</ele><time>2026-04-18T17:24:51.975Z</time></trkpt><trkpt lat="45.0148674" lon="7.8268311"><ele>303.0</ele><time>2026-04-18T17:24:53.971Z</time></trkpt><trkpt lat="45.0149051" lon="7.8267415"><ele>303.0</ele><time>2026-04-18T17:24:54.963Z</time></trkpt><trkpt lat="45.0149405" lon="7.8266518"><ele>303.0</ele><time>2026-04-18T17:24:55.974Z</time></trkpt><trkpt lat="45.0149738" lon="7.8265693"><ele>303.0</ele><time>2026-04-18T17:24:56.958Z</time></trkpt><trkpt lat="45.0149991" lon="7.8264858"><ele>303.0</ele><time>2026-04-18T17:24:57.962Z</time></trkpt><trkpt lat="45.0150205" lon="7.8263085"><ele>302.1666666666667</ele><time>2026-04-18T17:24:59.935Z</time></trkpt><trkpt lat="45.015031" lon="7.8261277"><ele>301.3333333333333</ele><time>2026-04-18T17:25:01.931Z</time></trkpt><trkpt lat="45.0150354" lon="7.8260207"><ele>300.5</ele><time>2026-04-18T17:25:02.924Z</time></trkpt><trkpt lat="45.0150386" lon="7.8259229"><ele>299.66666666666663</ele><time>2026-04-18T17:25:03.932Z</time></trkpt><trkpt lat="45.0150418" lon="7.8258181"><ele>298.8333333333333</ele><time>2026-04-18T17:25:04.931Z</time></trkpt><trkpt lat="45.0150419" lon="7.8257242"><ele>298.0</ele><time>2026-04-18T17:25:05.931Z</time></trkpt><trkpt lat="45.0150358" lon="7.8256276"><ele>298.0</ele><time>2026-04-18T17:25:06.931Z</time></trkpt><trkpt lat="45.0150205" lon="7.8255358"><ele>298.0</ele><time>2026-04-18T17:25:07.931Z</time></trkpt><trkpt lat="45.0149981" lon="7.8254492"><ele>298.0</ele><time>2026-04-18T17:25:08.932Z</time></trkpt><trkpt lat="45.014967" lon="7.8253549"><ele>298.0</ele><time>2026-04-18T17:25:09.931Z</time></trkpt><trkpt lat="45.0149353" lon="7.8252625"><ele>298.0</ele><time>2026-04-18T17:25:10.932Z</time></trkpt><trkpt lat="45.0149033" lon="7.8251687"><ele>298.0</ele><time>2026-04-18T17:25:11.932Z</time></trkpt><trkpt lat="45.0148694" lon="7.825075"><ele>298.0</ele><time>2026-04-18T17:25:12.932Z</time></trkpt><trkpt lat="45.0148354" lon="7.8249832"><ele>297.8333333333333</ele><time>2026-04-18T17:25:13.931Z</time></trkpt><trkpt lat="45.0148003" lon="7.8248921"><ele>297.66666666666663</ele><time>2026-04-18T17:25:14.932Z</time></trkpt><trkpt lat="45.0147638" lon="7.8248037"><ele>297.5</ele><time>2026-04-18T17:25:15.931Z</time></trkpt><trkpt lat="45.01473" lon="7.8247229"><ele>297.3333333333333</ele><time>2026-04-18T17:25:16.931Z</time></trkpt><trkpt lat="45.0146955" lon="7.824644"><ele>297.1666666666667</ele><time>2026-04-18T17:25:17.932Z</time></trkpt><trkpt lat="45.0146254" lon="7.8245079"><ele>297.0</ele><time>2026-04-18T17:25:19.931Z</time></trkpt><trkpt lat="45.0145567" lon="7.8243851"><ele>296.6</ele><time>2026-04-18T17:25:21.932Z</time></trkpt><trkpt lat="45.0144874" lon="7.8242805"><ele>296.2</ele><time>2026-04-18T17:25:23.932Z</time></trkpt><trkpt lat="45.0144333" lon="7.8242095"><ele>295.8</ele><time>2026-04-18T17:25:28.932Z</time></trkpt><trkpt lat="45.014366" lon="7.8241155"><ele>295.4</ele><time>2026-04-18T17:25:33.932Z</time></trkpt><trkpt lat="45.0142966" lon="7.8240448"><ele>295.0</ele><time>2026-04-18T17:25:38.931Z</time></trkpt><trkpt lat="45.0142258" lon="7.8239456"><ele>295.0</ele><time>2026-04-18T17:25:41.932Z</time></trkpt><trkpt lat="45.0141745" lon="7.8238709"><ele>295.0</ele><time>2026-04-18T17:25:43.932Z</time></trkpt><trkpt lat="45.014095" lon="7.8237754"><ele>295.0</ele><time>2026-04-18T17:25:45.932Z</time></trkpt><trkpt lat="45.0140005" lon="7.8236655"><ele>295.0</ele><time>2026-04-18T17:25:47.931Z</time></trkpt><trkpt lat="45.0139265" lon="7.8235732"><ele>295.0</ele><time>2026-04-18T17:25:49.931Z</time></trkpt><trkpt lat="45.0138777" lon="7.8235088"><ele>294.16666666666663</ele><time>2026-04-18T17:26:00.931Z</time></trkpt><trkpt lat="45.0138142" lon="7.8234263"><ele>293.3333333333333</ele><time>2026-04-18T17:26:05.931Z</time></trkpt><trkpt lat="45.0137652" lon="7.8233487"><ele>292.5</ele><time>2026-04-18T17:26:09.932Z</time></trkpt><trkpt lat="45.0137302" lon="7.8232553"><ele>291.6666666666667</ele><time>2026-04-18T17:26:14.932Z</time></trkpt><trkpt lat="45.0137156" lon="7.8231573"><ele>290.83333333333337</ele><time>2026-04-18T17:26:20.932Z</time></trkpt><trkpt lat="45.0136859" lon="7.8230641"><ele>290.0</ele><time>2026-04-18T17:26:22.932Z</time></trkpt><trkpt lat="45.0136332" lon="7.8229793"><ele>290.0</ele><time>2026-04-18T17:26:24.931Z</time></trkpt><trkpt lat="45.0135751" lon="7.8228974"><ele>290.0</ele><time>2026-04-18T17:26:26.932Z</time></trkpt><trkpt lat="45.0135082" lon="7.8227946"><ele>290.0</ele><time>2026-04-18T17:26:28.932Z</time></trkpt><trkpt lat="45.0134283" lon="7.8226678"><ele>290.0</ele><time>2026-04-18T17:26:30.932Z</time></trkpt><trkpt lat="45.0133511" lon="7.8225493"><ele>290.0</ele><time>2026-04-18T17:26:32.931Z</time></trkpt><trkpt lat="45.0132762" lon="7.8224341"><ele>289.57142857142856</ele><time>2026-04-18T17:26:34.931Z</time></trkpt><trkpt lat="45.0132325" lon="7.8223671"><ele>289.14285714285717</ele><time>2026-04-18T17:26:35.932Z</time></trkpt><trkpt lat="45.0131864" lon="7.8222997"><ele>288.7142857142857</ele><time>2026-04-18T17:26:36.932Z</time></trkpt><trkpt lat="45.0131287" lon="7.8222155"><ele>288.2857142857143</ele><time>2026-04-18T17:26:37.932Z</time></trkpt><trkpt lat="45.0130752" lon="7.8221351"><ele>287.8571428571429</ele><time>2026-04-18T17:26:38.931Z</time></trkpt><trkpt lat="45.0130282" lon="7.8220653"><ele>287.42857142857144</ele><time>2026-04-18T17:26:39.932Z</time></trkpt><trkpt lat="45.0129738" lon="7.8219817"><ele>287.0</ele><time>2026-04-18T17:26:41.931Z</time></trkpt><trkpt lat="45.0129292" lon="7.821917"><ele>287.0</ele><time>2026-04-18T17:26:50.931Z</time></trkpt><trkpt lat="45.0128794" lon="7.8218403"><ele>287.0</ele><time>2026-04-18T17:26:55.932Z</time></trkpt><trkpt lat="45.0128405" lon="7.821766"><ele>287.0</ele><time>2026-04-18T17:27:00.932Z</time></trkpt><trkpt lat="45.0127597" lon="7.8216401"><ele>287.0</ele><time>2026-04-18T17:27:02.932Z</time></trkpt><trkpt lat="45.0127122" lon="7.821564"><ele>287.0</ele><time>2026-04-18T17:27:03.931Z</time></trkpt><trkpt lat="45.0126524" lon="7.821468"><ele>287.0</ele><time>2026-04-18T17:27:04.932Z</time></trkpt><trkpt lat="45.0125881" lon="7.8213694"><ele>287.2</ele><time>2026-04-18T17:27:05.932Z</time></trkpt><trkpt lat="45.0125224" lon="7.8212705"><ele>287.4</ele><time>2026-04-18T17:27:06.932Z</time></trkpt><trkpt lat="45.0124448" lon="7.8211549"><ele>287.6</ele><time>2026-04-18T17:27:07.931Z</time></trkpt><trkpt lat="45.0123736" lon="7.8210525"><ele>287.8</ele><time>2026-04-18T17:27:08.931Z</time></trkpt><trkpt lat="45.0122932" lon="7.8209429"><ele>288.0</ele><time>2026-04-18T17:27:09.931Z</time></trkpt><trkpt lat="45.0122197" lon="7.8208438"><ele>288.5</ele><time>2026-04-18T17:27:10.931Z</time></trkpt><trkpt lat="45.0121513" lon="7.8207589"><ele>289.0</ele><time>2026-04-18T17:27:11.932Z</time></trkpt><trkpt lat="45.0120748" lon="7.8206785"><ele>289.5</ele><time>2026-04-18T17:27:12.932Z</time></trkpt><trkpt lat="45.0120113" lon="7.8206329"><ele>290.0</ele><time>2026-04-18T17:27:13.969Z</time></trkpt><trkpt lat="45.011934" lon="7.8206027"><ele>290.5</ele><time>2026-04-18T17:27:14.961Z</time></trkpt><trkpt lat="45.0118592" lon="7.8205864"><ele>291.0</ele><time>2026-04-18T17:27:15.975Z</time></trkpt><trkpt lat="45.011748" lon="7.8205435"><ele>290.5</ele><time>2026-04-18T17:27:17.974Z</time></trkpt><trkpt lat="45.0116501" lon="7.82049"><ele>290.0</ele><time>2026-04-18T17:27:19.959Z</time></trkpt><trkpt lat="45.0115527" lon="7.8204283"><ele>289.5</ele><time>2026-04-18T17:27:21.968Z</time></trkpt><trkpt lat="45.0114427" lon="7.8203599"><ele>289.0</ele><time>2026-04-18T17:27:23.97Z</time></trkpt><trkpt lat="45.0113286" lon="7.8203064"><ele>289.0</ele><time>2026-04-18T17:27:25.952Z</time></trkpt><trkpt lat="45.0112166" lon="7.8202626"><ele>289.0</ele><time>2026-04-18T17:27:27.967Z</time></trkpt><trkpt lat="45.011124" lon="7.8202329"><ele>289.0</ele><time>2026-04-18T17:27:29.975Z</time></trkpt><trkpt lat="45.0110455" lon="7.8202071"><ele>289.0</ele><time>2026-04-18T17:27:31.962Z</time></trkpt><trkpt lat="45.010964" lon="7.8201751"><ele>289.0</ele><time>2026-04-18T17:27:33.975Z</time></trkpt><trkpt lat="45.0108555" lon="7.8201442"><ele>289.0</ele><time>2026-04-18T17:27:35.975Z</time></trkpt><trkpt lat="45.0107374" lon="7.8201062"><ele>289.0</ele><time>2026-04-18T17:27:37.972Z</time></trkpt><trkpt lat="45.0106261" lon="7.8200636"><ele>289.0</ele><time>2026-04-18T17:27:39.954Z</time></trkpt><trkpt lat="45.0105375" lon="7.8200812"><ele>289.0</ele><time>2026-04-18T17:27:41.961Z</time></trkpt><trkpt lat="45.0104761" lon="7.8201821"><ele>289.0</ele><time>2026-04-18T17:27:43.97Z</time></trkpt><trkpt lat="45.0104298" lon="7.8203358"><ele>288.66666666666663</ele><time>2026-04-18T17:27:45.974Z</time></trkpt><trkpt lat="45.0103973" lon="7.8204628"><ele>288.3333333333333</ele><time>2026-04-18T17:27:47.975Z</time></trkpt><trkpt lat="45.0103671" lon="7.8205748"><ele>288.0</ele><time>2026-04-18T17:27:49.96Z</time></trkpt><trkpt lat="45.0103394" lon="7.8206851"><ele>287.6666666666667</ele><time>2026-04-18T17:27:51.957Z</time></trkpt><trkpt lat="45.0102843" lon="7.8207725"><ele>287.33333333333337</ele><time>2026-04-18T17:27:53.961Z</time></trkpt><trkpt lat="45.0101919" lon="7.820824"><ele>287.0</ele><time>2026-04-18T17:27:55.959Z</time></trkpt><trkpt lat="45.0100772" lon="7.8208194"><ele>286.6</ele><time>2026-04-18T17:27:57.961Z</time></trkpt><trkpt lat="45.0099645" lon="7.8207797"><ele>286.2</ele><time>2026-04-18T17:27:59.969Z</time></trkpt><trkpt lat="45.0098516" lon="7.8207213"><ele>285.8</ele><time>2026-04-18T17:28:01.975Z</time></trkpt><trkpt lat="45.0097402" lon="7.8206569"><ele>285.4</ele><time>2026-04-18T17:28:03.969Z</time></trkpt><trkpt lat="45.0096807" lon="7.8206258"><ele>285.0</ele><time>2026-04-18T17:28:04.975Z</time></trkpt><trkpt lat="45.0096197" lon="7.8205968"><ele>285.0</ele><time>2026-04-18T17:28:05.975Z</time></trkpt><trkpt lat="45.0095586" lon="7.82057"><ele>285.0</ele><time>2026-04-18T17:28:06.957Z</time></trkpt><trkpt lat="45.0094599" lon="7.8205269"><ele>285.0</ele><time>2026-04-18T17:28:08.97Z</time></trkpt><trkpt lat="45.0093872" lon="7.8204915"><ele>285.0</ele><time>2026-04-18T17:28:11.972Z</time></trkpt><trkpt lat="45.0093056" lon="7.8204559"><ele>285.0</ele><time>2026-04-18T17:28:17.961Z</time></trkpt><trkpt lat="45.0092273" lon="7.8204217"><ele>285.0</ele><time>2026-04-18T17:28:19.961Z</time></trkpt><trkpt lat="45.0091517" lon="7.8203793"><ele>285.1666666666667</ele><time>2026-04-18T17:28:21.96Z</time></trkpt><trkpt lat="45.0090853" lon="7.8203427"><ele>285.3333333333333</ele><time>2026-04-18T17:28:23.974Z</time></trkpt><trkpt lat="45.0090018" lon="7.8203066"><ele>285.5</ele><time>2026-04-18T17:28:34.974Z</time></trkpt><trkpt lat="45.0089433" lon="7.8202253"><ele>285.66666666666663</ele><time>2026-04-18T17:28:36.963Z</time></trkpt><trkpt lat="45.0089549" lon="7.8200538"><ele>285.8333333333333</ele><time>2026-04-18T17:28:38.965Z</time></trkpt><trkpt lat="45.0089755" lon="7.8199387"><ele>286.0</ele><time>2026-04-18T17:28:39.974Z</time></trkpt><trkpt lat="45.0089939" lon="7.8197974"><ele>286.0</ele><time>2026-04-18T17:28:40.949Z</time></trkpt><trkpt lat="45.0090144" lon="7.8196476"><ele>286.0</ele><time>2026-04-18T17:28:41.959Z</time></trkpt><trkpt lat="45.0090298" lon="7.8194925"><ele>286.0</ele><time>2026-04-18T17:28:42.972Z</time></trkpt><trkpt lat="45.009042" lon="7.8193334"><ele>286.0</ele><time>2026-04-18T17:28:43.964Z</time></trkpt><trkpt lat="45.0090508" lon="7.8191776"><ele>286.0</ele><time>2026-04-18T17:28:44.962Z</time></trkpt><trkpt lat="45.0090533" lon="7.8190177"><ele>286.0</ele><time>2026-04-18T17:28:45.97Z</time></trkpt><trkpt lat="45.0090607" lon="7.8188576"><ele>286.0</ele><time>2026-04-18T17:28:46.953Z</time></trkpt><trkpt lat="45.0090643" lon="7.8187005"><ele>286.0</ele><time>2026-04-18T17:28:47.962Z</time></trkpt><trkpt lat="45.0090682" lon="7.8185522"><ele>286.0</ele><time>2026-04-18T17:28:48.975Z</time></trkpt><trkpt lat="45.0090738" lon="7.8184114"><ele>286.0</ele><time>2026-04-18T17:28:49.962Z</time></trkpt><trkpt lat="45.0090867" lon="7.8182827"><ele>286.16666666666663</ele><time>2026-04-18T17:28:50.959Z</time></trkpt><trkpt lat="45.0091072" lon="7.8181649"><ele>286.3333333333333</ele><time>2026-04-18T17:28:51.958Z</time></trkpt><trkpt lat="45.0091454" lon="7.8180662"><ele>286.5</ele><time>2026-04-18T17:28:52.962Z</time></trkpt><trkpt lat="45.0091942" lon="7.8179808"><ele>286.6666666666667</ele><time>2026-04-18T17:28:53.968Z</time></trkpt><trkpt lat="45.009255" lon="7.8179159"><ele>286.83333333333337</ele><time>2026-04-18T17:28:54.974Z</time></trkpt><trkpt lat="45.0093176" lon="7.8178578"><ele>287.0</ele><time>2026-04-18T17:28:55.965Z</time></trkpt><trkpt lat="45.0093803" lon="7.8178031"><ele>287.0</ele><time>2026-04-18T17:28:56.962Z</time></trkpt><trkpt lat="45.00944" lon="7.8177489"><ele>287.0</ele><time>2026-04-18T17:28:57.966Z</time></trkpt><trkpt lat="45.0094965" lon="7.8176951"><ele>287.0</ele><time>2026-04-18T17:28:58.957Z</time></trkpt><trkpt lat="45.0095524" lon="7.817643"><ele>287.0</ele><time>2026-04-18T17:28:59.975Z</time></trkpt><trkpt lat="45.009649" lon="7.8175473"><ele>287.0</ele><time>2026-04-18T17:29:01.975Z</time></trkpt><trkpt lat="45.009729" lon="7.8174561"><ele>287.0</ele><time>2026-04-18T17:29:03.975Z</time></trkpt><trkpt lat="45.009825" lon="7.8173623"><ele>287.2857142857143</ele><time>2026-04-18T17:29:05.965Z</time></trkpt><trkpt lat="45.0098809" lon="7.8173092"><ele>287.57142857142856</ele><time>2026-04-18T17:29:06.95Z</time></trkpt><trkpt lat="45.0099428" lon="7.8172498"><ele>287.8571428571429</ele><time>2026-04-18T17:29:07.968Z</time></trkpt><trkpt lat="45.0100085" lon="7.8171894"><ele>288.1428571428571</ele><time>2026-04-18T17:29:08.962Z</time></trkpt><trkpt lat="45.0100703" lon="7.8171335"><ele>288.42857142857144</ele><time>2026-04-18T17:29:09.975Z</time></trkpt><trkpt lat="45.010129" lon="7.8170784"><ele>288.7142857142857</ele><time>2026-04-18T17:29:10.973Z</time></trkpt><trkpt lat="45.0101858" lon="7.8170274"><ele>289.0</ele><time>2026-04-18T17:29:11.974Z</time></trkpt><trkpt lat="45.0102959" lon="7.8169307"><ele>289.0</ele><time>2026-04-18T17:29:13.962Z</time></trkpt><trkpt lat="45.0103654" lon="7.8168679"><ele>289.0</ele><time>2026-04-18T17:29:14.972Z</time></trkpt><trkpt lat="45.0104407" lon="7.816794"><ele>289.0</ele><time>2026-04-18T17:29:15.97Z</time></trkpt><trkpt lat="45.0105206" lon="7.8167134"><ele>289.0</ele><time>2026-04-18T17:29:16.962Z</time></trkpt><trkpt lat="45.0105917" lon="7.8166353"><ele>289.0</ele><time>2026-04-18T17:29:17.961Z</time></trkpt><trkpt lat="45.0106564" lon="7.816576"><ele>289.0</ele><time>2026-04-18T17:29:18.96Z</time></trkpt><trkpt lat="45.0107139" lon="7.816436"><ele>289.5</ele><time>2026-04-18T17:29:20.962Z</time></trkpt><trkpt lat="45.0106843" lon="7.8162741"><ele>290.0</ele><time>2026-04-18T17:29:22.948Z</time></trkpt><trkpt lat="45.0106518" lon="7.8161884"><ele>290.5</ele><time>2026-04-18T17:29:23.974Z</time></trkpt><trkpt lat="45.0106088" lon="7.8161016"><ele>291.0</ele><time>2026-04-18T17:29:24.972Z</time></trkpt><trkpt lat="45.0105655" lon="7.8160155"><ele>291.5</ele><time>2026-04-18T17:29:25.972Z</time></trkpt><trkpt lat="45.0105298" lon="7.8159331"><ele>292.0</ele><time>2026-04-18T17:29:26.961Z</time></trkpt><trkpt lat="45.0104775" lon="7.8158049"><ele>292.0</ele><time>2026-04-18T17:29:28.962Z</time></trkpt><trkpt lat="45.0104346" lon="7.8157278"><ele>292.0</ele><time>2026-04-18T17:29:30.974Z</time></trkpt><trkpt lat="45.0103912" lon="7.8156298"><ele>292.0</ele><time>2026-04-18T17:29:33.965Z</time></trkpt><trkpt lat="45.010358" lon="7.8155522"><ele>292.0</ele><time>2026-04-18T17:29:36.965Z</time></trkpt><trkpt lat="45.0102759" lon="7.81543"><ele>292.0</ele><time>2026-04-18T17:34:18.962Z</time></trkpt><trkpt lat="45.010235" lon="7.8153582"><ele>292.0</ele><time>2026-04-18T17:34:19.952Z</time></trkpt><trkpt lat="45.0101958" lon="7.8152722"><ele>292.0</ele><time>2026-04-18T17:34:20.951Z</time></trkpt><trkpt lat="45.0101512" lon="7.8151801"><ele>292.0</ele><time>2026-04-18T17:34:21.956Z</time></trkpt><trkpt lat="45.0100983" lon="7.8150821"><ele>292.0</ele><time>2026-04-18T17:34:22.954Z</time></trkpt><trkpt lat="45.0100433" lon="7.8149721"><ele>292.0</ele><time>2026-04-18T17:34:23.958Z</time></trkpt><trkpt lat="45.0099888" lon="7.8148699"><ele>292.0</ele><time>2026-04-18T17:34:24.955Z</time></trkpt><trkpt lat="45.009938" lon="7.8147656"><ele>292.0</ele><time>2026-04-18T17:34:25.96Z</time></trkpt><trkpt lat="45.009887" lon="7.8146658"><ele>292.3333333333333</ele><time>2026-04-18T17:34:26.955Z</time></trkpt><trkpt lat="45.0098382" lon="7.8145727"><ele>292.66666666666663</ele><time>2026-04-18T17:34:27.959Z</time></trkpt><trkpt lat="45.0097976" lon="7.8144924"><ele>293.0</ele><time>2026-04-18T17:34:28.957Z</time></trkpt><trkpt lat="45.009757" lon="7.8144174"><ele>293.3333333333333</ele><time>2026-04-18T17:34:29.967Z</time></trkpt><trkpt lat="45.0097184" lon="7.8143256"><ele>293.6666666666667</ele><time>2026-04-18T17:34:30.954Z</time></trkpt><trkpt lat="45.0096712" lon="7.8142251"><ele>294.0</ele><time>2026-04-18T17:34:31.962Z</time></trkpt><trkpt lat="45.0096133" lon="7.814102"><ele>294.25</ele><time>2026-04-18T17:34:32.968Z</time></trkpt><trkpt lat="45.0095477" lon="7.8139613"><ele>294.5</ele><time>2026-04-18T17:34:33.953Z</time></trkpt><trkpt lat="45.0094736" lon="7.8138132"><ele>294.75</ele><time>2026-04-18T17:34:34.952Z</time></trkpt><trkpt lat="45.0094033" lon="7.8136666"><ele>295.0</ele><time>2026-04-18T17:34:35.957Z</time></trkpt><trkpt lat="45.0093351" lon="7.8135233"><ele>295.2</ele><time>2026-04-18T17:34:36.967Z</time></trkpt><trkpt lat="45.0092703" lon="7.8133912"><ele>295.4</ele><time>2026-04-18T17:34:37.958Z</time></trkpt><trkpt lat="45.0092112" lon="7.8132705"><ele>295.6</ele><time>2026-04-18T17:34:38.964Z</time></trkpt><trkpt lat="45.0091655" lon="7.8131683"><ele>295.8</ele><time>2026-04-18T17:34:39.957Z</time></trkpt><trkpt lat="45.0091312" lon="7.813092"><ele>296.0</ele><time>2026-04-18T17:34:40.964Z</time></trkpt><trkpt lat="45.009069" lon="7.8129561"><ele>295.5</ele><time>2026-04-18T17:34:42.958Z</time></trkpt><trkpt lat="45.00901" lon="7.8128161"><ele>295.0</ele><time>2026-04-18T17:34:44.959Z</time></trkpt><trkpt lat="45.0089711" lon="7.8126999"><ele>294.5</ele><time>2026-04-18T17:34:46.965Z</time></trkpt><trkpt lat="45.008932" lon="7.8126111"><ele>294.0</ele><time>2026-04-18T17:35:47.951Z</time></trkpt><trkpt lat="45.0088856" lon="7.8125306"><ele>293.5</ele><time>2026-04-18T17:35:48.962Z</time></trkpt><trkpt lat="45.0088435" lon="7.8124513"><ele>293.0</ele><time>2026-04-18T17:35:49.949Z</time></trkpt><trkpt lat="45.0087946" lon="7.8123637"><ele>293.0</ele><time>2026-04-18T17:35:50.951Z</time></trkpt><trkpt lat="45.0087413" lon="7.8122714"><ele>293.0</ele><time>2026-04-18T17:35:51.948Z</time></trkpt><trkpt lat="45.0086921" lon="7.8121647"><ele>293.0</ele><time>2026-04-18T17:35:52.953Z</time></trkpt><trkpt lat="45.0086438" lon="7.8120534"><ele>293.0</ele><time>2026-04-18T17:35:53.949Z</time></trkpt><trkpt lat="45.0086158" lon="7.8119391"><ele>293.0</ele><time>2026-04-18T17:35:54.968Z</time></trkpt><trkpt lat="45.0085903" lon="7.8118333"><ele>293.0</ele><time>2026-04-18T17:35:55.955Z</time></trkpt><trkpt lat="45.0085524" lon="7.8117353"><ele>292.0</ele><time>2026-04-18T17:35:56.957Z</time></trkpt><trkpt lat="45.0084958" lon="7.8116507"><ele>291.0</ele><time>2026-04-18T17:35:57.956Z</time></trkpt><trkpt lat="45.0084208" lon="7.8115665"><ele>290.0</ele><time>2026-04-18T17:35:58.954Z</time></trkpt><trkpt lat="45.0083415" lon="7.8114605"><ele>289.0</ele><time>2026-04-18T17:35:59.965Z</time></trkpt><trkpt lat="45.0082665" lon="7.8113313"><ele>288.0</ele><time>2026-04-18T17:36:00.962Z</time></trkpt><trkpt lat="45.0081957" lon="7.8112"><ele>288.0</ele><time>2026-04-18T17:36:01.967Z</time></trkpt><trkpt lat="45.0081275" lon="7.8110635"><ele>288.0</ele><time>2026-04-18T17:36:02.959Z</time></trkpt><trkpt lat="45.0080586" lon="7.8109265"><ele>288.0</ele><time>2026-04-18T17:36:03.962Z</time></trkpt><trkpt lat="45.0079928" lon="7.8107904"><ele>288.0</ele><time>2026-04-18T17:36:04.964Z</time></trkpt><trkpt lat="45.0079264" lon="7.8106538"><ele>288.75</ele><time>2026-04-18T17:36:05.958Z</time></trkpt><trkpt lat="45.007862" lon="7.8105122"><ele>289.5</ele><time>2026-04-18T17:36:06.96Z</time></trkpt><trkpt lat="45.0077951" lon="7.8103689"><ele>290.25</ele><time>2026-04-18T17:36:07.96Z</time></trkpt><trkpt lat="45.0077325" lon="7.8102311"><ele>291.0</ele><time>2026-04-18T17:36:08.958Z</time></trkpt><trkpt lat="45.0076788" lon="7.8101022"><ele>291.0</ele><time>2026-04-18T17:36:09.955Z</time></trkpt><trkpt lat="45.0076329" lon="7.8099784"><ele>291.0</ele><time>2026-04-18T17:36:10.957Z</time></trkpt><trkpt lat="45.0075846" lon="7.8098584"><ele>291.0</ele><time>2026-04-18T17:36:11.954Z</time></trkpt><trkpt lat="45.0075291" lon="7.8097308"><ele>291.0</ele><time>2026-04-18T17:36:12.959Z</time></trkpt><trkpt lat="45.0074717" lon="7.8095856"><ele>291.0</ele><time>2026-04-18T17:36:13.96Z</time></trkpt><trkpt lat="45.0074064" lon="7.8094354"><ele>294.0</ele><time>2026-04-18T17:36:14.956Z</time></trkpt><trkpt lat="45.0073386" lon="7.8092699"><ele>297.0</ele><time>2026-04-18T17:36:15.964Z</time></trkpt><trkpt lat="45.0072757" lon="7.8090879"><ele>300.0</ele><time>2026-04-18T17:36:16.953Z</time></trkpt><trkpt lat="45.0072301" lon="7.8088922"><ele>303.0</ele><time>2026-04-18T17:36:17.958Z</time></trkpt><trkpt lat="45.007209" lon="7.808678"><ele>303.3333333333333</ele><time>2026-04-18T17:36:18.95Z</time></trkpt><trkpt lat="45.0072103" lon="7.8084562"><ele>303.66666666666663</ele><time>2026-04-18T17:36:19.96Z</time></trkpt><trkpt lat="45.0072385" lon="7.8082353"><ele>304.0</ele><time>2026-04-18T17:36:20.957Z</time></trkpt><trkpt lat="45.0072819" lon="7.8080192"><ele>304.0</ele><time>2026-04-18T17:36:21.962Z</time></trkpt><trkpt lat="45.0073442" lon="7.8078086"><ele>304.0</ele><time>2026-04-18T17:36:22.96Z</time></trkpt><trkpt lat="45.0074104" lon="7.8076032"><ele>304.0</ele><time>2026-04-18T17:36:23.959Z</time></trkpt><trkpt lat="45.0074781" lon="7.8073956"><ele>304.3333333333333</ele><time>2026-04-18T17:36:24.956Z</time></trkpt><trkpt lat="45.0075405" lon="7.8071846"><ele>304.6666666666667</ele><time>2026-04-18T17:36:25.958Z</time></trkpt><trkpt lat="45.0075979" lon="7.8069733"><ele>305.0</ele><time>2026-04-18T17:36:26.956Z</time></trkpt><trkpt lat="45.0076377" lon="7.8067565"><ele>306.0</ele><time>2026-04-18T17:36:27.952Z</time></trkpt><trkpt lat="45.0076779" lon="7.8065444"><ele>307.0</ele><time>2026-04-18T17:36:28.95Z</time></trkpt><trkpt lat="45.0077101" lon="7.8063278"><ele>308.0</ele><time>2026-04-18T17:36:29.954Z</time></trkpt><trkpt lat="45.0077338" lon="7.8061106"><ele>308.5</ele><time>2026-04-18T17:36:30.95Z</time></trkpt><trkpt lat="45.0077516" lon="7.8058958"><ele>309.0</ele><time>2026-04-18T17:36:31.955Z</time></trkpt><trkpt lat="45.0077609" lon="7.8056839"><ele>309.5</ele><time>2026-04-18T17:36:32.954Z</time></trkpt><trkpt lat="45.0077674" lon="7.805477"><ele>310.0</ele><time>2026-04-18T17:36:33.958Z</time></trkpt><trkpt lat="45.0077661" lon="7.80527"><ele>310.75</ele><time>2026-04-18T17:36:34.961Z</time></trkpt><trkpt lat="45.0077634" lon="7.8050621"><ele>311.5</ele><time>2026-04-18T17:36:35.955Z</time></trkpt><trkpt lat="45.0077594" lon="7.8048589"><ele>312.25</ele><time>2026-04-18T17:36:36.955Z</time></trkpt><trkpt lat="45.0077502" lon="7.804655"><ele>313.0</ele><time>2026-04-18T17:36:37.953Z</time></trkpt><trkpt lat="45.0077383" lon="7.8044525"><ele>313.66666666666663</ele><time>2026-04-18T17:36:38.962Z</time></trkpt><trkpt lat="45.0077254" lon="7.8042429"><ele>314.3333333333333</ele><time>2026-04-18T17:36:39.954Z</time></trkpt><trkpt lat="45.0077173" lon="7.8040331"><ele>315.0</ele><time>2026-04-18T17:36:40.95Z</time></trkpt><trkpt lat="45.0077084" lon="7.8038178"><ele>315.0</ele><time>2026-04-18T17:36:41.967Z</time></trkpt><trkpt lat="45.0077021" lon="7.8035993"><ele>315.0</ele><time>2026-04-18T17:36:42.975Z</time></trkpt><trkpt lat="45.0076999" lon="7.8033804"><ele>315.0</ele><time>2026-04-18T17:36:43.953Z</time></trkpt><trkpt lat="45.007703" lon="7.8031576"><ele>317.3333333333333</ele><time>2026-04-18T17:36:44.969Z</time></trkpt><trkpt lat="45.0077164" lon="7.802938"><ele>319.66666666666663</ele><time>2026-04-18T17:36:45.967Z</time></trkpt><trkpt lat="45.0077441" lon="7.8027209"><ele>322.0</ele><time>2026-04-18T17:36:46.962Z</time></trkpt><trkpt lat="45.0077782" lon="7.8025075"><ele>322.5</ele><time>2026-04-18T17:36:47.969Z</time></trkpt><trkpt lat="45.0078163" lon="7.8023014"><ele>323.0</ele><time>2026-04-18T17:36:48.959Z</time></trkpt><trkpt lat="45.007857" lon="7.8021009"><ele>323.5</ele><time>2026-04-18T17:36:49.96Z</time></trkpt><trkpt lat="45.0078927" lon="7.8019008"><ele>324.0</ele><time>2026-04-18T17:36:50.962Z</time></trkpt><trkpt lat="45.0079267" lon="7.8016997"><ele>324.3333333333333</ele><time>2026-04-18T17:36:51.966Z</time></trkpt><trkpt lat="45.0079611" lon="7.8014929"><ele>324.66666666666663</ele><time>2026-04-18T17:36:52.962Z</time></trkpt><trkpt lat="45.0079986" lon="7.8012879"><ele>325.0</ele><time>2026-04-18T17:36:53.971Z</time></trkpt><trkpt lat="45.0080485" lon="7.8010741"><ele>324.66666666666663</ele><time>2026-04-18T17:36:54.958Z</time></trkpt><trkpt lat="45.0081273" lon="7.8008678"><ele>324.3333333333333</ele><time>2026-04-18T17:36:55.952Z</time></trkpt><trkpt lat="45.0082145" lon="7.8006635"><ele>324.0</ele><time>2026-04-18T17:36:56.954Z</time></trkpt><trkpt lat="45.008324" lon="7.8004745"><ele>323.6666666666667</ele><time>2026-04-18T17:36:57.956Z</time></trkpt><trkpt lat="45.0084391" lon="7.8002936"><ele>323.33333333333337</ele><time>2026-04-18T17:36:58.959Z</time></trkpt><trkpt lat="45.008554" lon="7.8001133"><ele>323.0</ele><time>2026-04-18T17:36:59.947Z</time></trkpt><trkpt lat="45.0086723" lon="7.7999315"><ele>320.6666666666667</ele><time>2026-04-18T17:37:00.959Z</time></trkpt><trkpt lat="45.0087916" lon="7.7997464"><ele>318.3333333333333</ele><time>2026-04-18T17:37:01.962Z</time></trkpt><trkpt lat="45.008911" lon="7.7995655"><ele>316.0</ele><time>2026-04-18T17:37:02.957Z</time></trkpt><trkpt lat="45.0090332" lon="7.7993796"><ele>316.66666666666663</ele><time>2026-04-18T17:37:03.951Z</time></trkpt><trkpt lat="45.0091501" lon="7.7992029"><ele>317.3333333333333</ele><time>2026-04-18T17:37:04.966Z</time></trkpt><trkpt lat="45.0092602" lon="7.799035"><ele>318.0</ele><time>2026-04-18T17:37:05.962Z</time></trkpt><trkpt lat="45.0093602" lon="7.7988752"><ele>318.0</ele><time>2026-04-18T17:37:06.951Z</time></trkpt><trkpt lat="45.0094547" lon="7.7987254"><ele>318.0</ele><time>2026-04-18T17:37:07.963Z</time></trkpt><trkpt lat="45.0095516" lon="7.7985769"><ele>318.0</ele><time>2026-04-18T17:37:08.964Z</time></trkpt><trkpt lat="45.0096524" lon="7.7984316"><ele>318.0</ele><time>2026-04-18T17:37:09.958Z</time></trkpt><trkpt lat="45.0097554" lon="7.7982879"><ele>317.25</ele><time>2026-04-18T17:37:10.953Z</time></trkpt><trkpt lat="45.0098572" lon="7.7981456"><ele>316.5</ele><time>2026-04-18T17:37:11.958Z</time></trkpt><trkpt lat="45.0099665" lon="7.7980107"><ele>315.75</ele><time>2026-04-18T17:37:12.958Z</time></trkpt><trkpt lat="45.0100791" lon="7.7978784"><ele>315.0</ele><time>2026-04-18T17:37:13.961Z</time></trkpt><trkpt lat="45.0101924" lon="7.7977457"><ele>316.0</ele><time>2026-04-18T17:37:14.954Z</time></trkpt><trkpt lat="45.0102984" lon="7.7976218"><ele>317.0</ele><time>2026-04-18T17:37:15.964Z</time></trkpt><trkpt lat="45.0103984" lon="7.7975138"><ele>318.0</ele><time>2026-04-18T17:37:16.968Z</time></trkpt><trkpt lat="45.010488" lon="7.7974195"><ele>319.0</ele><time>2026-04-18T17:37:17.971Z</time></trkpt><trkpt lat="45.0105737" lon="7.7973465"><ele>319.0</ele><time>2026-04-18T17:37:18.962Z</time></trkpt><trkpt lat="45.0106619" lon="7.7972965"><ele>319.0</ele><time>2026-04-18T17:37:19.954Z</time></trkpt><trkpt lat="45.0107462" lon="7.7972713"><ele>319.0</ele><time>2026-04-18T17:37:20.959Z</time></trkpt><trkpt lat="45.0108229" lon="7.7972497"><ele>319.0</ele><time>2026-04-18T17:37:21.963Z</time></trkpt><trkpt lat="45.0108873" lon="7.7972107"><ele>319.0</ele><time>2026-04-18T17:37:22.958Z</time></trkpt><trkpt lat="45.0109331" lon="7.7971418"><ele>319.0</ele><time>2026-04-18T17:37:23.964Z</time></trkpt><trkpt lat="45.0109625" lon="7.7970554"><ele>319.6</ele><time>2026-04-18T17:37:24.95Z</time></trkpt><trkpt lat="45.0109959" lon="7.7969489"><ele>320.2</ele><time>2026-04-18T17:37:25.975Z</time></trkpt><trkpt lat="45.0110502" lon="7.7968413"><ele>320.8</ele><time>2026-04-18T17:37:26.946Z</time></trkpt><trkpt lat="45.0111378" lon="7.7967482"><ele>321.40000000000003</ele><time>2026-04-18T17:37:27.967Z</time></trkpt><trkpt lat="45.0112211" lon="7.7966442"><ele>322.0</ele><time>2026-04-18T17:37:28.954Z</time></trkpt><trkpt lat="45.0113071" lon="7.7965213"><ele>322.0</ele><time>2026-04-18T17:37:29.951Z</time></trkpt><trkpt lat="45.0113853" lon="7.7963719"><ele>322.0</ele><time>2026-04-18T17:37:30.951Z</time></trkpt><trkpt lat="45.0114549" lon="7.7961942"><ele>322.0</ele><time>2026-04-18T17:37:31.958Z</time></trkpt><trkpt lat="45.0115231" lon="7.7959987"><ele>322.0</ele><time>2026-04-18T17:37:32.961Z</time></trkpt><trkpt lat="45.0115891" lon="7.795787"><ele>323.66666666666663</ele><time>2026-04-18T17:37:33.955Z</time></trkpt><trkpt lat="45.0116583" lon="7.7955724"><ele>325.3333333333333</ele><time>2026-04-18T17:37:34.954Z</time></trkpt><trkpt lat="45.0117267" lon="7.7953567"><ele>327.0</ele><time>2026-04-18T17:37:35.955Z</time></trkpt><trkpt lat="45.0117948" lon="7.7951418"><ele>327.0</ele><time>2026-04-18T17:37:36.969Z</time></trkpt><trkpt lat="45.0118675" lon="7.7949475"><ele>327.0</ele><time>2026-04-18T17:37:37.974Z</time></trkpt><trkpt lat="45.0119454" lon="7.7947592"><ele>327.0</ele><time>2026-04-18T17:37:38.959Z</time></trkpt><trkpt lat="45.012031" lon="7.7945677"><ele>327.0</ele><time>2026-04-18T17:37:39.955Z</time></trkpt><trkpt lat="45.012121" lon="7.79437"><ele>327.0</ele><time>2026-04-18T17:37:40.947Z</time></trkpt><trkpt lat="45.0122104" lon="7.7941729"><ele>327.0</ele><time>2026-04-18T17:37:41.958Z</time></trkpt><trkpt lat="45.0123028" lon="7.7939782"><ele>324.6666666666667</ele><time>2026-04-18T17:37:42.962Z</time></trkpt><trkpt lat="45.0123928" lon="7.79377"><ele>322.33333333333337</ele><time>2026-04-18T17:37:43.964Z</time></trkpt><trkpt lat="45.0124746" lon="7.7935549"><ele>320.0</ele><time>2026-04-18T17:37:44.961Z</time></trkpt><trkpt lat="45.0125411" lon="7.7933304"><ele>318.6666666666667</ele><time>2026-04-18T17:37:45.962Z</time></trkpt><trkpt lat="45.0125979" lon="7.7931015"><ele>317.3333333333333</ele><time>2026-04-18T17:37:46.971Z</time></trkpt><trkpt lat="45.0126425" lon="7.7928653"><ele>316.0</ele><time>2026-04-18T17:37:47.958Z</time></trkpt><trkpt lat="45.0126772" lon="7.7926241"><ele>315.0</ele><time>2026-04-18T17:37:48.965Z</time></trkpt><trkpt lat="45.012712" lon="7.7923797"><ele>314.0</ele><time>2026-04-18T17:37:49.951Z</time></trkpt><trkpt lat="45.0127517" lon="7.7921343"><ele>313.0</ele><time>2026-04-18T17:37:50.967Z</time></trkpt><trkpt lat="45.0127899" lon="7.7918884"><ele>312.0</ele><time>2026-04-18T17:37:51.962Z</time></trkpt><trkpt lat="45.0128257" lon="7.7916418"><ele>311.0</ele><time>2026-04-18T17:37:52.96Z</time></trkpt><trkpt lat="45.0128621" lon="7.7913942"><ele>310.0</ele><time>2026-04-18T17:37:53.963Z</time></trkpt><trkpt lat="45.0128981" lon="7.7911517"><ele>310.0</ele><time>2026-04-18T17:37:54.962Z</time></trkpt><trkpt lat="45.0129382" lon="7.7909016"><ele>310.0</ele><time>2026-04-18T17:37:55.961Z</time></trkpt><trkpt lat="45.0129714" lon="7.7906545"><ele>310.0</ele><time>2026-04-18T17:37:56.948Z</time></trkpt><trkpt lat="45.0130084" lon="7.7904121"><ele>310.0</ele><time>2026-04-18T17:37:57.955Z</time></trkpt><trkpt lat="45.0130476" lon="7.7901625"><ele>310.0</ele><time>2026-04-18T17:37:58.973Z</time></trkpt><trkpt lat="45.0130861" lon="7.7899116"><ele>310.0</ele><time>2026-04-18T17:37:59.957Z</time></trkpt><trkpt lat="45.0131245" lon="7.7896645"><ele>310.0</ele><time>2026-04-18T17:38:00.975Z</time></trkpt><trkpt lat="45.0131648" lon="7.7894112"><ele>310.0</ele><time>2026-04-18T17:38:01.971Z</time></trkpt><trkpt lat="45.0132024" lon="7.7891618"><ele>310.0</ele><time>2026-04-18T17:38:02.947Z</time></trkpt><trkpt lat="45.0132419" lon="7.7889125"><ele>310.0</ele><time>2026-04-18T17:38:03.956Z</time></trkpt><trkpt lat="45.0132758" lon="7.788662"><ele>310.0</ele><time>2026-04-18T17:38:04.956Z</time></trkpt><trkpt lat="45.013313" lon="7.7884124"><ele>310.0</ele><time>2026-04-18T17:38:05.962Z</time></trkpt><trkpt lat="45.0133498" lon="7.7881634"><ele>312.66666666666663</ele><time>2026-04-18T17:38:06.955Z</time></trkpt><trkpt lat="45.0133851" lon="7.7879127"><ele>315.3333333333333</ele><time>2026-04-18T17:38:07.952Z</time></trkpt><trkpt lat="45.0134148" lon="7.7876623"><ele>318.0</ele><time>2026-04-18T17:38:08.958Z</time></trkpt><trkpt lat="45.0134451" lon="7.7874091"><ele>318.0</ele><time>2026-04-18T17:38:09.958Z</time></trkpt><trkpt lat="45.0134723" lon="7.7871537"><ele>318.0</ele><time>2026-04-18T17:38:10.955Z</time></trkpt><trkpt lat="45.013499" lon="7.7868971"><ele>318.0</ele><time>2026-04-18T17:38:11.954Z</time></trkpt><trkpt lat="45.0135255" lon="7.7866451"><ele>319.0</ele><time>2026-04-18T17:38:12.952Z</time></trkpt><trkpt lat="45.0135525" lon="7.7863875"><ele>320.0</ele><time>2026-04-18T17:38:13.955Z</time></trkpt><trkpt lat="45.0135776" lon="7.7861283"><ele>321.0</ele><time>2026-04-18T17:38:14.957Z</time></trkpt><trkpt lat="45.0135974" lon="7.7858655"><ele>321.6666666666667</ele><time>2026-04-18T17:38:15.96Z</time></trkpt><trkpt lat="45.0136151" lon="7.785606"><ele>322.33333333333337</ele><time>2026-04-18T17:38:16.951Z</time></trkpt><trkpt lat="45.0136258" lon="7.7853411"><ele>323.0</ele><time>2026-04-18T17:38:17.955Z</time></trkpt><trkpt lat="45.013632" lon="7.7850739"><ele>323.0</ele><time>2026-04-18T17:38:18.96Z</time></trkpt><trkpt lat="45.013638" lon="7.7848097"><ele>323.0</ele><time>2026-04-18T17:38:19.955Z</time></trkpt><trkpt lat="45.0136461" lon="7.7845408"><ele>323.0</ele><time>2026-04-18T17:38:20.953Z</time></trkpt><trkpt lat="45.0136549" lon="7.7842712"><ele>324.6666666666667</ele><time>2026-04-18T17:38:21.959Z</time></trkpt><trkpt lat="45.0136631" lon="7.7840037"><ele>326.3333333333333</ele><time>2026-04-18T17:38:22.965Z</time></trkpt><trkpt lat="45.0136704" lon="7.7837414"><ele>328.0</ele><time>2026-04-18T17:38:23.962Z</time></trkpt><trkpt lat="45.0136787" lon="7.7834919"><ele>330.0</ele><time>2026-04-18T17:38:24.972Z</time></trkpt><trkpt lat="45.0136884" lon="7.7832455"><ele>332.0</ele><time>2026-04-18T17:38:25.975Z</time></trkpt><trkpt lat="45.0136963" lon="7.7830133"><ele>334.0</ele><time>2026-04-18T17:38:26.958Z</time></trkpt><trkpt lat="45.0136992" lon="7.7827914"><ele>333.75</ele><time>2026-04-18T17:38:27.95Z</time></trkpt><trkpt lat="45.0136898" lon="7.7825705"><ele>333.5</ele><time>2026-04-18T17:38:28.96Z</time></trkpt><trkpt lat="45.0136733" lon="7.7823606"><ele>333.25</ele><time>2026-04-18T17:38:29.95Z</time></trkpt><trkpt lat="45.0136591" lon="7.7821587"><ele>333.0</ele><time>2026-04-18T17:38:30.954Z</time></trkpt><trkpt lat="45.0136636" lon="7.7819604"><ele>332.0</ele><time>2026-04-18T17:38:31.958Z</time></trkpt><trkpt lat="45.013686" lon="7.7817626"><ele>331.0</ele><time>2026-04-18T17:38:32.964Z</time></trkpt><trkpt lat="45.0137224" lon="7.7815598"><ele>330.0</ele><time>2026-04-18T17:38:33.951Z</time></trkpt><trkpt lat="45.0137677" lon="7.7813554"><ele>329.0</ele><time>2026-04-18T17:38:34.959Z</time></trkpt><trkpt lat="45.0138071" lon="7.7811505"><ele>327.33333333333337</ele><time>2026-04-18T17:38:35.955Z</time></trkpt><trkpt lat="45.0138372" lon="7.7809379"><ele>325.6666666666667</ele><time>2026-04-18T17:38:36.951Z</time></trkpt><trkpt lat="45.013858" lon="7.7807187"><ele>324.0</ele><time>2026-04-18T17:38:37.963Z</time></trkpt><trkpt lat="45.0138661" lon="7.7804967"><ele>324.0</ele><time>2026-04-18T17:38:38.949Z</time></trkpt><trkpt lat="45.0138609" lon="7.7802708"><ele>324.0</ele><time>2026-04-18T17:38:39.958Z</time></trkpt><trkpt lat="45.0138522" lon="7.7800413"><ele>324.0</ele><time>2026-04-18T17:38:40.962Z</time></trkpt><trkpt lat="45.0138444" lon="7.7798087"><ele>323.3333333333333</ele><time>2026-04-18T17:38:41.96Z</time></trkpt><trkpt lat="45.0138401" lon="7.7795854"><ele>322.66666666666663</ele><time>2026-04-18T17:38:42.957Z</time></trkpt><trkpt lat="45.0138467" lon="7.7793689"><ele>322.0</ele><time>2026-04-18T17:38:43.961Z</time></trkpt><trkpt lat="45.0138677" lon="7.7791653"><ele>322.0</ele><time>2026-04-18T17:38:44.962Z</time></trkpt><trkpt lat="45.0139079" lon="7.7789709"><ele>322.0</ele><time>2026-04-18T17:38:45.967Z</time></trkpt><trkpt lat="45.0139624" lon="7.7787832"><ele>322.0</ele><time>2026-04-18T17:38:46.973Z</time></trkpt><trkpt lat="45.0140335" lon="7.7786008"><ele>322.0</ele><time>2026-04-18T17:38:47.955Z</time></trkpt><trkpt lat="45.0141195" lon="7.7784356"><ele>323.0</ele><time>2026-04-18T17:38:48.948Z</time></trkpt><trkpt lat="45.0142167" lon="7.7782863"><ele>324.0</ele><time>2026-04-18T17:38:49.961Z</time></trkpt><trkpt lat="45.0143142" lon="7.7781508"><ele>325.0</ele><time>2026-04-18T17:38:50.963Z</time></trkpt><trkpt lat="45.0144004" lon="7.7780068"><ele>326.0</ele><time>2026-04-18T17:38:51.949Z</time></trkpt><trkpt lat="45.0144723" lon="7.7778468"><ele>323.75</ele><time>2026-04-18T17:38:52.963Z</time></trkpt><trkpt lat="45.0145328" lon="7.7776686"><ele>321.5</ele><time>2026-04-18T17:38:53.965Z</time></trkpt><trkpt lat="45.0145788" lon="7.7774805"><ele>319.25</ele><time>2026-04-18T17:38:54.951Z</time></trkpt><trkpt lat="45.0146225" lon="7.777276"><ele>317.0</ele><time>2026-04-18T17:38:55.954Z</time></trkpt><trkpt lat="45.0146601" lon="7.7770598"><ele>315.33333333333337</ele><time>2026-04-18T17:38:56.955Z</time></trkpt><trkpt lat="45.0147007" lon="7.776839"><ele>313.6666666666667</ele><time>2026-04-18T17:38:57.946Z</time></trkpt><trkpt lat="45.0147467" lon="7.7766223"><ele>312.0</ele><time>2026-04-18T17:38:58.963Z</time></trkpt><trkpt lat="45.0148007" lon="7.776407"><ele>312.0</ele><time>2026-04-18T17:38:59.964Z</time></trkpt><trkpt lat="45.014864" lon="7.7761957"><ele>312.0</ele><time>2026-04-18T17:39:00.964Z</time></trkpt><trkpt lat="45.0149443" lon="7.7759931"><ele>312.0</ele><time>2026-04-18T17:39:01.959Z</time></trkpt><trkpt lat="45.0150414" lon="7.7757957"><ele>313.3333333333333</ele><time>2026-04-18T17:39:02.96Z</time></trkpt><trkpt lat="45.0151453" lon="7.7755976"><ele>314.66666666666663</ele><time>2026-04-18T17:39:03.958Z</time></trkpt><trkpt lat="45.0152484" lon="7.7753945"><ele>316.0</ele><time>2026-04-18T17:39:04.967Z</time></trkpt><trkpt lat="45.0153528" lon="7.7751903"><ele>313.0</ele><time>2026-04-18T17:39:05.953Z</time></trkpt><trkpt lat="45.015457" lon="7.7749903"><ele>310.0</ele><time>2026-04-18T17:39:06.956Z</time></trkpt><trkpt lat="45.0155618" lon="7.7747971"><ele>307.0</ele><time>2026-04-18T17:39:07.961Z</time></trkpt><trkpt lat="45.0156717" lon="7.7746141"><ele>307.0</ele><time>2026-04-18T17:39:08.963Z</time></trkpt><trkpt lat="45.0157865" lon="7.7744479"><ele>307.0</ele><time>2026-04-18T17:39:09.959Z</time></trkpt><trkpt lat="45.0159076" lon="7.7743036"><ele>307.0</ele><time>2026-04-18T17:39:10.964Z</time></trkpt><trkpt lat="45.0160325" lon="7.7741732"><ele>307.25</ele><time>2026-04-18T17:39:11.954Z</time></trkpt><trkpt lat="45.0161534" lon="7.7740473"><ele>307.5</ele><time>2026-04-18T17:39:12.95Z</time></trkpt><trkpt lat="45.0162678" lon="7.7739136"><ele>307.75</ele><time>2026-04-18T17:39:13.951Z</time></trkpt><trkpt lat="45.0163676" lon="7.7737706"><ele>308.0</ele><time>2026-04-18T17:39:14.965Z</time></trkpt><trkpt lat="45.0164555" lon="7.7736178"><ele>306.75</ele><time>2026-04-18T17:39:15.972Z</time></trkpt><trkpt lat="45.0165267" lon="7.7734478"><ele>305.5</ele><time>2026-04-18T17:39:16.955Z</time></trkpt><trkpt lat="45.016581" lon="7.7732649"><ele>304.25</ele><time>2026-04-18T17:39:17.956Z</time></trkpt><trkpt lat="45.016621" lon="7.77307"><ele>303.0</ele><time>2026-04-18T17:39:18.961Z</time></trkpt><trkpt lat="45.016643" lon="7.772865"><ele>301.6666666666667</ele><time>2026-04-18T17:39:19.955Z</time></trkpt><trkpt lat="45.0166455" lon="7.7726495"><ele>300.33333333333337</ele><time>2026-04-18T17:39:20.962Z</time></trkpt><trkpt lat="45.0166198" lon="7.7724241"><ele>299.0</ele><time>2026-04-18T17:39:21.954Z</time></trkpt><trkpt lat="45.0165672" lon="7.7721997"><ele>299.0</ele><time>2026-04-18T17:39:22.959Z</time></trkpt><trkpt lat="45.0164944" lon="7.7719764"><ele>299.0</ele><time>2026-04-18T17:39:23.961Z</time></trkpt><trkpt lat="45.0164069" lon="7.7717504"><ele>299.0</ele><time>2026-04-18T17:39:24.959Z</time></trkpt><trkpt lat="45.0163194" lon="7.7715277"><ele>299.0</ele><time>2026-04-18T17:39:25.947Z</time></trkpt><trkpt lat="45.0162337" lon="7.7713078"><ele>299.0</ele><time>2026-04-18T17:39:26.962Z</time></trkpt><trkpt lat="45.0161451" lon="7.7710841"><ele>299.0</ele><time>2026-04-18T17:39:27.964Z</time></trkpt><trkpt lat="45.0160612" lon="7.7708663"><ele>299.33333333333337</ele><time>2026-04-18T17:39:28.971Z</time></trkpt><trkpt lat="45.0159789" lon="7.7706464"><ele>299.6666666666667</ele><time>2026-04-18T17:39:29.949Z</time></trkpt><trkpt lat="45.0159045" lon="7.7704303"><ele>300.0</ele><time>2026-04-18T17:39:30.95Z</time></trkpt><trkpt lat="45.0158344" lon="7.7702046"><ele>302.0</ele><time>2026-04-18T17:39:31.954Z</time></trkpt><trkpt lat="45.0157727" lon="7.769978"><ele>304.0</ele><time>2026-04-18T17:39:32.964Z</time></trkpt><trkpt lat="45.0157186" lon="7.7697423"><ele>306.0</ele><time>2026-04-18T17:39:33.964Z</time></trkpt><trkpt lat="45.0156688" lon="7.7695104"><ele>309.3333333333333</ele><time>2026-04-18T17:39:34.963Z</time></trkpt><trkpt lat="45.0156124" lon="7.7692725"><ele>312.66666666666663</ele><time>2026-04-18T17:39:35.974Z</time></trkpt><trkpt lat="45.0155643" lon="7.7690405"><ele>316.0</ele><time>2026-04-18T17:39:36.954Z</time></trkpt><trkpt lat="45.0155163" lon="7.7688158"><ele>316.0</ele><time>2026-04-18T17:39:37.951Z</time></trkpt><trkpt lat="45.0154717" lon="7.7685953"><ele>316.0</ele><time>2026-04-18T17:39:38.959Z</time></trkpt><trkpt lat="45.015427" lon="7.7683791"><ele>316.0</ele><time>2026-04-18T17:39:39.952Z</time></trkpt><trkpt lat="45.0153824" lon="7.76817"><ele>316.0</ele><time>2026-04-18T17:39:40.963Z</time></trkpt><trkpt lat="45.0153376" lon="7.767964"><ele>316.0</ele><time>2026-04-18T17:39:41.975Z</time></trkpt><trkpt lat="45.0152974" lon="7.7677599"><ele>316.0</ele><time>2026-04-18T17:39:42.961Z</time></trkpt><trkpt lat="45.0152533" lon="7.7675536"><ele>316.66666666666663</ele><time>2026-04-18T17:39:43.962Z</time></trkpt><trkpt lat="45.015207" lon="7.7673452"><ele>317.3333333333333</ele><time>2026-04-18T17:39:44.969Z</time></trkpt><trkpt lat="45.015165" lon="7.767136"><ele>318.0</ele><time>2026-04-18T17:39:45.963Z</time></trkpt><trkpt lat="45.015125" lon="7.7669224"><ele>319.25</ele><time>2026-04-18T17:39:46.975Z</time></trkpt><trkpt lat="45.0150928" lon="7.7667182"><ele>320.5</ele><time>2026-04-18T17:39:47.968Z</time></trkpt><trkpt lat="45.0150653" lon="7.7665258"><ele>321.75</ele><time>2026-04-18T17:39:48.972Z</time></trkpt><trkpt lat="45.0150454" lon="7.7663501"><ele>323.0</ele><time>2026-04-18T17:39:49.975Z</time></trkpt><trkpt lat="45.0150308" lon="7.7662096"><ele>323.0</ele><time>2026-04-18T17:39:50.974Z</time></trkpt><trkpt lat="45.0150218" lon="7.7661073"><ele>323.0</ele><time>2026-04-18T17:39:51.963Z</time></trkpt><trkpt lat="45.0150381" lon="7.7660064"><ele>323.0</ele><time>2026-04-18T17:39:53.958Z</time></trkpt><trkpt lat="45.0150118" lon="7.7659166"><ele>323.0</ele><time>2026-04-18T17:41:40.964Z</time></trkpt><trkpt lat="45.0149884" lon="7.7657249"><ele>323.0</ele><time>2026-04-18T17:41:42.949Z</time></trkpt><trkpt lat="45.0149811" lon="7.7655939"><ele>323.0</ele><time>2026-04-18T17:41:43.958Z</time></trkpt><trkpt lat="45.0149777" lon="7.7654435"><ele>323.5</ele><time>2026-04-18T17:41:44.963Z</time></trkpt><trkpt lat="45.0149719" lon="7.7652791"><ele>324.0</ele><time>2026-04-18T17:41:45.964Z</time></trkpt><trkpt lat="45.0149708" lon="7.7650973"><ele>324.5</ele><time>2026-04-18T17:41:46.954Z</time></trkpt><trkpt lat="45.0149799" lon="7.7648962"><ele>325.0</ele><time>2026-04-18T17:41:47.975Z</time></trkpt><trkpt lat="45.0149889" lon="7.7646956"><ele>326.66666666666663</ele><time>2026-04-18T17:41:48.962Z</time></trkpt><trkpt lat="45.0150019" lon="7.7644908"><ele>328.3333333333333</ele><time>2026-04-18T17:41:49.954Z</time></trkpt><trkpt lat="45.0150173" lon="7.7642782"><ele>330.0</ele><time>2026-04-18T17:41:50.975Z</time></trkpt><trkpt lat="45.0150339" lon="7.764056"><ele>331.0</ele><time>2026-04-18T17:41:51.963Z</time></trkpt><trkpt lat="45.0150496" lon="7.7638298"><ele>332.0</ele><time>2026-04-18T17:41:52.96Z</time></trkpt><trkpt lat="45.015064" lon="7.7636013"><ele>333.0</ele><time>2026-04-18T17:41:53.951Z</time></trkpt><trkpt lat="45.0150815" lon="7.7633673"><ele>334.0</ele><time>2026-04-18T17:41:54.964Z</time></trkpt><trkpt lat="45.015096" lon="7.7631334"><ele>335.0</ele><time>2026-04-18T17:41:55.966Z</time></trkpt><trkpt lat="45.0151145" lon="7.7629066"><ele>336.0</ele><time>2026-04-18T17:41:56.969Z</time></trkpt><trkpt lat="45.0151341" lon="7.7626831"><ele>337.0</ele><time>2026-04-18T17:41:57.955Z</time></trkpt><trkpt lat="45.0151575" lon="7.7624598"><ele>338.0</ele><time>2026-04-18T17:41:58.958Z</time></trkpt><trkpt lat="45.0151829" lon="7.7622443"><ele>339.0</ele><time>2026-04-18T17:41:59.965Z</time></trkpt><trkpt lat="45.0152085" lon="7.762027"><ele>340.0</ele><time>2026-04-18T17:42:00.975Z</time></trkpt><trkpt lat="45.0152344" lon="7.7618114"><ele>341.0</ele><time>2026-04-18T17:42:01.974Z</time></trkpt><trkpt lat="45.0152651" lon="7.761599"><ele>342.0</ele><time>2026-04-18T17:42:02.968Z</time></trkpt><trkpt lat="45.0153168" lon="7.76141"><ele>342.0</ele><time>2026-04-18T17:42:03.974Z</time></trkpt><trkpt lat="45.0153895" lon="7.7612307"><ele>342.0</ele><time>2026-04-18T17:42:04.96Z</time></trkpt><trkpt lat="45.0154869" lon="7.7610676"><ele>342.0</ele><time>2026-04-18T17:42:05.96Z</time></trkpt><trkpt lat="45.0155962" lon="7.7609183"><ele>342.0</ele><time>2026-04-18T17:42:06.958Z</time></trkpt><trkpt lat="45.0157083" lon="7.7607634"><ele>343.0</ele><time>2026-04-18T17:42:07.956Z</time></trkpt><trkpt lat="45.015822" lon="7.7606036"><ele>344.0</ele><time>2026-04-18T17:42:08.974Z</time></trkpt><trkpt lat="45.0159385" lon="7.7604404"><ele>345.0</ele><time>2026-04-18T17:42:09.961Z</time></trkpt><trkpt lat="45.0160519" lon="7.760279"><ele>346.6666666666667</ele><time>2026-04-18T17:42:10.974Z</time></trkpt><trkpt lat="45.0161588" lon="7.7601075"><ele>348.33333333333337</ele><time>2026-04-18T17:42:11.95Z</time></trkpt><trkpt lat="45.0162542" lon="7.7599275"><ele>350.0</ele><time>2026-04-18T17:42:12.947Z</time></trkpt><trkpt lat="45.0163328" lon="7.7597413"><ele>350.0</ele><time>2026-04-18T17:42:13.971Z</time></trkpt><trkpt lat="45.0164003" lon="7.7595455"><ele>350.0</ele><time>2026-04-18T17:42:14.965Z</time></trkpt><trkpt lat="45.0164596" lon="7.7593393"><ele>350.0</ele><time>2026-04-18T17:42:15.962Z</time></trkpt><trkpt lat="45.0165103" lon="7.7591325"><ele>352.0</ele><time>2026-04-18T17:42:16.958Z</time></trkpt><trkpt lat="45.016562" lon="7.7589158"><ele>354.0</ele><time>2026-04-18T17:42:17.959Z</time></trkpt><trkpt lat="45.0166154" lon="7.7586975"><ele>356.0</ele><time>2026-04-18T17:42:18.972Z</time></trkpt><trkpt lat="45.016674" lon="7.7584749"><ele>358.0</ele><time>2026-04-18T17:42:19.967Z</time></trkpt><trkpt lat="45.0167286" lon="7.7582535"><ele>360.0</ele><time>2026-04-18T17:42:20.951Z</time></trkpt><trkpt lat="45.0167784" lon="7.7580356"><ele>362.0</ele><time>2026-04-18T17:42:21.964Z</time></trkpt><trkpt lat="45.0168019" lon="7.7578288"><ele>363.5</ele><time>2026-04-18T17:42:22.959Z</time></trkpt><trkpt lat="45.0168003" lon="7.757632"><ele>365.0</ele><time>2026-04-18T17:42:23.966Z</time></trkpt><trkpt lat="45.0167776" lon="7.7574579"><ele>366.5</ele><time>2026-04-18T17:42:24.963Z</time></trkpt><trkpt lat="45.016742" lon="7.757302"><ele>368.0</ele><time>2026-04-18T17:42:25.968Z</time></trkpt><trkpt lat="45.0166986" lon="7.7571769"><ele>366.6666666666667</ele><time>2026-04-18T17:42:26.967Z</time></trkpt><trkpt lat="45.0166495" lon="7.7570626"><ele>365.33333333333337</ele><time>2026-04-18T17:42:27.975Z</time></trkpt><trkpt lat="45.0166014" lon="7.756955"><ele>364.0</ele><time>2026-04-18T17:42:28.966Z</time></trkpt><trkpt lat="45.0165589" lon="7.7568435"><ele>362.6666666666667</ele><time>2026-04-18T17:42:29.964Z</time></trkpt><trkpt lat="45.0165278" lon="7.7567357"><ele>361.3333333333333</ele><time>2026-04-18T17:42:30.951Z</time></trkpt><trkpt lat="45.016512" lon="7.7566136"><ele>360.0</ele><time>2026-04-18T17:42:31.956Z</time></trkpt><trkpt lat="45.0165072" lon="7.7564846"><ele>359.8</ele><time>2026-04-18T17:42:32.963Z</time></trkpt><trkpt lat="45.0165172" lon="7.7563416"><ele>359.6</ele><time>2026-04-18T17:42:33.975Z</time></trkpt><trkpt lat="45.0165319" lon="7.756198"><ele>359.4</ele><time>2026-04-18T17:42:34.974Z</time></trkpt><trkpt lat="45.0165675" lon="7.7560545"><ele>359.2</ele><time>2026-04-18T17:42:35.955Z</time></trkpt><trkpt lat="45.0166222" lon="7.7559093"><ele>359.0</ele><time>2026-04-18T17:42:36.963Z</time></trkpt><trkpt lat="45.0166853" lon="7.7557876"><ele>359.6</ele><time>2026-04-18T17:42:37.965Z</time></trkpt><trkpt lat="45.0167551" lon="7.7556706"><ele>360.2</ele><time>2026-04-18T17:42:38.97Z</time></trkpt><trkpt lat="45.0168294" lon="7.7555632"><ele>360.8</ele><time>2026-04-18T17:42:39.952Z</time></trkpt><trkpt lat="45.0169063" lon="7.7554446"><ele>361.40000000000003</ele><time>2026-04-18T17:42:40.958Z</time></trkpt><trkpt lat="45.0169739" lon="7.755333"><ele>362.0</ele><time>2026-04-18T17:42:41.958Z</time></trkpt><trkpt lat="45.0170459" lon="7.7552284"><ele>361.40000000000003</ele><time>2026-04-18T17:42:42.961Z</time></trkpt><trkpt lat="45.017109" lon="7.7551248"><ele>360.8</ele><time>2026-04-18T17:42:43.964Z</time></trkpt><trkpt lat="45.0171602" lon="7.7550134"><ele>360.2</ele><time>2026-04-18T17:42:44.974Z</time></trkpt><trkpt lat="45.0171907" lon="7.7548868"><ele>359.6</ele><time>2026-04-18T17:42:45.957Z</time></trkpt><trkpt lat="45.0171901" lon="7.7547515"><ele>359.0</ele><time>2026-04-18T17:42:46.974Z</time></trkpt><trkpt lat="45.0171701" lon="7.7546208"><ele>359.0</ele><time>2026-04-18T17:42:47.961Z</time></trkpt><trkpt lat="45.0171428" lon="7.754486"><ele>359.0</ele><time>2026-04-18T17:42:48.954Z</time></trkpt><trkpt lat="45.0171177" lon="7.7543466"><ele>359.0</ele><time>2026-04-18T17:42:49.961Z</time></trkpt><trkpt lat="45.0170903" lon="7.7542123"><ele>359.0</ele><time>2026-04-18T17:42:50.955Z</time></trkpt><trkpt lat="45.0170641" lon="7.7540722"><ele>359.0</ele><time>2026-04-18T17:42:51.967Z</time></trkpt><trkpt lat="45.0170434" lon="7.7539455"><ele>359.6666666666667</ele><time>2026-04-18T17:42:52.974Z</time></trkpt><trkpt lat="45.0170214" lon="7.7538233"><ele>360.33333333333337</ele><time>2026-04-18T17:42:53.971Z</time></trkpt><trkpt lat="45.0170019" lon="7.7537112"><ele>361.0</ele><time>2026-04-18T17:42:54.963Z</time></trkpt><trkpt lat="45.0169842" lon="7.7536103"><ele>361.6666666666667</ele><time>2026-04-18T17:42:55.97Z</time></trkpt><trkpt lat="45.0169535" lon="7.7534465"><ele>362.3333333333333</ele><time>2026-04-18T17:42:57.961Z</time></trkpt><trkpt lat="45.0169413" lon="7.7533275"><ele>363.0</ele><time>2026-04-18T17:42:59.96Z</time></trkpt><trkpt lat="45.0169589" lon="7.7532249"><ele>364.2</ele><time>2026-04-18T17:43:04.95Z</time></trkpt><trkpt lat="45.0170271" lon="7.7530912"><ele>365.4</ele><time>2026-04-18T17:43:06.959Z</time></trkpt><trkpt lat="45.0170911" lon="7.7530436"><ele>366.59999999999997</ele><time>2026-04-18T17:43:07.964Z</time></trkpt><trkpt lat="45.0171662" lon="7.7530022"><ele>367.79999999999995</ele><time>2026-04-18T17:43:08.974Z</time></trkpt><trkpt lat="45.0172515" lon="7.7529681"><ele>369.0</ele><time>2026-04-18T17:43:09.971Z</time></trkpt><trkpt lat="45.0173448" lon="7.752923"><ele>369.0</ele><time>2026-04-18T17:43:10.958Z</time></trkpt><trkpt lat="45.0174411" lon="7.7528812"><ele>369.0</ele><time>2026-04-18T17:43:11.97Z</time></trkpt><trkpt lat="45.0175396" lon="7.7528327"><ele>369.0</ele><time>2026-04-18T17:43:12.968Z</time></trkpt><trkpt lat="45.0176415" lon="7.7527861"><ele>369.0</ele><time>2026-04-18T17:43:13.975Z</time></trkpt><trkpt lat="45.017744" lon="7.7527491"><ele>369.0</ele><time>2026-04-18T17:43:14.966Z</time></trkpt><trkpt lat="45.0178414" lon="7.752722"><ele>370.0</ele><time>2026-04-18T17:43:15.968Z</time></trkpt><trkpt lat="45.0179326" lon="7.7527057"><ele>371.0</ele><time>2026-04-18T17:43:16.958Z</time></trkpt><trkpt lat="45.0180188" lon="7.7526907"><ele>372.0</ele><time>2026-04-18T17:43:17.964Z</time></trkpt><trkpt lat="45.0181008" lon="7.7526839"><ele>373.0</ele><time>2026-04-18T17:43:18.965Z</time></trkpt><trkpt lat="45.0181811" lon="7.7526726"><ele>374.0</ele><time>2026-04-18T17:43:19.964Z</time></trkpt><trkpt lat="45.0182671" lon="7.7526706"><ele>375.0</ele><time>2026-04-18T17:43:20.953Z</time></trkpt><trkpt lat="45.0183568" lon="7.7526766"><ele>375.0</ele><time>2026-04-18T17:43:21.953Z</time></trkpt><trkpt lat="45.0184482" lon="7.7526709"><ele>375.0</ele><time>2026-04-18T17:43:22.966Z</time></trkpt><trkpt lat="45.018546" lon="7.7526617"><ele>375.0</ele><time>2026-04-18T17:43:23.974Z</time></trkpt><trkpt lat="45.018648" lon="7.7526355"><ele>375.0</ele><time>2026-04-18T17:43:24.974Z</time></trkpt><trkpt lat="45.0187535" lon="7.7525984"><ele>375.0</ele><time>2026-04-18T17:43:25.958Z</time></trkpt><trkpt lat="45.0188604" lon="7.7525466"><ele>375.0</ele><time>2026-04-18T17:43:26.953Z</time></trkpt><trkpt lat="45.0189655" lon="7.7524797"><ele>375.0</ele><time>2026-04-18T17:43:27.959Z</time></trkpt><trkpt lat="45.0190684" lon="7.7524071"><ele>375.0</ele><time>2026-04-18T17:43:28.953Z</time></trkpt><trkpt lat="45.01917" lon="7.7523325"><ele>375.0</ele><time>2026-04-18T17:43:29.952Z</time></trkpt><trkpt lat="45.0192734" lon="7.752255"><ele>374.75</ele><time>2026-04-18T17:43:30.975Z</time></trkpt><trkpt lat="45.019372" lon="7.7521759"><ele>374.5</ele><time>2026-04-18T17:43:31.955Z</time></trkpt><trkpt lat="45.0194694" lon="7.7520822"><ele>374.25</ele><time>2026-04-18T17:43:32.957Z</time></trkpt><trkpt lat="45.0195609" lon="7.7519774"><ele>374.0</ele><time>2026-04-18T17:43:33.959Z</time></trkpt><trkpt lat="45.019645" lon="7.7518592"><ele>375.0</ele><time>2026-04-18T17:43:34.953Z</time></trkpt><trkpt lat="45.0197245" lon="7.7517384"><ele>376.0</ele><time>2026-04-18T17:43:35.975Z</time></trkpt><trkpt lat="45.0197987" lon="7.7516157"><ele>377.0</ele><time>2026-04-18T17:43:36.955Z</time></trkpt><trkpt lat="45.0198687" lon="7.7515021"><ele>378.0</ele><time>2026-04-18T17:43:37.956Z</time></trkpt><trkpt lat="45.0199281" lon="7.7513929"><ele>379.0</ele><time>2026-04-18T17:43:38.971Z</time></trkpt><trkpt lat="45.0199886" lon="7.7512947"><ele>379.0</ele><time>2026-04-18T17:43:39.954Z</time></trkpt><trkpt lat="45.0200502" lon="7.7511938"><ele>379.0</ele><time>2026-04-18T17:43:40.964Z</time></trkpt><trkpt lat="45.0201108" lon="7.7510892"><ele>379.0</ele><time>2026-04-18T17:43:41.956Z</time></trkpt><trkpt lat="45.0201741" lon="7.7509873"><ele>379.0</ele><time>2026-04-18T17:43:42.951Z</time></trkpt><trkpt lat="45.0202397" lon="7.7508753"><ele>379.0</ele><time>2026-04-18T17:43:43.961Z</time></trkpt><trkpt lat="45.0203075" lon="7.750758"><ele>380.4</ele><time>2026-04-18T17:43:44.966Z</time></trkpt><trkpt lat="45.0203806" lon="7.7506437"><ele>381.79999999999995</ele><time>2026-04-18T17:43:45.957Z</time></trkpt><trkpt lat="45.020457" lon="7.7505257"><ele>383.20000000000005</ele><time>2026-04-18T17:43:46.948Z</time></trkpt><trkpt lat="45.0205172" lon="7.750408"><ele>384.6</ele><time>2026-04-18T17:43:47.975Z</time></trkpt><trkpt lat="45.020551" lon="7.7502801"><ele>386.0</ele><time>2026-04-18T17:43:48.972Z</time></trkpt><trkpt lat="45.0205644" lon="7.7501473"><ele>387.4</ele><time>2026-04-18T17:43:49.956Z</time></trkpt><trkpt lat="45.0205526" lon="7.7500191"><ele>388.8</ele><time>2026-04-18T17:43:50.947Z</time></trkpt><trkpt lat="45.0205224" lon="7.7498871"><ele>390.2</ele><time>2026-04-18T17:43:51.958Z</time></trkpt><trkpt lat="45.0204805" lon="7.7497504"><ele>391.59999999999997</ele><time>2026-04-18T17:43:52.965Z</time></trkpt><trkpt lat="45.0204327" lon="7.7496125"><ele>393.0</ele><time>2026-04-18T17:43:53.975Z</time></trkpt><trkpt lat="45.0203823" lon="7.7494636"><ele>394.4</ele><time>2026-04-18T17:43:54.97Z</time></trkpt><trkpt lat="45.020329" lon="7.7493137"><ele>395.79999999999995</ele><time>2026-04-18T17:43:55.962Z</time></trkpt><trkpt lat="45.020278" lon="7.7491657"><ele>397.2</ele><time>2026-04-18T17:43:56.951Z</time></trkpt><trkpt lat="45.0202327" lon="7.7490263"><ele>398.6</ele><time>2026-04-18T17:43:57.956Z</time></trkpt><trkpt lat="45.0201882" lon="7.7488994"><ele>400.0</ele><time>2026-04-18T17:43:58.975Z</time></trkpt><trkpt lat="45.0201533" lon="7.7487862"><ele>400.00000000000006</ele><time>2026-04-18T17:43:59.951Z</time></trkpt><trkpt lat="45.0201224" lon="7.7487025"><ele>400.0</ele><time>2026-04-18T17:44:00.966Z</time></trkpt><trkpt lat="45.0200962" lon="7.7486204"><ele>400.0</ele><time>2026-04-18T17:44:02.962Z</time></trkpt><trkpt lat="45.0200601" lon="7.7485"><ele>400.0</ele><time>2026-04-18T17:44:07.966Z</time></trkpt><trkpt lat="45.0200263" lon="7.7484024"><ele>400.00000000000006</ele><time>2026-04-18T17:44:09.964Z</time></trkpt><trkpt lat="45.0200402" lon="7.7483077"><ele>400.0</ele><time>2026-04-18T17:44:11.952Z</time></trkpt><trkpt lat="45.0201243" lon="7.7482682"><ele>400.8</ele><time>2026-04-18T17:44:13.974Z</time></trkpt><trkpt lat="45.020243" lon="7.7482747"><ele>401.6</ele><time>2026-04-18T17:44:15.966Z</time></trkpt><trkpt lat="45.0203152" lon="7.7482481"><ele>402.4</ele><time>2026-04-18T17:44:16.967Z</time></trkpt><trkpt lat="45.0203964" lon="7.7481872"><ele>403.2</ele><time>2026-04-18T17:44:17.956Z</time></trkpt><trkpt lat="45.0204863" lon="7.7480999"><ele>404.0</ele><time>2026-04-18T17:44:18.955Z</time></trkpt><trkpt lat="45.0205801" lon="7.7480125"><ele>404.0</ele><time>2026-04-18T17:44:19.964Z</time></trkpt><trkpt lat="45.0206759" lon="7.7479273"><ele>404.0</ele><time>2026-04-18T17:44:20.958Z</time></trkpt><trkpt lat="45.0207811" lon="7.7478566"><ele>404.0</ele><time>2026-04-18T17:44:21.951Z</time></trkpt><trkpt lat="45.020892" lon="7.7477948"><ele>404.0</ele><time>2026-04-18T17:44:22.956Z</time></trkpt><trkpt lat="45.0210133" lon="7.7477834"><ele>406.0</ele><time>2026-04-18T17:44:23.959Z</time></trkpt><trkpt lat="45.0211337" lon="7.7477722"><ele>408.0</ele><time>2026-04-18T17:44:24.963Z</time></trkpt><trkpt lat="45.0212575" lon="7.7477597"><ele>410.0</ele><time>2026-04-18T17:44:25.958Z</time></trkpt><trkpt lat="45.021383" lon="7.747759"><ele>412.0</ele><time>2026-04-18T17:44:26.963Z</time></trkpt><trkpt lat="45.0215076" lon="7.7477548"><ele>412.0</ele><time>2026-04-18T17:44:27.955Z</time></trkpt><trkpt lat="45.0216246" lon="7.7477465"><ele>412.0</ele><time>2026-04-18T17:44:28.955Z</time></trkpt><trkpt lat="45.0217327" lon="7.7477263"><ele>412.0</ele><time>2026-04-18T17:44:29.958Z</time></trkpt><trkpt lat="45.0218288" lon="7.7476889"><ele>412.0</ele><time>2026-04-18T17:44:30.959Z</time></trkpt><trkpt lat="45.0219219" lon="7.7476276"><ele>412.0</ele><time>2026-04-18T17:44:31.975Z</time></trkpt><trkpt lat="45.0220123" lon="7.7475478"><ele>413.0</ele><time>2026-04-18T17:44:32.955Z</time></trkpt><trkpt lat="45.022099" lon="7.7474539"><ele>414.0</ele><time>2026-04-18T17:44:33.954Z</time></trkpt><trkpt lat="45.0221829" lon="7.7473587"><ele>415.0</ele><time>2026-04-18T17:44:34.968Z</time></trkpt><trkpt lat="45.0222714" lon="7.7472741"><ele>416.0</ele><time>2026-04-18T17:44:35.954Z</time></trkpt><trkpt lat="45.022365" lon="7.7472016"><ele>417.0</ele><time>2026-04-18T17:44:36.961Z</time></trkpt><trkpt lat="45.022464" lon="7.747136"><ele>416.40000000000003</ele><time>2026-04-18T17:44:37.965Z</time></trkpt><trkpt lat="45.0225626" lon="7.7470704"><ele>415.8</ele><time>2026-04-18T17:44:38.965Z</time></trkpt><trkpt lat="45.0226528" lon="7.7470053"><ele>415.2</ele><time>2026-04-18T17:44:39.953Z</time></trkpt><trkpt lat="45.0227414" lon="7.7469422"><ele>414.6</ele><time>2026-04-18T17:44:40.964Z</time></trkpt><trkpt lat="45.0228273" lon="7.7468766"><ele>414.0</ele><time>2026-04-18T17:44:41.954Z</time></trkpt><trkpt lat="45.0229096" lon="7.746811"><ele>415.3333333333333</ele><time>2026-04-18T17:44:42.962Z</time></trkpt><trkpt lat="45.0229921" lon="7.7467396"><ele>416.66666666666663</ele><time>2026-04-18T17:44:43.975Z</time></trkpt><trkpt lat="45.0230679" lon="7.7466667"><ele>418.0</ele><time>2026-04-18T17:44:44.966Z</time></trkpt><trkpt lat="45.0231339" lon="7.7466037"><ele>419.3333333333333</ele><time>2026-04-18T17:44:45.958Z</time></trkpt><trkpt lat="45.0231876" lon="7.7465401"><ele>420.66666666666663</ele><time>2026-04-18T17:44:46.968Z</time></trkpt><trkpt lat="45.0232709" lon="7.7464549"><ele>422.0</ele><time>2026-04-18T17:44:48.956Z</time></trkpt><trkpt lat="45.0233416" lon="7.7464073"><ele>421.99999999999994</ele><time>2026-04-18T17:44:51.955Z</time></trkpt><trkpt lat="45.0234033" lon="7.7462925"><ele>422.0</ele><time>2026-04-18T17:46:35.958Z</time></trkpt><trkpt lat="45.0234704" lon="7.7462366"><ele>422.0</ele><time>2026-04-18T17:46:36.959Z</time></trkpt><trkpt lat="45.0235416" lon="7.7461998"><ele>422.0</ele><time>2026-04-18T17:46:37.959Z</time></trkpt><trkpt lat="45.0236244" lon="7.7461756"><ele>421.99999999999994</ele><time>2026-04-18T17:46:38.974Z</time></trkpt><trkpt lat="45.0237125" lon="7.7461791"><ele>422.0</ele><time>2026-04-18T17:46:39.958Z</time></trkpt><trkpt lat="45.0238077" lon="7.7462105"><ele>422.0</ele><time>2026-04-18T17:46:40.95Z</time></trkpt><trkpt lat="45.0239069" lon="7.7462656"><ele>422.0</ele><time>2026-04-18T17:46:41.944Z</time></trkpt><trkpt lat="45.0240101" lon="7.746324"><ele>422.0</ele><time>2026-04-18T17:46:42.954Z</time></trkpt><trkpt lat="45.0241234" lon="7.7463887"><ele>422.0</ele><time>2026-04-18T17:46:43.954Z</time></trkpt><trkpt lat="45.024235" lon="7.7464662"><ele>423.5</ele><time>2026-04-18T17:46:44.954Z</time></trkpt><trkpt lat="45.0243381" lon="7.7465617"><ele>425.0</ele><time>2026-04-18T17:46:45.948Z</time></trkpt><trkpt lat="45.0244293" lon="7.7466746"><ele>426.5</ele><time>2026-04-18T17:46:46.966Z</time></trkpt><trkpt lat="45.0245083" lon="7.7468114"><ele>428.0</ele><time>2026-04-18T17:46:47.948Z</time></trkpt><trkpt lat="45.0245705" lon="7.7469568"><ele>428.2</ele><time>2026-04-18T17:46:48.96Z</time></trkpt><trkpt lat="45.024615" lon="7.7471096"><ele>428.4</ele><time>2026-04-18T17:46:49.958Z</time></trkpt><trkpt lat="45.0246329" lon="7.7472601"><ele>428.59999999999997</ele><time>2026-04-18T17:46:50.965Z</time></trkpt><trkpt lat="45.02462" lon="7.747406"><ele>428.79999999999995</ele><time>2026-04-18T17:46:51.946Z</time></trkpt><trkpt lat="45.024585" lon="7.7475374"><ele>429.0</ele><time>2026-04-18T17:46:52.964Z</time></trkpt><trkpt lat="45.0245445" lon="7.7476655"><ele>429.6</ele><time>2026-04-18T17:46:53.955Z</time></trkpt><trkpt lat="45.0245186" lon="7.7478018"><ele>430.2</ele><time>2026-04-18T17:46:54.959Z</time></trkpt><trkpt lat="45.0245215" lon="7.7479361"><ele>430.80000000000007</ele><time>2026-04-18T17:46:55.947Z</time></trkpt><trkpt lat="45.0245499" lon="7.7480733"><ele>431.40000000000003</ele><time>2026-04-18T17:46:56.949Z</time></trkpt><trkpt lat="45.0246006" lon="7.7482045"><ele>432.0</ele><time>2026-04-18T17:46:57.957Z</time></trkpt><trkpt lat="45.024668" lon="7.7483278"><ele>432.0</ele><time>2026-04-18T17:46:58.956Z</time></trkpt><trkpt lat="45.0247482" lon="7.7484448"><ele>432.0</ele><time>2026-04-18T17:46:59.96Z</time></trkpt><trkpt lat="45.0248419" lon="7.7485461"><ele>432.0</ele><time>2026-04-18T17:47:00.953Z</time></trkpt><trkpt lat="45.0249429" lon="7.7486343"><ele>432.0</ele><time>2026-04-18T17:47:01.958Z</time></trkpt><trkpt lat="45.0250473" lon="7.748724"><ele>434.0</ele><time>2026-04-18T17:47:02.952Z</time></trkpt><trkpt lat="45.0251426" lon="7.7488159"><ele>436.00000000000006</ele><time>2026-04-18T17:47:03.955Z</time></trkpt><trkpt lat="45.025219" lon="7.7489296"><ele>438.00000000000006</ele><time>2026-04-18T17:47:04.954Z</time></trkpt><trkpt lat="45.0252663" lon="7.7490587"><ele>440.0</ele><time>2026-04-18T17:47:05.958Z</time></trkpt><trkpt lat="45.0252932" lon="7.7492007"><ele>442.0</ele><time>2026-04-18T17:47:06.949Z</time></trkpt><trkpt lat="45.0253181" lon="7.7493446"><ele>441.5</ele><time>2026-04-18T17:47:07.959Z</time></trkpt><trkpt lat="45.0253563" lon="7.7494843"><ele>441.0</ele><time>2026-04-18T17:47:08.963Z</time></trkpt><trkpt lat="45.0254176" lon="7.7496168"><ele>440.5</ele><time>2026-04-18T17:47:09.963Z</time></trkpt><trkpt lat="45.0254972" lon="7.7497344"><ele>440.0</ele><time>2026-04-18T17:47:10.96Z</time></trkpt><trkpt lat="45.0255899" lon="7.7498412"><ele>440.0</ele><time>2026-04-18T17:47:11.959Z</time></trkpt><trkpt lat="45.0256857" lon="7.749947"><ele>440.0</ele><time>2026-04-18T17:47:12.945Z</time></trkpt><trkpt lat="45.0257755" lon="7.7500633"><ele>440.0</ele><time>2026-04-18T17:47:13.972Z</time></trkpt><trkpt lat="45.0258557" lon="7.7501964"><ele>440.0</ele><time>2026-04-18T17:47:14.955Z</time></trkpt><trkpt lat="45.0259133" lon="7.7503527"><ele>443.25</ele><time>2026-04-18T17:47:15.958Z</time></trkpt><trkpt lat="45.0259549" lon="7.7505168"><ele>446.5</ele><time>2026-04-18T17:47:16.951Z</time></trkpt><trkpt lat="45.0259944" lon="7.7506821"><ele>449.75</ele><time>2026-04-18T17:47:17.954Z</time></trkpt><trkpt lat="45.0260118" lon="7.7508659"><ele>453.0</ele><time>2026-04-18T17:47:18.951Z</time></trkpt><trkpt lat="45.0260357" lon="7.751047"><ele>453.0</ele><time>2026-04-18T17:47:19.958Z</time></trkpt><trkpt lat="45.0260551" lon="7.7512239"><ele>453.0</ele><time>2026-04-18T17:47:20.947Z</time></trkpt><trkpt lat="45.0260722" lon="7.7513971"><ele>453.0</ele><time>2026-04-18T17:47:21.957Z</time></trkpt><trkpt lat="45.0260921" lon="7.7515718"><ele>453.0</ele><time>2026-04-18T17:47:22.957Z</time></trkpt><trkpt lat="45.0261111" lon="7.7517536"><ele>453.0</ele><time>2026-04-18T17:47:23.953Z</time></trkpt><trkpt lat="45.0261307" lon="7.7519344"><ele>453.0</ele><time>2026-04-18T17:47:24.965Z</time></trkpt><trkpt lat="45.0261525" lon="7.7521223"><ele>453.0</ele><time>2026-04-18T17:47:25.946Z</time></trkpt><trkpt lat="45.0261723" lon="7.7523134"><ele>453.0</ele><time>2026-04-18T17:47:26.959Z</time></trkpt><trkpt lat="45.0261985" lon="7.7525049"><ele>453.0</ele><time>2026-04-18T17:47:27.957Z</time></trkpt><trkpt lat="45.0262324" lon="7.752696"><ele>453.0</ele><time>2026-04-18T17:47:28.95Z</time></trkpt><trkpt lat="45.0262739" lon="7.7528782"><ele>453.0</ele><time>2026-04-18T17:47:29.953Z</time></trkpt><trkpt lat="45.0263246" lon="7.7530534"><ele>453.0</ele><time>2026-04-18T17:47:30.962Z</time></trkpt><trkpt lat="45.0263815" lon="7.7532144"><ele>453.0</ele><time>2026-04-18T17:47:31.947Z</time></trkpt><trkpt lat="45.0264392" lon="7.7533612"><ele>452.99999999999994</ele><time>2026-04-18T17:47:32.947Z</time></trkpt><trkpt lat="45.0265007" lon="7.7534958"><ele>452.99999999999994</ele><time>2026-04-18T17:47:33.945Z</time></trkpt><trkpt lat="45.0265589" lon="7.7536151"><ele>453.0</ele><time>2026-04-18T17:47:34.952Z</time></trkpt><trkpt lat="45.026613" lon="7.7537257"><ele>453.0</ele><time>2026-04-18T17:47:35.953Z</time></trkpt><trkpt lat="45.0266761" lon="7.7538164"><ele>453.0</ele><time>2026-04-18T17:47:36.962Z</time></trkpt><trkpt lat="45.0267513" lon="7.7538886"><ele>452.99999999999994</ele><time>2026-04-18T17:47:37.946Z</time></trkpt><trkpt lat="45.026845" lon="7.7539317"><ele>452.99999999999994</ele><time>2026-04-18T17:47:38.959Z</time></trkpt><trkpt lat="45.0269491" lon="7.7539332"><ele>453.0</ele><time>2026-04-18T17:47:39.963Z</time></trkpt><trkpt lat="45.0270556" lon="7.7538945"><ele>453.0</ele><time>2026-04-18T17:47:40.965Z</time></trkpt><trkpt lat="45.0271676" lon="7.7538201"><ele>453.0</ele><time>2026-04-18T17:47:41.961Z</time></trkpt><trkpt lat="45.0272804" lon="7.7537282"><ele>453.0</ele><time>2026-04-18T17:47:42.957Z</time></trkpt><trkpt lat="45.0273966" lon="7.7536233"><ele>453.0</ele><time>2026-04-18T17:47:43.949Z</time></trkpt><trkpt lat="45.0275156" lon="7.7535014"><ele>453.0</ele><time>2026-04-18T17:47:44.959Z</time></trkpt><trkpt lat="45.0276327" lon="7.7533563"><ele>458.66666666666663</ele><time>2026-04-18T17:47:45.946Z</time></trkpt><trkpt lat="45.0277491" lon="7.7531975"><ele>464.3333333333333</ele><time>2026-04-18T17:47:46.948Z</time></trkpt><trkpt lat="45.0278669" lon="7.7530279"><ele>470.0</ele><time>2026-04-18T17:47:47.954Z</time></trkpt><trkpt lat="45.0279858" lon="7.7528499"><ele>466.3333333333333</ele><time>2026-04-18T17:47:48.947Z</time></trkpt><trkpt lat="45.0280985" lon="7.7526587"><ele>462.66666666666663</ele><time>2026-04-18T17:47:49.945Z</time></trkpt><trkpt lat="45.0282165" lon="7.7524642"><ele>459.0</ele><time>2026-04-18T17:47:50.945Z</time></trkpt><trkpt lat="45.0283367" lon="7.7522648"><ele>459.0</ele><time>2026-04-18T17:47:51.96Z</time></trkpt><trkpt lat="45.0284586" lon="7.7520724"><ele>459.0</ele><time>2026-04-18T17:47:52.951Z</time></trkpt><trkpt lat="45.0285753" lon="7.7518765"><ele>459.0</ele><time>2026-04-18T17:47:53.958Z</time></trkpt><trkpt lat="45.0286904" lon="7.7516977"><ele>466.0</ele><time>2026-04-18T17:47:54.958Z</time></trkpt><trkpt lat="45.0287952" lon="7.7515221"><ele>473.0</ele><time>2026-04-18T17:47:55.956Z</time></trkpt><trkpt lat="45.0288925" lon="7.7513438"><ele>480.0</ele><time>2026-04-18T17:47:56.946Z</time></trkpt><trkpt lat="45.0289827" lon="7.7511618"><ele>484.66666666666663</ele><time>2026-04-18T17:47:57.947Z</time></trkpt><trkpt lat="45.0290639" lon="7.7509714"><ele>489.3333333333333</ele><time>2026-04-18T17:47:58.945Z</time></trkpt><trkpt lat="45.0291463" lon="7.7507793"><ele>494.0</ele><time>2026-04-18T17:47:59.957Z</time></trkpt><trkpt lat="45.0292383" lon="7.7505889"><ele>488.66666666666663</ele><time>2026-04-18T17:48:00.955Z</time></trkpt><trkpt lat="45.0293373" lon="7.7504"><ele>483.33333333333337</ele><time>2026-04-18T17:48:01.955Z</time></trkpt><trkpt lat="45.0294392" lon="7.7502244"><ele>478.0</ele><time>2026-04-18T17:48:02.96Z</time></trkpt><trkpt lat="45.0295329" lon="7.7500625"><ele>478.0</ele><time>2026-04-18T17:48:03.946Z</time></trkpt><trkpt lat="45.0296237" lon="7.7499061"><ele>478.0</ele><time>2026-04-18T17:48:04.951Z</time></trkpt><trkpt lat="45.0297225" lon="7.7497519"><ele>478.0</ele><time>2026-04-18T17:48:05.96Z</time></trkpt><trkpt lat="45.0298357" lon="7.7496348"><ele>478.0</ele><time>2026-04-18T17:48:06.966Z</time></trkpt><trkpt lat="45.0299569" lon="7.7495349"><ele>477.0</ele><time>2026-04-18T17:48:07.95Z</time></trkpt><trkpt lat="45.030078" lon="7.7494352"><ele>476.0</ele><time>2026-04-18T17:48:08.947Z</time></trkpt><trkpt lat="45.0301798" lon="7.7493028"><ele>475.0</ele><time>2026-04-18T17:48:09.957Z</time></trkpt><trkpt lat="45.0302739" lon="7.74915"><ele>474.0</ele><time>2026-04-18T17:48:10.959Z</time></trkpt><trkpt lat="45.0303437" lon="7.7489811"><ele>474.0</ele><time>2026-04-18T17:48:11.948Z</time></trkpt><trkpt lat="45.030397" lon="7.7488065"><ele>474.0</ele><time>2026-04-18T17:48:12.961Z</time></trkpt><trkpt lat="45.0304483" lon="7.7486268"><ele>474.0</ele><time>2026-04-18T17:48:13.961Z</time></trkpt><trkpt lat="45.0304973" lon="7.7484566"><ele>474.0</ele><time>2026-04-18T17:48:14.961Z</time></trkpt><trkpt lat="45.0305539" lon="7.7482944"><ele>473.5</ele><time>2026-04-18T17:48:15.945Z</time></trkpt><trkpt lat="45.0306257" lon="7.7481329"><ele>473.0</ele><time>2026-04-18T17:48:16.956Z</time></trkpt><trkpt lat="45.0307156" lon="7.74798"><ele>472.5</ele><time>2026-04-18T17:48:17.96Z</time></trkpt><trkpt lat="45.0308145" lon="7.7478321"><ele>472.0</ele><time>2026-04-18T17:48:18.947Z</time></trkpt><trkpt lat="45.0309153" lon="7.7476902"><ele>476.5</ele><time>2026-04-18T17:48:19.963Z</time></trkpt><trkpt lat="45.0310139" lon="7.7475493"><ele>481.0</ele><time>2026-04-18T17:48:20.948Z</time></trkpt><trkpt lat="45.0311096" lon="7.7474015"><ele>485.5</ele><time>2026-04-18T17:48:21.951Z</time></trkpt><trkpt lat="45.0311995" lon="7.7472553"><ele>490.0</ele><time>2026-04-18T17:48:22.949Z</time></trkpt><trkpt lat="45.0312802" lon="7.7471045"><ele>490.0</ele><time>2026-04-18T17:48:23.951Z</time></trkpt><trkpt lat="45.0313521" lon="7.7469543"><ele>490.0</ele><time>2026-04-18T17:48:24.945Z</time></trkpt><trkpt lat="45.0314128" lon="7.7468185"><ele>490.0</ele><time>2026-04-18T17:48:25.953Z</time></trkpt><trkpt lat="45.0314749" lon="7.7467051"><ele>490.0</ele><time>2026-04-18T17:48:26.975Z</time></trkpt><trkpt lat="45.0315435" lon="7.7466179"><ele>490.0</ele><time>2026-04-18T17:48:27.958Z</time></trkpt><trkpt lat="45.0316207" lon="7.7465632"><ele>490.1666666666667</ele><time>2026-04-18T17:48:28.946Z</time></trkpt><trkpt lat="45.0317031" lon="7.7465505"><ele>490.33333333333337</ele><time>2026-04-18T17:48:29.946Z</time></trkpt><trkpt lat="45.0317854" lon="7.746576"><ele>490.5</ele><time>2026-04-18T17:48:30.95Z</time></trkpt><trkpt lat="45.0318663" lon="7.7466266"><ele>490.66666666666663</ele><time>2026-04-18T17:48:31.954Z</time></trkpt><trkpt lat="45.0319155" lon="7.7467468"><ele>490.8333333333333</ele><time>2026-04-18T17:48:32.944Z</time></trkpt><trkpt lat="45.0319565" lon="7.7468554"><ele>491.0</ele><time>2026-04-18T17:48:33.945Z</time></trkpt><trkpt lat="45.0320083" lon="7.7469514"><ele>490.99999999999994</ele><time>2026-04-18T17:48:34.95Z</time></trkpt><trkpt lat="45.0320685" lon="7.7470257"><ele>491.0</ele><time>2026-04-18T17:48:35.967Z</time></trkpt><trkpt lat="45.03215" lon="7.7470399"><ele>491.0</ele><time>2026-04-18T17:48:36.952Z</time></trkpt><trkpt lat="45.0322237" lon="7.7470128"><ele>491.0</ele><time>2026-04-18T17:48:37.961Z</time></trkpt><trkpt lat="45.0322727" lon="7.7469414"><ele>490.99999999999994</ele><time>2026-04-18T17:48:38.949Z</time></trkpt><trkpt lat="45.0322947" lon="7.7468432"><ele>491.0</ele><time>2026-04-18T17:48:39.961Z</time></trkpt><trkpt lat="45.0322849" lon="7.7467317"><ele>490.99999999999994</ele><time>2026-04-18T17:48:40.949Z</time></trkpt><trkpt lat="45.0322803" lon="7.7466113"><ele>491.0</ele><time>2026-04-18T17:48:41.955Z</time></trkpt><trkpt lat="45.0322777" lon="7.7464894"><ele>491.0</ele><time>2026-04-18T17:48:42.958Z</time></trkpt><trkpt lat="45.0323055" lon="7.7463785"><ele>491.0</ele><time>2026-04-18T17:48:43.952Z</time></trkpt><trkpt lat="45.0323569" lon="7.746278"><ele>490.99999999999994</ele><time>2026-04-18T17:48:44.944Z</time></trkpt><trkpt lat="45.0324162" lon="7.7461851"><ele>491.0</ele><time>2026-04-18T17:48:45.951Z</time></trkpt><trkpt lat="45.0324806" lon="7.7461101"><ele>492.8333333333333</ele><time>2026-04-18T17:48:46.949Z</time></trkpt><trkpt lat="45.0325354" lon="7.7460429"><ele>494.66666666666663</ele><time>2026-04-18T17:48:47.961Z</time></trkpt><trkpt lat="45.032593" lon="7.7459714"><ele>496.5</ele><time>2026-04-18T17:48:48.964Z</time></trkpt><trkpt lat="45.0326638" lon="7.7459016"><ele>498.33333333333337</ele><time>2026-04-18T17:48:49.947Z</time></trkpt><trkpt lat="45.0327489" lon="7.7458272"><ele>500.1666666666667</ele><time>2026-04-18T17:48:50.947Z</time></trkpt><trkpt lat="45.0328442" lon="7.7457649"><ele>502.0</ele><time>2026-04-18T17:48:51.948Z</time></trkpt><trkpt lat="45.0329481" lon="7.7457161"><ele>502.0</ele><time>2026-04-18T17:48:52.945Z</time></trkpt><trkpt lat="45.033056" lon="7.7456869"><ele>502.00000000000006</ele><time>2026-04-18T17:48:53.952Z</time></trkpt><trkpt lat="45.0331605" lon="7.7456767"><ele>502.00000000000006</ele><time>2026-04-18T17:48:54.953Z</time></trkpt><trkpt lat="45.0332627" lon="7.7456704"><ele>502.0</ele><time>2026-04-18T17:48:55.952Z</time></trkpt><trkpt lat="45.0333722" lon="7.7456587"><ele>502.0</ele><time>2026-04-18T17:48:56.961Z</time></trkpt><trkpt lat="45.0334828" lon="7.7456448"><ele>504.0</ele><time>2026-04-18T17:48:57.946Z</time></trkpt><trkpt lat="45.033596" lon="7.7456343"><ele>506.0</ele><time>2026-04-18T17:48:58.954Z</time></trkpt><trkpt lat="45.0337121" lon="7.74562"><ele>508.0</ele><time>2026-04-18T17:48:59.975Z</time></trkpt><trkpt lat="45.0338285" lon="7.7456033"><ele>510.0</ele><time>2026-04-18T17:49:00.957Z</time></trkpt><trkpt lat="45.0339484" lon="7.7455968"><ele>510.0</ele><time>2026-04-18T17:49:01.962Z</time></trkpt><trkpt lat="45.0340709" lon="7.7455872"><ele>510.0</ele><time>2026-04-18T17:49:02.959Z</time></trkpt><trkpt lat="45.0341903" lon="7.7455775"><ele>510.0</ele><time>2026-04-18T17:49:03.949Z</time></trkpt><trkpt lat="45.0343112" lon="7.74557"><ele>510.0</ele><time>2026-04-18T17:49:04.974Z</time></trkpt><trkpt lat="45.0344351" lon="7.7455549"><ele>512.75</ele><time>2026-04-18T17:49:05.96Z</time></trkpt><trkpt lat="45.0345566" lon="7.7455389"><ele>515.5</ele><time>2026-04-18T17:49:06.945Z</time></trkpt><trkpt lat="45.0346742" lon="7.7455309"><ele>518.25</ele><time>2026-04-18T17:49:07.946Z</time></trkpt><trkpt lat="45.0347961" lon="7.7455241"><ele>521.0</ele><time>2026-04-18T17:49:08.953Z</time></trkpt><trkpt lat="45.0349186" lon="7.7455103"><ele>523.5</ele><time>2026-04-18T17:49:09.955Z</time></trkpt><trkpt lat="45.0350377" lon="7.7455"><ele>526.0</ele><time>2026-04-18T17:49:10.975Z</time></trkpt><trkpt lat="45.0351541" lon="7.745489"><ele>528.5</ele><time>2026-04-18T17:49:11.953Z</time></trkpt><trkpt lat="45.0352698" lon="7.7454733"><ele>531.0</ele><time>2026-04-18T17:49:12.975Z</time></trkpt><trkpt lat="45.0353872" lon="7.7454657"><ele>531.0</ele><time>2026-04-18T17:49:13.949Z</time></trkpt><trkpt lat="45.0355071" lon="7.7454587"><ele>531.0</ele><time>2026-04-18T17:49:14.975Z</time></trkpt><trkpt lat="45.0356276" lon="7.745447"><ele>531.0</ele><time>2026-04-18T17:49:15.952Z</time></trkpt><trkpt lat="45.0357506" lon="7.7454351"><ele>531.0</ele><time>2026-04-18T17:49:16.946Z</time></trkpt><trkpt lat="45.0358787" lon="7.7454296"><ele>533.0</ele><time>2026-04-18T17:49:17.948Z</time></trkpt><trkpt lat="45.0360059" lon="7.7454336"><ele>535.0</ele><time>2026-04-18T17:49:18.944Z</time></trkpt><trkpt lat="45.0361338" lon="7.7454471"><ele>537.0</ele><time>2026-04-18T17:49:19.946Z</time></trkpt><trkpt lat="45.0362616" lon="7.7454889"><ele>539.0</ele><time>2026-04-18T17:49:20.975Z</time></trkpt><trkpt lat="45.0363868" lon="7.7455372"><ele>539.0</ele><time>2026-04-18T17:49:21.949Z</time></trkpt><trkpt lat="45.0365066" lon="7.7455885"><ele>539.0</ele><time>2026-04-18T17:49:22.945Z</time></trkpt><trkpt lat="45.0366122" lon="7.745642"><ele>539.0</ele><time>2026-04-18T17:49:23.957Z</time></trkpt><trkpt lat="45.036704" lon="7.7456972"><ele>539.0</ele><time>2026-04-18T17:49:24.961Z</time></trkpt><trkpt lat="45.036787" lon="7.7457501"><ele>539.0</ele><time>2026-04-18T17:49:25.962Z</time></trkpt><trkpt lat="45.036858" lon="7.7458078"><ele>541.6</ele><time>2026-04-18T17:49:26.958Z</time></trkpt><trkpt lat="45.0369185" lon="7.7458756"><ele>544.2</ele><time>2026-04-18T17:49:27.946Z</time></trkpt><trkpt lat="45.0370092" lon="7.7459729"><ele>546.8000000000001</ele><time>2026-04-18T17:49:29.967Z</time></trkpt><trkpt lat="45.0371043" lon="7.7460137"><ele>549.4</ele><time>2026-04-18T17:49:31.957Z</time></trkpt><trkpt lat="45.0371762" lon="7.7459271"><ele>552.0</ele><time>2026-04-18T17:49:33.949Z</time></trkpt><trkpt lat="45.037192" lon="7.7458376"><ele>552.0</ele><time>2026-04-18T17:49:34.949Z</time></trkpt><trkpt lat="45.0372114" lon="7.7457252"><ele>552.0</ele><time>2026-04-18T17:49:35.968Z</time></trkpt><trkpt lat="45.0372411" lon="7.7455813"><ele>552.0</ele><time>2026-04-18T17:49:36.954Z</time></trkpt><trkpt lat="45.0372826" lon="7.74543"><ele>552.0</ele><time>2026-04-18T17:49:37.957Z</time></trkpt><trkpt lat="45.0373324" lon="7.7452824"><ele>552.0</ele><time>2026-04-18T17:49:38.944Z</time></trkpt><trkpt lat="45.0373884" lon="7.7450986"><ele>550.3333333333334</ele><time>2026-04-18T17:49:39.975Z</time></trkpt><trkpt lat="45.0374651" lon="7.7448758"><ele>548.6666666666667</ele><time>2026-04-18T17:49:40.947Z</time></trkpt><trkpt lat="45.0375457" lon="7.7446487"><ele>547.0</ele><time>2026-04-18T17:49:41.947Z</time></trkpt><trkpt lat="45.0376373" lon="7.7444001"><ele>551.3333333333334</ele><time>2026-04-18T17:49:42.963Z</time></trkpt><trkpt lat="45.037727" lon="7.7441447"><ele>555.6666666666666</ele><time>2026-04-18T17:49:43.961Z</time></trkpt><trkpt lat="45.0378217" lon="7.74388"><ele>560.0</ele><time>2026-04-18T17:49:44.975Z</time></trkpt><trkpt lat="45.0379097" lon="7.7436142"><ele>561.0</ele><time>2026-04-18T17:49:45.95Z</time></trkpt><trkpt lat="45.0380032" lon="7.7433365"><ele>562.0</ele><time>2026-04-18T17:49:46.964Z</time></trkpt><trkpt lat="45.0381049" lon="7.7430428"><ele>563.0</ele><time>2026-04-18T17:49:47.947Z</time></trkpt><trkpt lat="45.0382154" lon="7.7427353"><ele>567.3333333333333</ele><time>2026-04-18T17:49:48.974Z</time></trkpt><trkpt lat="45.0383195" lon="7.7424455"><ele>571.6666666666666</ele><time>2026-04-18T17:49:49.949Z</time></trkpt><trkpt lat="45.0384214" lon="7.7421808"><ele>576.0</ele><time>2026-04-18T17:49:50.952Z</time></trkpt><trkpt lat="45.038524" lon="7.7419386"><ele>578.3333333333334</ele><time>2026-04-18T17:49:51.958Z</time></trkpt><trkpt lat="45.0386272" lon="7.7417463"><ele>580.6666666666667</ele><time>2026-04-18T17:49:52.949Z</time></trkpt><trkpt lat="45.0387204" lon="7.7415733"><ele>583.0</ele><time>2026-04-18T17:49:53.975Z</time></trkpt><trkpt lat="45.0388096" lon="7.7414049"><ele>583.0</ele><time>2026-04-18T17:49:54.952Z</time></trkpt><trkpt lat="45.0388833" lon="7.7412277"><ele>583.0</ele><time>2026-04-18T17:49:55.953Z</time></trkpt><trkpt lat="45.0389484" lon="7.7410466"><ele>583.0</ele><time>2026-04-18T17:49:56.951Z</time></trkpt><trkpt lat="45.0390078" lon="7.7408579"><ele>583.0</ele><time>2026-04-18T17:49:57.947Z</time></trkpt><trkpt lat="45.0390431" lon="7.7406407"><ele>584.6666666666667</ele><time>2026-04-18T17:49:58.96Z</time></trkpt><trkpt lat="45.0390571" lon="7.740393"><ele>586.3333333333334</ele><time>2026-04-18T17:49:59.957Z</time></trkpt><trkpt lat="45.0390732" lon="7.7400839"><ele>588.0</ele><time>2026-04-18T17:50:00.952Z</time></trkpt><trkpt lat="45.0390969" lon="7.7397463"><ele>590.6666666666666</ele><time>2026-04-18T17:50:01.951Z</time></trkpt><trkpt lat="45.0391215" lon="7.7394342"><ele>593.3333333333333</ele><time>2026-04-18T17:50:02.946Z</time></trkpt><trkpt lat="45.0391436" lon="7.7391436"><ele>596.0</ele><time>2026-04-18T17:50:03.955Z</time></trkpt><trkpt lat="45.0391584" lon="7.7388712"><ele>598.3333333333333</ele><time>2026-04-18T17:50:04.95Z</time></trkpt><trkpt lat="45.0391677" lon="7.738625"><ele>600.6666666666666</ele><time>2026-04-18T17:50:05.955Z</time></trkpt><trkpt lat="45.0391623" lon="7.7384043"><ele>603.0</ele><time>2026-04-18T17:50:06.962Z</time></trkpt><trkpt lat="45.0391333" lon="7.7382004"><ele>603.0</ele><time>2026-04-18T17:50:07.957Z</time></trkpt><trkpt lat="45.0390811" lon="7.7380104"><ele>603.0</ele><time>2026-04-18T17:50:08.959Z</time></trkpt><trkpt lat="45.039006" lon="7.7378149"><ele>603.0</ele><time>2026-04-18T17:50:09.956Z</time></trkpt><trkpt lat="45.0389154" lon="7.7376054"><ele>604.0</ele><time>2026-04-18T17:50:10.954Z</time></trkpt><trkpt lat="45.0388221" lon="7.7373765"><ele>605.0</ele><time>2026-04-18T17:50:11.953Z</time></trkpt><trkpt lat="45.038728" lon="7.7371461"><ele>606.0</ele><time>2026-04-18T17:50:12.96Z</time></trkpt><trkpt lat="45.0386391" lon="7.7369326"><ele>608.5</ele><time>2026-04-18T17:50:13.975Z</time></trkpt><trkpt lat="45.0385577" lon="7.736737"><ele>611.0</ele><time>2026-04-18T17:50:14.955Z</time></trkpt><trkpt lat="45.0384986" lon="7.7365556"><ele>613.5</ele><time>2026-04-18T17:50:15.948Z</time></trkpt><trkpt lat="45.0384651" lon="7.736378"><ele>616.0</ele><time>2026-04-18T17:50:16.952Z</time></trkpt><trkpt lat="45.0384519" lon="7.7361959"><ele>617.75</ele><time>2026-04-18T17:50:17.964Z</time></trkpt><trkpt lat="45.0384531" lon="7.7360159"><ele>619.5</ele><time>2026-04-18T17:50:18.962Z</time></trkpt><trkpt lat="45.0384612" lon="7.7358396"><ele>621.25</ele><time>2026-04-18T17:50:19.956Z</time></trkpt><trkpt lat="45.0384723" lon="7.735669"><ele>623.0</ele><time>2026-04-18T17:50:20.947Z</time></trkpt><trkpt lat="45.0384811" lon="7.7355097"><ele>623.0</ele><time>2026-04-18T17:50:21.971Z</time></trkpt><trkpt lat="45.0384928" lon="7.7353548"><ele>623.0</ele><time>2026-04-18T17:50:22.965Z</time></trkpt><trkpt lat="45.0385082" lon="7.7352062"><ele>623.0</ele><time>2026-04-18T17:50:23.95Z</time></trkpt><trkpt lat="45.0385265" lon="7.7350702"><ele>623.0</ele><time>2026-04-18T17:50:24.964Z</time></trkpt><trkpt lat="45.0385549" lon="7.7349612"><ele>623.0</ele><time>2026-04-18T17:50:25.952Z</time></trkpt><trkpt lat="45.0386029" lon="7.7348687"><ele>623.0</ele><time>2026-04-18T17:50:26.973Z</time></trkpt><trkpt lat="45.0386757" lon="7.7348004"><ele>623.0</ele><time>2026-04-18T17:50:27.952Z</time></trkpt><trkpt lat="45.038767" lon="7.7347617"><ele>623.0</ele><time>2026-04-18T17:50:28.974Z</time></trkpt><trkpt lat="45.0388709" lon="7.7347462"><ele>623.0</ele><time>2026-04-18T17:50:29.957Z</time></trkpt><trkpt lat="45.0389811" lon="7.7347351"><ele>623.0</ele><time>2026-04-18T17:50:30.948Z</time></trkpt><trkpt lat="45.0390921" lon="7.7347267"><ele>620.6</ele><time>2026-04-18T17:50:31.956Z</time></trkpt><trkpt lat="45.0392014" lon="7.7347161"><ele>618.1999999999999</ele><time>2026-04-18T17:50:32.96Z</time></trkpt><trkpt lat="45.0392971" lon="7.7346905"><ele>615.8</ele><time>2026-04-18T17:50:33.966Z</time></trkpt><trkpt lat="45.0393854" lon="7.7346345"><ele>613.4</ele><time>2026-04-18T17:50:34.956Z</time></trkpt><trkpt lat="45.0394664" lon="7.7345441"><ele>611.0</ele><time>2026-04-18T17:50:35.957Z</time></trkpt><trkpt lat="45.0395453" lon="7.7344168"><ele>608.25</ele><time>2026-04-18T17:50:36.963Z</time></trkpt><trkpt lat="45.0396303" lon="7.7342694"><ele>605.5</ele><time>2026-04-18T17:50:37.975Z</time></trkpt><trkpt lat="45.0397199" lon="7.7341074"><ele>602.75</ele><time>2026-04-18T17:50:38.958Z</time></trkpt><trkpt lat="45.0398088" lon="7.7339572"><ele>600.0</ele><time>2026-04-18T17:50:39.964Z</time></trkpt><trkpt lat="45.0398998" lon="7.7338086"><ele>599.25</ele><time>2026-04-18T17:50:40.966Z</time></trkpt><trkpt lat="45.039979" lon="7.7336623"><ele>598.5</ele><time>2026-04-18T17:50:41.974Z</time></trkpt><trkpt lat="45.04005" lon="7.733498"><ele>597.75</ele><time>2026-04-18T17:50:42.961Z</time></trkpt><trkpt lat="45.0401157" lon="7.7333153"><ele>597.0</ele><time>2026-04-18T17:50:43.959Z</time></trkpt><trkpt lat="45.0401764" lon="7.7331335"><ele>597.0</ele><time>2026-04-18T17:50:44.945Z</time></trkpt><trkpt lat="45.0402366" lon="7.7329275"><ele>597.0</ele><time>2026-04-18T17:50:45.967Z</time></trkpt><trkpt lat="45.0402958" lon="7.732739"><ele>597.0</ele><time>2026-04-18T17:50:46.971Z</time></trkpt><trkpt lat="45.0403505" lon="7.7325678"><ele>597.0</ele><time>2026-04-18T17:50:47.957Z</time></trkpt><trkpt lat="45.0403995" lon="7.7324402"><ele>596.2</ele><time>2026-04-18T17:50:48.955Z</time></trkpt><trkpt lat="45.0404545" lon="7.7323376"><ele>595.4000000000001</ele><time>2026-04-18T17:50:49.975Z</time></trkpt><trkpt lat="45.0405331" lon="7.7322805"><ele>594.5999999999999</ele><time>2026-04-18T17:50:50.96Z</time></trkpt><trkpt lat="45.0406214" lon="7.7322435"><ele>593.8</ele><time>2026-04-18T17:50:51.947Z</time></trkpt><trkpt lat="45.0407188" lon="7.7322442"><ele>593.0</ele><time>2026-04-18T17:50:52.961Z</time></trkpt><trkpt lat="45.0408163" lon="7.7322451"><ele>593.0</ele><time>2026-04-18T17:50:53.947Z</time></trkpt><trkpt lat="45.0409049" lon="7.7322084"><ele>593.0</ele><time>2026-04-18T17:50:54.956Z</time></trkpt><trkpt lat="45.0409819" lon="7.7321501"><ele>593.0</ele><time>2026-04-18T17:50:55.966Z</time></trkpt><trkpt lat="45.0410413" lon="7.7320209"><ele>593.0</ele><time>2026-04-18T17:50:56.963Z</time></trkpt><trkpt lat="45.0410919" lon="7.7318745"><ele>593.0</ele><time>2026-04-18T17:50:57.952Z</time></trkpt><trkpt lat="45.0411214" lon="7.731693"><ele>588.3333333333333</ele><time>2026-04-18T17:50:58.946Z</time></trkpt><trkpt lat="45.0411413" lon="7.7314894"><ele>583.6666666666666</ele><time>2026-04-18T17:50:59.949Z</time></trkpt><trkpt lat="45.0411545" lon="7.7312662"><ele>579.0</ele><time>2026-04-18T17:51:00.975Z</time></trkpt><trkpt lat="45.0411606" lon="7.731034"><ele>576.3333333333334</ele><time>2026-04-18T17:51:01.95Z</time></trkpt><trkpt lat="45.0411613" lon="7.73081"><ele>573.6666666666667</ele><time>2026-04-18T17:51:02.96Z</time></trkpt><trkpt lat="45.0411462" lon="7.7305898"><ele>571.0</ele><time>2026-04-18T17:51:03.96Z</time></trkpt><trkpt lat="45.0411238" lon="7.7303736"><ele>570.75</ele><time>2026-04-18T17:51:04.955Z</time></trkpt><trkpt lat="45.0411015" lon="7.7301664"><ele>570.5</ele><time>2026-04-18T17:51:05.949Z</time></trkpt><trkpt lat="45.0410758" lon="7.7299639"><ele>570.25</ele><time>2026-04-18T17:51:06.955Z</time></trkpt><trkpt lat="45.0410452" lon="7.7297689"><ele>570.0</ele><time>2026-04-18T17:51:07.974Z</time></trkpt><trkpt lat="45.0410047" lon="7.729589"><ele>570.0</ele><time>2026-04-18T17:51:08.946Z</time></trkpt><trkpt lat="45.0409512" lon="7.7294358"><ele>570.0</ele><time>2026-04-18T17:51:09.975Z</time></trkpt><trkpt lat="45.0408959" lon="7.7293014"><ele>570.0</ele><time>2026-04-18T17:51:10.948Z</time></trkpt><trkpt lat="45.0408607" lon="7.729189"><ele>570.0</ele><time>2026-04-18T17:51:11.974Z</time></trkpt><trkpt lat="45.0408528" lon="7.7290811"><ele>570.0</ele><time>2026-04-18T17:51:12.95Z</time></trkpt><trkpt lat="45.0408815" lon="7.7289809"><ele>569.2</ele><time>2026-04-18T17:51:13.957Z</time></trkpt><trkpt lat="45.0409401" lon="7.7289166"><ele>568.4</ele><time>2026-04-18T17:51:14.955Z</time></trkpt><trkpt lat="45.0410143" lon="7.7288966"><ele>567.6</ele><time>2026-04-18T17:51:15.947Z</time></trkpt><trkpt lat="45.0410975" lon="7.7289147"><ele>566.8</ele><time>2026-04-18T17:51:16.945Z</time></trkpt><trkpt lat="45.0411898" lon="7.7289525"><ele>566.0</ele><time>2026-04-18T17:51:17.954Z</time></trkpt><trkpt lat="45.0413119" lon="7.7290239"><ele>566.0</ele><time>2026-04-18T17:51:18.963Z</time></trkpt><trkpt lat="45.0414448" lon="7.7290848"><ele>566.0</ele><time>2026-04-18T17:51:19.959Z</time></trkpt><trkpt lat="45.0415787" lon="7.7291447"><ele>566.0</ele><time>2026-04-18T17:51:20.954Z</time></trkpt><trkpt lat="45.0417037" lon="7.7292117"><ele>566.0</ele><time>2026-04-18T17:51:21.958Z</time></trkpt><trkpt lat="45.0418195" lon="7.7292643"><ele>564.0</ele><time>2026-04-18T17:51:22.958Z</time></trkpt><trkpt lat="45.041921" lon="7.7292899"><ele>562.0</ele><time>2026-04-18T17:51:23.959Z</time></trkpt><trkpt lat="45.0420148" lon="7.7292764"><ele>560.0</ele><time>2026-04-18T17:51:24.96Z</time></trkpt><trkpt lat="45.0420974" lon="7.7292398"><ele>558.0</ele><time>2026-04-18T17:51:25.962Z</time></trkpt><trkpt lat="45.042165" lon="7.7291235"><ele>556.0</ele><time>2026-04-18T17:51:26.954Z</time></trkpt><trkpt lat="45.0422324" lon="7.7289898"><ele>556.0</ele><time>2026-04-18T17:51:27.958Z</time></trkpt><trkpt lat="45.0423145" lon="7.7287982"><ele>556.0</ele><time>2026-04-18T17:51:28.972Z</time></trkpt><trkpt lat="45.0424116" lon="7.7286114"><ele>556.0</ele><time>2026-04-18T17:51:29.968Z</time></trkpt><trkpt lat="45.0425185" lon="7.7284179"><ele>551.75</ele><time>2026-04-18T17:51:30.96Z</time></trkpt><trkpt lat="45.0426259" lon="7.7282454"><ele>547.5</ele><time>2026-04-18T17:51:31.947Z</time></trkpt><trkpt lat="45.0427326" lon="7.7280859"><ele>543.25</ele><time>2026-04-18T17:51:32.953Z</time></trkpt><trkpt lat="45.0428168" lon="7.7279708"><ele>539.0</ele><time>2026-04-18T17:51:33.956Z</time></trkpt><trkpt lat="45.0428982" lon="7.7278494"><ele>539.0</ele><time>2026-04-18T17:51:34.949Z</time></trkpt><trkpt lat="45.0429799" lon="7.7277279"><ele>539.0</ele><time>2026-04-18T17:51:35.968Z</time></trkpt><trkpt lat="45.0430267" lon="7.7276221"><ele>539.0</ele><time>2026-04-18T17:51:36.948Z</time></trkpt><trkpt lat="45.043055" lon="7.7275143"><ele>539.0</ele><time>2026-04-18T17:51:37.971Z</time></trkpt><trkpt lat="45.0430559" lon="7.7274043"><ele>539.0</ele><time>2026-04-18T17:51:38.949Z</time></trkpt><trkpt lat="45.043024" lon="7.7273079"><ele>539.0</ele><time>2026-04-18T17:51:39.947Z</time></trkpt><trkpt lat="45.0429606" lon="7.7272328"><ele>538.8571428571429</ele><time>2026-04-18T17:51:40.952Z</time></trkpt><trkpt lat="45.0428874" lon="7.7271884"><ele>538.7142857142858</ele><time>2026-04-18T17:51:41.967Z</time></trkpt><trkpt lat="45.042816" lon="7.7271286"><ele>538.5714285714286</ele><time>2026-04-18T17:51:42.951Z</time></trkpt><trkpt lat="45.0427707" lon="7.727048"><ele>538.4285714285714</ele><time>2026-04-18T17:51:43.967Z</time></trkpt><trkpt lat="45.0427538" lon="7.7269548"><ele>538.2857142857143</ele><time>2026-04-18T17:51:44.959Z</time></trkpt><trkpt lat="45.0427691" lon="7.7268608"><ele>538.1428571428571</ele><time>2026-04-18T17:51:45.961Z</time></trkpt><trkpt lat="45.04282" lon="7.7268059"><ele>538.0</ele><time>2026-04-18T17:51:46.958Z</time></trkpt><trkpt lat="45.0428857" lon="7.726777"><ele>538.0</ele><time>2026-04-18T17:51:47.972Z</time></trkpt><trkpt lat="45.0429686" lon="7.7267924"><ele>538.0</ele><time>2026-04-18T17:51:48.959Z</time></trkpt><trkpt lat="45.0430645" lon="7.7268359"><ele>538.0</ele><time>2026-04-18T17:51:49.948Z</time></trkpt><trkpt lat="45.0431709" lon="7.7268908"><ele>538.0</ele><time>2026-04-18T17:51:50.945Z</time></trkpt><trkpt lat="45.0432893" lon="7.7269237"><ele>538.0</ele><time>2026-04-18T17:51:51.95Z</time></trkpt><trkpt lat="45.0434141" lon="7.7269335"><ele>538.0</ele><time>2026-04-18T17:51:52.974Z</time></trkpt><trkpt lat="45.0435432" lon="7.7269404"><ele>538.0</ele><time>2026-04-18T17:51:53.952Z</time></trkpt><trkpt lat="45.0436694" lon="7.7269461"><ele>538.0</ele><time>2026-04-18T17:51:54.944Z</time></trkpt><trkpt lat="45.0437951" lon="7.7269627"><ele>538.0</ele><time>2026-04-18T17:51:55.952Z</time></trkpt><trkpt lat="45.043916" lon="7.7269989"><ele>538.0</ele><time>2026-04-18T17:51:56.954Z</time></trkpt><trkpt lat="45.044035" lon="7.7270035"><ele>538.0</ele><time>2026-04-18T17:51:57.956Z</time></trkpt><trkpt lat="45.0441532" lon="7.7269907"><ele>538.0</ele><time>2026-04-18T17:51:58.948Z</time></trkpt><trkpt lat="45.044269" lon="7.7269601"><ele>538.0</ele><time>2026-04-18T17:51:59.975Z</time></trkpt><trkpt lat="45.0443761" lon="7.726927"><ele>536.8333333333334</ele><time>2026-04-18T17:52:00.96Z</time></trkpt><trkpt lat="45.0444638" lon="7.7269106"><ele>535.6666666666667</ele><time>2026-04-18T17:52:01.967Z</time></trkpt><trkpt lat="45.0445307" lon="7.7269266"><ele>534.5</ele><time>2026-04-18T17:52:02.956Z</time></trkpt><trkpt lat="45.0445811" lon="7.7269843"><ele>533.3333333333334</ele><time>2026-04-18T17:52:03.955Z</time></trkpt><trkpt lat="45.0446279" lon="7.7270597"><ele>532.1666666666666</ele><time>2026-04-18T17:52:04.968Z</time></trkpt><trkpt lat="45.0446681" lon="7.7271765"><ele>531.0</ele><time>2026-04-18T17:52:05.958Z</time></trkpt><trkpt lat="45.0447081" lon="7.7273621"><ele>531.0</ele><time>2026-04-18T17:52:06.955Z</time></trkpt><trkpt lat="45.0447528" lon="7.7275163"><ele>531.0</ele><time>2026-04-18T17:52:07.952Z</time></trkpt><trkpt lat="45.0448004" lon="7.7276683"><ele>531.0</ele><time>2026-04-18T17:52:08.962Z</time></trkpt><trkpt lat="45.044838" lon="7.7277966"><ele>531.0</ele><time>2026-04-18T17:52:09.965Z</time></trkpt><trkpt lat="45.0448495" lon="7.7279165"><ele>531.0</ele><time>2026-04-18T17:52:10.958Z</time></trkpt><trkpt lat="45.0448311" lon="7.7280253"><ele>530.0</ele><time>2026-04-18T17:52:11.957Z</time></trkpt><trkpt lat="45.0447926" lon="7.72815"><ele>529.0</ele><time>2026-04-18T17:52:12.96Z</time></trkpt><trkpt lat="45.044769" lon="7.7283036"><ele>528.0</ele><time>2026-04-18T17:52:13.946Z</time></trkpt><trkpt lat="45.0447596" lon="7.7284714"><ele>527.0</ele><time>2026-04-18T17:52:14.974Z</time></trkpt><trkpt lat="45.0447621" lon="7.7286463"><ele>527.0</ele><time>2026-04-18T17:52:15.967Z</time></trkpt><trkpt lat="45.0447677" lon="7.7288172"><ele>527.0</ele><time>2026-04-18T17:52:16.975Z</time></trkpt><trkpt lat="45.0447619" lon="7.7289796"><ele>527.0</ele><time>2026-04-18T17:52:17.975Z</time></trkpt><trkpt lat="45.0447624" lon="7.7291176"><ele>527.0</ele><time>2026-04-18T17:52:18.97Z</time></trkpt><trkpt lat="45.0447817" lon="7.7292384"><ele>527.0</ele><time>2026-04-18T17:52:19.956Z</time></trkpt><trkpt lat="45.044811" lon="7.729324"><ele>527.0</ele><time>2026-04-18T17:52:20.964Z</time></trkpt><trkpt lat="45.0449226" lon="7.7293698"><ele>527.0</ele><time>2026-04-18T17:52:22.975Z</time></trkpt><trkpt lat="45.0449876" lon="7.7293297"><ele>527.0</ele><time>2026-04-18T17:52:23.955Z</time></trkpt><trkpt lat="45.0450541" lon="7.7292583"><ele>527.0</ele><time>2026-04-18T17:52:24.956Z</time></trkpt><trkpt lat="45.0451269" lon="7.729201"><ele>527.0</ele><time>2026-04-18T17:52:25.953Z</time></trkpt><trkpt lat="45.0452052" lon="7.7291792"><ele>527.0</ele><time>2026-04-18T17:52:26.974Z</time></trkpt><trkpt lat="45.0452895" lon="7.7291943"><ele>521.6666666666666</ele><time>2026-04-18T17:52:27.946Z</time></trkpt><trkpt lat="45.045377" lon="7.7292281"><ele>516.3333333333333</ele><time>2026-04-18T17:52:28.975Z</time></trkpt><trkpt lat="45.0454682" lon="7.7292395"><ele>511.0</ele><time>2026-04-18T17:52:29.953Z</time></trkpt><trkpt lat="45.0455545" lon="7.7292225"><ele>505.66666666666663</ele><time>2026-04-18T17:52:30.95Z</time></trkpt><trkpt lat="45.0456328" lon="7.7291671"><ele>500.3333333333333</ele><time>2026-04-18T17:52:31.962Z</time></trkpt><trkpt lat="45.0456989" lon="7.7290865"><ele>495.0</ele><time>2026-04-18T17:52:32.975Z</time></trkpt><trkpt lat="45.0457613" lon="7.7289822"><ele>492.5</ele><time>2026-04-18T17:52:33.949Z</time></trkpt><trkpt lat="45.0458276" lon="7.7288625"><ele>490.0</ele><time>2026-04-18T17:52:34.973Z</time></trkpt><trkpt lat="45.0458993" lon="7.7287339"><ele>487.5</ele><time>2026-04-18T17:52:35.972Z</time></trkpt><trkpt lat="45.0459809" lon="7.7285983"><ele>485.0</ele><time>2026-04-18T17:52:36.947Z</time></trkpt><trkpt lat="45.0460714" lon="7.7284768"><ele>484.25</ele><time>2026-04-18T17:52:37.95Z</time></trkpt><trkpt lat="45.0461642" lon="7.7283628"><ele>483.5</ele><time>2026-04-18T17:52:38.971Z</time></trkpt><trkpt lat="45.046249" lon="7.7282379"><ele>482.75</ele><time>2026-04-18T17:52:39.965Z</time></trkpt><trkpt lat="45.0463176" lon="7.7281009"><ele>482.0</ele><time>2026-04-18T17:52:40.974Z</time></trkpt><trkpt lat="45.0463658" lon="7.7279473"><ele>482.0</ele><time>2026-04-18T17:52:41.952Z</time></trkpt><trkpt lat="45.0463945" lon="7.7277935"><ele>482.0</ele><time>2026-04-18T17:52:42.943Z</time></trkpt><trkpt lat="45.0464144" lon="7.7276306"><ele>482.0</ele><time>2026-04-18T17:52:43.974Z</time></trkpt><trkpt lat="45.0464345" lon="7.7274668"><ele>482.0</ele><time>2026-04-18T17:52:44.974Z</time></trkpt><trkpt lat="45.0464765" lon="7.7272944"><ele>482.25</ele><time>2026-04-18T17:52:45.953Z</time></trkpt><trkpt lat="45.0465295" lon="7.7271277"><ele>482.5</ele><time>2026-04-18T17:52:46.954Z</time></trkpt><trkpt lat="45.0465933" lon="7.7269574"><ele>482.75</ele><time>2026-04-18T17:52:47.963Z</time></trkpt><trkpt lat="45.0466653" lon="7.7267974"><ele>483.0</ele><time>2026-04-18T17:52:48.948Z</time></trkpt><trkpt lat="45.0467538" lon="7.7266422"><ele>477.33333333333337</ele><time>2026-04-18T17:52:49.97Z</time></trkpt><trkpt lat="45.0468608" lon="7.7264971"><ele>471.6666666666667</ele><time>2026-04-18T17:52:50.946Z</time></trkpt><trkpt lat="45.0469782" lon="7.7263659"><ele>466.0</ele><time>2026-04-18T17:52:51.947Z</time></trkpt><trkpt lat="45.0471039" lon="7.7262418"><ele>466.0</ele><time>2026-04-18T17:52:52.974Z</time></trkpt><trkpt lat="45.0472345" lon="7.7261109"><ele>466.0</ele><time>2026-04-18T17:52:53.95Z</time></trkpt><trkpt lat="45.0473715" lon="7.7259746"><ele>466.0</ele><time>2026-04-18T17:52:54.975Z</time></trkpt><trkpt lat="45.0475024" lon="7.7258443"><ele>461.0</ele><time>2026-04-18T17:52:55.949Z</time></trkpt><trkpt lat="45.0476366" lon="7.7257177"><ele>456.0</ele><time>2026-04-18T17:52:56.959Z</time></trkpt><trkpt lat="45.0477688" lon="7.7255988"><ele>451.0</ele><time>2026-04-18T17:52:57.948Z</time></trkpt><trkpt lat="45.0478988" lon="7.7254917"><ele>451.0</ele><time>2026-04-18T17:52:58.955Z</time></trkpt><trkpt lat="45.0480229" lon="7.7253912"><ele>451.0</ele><time>2026-04-18T17:52:59.959Z</time></trkpt><trkpt lat="45.0481435" lon="7.725299"><ele>451.0</ele><time>2026-04-18T17:53:00.945Z</time></trkpt><trkpt lat="45.0482629" lon="7.7252065"><ele>451.0</ele><time>2026-04-18T17:53:01.951Z</time></trkpt><trkpt lat="45.0483848" lon="7.7251178"><ele>449.25</ele><time>2026-04-18T17:53:02.955Z</time></trkpt><trkpt lat="45.0485024" lon="7.7250176"><ele>447.5</ele><time>2026-04-18T17:53:03.95Z</time></trkpt><trkpt lat="45.0486148" lon="7.7248965"><ele>445.75</ele><time>2026-04-18T17:53:04.957Z</time></trkpt><trkpt lat="45.0487201" lon="7.7247756"><ele>444.0</ele><time>2026-04-18T17:53:05.974Z</time></trkpt><trkpt lat="45.0488255" lon="7.7246563"><ele>444.0</ele><time>2026-04-18T17:53:06.972Z</time></trkpt><trkpt lat="45.0489356" lon="7.7245556"><ele>444.0</ele><time>2026-04-18T17:53:07.965Z</time></trkpt><trkpt lat="45.0490453" lon="7.7244695"><ele>444.0</ele><time>2026-04-18T17:53:08.948Z</time></trkpt><trkpt lat="45.0491558" lon="7.7244032"><ele>444.0</ele><time>2026-04-18T17:53:09.961Z</time></trkpt><trkpt lat="45.0492582" lon="7.7243449"><ele>443.3333333333333</ele><time>2026-04-18T17:53:10.97Z</time></trkpt><trkpt lat="45.0493398" lon="7.7242753"><ele>442.66666666666663</ele><time>2026-04-18T17:53:11.946Z</time></trkpt><trkpt lat="45.0494035" lon="7.7241896"><ele>442.0</ele><time>2026-04-18T17:53:12.956Z</time></trkpt><trkpt lat="45.0494441" lon="7.7240873"><ele>441.3333333333333</ele><time>2026-04-18T17:53:13.953Z</time></trkpt><trkpt lat="45.0494714" lon="7.7239715"><ele>440.66666666666663</ele><time>2026-04-18T17:53:14.964Z</time></trkpt><trkpt lat="45.0494823" lon="7.7238362"><ele>440.0</ele><time>2026-04-18T17:53:15.96Z</time></trkpt><trkpt lat="45.0495037" lon="7.7236981"><ele>440.0</ele><time>2026-04-18T17:53:16.96Z</time></trkpt><trkpt lat="45.0495423" lon="7.723572"><ele>440.0</ele><time>2026-04-18T17:53:17.961Z</time></trkpt><trkpt lat="45.0496005" lon="7.7234522"><ele>440.0</ele><time>2026-04-18T17:53:18.948Z</time></trkpt><trkpt lat="45.0496767" lon="7.7233617"><ele>440.0</ele><time>2026-04-18T17:53:19.958Z</time></trkpt><trkpt lat="45.0497692" lon="7.7233141"><ele>440.0</ele><time>2026-04-18T17:53:20.955Z</time></trkpt><trkpt lat="45.0498796" lon="7.7232875"><ele>437.0</ele><time>2026-04-18T17:53:21.959Z</time></trkpt><trkpt lat="45.0499963" lon="7.7232541"><ele>434.0</ele><time>2026-04-18T17:53:22.968Z</time></trkpt><trkpt lat="45.0501206" lon="7.7231873"><ele>431.0</ele><time>2026-04-18T17:53:23.946Z</time></trkpt><trkpt lat="45.0502462" lon="7.7230959"><ele>428.0</ele><time>2026-04-18T17:53:24.957Z</time></trkpt><trkpt lat="45.0503691" lon="7.7229927"><ele>428.0</ele><time>2026-04-18T17:53:25.954Z</time></trkpt><trkpt lat="45.0504855" lon="7.7228793"><ele>428.0</ele><time>2026-04-18T17:53:26.959Z</time></trkpt><trkpt lat="45.0506001" lon="7.7227752"><ele>428.0</ele><time>2026-04-18T17:53:27.952Z</time></trkpt><trkpt lat="45.0507072" lon="7.722666"><ele>428.0</ele><time>2026-04-18T17:53:28.951Z</time></trkpt><trkpt lat="45.0508126" lon="7.7225569"><ele>426.25</ele><time>2026-04-18T17:53:29.953Z</time></trkpt><trkpt lat="45.0509128" lon="7.7224395"><ele>424.5</ele><time>2026-04-18T17:53:30.957Z</time></trkpt><trkpt lat="45.0510035" lon="7.7223078"><ele>422.75</ele><time>2026-04-18T17:53:31.96Z</time></trkpt><trkpt lat="45.0510844" lon="7.7221667"><ele>421.0</ele><time>2026-04-18T17:53:32.957Z</time></trkpt><trkpt lat="45.0511584" lon="7.7220203"><ele>419.75</ele><time>2026-04-18T17:53:33.96Z</time></trkpt><trkpt lat="45.051232" lon="7.721876"><ele>418.5</ele><time>2026-04-18T17:53:34.956Z</time></trkpt><trkpt lat="45.0513053" lon="7.7217423"><ele>417.25</ele><time>2026-04-18T17:53:35.959Z</time></trkpt><trkpt lat="45.0513754" lon="7.7216076"><ele>416.0</ele><time>2026-04-18T17:53:36.971Z</time></trkpt><trkpt lat="45.0514452" lon="7.7214558"><ele>416.0</ele><time>2026-04-18T17:53:37.962Z</time></trkpt><trkpt lat="45.0515096" lon="7.7212937"><ele>416.0</ele><time>2026-04-18T17:53:38.956Z</time></trkpt><trkpt lat="45.0515632" lon="7.7211048"><ele>416.0</ele><time>2026-04-18T17:53:39.945Z</time></trkpt><trkpt lat="45.0516201" lon="7.7209127"><ele>416.0</ele><time>2026-04-18T17:53:40.95Z</time></trkpt><trkpt lat="45.0516789" lon="7.7207188"><ele>414.0</ele><time>2026-04-18T17:53:41.959Z</time></trkpt><trkpt lat="45.0517396" lon="7.7205283"><ele>412.0</ele><time>2026-04-18T17:53:42.956Z</time></trkpt><trkpt lat="45.0518" lon="7.7203499"><ele>410.0</ele><time>2026-04-18T17:53:43.96Z</time></trkpt><trkpt lat="45.0518605" lon="7.7201777"><ele>408.0</ele><time>2026-04-18T17:53:44.962Z</time></trkpt><trkpt lat="45.0519197" lon="7.7200088"><ele>408.0</ele><time>2026-04-18T17:53:45.949Z</time></trkpt><trkpt lat="45.0519773" lon="7.7198412"><ele>408.0</ele><time>2026-04-18T17:53:46.951Z</time></trkpt><trkpt lat="45.052032" lon="7.7196778"><ele>408.0</ele><time>2026-04-18T17:53:47.961Z</time></trkpt><trkpt lat="45.0520935" lon="7.7195188"><ele>408.0</ele><time>2026-04-18T17:53:48.961Z</time></trkpt><trkpt lat="45.0521741" lon="7.719393"><ele>406.4</ele><time>2026-04-18T17:53:49.974Z</time></trkpt><trkpt lat="45.0522514" lon="7.7192706"><ele>404.79999999999995</ele><time>2026-04-18T17:53:50.968Z</time></trkpt><trkpt lat="45.0523272" lon="7.7191526"><ele>403.2</ele><time>2026-04-18T17:53:51.966Z</time></trkpt><trkpt lat="45.0523927" lon="7.7190473"><ele>401.6</ele><time>2026-04-18T17:53:52.957Z</time></trkpt><trkpt lat="45.0524427" lon="7.7189375"><ele>400.0</ele><time>2026-04-18T17:53:53.965Z</time></trkpt><trkpt lat="45.0524844" lon="7.7188374"><ele>399.00000000000006</ele><time>2026-04-18T17:53:54.962Z</time></trkpt><trkpt lat="45.0525143" lon="7.7187373"><ele>398.0</ele><time>2026-04-18T17:53:55.959Z</time></trkpt><trkpt lat="45.052533" lon="7.7186484"><ele>397.0</ele><time>2026-04-18T17:53:56.961Z</time></trkpt><trkpt lat="45.0525359" lon="7.7185589"><ele>396.0</ele><time>2026-04-18T17:53:57.967Z</time></trkpt><trkpt lat="45.052521" lon="7.7184683"><ele>395.0</ele><time>2026-04-18T17:53:58.964Z</time></trkpt><trkpt lat="45.0525086" lon="7.7183656"><ele>394.00000000000006</ele><time>2026-04-18T17:53:59.955Z</time></trkpt><trkpt lat="45.0525113" lon="7.7182463"><ele>393.0</ele><time>2026-04-18T17:54:00.964Z</time></trkpt><trkpt lat="45.0525357" lon="7.71812"><ele>392.25</ele><time>2026-04-18T17:54:01.968Z</time></trkpt><trkpt lat="45.0525728" lon="7.7179817"><ele>391.5</ele><time>2026-04-18T17:54:02.952Z</time></trkpt><trkpt lat="45.0526286" lon="7.7178325"><ele>390.75</ele><time>2026-04-18T17:54:03.961Z</time></trkpt><trkpt lat="45.0526901" lon="7.7176749"><ele>390.0</ele><time>2026-04-18T17:54:04.962Z</time></trkpt><trkpt lat="45.052749" lon="7.7175181"><ele>388.5</ele><time>2026-04-18T17:54:05.948Z</time></trkpt><trkpt lat="45.052797" lon="7.7173583"><ele>387.0</ele><time>2026-04-18T17:54:06.945Z</time></trkpt><trkpt lat="45.05284" lon="7.7171985"><ele>385.5</ele><time>2026-04-18T17:54:07.96Z</time></trkpt><trkpt lat="45.0528809" lon="7.7170384"><ele>384.0</ele><time>2026-04-18T17:54:08.962Z</time></trkpt><trkpt lat="45.0529198" lon="7.7168879"><ele>382.4</ele><time>2026-04-18T17:54:09.947Z</time></trkpt><trkpt lat="45.0529729" lon="7.7167641"><ele>380.79999999999995</ele><time>2026-04-18T17:54:10.96Z</time></trkpt><trkpt lat="45.0530334" lon="7.71665"><ele>379.20000000000005</ele><time>2026-04-18T17:54:11.945Z</time></trkpt><trkpt lat="45.0531039" lon="7.7165552"><ele>377.6</ele><time>2026-04-18T17:54:12.962Z</time></trkpt><trkpt lat="45.0531828" lon="7.7164824"><ele>376.0</ele><time>2026-04-18T17:54:13.959Z</time></trkpt><trkpt lat="45.0532763" lon="7.7164223"><ele>377.8</ele><time>2026-04-18T17:54:14.953Z</time></trkpt><trkpt lat="45.0533744" lon="7.7163745"><ele>379.6</ele><time>2026-04-18T17:54:15.958Z</time></trkpt><trkpt lat="45.0534774" lon="7.7163389"><ele>381.4</ele><time>2026-04-18T17:54:16.957Z</time></trkpt><trkpt lat="45.0535862" lon="7.7163091"><ele>383.2</ele><time>2026-04-18T17:54:17.953Z</time></trkpt><trkpt lat="45.0536993" lon="7.7162845"><ele>385.0</ele><time>2026-04-18T17:54:18.958Z</time></trkpt><trkpt lat="45.0538182" lon="7.7162564"><ele>385.0</ele><time>2026-04-18T17:54:19.962Z</time></trkpt><trkpt lat="45.0539339" lon="7.7162247"><ele>385.0</ele><time>2026-04-18T17:54:20.948Z</time></trkpt><trkpt lat="45.0540458" lon="7.7161889"><ele>385.0</ele><time>2026-04-18T17:54:21.959Z</time></trkpt><trkpt lat="45.0541556" lon="7.7161544"><ele>385.0</ele><time>2026-04-18T17:54:22.974Z</time></trkpt><trkpt lat="45.054259" lon="7.7161193"><ele>383.1666666666667</ele><time>2026-04-18T17:54:23.956Z</time></trkpt><trkpt lat="45.0543526" lon="7.716079"><ele>381.33333333333337</ele><time>2026-04-18T17:54:24.967Z</time></trkpt><trkpt lat="45.0544336" lon="7.7160309"><ele>379.5</ele><time>2026-04-18T17:54:25.952Z</time></trkpt><trkpt lat="45.0545007" lon="7.7159784"><ele>377.6666666666667</ele><time>2026-04-18T17:54:26.962Z</time></trkpt><trkpt lat="45.0545515" lon="7.7159104"><ele>375.83333333333337</ele><time>2026-04-18T17:54:27.953Z</time></trkpt><trkpt lat="45.0545852" lon="7.7158273"><ele>374.0</ele><time>2026-04-18T17:54:28.965Z</time></trkpt><trkpt lat="45.0546165" lon="7.715731"><ele>374.0</ele><time>2026-04-18T17:54:29.953Z</time></trkpt><trkpt lat="45.0546406" lon="7.7156158"><ele>374.0</ele><time>2026-04-18T17:54:30.957Z</time></trkpt><trkpt lat="45.0546629" lon="7.7155034"><ele>374.0</ele><time>2026-04-18T17:54:31.964Z</time></trkpt><trkpt lat="45.0546871" lon="7.7154004"><ele>374.0</ele><time>2026-04-18T17:54:32.974Z</time></trkpt><trkpt lat="45.0547137" lon="7.7153032"><ele>374.0</ele><time>2026-04-18T17:54:33.952Z</time></trkpt><trkpt lat="45.0547462" lon="7.7152145"><ele>374.0</ele><time>2026-04-18T17:54:34.958Z</time></trkpt><trkpt lat="45.0547854" lon="7.7151264"><ele>374.6666666666667</ele><time>2026-04-18T17:54:35.958Z</time></trkpt><trkpt lat="45.0548302" lon="7.7150442"><ele>375.33333333333337</ele><time>2026-04-18T17:54:36.974Z</time></trkpt><trkpt lat="45.0548881" lon="7.7149623"><ele>376.0</ele><time>2026-04-18T17:54:37.952Z</time></trkpt><trkpt lat="45.0549497" lon="7.7148885"><ele>376.6666666666667</ele><time>2026-04-18T17:54:38.96Z</time></trkpt><trkpt lat="45.0550184" lon="7.7148151"><ele>377.3333333333333</ele><time>2026-04-18T17:54:39.963Z</time></trkpt><trkpt lat="45.0550917" lon="7.7147513"><ele>378.0</ele><time>2026-04-18T17:54:40.963Z</time></trkpt><trkpt lat="45.0551624" lon="7.7146907"><ele>378.0</ele><time>2026-04-18T17:54:41.954Z</time></trkpt><trkpt lat="45.0552276" lon="7.7146398"><ele>378.0</ele><time>2026-04-18T17:54:42.958Z</time></trkpt><trkpt lat="45.0552937" lon="7.7145863"><ele>378.0</ele><time>2026-04-18T17:54:43.957Z</time></trkpt><trkpt lat="45.0553609" lon="7.7145332"><ele>378.0</ele><time>2026-04-18T17:54:44.952Z</time></trkpt><trkpt lat="45.0554327" lon="7.7144899"><ele>378.0</ele><time>2026-04-18T17:54:45.954Z</time></trkpt><trkpt lat="45.0555254" lon="7.7144612"><ele>378.0</ele><time>2026-04-18T17:54:47.95Z</time></trkpt><trkpt lat="45.0555916" lon="7.7144632"><ele>378.0</ele><time>2026-04-18T17:54:57.956Z</time></trkpt><trkpt lat="45.0557053" lon="7.7144748"><ele>378.0</ele><time>2026-04-18T17:54:59.949Z</time></trkpt><trkpt lat="45.0557696" lon="7.7144914"><ele>378.0</ele><time>2026-04-18T17:55:00.953Z</time></trkpt><trkpt lat="45.0558382" lon="7.714506"><ele>378.0</ele><time>2026-04-18T17:55:01.947Z</time></trkpt><trkpt lat="45.0559031" lon="7.7144997"><ele>378.0</ele><time>2026-04-18T17:55:02.949Z</time></trkpt><trkpt lat="45.0559769" lon="7.7144586"><ele>378.0</ele><time>2026-04-18T17:55:03.961Z</time></trkpt><trkpt lat="45.0560488" lon="7.7143946"><ele>376.0</ele><time>2026-04-18T17:55:04.945Z</time></trkpt><trkpt lat="45.0561217" lon="7.7143113"><ele>374.0</ele><time>2026-04-18T17:55:05.968Z</time></trkpt><trkpt lat="45.0561815" lon="7.7142316"><ele>372.0</ele><time>2026-04-18T17:55:06.95Z</time></trkpt><trkpt lat="45.0562272" lon="7.7141396"><ele>370.0</ele><time>2026-04-18T17:55:07.955Z</time></trkpt><trkpt lat="45.0562483" lon="7.714037"><ele>368.0</ele><time>2026-04-18T17:55:08.944Z</time></trkpt><trkpt lat="45.0562476" lon="7.7139115"><ele>366.0</ele><time>2026-04-18T17:55:09.972Z</time></trkpt><trkpt lat="45.0562454" lon="7.7137736"><ele>366.0</ele><time>2026-04-18T17:55:10.95Z</time></trkpt><trkpt lat="45.056252" lon="7.7136346"><ele>366.0</ele><time>2026-04-18T17:55:11.954Z</time></trkpt><trkpt lat="45.0562723" lon="7.7134949"><ele>366.0</ele><time>2026-04-18T17:55:12.957Z</time></trkpt><trkpt lat="45.0563095" lon="7.7133479"><ele>366.0</ele><time>2026-04-18T17:55:13.959Z</time></trkpt><trkpt lat="45.056367" lon="7.7132026"><ele>366.0</ele><time>2026-04-18T17:55:14.958Z</time></trkpt><trkpt lat="45.0564381" lon="7.713054"><ele>366.25</ele><time>2026-04-18T17:55:15.953Z</time></trkpt><trkpt lat="45.0565093" lon="7.7129074"><ele>366.5</ele><time>2026-04-18T17:55:16.96Z</time></trkpt><trkpt lat="45.0565733" lon="7.712755"><ele>366.75</ele><time>2026-04-18T17:55:17.971Z</time></trkpt><trkpt lat="45.0566272" lon="7.712607"><ele>367.0</ele><time>2026-04-18T17:55:18.959Z</time></trkpt><trkpt lat="45.0566615" lon="7.7124632"><ele>367.0</ele><time>2026-04-18T17:55:19.954Z</time></trkpt><trkpt lat="45.056661" lon="7.7123297"><ele>367.0</ele><time>2026-04-18T17:55:20.958Z</time></trkpt><trkpt lat="45.0566271" lon="7.7122051"><ele>367.0</ele><time>2026-04-18T17:55:21.965Z</time></trkpt><trkpt lat="45.0565748" lon="7.7120835"><ele>367.0</ele><time>2026-04-18T17:55:22.962Z</time></trkpt><trkpt lat="45.0565123" lon="7.7119559"><ele>367.0</ele><time>2026-04-18T17:55:23.949Z</time></trkpt><trkpt lat="45.0564579" lon="7.7118213"><ele>363.20000000000005</ele><time>2026-04-18T17:55:24.958Z</time></trkpt><trkpt lat="45.0564095" lon="7.7116925"><ele>359.4</ele><time>2026-04-18T17:55:25.952Z</time></trkpt><trkpt lat="45.0563653" lon="7.7115648"><ele>355.6</ele><time>2026-04-18T17:55:26.954Z</time></trkpt><trkpt lat="45.056322" lon="7.7114261"><ele>351.79999999999995</ele><time>2026-04-18T17:55:27.952Z</time></trkpt><trkpt lat="45.0562835" lon="7.7112799"><ele>348.0</ele><time>2026-04-18T17:55:28.948Z</time></trkpt><trkpt lat="45.0562505" lon="7.7111265"><ele>348.0</ele><time>2026-04-18T17:55:29.951Z</time></trkpt><trkpt lat="45.0562199" lon="7.7109731"><ele>348.0</ele><time>2026-04-18T17:55:30.971Z</time></trkpt><trkpt lat="45.056187" lon="7.7108194"><ele>348.0</ele><time>2026-04-18T17:55:31.967Z</time></trkpt><trkpt lat="45.0561489" lon="7.7106711"><ele>348.0</ele><time>2026-04-18T17:55:32.952Z</time></trkpt><trkpt lat="45.0560988" lon="7.7105355"><ele>348.0</ele><time>2026-04-18T17:55:33.956Z</time></trkpt><trkpt lat="45.0560316" lon="7.710409"><ele>348.0</ele><time>2026-04-18T17:55:34.96Z</time></trkpt><trkpt lat="45.0559502" lon="7.710299"><ele>348.0</ele><time>2026-04-18T17:55:35.966Z</time></trkpt><trkpt lat="45.0558616" lon="7.7102017"><ele>348.0</ele><time>2026-04-18T17:55:36.945Z</time></trkpt><trkpt lat="45.0557765" lon="7.7100971"><ele>348.0</ele><time>2026-04-18T17:55:37.954Z</time></trkpt><trkpt lat="45.0557157" lon="7.709981"><ele>348.0</ele><time>2026-04-18T17:55:38.96Z</time></trkpt><trkpt lat="45.0556747" lon="7.7098464"><ele>343.25</ele><time>2026-04-18T17:55:39.957Z</time></trkpt><trkpt lat="45.055653" lon="7.7096844"><ele>338.5</ele><time>2026-04-18T17:55:40.968Z</time></trkpt><trkpt lat="45.0556475" lon="7.7095094"><ele>333.75</ele><time>2026-04-18T17:55:41.965Z</time></trkpt><trkpt lat="45.0556583" lon="7.7093221"><ele>329.0</ele><time>2026-04-18T17:55:42.955Z</time></trkpt><trkpt lat="45.0556844" lon="7.7091393"><ele>328.75</ele><time>2026-04-18T17:55:43.956Z</time></trkpt><trkpt lat="45.0557198" lon="7.7089578"><ele>328.5</ele><time>2026-04-18T17:55:44.962Z</time></trkpt><trkpt lat="45.0557914" lon="7.7088064"><ele>328.25</ele><time>2026-04-18T17:55:45.954Z</time></trkpt><trkpt lat="45.0558717" lon="7.7086606"><ele>328.0</ele><time>2026-04-18T17:55:46.96Z</time></trkpt><trkpt lat="45.0559546" lon="7.7085133"><ele>328.75</ele><time>2026-04-18T17:55:47.95Z</time></trkpt><trkpt lat="45.0560428" lon="7.708376"><ele>329.5</ele><time>2026-04-18T17:55:48.968Z</time></trkpt><trkpt lat="45.0561373" lon="7.7082561"><ele>330.25</ele><time>2026-04-18T17:55:49.946Z</time></trkpt><trkpt lat="45.0562385" lon="7.7081611"><ele>331.0</ele><time>2026-04-18T17:55:50.962Z</time></trkpt><trkpt lat="45.056337" lon="7.7080877"><ele>331.0</ele><time>2026-04-18T17:55:51.957Z</time></trkpt><trkpt lat="45.0564258" lon="7.7080211"><ele>331.0</ele><time>2026-04-18T17:55:52.964Z</time></trkpt><trkpt lat="45.0565008" lon="7.7079392"><ele>331.0</ele><time>2026-04-18T17:55:53.971Z</time></trkpt><trkpt lat="45.056557" lon="7.7078438"><ele>331.0</ele><time>2026-04-18T17:55:54.961Z</time></trkpt><trkpt lat="45.0565855" lon="7.7077374"><ele>331.0</ele><time>2026-04-18T17:55:55.946Z</time></trkpt><trkpt lat="45.0565979" lon="7.7076271"><ele>331.0</ele><time>2026-04-18T17:55:56.949Z</time></trkpt><trkpt lat="45.0566062" lon="7.7075086"><ele>331.16666666666663</ele><time>2026-04-18T17:55:57.957Z</time></trkpt><trkpt lat="45.0566054" lon="7.7073929"><ele>331.3333333333333</ele><time>2026-04-18T17:55:58.975Z</time></trkpt><trkpt lat="45.0565856" lon="7.7072835"><ele>331.5</ele><time>2026-04-18T17:55:59.966Z</time></trkpt><trkpt lat="45.0565465" lon="7.7071881"><ele>331.6666666666667</ele><time>2026-04-18T17:56:00.966Z</time></trkpt><trkpt lat="45.0564973" lon="7.7071024"><ele>331.83333333333337</ele><time>2026-04-18T17:56:01.971Z</time></trkpt><trkpt lat="45.0564641" lon="7.7070062"><ele>332.0</ele><time>2026-04-18T17:56:02.946Z</time></trkpt><trkpt lat="45.0564638" lon="7.7069051"><ele>331.0</ele><time>2026-04-18T17:56:03.949Z</time></trkpt><trkpt lat="45.0564933" lon="7.7068187"><ele>330.0</ele><time>2026-04-18T17:56:04.954Z</time></trkpt><trkpt lat="45.0565495" lon="7.706749"><ele>329.0</ele><time>2026-04-18T17:56:05.959Z</time></trkpt><trkpt lat="45.0566192" lon="7.7067156"><ele>328.0</ele><time>2026-04-18T17:56:06.965Z</time></trkpt><trkpt lat="45.0566905" lon="7.7067236"><ele>327.0</ele><time>2026-04-18T17:56:07.969Z</time></trkpt><trkpt lat="45.0567655" lon="7.7067425"><ele>326.0</ele><time>2026-04-18T17:56:08.954Z</time></trkpt><trkpt lat="45.0568411" lon="7.7067395"><ele>325.0</ele><time>2026-04-18T17:56:09.947Z</time></trkpt><trkpt lat="45.0569211" lon="7.7067026"><ele>324.6</ele><time>2026-04-18T17:56:10.952Z</time></trkpt><trkpt lat="45.057006" lon="7.7066379"><ele>324.2</ele><time>2026-04-18T17:56:11.959Z</time></trkpt><trkpt lat="45.0570937" lon="7.7065865"><ele>323.79999999999995</ele><time>2026-04-18T17:56:12.949Z</time></trkpt><trkpt lat="45.0571824" lon="7.706547"><ele>323.4</ele><time>2026-04-18T17:56:13.954Z</time></trkpt><trkpt lat="45.0572817" lon="7.7065407"><ele>323.0</ele><time>2026-04-18T17:56:14.96Z</time></trkpt><trkpt lat="45.057374" lon="7.7065259"><ele>321.6666666666667</ele><time>2026-04-18T17:56:15.969Z</time></trkpt><trkpt lat="45.0574672" lon="7.7064891"><ele>320.33333333333337</ele><time>2026-04-18T17:56:16.962Z</time></trkpt><trkpt lat="45.0575427" lon="7.7064241"><ele>319.0</ele><time>2026-04-18T17:56:17.974Z</time></trkpt><trkpt lat="45.0576069" lon="7.7063486"><ele>317.6666666666667</ele><time>2026-04-18T17:56:18.951Z</time></trkpt><trkpt lat="45.057665" lon="7.7062656"><ele>316.3333333333333</ele><time>2026-04-18T17:56:19.95Z</time></trkpt><trkpt lat="45.0577114" lon="7.7061796"><ele>315.0</ele><time>2026-04-18T17:56:20.946Z</time></trkpt><trkpt lat="45.0577533" lon="7.7060642"><ele>315.0</ele><time>2026-04-18T17:56:22.948Z</time></trkpt><trkpt lat="45.0577802" lon="7.705976"><ele>315.0</ele><time>2026-04-18T17:56:24.952Z</time></trkpt><trkpt lat="45.0578334" lon="7.7059039"><ele>315.0</ele><time>2026-04-18T17:56:26.953Z</time></trkpt><trkpt lat="45.0578988" lon="7.7059371"><ele>315.0</ele><time>2026-04-18T17:56:28.957Z</time></trkpt><trkpt lat="45.0579127" lon="7.7060412"><ele>315.0</ele><time>2026-04-18T17:56:30.965Z</time></trkpt><trkpt lat="45.0578556" lon="7.7061893"><ele>315.0</ele><time>2026-04-18T17:56:32.969Z</time></trkpt><trkpt lat="45.0578131" lon="7.7062836"><ele>314.6666666666667</ele><time>2026-04-18T17:56:33.96Z</time></trkpt><trkpt lat="45.0577658" lon="7.7063872"><ele>314.3333333333333</ele><time>2026-04-18T17:56:34.957Z</time></trkpt><trkpt lat="45.0577174" lon="7.7064932"><ele>314.0</ele><time>2026-04-18T17:56:35.949Z</time></trkpt><trkpt lat="45.0576918" lon="7.7066111"><ele>313.66666666666663</ele><time>2026-04-18T17:56:36.966Z</time></trkpt><trkpt lat="45.0576944" lon="7.7067304"><ele>313.3333333333333</ele><time>2026-04-18T17:56:37.947Z</time></trkpt><trkpt lat="45.0577198" lon="7.7068432"><ele>313.0</ele><time>2026-04-18T17:56:38.951Z</time></trkpt><trkpt lat="45.057755" lon="7.7069558"><ele>313.8333333333333</ele><time>2026-04-18T17:56:39.957Z</time></trkpt><trkpt lat="45.0577979" lon="7.70707"><ele>314.66666666666663</ele><time>2026-04-18T17:56:40.962Z</time></trkpt><trkpt lat="45.0578461" lon="7.7071826"><ele>315.5</ele><time>2026-04-18T17:56:41.96Z</time></trkpt><trkpt lat="45.0579014" lon="7.7072979"><ele>316.3333333333333</ele><time>2026-04-18T17:56:42.953Z</time></trkpt><trkpt lat="45.0579554" lon="7.7074028"><ele>317.1666666666667</ele><time>2026-04-18T17:56:43.959Z</time></trkpt><trkpt lat="45.0580058" lon="7.7074752"><ele>318.0</ele><time>2026-04-18T17:56:44.953Z</time></trkpt><trkpt lat="45.0580994" lon="7.7075233"><ele>318.0</ele><time>2026-04-18T17:56:46.949Z</time></trkpt><trkpt lat="45.0581811" lon="7.7074566"><ele>318.0</ele><time>2026-04-18T17:56:48.957Z</time></trkpt><trkpt lat="45.0582167" lon="7.7072835"><ele>318.0</ele><time>2026-04-18T17:56:50.973Z</time></trkpt><trkpt lat="45.0582019" lon="7.7071713"><ele>318.0</ele><time>2026-04-18T17:56:51.945Z</time></trkpt><trkpt lat="45.0581735" lon="7.7070503"><ele>318.0</ele><time>2026-04-18T17:56:52.955Z</time></trkpt><trkpt lat="45.058154" lon="7.7069212"><ele>317.0</ele><time>2026-04-18T17:56:53.962Z</time></trkpt><trkpt lat="45.0581563" lon="7.7067892"><ele>316.0</ele><time>2026-04-18T17:56:54.968Z</time></trkpt><trkpt lat="45.0581752" lon="7.7066616"><ele>315.0</ele><time>2026-04-18T17:56:55.956Z</time></trkpt><trkpt lat="45.0582038" lon="7.70654"><ele>314.0</ele><time>2026-04-18T17:56:56.949Z</time></trkpt><trkpt lat="45.0582394" lon="7.7064244"><ele>313.0</ele><time>2026-04-18T17:56:57.961Z</time></trkpt><trkpt lat="45.0582853" lon="7.706313"><ele>309.4</ele><time>2026-04-18T17:56:58.951Z</time></trkpt><trkpt lat="45.0583391" lon="7.7061968"><ele>305.8</ele><time>2026-04-18T17:56:59.964Z</time></trkpt><trkpt lat="45.0584061" lon="7.7060881"><ele>302.2</ele><time>2026-04-18T17:57:00.948Z</time></trkpt><trkpt lat="45.0584818" lon="7.7059766"><ele>298.6</ele><time>2026-04-18T17:57:01.967Z</time></trkpt><trkpt lat="45.0585739" lon="7.7058738"><ele>295.0</ele><time>2026-04-18T17:57:02.974Z</time></trkpt><trkpt lat="45.0586581" lon="7.7057731"><ele>295.0</ele><time>2026-04-18T17:57:03.949Z</time></trkpt><trkpt lat="45.0587427" lon="7.7056666"><ele>295.0</ele><time>2026-04-18T17:57:04.947Z</time></trkpt><trkpt lat="45.0588198" lon="7.7055761"><ele>295.0</ele><time>2026-04-18T17:57:05.962Z</time></trkpt><trkpt lat="45.0588898" lon="7.7054948"><ele>295.0</ele><time>2026-04-18T17:57:06.966Z</time></trkpt><trkpt lat="45.0589494" lon="7.7054235"><ele>295.0</ele><time>2026-04-18T17:57:07.953Z</time></trkpt><trkpt lat="45.0590044" lon="7.7053534"><ele>295.00000000000006</ele><time>2026-04-18T17:57:08.96Z</time></trkpt><trkpt lat="45.0590559" lon="7.7052882"><ele>295.0</ele><time>2026-04-18T17:57:09.953Z</time></trkpt><trkpt lat="45.059109" lon="7.705224"><ele>295.0</ele><time>2026-04-18T17:57:10.948Z</time></trkpt><trkpt lat="45.0591503" lon="7.7051461"><ele>295.0</ele><time>2026-04-18T17:57:11.958Z</time></trkpt><trkpt lat="45.0591796" lon="7.7050601"><ele>295.0</ele><time>2026-04-18T17:57:12.963Z</time></trkpt><trkpt lat="45.0591919" lon="7.7049709"><ele>295.00000000000006</ele><time>2026-04-18T17:57:13.946Z</time></trkpt><trkpt lat="45.0591886" lon="7.7048718"><ele>295.0</ele><time>2026-04-18T17:57:14.954Z</time></trkpt><trkpt lat="45.0591897" lon="7.7047781"><ele>291.3333333333333</ele><time>2026-04-18T17:57:15.956Z</time></trkpt><trkpt lat="45.0592249" lon="7.7046428"><ele>287.66666666666663</ele><time>2026-04-18T17:57:17.975Z</time></trkpt><trkpt lat="45.0592789" lon="7.7045915"><ele>284.0</ele><time>2026-04-18T17:57:20.949Z</time></trkpt><trkpt lat="45.059357" lon="7.7045676"><ele>280.3333333333333</ele><time>2026-04-18T17:58:03.961Z</time></trkpt><trkpt lat="45.0594437" lon="7.7044788"><ele>276.6666666666667</ele><time>2026-04-18T17:58:05.952Z</time></trkpt><trkpt lat="45.0594674" lon="7.7043909"><ele>273.0</ele><time>2026-04-18T17:58:06.97Z</time></trkpt><trkpt lat="45.0594723" lon="7.7042755"><ele>273.0</ele><time>2026-04-18T17:58:07.958Z</time></trkpt><trkpt lat="45.0594691" lon="7.7041299"><ele>273.0</ele><time>2026-04-18T17:58:08.957Z</time></trkpt><trkpt lat="45.0594704" lon="7.703977"><ele>273.0</ele><time>2026-04-18T17:58:09.946Z</time></trkpt><trkpt lat="45.0594651" lon="7.7038163"><ele>273.0</ele><time>2026-04-18T17:58:10.958Z</time></trkpt><trkpt lat="45.0594511" lon="7.7036476"><ele>273.0</ele><time>2026-04-18T17:58:11.948Z</time></trkpt><trkpt lat="45.059426" lon="7.7034711"><ele>272.0</ele><time>2026-04-18T17:58:12.95Z</time></trkpt><trkpt lat="45.0593919" lon="7.7032956"><ele>271.0</ele><time>2026-04-18T17:58:13.947Z</time></trkpt><trkpt lat="45.0593546" lon="7.7031225"><ele>270.0</ele><time>2026-04-18T17:58:14.959Z</time></trkpt><trkpt lat="45.059321" lon="7.702946"><ele>269.0</ele><time>2026-04-18T17:58:15.945Z</time></trkpt><trkpt lat="45.0592972" lon="7.7027611"><ele>269.25</ele><time>2026-04-18T17:58:16.958Z</time></trkpt><trkpt lat="45.0592849" lon="7.7025714"><ele>269.5</ele><time>2026-04-18T17:58:17.958Z</time></trkpt><trkpt lat="45.0592902" lon="7.7023805"><ele>269.75</ele><time>2026-04-18T17:58:18.946Z</time></trkpt><trkpt lat="45.0593051" lon="7.7021919"><ele>270.0</ele><time>2026-04-18T17:58:19.962Z</time></trkpt><trkpt lat="45.0593216" lon="7.7020134"><ele>270.0</ele><time>2026-04-18T17:58:20.964Z</time></trkpt><trkpt lat="45.0593406" lon="7.7018423"><ele>270.0</ele><time>2026-04-18T17:58:21.954Z</time></trkpt><trkpt lat="45.0593632" lon="7.7016701"><ele>270.0</ele><time>2026-04-18T17:58:22.958Z</time></trkpt><trkpt lat="45.0593857" lon="7.7014919"><ele>270.0</ele><time>2026-04-18T17:58:23.959Z</time></trkpt><trkpt lat="45.0594074" lon="7.701311"><ele>270.0</ele><time>2026-04-18T17:58:24.966Z</time></trkpt><trkpt lat="45.0594244" lon="7.7011265"><ele>270.0</ele><time>2026-04-18T17:58:25.952Z</time></trkpt><trkpt lat="45.0594352" lon="7.7009377"><ele>270.0</ele><time>2026-04-18T17:58:26.968Z</time></trkpt><trkpt lat="45.0594317" lon="7.7007424"><ele>270.0</ele><time>2026-04-18T17:58:27.957Z</time></trkpt><trkpt lat="45.0594208" lon="7.7005504"><ele>270.0</ele><time>2026-04-18T17:58:28.954Z</time></trkpt><trkpt lat="45.0593932" lon="7.7003558"><ele>270.0</ele><time>2026-04-18T17:58:29.953Z</time></trkpt><trkpt lat="45.059357" lon="7.7001501"><ele>270.0</ele><time>2026-04-18T17:58:30.958Z</time></trkpt><trkpt lat="45.059312" lon="7.6999385"><ele>270.0</ele><time>2026-04-18T17:58:31.954Z</time></trkpt><trkpt lat="45.0592667" lon="7.6997344"><ele>268.25</ele><time>2026-04-18T17:58:32.954Z</time></trkpt><trkpt lat="45.0592204" lon="7.6995396"><ele>266.5</ele><time>2026-04-18T17:58:33.951Z</time></trkpt><trkpt lat="45.0591789" lon="7.6993637"><ele>264.75</ele><time>2026-04-18T17:58:34.961Z</time></trkpt><trkpt lat="45.059144" lon="7.6992047"><ele>263.0</ele><time>2026-04-18T17:58:35.963Z</time></trkpt><trkpt lat="45.0591183" lon="7.6990636"><ele>265.0</ele><time>2026-04-18T17:58:36.963Z</time></trkpt><trkpt lat="45.0590849" lon="7.6989326"><ele>267.0</ele><time>2026-04-18T17:58:37.963Z</time></trkpt><trkpt lat="45.0590364" lon="7.6988186"><ele>269.0</ele><time>2026-04-18T17:58:38.955Z</time></trkpt><trkpt lat="45.0589691" lon="7.6987256"><ele>271.0</ele><time>2026-04-18T17:58:39.956Z</time></trkpt><trkpt lat="45.0588801" lon="7.6986515"><ele>273.0</ele><time>2026-04-18T17:58:40.944Z</time></trkpt><trkpt lat="45.0587743" lon="7.6985868"><ele>269.5</ele><time>2026-04-18T17:58:41.945Z</time></trkpt><trkpt lat="45.0586535" lon="7.6985488"><ele>266.0</ele><time>2026-04-18T17:58:42.973Z</time></trkpt><trkpt lat="45.0585223" lon="7.6985289"><ele>262.5</ele><time>2026-04-18T17:58:43.956Z</time></trkpt><trkpt lat="45.0583808" lon="7.6985279"><ele>259.0</ele><time>2026-04-18T17:58:44.96Z</time></trkpt><trkpt lat="45.0582406" lon="7.6985283"><ele>258.5</ele><time>2026-04-18T17:58:45.953Z</time></trkpt><trkpt lat="45.0581029" lon="7.6985204"><ele>258.0</ele><time>2026-04-18T17:58:46.949Z</time></trkpt><trkpt lat="45.0579655" lon="7.6985057"><ele>257.5</ele><time>2026-04-18T17:58:47.947Z</time></trkpt><trkpt lat="45.0578303" lon="7.6984863"><ele>257.0</ele><time>2026-04-18T17:58:48.958Z</time></trkpt><trkpt lat="45.0576989" lon="7.6984524"><ele>257.0</ele><time>2026-04-18T17:58:49.96Z</time></trkpt><trkpt lat="45.0575874" lon="7.6984214"><ele>257.0</ele><time>2026-04-18T17:58:50.97Z</time></trkpt><trkpt lat="45.0574986" lon="7.6983878"><ele>257.0</ele><time>2026-04-18T17:58:51.967Z</time></trkpt><trkpt lat="45.0574331" lon="7.6983602"><ele>257.0</ele><time>2026-04-18T17:58:52.968Z</time></trkpt><trkpt lat="45.0573563" lon="7.6983177"><ele>257.0</ele><time>2026-04-18T17:58:54.956Z</time></trkpt><trkpt lat="45.0572796" lon="7.698277"><ele>257.0</ele><time>2026-04-18T17:58:56.971Z</time></trkpt><trkpt lat="45.057164" lon="7.6982202"><ele>258.5</ele><time>2026-04-18T17:58:58.957Z</time></trkpt><trkpt lat="45.0570946" lon="7.6981815"><ele>260.0</ele><time>2026-04-18T17:58:59.975Z</time></trkpt><trkpt lat="45.0570149" lon="7.6981372"><ele>261.5</ele><time>2026-04-18T17:59:00.963Z</time></trkpt><trkpt lat="45.0569341" lon="7.698086"><ele>263.0</ele><time>2026-04-18T17:59:01.965Z</time></trkpt><trkpt lat="45.0568452" lon="7.6980332"><ele>264.5</ele><time>2026-04-18T17:59:02.969Z</time></trkpt><trkpt lat="45.0567535" lon="7.6979712"><ele>266.0</ele><time>2026-04-18T17:59:03.954Z</time></trkpt><trkpt lat="45.0566582" lon="7.6979033"><ele>265.5</ele><time>2026-04-18T17:59:04.949Z</time></trkpt><trkpt lat="45.0565621" lon="7.6978241"><ele>265.0</ele><time>2026-04-18T17:59:05.954Z</time></trkpt><trkpt lat="45.0564664" lon="7.6977442"><ele>264.5</ele><time>2026-04-18T17:59:06.974Z</time></trkpt><trkpt lat="45.0563691" lon="7.6976514"><ele>264.0</ele><time>2026-04-18T17:59:07.946Z</time></trkpt><trkpt lat="45.0562633" lon="7.697553"><ele>260.75</ele><time>2026-04-18T17:59:08.95Z</time></trkpt><trkpt lat="45.0561558" lon="7.6974429"><ele>257.5</ele><time>2026-04-18T17:59:09.942Z</time></trkpt><trkpt lat="45.0560463" lon="7.6973272"><ele>254.25</ele><time>2026-04-18T17:59:10.946Z</time></trkpt><trkpt lat="45.0559463" lon="7.6972049"><ele>251.0</ele><time>2026-04-18T17:59:11.946Z</time></trkpt><trkpt lat="45.0558504" lon="7.6970848"><ele>249.20000000000002</ele><time>2026-04-18T17:59:12.968Z</time></trkpt><trkpt lat="45.0557601" lon="7.6969683"><ele>247.40000000000003</ele><time>2026-04-18T17:59:13.955Z</time></trkpt><trkpt lat="45.0556764" lon="7.6968564"><ele>245.6</ele><time>2026-04-18T17:59:14.965Z</time></trkpt><trkpt lat="45.055614" lon="7.6967595"><ele>243.8</ele><time>2026-04-18T17:59:15.948Z</time></trkpt><trkpt lat="45.0555557" lon="7.6966591"><ele>242.0</ele><time>2026-04-18T17:59:16.948Z</time></trkpt><trkpt lat="45.055506" lon="7.696557"><ele>242.0</ele><time>2026-04-18T17:59:17.949Z</time></trkpt><trkpt lat="45.055458" lon="7.6964466"><ele>242.0</ele><time>2026-04-18T17:59:18.952Z</time></trkpt><trkpt lat="45.0554049" lon="7.6963277"><ele>242.0</ele><time>2026-04-18T17:59:19.954Z</time></trkpt><trkpt lat="45.0553443" lon="7.6962062"><ele>242.0</ele><time>2026-04-18T17:59:20.957Z</time></trkpt><trkpt lat="45.0552785" lon="7.6960741"><ele>242.0</ele><time>2026-04-18T17:59:21.969Z</time></trkpt><trkpt lat="45.0552132" lon="7.6959333"><ele>241.0</ele><time>2026-04-18T17:59:22.946Z</time></trkpt><trkpt lat="45.0551497" lon="7.695792"><ele>240.0</ele><time>2026-04-18T17:59:23.951Z</time></trkpt><trkpt lat="45.0550882" lon="7.6956472"><ele>239.0</ele><time>2026-04-18T17:59:24.948Z</time></trkpt><trkpt lat="45.0550232" lon="7.6954927"><ele>238.0</ele><time>2026-04-18T17:59:25.954Z</time></trkpt><trkpt lat="45.0549622" lon="7.6953304"><ele>241.25</ele><time>2026-04-18T17:59:26.96Z</time></trkpt><trkpt lat="45.0549008" lon="7.6951601"><ele>244.5</ele><time>2026-04-18T17:59:27.969Z</time></trkpt><trkpt lat="45.0548328" lon="7.6949897"><ele>247.75</ele><time>2026-04-18T17:59:28.956Z</time></trkpt><trkpt lat="45.0547792" lon="7.6948325"><ele>251.0</ele><time>2026-04-18T17:59:29.95Z</time></trkpt><trkpt lat="45.0547271" lon="7.6946843"><ele>251.0</ele><time>2026-04-18T17:59:30.969Z</time></trkpt><trkpt lat="45.0546762" lon="7.6945315"><ele>251.0</ele><time>2026-04-18T17:59:31.957Z</time></trkpt><trkpt lat="45.0546233" lon="7.6943858"><ele>251.0</ele><time>2026-04-18T17:59:32.959Z</time></trkpt><trkpt lat="45.0545706" lon="7.6942363"><ele>251.0</ele><time>2026-04-18T17:59:33.951Z</time></trkpt><trkpt lat="45.054517" lon="7.694079"><ele>250.0</ele><time>2026-04-18T17:59:34.945Z</time></trkpt><trkpt lat="45.0544645" lon="7.6939306"><ele>249.0</ele><time>2026-04-18T17:59:35.962Z</time></trkpt><trkpt lat="45.0544159" lon="7.693784"><ele>248.0</ele><time>2026-04-18T17:59:36.947Z</time></trkpt><trkpt lat="45.054362" lon="7.6936431"><ele>247.0</ele><time>2026-04-18T17:59:37.943Z</time></trkpt><trkpt lat="45.0543108" lon="7.693508"><ele>246.0</ele><time>2026-04-18T17:59:38.959Z</time></trkpt><trkpt lat="45.0542596" lon="7.6933769"><ele>245.0</ele><time>2026-04-18T17:59:39.966Z</time></trkpt><trkpt lat="45.0542129" lon="7.6932529"><ele>244.0</ele><time>2026-04-18T17:59:40.956Z</time></trkpt><trkpt lat="45.0541663" lon="7.6931333"><ele>243.0</ele><time>2026-04-18T17:59:41.96Z</time></trkpt><trkpt lat="45.0541167" lon="7.6930151"><ele>242.0</ele><time>2026-04-18T17:59:42.958Z</time></trkpt><trkpt lat="45.0540632" lon="7.6928914"><ele>242.83333333333334</ele><time>2026-04-18T17:59:43.96Z</time></trkpt><trkpt lat="45.0540178" lon="7.6927896"><ele>243.66666666666669</ele><time>2026-04-18T17:59:44.964Z</time></trkpt><trkpt lat="45.0539751" lon="7.6926973"><ele>244.5</ele><time>2026-04-18T17:59:45.949Z</time></trkpt><trkpt lat="45.0539045" lon="7.6925837"><ele>245.33333333333331</ele><time>2026-04-18T17:59:47.95Z</time></trkpt><trkpt lat="45.0538575" lon="7.6924896"><ele>246.16666666666666</ele><time>2026-04-18T17:59:49.954Z</time></trkpt><trkpt lat="45.0538026" lon="7.692379"><ele>247.0</ele><time>2026-04-18T17:59:51.964Z</time></trkpt><trkpt lat="45.0537627" lon="7.6923067"><ele>246.99999999999997</ele><time>2026-04-18T17:59:52.956Z</time></trkpt><trkpt lat="45.0537151" lon="7.6922191"><ele>247.0</ele><time>2026-04-18T17:59:53.946Z</time></trkpt><trkpt lat="45.0536631" lon="7.6921235"><ele>247.0</ele><time>2026-04-18T17:59:54.954Z</time></trkpt><trkpt lat="45.0536075" lon="7.6920244"><ele>247.0</ele><time>2026-04-18T17:59:55.945Z</time></trkpt><trkpt lat="45.0535539" lon="7.6919374"><ele>246.99999999999997</ele><time>2026-04-18T17:59:56.958Z</time></trkpt><trkpt lat="45.0534809" lon="7.6918225"><ele>247.0</ele><time>2026-04-18T17:59:58.954Z</time></trkpt><trkpt lat="45.0534356" lon="7.6917429"><ele>247.8</ele><time>2026-04-18T18:00:00.95Z</time></trkpt><trkpt lat="45.0533753" lon="7.6916415"><ele>248.6</ele><time>2026-04-18T18:00:03.949Z</time></trkpt><trkpt lat="45.0533202" lon="7.6915661"><ele>249.40000000000003</ele><time>2026-04-18T18:00:05.947Z</time></trkpt><trkpt lat="45.0532632" lon="7.691478"><ele>250.20000000000002</ele><time>2026-04-18T18:00:07.954Z</time></trkpt><trkpt lat="45.0531756" lon="7.6913588"><ele>251.0</ele><time>2026-04-18T18:00:09.96Z</time></trkpt><trkpt lat="45.0531158" lon="7.6912785"><ele>251.0</ele><time>2026-04-18T18:00:10.95Z</time></trkpt><trkpt lat="45.0530454" lon="7.6911813"><ele>251.00000000000003</ele><time>2026-04-18T18:00:11.957Z</time></trkpt><trkpt lat="45.0529636" lon="7.691075"><ele>251.00000000000003</ele><time>2026-04-18T18:00:12.974Z</time></trkpt><trkpt lat="45.0528782" lon="7.6909742"><ele>251.0</ele><time>2026-04-18T18:00:13.972Z</time></trkpt><trkpt lat="45.0527957" lon="7.6908712"><ele>251.0</ele><time>2026-04-18T18:00:14.963Z</time></trkpt><trkpt lat="45.0527148" lon="7.6907701"><ele>251.16666666666669</ele><time>2026-04-18T18:00:15.944Z</time></trkpt><trkpt lat="45.0526311" lon="7.6906837"><ele>251.33333333333334</ele><time>2026-04-18T18:00:16.944Z</time></trkpt><trkpt lat="45.0525662" lon="7.6906249"><ele>251.5</ele><time>2026-04-18T18:00:17.957Z</time></trkpt><trkpt lat="45.052515" lon="7.6905694"><ele>251.66666666666669</ele><time>2026-04-18T18:00:18.956Z</time></trkpt><trkpt lat="45.0524315" lon="7.6904814"><ele>251.83333333333334</ele><time>2026-04-18T18:00:20.948Z</time></trkpt><trkpt lat="45.0523581" lon="7.6904059"><ele>252.0</ele><time>2026-04-18T18:00:22.966Z</time></trkpt><trkpt lat="45.0522665" lon="7.6903095"><ele>250.0</ele><time>2026-04-18T18:00:24.954Z</time></trkpt><trkpt lat="45.0522145" lon="7.6902483"><ele>248.0</ele><time>2026-04-18T18:00:25.958Z</time></trkpt><trkpt lat="45.0521167" lon="7.690152"><ele>246.0</ele><time>2026-04-18T18:00:27.953Z</time></trkpt><trkpt lat="45.0520502" lon="7.6900539"><ele>244.0</ele><time>2026-04-18T18:00:29.951Z</time></trkpt><trkpt lat="45.0520554" lon="7.6899259"><ele>242.0</ele><time>2026-04-18T18:00:31.972Z</time></trkpt><trkpt lat="45.0520992" lon="7.6898097"><ele>242.00000000000003</ele><time>2026-04-18T18:00:34.955Z</time></trkpt><trkpt lat="45.0521624" lon="7.6897251"><ele>242.0</ele><time>2026-04-18T18:01:10.975Z</time></trkpt><trkpt lat="45.0522053" lon="7.6896404"><ele>242.0</ele><time>2026-04-18T18:01:12.96Z</time></trkpt><trkpt lat="45.0522169" lon="7.6894969"><ele>242.0</ele><time>2026-04-18T18:01:14.954Z</time></trkpt><trkpt lat="45.0521604" lon="7.6893675"><ele>242.00000000000003</ele><time>2026-04-18T18:01:16.949Z</time></trkpt><trkpt lat="45.0521025" lon="7.6893097"><ele>242.0</ele><time>2026-04-18T18:01:17.957Z</time></trkpt><trkpt lat="45.0520272" lon="7.6892569"><ele>242.0</ele><time>2026-04-18T18:01:18.946Z</time></trkpt><trkpt lat="45.051934" lon="7.6891694"><ele>242.0</ele><time>2026-04-18T18:01:19.943Z</time></trkpt><trkpt lat="45.0518139" lon="7.6890719"><ele>242.0</ele><time>2026-04-18T18:01:20.965Z</time></trkpt><trkpt lat="45.0516561" lon="7.6889854"><ele>242.0</ele><time>2026-04-18T18:01:21.974Z</time></trkpt><trkpt lat="45.0514784" lon="7.6888928"><ele>242.0</ele><time>2026-04-18T18:01:22.961Z</time></trkpt><trkpt lat="45.0513006" lon="7.6887933"><ele>242.0</ele><time>2026-04-18T18:01:23.956Z</time></trkpt><trkpt lat="45.0511303" lon="7.6886829"><ele>242.0</ele><time>2026-04-18T18:01:24.96Z</time></trkpt><trkpt lat="45.050965" lon="7.688564"><ele>241.33333333333334</ele><time>2026-04-18T18:01:25.963Z</time></trkpt><trkpt lat="45.0508025" lon="7.6884523"><ele>240.66666666666669</ele><time>2026-04-18T18:01:26.958Z</time></trkpt><trkpt lat="45.0506427" lon="7.6883398"><ele>240.0</ele><time>2026-04-18T18:01:27.975Z</time></trkpt><trkpt lat="45.0504817" lon="7.6882323"><ele>240.0</ele><time>2026-04-18T18:01:28.967Z</time></trkpt><trkpt lat="45.0503236" lon="7.6881283"><ele>240.0</ele><time>2026-04-18T18:01:29.956Z</time></trkpt><trkpt lat="45.050171" lon="7.6880325"><ele>240.0</ele><time>2026-04-18T18:01:30.973Z</time></trkpt><trkpt lat="45.0500203" lon="7.6879394"><ele>242.33333333333331</ele><time>2026-04-18T18:01:31.96Z</time></trkpt><trkpt lat="45.0498744" lon="7.6878548"><ele>244.66666666666666</ele><time>2026-04-18T18:01:32.944Z</time></trkpt><trkpt lat="45.0497344" lon="7.687776"><ele>247.0</ele><time>2026-04-18T18:01:33.965Z</time></trkpt><trkpt lat="45.0495974" lon="7.6877037"><ele>244.0</ele><time>2026-04-18T18:01:34.974Z</time></trkpt><trkpt lat="45.0494632" lon="7.6876306"><ele>241.0</ele><time>2026-04-18T18:01:35.947Z</time></trkpt><trkpt lat="45.0493322" lon="7.6875588"><ele>238.0</ele><time>2026-04-18T18:01:36.942Z</time></trkpt><trkpt lat="45.0491994" lon="7.6874947"><ele>235.0</ele><time>2026-04-18T18:01:37.959Z</time></trkpt><trkpt lat="45.0490749" lon="7.6874287"><ele>235.0</ele><time>2026-04-18T18:01:38.95Z</time></trkpt><trkpt lat="45.0489508" lon="7.6873659"><ele>235.0</ele><time>2026-04-18T18:01:39.963Z</time></trkpt><trkpt lat="45.0488291" lon="7.6873039"><ele>235.0</ele><time>2026-04-18T18:01:40.957Z</time></trkpt><trkpt lat="45.0487093" lon="7.687247"><ele>235.0</ele><time>2026-04-18T18:01:41.961Z</time></trkpt><trkpt lat="45.0485896" lon="7.6871943"><ele>235.0</ele><time>2026-04-18T18:01:42.975Z</time></trkpt><trkpt lat="45.0484701" lon="7.6871609"><ele>235.0</ele><time>2026-04-18T18:01:43.954Z</time></trkpt><trkpt lat="45.0483424" lon="7.687136"><ele>235.0</ele><time>2026-04-18T18:01:44.958Z</time></trkpt><trkpt lat="45.0482152" lon="7.6871109"><ele>235.0</ele><time>2026-04-18T18:01:45.97Z</time></trkpt><trkpt lat="45.0480824" lon="7.6870844"><ele>236.75</ele><time>2026-04-18T18:01:46.951Z</time></trkpt><trkpt lat="45.0479498" lon="7.6870606"><ele>238.5</ele><time>2026-04-18T18:01:47.959Z</time></trkpt><trkpt lat="45.047817" lon="7.6870376"><ele>240.25</ele><time>2026-04-18T18:01:48.954Z</time></trkpt><trkpt lat="45.0476923" lon="7.6870132"><ele>242.0</ele><time>2026-04-18T18:01:49.948Z</time></trkpt><trkpt lat="45.0475715" lon="7.6869913"><ele>242.25</ele><time>2026-04-18T18:01:50.945Z</time></trkpt><trkpt lat="45.0474565" lon="7.6869673"><ele>242.5</ele><time>2026-04-18T18:01:51.955Z</time></trkpt><trkpt lat="45.0473458" lon="7.6869422"><ele>242.75</ele><time>2026-04-18T18:01:52.967Z</time></trkpt><trkpt lat="45.0472332" lon="7.6869161"><ele>243.0</ele><time>2026-04-18T18:01:53.954Z</time></trkpt><trkpt lat="45.0471188" lon="7.6868917"><ele>239.0</ele><time>2026-04-18T18:01:54.955Z</time></trkpt><trkpt lat="45.0470042" lon="7.6868606"><ele>235.0</ele><time>2026-04-18T18:01:55.948Z</time></trkpt><trkpt lat="45.0468894" lon="7.6868298"><ele>231.0</ele><time>2026-04-18T18:01:56.949Z</time></trkpt><trkpt lat="45.0467729" lon="7.6867964"><ele>227.0</ele><time>2026-04-18T18:01:57.945Z</time></trkpt><trkpt lat="45.0466597" lon="7.6867556"><ele>230.0</ele><time>2026-04-18T18:01:58.944Z</time></trkpt><trkpt lat="45.0465406" lon="7.6867189"><ele>233.0</ele><time>2026-04-18T18:01:59.945Z</time></trkpt><trkpt lat="45.0464262" lon="7.6866744"><ele>236.0</ele><time>2026-04-18T18:02:00.956Z</time></trkpt><trkpt lat="45.0463077" lon="7.6866312"><ele>239.0</ele><time>2026-04-18T18:02:01.951Z</time></trkpt><trkpt lat="45.0461966" lon="7.6865914"><ele>239.00000000000003</ele><time>2026-04-18T18:02:02.962Z</time></trkpt><trkpt lat="45.0460959" lon="7.686548"><ele>239.0</ele><time>2026-04-18T18:02:03.943Z</time></trkpt><trkpt lat="45.0460138" lon="7.6865159"><ele>239.0</ele><time>2026-04-18T18:02:04.959Z</time></trkpt><trkpt lat="45.0459427" lon="7.6864864"><ele>239.0</ele><time>2026-04-18T18:02:05.953Z</time></trkpt><trkpt lat="45.0458481" lon="7.6864439"><ele>239.00000000000003</ele><time>2026-04-18T18:02:07.962Z</time></trkpt><trkpt lat="45.0457843" lon="7.6864289"><ele>239.0</ele><time>2026-04-18T18:02:19.958Z</time></trkpt><trkpt lat="45.0457136" lon="7.6863967"><ele>240.0</ele><time>2026-04-18T18:02:21.946Z</time></trkpt><trkpt lat="45.0456164" lon="7.6863358"><ele>240.99999999999997</ele><time>2026-04-18T18:02:23.971Z</time></trkpt><trkpt lat="45.0455116" lon="7.6862712"><ele>241.99999999999997</ele><time>2026-04-18T18:02:25.954Z</time></trkpt><trkpt lat="45.0454092" lon="7.6862274"><ele>243.0</ele><time>2026-04-18T18:02:27.95Z</time></trkpt><trkpt lat="45.0453007" lon="7.6861724"><ele>244.0</ele><time>2026-04-18T18:02:29.953Z</time></trkpt><trkpt lat="45.0452036" lon="7.6861175"><ele>242.39999999999998</ele><time>2026-04-18T18:02:31.969Z</time></trkpt><trkpt lat="45.0451081" lon="7.6860654"><ele>240.79999999999998</ele><time>2026-04-18T18:02:33.954Z</time></trkpt><trkpt lat="45.0450141" lon="7.6859956"><ele>239.20000000000002</ele><time>2026-04-18T18:02:35.959Z</time></trkpt><trkpt lat="45.0449343" lon="7.68593"><ele>237.60000000000002</ele><time>2026-04-18T18:02:37.951Z</time></trkpt><trkpt lat="45.044855" lon="7.6858369"><ele>236.0</ele><time>2026-04-18T18:02:39.958Z</time></trkpt><trkpt lat="45.0448167" lon="7.6857541"><ele>236.00000000000003</ele><time>2026-04-18T18:02:41.961Z</time></trkpt><trkpt lat="45.0447913" lon="7.6856572"><ele>236.0</ele><time>2026-04-18T18:02:45.967Z</time></trkpt><trkpt lat="45.0448244" lon="7.6855509"><ele>236.0</ele><time>2026-04-18T18:02:47.95Z</time></trkpt><trkpt lat="45.0448677" lon="7.6854196"><ele>236.0</ele><time>2026-04-18T18:02:49.96Z</time></trkpt><trkpt lat="45.0448937" lon="7.6853268"><ele>236.00000000000003</ele><time>2026-04-18T18:02:50.944Z</time></trkpt><trkpt lat="45.044929" lon="7.6852203"><ele>236.0</ele><time>2026-04-18T18:02:51.955Z</time></trkpt><trkpt lat="45.0449702" lon="7.6851052"><ele>233.20000000000002</ele><time>2026-04-18T18:02:52.959Z</time></trkpt><trkpt lat="45.0450132" lon="7.6849695"><ele>230.40000000000003</ele><time>2026-04-18T18:02:53.962Z</time></trkpt><trkpt lat="45.0450576" lon="7.6848405"><ele>227.6</ele><time>2026-04-18T18:02:54.955Z</time></trkpt><trkpt lat="45.0450985" lon="7.684714"><ele>224.8</ele><time>2026-04-18T18:02:55.968Z</time></trkpt><trkpt lat="45.0451382" lon="7.6845948"><ele>222.0</ele><time>2026-04-18T18:02:56.945Z</time></trkpt><trkpt lat="45.0451787" lon="7.684475"><ele>222.66666666666666</ele><time>2026-04-18T18:02:57.949Z</time></trkpt><trkpt lat="45.0452199" lon="7.684357"><ele>223.33333333333331</ele><time>2026-04-18T18:02:58.957Z</time></trkpt><trkpt lat="45.0452603" lon="7.684236"><ele>224.0</ele><time>2026-04-18T18:02:59.972Z</time></trkpt><trkpt lat="45.0452934" lon="7.6841412"><ele>224.66666666666666</ele><time>2026-04-18T18:03:00.944Z</time></trkpt><trkpt lat="45.0453297" lon="7.6840273"><ele>225.33333333333331</ele><time>2026-04-18T18:03:02.952Z</time></trkpt><trkpt lat="45.0453727" lon="7.6839017"><ele>226.0</ele><time>2026-04-18T18:03:08.966Z</time></trkpt><trkpt lat="45.0454186" lon="7.6838053"><ele>226.0</ele><time>2026-04-18T18:03:10.95Z</time></trkpt><trkpt lat="45.045473" lon="7.6836997"><ele>226.0</ele><time>2026-04-18T18:03:12.949Z</time></trkpt><trkpt lat="45.0455002" lon="7.6836155"><ele>226.0</ele><time>2026-04-18T18:03:13.948Z</time></trkpt><trkpt lat="45.0455136" lon="7.6835253"><ele>226.0</ele><time>2026-04-18T18:03:14.944Z</time></trkpt><trkpt lat="45.0455165" lon="7.6834355"><ele>226.0</ele><time>2026-04-18T18:03:15.956Z</time></trkpt><trkpt lat="45.0455179" lon="7.6833459"><ele>226.0</ele><time>2026-04-18T18:03:16.955Z</time></trkpt><trkpt lat="45.045523" lon="7.6832455"><ele>226.0</ele><time>2026-04-18T18:03:17.957Z</time></trkpt><trkpt lat="45.0455312" lon="7.6831387"><ele>228.20000000000002</ele><time>2026-04-18T18:03:18.948Z</time></trkpt><trkpt lat="45.0455477" lon="7.6830281"><ele>230.40000000000003</ele><time>2026-04-18T18:03:19.951Z</time></trkpt><trkpt lat="45.0455654" lon="7.682917"><ele>232.6</ele><time>2026-04-18T18:03:20.966Z</time></trkpt><trkpt lat="45.0455847" lon="7.6828051"><ele>234.8</ele><time>2026-04-18T18:03:21.96Z</time></trkpt><trkpt lat="45.0456075" lon="7.6826645"><ele>237.0</ele><time>2026-04-18T18:03:22.958Z</time></trkpt><trkpt lat="45.0456311" lon="7.6825059"><ele>237.25</ele><time>2026-04-18T18:03:23.964Z</time></trkpt><trkpt lat="45.0456645" lon="7.6823318"><ele>237.5</ele><time>2026-04-18T18:03:24.948Z</time></trkpt><trkpt lat="45.0456999" lon="7.6821446"><ele>237.75</ele><time>2026-04-18T18:03:25.954Z</time></trkpt><trkpt lat="45.045737" lon="7.6819589"><ele>238.0</ele><time>2026-04-18T18:03:26.954Z</time></trkpt><trkpt lat="45.0457754" lon="7.6817748"><ele>237.5</ele><time>2026-04-18T18:03:27.954Z</time></trkpt><trkpt lat="45.0458146" lon="7.6815943"><ele>237.0</ele><time>2026-04-18T18:03:28.944Z</time></trkpt><trkpt lat="45.0458522" lon="7.6814208"><ele>236.5</ele><time>2026-04-18T18:03:29.963Z</time></trkpt><trkpt lat="45.0458877" lon="7.6812462"><ele>236.0</ele><time>2026-04-18T18:03:30.969Z</time></trkpt><trkpt lat="45.045921" lon="7.681084"><ele>235.60000000000002</ele><time>2026-04-18T18:03:31.971Z</time></trkpt><trkpt lat="45.0459508" lon="7.6809346"><ele>235.20000000000002</ele><time>2026-04-18T18:03:32.955Z</time></trkpt><trkpt lat="45.0459751" lon="7.6808029"><ele>234.79999999999998</ele><time>2026-04-18T18:03:33.955Z</time></trkpt><trkpt lat="45.0459978" lon="7.6806754"><ele>234.39999999999998</ele><time>2026-04-18T18:03:34.97Z</time></trkpt><trkpt lat="45.0460251" lon="7.6805463"><ele>234.0</ele><time>2026-04-18T18:03:35.975Z</time></trkpt><trkpt lat="45.0460563" lon="7.6804128"><ele>234.0</ele><time>2026-04-18T18:03:36.951Z</time></trkpt><trkpt lat="45.0460821" lon="7.6802691"><ele>234.0</ele><time>2026-04-18T18:03:37.955Z</time></trkpt><trkpt lat="45.0461159" lon="7.6801105"><ele>234.0</ele><time>2026-04-18T18:03:38.945Z</time></trkpt><trkpt lat="45.0461463" lon="7.679955"><ele>234.0</ele><time>2026-04-18T18:03:39.945Z</time></trkpt><trkpt lat="45.0461776" lon="7.6797998"><ele>234.16666666666666</ele><time>2026-04-18T18:03:40.965Z</time></trkpt><trkpt lat="45.0462039" lon="7.6796481"><ele>234.33333333333331</ele><time>2026-04-18T18:03:41.945Z</time></trkpt><trkpt lat="45.0462322" lon="7.6795122"><ele>234.5</ele><time>2026-04-18T18:03:42.966Z</time></trkpt><trkpt lat="45.0462546" lon="7.6793907"><ele>234.66666666666666</ele><time>2026-04-18T18:03:43.943Z</time></trkpt><trkpt lat="45.0462718" lon="7.6792819"><ele>234.83333333333331</ele><time>2026-04-18T18:03:44.96Z</time></trkpt><trkpt lat="45.0462822" lon="7.6791878"><ele>235.0</ele><time>2026-04-18T18:03:45.953Z</time></trkpt><trkpt lat="45.0462966" lon="7.6790338"><ele>234.99999999999997</ele><time>2026-04-18T18:03:47.951Z</time></trkpt><trkpt lat="45.0463182" lon="7.6789466"><ele>235.0</ele><time>2026-04-18T18:03:49.954Z</time></trkpt><trkpt lat="45.0463447" lon="7.6788568"><ele>235.0</ele><time>2026-04-18T18:05:09.953Z</time></trkpt><trkpt lat="45.0463764" lon="7.6787435"><ele>235.0</ele><time>2026-04-18T18:05:10.958Z</time></trkpt><trkpt lat="45.0464076" lon="7.6786142"><ele>234.99999999999997</ele><time>2026-04-18T18:05:11.968Z</time></trkpt><trkpt lat="45.0464374" lon="7.678464"><ele>235.0</ele><time>2026-04-18T18:05:12.974Z</time></trkpt><trkpt lat="45.0464731" lon="7.6782878"><ele>235.0</ele><time>2026-04-18T18:05:13.959Z</time></trkpt><trkpt lat="45.0465079" lon="7.6781113"><ele>235.0</ele><time>2026-04-18T18:05:14.945Z</time></trkpt><trkpt lat="45.0465409" lon="7.6779272"><ele>235.0</ele><time>2026-04-18T18:05:15.973Z</time></trkpt><trkpt lat="45.0465697" lon="7.677751"><ele>235.0</ele><time>2026-04-18T18:05:16.948Z</time></trkpt><trkpt lat="45.0466016" lon="7.6775761"><ele>236.5</ele><time>2026-04-18T18:05:17.953Z</time></trkpt><trkpt lat="45.0466333" lon="7.6773991"><ele>238.0</ele><time>2026-04-18T18:05:18.95Z</time></trkpt><trkpt lat="45.0466671" lon="7.6772296"><ele>239.5</ele><time>2026-04-18T18:05:19.953Z</time></trkpt><trkpt lat="45.0466961" lon="7.677072"><ele>241.0</ele><time>2026-04-18T18:05:20.96Z</time></trkpt><trkpt lat="45.0467221" lon="7.6769343"><ele>241.33333333333331</ele><time>2026-04-18T18:05:21.966Z</time></trkpt><trkpt lat="45.046741" lon="7.6768292"><ele>241.66666666666666</ele><time>2026-04-18T18:05:22.947Z</time></trkpt><trkpt lat="45.0467594" lon="7.6767073"><ele>242.0</ele><time>2026-04-18T18:05:24.916Z</time></trkpt><trkpt lat="45.0467796" lon="7.6765743"><ele>242.33333333333331</ele><time>2026-04-18T18:05:27.929Z</time></trkpt><trkpt lat="45.046799" lon="7.6764621"><ele>242.66666666666666</ele><time>2026-04-18T18:05:29.921Z</time></trkpt><trkpt lat="45.0468263" lon="7.6763586"><ele>243.0</ele><time>2026-04-18T18:05:30.922Z</time></trkpt><trkpt lat="45.046843" lon="7.6762638"><ele>242.8</ele><time>2026-04-18T18:05:31.921Z</time></trkpt><trkpt lat="45.0468954" lon="7.6760581"><ele>242.60000000000002</ele><time>2026-04-18T18:05:33.921Z</time></trkpt><trkpt lat="45.0469029" lon="7.6759586"><ele>242.39999999999998</ele><time>2026-04-18T18:05:34.922Z</time></trkpt><trkpt lat="45.046923" lon="7.6758165"><ele>242.2</ele><time>2026-04-18T18:05:36.922Z</time></trkpt><trkpt lat="45.046936" lon="7.6757271"><ele>242.0</ele><time>2026-04-18T18:06:16.921Z</time></trkpt><trkpt lat="45.0469664" lon="7.6755953"><ele>242.0</ele><time>2026-04-18T18:06:18.922Z</time></trkpt><trkpt lat="45.0469958" lon="7.6754883"><ele>242.0</ele><time>2026-04-18T18:06:19.922Z</time></trkpt><trkpt lat="45.0470248" lon="7.6753751"><ele>242.0</ele><time>2026-04-18T18:06:20.921Z</time></trkpt><trkpt lat="45.0470578" lon="7.6752529"><ele>242.0</ele><time>2026-04-18T18:06:21.922Z</time></trkpt><trkpt lat="45.0470878" lon="7.6751268"><ele>242.0</ele><time>2026-04-18T18:06:22.922Z</time></trkpt><trkpt lat="45.0471376" lon="7.674921"><ele>242.5</ele><time>2026-04-18T18:06:23.958Z</time></trkpt><trkpt lat="45.0471648" lon="7.6747519"><ele>243.0</ele><time>2026-04-18T18:06:24.956Z</time></trkpt><trkpt lat="45.0471919" lon="7.674584"><ele>243.5</ele><time>2026-04-18T18:06:25.946Z</time></trkpt><trkpt lat="45.0472225" lon="7.6744057"><ele>244.0</ele><time>2026-04-18T18:06:26.951Z</time></trkpt><trkpt lat="45.0472539" lon="7.6742188"><ele>244.25</ele><time>2026-04-18T18:06:27.957Z</time></trkpt><trkpt lat="45.0472883" lon="7.6740238"><ele>244.5</ele><time>2026-04-18T18:06:28.947Z</time></trkpt><trkpt lat="45.0473252" lon="7.6738251"><ele>244.75</ele><time>2026-04-18T18:06:29.961Z</time></trkpt><trkpt lat="45.047362" lon="7.6736313"><ele>245.0</ele><time>2026-04-18T18:06:30.955Z</time></trkpt><trkpt lat="45.0473952" lon="7.6734618"><ele>245.0</ele><time>2026-04-18T18:06:31.952Z</time></trkpt><trkpt lat="45.0474311" lon="7.6732923"><ele>245.0</ele><time>2026-04-18T18:06:32.951Z</time></trkpt><trkpt lat="45.0474657" lon="7.6731344"><ele>245.0</ele><time>2026-04-18T18:06:33.955Z</time></trkpt><trkpt lat="45.0475031" lon="7.6729756"><ele>245.0</ele><time>2026-04-18T18:06:34.972Z</time></trkpt><trkpt lat="45.0475377" lon="7.6728139"><ele>245.25</ele><time>2026-04-18T18:06:35.947Z</time></trkpt><trkpt lat="45.0475735" lon="7.6726365"><ele>245.5</ele><time>2026-04-18T18:06:36.952Z</time></trkpt><trkpt lat="45.047606" lon="7.6724522"><ele>245.75</ele><time>2026-04-18T18:06:37.946Z</time></trkpt><trkpt lat="45.0476372" lon="7.6722846"><ele>246.0</ele><time>2026-04-18T18:06:38.953Z</time></trkpt><trkpt lat="45.0476653" lon="7.6721371"><ele>246.0</ele><time>2026-04-18T18:06:39.959Z</time></trkpt><trkpt lat="45.0476885" lon="7.6720064"><ele>246.0</ele><time>2026-04-18T18:06:40.944Z</time></trkpt><trkpt lat="45.0477044" lon="7.6718559"><ele>246.0</ele><time>2026-04-18T18:06:41.951Z</time></trkpt><trkpt lat="45.0477317" lon="7.6716881"><ele>246.0</ele><time>2026-04-18T18:06:42.957Z</time></trkpt><trkpt lat="45.0477677" lon="7.6715168"><ele>245.8</ele><time>2026-04-18T18:06:43.975Z</time></trkpt><trkpt lat="45.0478016" lon="7.6713524"><ele>245.60000000000002</ele><time>2026-04-18T18:06:44.955Z</time></trkpt><trkpt lat="45.0478318" lon="7.6712001"><ele>245.4</ele><time>2026-04-18T18:06:45.945Z</time></trkpt><trkpt lat="45.0478591" lon="7.6710621"><ele>245.2</ele><time>2026-04-18T18:06:46.959Z</time></trkpt><trkpt lat="45.0478842" lon="7.6709314"><ele>245.0</ele><time>2026-04-18T18:06:47.968Z</time></trkpt><trkpt lat="45.0479094" lon="7.6708104"><ele>245.0</ele><time>2026-04-18T18:06:48.953Z</time></trkpt><trkpt lat="45.0479342" lon="7.6706851"><ele>245.0</ele><time>2026-04-18T18:06:49.956Z</time></trkpt><trkpt lat="45.0479617" lon="7.6705485"><ele>245.0</ele><time>2026-04-18T18:06:50.955Z</time></trkpt><trkpt lat="45.0479882" lon="7.6704038"><ele>245.0</ele><time>2026-04-18T18:06:51.953Z</time></trkpt><trkpt lat="45.0480157" lon="7.6702593"><ele>245.0</ele><time>2026-04-18T18:06:52.965Z</time></trkpt><trkpt lat="45.0480438" lon="7.6701275"><ele>244.16666666666669</ele><time>2026-04-18T18:06:53.951Z</time></trkpt><trkpt lat="45.0480737" lon="7.670008"><ele>243.33333333333334</ele><time>2026-04-18T18:06:54.954Z</time></trkpt><trkpt lat="45.0481086" lon="7.6699"><ele>242.5</ele><time>2026-04-18T18:06:55.945Z</time></trkpt><trkpt lat="45.0481435" lon="7.6697904"><ele>241.66666666666669</ele><time>2026-04-18T18:06:56.974Z</time></trkpt><trkpt lat="45.0481792" lon="7.6696807"><ele>240.83333333333334</ele><time>2026-04-18T18:06:57.95Z</time></trkpt><trkpt lat="45.0482117" lon="7.6695796"><ele>240.0</ele><time>2026-04-18T18:06:58.974Z</time></trkpt><trkpt lat="45.0482451" lon="7.6694838"><ele>240.0</ele><time>2026-04-18T18:06:59.967Z</time></trkpt><trkpt lat="45.048279" lon="7.6693864"><ele>240.0</ele><time>2026-04-18T18:07:00.956Z</time></trkpt><trkpt lat="45.0483131" lon="7.6692814"><ele>240.0</ele><time>2026-04-18T18:07:01.949Z</time></trkpt><trkpt lat="45.0483507" lon="7.6691639"><ele>240.0</ele><time>2026-04-18T18:07:02.95Z</time></trkpt><trkpt lat="45.0483944" lon="7.6690408"><ele>240.0</ele><time>2026-04-18T18:07:03.958Z</time></trkpt><trkpt lat="45.0484478" lon="7.668918"><ele>240.0</ele><time>2026-04-18T18:07:04.958Z</time></trkpt><trkpt lat="45.048504" lon="7.6687902"><ele>241.0</ele><time>2026-04-18T18:07:05.946Z</time></trkpt><trkpt lat="45.0485615" lon="7.6686617"><ele>242.0</ele><time>2026-04-18T18:07:06.96Z</time></trkpt><trkpt lat="45.0486171" lon="7.6685452"><ele>243.0</ele><time>2026-04-18T18:07:07.951Z</time></trkpt><trkpt lat="45.0486668" lon="7.668434"><ele>244.0</ele><time>2026-04-18T18:07:08.946Z</time></trkpt><trkpt lat="45.0487139" lon="7.6683217"><ele>245.0</ele><time>2026-04-18T18:07:09.957Z</time></trkpt><trkpt lat="45.0487656" lon="7.6682087"><ele>245.0</ele><time>2026-04-18T18:07:10.952Z</time></trkpt><trkpt lat="45.0488154" lon="7.6680958"><ele>245.0</ele><time>2026-04-18T18:07:11.947Z</time></trkpt><trkpt lat="45.048869" lon="7.6679791"><ele>245.0</ele><time>2026-04-18T18:07:12.954Z</time></trkpt><trkpt lat="45.0489246" lon="7.6678567"><ele>245.0</ele><time>2026-04-18T18:07:13.958Z</time></trkpt><trkpt lat="45.0489792" lon="7.6677314"><ele>245.0</ele><time>2026-04-18T18:07:14.975Z</time></trkpt><trkpt lat="45.049038" lon="7.6675881"><ele>245.0</ele><time>2026-04-18T18:07:15.955Z</time></trkpt><trkpt lat="45.0491075" lon="7.6674341"><ele>245.0</ele><time>2026-04-18T18:07:16.962Z</time></trkpt><trkpt lat="45.0491808" lon="7.6672785"><ele>245.0</ele><time>2026-04-18T18:07:17.974Z</time></trkpt><trkpt lat="45.0492486" lon="7.66713"><ele>245.0</ele><time>2026-04-18T18:07:18.947Z</time></trkpt><trkpt lat="45.0493187" lon="7.6670013"><ele>245.33333333333334</ele><time>2026-04-18T18:07:19.975Z</time></trkpt><trkpt lat="45.0493835" lon="7.6669011"><ele>245.66666666666669</ele><time>2026-04-18T18:07:20.95Z</time></trkpt><trkpt lat="45.0494311" lon="7.6668324"><ele>246.0</ele><time>2026-04-18T18:07:21.959Z</time></trkpt><trkpt lat="45.0494967" lon="7.6667497"><ele>246.33333333333331</ele><time>2026-04-18T18:07:23.958Z</time></trkpt><trkpt lat="45.0495791" lon="7.6666331"><ele>246.66666666666666</ele><time>2026-04-18T18:07:25.954Z</time></trkpt><trkpt lat="45.0496216" lon="7.6665602"><ele>247.0</ele><time>2026-04-18T18:07:26.949Z</time></trkpt><trkpt lat="45.0496859" lon="7.6664128"><ele>247.0</ele><time>2026-04-18T18:07:28.964Z</time></trkpt><trkpt lat="45.0497396" lon="7.6662681"><ele>247.0</ele><time>2026-04-18T18:07:30.957Z</time></trkpt><trkpt lat="45.0497841" lon="7.6661549"><ele>247.0</ele><time>2026-04-18T18:07:32.964Z</time></trkpt><trkpt lat="45.0498267" lon="7.6660485"><ele>247.0</ele><time>2026-04-18T18:07:34.964Z</time></trkpt><trkpt lat="45.0498635" lon="7.6659642"><ele>247.0</ele><time>2026-04-18T18:07:36.964Z</time></trkpt><trkpt lat="45.0499132" lon="7.6658612"><ele>246.39999999999998</ele><time>2026-04-18T18:07:39.959Z</time></trkpt><trkpt lat="45.04997" lon="7.6657337"><ele>245.79999999999998</ele><time>2026-04-18T18:07:41.958Z</time></trkpt><trkpt lat="45.0500396" lon="7.6655879"><ele>245.2</ele><time>2026-04-18T18:07:43.969Z</time></trkpt><trkpt lat="45.0500848" lon="7.6655126"><ele>244.6</ele><time>2026-04-18T18:07:44.964Z</time></trkpt><trkpt lat="45.050144" lon="7.6654397"><ele>244.0</ele><time>2026-04-18T18:07:45.949Z</time></trkpt><trkpt lat="45.050209" lon="7.6653745"><ele>244.0</ele><time>2026-04-18T18:07:46.965Z</time></trkpt><trkpt lat="45.0502789" lon="7.6653168"><ele>243.99999999999997</ele><time>2026-04-18T18:07:47.951Z</time></trkpt><trkpt lat="45.0503547" lon="7.6652433"><ele>243.99999999999997</ele><time>2026-04-18T18:07:48.964Z</time></trkpt><trkpt lat="45.0504294" lon="7.6651741"><ele>244.0</ele><time>2026-04-18T18:07:49.969Z</time></trkpt><trkpt lat="45.0505171" lon="7.6651041"><ele>244.0</ele><time>2026-04-18T18:07:50.956Z</time></trkpt><trkpt lat="45.0505909" lon="7.6650366"><ele>244.16666666666666</ele><time>2026-04-18T18:07:51.95Z</time></trkpt><trkpt lat="45.0506659" lon="7.664966"><ele>244.33333333333331</ele><time>2026-04-18T18:07:52.958Z</time></trkpt><trkpt lat="45.0507314" lon="7.6648931"><ele>244.5</ele><time>2026-04-18T18:07:53.961Z</time></trkpt><trkpt lat="45.0507974" lon="7.6648111"><ele>244.66666666666669</ele><time>2026-04-18T18:07:54.967Z</time></trkpt><trkpt lat="45.0508607" lon="7.6647264"><ele>244.83333333333334</ele><time>2026-04-18T18:07:55.974Z</time></trkpt><trkpt lat="45.0509172" lon="7.6646218"><ele>245.0</ele><time>2026-04-18T18:07:56.955Z</time></trkpt><trkpt lat="45.0509697" lon="7.6645091"><ele>245.83333333333334</ele><time>2026-04-18T18:07:57.955Z</time></trkpt><trkpt lat="45.0510162" lon="7.664389"><ele>246.66666666666669</ele><time>2026-04-18T18:07:58.965Z</time></trkpt><trkpt lat="45.0510613" lon="7.6642803"><ele>247.5</ele><time>2026-04-18T18:07:59.959Z</time></trkpt><trkpt lat="45.0510974" lon="7.6641888"><ele>248.33333333333331</ele><time>2026-04-18T18:08:00.951Z</time></trkpt><trkpt lat="45.0511393" lon="7.6640854"><ele>249.16666666666666</ele><time>2026-04-18T18:08:01.944Z</time></trkpt><trkpt lat="45.0511792" lon="7.663995"><ele>250.0</ele><time>2026-04-18T18:08:02.961Z</time></trkpt><trkpt lat="45.051226" lon="7.6638883"><ele>250.0</ele><time>2026-04-18T18:08:03.957Z</time></trkpt><trkpt lat="45.0512731" lon="7.6637742"><ele>250.0</ele><time>2026-04-18T18:08:04.965Z</time></trkpt><trkpt lat="45.0513221" lon="7.6636598"><ele>250.0</ele><time>2026-04-18T18:08:05.95Z</time></trkpt><trkpt lat="45.051369" lon="7.6635421"><ele>250.0</ele><time>2026-04-18T18:08:06.966Z</time></trkpt><trkpt lat="45.0514144" lon="7.6634194"><ele>250.0</ele><time>2026-04-18T18:08:07.956Z</time></trkpt><trkpt lat="45.0514596" lon="7.6632863"><ele>250.4</ele><time>2026-04-18T18:08:08.966Z</time></trkpt><trkpt lat="45.0514996" lon="7.6631509"><ele>250.8</ele><time>2026-04-18T18:08:09.948Z</time></trkpt><trkpt lat="45.0515369" lon="7.6630155"><ele>251.2</ele><time>2026-04-18T18:08:10.949Z</time></trkpt><trkpt lat="45.0515749" lon="7.6628745"><ele>251.6</ele><time>2026-04-18T18:08:11.959Z</time></trkpt><trkpt lat="45.0516092" lon="7.6627343"><ele>252.0</ele><time>2026-04-18T18:08:12.946Z</time></trkpt><trkpt lat="45.0516413" lon="7.6625939"><ele>252.6</ele><time>2026-04-18T18:08:13.968Z</time></trkpt><trkpt lat="45.051673" lon="7.6624605"><ele>253.2</ele><time>2026-04-18T18:08:14.954Z</time></trkpt><trkpt lat="45.0516991" lon="7.6623487"><ele>253.8</ele><time>2026-04-18T18:08:15.956Z</time></trkpt><trkpt lat="45.0517245" lon="7.6622551"><ele>254.4</ele><time>2026-04-18T18:08:16.964Z</time></trkpt><trkpt lat="45.0517632" lon="7.6621027"><ele>255.0</ele><time>2026-04-18T18:08:18.964Z</time></trkpt><trkpt lat="45.0517931" lon="7.6619707"><ele>254.66666666666666</ele><time>2026-04-18T18:08:20.947Z</time></trkpt><trkpt lat="45.0518189" lon="7.6618771"><ele>254.33333333333331</ele><time>2026-04-18T18:08:22.975Z</time></trkpt><trkpt lat="45.0518518" lon="7.6617236"><ele>254.0</ele><time>2026-04-18T18:09:05.959Z</time></trkpt><trkpt lat="45.0518875" lon="7.6615636"><ele>253.66666666666666</ele><time>2026-04-18T18:09:07.967Z</time></trkpt><trkpt lat="45.0519054" lon="7.6614747"><ele>253.33333333333331</ele><time>2026-04-18T18:09:08.945Z</time></trkpt><trkpt lat="45.0519296" lon="7.661374"><ele>253.0</ele><time>2026-04-18T18:09:09.962Z</time></trkpt><trkpt lat="45.051955" lon="7.6612653"><ele>253.0</ele><time>2026-04-18T18:09:10.954Z</time></trkpt><trkpt lat="45.0519811" lon="7.6611463"><ele>253.0</ele><time>2026-04-18T18:09:11.945Z</time></trkpt><trkpt lat="45.0520096" lon="7.6610135"><ele>253.0</ele><time>2026-04-18T18:09:12.95Z</time></trkpt><trkpt lat="45.0520467" lon="7.6608567"><ele>253.0</ele><time>2026-04-18T18:09:13.93Z</time></trkpt><trkpt lat="45.052079" lon="7.6607082"><ele>253.0</ele><time>2026-04-18T18:09:14.934Z</time></trkpt><trkpt lat="45.0521148" lon="7.6605578"><ele>253.60000000000002</ele><time>2026-04-18T18:09:15.924Z</time></trkpt><trkpt lat="45.0521493" lon="7.6604155"><ele>254.20000000000002</ele><time>2026-04-18T18:09:16.924Z</time></trkpt><trkpt lat="45.0521814" lon="7.6602808"><ele>254.8</ele><time>2026-04-18T18:09:17.929Z</time></trkpt><trkpt lat="45.0522143" lon="7.6601424"><ele>255.4</ele><time>2026-04-18T18:09:18.931Z</time></trkpt><trkpt lat="45.0522446" lon="7.6600236"><ele>256.0</ele><time>2026-04-18T18:09:19.932Z</time></trkpt><trkpt lat="45.052275" lon="7.659889"><ele>256.0</ele><time>2026-04-18T18:09:20.932Z</time></trkpt><trkpt lat="45.0522988" lon="7.659747"><ele>256.0</ele><time>2026-04-18T18:09:21.932Z</time></trkpt><trkpt lat="45.0523217" lon="7.659597"><ele>256.0</ele><time>2026-04-18T18:09:22.932Z</time></trkpt><trkpt lat="45.0523478" lon="7.6594396"><ele>256.0</ele><time>2026-04-18T18:09:23.932Z</time></trkpt><trkpt lat="45.0523763" lon="7.6593132"><ele>256.0</ele><time>2026-04-18T18:09:24.931Z</time></trkpt><trkpt lat="45.0524221" lon="7.6591885"><ele>256.16666666666663</ele><time>2026-04-18T18:09:25.932Z</time></trkpt><trkpt lat="45.0524518" lon="7.6590593"><ele>256.3333333333333</ele><time>2026-04-18T18:09:26.932Z</time></trkpt><trkpt lat="45.0524747" lon="7.658961"><ele>256.5</ele><time>2026-04-18T18:09:27.931Z</time></trkpt><trkpt lat="45.052499" lon="7.658859"><ele>256.6666666666667</ele><time>2026-04-18T18:09:28.932Z</time></trkpt><trkpt lat="45.0525237" lon="7.6587483"><ele>256.83333333333337</ele><time>2026-04-18T18:09:29.932Z</time></trkpt><trkpt lat="45.0525416" lon="7.6586464"><ele>257.0</ele><time>2026-04-18T18:09:30.931Z</time></trkpt><trkpt lat="45.0525671" lon="7.6585377"><ele>257.1666666666667</ele><time>2026-04-18T18:09:31.931Z</time></trkpt><trkpt lat="45.0525913" lon="7.658436"><ele>257.33333333333337</ele><time>2026-04-18T18:09:32.932Z</time></trkpt><trkpt lat="45.0526168" lon="7.65833"><ele>257.5</ele><time>2026-04-18T18:09:33.932Z</time></trkpt><trkpt lat="45.0526442" lon="7.6582119"><ele>257.6666666666667</ele><time>2026-04-18T18:09:34.932Z</time></trkpt><trkpt lat="45.0526723" lon="7.6581012"><ele>257.8333333333333</ele><time>2026-04-18T18:09:35.931Z</time></trkpt><trkpt lat="45.0527021" lon="7.6579851"><ele>258.0</ele><time>2026-04-18T18:09:36.932Z</time></trkpt><trkpt lat="45.0527319" lon="7.6578665"><ele>257.5</ele><time>2026-04-18T18:09:37.931Z</time></trkpt><trkpt lat="45.0527616" lon="7.65775"><ele>257.0</ele><time>2026-04-18T18:09:38.931Z</time></trkpt><trkpt lat="45.0527889" lon="7.6576346"><ele>256.5</ele><time>2026-04-18T18:09:39.932Z</time></trkpt><trkpt lat="45.0528154" lon="7.6575176"><ele>256.0</ele><time>2026-04-18T18:09:40.931Z</time></trkpt><trkpt lat="45.052838" lon="7.6574083"><ele>255.5</ele><time>2026-04-18T18:09:41.931Z</time></trkpt><trkpt lat="45.0528662" lon="7.6573028"><ele>255.0</ele><time>2026-04-18T18:09:42.931Z</time></trkpt><trkpt lat="45.0528988" lon="7.6571514"><ele>255.0</ele><time>2026-04-18T18:09:44.931Z</time></trkpt><trkpt lat="45.0529303" lon="7.65702"><ele>255.0</ele><time>2026-04-18T18:09:46.932Z</time></trkpt><trkpt lat="45.0529643" lon="7.6568497"><ele>255.0</ele><time>2026-04-18T18:09:48.932Z</time></trkpt><trkpt lat="45.0529804" lon="7.6567613"><ele>255.0</ele><time>2026-04-18T18:09:49.931Z</time></trkpt><trkpt lat="45.0530071" lon="7.6566526"><ele>255.0</ele><time>2026-04-18T18:09:50.932Z</time></trkpt><trkpt lat="45.0530296" lon="7.6565446"><ele>255.0</ele><time>2026-04-18T18:09:51.931Z</time></trkpt><trkpt lat="45.0530579" lon="7.6564193"><ele>254.4</ele><time>2026-04-18T18:09:52.932Z</time></trkpt><trkpt lat="45.053089" lon="7.6562934"><ele>253.8</ele><time>2026-04-18T18:09:53.932Z</time></trkpt><trkpt lat="45.0531179" lon="7.6561486"><ele>253.2</ele><time>2026-04-18T18:09:54.932Z</time></trkpt><trkpt lat="45.0531476" lon="7.655985"><ele>252.6</ele><time>2026-04-18T18:09:55.931Z</time></trkpt><trkpt lat="45.0531803" lon="7.6558151"><ele>252.0</ele><time>2026-04-18T18:09:56.931Z</time></trkpt><trkpt lat="45.0532324" lon="7.6556942"><ele>252.39999999999998</ele><time>2026-04-18T18:09:57.963Z</time></trkpt><trkpt lat="45.0532749" lon="7.6555486"><ele>252.79999999999998</ele><time>2026-04-18T18:09:58.948Z</time></trkpt><trkpt lat="45.0533185" lon="7.6554142"><ele>253.2</ele><time>2026-04-18T18:09:59.945Z</time></trkpt><trkpt lat="45.0533748" lon="7.6552845"><ele>253.6</ele><time>2026-04-18T18:10:00.952Z</time></trkpt><trkpt lat="45.0534413" lon="7.6551733"><ele>254.0</ele><time>2026-04-18T18:10:01.96Z</time></trkpt><trkpt lat="45.053522" lon="7.6550846"><ele>254.0</ele><time>2026-04-18T18:10:02.946Z</time></trkpt><trkpt lat="45.0536254" lon="7.6550033"><ele>254.0</ele><time>2026-04-18T18:10:03.945Z</time></trkpt><trkpt lat="45.0537448" lon="7.6549301"><ele>254.0</ele><time>2026-04-18T18:10:04.961Z</time></trkpt><trkpt lat="45.0538935" lon="7.6548635"><ele>254.0</ele><time>2026-04-18T18:10:05.956Z</time></trkpt><trkpt lat="45.0540687" lon="7.6548013"><ele>255.0</ele><time>2026-04-18T18:10:06.959Z</time></trkpt><trkpt lat="45.0542553" lon="7.6547492"><ele>256.0</ele><time>2026-04-18T18:10:07.949Z</time></trkpt><trkpt lat="45.0544412" lon="7.6547039"><ele>257.0</ele><time>2026-04-18T18:10:08.957Z</time></trkpt><trkpt lat="45.0545968" lon="7.6546872"><ele>257.0</ele><time>2026-04-18T18:10:09.959Z</time></trkpt><trkpt lat="45.0547385" lon="7.6546726"><ele>257.0</ele><time>2026-04-18T18:10:10.949Z</time></trkpt><trkpt lat="45.0548518" lon="7.6546632"><ele>257.0</ele><time>2026-04-18T18:10:11.956Z</time></trkpt><trkpt lat="45.0549369" lon="7.6546574"><ele>257.0</ele><time>2026-04-18T18:10:12.957Z</time></trkpt><trkpt lat="45.0549999" lon="7.6546514"><ele>257.0</ele><time>2026-04-18T18:10:13.944Z</time></trkpt><trkpt lat="45.0550833" lon="7.6546497"><ele>257.4</ele><time>2026-04-18T18:10:16.962Z</time></trkpt><trkpt lat="45.0552004" lon="7.6546513"><ele>257.79999999999995</ele><time>2026-04-18T18:10:19.973Z</time></trkpt><trkpt lat="45.0553356" lon="7.6546659"><ele>258.2</ele><time>2026-04-18T18:10:21.964Z</time></trkpt><trkpt lat="45.0554142" lon="7.6546781"><ele>258.59999999999997</ele><time>2026-04-18T18:10:22.958Z</time></trkpt><trkpt lat="45.0555025" lon="7.6546946"><ele>259.0</ele><time>2026-04-18T18:10:23.947Z</time></trkpt><trkpt lat="45.0555976" lon="7.6547134"><ele>259.0</ele><time>2026-04-18T18:10:24.952Z</time></trkpt><trkpt lat="45.0557021" lon="7.6547386"><ele>259.0</ele><time>2026-04-18T18:10:25.959Z</time></trkpt><trkpt lat="45.0558252" lon="7.6547613"><ele>259.0</ele><time>2026-04-18T18:10:26.957Z</time></trkpt><trkpt lat="45.0559458" lon="7.6547912"><ele>259.0</ele><time>2026-04-18T18:10:27.972Z</time></trkpt><trkpt lat="45.0560661" lon="7.6548195"><ele>258.75</ele><time>2026-04-18T18:10:28.944Z</time></trkpt><trkpt lat="45.0561896" lon="7.6548501"><ele>258.5</ele><time>2026-04-18T18:10:29.956Z</time></trkpt><trkpt lat="45.0563237" lon="7.6548815"><ele>258.25</ele><time>2026-04-18T18:10:30.96Z</time></trkpt><trkpt lat="45.0564626" lon="7.6549024"><ele>258.0</ele><time>2026-04-18T18:10:31.953Z</time></trkpt><trkpt lat="45.0566153" lon="7.6549365"><ele>257.0</ele><time>2026-04-18T18:10:32.945Z</time></trkpt><trkpt lat="45.0567684" lon="7.6549747"><ele>256.0</ele><time>2026-04-18T18:10:33.967Z</time></trkpt><trkpt lat="45.0569209" lon="7.6550242"><ele>255.0</ele><time>2026-04-18T18:10:34.953Z</time></trkpt><trkpt lat="45.0570641" lon="7.6550877"><ele>255.0</ele><time>2026-04-18T18:10:35.967Z</time></trkpt><trkpt lat="45.0571927" lon="7.6551585"><ele>255.0</ele><time>2026-04-18T18:10:36.952Z</time></trkpt><trkpt lat="45.0573092" lon="7.6552351"><ele>255.0</ele><time>2026-04-18T18:10:37.946Z</time></trkpt><trkpt lat="45.0574177" lon="7.65531"><ele>255.0</ele><time>2026-04-18T18:10:38.961Z</time></trkpt><trkpt lat="45.0575109" lon="7.6553711"><ele>254.83333333333334</ele><time>2026-04-18T18:10:39.96Z</time></trkpt><trkpt lat="45.0575944" lon="7.6554131"><ele>254.66666666666669</ele><time>2026-04-18T18:10:40.948Z</time></trkpt><trkpt lat="45.0576922" lon="7.6553619"><ele>254.5</ele><time>2026-04-18T18:10:42.966Z</time></trkpt><trkpt lat="45.0577243" lon="7.6552831"><ele>254.33333333333334</ele><time>2026-04-18T18:10:44.952Z</time></trkpt><trkpt lat="45.0577179" lon="7.6551368"><ele>254.16666666666669</ele><time>2026-04-18T18:11:09.969Z</time></trkpt><trkpt lat="45.0576891" lon="7.6550539"><ele>254.0</ele><time>2026-04-18T18:11:10.947Z</time></trkpt><trkpt lat="45.0576308" lon="7.6549605"><ele>254.0</ele><time>2026-04-18T18:11:11.963Z</time></trkpt><trkpt lat="45.057542" lon="7.6548694"><ele>254.0</ele><time>2026-04-18T18:11:12.947Z</time></trkpt><trkpt lat="45.0574334" lon="7.6547849"><ele>254.0</ele><time>2026-04-18T18:11:13.953Z</time></trkpt><trkpt lat="45.0573098" lon="7.654706"><ele>254.0</ele><time>2026-04-18T18:11:14.945Z</time></trkpt><trkpt lat="45.0571958" lon="7.6546328"><ele>254.2</ele><time>2026-04-18T18:11:15.957Z</time></trkpt><trkpt lat="45.057095" lon="7.6545439"><ele>254.39999999999998</ele><time>2026-04-18T18:11:16.955Z</time></trkpt><trkpt lat="45.0570106" lon="7.6544384"><ele>254.6</ele><time>2026-04-18T18:11:17.946Z</time></trkpt><trkpt lat="45.056967" lon="7.6543036"><ele>254.8</ele><time>2026-04-18T18:11:18.955Z</time></trkpt><trkpt lat="45.056935" lon="7.6541714"><ele>255.0</ele><time>2026-04-18T18:11:19.955Z</time></trkpt><trkpt lat="45.0569116" lon="7.6540399"><ele>254.83333333333334</ele><time>2026-04-18T18:11:20.971Z</time></trkpt><trkpt lat="45.0568895" lon="7.6539161"><ele>254.66666666666669</ele><time>2026-04-18T18:11:21.947Z</time></trkpt><trkpt lat="45.056854" lon="7.6538056"><ele>254.5</ele><time>2026-04-18T18:11:22.958Z</time></trkpt><trkpt lat="45.0568043" lon="7.6537022"><ele>254.33333333333334</ele><time>2026-04-18T18:11:23.964Z</time></trkpt><trkpt lat="45.0567425" lon="7.653611"><ele>254.16666666666669</ele><time>2026-04-18T18:11:24.948Z</time></trkpt><trkpt lat="45.0566847" lon="7.6535254"><ele>254.0</ele><time>2026-04-18T18:11:25.967Z</time></trkpt><trkpt lat="45.0566337" lon="7.6534493"><ele>253.79999999999998</ele><time>2026-04-18T18:11:26.948Z</time></trkpt><trkpt lat="45.0565644" lon="7.6533472"><ele>253.59999999999997</ele><time>2026-04-18T18:11:28.962Z</time></trkpt><trkpt lat="45.0564934" lon="7.6532373"><ele>253.4</ele><time>2026-04-18T18:11:30.956Z</time></trkpt><trkpt lat="45.0564252" lon="7.6531225"><ele>253.2</ele><time>2026-04-18T18:11:32.95Z</time></trkpt><trkpt lat="45.0563803" lon="7.6530403"><ele>253.0</ele><time>2026-04-18T18:11:34.956Z</time></trkpt><trkpt lat="45.0563375" lon="7.652969"><ele>252.99999999999997</ele><time>2026-04-18T18:11:37.971Z</time></trkpt><trkpt lat="45.0562956" lon="7.6528932"><ele>253.0</ele><time>2026-04-18T18:11:42.964Z</time></trkpt><trkpt lat="45.0562325" lon="7.6527897"><ele>253.0</ele><time>2026-04-18T18:11:45.96Z</time></trkpt><trkpt lat="45.056175" lon="7.652683"><ele>253.0</ele><time>2026-04-18T18:11:47.949Z</time></trkpt><trkpt lat="45.056118" lon="7.6525952"><ele>252.99999999999997</ele><time>2026-04-18T18:11:49.961Z</time></trkpt><trkpt lat="45.0560496" lon="7.6526119"><ele>253.0</ele><time>2026-04-18T18:12:05.963Z</time></trkpt><trkpt lat="45.0560104" lon="7.652732"><ele>253.0</ele><time>2026-04-18T18:12:07.97Z</time></trkpt><trkpt lat="45.0559791" lon="7.6528341"><ele>253.0</ele><time>2026-04-18T18:12:08.971Z</time></trkpt><trkpt lat="45.0559414" lon="7.6529393"><ele>253.0</ele><time>2026-04-18T18:12:09.972Z</time></trkpt><trkpt lat="45.0558986" lon="7.6530652"><ele>253.0</ele><time>2026-04-18T18:12:10.955Z</time></trkpt><trkpt lat="45.0558481" lon="7.6532114"><ele>253.0</ele><time>2026-04-18T18:12:11.966Z</time></trkpt><trkpt lat="45.055799" lon="7.6533684"><ele>254.0</ele><time>2026-04-18T18:12:12.962Z</time></trkpt><trkpt lat="45.0557473" lon="7.653535"><ele>255.0</ele><time>2026-04-18T18:12:13.972Z</time></trkpt><trkpt lat="45.055694" lon="7.6537091"><ele>256.0</ele><time>2026-04-18T18:12:14.961Z</time></trkpt><trkpt lat="45.0556456" lon="7.6538789"><ele>257.0</ele><time>2026-04-18T18:12:15.975Z</time></trkpt><trkpt lat="45.0556029" lon="7.6540258"><ele>257.1666666666667</ele><time>2026-04-18T18:12:16.975Z</time></trkpt><trkpt lat="45.0555605" lon="7.6541297"><ele>257.33333333333337</ele><time>2026-04-18T18:12:17.975Z</time></trkpt><trkpt lat="45.0554906" lon="7.6542083"><ele>257.5</ele><time>2026-04-18T18:12:19.964Z</time></trkpt><trkpt lat="45.0554194" lon="7.6542199"><ele>257.6666666666667</ele><time>2026-04-18T18:12:21.966Z</time></trkpt><trkpt lat="45.0553273" lon="7.6542001"><ele>257.8333333333333</ele><time>2026-04-18T18:12:23.953Z</time></trkpt><trkpt lat="45.0552363" lon="7.6541845"><ele>258.0</ele><time>2026-04-18T18:12:25.967Z</time></trkpt><trkpt lat="45.0551481" lon="7.6541606"><ele>258.0</ele><time>2026-04-18T18:12:27.953Z</time></trkpt><trkpt lat="45.0550666" lon="7.6541308"><ele>258.0</ele><time>2026-04-18T18:12:29.951Z</time></trkpt><trkpt lat="45.0549946" lon="7.6540719"><ele>258.0</ele><time>2026-04-18T18:13:12.959Z</time></trkpt><trkpt lat="45.0549231" lon="7.6539964"><ele>258.0</ele><time>2026-04-18T18:13:15.956Z</time></trkpt><trkpt lat="45.054861" lon="7.6540118"><ele>258.0</ele><time>2026-04-18T18:13:26.957Z</time></trkpt><trkpt lat="45.0547836" lon="7.6539489"><ele>258.0</ele><time>2026-04-18T18:13:46.971Z</time></trkpt><trkpt lat="45.0547076" lon="7.6539859"><ele>258.0</ele><time>2026-04-18T18:13:49.954Z</time></trkpt><trkpt lat="45.0546348" lon="7.6540029"><ele>258.0</ele><time>2026-04-18T18:13:59.96Z</time></trkpt><trkpt lat="45.0547077" lon="7.6539685"><ele>258.0</ele><time>2026-04-18T18:14:12.957Z</time></trkpt><trkpt lat="45.0549297" lon="7.6532554"><ele>255.0</ele><time>2026-04-18T18:14:32.951Z</time></trkpt><trkpt lat="45.0547333" lon="7.6539535"><ele>256.5</ele><time>2026-04-18T18:14:35.945Z</time></trkpt><trkpt lat="45.0549059" lon="7.6533886"><ele>258.0</ele><time>2026-04-18T18:15:44.06Z</time></trkpt><trkpt lat="45.0548964" lon="7.6532997"><ele>258.0</ele><time>2026-04-18T18:17:17.895Z</time></trkpt><trkpt lat="45.0548203" lon="7.6537439"><ele>258.0</ele><time>2026-04-18T18:18:33.382Z</time></trkpt><trkpt lat="45.0548462" lon="7.6535881"><ele>258.0</ele><time>2026-04-18T18:18:47.932Z</time></trkpt><trkpt lat="45.0548418" lon="7.6534782"><ele>258.0</ele><time>2026-04-18T18:19:25.944Z</time></trkpt><trkpt lat="45.0548968" lon="7.6534126"><ele>258.0</ele><time>2026-04-18T18:25:43.971Z</time></trkpt><trkpt lat="45.0548915" lon="7.6535016"><ele>258.0</ele><time>2026-04-18T18:26:47.95Z</time></trkpt><trkpt lat="45.0548822" lon="7.6535978"><ele>258.0</ele><time>2026-04-18T18:27:00.943Z</time></trkpt><trkpt lat="45.0547808" lon="7.6536384"><ele>255.0</ele><time>2026-04-18T18:27:13.943Z</time></trkpt><trkpt lat="45.0548493" lon="7.6536449"><ele>255.0</ele><time>2026-04-18T18:34:58.924Z</time></trkpt><trkpt lat="45.0548674" lon="7.6535586"><ele>258.0</ele><time>2026-04-18T18:35:05.924Z</time></trkpt></trkseg></trk></gpx>